<?xml version='1.0' encoding='UTF-8'?><gpx version="1.1" creator="JPX - https://github.com/jenetics/jpx" xmlns="http://www.topografix.com/GPX/1/1"><trk><trkseg><trkpt lat="37.53750708074119" lon="14.0393038848461"><ele>464.00000000000006</ele><time>2026-04-26T08:06:43.998Z</time></trkpt><trkpt lat="37.537438948701435" lon="14.039331857187733"><ele>464.0</ele><time>2026-04-26T08:21:16.999Z</time></trkpt><trkpt lat="37.537506883953945" lon="14.039329947999684"><ele>464.00000000000006</ele><time>2026-04-26T08:22:42.999Z</time></trkpt><trkpt lat="37.537448941922094" lon="14.039298206003123"><ele>464.00000000000006</ele><time>2026-04-26T08:33:40.999Z</time></trkpt><trkpt lat="37.537419113710726" lon="14.039372294768889"><ele>464.0</ele><time>2026-04-26T08:34:02.999Z</time></trkpt><trkpt lat="37.53744609183333" lon="14.039444539632974"><ele>464.00000000000006</ele><time>2026-04-26T08:34:05.999Z</time></trkpt><trkpt lat="37.53752269228184" lon="14.03946616517616"><ele>464.00000000000006</ele><time>2026-04-26T08:34:08.998Z</time></trkpt><trkpt lat="37.53754308527129" lon="14.0393795781705"><ele>464.00000000000006</ele><time>2026-04-26T08:34:10.998Z</time></trkpt><trkpt lat="37.5375107968003" lon="14.039297702951972"><ele>464.0</ele><time>2026-04-26T08:34:14.998Z</time></trkpt><trkpt lat="37.53747176813319" lon="14.039212601709028"><ele>464.00000000000006</ele><time>2026-04-26T08:36:14.998Z</time></trkpt><trkpt lat="37.53747163969658" lon="14.039131085305403"><ele>464.00000000000006</ele><time>2026-04-26T08:36:17.998Z</time></trkpt><trkpt lat="37.5375354199849" lon="14.039059063187702"><ele>464.0</ele><time>2026-04-26T08:36:20.998Z</time></trkpt><trkpt lat="37.53756175594811" lon="14.038980615214854"><ele>464.00000000000006</ele><time>2026-04-26T08:36:23.998Z</time></trkpt><trkpt lat="37.5375494331129" lon="14.038897942164272"><ele>464.00000000000006</ele><time>2026-04-26T08:36:25.998Z</time></trkpt><trkpt lat="37.53754364462733" lon="14.03880935795"><ele>462.7142857142858</ele><time>2026-04-26T08:36:27.998Z</time></trkpt><trkpt lat="37.53752915982607" lon="14.038716231211447"><ele>461.42857142857144</ele><time>2026-04-26T08:36:29.998Z</time></trkpt><trkpt lat="37.53751197500168" lon="14.03863141362048"><ele>460.14285714285717</ele><time>2026-04-26T08:36:31.998Z</time></trkpt><trkpt lat="37.53749803790418" lon="14.038550740563663"><ele>458.8571428571429</ele><time>2026-04-26T08:36:33.998Z</time></trkpt><trkpt lat="37.53748028444184" lon="14.038455724796561"><ele>457.57142857142856</ele><time>2026-04-26T08:36:36Z</time></trkpt><trkpt lat="37.53745969524286" lon="14.038368293394406"><ele>456.2857142857143</ele><time>2026-04-26T08:36:38Z</time></trkpt><trkpt lat="37.53744540659875" lon="14.038268234644008"><ele>455.0</ele><time>2026-04-26T08:36:40Z</time></trkpt><trkpt lat="37.537430492450966" lon="14.038188648756087"><ele>453.66666666666663</ele><time>2026-04-26T08:36:42Z</time></trkpt><trkpt lat="37.53741319946709" lon="14.038092556779771"><ele>452.3333333333333</ele><time>2026-04-26T08:36:45Z</time></trkpt><trkpt lat="37.537400225000816" lon="14.037990208854616"><ele>451.0</ele><time>2026-04-26T08:36:47Z</time></trkpt><trkpt lat="37.537388868212275" lon="14.037888131286719"><ele>449.66666666666663</ele><time>2026-04-26T08:36:49Z</time></trkpt><trkpt lat="37.53737111770805" lon="14.037776267876716"><ele>448.3333333333333</ele><time>2026-04-26T08:36:51Z</time></trkpt><trkpt lat="37.53735238389642" lon="14.03766108462306"><ele>447.0</ele><time>2026-04-26T08:36:53Z</time></trkpt><trkpt lat="37.537331292666934" lon="14.0375627563954"><ele>445.40000000000003</ele><time>2026-04-26T08:36:55Z</time></trkpt><trkpt lat="37.537328224960355" lon="14.03743898526813"><ele>443.80000000000007</ele><time>2026-04-26T08:36:57Z</time></trkpt><trkpt lat="37.53730895950377" lon="14.037287356196472"><ele>442.2</ele><time>2026-04-26T08:36:59Z</time></trkpt><trkpt lat="37.53729791197325" lon="14.037157119177614"><ele>440.6</ele><time>2026-04-26T08:37:01Z</time></trkpt><trkpt lat="37.53727086625301" lon="14.037046429073545"><ele>439.0</ele><time>2026-04-26T08:37:03Z</time></trkpt><trkpt lat="37.537248788000404" lon="14.036966542413246"><ele>439.0</ele><time>2026-04-26T08:37:05Z</time></trkpt><trkpt lat="37.53719422444531" lon="14.036849944757298"><ele>439.0</ele><time>2026-04-26T08:37:07Z</time></trkpt><trkpt lat="37.53715888307284" lon="14.036725701368688"><ele>439.0</ele><time>2026-04-26T08:37:09Z</time></trkpt><trkpt lat="37.537108704759945" lon="14.036599173703289"><ele>439.0</ele><time>2026-04-26T08:37:11Z</time></trkpt><trkpt lat="37.53705436252652" lon="14.036466562995548"><ele>439.0</ele><time>2026-04-26T08:37:13Z</time></trkpt><trkpt lat="37.53699113016663" lon="14.036301143461593"><ele>438.83333333333337</ele><time>2026-04-26T08:37:15Z</time></trkpt><trkpt lat="37.536985751149956" lon="14.036143971584776"><ele>438.6666666666667</ele><time>2026-04-26T08:37:16.999Z</time></trkpt><trkpt lat="37.53700073544083" lon="14.03606120141703"><ele>438.5</ele><time>2026-04-26T08:37:17.999Z</time></trkpt><trkpt lat="37.53701754799906" lon="14.035979179074612"><ele>438.33333333333337</ele><time>2026-04-26T08:37:18.999Z</time></trkpt><trkpt lat="37.53704123378627" lon="14.035887554405297"><ele>438.1666666666667</ele><time>2026-04-26T08:37:19.999Z</time></trkpt><trkpt lat="37.53705793235029" lon="14.035804238621202"><ele>438.0</ele><time>2026-04-26T08:37:20.999Z</time></trkpt><trkpt lat="37.53707629527769" lon="14.035720403785698"><ele>436.8571428571429</ele><time>2026-04-26T08:37:21.999Z</time></trkpt><trkpt lat="37.53709203025861" lon="14.035640565595434"><ele>435.71428571428567</ele><time>2026-04-26T08:37:22.999Z</time></trkpt><trkpt lat="37.53710848730999" lon="14.035557773021008"><ele>434.57142857142856</ele><time>2026-04-26T08:37:23.999Z</time></trkpt><trkpt lat="37.53712579126434" lon="14.035459352144686"><ele>433.42857142857144</ele><time>2026-04-26T08:37:24.999Z</time></trkpt><trkpt lat="37.53714640383287" lon="14.035360747362907"><ele>432.28571428571433</ele><time>2026-04-26T08:37:25.999Z</time></trkpt><trkpt lat="37.53716742684438" lon="14.035276216708816"><ele>431.1428571428571</ele><time>2026-04-26T08:37:26.999Z</time></trkpt><trkpt lat="37.537192013771886" lon="14.035194558455613"><ele>430.0</ele><time>2026-04-26T08:37:27.999Z</time></trkpt><trkpt lat="37.53721550640697" lon="14.035110991722826"><ele>430.00000000000006</ele><time>2026-04-26T08:37:28.999Z</time></trkpt><trkpt lat="37.53724655749729" lon="14.035015907392072"><ele>430.0</ele><time>2026-04-26T08:37:29.999Z</time></trkpt><trkpt lat="37.53728259561551" lon="14.034926504535937"><ele>430.0</ele><time>2026-04-26T08:37:30.999Z</time></trkpt><trkpt lat="37.537321302974796" lon="14.03484619409002"><ele>430.0</ele><time>2026-04-26T08:37:31.999Z</time></trkpt><trkpt lat="37.5373642555405" lon="14.034771197461888"><ele>430.00000000000006</ele><time>2026-04-26T08:37:32.999Z</time></trkpt><trkpt lat="37.53741431784544" lon="14.034693093842549"><ele>430.0</ele><time>2026-04-26T08:37:33.999Z</time></trkpt><trkpt lat="37.53746317167918" lon="14.034623784645746"><ele>430.1666666666667</ele><time>2026-04-26T08:37:34.999Z</time></trkpt><trkpt lat="37.537506593396095" lon="14.03456267173856"><ele>430.33333333333337</ele><time>2026-04-26T08:37:35.999Z</time></trkpt><trkpt lat="37.537547677097216" lon="14.034492750496534"><ele>430.5</ele><time>2026-04-26T08:37:36.999Z</time></trkpt><trkpt lat="37.537588502366056" lon="14.034411271369951"><ele>430.66666666666663</ele><time>2026-04-26T08:37:37.999Z</time></trkpt><trkpt lat="37.537623343537874" lon="14.03432728515848"><ele>430.8333333333333</ele><time>2026-04-26T08:37:38.999Z</time></trkpt><trkpt lat="37.5376530036859" lon="14.034248986913406"><ele>431.0</ele><time>2026-04-26T08:37:39.999Z</time></trkpt><trkpt lat="37.53770770251365" lon="14.03411824985907"><ele>428.6</ele><time>2026-04-26T08:37:41.999Z</time></trkpt><trkpt lat="37.53773666891553" lon="14.0340303343925"><ele>426.20000000000005</ele><time>2026-04-26T08:37:44.999Z</time></trkpt><trkpt lat="37.537821599892126" lon="14.033993144977124"><ele>423.79999999999995</ele><time>2026-04-26T08:38:03.999Z</time></trkpt><trkpt lat="37.53788528012355" lon="14.033915474109039"><ele>421.4</ele><time>2026-04-26T08:38:05.999Z</time></trkpt><trkpt lat="37.537963849968705" lon="14.033835875830816"><ele>419.0</ele><time>2026-04-26T08:38:07.999Z</time></trkpt><trkpt lat="37.53805316177774" lon="14.033758728594092"><ele>419.0</ele><time>2026-04-26T08:38:09.999Z</time></trkpt><trkpt lat="37.53813697208166" lon="14.033691620282182"><ele>419.0</ele><time>2026-04-26T08:38:11.999Z</time></trkpt><trkpt lat="37.538212829309984" lon="14.033628498539775"><ele>419.0</ele><time>2026-04-26T08:38:13.999Z</time></trkpt><trkpt lat="37.53827346435285" lon="14.03354925042421"><ele>419.0</ele><time>2026-04-26T08:38:15.998Z</time></trkpt><trkpt lat="37.53834791167155" lon="14.033441525399136"><ele>419.0</ele><time>2026-04-26T08:38:17.998Z</time></trkpt><trkpt lat="37.538397032496654" lon="14.033323935627905"><ele>417.0</ele><time>2026-04-26T08:38:19.998Z</time></trkpt><trkpt lat="37.538447622997154" lon="14.03320710682203"><ele>415.0</ele><time>2026-04-26T08:38:21.998Z</time></trkpt><trkpt lat="37.538496608961765" lon="14.033099626559268"><ele>413.0</ele><time>2026-04-26T08:38:23.998Z</time></trkpt><trkpt lat="37.538546506964074" lon="14.032966738825364"><ele>411.0</ele><time>2026-04-26T08:38:25.998Z</time></trkpt><trkpt lat="37.53858077410537" lon="14.032896593174994"><ele>409.0</ele><time>2026-04-26T08:38:26.998Z</time></trkpt><trkpt lat="37.538617636017406" lon="14.032829846139963"><ele>409.0</ele><time>2026-04-26T08:38:27.998Z</time></trkpt><trkpt lat="37.53865347892201" lon="14.032764469224833"><ele>409.0</ele><time>2026-04-26T08:38:28.998Z</time></trkpt><trkpt lat="37.5387236316678" lon="14.032634289749966"><ele>409.0</ele><time>2026-04-26T08:38:30.998Z</time></trkpt><trkpt lat="37.53880141928028" lon="14.03250631679001"><ele>409.0</ele><time>2026-04-26T08:38:32.998Z</time></trkpt><trkpt lat="37.53884390007107" lon="14.03243473297864"><ele>409.0</ele><time>2026-04-26T08:38:33.998Z</time></trkpt><trkpt lat="37.53888980588155" lon="14.032357454850786"><ele>408.83333333333337</ele><time>2026-04-26T08:38:34.998Z</time></trkpt><trkpt lat="37.53893701855237" lon="14.032276088207094"><ele>408.6666666666667</ele><time>2026-04-26T08:38:35.998Z</time></trkpt><trkpt lat="37.5389802435423" lon="14.032189703486956"><ele>408.5</ele><time>2026-04-26T08:38:36.998Z</time></trkpt><trkpt lat="37.53902846064827" lon="14.032097564051782"><ele>408.33333333333337</ele><time>2026-04-26T08:38:37.998Z</time></trkpt><trkpt lat="37.53907423619391" lon="14.032000946953904"><ele>408.1666666666667</ele><time>2026-04-26T08:38:38.998Z</time></trkpt><trkpt lat="37.5391148374171" lon="14.031900350339404"><ele>408.0</ele><time>2026-04-26T08:38:39.998Z</time></trkpt><trkpt lat="37.539149297039295" lon="14.031799387848851"><ele>408.0</ele><time>2026-04-26T08:38:41Z</time></trkpt><trkpt lat="37.53917341266587" lon="14.031687410132268"><ele>408.0</ele><time>2026-04-26T08:38:42Z</time></trkpt><trkpt lat="37.539196203502705" lon="14.031577845195018"><ele>408.0</ele><time>2026-04-26T08:38:43Z</time></trkpt><trkpt lat="37.53921952691399" lon="14.031471470281856"><ele>408.0</ele><time>2026-04-26T08:38:44Z</time></trkpt><trkpt lat="37.5392423783142" lon="14.031358963660505"><ele>408.0</ele><time>2026-04-26T08:38:45Z</time></trkpt><trkpt lat="37.5392709922765" lon="14.031249019125744"><ele>406.8333333333333</ele><time>2026-04-26T08:38:46Z</time></trkpt><trkpt lat="37.53930034007316" lon="14.031143715814434"><ele>405.66666666666663</ele><time>2026-04-26T08:38:47Z</time></trkpt><trkpt lat="37.53932357277005" lon="14.031049549143772"><ele>404.5</ele><time>2026-04-26T08:38:48Z</time></trkpt><trkpt lat="37.53934872411695" lon="14.030951476383885"><ele>403.3333333333333</ele><time>2026-04-26T08:38:49Z</time></trkpt><trkpt lat="37.53937602907805" lon="14.030859092742343"><ele>402.16666666666663</ele><time>2026-04-26T08:38:50Z</time></trkpt><trkpt lat="37.539408953713824" lon="14.0307731470877"><ele>401.0</ele><time>2026-04-26T08:38:51Z</time></trkpt><trkpt lat="37.539442618448795" lon="14.030705077440931"><ele>399.8333333333333</ele><time>2026-04-26T08:38:52Z</time></trkpt><trkpt lat="37.539493289427945" lon="14.030561504032057"><ele>398.66666666666663</ele><time>2026-04-26T08:38:54Z</time></trkpt><trkpt lat="37.539525106909146" lon="14.03048027366137"><ele>397.5</ele><time>2026-04-26T08:38:55Z</time></trkpt><trkpt lat="37.53956311116435" lon="14.030393128296545"><ele>396.33333333333337</ele><time>2026-04-26T08:38:56Z</time></trkpt><trkpt lat="37.53960356293821" lon="14.030302926180264"><ele>395.1666666666667</ele><time>2026-04-26T08:38:57Z</time></trkpt><trkpt lat="37.539642719779266" lon="14.030217278068127"><ele>394.0</ele><time>2026-04-26T08:38:58Z</time></trkpt><trkpt lat="37.539680133739395" lon="14.030133933671044"><ele>394.00000000000006</ele><time>2026-04-26T08:38:59Z</time></trkpt><trkpt lat="37.53971825565972" lon="14.030051800904943"><ele>394.0</ele><time>2026-04-26T08:39:00Z</time></trkpt><trkpt lat="37.539758236435915" lon="14.029964904358282"><ele>394.0</ele><time>2026-04-26T08:39:01Z</time></trkpt><trkpt lat="37.53980142895113" lon="14.029875865840024"><ele>394.0</ele><time>2026-04-26T08:39:02Z</time></trkpt><trkpt lat="37.53984162862083" lon="14.029793558801833"><ele>394.00000000000006</ele><time>2026-04-26T08:39:03Z</time></trkpt><trkpt lat="37.539879749982056" lon="14.029717592504158"><ele>394.0</ele><time>2026-04-26T08:39:04Z</time></trkpt><trkpt lat="37.53991885277297" lon="14.029647507042892"><ele>392.50000000000006</ele><time>2026-04-26T08:39:05Z</time></trkpt><trkpt lat="37.53995488802289" lon="14.029581406069523"><ele>391.0</ele><time>2026-04-26T08:39:06Z</time></trkpt><trkpt lat="37.53999252321146" lon="14.029512441013324"><ele>389.5</ele><time>2026-04-26T08:39:07Z</time></trkpt><trkpt lat="37.54003476841256" lon="14.02944404990828"><ele>388.0</ele><time>2026-04-26T08:39:08Z</time></trkpt><trkpt lat="37.540079902249005" lon="14.029377921399126"><ele>386.50000000000006</ele><time>2026-04-26T08:39:09Z</time></trkpt><trkpt lat="37.540173264139916" lon="14.029273903510976"><ele>385.0</ele><time>2026-04-26T08:39:11Z</time></trkpt><trkpt lat="37.540265204250794" lon="14.029155294073025"><ele>382.83333333333337</ele><time>2026-04-26T08:39:13Z</time></trkpt><trkpt lat="37.54031077633301" lon="14.029088306100679"><ele>380.6666666666667</ele><time>2026-04-26T08:39:14Z</time></trkpt><trkpt lat="37.54035217574042" lon="14.029010527842628"><ele>378.5</ele><time>2026-04-26T08:39:15Z</time></trkpt><trkpt lat="37.540385148238705" lon="14.02893295511049"><ele>376.33333333333337</ele><time>2026-04-26T08:39:16Z</time></trkpt><trkpt lat="37.540417755268884" lon="14.028843293537644"><ele>374.1666666666667</ele><time>2026-04-26T08:39:17Z</time></trkpt><trkpt lat="37.54044362594399" lon="14.028763748779223"><ele>372.0</ele><time>2026-04-26T08:39:18Z</time></trkpt><trkpt lat="37.54046811550484" lon="14.028628658869609"><ele>372.0</ele><time>2026-04-26T08:39:20Z</time></trkpt><trkpt lat="37.54049491316565" lon="14.028506226335104"><ele>372.0</ele><time>2026-04-26T08:39:22Z</time></trkpt><trkpt lat="37.54055562556968" lon="14.028387645946461"><ele>372.0</ele><time>2026-04-26T08:39:24Z</time></trkpt><trkpt lat="37.54065357944231" lon="14.028279454695415"><ele>372.0</ele><time>2026-04-26T08:39:25.999Z</time></trkpt><trkpt lat="37.54070758587376" lon="14.028231311846941"><ele>372.0</ele><time>2026-04-26T08:39:26.999Z</time></trkpt><trkpt lat="37.54079399564378" lon="14.028113281432873"><ele>369.40000000000003</ele><time>2026-04-26T08:39:28.999Z</time></trkpt><trkpt lat="37.54084758088324" lon="14.027986265723325"><ele>366.8</ele><time>2026-04-26T08:39:30.999Z</time></trkpt><trkpt lat="37.54090518282719" lon="14.027876301565435"><ele>364.2</ele><time>2026-04-26T08:39:32.999Z</time></trkpt><trkpt lat="37.54096276590195" lon="14.02778326290785"><ele>361.6</ele><time>2026-04-26T08:39:34.999Z</time></trkpt><trkpt lat="37.54103538086419" lon="14.02769327459399"><ele>359.0</ele><time>2026-04-26T08:39:36.999Z</time></trkpt><trkpt lat="37.541113000678706" lon="14.027612273960244"><ele>359.0</ele><time>2026-04-26T08:39:38.999Z</time></trkpt><trkpt lat="37.54116023434088" lon="14.02755746499322"><ele>359.0</ele><time>2026-04-26T08:39:40.999Z</time></trkpt><trkpt lat="37.54119879121448" lon="14.027492911067974"><ele>359.0</ele><time>2026-04-26T08:39:42.999Z</time></trkpt><trkpt lat="37.54128999063983" lon="14.027356103670936"><ele>359.0</ele><time>2026-04-26T08:39:43.999Z</time></trkpt><trkpt lat="37.54133981243836" lon="14.02726466665866"><ele>359.0</ele><time>2026-04-26T08:39:45.999Z</time></trkpt><trkpt lat="37.54140650633259" lon="14.027188786723206"><ele>359.0</ele><time>2026-04-26T08:39:47.999Z</time></trkpt><trkpt lat="37.541486277506564" lon="14.027140390882822"><ele>359.4</ele><time>2026-04-26T08:39:49.999Z</time></trkpt><trkpt lat="37.54158635487446" lon="14.027114139916346"><ele>359.79999999999995</ele><time>2026-04-26T08:39:51.999Z</time></trkpt><trkpt lat="37.54168547583484" lon="14.027094324828001"><ele>360.20000000000005</ele><time>2026-04-26T08:39:53.999Z</time></trkpt><trkpt lat="37.54177458199001" lon="14.0270525409843"><ele>360.6</ele><time>2026-04-26T08:39:55.999Z</time></trkpt><trkpt lat="37.54187695756823" lon="14.026985381987606"><ele>361.0</ele><time>2026-04-26T08:39:57.999Z</time></trkpt><trkpt lat="37.54197808458915" lon="14.02691627623782"><ele>358.20000000000005</ele><time>2026-04-26T08:39:59.999Z</time></trkpt><trkpt lat="37.54207460336472" lon="14.026818705051763"><ele>355.40000000000003</ele><time>2026-04-26T08:40:01.999Z</time></trkpt><trkpt lat="37.54213630642741" lon="14.026742266000332"><ele>352.6</ele><time>2026-04-26T08:40:03.999Z</time></trkpt><trkpt lat="37.54221581035706" lon="14.026654697027697"><ele>349.8</ele><time>2026-04-26T08:40:05.999Z</time></trkpt><trkpt lat="37.54228335368671" lon="14.026567528516884"><ele>347.0</ele><time>2026-04-26T08:40:07.999Z</time></trkpt><trkpt lat="37.54235361800021" lon="14.026454356238219"><ele>346.83333333333337</ele><time>2026-04-26T08:40:09.999Z</time></trkpt><trkpt lat="37.54239799269396" lon="14.026344062834424"><ele>346.6666666666667</ele><time>2026-04-26T08:40:11.999Z</time></trkpt><trkpt lat="37.54241647087419" lon="14.026250486390193"><ele>346.5</ele><time>2026-04-26T08:40:13.999Z</time></trkpt><trkpt lat="37.54243611995048" lon="14.02616244333191"><ele>346.3333333333333</ele><time>2026-04-26T08:40:15.999Z</time></trkpt><trkpt lat="37.54244234982983" lon="14.026064461519628"><ele>346.16666666666663</ele><time>2026-04-26T08:40:18.999Z</time></trkpt><trkpt lat="37.54247890914487" lon="14.025998272455038"><ele>346.0</ele><time>2026-04-26T08:40:36.998Z</time></trkpt><trkpt lat="37.54254436215956" lon="14.025991570672812"><ele>346.0</ele><time>2026-04-26T08:40:45.998Z</time></trkpt><trkpt lat="37.54261804003954" lon="14.025981564703772"><ele>346.0</ele><time>2026-04-26T08:40:48Z</time></trkpt><trkpt lat="37.54272957959238" lon="14.025985392930277"><ele>346.0</ele><time>2026-04-26T08:40:50Z</time></trkpt><trkpt lat="37.542811249011514" lon="14.02599979984057"><ele>346.0</ele><time>2026-04-26T08:40:52Z</time></trkpt><trkpt lat="37.542922866592086" lon="14.02602776208188"><ele>346.0</ele><time>2026-04-26T08:40:54Z</time></trkpt><trkpt lat="37.54299026969321" lon="14.02604021033416"><ele>345.20000000000005</ele><time>2026-04-26T08:40:55Z</time></trkpt><trkpt lat="37.5430578328718" lon="14.026047544105488"><ele>344.40000000000003</ele><time>2026-04-26T08:40:56Z</time></trkpt><trkpt lat="37.543163377570075" lon="14.026071282852884"><ele>343.6</ele><time>2026-04-26T08:40:58Z</time></trkpt><trkpt lat="37.543286851442296" lon="14.026105368561764"><ele>342.8</ele><time>2026-04-26T08:41:00Z</time></trkpt><trkpt lat="37.543410368219845" lon="14.026131339334674"><ele>342.0</ele><time>2026-04-26T08:41:02Z</time></trkpt><trkpt lat="37.54349925246093" lon="14.026158074127647"><ele>342.0</ele><time>2026-04-26T08:41:04Z</time></trkpt><trkpt lat="37.54356974252112" lon="14.026195715266914"><ele>342.0</ele><time>2026-04-26T08:41:06Z</time></trkpt><trkpt lat="37.54366422934498" lon="14.026259591026811"><ele>342.0</ele><time>2026-04-26T08:41:08Z</time></trkpt><trkpt lat="37.543762631436074" lon="14.026334912513638"><ele>342.0</ele><time>2026-04-26T08:41:10Z</time></trkpt><trkpt lat="37.54384872136549" lon="14.02640955626517"><ele>342.0</ele><time>2026-04-26T08:41:12Z</time></trkpt><trkpt lat="37.54392012395669" lon="14.026484600576307"><ele>342.3333333333333</ele><time>2026-04-26T08:41:14Z</time></trkpt><trkpt lat="37.54400786060942" lon="14.026523027837847"><ele>342.6666666666667</ele><time>2026-04-26T08:41:16Z</time></trkpt><trkpt lat="37.54408993951022" lon="14.026502817234675"><ele>343.0</ele><time>2026-04-26T08:41:19Z</time></trkpt><trkpt lat="37.544182674037614" lon="14.026467888161996"><ele>343.33333333333337</ele><time>2026-04-26T08:41:21Z</time></trkpt><trkpt lat="37.54426655396793" lon="14.026456392252715"><ele>343.6666666666667</ele><time>2026-04-26T08:41:23Z</time></trkpt><trkpt lat="37.544325538996674" lon="14.02648666524158"><ele>344.0</ele><time>2026-04-26T08:41:25Z</time></trkpt><trkpt lat="37.54439149369452" lon="14.026509368908162"><ele>344.0</ele><time>2026-04-26T08:41:32.999Z</time></trkpt><trkpt lat="37.54446357869906" lon="14.026496474641085"><ele>344.0</ele><time>2026-04-26T08:41:35.999Z</time></trkpt><trkpt lat="37.54457272466278" lon="14.026444822782056"><ele>344.0</ele><time>2026-04-26T08:41:55.999Z</time></trkpt><trkpt lat="37.54468087707475" lon="14.026415426035815"><ele>344.0</ele><time>2026-04-26T08:41:57.999Z</time></trkpt><trkpt lat="37.544768651819936" lon="14.02641105933651"><ele>344.0</ele><time>2026-04-26T08:41:59.999Z</time></trkpt><trkpt lat="37.544854415851106" lon="14.026391099850624"><ele>345.1666666666667</ele><time>2026-04-26T08:42:01.999Z</time></trkpt><trkpt lat="37.5449421843173" lon="14.026345708067081"><ele>346.33333333333337</ele><time>2026-04-26T08:42:03.999Z</time></trkpt><trkpt lat="37.54500448181418" lon="14.0263206384435"><ele>347.5</ele><time>2026-04-26T08:42:07.999Z</time></trkpt><trkpt lat="37.54508923736163" lon="14.026357530831893"><ele>348.6666666666667</ele><time>2026-04-26T08:42:14.999Z</time></trkpt><trkpt lat="37.54515681656054" lon="14.026385786141036"><ele>349.8333333333333</ele><time>2026-04-26T08:42:16.999Z</time></trkpt><trkpt lat="37.545224382792284" lon="14.026385924254635"><ele>351.0</ele><time>2026-04-26T08:42:18.999Z</time></trkpt><trkpt lat="37.545255951307084" lon="14.026467717256756"><ele>351.0</ele><time>2026-04-26T08:42:22.999Z</time></trkpt><trkpt lat="37.54531634121606" lon="14.02649398861471"><ele>351.0</ele><time>2026-04-26T08:42:26.999Z</time></trkpt><trkpt lat="37.5454105607843" lon="14.026495335300565"><ele>351.0</ele><time>2026-04-26T08:42:32.998Z</time></trkpt><trkpt lat="37.54550307049713" lon="14.02644116490779"><ele>351.0</ele><time>2026-04-26T08:42:34.998Z</time></trkpt><trkpt lat="37.54560866198836" lon="14.02634032522049"><ele>351.0</ele><time>2026-04-26T08:42:35.998Z</time></trkpt><trkpt lat="37.545632561884126" lon="14.026192097615471"><ele>352.8</ele><time>2026-04-26T08:42:37.998Z</time></trkpt><trkpt lat="37.545639126727764" lon="14.026110344184426"><ele>354.6</ele><time>2026-04-26T08:42:38.998Z</time></trkpt><trkpt lat="37.54563917240788" lon="14.026027000958939"><ele>356.4</ele><time>2026-04-26T08:42:39.998Z</time></trkpt><trkpt lat="37.54566715792098" lon="14.025878674302065"><ele>358.2</ele><time>2026-04-26T08:42:41.998Z</time></trkpt><trkpt lat="37.54573890277277" lon="14.025776129965461"><ele>360.0</ele><time>2026-04-26T08:42:43.998Z</time></trkpt><trkpt lat="37.54585613587545" lon="14.025733019255084"><ele>363.6</ele><time>2026-04-26T08:42:45.998Z</time></trkpt><trkpt lat="37.54597090920957" lon="14.025705576006303"><ele>367.2</ele><time>2026-04-26T08:42:47.998Z</time></trkpt><trkpt lat="37.54607240644321" lon="14.025659636164614"><ele>370.79999999999995</ele><time>2026-04-26T08:42:49.998Z</time></trkpt><trkpt lat="37.546145618594636" lon="14.025631260807437"><ele>374.4</ele><time>2026-04-26T08:42:50.998Z</time></trkpt><trkpt lat="37.54626652331498" lon="14.025586685666246"><ele>378.0</ele><time>2026-04-26T08:42:53Z</time></trkpt><trkpt lat="37.54638558181438" lon="14.025503455382577"><ele>378.0</ele><time>2026-04-26T08:42:55Z</time></trkpt><trkpt lat="37.54647341202042" lon="14.025455337179901"><ele>378.0</ele><time>2026-04-26T08:42:57Z</time></trkpt><trkpt lat="37.54652173519931" lon="14.025401408452085"><ele>378.0</ele><time>2026-04-26T08:42:58Z</time></trkpt><trkpt lat="37.54657794003408" lon="14.025364231592066"><ele>378.0</ele><time>2026-04-26T08:42:59Z</time></trkpt><trkpt lat="37.54663783251364" lon="14.025314074666785"><ele>378.0</ele><time>2026-04-26T08:43:00Z</time></trkpt><trkpt lat="37.54670117508338" lon="14.02527006015328"><ele>378.0</ele><time>2026-04-26T08:43:01Z</time></trkpt><trkpt lat="37.5468116841179" lon="14.025191746552016"><ele>378.0</ele><time>2026-04-26T08:43:03Z</time></trkpt><trkpt lat="37.54687360081897" lon="14.025153682461157"><ele>378.0</ele><time>2026-04-26T08:43:04Z</time></trkpt><trkpt lat="37.546934302929394" lon="14.025123816279923"><ele>378.0</ele><time>2026-04-26T08:43:05Z</time></trkpt><trkpt lat="37.54706633785527" lon="14.025103530101058"><ele>378.0</ele><time>2026-04-26T08:43:07Z</time></trkpt><trkpt lat="37.547144442245916" lon="14.025090564956134"><ele>378.0</ele><time>2026-04-26T08:43:08Z</time></trkpt><trkpt lat="37.54722289648012" lon="14.025106356335266"><ele>378.0</ele><time>2026-04-26T08:43:09Z</time></trkpt><trkpt lat="37.547303023869084" lon="14.025138915154244"><ele>377.5</ele><time>2026-04-26T08:43:10Z</time></trkpt><trkpt lat="37.54739130804125" lon="14.025185455556759"><ele>377.0</ele><time>2026-04-26T08:43:11Z</time></trkpt><trkpt lat="37.54747775545854" lon="14.025234284397959"><ele>376.5</ele><time>2026-04-26T08:43:12Z</time></trkpt><trkpt lat="37.547557859423605" lon="14.025283196987312"><ele>376.0</ele><time>2026-04-26T08:43:13Z</time></trkpt><trkpt lat="37.54763719583285" lon="14.025342635841735"><ele>375.5</ele><time>2026-04-26T08:43:14Z</time></trkpt><trkpt lat="37.54769336907175" lon="14.02541023431718"><ele>375.0</ele><time>2026-04-26T08:43:15Z</time></trkpt><trkpt lat="37.54775760641388" lon="14.025470356086323"><ele>375.0</ele><time>2026-04-26T08:43:16Z</time></trkpt><trkpt lat="37.54782257601901" lon="14.025531691446094"><ele>375.0</ele><time>2026-04-26T08:43:17Z</time></trkpt><trkpt lat="37.54788815880984" lon="14.025595144475501"><ele>375.0</ele><time>2026-04-26T08:43:18Z</time></trkpt><trkpt lat="37.54795269101474" lon="14.025662260168083"><ele>375.0</ele><time>2026-04-26T08:43:19Z</time></trkpt><trkpt lat="37.548018406071805" lon="14.025735908134468"><ele>375.0</ele><time>2026-04-26T08:43:20Z</time></trkpt><trkpt lat="37.5480735323994" lon="14.025816971294873"><ele>375.0</ele><time>2026-04-26T08:43:21Z</time></trkpt><trkpt lat="37.548132224141504" lon="14.02588761008176"><ele>374.1666666666667</ele><time>2026-04-26T08:43:22Z</time></trkpt><trkpt lat="37.548194383272225" lon="14.025958861775718"><ele>373.3333333333333</ele><time>2026-04-26T08:43:23Z</time></trkpt><trkpt lat="37.548243784226464" lon="14.026022075497368"><ele>372.5</ele><time>2026-04-26T08:43:24Z</time></trkpt><trkpt lat="37.54830857882121" lon="14.026090621742817"><ele>371.66666666666663</ele><time>2026-04-26T08:43:25Z</time></trkpt><trkpt lat="37.5483761891046" lon="14.026159969513353"><ele>370.8333333333333</ele><time>2026-04-26T08:43:26Z</time></trkpt><trkpt lat="37.54844149865562" lon="14.026228392072904"><ele>370.0</ele><time>2026-04-26T08:43:27Z</time></trkpt><trkpt lat="37.548510021834296" lon="14.026282658016378"><ele>370.0</ele><time>2026-04-26T08:43:28Z</time></trkpt><trkpt lat="37.548591780151895" lon="14.026321056414076"><ele>370.0</ele><time>2026-04-26T08:43:29Z</time></trkpt><trkpt lat="37.548682804373186" lon="14.026334835923254"><ele>370.0</ele><time>2026-04-26T08:43:30Z</time></trkpt><trkpt lat="37.548766905661616" lon="14.026342065938163"><ele>370.0</ele><time>2026-04-26T08:43:31Z</time></trkpt><trkpt lat="37.54884611247555" lon="14.026338734833905"><ele>370.0</ele><time>2026-04-26T08:43:32Z</time></trkpt><trkpt lat="37.5489338929546" lon="14.026329595722279"><ele>370.0</ele><time>2026-04-26T08:43:33Z</time></trkpt><trkpt lat="37.549028164832364" lon="14.026334330631824"><ele>371.0</ele><time>2026-04-26T08:43:33.999Z</time></trkpt><trkpt lat="37.54911790281229" lon="14.026346662956724"><ele>372.0</ele><time>2026-04-26T08:43:34.999Z</time></trkpt><trkpt lat="37.54921271401204" lon="14.02635091391574"><ele>373.0</ele><time>2026-04-26T08:43:35.999Z</time></trkpt><trkpt lat="37.549305329769496" lon="14.026359215718042"><ele>374.0</ele><time>2026-04-26T08:43:36.999Z</time></trkpt><trkpt lat="37.54939969348692" lon="14.026379886394896"><ele>375.0</ele><time>2026-04-26T08:43:37.999Z</time></trkpt><trkpt lat="37.54949750317594" lon="14.026411723429154"><ele>375.2</ele><time>2026-04-26T08:43:38.999Z</time></trkpt><trkpt lat="37.54959631650893" lon="14.026441837552806"><ele>375.4</ele><time>2026-04-26T08:43:39.999Z</time></trkpt><trkpt lat="37.54969589045475" lon="14.026479027975288"><ele>375.6</ele><time>2026-04-26T08:43:40.999Z</time></trkpt><trkpt lat="37.549792438109385" lon="14.02651101126583"><ele>375.8</ele><time>2026-04-26T08:43:41.999Z</time></trkpt><trkpt lat="37.54987513907801" lon="14.02653479288149"><ele>376.0</ele><time>2026-04-26T08:43:42.999Z</time></trkpt><trkpt lat="37.549959065275544" lon="14.026544839105766"><ele>376.0</ele><time>2026-04-26T08:43:43.999Z</time></trkpt><trkpt lat="37.550043648047456" lon="14.026537208489808"><ele>376.0</ele><time>2026-04-26T08:43:44.999Z</time></trkpt><trkpt lat="37.55012701117493" lon="14.026507606451528"><ele>376.0</ele><time>2026-04-26T08:43:45.999Z</time></trkpt><trkpt lat="37.55020383532524" lon="14.026453727963377"><ele>376.0</ele><time>2026-04-26T08:43:46.999Z</time></trkpt><trkpt lat="37.55027681441071" lon="14.02639217338994"><ele>376.0</ele><time>2026-04-26T08:43:47.999Z</time></trkpt><trkpt lat="37.5503681968105" lon="14.0263053474741"><ele>374.16666666666663</ele><time>2026-04-26T08:43:48.999Z</time></trkpt><trkpt lat="37.550452695181335" lon="14.026237062758623"><ele>372.3333333333333</ele><time>2026-04-26T08:43:49.999Z</time></trkpt><trkpt lat="37.55050646216295" lon="14.026174987427995"><ele>370.5</ele><time>2026-04-26T08:43:50.999Z</time></trkpt><trkpt lat="37.550560124120665" lon="14.026082543298546"><ele>368.6666666666667</ele><time>2026-04-26T08:43:51.999Z</time></trkpt><trkpt lat="37.55060971807366" lon="14.026014366521508"><ele>366.83333333333337</ele><time>2026-04-26T08:43:52.999Z</time></trkpt><trkpt lat="37.5506837934163" lon="14.025923371914471"><ele>365.0</ele><time>2026-04-26T08:43:54.999Z</time></trkpt><trkpt lat="37.55075616513544" lon="14.025867497849624"><ele>367.4</ele><time>2026-04-26T08:43:56.999Z</time></trkpt><trkpt lat="37.55086079342528" lon="14.025790280878963"><ele>369.8</ele><time>2026-04-26T08:43:58.999Z</time></trkpt><trkpt lat="37.55096639878444" lon="14.025727690021842"><ele>372.20000000000005</ele><time>2026-04-26T08:44:00.999Z</time></trkpt><trkpt lat="37.55105489566187" lon="14.025631833360523"><ele>374.6</ele><time>2026-04-26T08:44:02.999Z</time></trkpt><trkpt lat="37.55110725623554" lon="14.025582883461443"><ele>377.0</ele><time>2026-04-26T08:44:03.999Z</time></trkpt><trkpt lat="37.55115596393708" lon="14.025527442843789"><ele>377.5</ele><time>2026-04-26T08:44:04.999Z</time></trkpt><trkpt lat="37.551235144200376" lon="14.025422399839554"><ele>378.0</ele><time>2026-04-26T08:44:06.999Z</time></trkpt><trkpt lat="37.551275843385646" lon="14.025360897149163"><ele>378.5</ele><time>2026-04-26T08:44:07.999Z</time></trkpt><trkpt lat="37.55133694010217" lon="14.025287613316493"><ele>379.0</ele><time>2026-04-26T08:44:08.999Z</time></trkpt><trkpt lat="37.551393072635925" lon="14.025190214674183"><ele>379.5</ele><time>2026-04-26T08:44:09.999Z</time></trkpt><trkpt lat="37.5514401938368" lon="14.025092205607475"><ele>380.0</ele><time>2026-04-26T08:44:10.999Z</time></trkpt><trkpt lat="37.55148249178669" lon="14.024977593819777"><ele>380.0</ele><time>2026-04-26T08:44:11.999Z</time></trkpt><trkpt lat="37.551532824419134" lon="14.024858161537672"><ele>380.0</ele><time>2026-04-26T08:44:12.999Z</time></trkpt><trkpt lat="37.5515754199254" lon="14.024748861679956"><ele>380.0</ele><time>2026-04-26T08:44:13.999Z</time></trkpt><trkpt lat="37.551618353880755" lon="14.024624150444595"><ele>380.0</ele><time>2026-04-26T08:44:14.999Z</time></trkpt><trkpt lat="37.55166381329418" lon="14.024498003460806"><ele>380.0</ele><time>2026-04-26T08:44:15.999Z</time></trkpt><trkpt lat="37.551702507649736" lon="14.024380294466441"><ele>380.0</ele><time>2026-04-26T08:44:16.999Z</time></trkpt><trkpt lat="37.551743202634704" lon="14.024282646411486"><ele>380.0</ele><time>2026-04-26T08:44:17.999Z</time></trkpt><trkpt lat="37.551798635503076" lon="14.02419669032942"><ele>380.0</ele><time>2026-04-26T08:44:18.999Z</time></trkpt><trkpt lat="37.5518691763039" lon="14.02413652766951"><ele>380.0</ele><time>2026-04-26T08:44:19.999Z</time></trkpt><trkpt lat="37.551954119315496" lon="14.024098578831904"><ele>380.0</ele><time>2026-04-26T08:44:20.999Z</time></trkpt><trkpt lat="37.552040565448664" lon="14.024073243512124"><ele>380.0</ele><time>2026-04-26T08:44:22.999Z</time></trkpt><trkpt lat="37.552097409515945" lon="14.024014339161337"><ele>378.83333333333337</ele><time>2026-04-26T08:44:26.999Z</time></trkpt><trkpt lat="37.55215980106122" lon="14.023944155047928"><ele>377.6666666666667</ele><time>2026-04-26T08:44:29.999Z</time></trkpt><trkpt lat="37.55216251961592" lon="14.023854430984798"><ele>376.5</ele><time>2026-04-26T08:44:32.999Z</time></trkpt><trkpt lat="37.55215707445176" lon="14.023745295590984"><ele>375.3333333333333</ele><time>2026-04-26T08:44:35.998Z</time></trkpt><trkpt lat="37.552153952631464" lon="14.023635035399757"><ele>374.16666666666663</ele><time>2026-04-26T08:44:37.998Z</time></trkpt><trkpt lat="37.55214548807746" lon="14.02348447462986"><ele>373.0</ele><time>2026-04-26T08:44:39.998Z</time></trkpt><trkpt lat="37.55215241208968" lon="14.023397730636605"><ele>374.14285714285717</ele><time>2026-04-26T08:44:40.998Z</time></trkpt><trkpt lat="37.55216391785907" lon="14.023313243480763"><ele>375.28571428571433</ele><time>2026-04-26T08:44:41.998Z</time></trkpt><trkpt lat="37.55218055175409" lon="14.023227763773574"><ele>376.42857142857144</ele><time>2026-04-26T08:44:42.998Z</time></trkpt><trkpt lat="37.55219699885205" lon="14.02314558310483"><ele>377.57142857142856</ele><time>2026-04-26T08:44:43.998Z</time></trkpt><trkpt lat="37.552222077365165" lon="14.0230688468503"><ele>378.7142857142857</ele><time>2026-04-26T08:44:44.998Z</time></trkpt><trkpt lat="37.55226586568435" lon="14.022999807863334"><ele>379.85714285714283</ele><time>2026-04-26T08:44:45.998Z</time></trkpt><trkpt lat="37.55233418533512" lon="14.02294326021199"><ele>381.0</ele><time>2026-04-26T08:44:46.998Z</time></trkpt><trkpt lat="37.55240973013174" lon="14.022895884256574"><ele>381.0</ele><time>2026-04-26T08:44:47.998Z</time></trkpt><trkpt lat="37.55248869320998" lon="14.022819078415885"><ele>381.0</ele><time>2026-04-26T08:44:48.998Z</time></trkpt><trkpt lat="37.5525640795597" lon="14.022724707490962"><ele>381.0</ele><time>2026-04-26T08:44:49.998Z</time></trkpt><trkpt lat="37.55264216794155" lon="14.022614317227095"><ele>381.0</ele><time>2026-04-26T08:44:50.998Z</time></trkpt><trkpt lat="37.55271977197884" lon="14.022502620416375"><ele>381.0</ele><time>2026-04-26T08:44:51.998Z</time></trkpt><trkpt lat="37.55279164095489" lon="14.022396204610175"><ele>380.6</ele><time>2026-04-26T08:44:52.998Z</time></trkpt><trkpt lat="37.55285475257453" lon="14.022295175480277"><ele>380.20000000000005</ele><time>2026-04-26T08:44:53.998Z</time></trkpt><trkpt lat="37.552915090624374" lon="14.022191769652613"><ele>379.79999999999995</ele><time>2026-04-26T08:44:54.998Z</time></trkpt><trkpt lat="37.55296264419847" lon="14.022090709341622"><ele>379.4</ele><time>2026-04-26T08:44:55.998Z</time></trkpt><trkpt lat="37.55300058219117" lon="14.021976775209437"><ele>379.0</ele><time>2026-04-26T08:44:56.998Z</time></trkpt><trkpt lat="37.55303818406813" lon="14.021865567113482"><ele>379.0</ele><time>2026-04-26T08:44:57.998Z</time></trkpt><trkpt lat="37.55308490620206" lon="14.021766790259262"><ele>379.0</ele><time>2026-04-26T08:44:59Z</time></trkpt><trkpt lat="37.55316036663551" lon="14.021671904682398"><ele>379.0</ele><time>2026-04-26T08:45:00Z</time></trkpt><trkpt lat="37.55323361073132" lon="14.021611296116117"><ele>379.0</ele><time>2026-04-26T08:45:01Z</time></trkpt><trkpt lat="37.553290934240785" lon="14.02154055219105"><ele>379.0</ele><time>2026-04-26T08:45:02Z</time></trkpt><trkpt lat="37.553340730105404" lon="14.021449838505122"><ele>380.3333333333333</ele><time>2026-04-26T08:45:03Z</time></trkpt><trkpt lat="37.5533739931209" lon="14.02135531499299"><ele>381.66666666666663</ele><time>2026-04-26T08:45:04Z</time></trkpt><trkpt lat="37.55339303901165" lon="14.021264119617907"><ele>383.0</ele><time>2026-04-26T08:45:05Z</time></trkpt><trkpt lat="37.55340985084087" lon="14.021175977402404"><ele>384.3333333333333</ele><time>2026-04-26T08:45:06Z</time></trkpt><trkpt lat="37.55341531607762" lon="14.021088907640605"><ele>385.6666666666667</ele><time>2026-04-26T08:45:07Z</time></trkpt><trkpt lat="37.553405183967136" lon="14.021008470655193"><ele>387.0</ele><time>2026-04-26T08:45:08Z</time></trkpt><trkpt lat="37.553367563943624" lon="14.02089675112994"><ele>387.0</ele><time>2026-04-26T08:45:10Z</time></trkpt><trkpt lat="37.55328680788759" lon="14.020821150872615"><ele>387.0</ele><time>2026-04-26T08:45:12Z</time></trkpt><trkpt lat="37.553222818183464" lon="14.02069406551054"><ele>387.0</ele><time>2026-04-26T08:45:14Z</time></trkpt><trkpt lat="37.55318606959427" lon="14.020541692019357"><ele>387.0</ele><time>2026-04-26T08:45:16Z</time></trkpt><trkpt lat="37.55319757956588" lon="14.020399018783307"><ele>387.3333333333333</ele><time>2026-04-26T08:45:18Z</time></trkpt><trkpt lat="37.55327777551045" lon="14.020298448684164"><ele>387.66666666666663</ele><time>2026-04-26T08:45:20Z</time></trkpt><trkpt lat="37.55334221186659" lon="14.020257504146239"><ele>388.0</ele><time>2026-04-26T08:45:21Z</time></trkpt><trkpt lat="37.553417155808006" lon="14.020228664978225"><ele>388.3333333333333</ele><time>2026-04-26T08:45:22Z</time></trkpt><trkpt lat="37.55348510557682" lon="14.020215803801918"><ele>388.66666666666663</ele><time>2026-04-26T08:45:23Z</time></trkpt><trkpt lat="37.55354602896543" lon="14.020188830883455"><ele>389.0</ele><time>2026-04-26T08:45:24Z</time></trkpt><trkpt lat="37.55364590222173" lon="14.020169201631674"><ele>389.16666666666663</ele><time>2026-04-26T08:45:26Z</time></trkpt><trkpt lat="37.55376851078214" lon="14.020223493358513"><ele>389.3333333333333</ele><time>2026-04-26T08:45:28Z</time></trkpt><trkpt lat="37.55383512037708" lon="14.020256826216384"><ele>389.5</ele><time>2026-04-26T08:45:29Z</time></trkpt><trkpt lat="37.55389914061228" lon="14.020243676830638"><ele>389.66666666666663</ele><time>2026-04-26T08:45:39Z</time></trkpt><trkpt lat="37.553949916061946" lon="14.020196289986723"><ele>389.8333333333333</ele><time>2026-04-26T08:45:41.999Z</time></trkpt><trkpt lat="37.55402082453795" lon="14.020107073695165"><ele>390.0</ele><time>2026-04-26T08:45:44.999Z</time></trkpt><trkpt lat="37.55424440861776" lon="14.019918030779323"><ele>390.0</ele><time>2026-04-26T08:45:46.999Z</time></trkpt><trkpt lat="37.5543417180121" lon="14.019824992661336"><ele>390.0</ele><time>2026-04-26T08:45:47.999Z</time></trkpt><trkpt lat="37.554425840067125" lon="14.019727004686821"><ele>390.0</ele><time>2026-04-26T08:45:48.999Z</time></trkpt><trkpt lat="37.55451936580421" lon="14.01966767838554"><ele>390.0</ele><time>2026-04-26T08:45:49.999Z</time></trkpt><trkpt lat="37.55458585799938" lon="14.019616350975893"><ele>390.0</ele><time>2026-04-26T08:45:50.999Z</time></trkpt><trkpt lat="37.554662457327126" lon="14.01955128897887"><ele>391.2</ele><time>2026-04-26T08:45:51.999Z</time></trkpt><trkpt lat="37.55473143750689" lon="14.019482121840586"><ele>392.4</ele><time>2026-04-26T08:45:52.999Z</time></trkpt><trkpt lat="37.55480069570171" lon="14.019395865083776"><ele>393.6</ele><time>2026-04-26T08:45:53.999Z</time></trkpt><trkpt lat="37.55487563775695" lon="14.019293517539989"><ele>394.8</ele><time>2026-04-26T08:45:54.999Z</time></trkpt><trkpt lat="37.55495349215564" lon="14.01915647986923"><ele>396.0</ele><time>2026-04-26T08:45:55.999Z</time></trkpt><trkpt lat="37.5550152693491" lon="14.019039413128489"><ele>396.0</ele><time>2026-04-26T08:45:56.999Z</time></trkpt><trkpt lat="37.55507148973056" lon="14.018950966942526"><ele>396.0</ele><time>2026-04-26T08:45:57.999Z</time></trkpt><trkpt lat="37.55514316768314" lon="14.018875594391902"><ele>396.0</ele><time>2026-04-26T08:45:58.999Z</time></trkpt><trkpt lat="37.55522003789337" lon="14.018784535220563"><ele>396.0</ele><time>2026-04-26T08:45:59.999Z</time></trkpt><trkpt lat="37.55531067452738" lon="14.018705630467213"><ele>396.0</ele><time>2026-04-26T08:46:00.999Z</time></trkpt><trkpt lat="37.555410224345245" lon="14.01864795856671"><ele>399.75</ele><time>2026-04-26T08:46:01.999Z</time></trkpt><trkpt lat="37.555514998432486" lon="14.01860890922948"><ele>403.5</ele><time>2026-04-26T08:46:02.999Z</time></trkpt><trkpt lat="37.55562523036762" lon="14.018569407823309"><ele>407.25</ele><time>2026-04-26T08:46:03.999Z</time></trkpt><trkpt lat="37.55572963367375" lon="14.018499576003228"><ele>411.0</ele><time>2026-04-26T08:46:04.999Z</time></trkpt><trkpt lat="37.55581619520084" lon="14.018409636680333"><ele>411.0</ele><time>2026-04-26T08:46:05.999Z</time></trkpt><trkpt lat="37.55587714278649" lon="14.018345143776994"><ele>411.0</ele><time>2026-04-26T08:46:06.999Z</time></trkpt><trkpt lat="37.55595972536728" lon="14.018281213517483"><ele>411.0</ele><time>2026-04-26T08:46:07.999Z</time></trkpt><trkpt lat="37.55603811243926" lon="14.01822066146495"><ele>411.0</ele><time>2026-04-26T08:46:08.999Z</time></trkpt><trkpt lat="37.55611723995054" lon="14.018191431439925"><ele>411.0</ele><time>2026-04-26T08:46:09.999Z</time></trkpt><trkpt lat="37.55619766651099" lon="14.018183269683696"><ele>411.0</ele><time>2026-04-26T08:46:10.999Z</time></trkpt><trkpt lat="37.556277808790554" lon="14.018178205302082"><ele>413.8333333333333</ele><time>2026-04-26T08:46:11.999Z</time></trkpt><trkpt lat="37.556358920540184" lon="14.018162715270664"><ele>416.66666666666663</ele><time>2026-04-26T08:46:12.999Z</time></trkpt><trkpt lat="37.55643565978631" lon="14.018134457981287"><ele>419.5</ele><time>2026-04-26T08:46:13.999Z</time></trkpt><trkpt lat="37.55649966192753" lon="14.018103150550571"><ele>422.3333333333333</ele><time>2026-04-26T08:46:14.999Z</time></trkpt><trkpt lat="37.556574759929596" lon="14.018064703309893"><ele>425.16666666666663</ele><time>2026-04-26T08:46:15.999Z</time></trkpt><trkpt lat="37.55666601866184" lon="14.01799344349213"><ele>428.0</ele><time>2026-04-26T08:46:16.999Z</time></trkpt><trkpt lat="37.55673769177597" lon="14.017942967461519"><ele>428.0</ele><time>2026-04-26T08:46:17.999Z</time></trkpt><trkpt lat="37.55681558255051" lon="14.01788749566353"><ele>427.99999999999994</ele><time>2026-04-26T08:46:18.999Z</time></trkpt><trkpt lat="37.55688878363234" lon="14.017853891211137"><ele>427.99999999999994</ele><time>2026-04-26T08:46:19.999Z</time></trkpt><trkpt lat="37.55695062014048" lon="14.017837763374297"><ele>428.0</ele><time>2026-04-26T08:46:20.999Z</time></trkpt><trkpt lat="37.55707388259049" lon="14.017844680601879"><ele>428.0</ele><time>2026-04-26T08:46:22.999Z</time></trkpt><trkpt lat="37.55716744422764" lon="14.017872560824467"><ele>430.2</ele><time>2026-04-26T08:46:24.999Z</time></trkpt><trkpt lat="37.55723647366734" lon="14.0178618328564"><ele>432.4</ele><time>2026-04-26T08:46:27.999Z</time></trkpt><trkpt lat="37.557294484496516" lon="14.01781438766361"><ele>434.59999999999997</ele><time>2026-04-26T08:46:33.999Z</time></trkpt><trkpt lat="37.55736169916604" lon="14.017743764962182"><ele>436.79999999999995</ele><time>2026-04-26T08:46:35.999Z</time></trkpt><trkpt lat="37.55744516068249" lon="14.017665562185588"><ele>439.0</ele><time>2026-04-26T08:46:37.999Z</time></trkpt><trkpt lat="37.557559872531776" lon="14.017607210025277"><ele>439.00000000000006</ele><time>2026-04-26T08:46:39.999Z</time></trkpt><trkpt lat="37.55762725706782" lon="14.017579847543066"><ele>439.0</ele><time>2026-04-26T08:46:40.999Z</time></trkpt><trkpt lat="37.55769119531971" lon="14.017546456995538"><ele>439.0</ele><time>2026-04-26T08:46:41.999Z</time></trkpt><trkpt lat="37.55774636924609" lon="14.017502597774698"><ele>439.0</ele><time>2026-04-26T08:46:42.999Z</time></trkpt><trkpt lat="37.55780423876719" lon="14.01744191585621"><ele>439.00000000000006</ele><time>2026-04-26T08:46:43.998Z</time></trkpt><trkpt lat="37.55787350727438" lon="14.017377290453709"><ele>439.0</ele><time>2026-04-26T08:46:44.998Z</time></trkpt><trkpt lat="37.55795159453595" lon="14.017308735285244"><ele>442.6</ele><time>2026-04-26T08:46:45.998Z</time></trkpt><trkpt lat="37.55803867700077" lon="14.017246039676255"><ele>446.2</ele><time>2026-04-26T08:46:46.998Z</time></trkpt><trkpt lat="37.55811609785526" lon="14.017204915821825"><ele>449.80000000000007</ele><time>2026-04-26T08:46:47.998Z</time></trkpt><trkpt lat="37.558197520323894" lon="14.017165318286368"><ele>453.40000000000003</ele><time>2026-04-26T08:46:48.998Z</time></trkpt><trkpt lat="37.558283495373715" lon="14.017125738781251"><ele>457.0</ele><time>2026-04-26T08:46:49.998Z</time></trkpt><trkpt lat="37.558366952083475" lon="14.017090809183204"><ele>457.0</ele><time>2026-04-26T08:46:50.998Z</time></trkpt><trkpt lat="37.55844943314135" lon="14.017062086413894"><ele>457.00000000000006</ele><time>2026-04-26T08:46:51.998Z</time></trkpt><trkpt lat="37.55852745011211" lon="14.017036804244459"><ele>457.00000000000006</ele><time>2026-04-26T08:46:52.998Z</time></trkpt><trkpt lat="37.55860676115453" lon="14.01700707434948"><ele>457.0</ele><time>2026-04-26T08:46:53.998Z</time></trkpt><trkpt lat="37.558671497119285" lon="14.016964816093848"><ele>457.0</ele><time>2026-04-26T08:46:54.998Z</time></trkpt><trkpt lat="37.558779907035614" lon="14.016865475702001"><ele>459.00000000000006</ele><time>2026-04-26T08:46:56.998Z</time></trkpt><trkpt lat="37.558845285585384" lon="14.016801914977965"><ele>461.0</ele><time>2026-04-26T08:46:57.998Z</time></trkpt><trkpt lat="37.55893361250845" lon="14.01674540562156"><ele>463.0</ele><time>2026-04-26T08:46:58.998Z</time></trkpt><trkpt lat="37.55901621971332" lon="14.016704917096423"><ele>465.0</ele><time>2026-04-26T08:46:59.998Z</time></trkpt><trkpt lat="37.55907557145075" lon="14.016671269082494"><ele>467.00000000000006</ele><time>2026-04-26T08:47:00.998Z</time></trkpt><trkpt lat="37.55917104770146" lon="14.016617622741022"><ele>469.0</ele><time>2026-04-26T08:47:02.998Z</time></trkpt><trkpt lat="37.55924403270143" lon="14.016579155207634"><ele>469.00000000000006</ele><time>2026-04-26T08:47:05Z</time></trkpt><trkpt lat="37.55917587898653" lon="14.016597728751112"><ele>469.0</ele><time>2026-04-26T08:47:46Z</time></trkpt><trkpt lat="37.55911287959374" lon="14.01663165814723"><ele>469.0</ele><time>2026-04-26T08:47:48Z</time></trkpt><trkpt lat="37.559031616869326" lon="14.016687647540076"><ele>469.0</ele><time>2026-04-26T08:47:49.999Z</time></trkpt><trkpt lat="37.558961699109446" lon="14.016725538556436"><ele>469.00000000000006</ele><time>2026-04-26T08:48:11.999Z</time></trkpt><trkpt lat="37.558882843045915" lon="14.01677477456519"><ele>469.0</ele><time>2026-04-26T08:48:13.999Z</time></trkpt><trkpt lat="37.55881389844632" lon="14.016829313027372"><ele>469.0</ele><time>2026-04-26T08:48:15.999Z</time></trkpt><trkpt lat="37.55873748071274" lon="14.016879403514132"><ele>469.0</ele><time>2026-04-26T08:48:17.999Z</time></trkpt><trkpt lat="37.55866479406122" lon="14.016945447328663"><ele>469.0</ele><time>2026-04-26T08:48:19.999Z</time></trkpt><trkpt lat="37.55857655300582" lon="14.017003365921372"><ele>469.0</ele><time>2026-04-26T08:48:21.999Z</time></trkpt><trkpt lat="37.55847434573743" lon="14.017046662347264"><ele>469.0</ele><time>2026-04-26T08:48:23.999Z</time></trkpt><trkpt lat="37.55835153155811" lon="14.01706090605415"><ele>467.2857142857143</ele><time>2026-04-26T08:48:25.999Z</time></trkpt><trkpt lat="37.55828634994239" lon="14.017086985040908"><ele>465.57142857142856</ele><time>2026-04-26T08:48:26.999Z</time></trkpt><trkpt lat="37.55822719116262" lon="14.017137384344718"><ele>463.8571428571429</ele><time>2026-04-26T08:48:27.999Z</time></trkpt><trkpt lat="37.55816131118194" lon="14.017169626129027"><ele>462.14285714285717</ele><time>2026-04-26T08:48:28.999Z</time></trkpt><trkpt lat="37.558098776141534" lon="14.017203187509969"><ele>460.42857142857144</ele><time>2026-04-26T08:48:29.999Z</time></trkpt><trkpt lat="37.55803701122908" lon="14.017237353316828"><ele>458.7142857142858</ele><time>2026-04-26T08:48:30.999Z</time></trkpt><trkpt lat="37.55797597522662" lon="14.017278550254233"><ele>457.00000000000006</ele><time>2026-04-26T08:48:31.999Z</time></trkpt><trkpt lat="37.55791805532274" lon="14.01732127292041"><ele>454.6666666666667</ele><time>2026-04-26T08:48:32.999Z</time></trkpt><trkpt lat="37.55785851611796" lon="14.017366658364606"><ele>452.33333333333337</ele><time>2026-04-26T08:48:33.999Z</time></trkpt><trkpt lat="37.55780288873539" lon="14.017418663534688"><ele>450.0</ele><time>2026-04-26T08:48:34.999Z</time></trkpt><trkpt lat="37.557754036304914" lon="14.01747243201512"><ele>447.66666666666663</ele><time>2026-04-26T08:48:35.999Z</time></trkpt><trkpt lat="37.55764720451411" lon="14.017528892096363"><ele>445.3333333333333</ele><time>2026-04-26T08:48:37.999Z</time></trkpt><trkpt lat="37.55754761778178" lon="14.017581729334275"><ele>443.0</ele><time>2026-04-26T08:48:39.999Z</time></trkpt><trkpt lat="37.557438462577636" lon="14.017645145947787"><ele>442.0</ele><time>2026-04-26T08:48:41.999Z</time></trkpt><trkpt lat="37.55732787124468" lon="14.017720713655073"><ele>441.0</ele><time>2026-04-26T08:48:43.999Z</time></trkpt><trkpt lat="37.557239973689484" lon="14.017831387591192"><ele>440.0</ele><time>2026-04-26T08:48:45.999Z</time></trkpt><trkpt lat="37.557159739996045" lon="14.017915479227806"><ele>439.0</ele><time>2026-04-26T08:48:47.999Z</time></trkpt><trkpt lat="37.55697090270867" lon="14.017826133674964"><ele>437.1666666666667</ele><time>2026-04-26T08:48:49.999Z</time></trkpt><trkpt lat="37.55690070021778" lon="14.017830537103563"><ele>435.33333333333337</ele><time>2026-04-26T08:48:50.999Z</time></trkpt><trkpt lat="37.556835095527624" lon="14.017852416427353"><ele>433.5</ele><time>2026-04-26T08:48:51.999Z</time></trkpt><trkpt lat="37.55676883894594" lon="14.01789685573027"><ele>431.66666666666663</ele><time>2026-04-26T08:48:52.999Z</time></trkpt><trkpt lat="37.55671295804372" lon="14.017939192384079"><ele>429.8333333333333</ele><time>2026-04-26T08:48:53.998Z</time></trkpt><trkpt lat="37.55665825020092" lon="14.017989368829463"><ele>428.0</ele><time>2026-04-26T08:48:54.998Z</time></trkpt><trkpt lat="37.55656512368164" lon="14.018065861234172"><ele>428.0</ele><time>2026-04-26T08:48:56.998Z</time></trkpt><trkpt lat="37.55645533979085" lon="14.018112593144947"><ele>427.99999999999994</ele><time>2026-04-26T08:48:58.998Z</time></trkpt><trkpt lat="37.55633768121348" lon="14.018144728231054"><ele>427.99999999999994</ele><time>2026-04-26T08:49:00.998Z</time></trkpt><trkpt lat="37.55622336198751" lon="14.01819309719986"><ele>428.0</ele><time>2026-04-26T08:49:02.998Z</time></trkpt><trkpt lat="37.556159539537056" lon="14.018199892892477"><ele>428.0</ele><time>2026-04-26T08:49:03.998Z</time></trkpt><trkpt lat="37.55609130152725" lon="14.01820481273832"><ele>425.16666666666663</ele><time>2026-04-26T08:49:04.998Z</time></trkpt><trkpt lat="37.55602551743272" lon="14.018232941450982"><ele>422.3333333333333</ele><time>2026-04-26T08:49:05.998Z</time></trkpt><trkpt lat="37.55595450510842" lon="14.01826642533992"><ele>419.5</ele><time>2026-04-26T08:49:06.998Z</time></trkpt><trkpt lat="37.55588338623809" lon="14.018313356135378"><ele>416.66666666666663</ele><time>2026-04-26T08:49:07.998Z</time></trkpt><trkpt lat="37.55581194629327" lon="14.018377964613592"><ele>413.8333333333333</ele><time>2026-04-26T08:49:08.998Z</time></trkpt><trkpt lat="37.55574345080832" lon="14.018455787172313"><ele>411.0</ele><time>2026-04-26T08:49:09.998Z</time></trkpt><trkpt lat="37.5556744139483" lon="14.018518657703034"><ele>411.0</ele><time>2026-04-26T08:49:11Z</time></trkpt><trkpt lat="37.55559328724516" lon="14.018572173214393"><ele>411.0</ele><time>2026-04-26T08:49:12Z</time></trkpt><trkpt lat="37.555494823798405" lon="14.018619901209574"><ele>411.0</ele><time>2026-04-26T08:49:13Z</time></trkpt><trkpt lat="37.55538964213869" lon="14.018657433597388"><ele>411.0</ele><time>2026-04-26T08:49:14Z</time></trkpt><trkpt lat="37.55528954770919" lon="14.018701469725826"><ele>411.0</ele><time>2026-04-26T08:49:15Z</time></trkpt><trkpt lat="37.555210128051854" lon="14.018754840113106"><ele>409.20000000000005</ele><time>2026-04-26T08:49:16Z</time></trkpt><trkpt lat="37.5551369917912" lon="14.01883194170539"><ele>407.40000000000003</ele><time>2026-04-26T08:49:17Z</time></trkpt><trkpt lat="37.55506890842847" lon="14.018919853865157"><ele>405.6</ele><time>2026-04-26T08:49:18Z</time></trkpt><trkpt lat="37.55499317920112" lon="14.019020450631205"><ele>403.8</ele><time>2026-04-26T08:49:19Z</time></trkpt><trkpt lat="37.554917590139674" lon="14.019140335657756"><ele>402.0</ele><time>2026-04-26T08:49:20Z</time></trkpt><trkpt lat="37.55484464953222" lon="14.019270842238123"><ele>402.0</ele><time>2026-04-26T08:49:21Z</time></trkpt><trkpt lat="37.554778057353836" lon="14.019386270936774"><ele>402.0</ele><time>2026-04-26T08:49:22Z</time></trkpt><trkpt lat="37.55470790842521" lon="14.01948793608286"><ele>402.0</ele><time>2026-04-26T08:49:23Z</time></trkpt><trkpt lat="37.554619929493214" lon="14.019574913946817"><ele>402.0</ele><time>2026-04-26T08:49:24Z</time></trkpt><trkpt lat="37.55452851259658" lon="14.019650192528559"><ele>402.0</ele><time>2026-04-26T08:49:25Z</time></trkpt><trkpt lat="37.55443189628088" lon="14.019726427893803"><ele>402.0</ele><time>2026-04-26T08:49:26Z</time></trkpt><trkpt lat="37.554333437318554" lon="14.019800306799006"><ele>402.0</ele><time>2026-04-26T08:49:27Z</time></trkpt><trkpt lat="37.55423865612899" lon="14.019889701046399"><ele>402.0</ele><time>2026-04-26T08:49:28Z</time></trkpt><trkpt lat="37.55414783180324" lon="14.019984031969493"><ele>402.0</ele><time>2026-04-26T08:49:29Z</time></trkpt><trkpt lat="37.55406052141943" lon="14.020077196954793"><ele>402.0</ele><time>2026-04-26T08:49:30Z</time></trkpt><trkpt lat="37.55397821757455" lon="14.02015710647644"><ele>402.0</ele><time>2026-04-26T08:49:31Z</time></trkpt><trkpt lat="37.55390745970142" lon="14.020215299294971"><ele>402.0</ele><time>2026-04-26T08:49:32Z</time></trkpt><trkpt lat="37.553847915991774" lon="14.020248051894919"><ele>402.0</ele><time>2026-04-26T08:49:33Z</time></trkpt><trkpt lat="37.553720629452144" lon="14.020218373023488"><ele>402.0</ele><time>2026-04-26T08:49:35Z</time></trkpt><trkpt lat="37.55366330363445" lon="14.020181559436255"><ele>402.0</ele><time>2026-04-26T08:49:36Z</time></trkpt><trkpt lat="37.55356713417943" lon="14.020158222912327"><ele>399.8333333333333</ele><time>2026-04-26T08:49:38Z</time></trkpt><trkpt lat="37.55348921406709" lon="14.020201944566297"><ele>397.66666666666663</ele><time>2026-04-26T08:49:40Z</time></trkpt><trkpt lat="37.553414305259075" lon="14.020251387566917"><ele>395.5</ele><time>2026-04-26T08:49:42Z</time></trkpt><trkpt lat="37.553322653137386" lon="14.02029084109528"><ele>393.3333333333333</ele><time>2026-04-26T08:49:44Z</time></trkpt><trkpt lat="37.553258328487786" lon="14.020341596059762"><ele>391.16666666666663</ele><time>2026-04-26T08:49:46Z</time></trkpt><trkpt lat="37.55320342888839" lon="14.020417154972709"><ele>389.0</ele><time>2026-04-26T08:49:48Z</time></trkpt><trkpt lat="37.553186481945495" lon="14.02052790661779"><ele>388.99999999999994</ele><time>2026-04-26T08:49:50Z</time></trkpt><trkpt lat="37.5532049135696" lon="14.02063434561033"><ele>389.0</ele><time>2026-04-26T08:49:52Z</time></trkpt><trkpt lat="37.553244768278404" lon="14.020732702379103"><ele>389.0</ele><time>2026-04-26T08:49:54Z</time></trkpt><trkpt lat="37.5532860625483" lon="14.020834084990335"><ele>389.0</ele><time>2026-04-26T08:49:55.999Z</time></trkpt><trkpt lat="37.55332669399388" lon="14.020927926456881"><ele>388.99999999999994</ele><time>2026-04-26T08:49:57.999Z</time></trkpt><trkpt lat="37.5533774751704" lon="14.021019781994806"><ele>389.0</ele><time>2026-04-26T08:49:59.999Z</time></trkpt><trkpt lat="37.55340638893009" lon="14.021128078287271"><ele>388.6</ele><time>2026-04-26T08:50:01.999Z</time></trkpt><trkpt lat="37.553390078340904" lon="14.021248332207799"><ele>388.2</ele><time>2026-04-26T08:50:03.999Z</time></trkpt><trkpt lat="37.553360050317536" lon="14.02136802629945"><ele>387.8</ele><time>2026-04-26T08:50:05.999Z</time></trkpt><trkpt lat="37.55331288966124" lon="14.021492487053084"><ele>387.40000000000003</ele><time>2026-04-26T08:50:07.999Z</time></trkpt><trkpt lat="37.553236184494345" lon="14.021612803268264"><ele>387.0</ele><time>2026-04-26T08:50:09.999Z</time></trkpt><trkpt lat="37.553186569588014" lon="14.021677467970491"><ele>385.6666666666667</ele><time>2026-04-26T08:50:10.999Z</time></trkpt><trkpt lat="37.55314100682288" lon="14.021734647664683"><ele>384.3333333333333</ele><time>2026-04-26T08:50:11.999Z</time></trkpt><trkpt lat="37.55309285831006" lon="14.021795567203926"><ele>383.0</ele><time>2026-04-26T08:50:12.999Z</time></trkpt><trkpt lat="37.55304174093154" lon="14.021864757938456"><ele>381.66666666666663</ele><time>2026-04-26T08:50:13.999Z</time></trkpt><trkpt lat="37.55299417551378" lon="14.021938474110504"><ele>380.3333333333333</ele><time>2026-04-26T08:50:14.999Z</time></trkpt><trkpt lat="37.55296168478841" lon="14.022036694943363"><ele>379.0</ele><time>2026-04-26T08:50:15.999Z</time></trkpt><trkpt lat="37.55292721073669" lon="14.022143084582765"><ele>379.0</ele><time>2026-04-26T08:50:16.999Z</time></trkpt><trkpt lat="37.55287857072355" lon="14.02225578194627"><ele>379.0</ele><time>2026-04-26T08:50:17.999Z</time></trkpt><trkpt lat="37.552806621219474" lon="14.022366838397398"><ele>379.0</ele><time>2026-04-26T08:50:18.999Z</time></trkpt><trkpt lat="37.55273668927303" lon="14.022465717191222"><ele>379.0</ele><time>2026-04-26T08:50:19.999Z</time></trkpt><trkpt lat="37.55266419725931" lon="14.022567800446282"><ele>379.0</ele><time>2026-04-26T08:50:20.999Z</time></trkpt><trkpt lat="37.55259270382234" lon="14.022665713627703"><ele>379.4</ele><time>2026-04-26T08:50:21.999Z</time></trkpt><trkpt lat="37.55252631516748" lon="14.022760426246009"><ele>379.79999999999995</ele><time>2026-04-26T08:50:22.999Z</time></trkpt><trkpt lat="37.55245911292993" lon="14.022845829432546"><ele>380.20000000000005</ele><time>2026-04-26T08:50:23.999Z</time></trkpt><trkpt lat="37.55239392397361" lon="14.022913633983707"><ele>380.6</ele><time>2026-04-26T08:50:24.999Z</time></trkpt><trkpt lat="37.55233252247725" lon="14.022953628915385"><ele>381.0</ele><time>2026-04-26T08:50:25.999Z</time></trkpt><trkpt lat="37.55222823841424" lon="14.023005856344529"><ele>381.0</ele><time>2026-04-26T08:50:27.999Z</time></trkpt><trkpt lat="37.552164944840406" lon="14.022999179829178"><ele>381.0</ele><time>2026-04-26T08:50:31.999Z</time></trkpt><trkpt lat="37.55207292625841" lon="14.02289736525357"><ele>381.0</ele><time>2026-04-26T08:51:10.998Z</time></trkpt><trkpt lat="37.55201834587375" lon="14.022847122234564"><ele>381.0</ele><time>2026-04-26T08:51:11.998Z</time></trkpt><trkpt lat="37.55195126632346" lon="14.022800140487634"><ele>381.0</ele><time>2026-04-26T08:51:12.998Z</time></trkpt><trkpt lat="37.551882384430144" lon="14.022754151117669"><ele>381.0</ele><time>2026-04-26T08:51:13.998Z</time></trkpt><trkpt lat="37.551805879665096" lon="14.022712442147794"><ele>380.8333333333333</ele><time>2026-04-26T08:51:14.998Z</time></trkpt><trkpt lat="37.55173960737962" lon="14.02267505534305"><ele>380.6666666666667</ele><time>2026-04-26T08:51:15.998Z</time></trkpt><trkpt lat="37.551681831460854" lon="14.022642931471582"><ele>380.5</ele><time>2026-04-26T08:51:17Z</time></trkpt><trkpt lat="37.55161468534123" lon="14.022610608931103"><ele>380.33333333333337</ele><time>2026-04-26T08:51:19Z</time></trkpt><trkpt lat="37.551523546066925" lon="14.02254099044"><ele>380.1666666666667</ele><time>2026-04-26T08:51:28Z</time></trkpt><trkpt lat="37.551459568014316" lon="14.022509174087464"><ele>380.0</ele><time>2026-04-26T08:51:29Z</time></trkpt><trkpt lat="37.551393577109415" lon="14.022462454513658"><ele>379.6666666666667</ele><time>2026-04-26T08:51:30Z</time></trkpt><trkpt lat="37.551321173226796" lon="14.022406305854025"><ele>379.33333333333337</ele><time>2026-04-26T08:51:31Z</time></trkpt><trkpt lat="37.551251401466295" lon="14.022334601629694"><ele>379.0</ele><time>2026-04-26T08:51:32Z</time></trkpt><trkpt lat="37.55118960845635" lon="14.022262995355838"><ele>378.6666666666667</ele><time>2026-04-26T08:51:33Z</time></trkpt><trkpt lat="37.55112166679742" lon="14.02218035736853"><ele>378.3333333333333</ele><time>2026-04-26T08:51:34Z</time></trkpt><trkpt lat="37.55105389952078" lon="14.022095156847964"><ele>378.0</ele><time>2026-04-26T08:51:35Z</time></trkpt><trkpt lat="37.550989857034516" lon="14.022013905258278"><ele>377.4</ele><time>2026-04-26T08:51:36Z</time></trkpt><trkpt lat="37.55093047431273" lon="14.021933356260249"><ele>376.79999999999995</ele><time>2026-04-26T08:51:37Z</time></trkpt><trkpt lat="37.55086162030992" lon="14.021857995616964"><ele>376.2</ele><time>2026-04-26T08:51:38Z</time></trkpt><trkpt lat="37.5507787092647" lon="14.021788253627177"><ele>375.6</ele><time>2026-04-26T08:51:39Z</time></trkpt><trkpt lat="37.55069576623432" lon="14.021733249820786"><ele>375.0</ele><time>2026-04-26T08:51:40Z</time></trkpt><trkpt lat="37.550612261295754" lon="14.02169137393132"><ele>374.6666666666667</ele><time>2026-04-26T08:51:41Z</time></trkpt><trkpt lat="37.55052334286361" lon="14.021647099253965"><ele>374.3333333333333</ele><time>2026-04-26T08:51:42Z</time></trkpt><trkpt lat="37.550440166731875" lon="14.02160189970161"><ele>374.0</ele><time>2026-04-26T08:51:43Z</time></trkpt><trkpt lat="37.55036421290327" lon="14.021563124380911"><ele>373.66666666666663</ele><time>2026-04-26T08:51:44Z</time></trkpt><trkpt lat="37.55028872977062" lon="14.021518762519767"><ele>373.3333333333333</ele><time>2026-04-26T08:51:45Z</time></trkpt><trkpt lat="37.55021448298913" lon="14.021464782028339"><ele>373.0</ele><time>2026-04-26T08:51:46Z</time></trkpt><trkpt lat="37.550142036514266" lon="14.021401239758779"><ele>373.0</ele><time>2026-04-26T08:51:47Z</time></trkpt><trkpt lat="37.550075020667606" lon="14.02132274530644"><ele>373.0</ele><time>2026-04-26T08:51:48Z</time></trkpt><trkpt lat="37.550010786910946" lon="14.021235559120758"><ele>373.0</ele><time>2026-04-26T08:51:49Z</time></trkpt><trkpt lat="37.54994508505369" lon="14.021150205778056"><ele>373.0</ele><time>2026-04-26T08:51:50Z</time></trkpt><trkpt lat="37.54987960165606" lon="14.021074650545138"><ele>373.0</ele><time>2026-04-26T08:51:51Z</time></trkpt><trkpt lat="37.54979538226387" lon="14.021008228723927"><ele>373.0</ele><time>2026-04-26T08:51:52Z</time></trkpt><trkpt lat="37.54972092027234" lon="14.020946169986514"><ele>373.0</ele><time>2026-04-26T08:51:53Z</time></trkpt><trkpt lat="37.54966129596332" lon="14.020876718301619"><ele>373.0</ele><time>2026-04-26T08:51:54Z</time></trkpt><trkpt lat="37.549614975017334" lon="14.020794747104722"><ele>373.0</ele><time>2026-04-26T08:51:55Z</time></trkpt><trkpt lat="37.54958936232461" lon="14.020702416777802"><ele>373.0</ele><time>2026-04-26T08:51:56Z</time></trkpt><trkpt lat="37.549577209990595" lon="14.020608944507158"><ele>373.0</ele><time>2026-04-26T08:51:57Z</time></trkpt><trkpt lat="37.549583704256584" lon="14.020503831925732"><ele>373.0</ele><time>2026-04-26T08:51:58Z</time></trkpt><trkpt lat="37.54958867574031" lon="14.020393885678274"><ele>373.0</ele><time>2026-04-26T08:51:59Z</time></trkpt><trkpt lat="37.54959157391656" lon="14.020270280020302"><ele>373.0</ele><time>2026-04-26T08:52:00Z</time></trkpt><trkpt lat="37.54959226502395" lon="14.020140149609865"><ele>373.0</ele><time>2026-04-26T08:52:00.999Z</time></trkpt><trkpt lat="37.54959427224342" lon="14.019999421579575"><ele>373.0</ele><time>2026-04-26T08:52:01.999Z</time></trkpt><trkpt lat="37.5495960140286" lon="14.01985659028584"><ele>373.4</ele><time>2026-04-26T08:52:02.999Z</time></trkpt><trkpt lat="37.549589729034516" lon="14.019714622530785"><ele>373.79999999999995</ele><time>2026-04-26T08:52:03.999Z</time></trkpt><trkpt lat="37.54957442589968" lon="14.019586662869413"><ele>374.2</ele><time>2026-04-26T08:52:04.999Z</time></trkpt><trkpt lat="37.549554305547524" lon="14.01946734950633"><ele>374.6</ele><time>2026-04-26T08:52:05.999Z</time></trkpt><trkpt lat="37.54952719149046" lon="14.019344276419648"><ele>375.0</ele><time>2026-04-26T08:52:06.999Z</time></trkpt><trkpt lat="37.54949061369393" lon="14.019214900252857"><ele>373.25</ele><time>2026-04-26T08:52:07.999Z</time></trkpt><trkpt lat="37.549437758332715" lon="14.019083779961726"><ele>371.5</ele><time>2026-04-26T08:52:08.999Z</time></trkpt><trkpt lat="37.54936696243444" lon="14.018964222187925"><ele>369.75</ele><time>2026-04-26T08:52:09.999Z</time></trkpt><trkpt lat="37.54929399541599" lon="14.018837490169775"><ele>368.0</ele><time>2026-04-26T08:52:10.999Z</time></trkpt><trkpt lat="37.54921477780979" lon="14.018718980834043"><ele>368.0</ele><time>2026-04-26T08:52:11.999Z</time></trkpt><trkpt lat="37.54913437590623" lon="14.018595411273735"><ele>368.0</ele><time>2026-04-26T08:52:12.999Z</time></trkpt><trkpt lat="37.54906312930207" lon="14.018475163216884"><ele>368.0</ele><time>2026-04-26T08:52:13.999Z</time></trkpt><trkpt lat="37.5490003402233" lon="14.018355706075846"><ele>368.0</ele><time>2026-04-26T08:52:14.999Z</time></trkpt><trkpt lat="37.54893753699188" lon="14.01823207445173"><ele>368.79999999999995</ele><time>2026-04-26T08:52:15.999Z</time></trkpt><trkpt lat="37.548888179673334" lon="14.018098278531758"><ele>369.6</ele><time>2026-04-26T08:52:16.999Z</time></trkpt><trkpt lat="37.54885266277757" lon="14.017970109402512"><ele>370.4</ele><time>2026-04-26T08:52:17.999Z</time></trkpt><trkpt lat="37.54881535501064" lon="14.017850543128466"><ele>371.20000000000005</ele><time>2026-04-26T08:52:18.999Z</time></trkpt><trkpt lat="37.5487609826107" lon="14.017748774481062"><ele>372.0</ele><time>2026-04-26T08:52:19.999Z</time></trkpt><trkpt lat="37.54868276421396" lon="14.017657880412582"><ele>370.8333333333333</ele><time>2026-04-26T08:52:20.999Z</time></trkpt><trkpt lat="37.5486069995207" lon="14.017585300507708"><ele>369.6666666666667</ele><time>2026-04-26T08:52:21.999Z</time></trkpt><trkpt lat="37.548553903015026" lon="14.017505626557169"><ele>368.5</ele><time>2026-04-26T08:52:22.999Z</time></trkpt><trkpt lat="37.54853558532514" lon="14.01740510007905"><ele>367.33333333333337</ele><time>2026-04-26T08:52:23.999Z</time></trkpt><trkpt lat="37.54854389448928" lon="14.017305220798871"><ele>366.1666666666667</ele><time>2026-04-26T08:52:24.999Z</time></trkpt><trkpt lat="37.54856787649755" lon="14.017231086772545"><ele>365.0</ele><time>2026-04-26T08:52:25.999Z</time></trkpt><trkpt lat="37.54865962417508" lon="14.01712107853148"><ele>366.1666666666667</ele><time>2026-04-26T08:52:27.999Z</time></trkpt><trkpt lat="37.54872661586429" lon="14.017089889638635"><ele>367.33333333333337</ele><time>2026-04-26T08:52:28.999Z</time></trkpt><trkpt lat="37.54880093516348" lon="14.017062704633235"><ele>368.5</ele><time>2026-04-26T08:52:29.999Z</time></trkpt><trkpt lat="37.548872383595544" lon="14.017031849462791"><ele>369.6666666666667</ele><time>2026-04-26T08:52:30.999Z</time></trkpt><trkpt lat="37.54894278034498" lon="14.017002533897767"><ele>370.8333333333333</ele><time>2026-04-26T08:52:32.999Z</time></trkpt><trkpt lat="37.54890778910417" lon="14.016896974373665"><ele>372.0</ele><time>2026-04-26T08:52:43.999Z</time></trkpt><trkpt lat="37.54887947415336" lon="14.016740393026716"><ele>371.6</ele><time>2026-04-26T08:52:45.999Z</time></trkpt><trkpt lat="37.54885961983075" lon="14.016604259070185"><ele>371.20000000000005</ele><time>2026-04-26T08:52:47.999Z</time></trkpt><trkpt lat="37.54883639323635" lon="14.01648855940351"><ele>370.8</ele><time>2026-04-26T08:52:49.999Z</time></trkpt><trkpt lat="37.548816959804824" lon="14.016411374191195"><ele>370.4</ele><time>2026-04-26T08:52:50.999Z</time></trkpt><trkpt lat="37.548802430711206" lon="14.016264704172118"><ele>370.0</ele><time>2026-04-26T08:52:52.999Z</time></trkpt><trkpt lat="37.548790008323294" lon="14.01615080340136"><ele>370.0</ele><time>2026-04-26T08:52:54.999Z</time></trkpt><trkpt lat="37.54877938546754" lon="14.016072177908583"><ele>370.0</ele><time>2026-04-26T08:52:56.999Z</time></trkpt><trkpt lat="37.54875427246088" lon="14.015990992187595"><ele>370.0</ele><time>2026-04-26T08:52:58.999Z</time></trkpt><trkpt lat="37.54871138790478" lon="14.015913441420759"><ele>370.0</ele><time>2026-04-26T08:53:00.999Z</time></trkpt><trkpt lat="37.54864382474415" lon="14.015841876642819"><ele>370.0</ele><time>2026-04-26T08:53:02.999Z</time></trkpt><trkpt lat="37.54856721926438" lon="14.015763646539638"><ele>370.0</ele><time>2026-04-26T08:53:04.999Z</time></trkpt><trkpt lat="37.54847014790516" lon="14.015710697027766"><ele>370.16666666666663</ele><time>2026-04-26T08:53:06.998Z</time></trkpt><trkpt lat="37.548406895718756" lon="14.015690260256935"><ele>370.3333333333333</ele><time>2026-04-26T08:53:07.998Z</time></trkpt><trkpt lat="37.54834020807527" lon="14.015672946726268"><ele>370.5</ele><time>2026-04-26T08:53:08.998Z</time></trkpt><trkpt lat="37.54827706411506" lon="14.015658727538403"><ele>370.6666666666667</ele><time>2026-04-26T08:53:09.998Z</time></trkpt><trkpt lat="37.54821144679715" lon="14.015646638522199"><ele>370.83333333333337</ele><time>2026-04-26T08:53:10.998Z</time></trkpt><trkpt lat="37.54809478098821" lon="14.015602054923983"><ele>371.0</ele><time>2026-04-26T08:53:12.998Z</time></trkpt><trkpt lat="37.54803467163644" lon="14.015568428525258"><ele>371.0</ele><time>2026-04-26T08:53:13.998Z</time></trkpt><trkpt lat="37.54797258473179" lon="14.01552975526389"><ele>371.0</ele><time>2026-04-26T08:53:14.998Z</time></trkpt><trkpt lat="37.54791100937489" lon="14.015488704839953"><ele>371.0</ele><time>2026-04-26T08:53:15.998Z</time></trkpt><trkpt lat="37.54784943072892" lon="14.015433230765096"><ele>371.0</ele><time>2026-04-26T08:53:16.998Z</time></trkpt><trkpt lat="37.54778519387086" lon="14.015352161260923"><ele>371.0</ele><time>2026-04-26T08:53:17.998Z</time></trkpt><trkpt lat="37.547734146742904" lon="14.01527361896295"><ele>371.0</ele><time>2026-04-26T08:53:18.998Z</time></trkpt><trkpt lat="37.54769321507015" lon="14.015206870400092"><ele>369.1666666666667</ele><time>2026-04-26T08:53:19.998Z</time></trkpt><trkpt lat="37.547656411970614" lon="14.015125856927101"><ele>367.33333333333337</ele><time>2026-04-26T08:53:20.998Z</time></trkpt><trkpt lat="37.547636772024354" lon="14.015045866400781"><ele>365.5</ele><time>2026-04-26T08:53:21.998Z</time></trkpt><trkpt lat="37.54761529374443" lon="14.014956405950372"><ele>363.6666666666667</ele><time>2026-04-26T08:53:23Z</time></trkpt><trkpt lat="37.54760123697389" lon="14.014873782308323"><ele>361.8333333333333</ele><time>2026-04-26T08:53:24Z</time></trkpt><trkpt lat="37.54757273993378" lon="14.014742331889344"><ele>360.0</ele><time>2026-04-26T08:53:26Z</time></trkpt><trkpt lat="37.547556196986015" lon="14.014633857690674"><ele>360.0</ele><time>2026-04-26T08:53:29Z</time></trkpt><trkpt lat="37.54751066484306" lon="14.014572941459276"><ele>360.0</ele><time>2026-04-26T08:53:35Z</time></trkpt><trkpt lat="37.547480814825036" lon="14.01445095537069"><ele>360.0</ele><time>2026-04-26T08:53:40Z</time></trkpt><trkpt lat="37.54745219081659" lon="14.014363384303193"><ele>360.0</ele><time>2026-04-26T08:53:41Z</time></trkpt><trkpt lat="37.54742188384623" lon="14.014273244773323"><ele>360.0</ele><time>2026-04-26T08:53:42Z</time></trkpt><trkpt lat="37.547400822899995" lon="14.014169878748522"><ele>360.0</ele><time>2026-04-26T08:53:43Z</time></trkpt><trkpt lat="37.5473910707965" lon="14.01405741374782"><ele>359.4</ele><time>2026-04-26T08:53:44Z</time></trkpt><trkpt lat="37.54737975063377" lon="14.013938838287594"><ele>358.8</ele><time>2026-04-26T08:53:45Z</time></trkpt><trkpt lat="37.547363383078036" lon="14.013813133194676"><ele>358.20000000000005</ele><time>2026-04-26T08:53:46Z</time></trkpt><trkpt lat="37.54734955100366" lon="14.01367142470875"><ele>357.6</ele><time>2026-04-26T08:53:47Z</time></trkpt><trkpt lat="37.54734072318699" lon="14.013531201457965"><ele>357.0</ele><time>2026-04-26T08:53:48Z</time></trkpt><trkpt lat="37.547333208470356" lon="14.013399915856503"><ele>356.6</ele><time>2026-04-26T08:53:49Z</time></trkpt><trkpt lat="37.54730875748536" lon="14.013268760582799"><ele>356.20000000000005</ele><time>2026-04-26T08:53:50Z</time></trkpt><trkpt lat="37.54727051031742" lon="14.013137943672765"><ele>355.8</ele><time>2026-04-26T08:53:51Z</time></trkpt><trkpt lat="37.54723097064098" lon="14.01300410062502"><ele>355.4</ele><time>2026-04-26T08:53:52Z</time></trkpt><trkpt lat="37.547195162346064" lon="14.012882578219562"><ele>355.0</ele><time>2026-04-26T08:53:53Z</time></trkpt><trkpt lat="37.54715967977889" lon="14.012775072649537"><ele>355.0</ele><time>2026-04-26T08:53:54Z</time></trkpt><trkpt lat="37.547134242385454" lon="14.012669694893855"><ele>355.0</ele><time>2026-04-26T08:53:55Z</time></trkpt><trkpt lat="37.54713224089411" lon="14.012572546015894"><ele>355.0</ele><time>2026-04-26T08:53:57Z</time></trkpt><trkpt lat="37.547170569574746" lon="14.01247487506658"><ele>355.0</ele><time>2026-04-26T08:54:00Z</time></trkpt><trkpt lat="37.547178523608856" lon="14.012363918675296"><ele>355.0</ele><time>2026-04-26T08:54:02Z</time></trkpt><trkpt lat="37.54715197031622" lon="14.012285935684012"><ele>355.0</ele><time>2026-04-26T08:54:04Z</time></trkpt><trkpt lat="37.54708799059497" lon="14.012238566500578"><ele>355.0</ele><time>2026-04-26T08:54:06Z</time></trkpt><trkpt lat="37.54703089194894" lon="14.012197585920264"><ele>355.0</ele><time>2026-04-26T08:54:08Z</time></trkpt><trkpt lat="37.546919932289484" lon="14.012191383847123"><ele>355.0</ele><time>2026-04-26T08:54:35.999Z</time></trkpt><trkpt lat="37.54684213491877" lon="14.01217587887111"><ele>355.0</ele><time>2026-04-26T08:54:36.999Z</time></trkpt><trkpt lat="37.546737491223716" lon="14.01214719742501"><ele>355.0</ele><time>2026-04-26T08:54:37.999Z</time></trkpt><trkpt lat="37.5466558537634" lon="14.012110444779463"><ele>355.0</ele><time>2026-04-26T08:54:38.999Z</time></trkpt><trkpt lat="37.54658695398037" lon="14.012077855786211"><ele>355.0</ele><time>2026-04-26T08:54:39.999Z</time></trkpt><trkpt lat="37.54652260438588" lon="14.012007782062204"><ele>355.0</ele><time>2026-04-26T08:54:41.999Z</time></trkpt><trkpt lat="37.54646381406704" lon="14.011951434054048"><ele>355.0</ele><time>2026-04-26T08:54:43.999Z</time></trkpt><trkpt lat="37.54638993380553" lon="14.011874037992953"><ele>355.0</ele><time>2026-04-26T08:54:45.999Z</time></trkpt><trkpt lat="37.546357126306944" lon="14.011727688204646"><ele>355.0</ele><time>2026-04-26T08:54:47.999Z</time></trkpt><trkpt lat="37.54635934658529" lon="14.011646060445216"><ele>355.0</ele><time>2026-04-26T08:54:48.999Z</time></trkpt><trkpt lat="37.54637886450167" lon="14.011563965438617"><ele>355.4</ele><time>2026-04-26T08:54:49.999Z</time></trkpt><trkpt lat="37.546411218563165" lon="14.011461813718883"><ele>355.8</ele><time>2026-04-26T08:54:50.999Z</time></trkpt><trkpt lat="37.546429576991656" lon="14.011339556713766"><ele>356.20000000000005</ele><time>2026-04-26T08:54:51.999Z</time></trkpt><trkpt lat="37.546437179121725" lon="14.011202977191207"><ele>356.6</ele><time>2026-04-26T08:54:52.999Z</time></trkpt><trkpt lat="37.546430284978676" lon="14.011076690984725"><ele>357.0</ele><time>2026-04-26T08:54:53.999Z</time></trkpt><trkpt lat="37.54641831868516" lon="14.010965867465348"><ele>357.0</ele><time>2026-04-26T08:54:54.999Z</time></trkpt><trkpt lat="37.546405836833074" lon="14.010868250678966"><ele>357.0</ele><time>2026-04-26T08:54:55.999Z</time></trkpt><trkpt lat="37.54641906164606" lon="14.010785494260821"><ele>357.0</ele><time>2026-04-26T08:54:56.999Z</time></trkpt><trkpt lat="37.546449032719906" lon="14.01069992896727"><ele>357.0</ele><time>2026-04-26T08:54:57.999Z</time></trkpt><trkpt lat="37.54649346722635" lon="14.010621874960007"><ele>357.0</ele><time>2026-04-26T08:54:58.999Z</time></trkpt><trkpt lat="37.54653813096165" lon="14.01056249427529"><ele>357.0</ele><time>2026-04-26T08:54:59.999Z</time></trkpt><trkpt lat="37.54661841582644" lon="14.010480501887551"><ele>356.85714285714283</ele><time>2026-04-26T08:55:01.999Z</time></trkpt><trkpt lat="37.54667919035035" lon="14.01042885616358"><ele>356.7142857142857</ele><time>2026-04-26T08:55:04.999Z</time></trkpt><trkpt lat="37.54660580872746" lon="14.01047287437084"><ele>356.57142857142856</ele><time>2026-04-26T08:55:12.999Z</time></trkpt><trkpt lat="37.546547173994064" lon="14.010519987674503"><ele>356.42857142857144</ele><time>2026-04-26T08:56:05Z</time></trkpt><trkpt lat="37.546511808393234" lon="14.010447959043375"><ele>356.2857142857143</ele><time>2026-04-26T08:56:12Z</time></trkpt><trkpt lat="37.546528350395064" lon="14.01036553234729"><ele>356.1428571428571</ele><time>2026-04-26T08:56:21.999Z</time></trkpt><trkpt lat="37.54656103244288" lon="14.010268302740913"><ele>356.0</ele><time>2026-04-26T08:56:41.999Z</time></trkpt><trkpt lat="37.546607417771106" lon="14.010184784309002"><ele>356.0</ele><time>2026-04-26T08:56:43.999Z</time></trkpt><trkpt lat="37.54669774048102" lon="14.010130516815686"><ele>356.0</ele><time>2026-04-26T08:56:46.999Z</time></trkpt><trkpt lat="37.546748526401004" lon="14.010078162738797"><ele>356.0</ele><time>2026-04-26T08:56:48.999Z</time></trkpt><trkpt lat="37.54675965520764" lon="14.009990680494687"><ele>356.0</ele><time>2026-04-26T08:56:50.999Z</time></trkpt><trkpt lat="37.54676791665096" lon="14.009900850915045"><ele>356.0</ele><time>2026-04-26T08:56:52.999Z</time></trkpt><trkpt lat="37.54676603337384" lon="14.009804226299476"><ele>356.0</ele><time>2026-04-26T08:56:54.999Z</time></trkpt><trkpt lat="37.54676236104467" lon="14.00971439898586"><ele>356.6666666666667</ele><time>2026-04-26T08:56:55.999Z</time></trkpt><trkpt lat="37.54675170448877" lon="14.009629984893786"><ele>357.33333333333337</ele><time>2026-04-26T08:56:56.999Z</time></trkpt><trkpt lat="37.54673196222161" lon="14.009549459214346"><ele>358.0</ele><time>2026-04-26T08:56:57.999Z</time></trkpt><trkpt lat="37.546677080416124" lon="14.009419870071953"><ele>358.6666666666667</ele><time>2026-04-26T08:56:59.999Z</time></trkpt><trkpt lat="37.546632220366966" lon="14.00934246095576"><ele>359.3333333333333</ele><time>2026-04-26T08:57:00.999Z</time></trkpt><trkpt lat="37.54656506629795" lon="14.009268649326586"><ele>360.0</ele><time>2026-04-26T08:57:01.999Z</time></trkpt><trkpt lat="37.546494645507174" lon="14.009207162664648"><ele>360.0</ele><time>2026-04-26T08:57:02.999Z</time></trkpt><trkpt lat="37.546425510831654" lon="14.009163304162984"><ele>360.0</ele><time>2026-04-26T08:57:03.999Z</time></trkpt><trkpt lat="37.54636009694765" lon="14.009142527600213"><ele>360.0</ele><time>2026-04-26T08:57:04.999Z</time></trkpt><trkpt lat="37.54627836274253" lon="14.009155836360241"><ele>360.0</ele><time>2026-04-26T08:57:05.999Z</time></trkpt><trkpt lat="37.54619113664408" lon="14.009216812703439"><ele>360.0</ele><time>2026-04-26T08:57:06.999Z</time></trkpt><trkpt lat="37.54610411251838" lon="14.00929417808888"><ele>360.0</ele><time>2026-04-26T08:57:07.999Z</time></trkpt><trkpt lat="37.54600497627217" lon="14.009379452834665"><ele>361.0</ele><time>2026-04-26T08:57:08.999Z</time></trkpt><trkpt lat="37.545929556309176" lon="14.009487167610674"><ele>362.0</ele><time>2026-04-26T08:57:09.999Z</time></trkpt><trkpt lat="37.54586130857997" lon="14.009583083357033"><ele>363.0</ele><time>2026-04-26T08:57:10.999Z</time></trkpt><trkpt lat="37.54579362350073" lon="14.009675809123955"><ele>364.0</ele><time>2026-04-26T08:57:11.999Z</time></trkpt><trkpt lat="37.54571909838643" lon="14.009761601484499"><ele>365.0</ele><time>2026-04-26T08:57:12.999Z</time></trkpt><trkpt lat="37.545632395918425" lon="14.009848635152691"><ele>365.0</ele><time>2026-04-26T08:57:13.999Z</time></trkpt><trkpt lat="37.54553847198589" lon="14.009911740696245"><ele>365.0</ele><time>2026-04-26T08:57:14.999Z</time></trkpt><trkpt lat="37.54544000679337" lon="14.009978087394082"><ele>365.0</ele><time>2026-04-26T08:57:15.999Z</time></trkpt><trkpt lat="37.54534905167188" lon="14.010046036852929"><ele>365.0</ele><time>2026-04-26T08:57:16.999Z</time></trkpt><trkpt lat="37.54527655378067" lon="14.010097696103296"><ele>365.0</ele><time>2026-04-26T08:57:17.998Z</time></trkpt><trkpt lat="37.5452073118769" lon="14.010129941748827"><ele>365.83333333333337</ele><time>2026-04-26T08:57:18.998Z</time></trkpt><trkpt lat="37.54513082872529" lon="14.010145851523529"><ele>366.6666666666667</ele><time>2026-04-26T08:57:19.998Z</time></trkpt><trkpt lat="37.54504740665329" lon="14.010152913167008"><ele>367.5</ele><time>2026-04-26T08:57:20.998Z</time></trkpt><trkpt lat="37.544971632396" lon="14.010123044517863"><ele>368.3333333333333</ele><time>2026-04-26T08:57:21.998Z</time></trkpt><trkpt lat="37.54487402840639" lon="14.010098642528606"><ele>369.16666666666663</ele><time>2026-04-26T08:57:22.998Z</time></trkpt><trkpt lat="37.54478008003105" lon="14.010061541924195"><ele>370.0</ele><time>2026-04-26T08:57:23.998Z</time></trkpt><trkpt lat="37.544682283885706" lon="14.01002227880288"><ele>373.2</ele><time>2026-04-26T08:57:24.998Z</time></trkpt><trkpt lat="37.54458719521973" lon="14.0099801298392"><ele>376.4</ele><time>2026-04-26T08:57:25.998Z</time></trkpt><trkpt lat="37.544493488338794" lon="14.009929526890115"><ele>379.6</ele><time>2026-04-26T08:57:26.998Z</time></trkpt><trkpt lat="37.544407151563796" lon="14.009894263913164"><ele>382.8</ele><time>2026-04-26T08:57:27.998Z</time></trkpt><trkpt lat="37.54431305456307" lon="14.009881065756824"><ele>386.0</ele><time>2026-04-26T08:57:28.998Z</time></trkpt><trkpt lat="37.54421427174521" lon="14.009896510199622"><ele>388.3333333333333</ele><time>2026-04-26T08:57:29.998Z</time></trkpt><trkpt lat="37.54413011993953" lon="14.009911269773324"><ele>390.66666666666663</ele><time>2026-04-26T08:57:30.998Z</time></trkpt><trkpt lat="37.544052939227385" lon="14.009902524406488"><ele>393.0</ele><time>2026-04-26T08:57:31.998Z</time></trkpt><trkpt lat="37.54397378783437" lon="14.009869960201037"><ele>395.33333333333337</ele><time>2026-04-26T08:57:32.998Z</time></trkpt><trkpt lat="37.5438852139372" lon="14.009824560199473"><ele>397.6666666666667</ele><time>2026-04-26T08:57:33.998Z</time></trkpt><trkpt lat="37.54381168618105" lon="14.009779573484863"><ele>400.0</ele><time>2026-04-26T08:57:35Z</time></trkpt><trkpt lat="37.54374746210625" lon="14.009735069282542"><ele>399.14285714285717</ele><time>2026-04-26T08:57:36Z</time></trkpt><trkpt lat="37.54369249734391" lon="14.009695458057553"><ele>398.2857142857143</ele><time>2026-04-26T08:57:37Z</time></trkpt><trkpt lat="37.54363060490421" lon="14.00966457878363"><ele>397.42857142857144</ele><time>2026-04-26T08:57:38Z</time></trkpt><trkpt lat="37.54357617991398" lon="14.009619964432824"><ele>396.57142857142856</ele><time>2026-04-26T08:57:39Z</time></trkpt><trkpt lat="37.54352810226999" lon="14.009546954145485"><ele>395.7142857142857</ele><time>2026-04-26T08:57:40Z</time></trkpt><trkpt lat="37.54347876089225" lon="14.009461576175058"><ele>394.8571428571429</ele><time>2026-04-26T08:57:41Z</time></trkpt><trkpt lat="37.54341143031181" lon="14.009389648045518"><ele>394.0</ele><time>2026-04-26T08:57:42Z</time></trkpt><trkpt lat="37.54331554298696" lon="14.009338442817553"><ele>394.00000000000006</ele><time>2026-04-26T08:57:43Z</time></trkpt><trkpt lat="37.54321901737714" lon="14.009332301703628"><ele>394.0</ele><time>2026-04-26T08:57:44Z</time></trkpt><trkpt lat="37.5431506689476" lon="14.00930184609677"><ele>394.0</ele><time>2026-04-26T08:57:45Z</time></trkpt><trkpt lat="37.54309194847921" lon="14.009238134216744"><ele>394.0</ele><time>2026-04-26T08:57:46Z</time></trkpt><trkpt lat="37.543038479430294" lon="14.009143925787878"><ele>394.00000000000006</ele><time>2026-04-26T08:57:47Z</time></trkpt><trkpt lat="37.54298420418403" lon="14.009042526504016"><ele>394.0</ele><time>2026-04-26T08:57:48Z</time></trkpt><trkpt lat="37.54290154642914" lon="14.008960654799223"><ele>397.0</ele><time>2026-04-26T08:57:49Z</time></trkpt><trkpt lat="37.54279316998357" lon="14.008901465082715"><ele>400.0</ele><time>2026-04-26T08:57:50Z</time></trkpt><trkpt lat="37.54267430919518" lon="14.008864699275264"><ele>403.0</ele><time>2026-04-26T08:57:51Z</time></trkpt><trkpt lat="37.5425451796116" lon="14.008836878970374"><ele>406.0</ele><time>2026-04-26T08:57:52Z</time></trkpt><trkpt lat="37.54242191047915" lon="14.008811412899881"><ele>406.0</ele><time>2026-04-26T08:57:53Z</time></trkpt><trkpt lat="37.54229890297276" lon="14.008778166113807"><ele>406.0</ele><time>2026-04-26T08:57:54Z</time></trkpt><trkpt lat="37.54219194153959" lon="14.008731052240162"><ele>406.0</ele><time>2026-04-26T08:57:55Z</time></trkpt><trkpt lat="37.54210329648996" lon="14.008693988690249"><ele>406.0</ele><time>2026-04-26T08:57:56Z</time></trkpt><trkpt lat="37.54201863963007" lon="14.008649485621124"><ele>406.0</ele><time>2026-04-26T08:57:57Z</time></trkpt><trkpt lat="37.541932355550514" lon="14.008583628382533"><ele>404.6666666666667</ele><time>2026-04-26T08:57:58Z</time></trkpt><trkpt lat="37.541849487625825" lon="14.0085084144569"><ele>403.33333333333337</ele><time>2026-04-26T08:57:59Z</time></trkpt><trkpt lat="37.54177697679641" lon="14.008433870884925"><ele>402.0</ele><time>2026-04-26T08:58:00Z</time></trkpt><trkpt lat="37.54171282251437" lon="14.008359662412825"><ele>400.66666666666663</ele><time>2026-04-26T08:58:01Z</time></trkpt><trkpt lat="37.54166302489612" lon="14.008291043512854"><ele>399.3333333333333</ele><time>2026-04-26T08:58:02Z</time></trkpt><trkpt lat="37.541628650460474" lon="14.008191320016614"><ele>398.0</ele><time>2026-04-26T08:58:04Z</time></trkpt><trkpt lat="37.54163199399719" lon="14.008092864469889"><ele>397.99999999999994</ele><time>2026-04-26T08:58:08Z</time></trkpt><trkpt lat="37.54163441899978" lon="14.008006883611623"><ele>398.0</ele><time>2026-04-26T08:58:10Z</time></trkpt><trkpt lat="37.54160365666313" lon="14.007936204529745"><ele>398.0</ele><time>2026-04-26T08:58:14Z</time></trkpt><trkpt lat="37.541555847357806" lon="14.007876460752993"><ele>398.0</ele><time>2026-04-26T08:58:35.999Z</time></trkpt><trkpt lat="37.541605385325894" lon="14.007933538835507"><ele>398.0</ele><time>2026-04-26T08:58:50.999Z</time></trkpt><trkpt lat="37.54167708705422" lon="14.00798751776012"><ele>397.99999999999994</ele><time>2026-04-26T08:58:54.999Z</time></trkpt><trkpt lat="37.541739719098516" lon="14.008022965137224"><ele>398.0</ele><time>2026-04-26T08:58:55.999Z</time></trkpt><trkpt lat="37.54182525680957" lon="14.008064826353484"><ele>398.0</ele><time>2026-04-26T08:58:56.999Z</time></trkpt><trkpt lat="37.54193577045675" lon="14.008110494444889"><ele>398.0</ele><time>2026-04-26T08:58:57.999Z</time></trkpt><trkpt lat="37.542051962802375" lon="14.008138966889776"><ele>398.0</ele><time>2026-04-26T08:58:58.999Z</time></trkpt><trkpt lat="37.54214314954092" lon="14.008138816868124"><ele>398.0</ele><time>2026-04-26T08:58:59.999Z</time></trkpt><trkpt lat="37.54222009664514" lon="14.008129628964262"><ele>398.0</ele><time>2026-04-26T08:59:00.999Z</time></trkpt><trkpt lat="37.542294743728526" lon="14.008156313632126"><ele>401.59999999999997</ele><time>2026-04-26T08:59:01.999Z</time></trkpt><trkpt lat="37.54238207247444" lon="14.008160657508085"><ele>405.2</ele><time>2026-04-26T08:59:02.999Z</time></trkpt><trkpt lat="37.54247285953514" lon="14.008223920653341"><ele>408.8</ele><time>2026-04-26T08:59:03.999Z</time></trkpt><trkpt lat="37.54256282964916" lon="14.00824500892009"><ele>412.4</ele><time>2026-04-26T08:59:04.999Z</time></trkpt><trkpt lat="37.54264758543109" lon="14.008283536355252"><ele>416.0</ele><time>2026-04-26T08:59:05.999Z</time></trkpt><trkpt lat="37.54277290275348" lon="14.008295712784301"><ele>418.25</ele><time>2026-04-26T08:59:06.999Z</time></trkpt><trkpt lat="37.542925601771024" lon="14.008284588422745"><ele>420.5</ele><time>2026-04-26T08:59:07.999Z</time></trkpt><trkpt lat="37.54306464844909" lon="14.008298509948414"><ele>422.75</ele><time>2026-04-26T08:59:08.999Z</time></trkpt><trkpt lat="37.5431845115558" lon="14.008302777123093"><ele>425.0</ele><time>2026-04-26T08:59:09.999Z</time></trkpt><trkpt lat="37.54328854541306" lon="14.008313828527337"><ele>424.99999999999994</ele><time>2026-04-26T08:59:10.999Z</time></trkpt><trkpt lat="37.54338193854319" lon="14.008324156256124"><ele>425.0</ele><time>2026-04-26T08:59:11.999Z</time></trkpt><trkpt lat="37.54346521938313" lon="14.008388616877017"><ele>425.0</ele><time>2026-04-26T08:59:12.999Z</time></trkpt><trkpt lat="37.543541768399194" lon="14.008466141061929"><ele>425.0</ele><time>2026-04-26T08:59:13.999Z</time></trkpt><trkpt lat="37.543606885297535" lon="14.00852965945447"><ele>424.99999999999994</ele><time>2026-04-26T08:59:14.999Z</time></trkpt><trkpt lat="37.543678478518984" lon="14.008548921348543"><ele>425.0</ele><time>2026-04-26T08:59:15.999Z</time></trkpt><trkpt lat="37.54376074889713" lon="14.008516820755109"><ele>423.4</ele><time>2026-04-26T08:59:16.999Z</time></trkpt><trkpt lat="37.54382837955367" lon="14.008444206951891"><ele>421.8</ele><time>2026-04-26T08:59:17.999Z</time></trkpt><trkpt lat="37.543869991805785" lon="14.008344888953252"><ele>420.20000000000005</ele><time>2026-04-26T08:59:18.999Z</time></trkpt><trkpt lat="37.54390623344603" lon="14.008231011715178"><ele>418.6</ele><time>2026-04-26T08:59:19.999Z</time></trkpt><trkpt lat="37.54385950615696" lon="14.008075636970817"><ele>417.0</ele><time>2026-04-26T08:59:20.999Z</time></trkpt><trkpt lat="37.54379556877342" lon="14.007927446965354"><ele>417.0</ele><time>2026-04-26T08:59:21.999Z</time></trkpt><trkpt lat="37.54373971719524" lon="14.007750054017189"><ele>417.0</ele><time>2026-04-26T08:59:22.999Z</time></trkpt><trkpt lat="37.543664669515444" lon="14.007552851884322"><ele>417.0</ele><time>2026-04-26T08:59:23.999Z</time></trkpt><trkpt lat="37.54358632975612" lon="14.007345892720746"><ele>418.25</ele><time>2026-04-26T08:59:24.999Z</time></trkpt><trkpt lat="37.54351928353303" lon="14.007171255990396"><ele>419.5</ele><time>2026-04-26T08:59:25.998Z</time></trkpt><trkpt lat="37.54346232521779" lon="14.007025277480372"><ele>420.75</ele><time>2026-04-26T08:59:26.998Z</time></trkpt><trkpt lat="37.54342518223051" lon="14.006907747421625"><ele>422.0</ele><time>2026-04-26T08:59:27.998Z</time></trkpt><trkpt lat="37.543412002924455" lon="14.00681208022795"><ele>421.99999999999994</ele><time>2026-04-26T08:59:28.998Z</time></trkpt><trkpt lat="37.54341958666397" lon="14.006721714461117"><ele>422.0</ele><time>2026-04-26T08:59:29.998Z</time></trkpt><trkpt lat="37.54344728853833" lon="14.006634027423072"><ele>422.0</ele><time>2026-04-26T08:59:30.998Z</time></trkpt><trkpt lat="37.543493509143175" lon="14.00655355474581"><ele>422.0</ele><time>2026-04-26T08:59:31.998Z</time></trkpt><trkpt lat="37.54357576566389" lon="14.006479131382198"><ele>421.99999999999994</ele><time>2026-04-26T08:59:32.998Z</time></trkpt><trkpt lat="37.54367455890016" lon="14.006404678826225"><ele>422.0</ele><time>2026-04-26T08:59:33.998Z</time></trkpt><trkpt lat="37.543762065746314" lon="14.006339217863225"><ele>422.40000000000003</ele><time>2026-04-26T08:59:34.998Z</time></trkpt><trkpt lat="37.543832883126576" lon="14.006278346331277"><ele>422.8</ele><time>2026-04-26T08:59:35.998Z</time></trkpt><trkpt lat="37.54391329814035" lon="14.006225528913882"><ele>423.2</ele><time>2026-04-26T08:59:36.998Z</time></trkpt><trkpt lat="37.54399291777215" lon="14.006157499343177"><ele>423.6</ele><time>2026-04-26T08:59:37.998Z</time></trkpt><trkpt lat="37.54407894420047" lon="14.006087752440603"><ele>424.0</ele><time>2026-04-26T08:59:38.998Z</time></trkpt><trkpt lat="37.54417487848694" lon="14.006016375054338"><ele>424.0</ele><time>2026-04-26T08:59:39.998Z</time></trkpt><trkpt lat="37.54427468056477" lon="14.005941671976048"><ele>424.0</ele><time>2026-04-26T08:59:41Z</time></trkpt><trkpt lat="37.544370728628884" lon="14.005870449836682"><ele>424.0</ele><time>2026-04-26T08:59:42Z</time></trkpt><trkpt lat="37.54446961236866" lon="14.005793244623995"><ele>424.0</ele><time>2026-04-26T08:59:43Z</time></trkpt><trkpt lat="37.544569798802165" lon="14.00571257600804"><ele>426.6</ele><time>2026-04-26T08:59:44Z</time></trkpt><trkpt lat="37.54466774982776" lon="14.00564647287148"><ele>429.2</ele><time>2026-04-26T08:59:45Z</time></trkpt><trkpt lat="37.54476215473378" lon="14.005582011434132"><ele>431.80000000000007</ele><time>2026-04-26T08:59:46Z</time></trkpt><trkpt lat="37.54485650847457" lon="14.005510187550406"><ele>434.40000000000003</ele><time>2026-04-26T08:59:47Z</time></trkpt><trkpt lat="37.544952962817185" lon="14.005433011316525"><ele>437.0</ele><time>2026-04-26T08:59:48Z</time></trkpt><trkpt lat="37.5450507505161" lon="14.005356713684732"><ele>437.0</ele><time>2026-04-26T08:59:49Z</time></trkpt><trkpt lat="37.54514990782079" lon="14.005282109575196"><ele>437.0</ele><time>2026-04-26T08:59:50Z</time></trkpt><trkpt lat="37.54525076226078" lon="14.005207366726003"><ele>437.0</ele><time>2026-04-26T08:59:51Z</time></trkpt><trkpt lat="37.54535255034775" lon="14.005127932546234"><ele>437.0</ele><time>2026-04-26T08:59:52Z</time></trkpt><trkpt lat="37.54545640832336" lon="14.005049724942763"><ele>439.20000000000005</ele><time>2026-04-26T08:59:53Z</time></trkpt><trkpt lat="37.54556120733919" lon="14.004974284306005"><ele>441.40000000000003</ele><time>2026-04-26T08:59:54Z</time></trkpt><trkpt lat="37.54565532266182" lon="14.004900632776287"><ele>443.59999999999997</ele><time>2026-04-26T08:59:55Z</time></trkpt><trkpt lat="37.54573514067824" lon="14.00483840705244"><ele>445.79999999999995</ele><time>2026-04-26T08:59:56Z</time></trkpt><trkpt lat="37.545806895887196" lon="14.004775138318154"><ele>448.0</ele><time>2026-04-26T08:59:57Z</time></trkpt><trkpt lat="37.54586929579334" lon="14.004689401003093"><ele>448.0</ele><time>2026-04-26T08:59:58Z</time></trkpt><trkpt lat="37.54590728685669" lon="14.004582627414703"><ele>447.99999999999994</ele><time>2026-04-26T08:59:59Z</time></trkpt><trkpt lat="37.5459333037447" lon="14.004479187723707"><ele>447.99999999999994</ele><time>2026-04-26T09:00:00Z</time></trkpt><trkpt lat="37.545939922838606" lon="14.004361170991835"><ele>448.0</ele><time>2026-04-26T09:00:01Z</time></trkpt><trkpt lat="37.545947341688574" lon="14.004238993376056"><ele>448.0</ele><time>2026-04-26T09:00:02Z</time></trkpt><trkpt lat="37.545961288914576" lon="14.004118934085824"><ele>449.50000000000006</ele><time>2026-04-26T09:00:03Z</time></trkpt><trkpt lat="37.54599728250457" lon="14.004029020793668"><ele>451.0</ele><time>2026-04-26T09:00:04Z</time></trkpt><trkpt lat="37.54605350219219" lon="14.003969953485312"><ele>452.5</ele><time>2026-04-26T09:00:05Z</time></trkpt><trkpt lat="37.54613260103457" lon="14.003952302399192"><ele>454.0</ele><time>2026-04-26T09:00:06Z</time></trkpt><trkpt lat="37.54622403018721" lon="14.003932885226206"><ele>455.50000000000006</ele><time>2026-04-26T09:00:07Z</time></trkpt><trkpt lat="37.546321634540185" lon="14.00391341632996"><ele>457.0</ele><time>2026-04-26T09:00:08Z</time></trkpt><trkpt lat="37.546423601672466" lon="14.003893286246736"><ele>457.0</ele><time>2026-04-26T09:00:09Z</time></trkpt><trkpt lat="37.54651641411155" lon="14.003875317905191"><ele>457.00000000000006</ele><time>2026-04-26T09:00:10Z</time></trkpt><trkpt lat="37.546621370527774" lon="14.003862378021207"><ele>457.00000000000006</ele><time>2026-04-26T09:00:11Z</time></trkpt><trkpt lat="37.546720569859694" lon="14.003847700751706"><ele>457.0</ele><time>2026-04-26T09:00:12Z</time></trkpt><trkpt lat="37.5468163224955" lon="14.003826557675694"><ele>457.0</ele><time>2026-04-26T09:00:13Z</time></trkpt><trkpt lat="37.54691030870956" lon="14.003806444976696"><ele>457.00000000000006</ele><time>2026-04-26T09:00:14Z</time></trkpt><trkpt lat="37.547001476580974" lon="14.003793476378933"><ele>457.0</ele><time>2026-04-26T09:00:15Z</time></trkpt><trkpt lat="37.54708725915905" lon="14.003789844994746"><ele>457.0</ele><time>2026-04-26T09:00:16Z</time></trkpt><trkpt lat="37.54716520356729" lon="14.003794994257126"><ele>457.0</ele><time>2026-04-26T09:00:17Z</time></trkpt><trkpt lat="37.54724068247351" lon="14.003802797975787"><ele>457.00000000000006</ele><time>2026-04-26T09:00:18Z</time></trkpt><trkpt lat="37.54732616744914" lon="14.003834477047999"><ele>457.0</ele><time>2026-04-26T09:00:19Z</time></trkpt><trkpt lat="37.547405996275984" lon="14.003929078462876"><ele>457.8</ele><time>2026-04-26T09:00:20Z</time></trkpt><trkpt lat="37.54749836155544" lon="14.004017027910079"><ele>458.6</ele><time>2026-04-26T09:00:21Z</time></trkpt><trkpt lat="37.54757216486395" lon="14.004123876238152"><ele>459.40000000000003</ele><time>2026-04-26T09:00:22Z</time></trkpt><trkpt lat="37.54765355518064" lon="14.004186919213902"><ele>460.20000000000005</ele><time>2026-04-26T09:00:23Z</time></trkpt><trkpt lat="37.547742374721565" lon="14.004209583824457"><ele>461.0</ele><time>2026-04-26T09:00:24Z</time></trkpt><trkpt lat="37.54783538454992" lon="14.004211089368544"><ele>459.20000000000005</ele><time>2026-04-26T09:00:25Z</time></trkpt><trkpt lat="37.54792659516083" lon="14.00419090377485"><ele>457.40000000000003</ele><time>2026-04-26T09:00:26Z</time></trkpt><trkpt lat="37.54802308439104" lon="14.00415005402051"><ele>455.6</ele><time>2026-04-26T09:00:26.999Z</time></trkpt><trkpt lat="37.548106482544696" lon="14.004093305790532"><ele>453.8</ele><time>2026-04-26T09:00:27.999Z</time></trkpt><trkpt lat="37.54818825342119" lon="14.004034395977351"><ele>452.0</ele><time>2026-04-26T09:00:28.999Z</time></trkpt><trkpt lat="37.548267510831984" lon="14.003984507255653"><ele>451.99999999999994</ele><time>2026-04-26T09:00:29.999Z</time></trkpt><trkpt lat="37.54834160096891" lon="14.003940783077928"><ele>452.0</ele><time>2026-04-26T09:00:30.999Z</time></trkpt><trkpt lat="37.548427503071174" lon="14.003911914394875"><ele>452.0</ele><time>2026-04-26T09:00:32.999Z</time></trkpt><trkpt lat="37.54849372176287" lon="14.00390868334467"><ele>452.0</ele><time>2026-04-26T09:00:34.999Z</time></trkpt><trkpt lat="37.54855776736134" lon="14.00392511832568"><ele>451.99999999999994</ele><time>2026-04-26T09:00:36.999Z</time></trkpt><trkpt lat="37.548630040272386" lon="14.003979340056635"><ele>452.0</ele><time>2026-04-26T09:00:38.999Z</time></trkpt><trkpt lat="37.54869851959454" lon="14.004080079654909"><ele>449.8</ele><time>2026-04-26T09:00:40.999Z</time></trkpt><trkpt lat="37.5487499924026" lon="14.004224088379958"><ele>447.6</ele><time>2026-04-26T09:00:42.999Z</time></trkpt><trkpt lat="37.54877978872383" lon="14.004307011744514"><ele>445.40000000000003</ele><time>2026-04-26T09:00:43.999Z</time></trkpt><trkpt lat="37.54881784197303" lon="14.004397744198542"><ele>443.20000000000005</ele><time>2026-04-26T09:00:44.999Z</time></trkpt><trkpt lat="37.54886619792202" lon="14.004484777092543"><ele>441.0</ele><time>2026-04-26T09:00:45.999Z</time></trkpt><trkpt lat="37.548929152796255" lon="14.004562555669594"><ele>441.0</ele><time>2026-04-26T09:00:46.999Z</time></trkpt><trkpt lat="37.549003376893424" lon="14.004632367311325"><ele>441.0</ele><time>2026-04-26T09:00:47.999Z</time></trkpt><trkpt lat="37.5490820737247" lon="14.0046984419105"><ele>441.0</ele><time>2026-04-26T09:00:48.999Z</time></trkpt><trkpt lat="37.54916679301651" lon="14.004771630530916"><ele>441.0</ele><time>2026-04-26T09:00:49.999Z</time></trkpt><trkpt lat="37.54924608841066" lon="14.00484738631121"><ele>441.0</ele><time>2026-04-26T09:00:50.999Z</time></trkpt><trkpt lat="37.549320865543315" lon="14.004920327489174"><ele>441.0</ele><time>2026-04-26T09:00:51.999Z</time></trkpt><trkpt lat="37.549393435297866" lon="14.004986121655127"><ele>441.0</ele><time>2026-04-26T09:00:52.999Z</time></trkpt><trkpt lat="37.549462753278114" lon="14.005046676590702"><ele>441.0</ele><time>2026-04-26T09:00:53.999Z</time></trkpt><trkpt lat="37.54952950264049" lon="14.00510753968586"><ele>441.0</ele><time>2026-04-26T09:00:54.999Z</time></trkpt><trkpt lat="37.54958933029412" lon="14.005166696197408"><ele>441.0</ele><time>2026-04-26T09:00:55.999Z</time></trkpt><trkpt lat="37.549649916868866" lon="14.005224722348599"><ele>441.0</ele><time>2026-04-26T09:00:56.999Z</time></trkpt><trkpt lat="37.54971319546441" lon="14.0052872956567"><ele>440.6666666666667</ele><time>2026-04-26T09:00:57.999Z</time></trkpt><trkpt lat="37.549781998639354" lon="14.00535535401428"><ele>440.33333333333337</ele><time>2026-04-26T09:00:58.999Z</time></trkpt><trkpt lat="37.5498509345918" lon="14.0054297815327"><ele>440.0</ele><time>2026-04-26T09:00:59.999Z</time></trkpt><trkpt lat="37.54992046123643" lon="14.005510813427655"><ele>439.6666666666667</ele><time>2026-04-26T09:01:00.999Z</time></trkpt><trkpt lat="37.549985855955114" lon="14.005588725098256"><ele>439.33333333333337</ele><time>2026-04-26T09:01:01.999Z</time></trkpt><trkpt lat="37.550054590161736" lon="14.005642913169924"><ele>439.0</ele><time>2026-04-26T09:01:02.999Z</time></trkpt><trkpt lat="37.55013555861356" lon="14.00567325192161"><ele>439.0</ele><time>2026-04-26T09:01:03.999Z</time></trkpt><trkpt lat="37.55023282314728" lon="14.005669066829068"><ele>439.0</ele><time>2026-04-26T09:01:04.999Z</time></trkpt><trkpt lat="37.55033240153481" lon="14.005624243206599"><ele>439.0</ele><time>2026-04-26T09:01:05.999Z</time></trkpt><trkpt lat="37.55041542028558" lon="14.005562440197213"><ele>439.0</ele><time>2026-04-26T09:01:06.999Z</time></trkpt><trkpt lat="37.55049017931908" lon="14.005501899984306"><ele>439.0</ele><time>2026-04-26T09:01:07.999Z</time></trkpt><trkpt lat="37.55056166002602" lon="14.005443977406745"><ele>438.83333333333337</ele><time>2026-04-26T09:01:08.999Z</time></trkpt><trkpt lat="37.550647841219686" lon="14.005405566730124"><ele>438.6666666666667</ele><time>2026-04-26T09:01:09.999Z</time></trkpt><trkpt lat="37.55071994918176" lon="14.005349703565297"><ele>438.5</ele><time>2026-04-26T09:01:10.999Z</time></trkpt><trkpt lat="37.55080171773206" lon="14.005334512959994"><ele>438.33333333333337</ele><time>2026-04-26T09:01:11.999Z</time></trkpt><trkpt lat="37.55089085083129" lon="14.005334141158363"><ele>438.1666666666667</ele><time>2026-04-26T09:01:12.999Z</time></trkpt><trkpt lat="37.55098260492367" lon="14.005353857376237"><ele>438.0</ele><time>2026-04-26T09:01:13.999Z</time></trkpt><trkpt lat="37.55107801213845" lon="14.005380724816447"><ele>438.0</ele><time>2026-04-26T09:01:14.999Z</time></trkpt><trkpt lat="37.551167700554494" lon="14.005408536635105"><ele>438.0</ele><time>2026-04-26T09:01:15.999Z</time></trkpt><trkpt lat="37.55125153957927" lon="14.005428700363986"><ele>438.0</ele><time>2026-04-26T09:01:16.999Z</time></trkpt><trkpt lat="37.55133494557021" lon="14.00543816810745"><ele>438.0</ele><time>2026-04-26T09:01:17.999Z</time></trkpt><trkpt lat="37.551417796784875" lon="14.005437470893476"><ele>438.0</ele><time>2026-04-26T09:01:18.999Z</time></trkpt><trkpt lat="37.55149596516353" lon="14.005433225440196"><ele>438.0</ele><time>2026-04-26T09:01:19.999Z</time></trkpt><trkpt lat="37.55156745561064" lon="14.005438630109081"><ele>437.8333333333333</ele><time>2026-04-26T09:01:20.999Z</time></trkpt><trkpt lat="37.551640958615685" lon="14.005446435159513"><ele>437.66666666666663</ele><time>2026-04-26T09:01:21.999Z</time></trkpt><trkpt lat="37.5517156466765" lon="14.005462420343646"><ele>437.5</ele><time>2026-04-26T09:01:22.999Z</time></trkpt><trkpt lat="37.55178433510537" lon="14.005498533326016"><ele>437.3333333333333</ele><time>2026-04-26T09:01:23.999Z</time></trkpt><trkpt lat="37.55185361005737" lon="14.005549278974183"><ele>437.16666666666663</ele><time>2026-04-26T09:01:24.999Z</time></trkpt><trkpt lat="37.551901909289" lon="14.005625283022956"><ele>437.0</ele><time>2026-04-26T09:01:25.999Z</time></trkpt><trkpt lat="37.55192662591229" lon="14.005715306436883"><ele>436.99999999999994</ele><time>2026-04-26T09:01:26.999Z</time></trkpt><trkpt lat="37.55194136521166" lon="14.005816708511217"><ele>437.0</ele><time>2026-04-26T09:01:27.999Z</time></trkpt><trkpt lat="37.55195827180521" lon="14.005916778237898"><ele>437.0</ele><time>2026-04-26T09:01:28.999Z</time></trkpt><trkpt lat="37.55199312404561" lon="14.006013021289663"><ele>437.0</ele><time>2026-04-26T09:01:29.999Z</time></trkpt><trkpt lat="37.55205145920384" lon="14.006093339779754"><ele>436.99999999999994</ele><time>2026-04-26T09:01:30.999Z</time></trkpt><trkpt lat="37.552122716958806" lon="14.006162350593934"><ele>437.0</ele><time>2026-04-26T09:01:31.999Z</time></trkpt><trkpt lat="37.55219070122732" lon="14.006224785956462"><ele>437.49999999999994</ele><time>2026-04-26T09:01:32.999Z</time></trkpt><trkpt lat="37.552250299287195" lon="14.00629759865907"><ele>438.0</ele><time>2026-04-26T09:01:33.998Z</time></trkpt><trkpt lat="37.5522985466096" lon="14.006390212803046"><ele>438.5</ele><time>2026-04-26T09:01:34.998Z</time></trkpt><trkpt lat="37.5523367037499" lon="14.006493115733445"><ele>439.0</ele><time>2026-04-26T09:01:35.998Z</time></trkpt><trkpt lat="37.552388243752986" lon="14.006585706936933"><ele>439.49999999999994</ele><time>2026-04-26T09:01:36.998Z</time></trkpt><trkpt lat="37.55246438296671" lon="14.006652692932516"><ele>440.0</ele><time>2026-04-26T09:01:37.998Z</time></trkpt><trkpt lat="37.55255764814248" lon="14.006678767431822"><ele>439.99999999999994</ele><time>2026-04-26T09:01:38.998Z</time></trkpt><trkpt lat="37.55264860651037" lon="14.006669543851888"><ele>440.0</ele><time>2026-04-26T09:01:39.998Z</time></trkpt><trkpt lat="37.55272572486995" lon="14.006655155936851"><ele>440.0</ele><time>2026-04-26T09:01:40.998Z</time></trkpt><trkpt lat="37.552805801157675" lon="14.006649063914438"><ele>440.0</ele><time>2026-04-26T09:01:41.998Z</time></trkpt><trkpt lat="37.55288186053781" lon="14.006680842535712"><ele>439.99999999999994</ele><time>2026-04-26T09:01:42.998Z</time></trkpt><trkpt lat="37.552933618830636" lon="14.006749851032884"><ele>440.0</ele><time>2026-04-26T09:01:43.998Z</time></trkpt><trkpt lat="37.55294050259799" lon="14.006843723356154"><ele>440.8333333333333</ele><time>2026-04-26T09:01:44.998Z</time></trkpt><trkpt lat="37.552975951454684" lon="14.006916467383222"><ele>441.66666666666663</ele><time>2026-04-26T09:01:45.998Z</time></trkpt><trkpt lat="37.55300957444132" lon="14.007042868481761"><ele>442.5</ele><time>2026-04-26T09:01:48Z</time></trkpt><trkpt lat="37.55306165279514" lon="14.007132779535437"><ele>443.33333333333337</ele><time>2026-04-26T09:01:50Z</time></trkpt><trkpt lat="37.55315110159111" lon="14.007218972694414"><ele>444.1666666666667</ele><time>2026-04-26T09:01:53Z</time></trkpt><trkpt lat="37.55321005986498" lon="14.007256821684168"><ele>445.0</ele><time>2026-04-26T09:01:54Z</time></trkpt><trkpt lat="37.55328201695048" lon="14.007298306843602"><ele>445.00000000000006</ele><time>2026-04-26T09:01:55Z</time></trkpt><trkpt lat="37.55335098470818" lon="14.007342834152894"><ele>445.0</ele><time>2026-04-26T09:01:56Z</time></trkpt><trkpt lat="37.55341237995058" lon="14.007405509759602"><ele>445.0</ele><time>2026-04-26T09:01:57Z</time></trkpt><trkpt lat="37.55346813982343" lon="14.007487183372215"><ele>445.0</ele><time>2026-04-26T09:01:58Z</time></trkpt><trkpt lat="37.55352090898398" lon="14.007589327645302"><ele>445.00000000000006</ele><time>2026-04-26T09:01:59Z</time></trkpt><trkpt lat="37.55357560506353" lon="14.007691017844994"><ele>445.0</ele><time>2026-04-26T09:02:00Z</time></trkpt><trkpt lat="37.55363733391754" lon="14.00779069751266"><ele>444.2</ele><time>2026-04-26T09:02:01Z</time></trkpt><trkpt lat="37.55369909247654" lon="14.007888209042774"><ele>443.4</ele><time>2026-04-26T09:02:02Z</time></trkpt><trkpt lat="37.55376033818277" lon="14.007987746610501"><ele>442.6</ele><time>2026-04-26T09:02:03Z</time></trkpt><trkpt lat="37.55381644772824" lon="14.00809168443503"><ele>441.8</ele><time>2026-04-26T09:02:04Z</time></trkpt><trkpt lat="37.5538735205548" lon="14.008187669464794"><ele>441.0</ele><time>2026-04-26T09:02:05Z</time></trkpt><trkpt lat="37.55393110835475" lon="14.008285477836008"><ele>443.4</ele><time>2026-04-26T09:02:06Z</time></trkpt><trkpt lat="37.553988686260176" lon="14.00838584786292"><ele>445.8</ele><time>2026-04-26T09:02:07Z</time></trkpt><trkpt lat="37.554044167444296" lon="14.008483458955476"><ele>448.19999999999993</ele><time>2026-04-26T09:02:08Z</time></trkpt><trkpt lat="37.55408689569017" lon="14.00857934586237"><ele>450.59999999999997</ele><time>2026-04-26T09:02:09Z</time></trkpt><trkpt lat="37.55410496630149" lon="14.008692819896192"><ele>453.0</ele><time>2026-04-26T09:02:10Z</time></trkpt><trkpt lat="37.554100187315285" lon="14.00881605789461"><ele>453.0</ele><time>2026-04-26T09:02:11Z</time></trkpt><trkpt lat="37.55409765692146" lon="14.008942894024083"><ele>452.99999999999994</ele><time>2026-04-26T09:02:12Z</time></trkpt><trkpt lat="37.55410660850004" lon="14.009070523142045"><ele>452.99999999999994</ele><time>2026-04-26T09:02:13Z</time></trkpt><trkpt lat="37.55414225917404" lon="14.009189774986726"><ele>453.0</ele><time>2026-04-26T09:02:14Z</time></trkpt><trkpt lat="37.55420760992539" lon="14.009297644871042"><ele>453.0</ele><time>2026-04-26T09:02:15Z</time></trkpt><trkpt lat="37.554295658633876" lon="14.009385892101582"><ele>452.5</ele><time>2026-04-26T09:02:16Z</time></trkpt><trkpt lat="37.55438886520942" lon="14.009459504759896"><ele>452.0</ele><time>2026-04-26T09:02:17Z</time></trkpt><trkpt lat="37.55449653063929" lon="14.0095442850065"><ele>451.5</ele><time>2026-04-26T09:02:18Z</time></trkpt><trkpt lat="37.55460007719653" lon="14.009628815507979"><ele>451.0</ele><time>2026-04-26T09:02:19Z</time></trkpt><trkpt lat="37.55469365391769" lon="14.009715906969541"><ele>451.0</ele><time>2026-04-26T09:02:20Z</time></trkpt><trkpt lat="37.55476644835907" lon="14.00979920860783"><ele>451.0</ele><time>2026-04-26T09:02:21Z</time></trkpt><trkpt lat="37.55486744792649" lon="14.009882968236347"><ele>451.0</ele><time>2026-04-26T09:02:22Z</time></trkpt><trkpt lat="37.554960546369" lon="14.009959574816012"><ele>451.0</ele><time>2026-04-26T09:02:23Z</time></trkpt><trkpt lat="37.55505566237721" lon="14.010031095955927"><ele>451.0</ele><time>2026-04-26T09:02:24Z</time></trkpt><trkpt lat="37.5551474433242" lon="14.010085912808766"><ele>452.6</ele><time>2026-04-26T09:02:25Z</time></trkpt><trkpt lat="37.55524651387728" lon="14.010112309936392"><ele>454.20000000000005</ele><time>2026-04-26T09:02:26Z</time></trkpt><trkpt lat="37.555353641903864" lon="14.010116970293378"><ele>455.79999999999995</ele><time>2026-04-26T09:02:27Z</time></trkpt><trkpt lat="37.555457709434116" lon="14.01010892990412"><ele>457.4</ele><time>2026-04-26T09:02:28Z</time></trkpt><trkpt lat="37.55555972460229" lon="14.010114364405316"><ele>459.0</ele><time>2026-04-26T09:02:29Z</time></trkpt><trkpt lat="37.555663582844986" lon="14.010116256977629"><ele>459.0</ele><time>2026-04-26T09:02:30Z</time></trkpt><trkpt lat="37.555765008324045" lon="14.010111482958331"><ele>459.0</ele><time>2026-04-26T09:02:31Z</time></trkpt><trkpt lat="37.55586303623353" lon="14.010104082331551"><ele>459.0</ele><time>2026-04-26T09:02:32Z</time></trkpt><trkpt lat="37.55595740416023" lon="14.010097358185243"><ele>459.0</ele><time>2026-04-26T09:02:33Z</time></trkpt><trkpt lat="37.55605094286764" lon="14.010090568117308"><ele>459.0</ele><time>2026-04-26T09:02:33.999Z</time></trkpt><trkpt lat="37.556148542229884" lon="14.010081540748198"><ele>458.79999999999995</ele><time>2026-04-26T09:02:34.999Z</time></trkpt><trkpt lat="37.55624919757557" lon="14.010080370106966"><ele>458.59999999999997</ele><time>2026-04-26T09:02:35.999Z</time></trkpt><trkpt lat="37.55635626545386" lon="14.010067654366402"><ele>458.4</ele><time>2026-04-26T09:02:36.999Z</time></trkpt><trkpt lat="37.556466732692" lon="14.010056396592567"><ele>458.2</ele><time>2026-04-26T09:02:37.999Z</time></trkpt><trkpt lat="37.5565792199863" lon="14.010043431614635"><ele>458.0</ele><time>2026-04-26T09:02:38.999Z</time></trkpt><trkpt lat="37.55669044185392" lon="14.010030957739891"><ele>458.0</ele><time>2026-04-26T09:02:39.999Z</time></trkpt><trkpt lat="37.55680121979817" lon="14.010020269852474"><ele>457.99999999999994</ele><time>2026-04-26T09:02:40.999Z</time></trkpt><trkpt lat="37.55691263138555" lon="14.01001302637485"><ele>457.99999999999994</ele><time>2026-04-26T09:02:41.999Z</time></trkpt><trkpt lat="37.55702321234426" lon="14.010000848674773"><ele>458.0</ele><time>2026-04-26T09:02:42.999Z</time></trkpt><trkpt lat="37.55713072397406" lon="14.0099864009838"><ele>458.0</ele><time>2026-04-26T09:02:43.999Z</time></trkpt><trkpt lat="37.557236699339754" lon="14.009974431683412"><ele>461.2</ele><time>2026-04-26T09:02:44.999Z</time></trkpt><trkpt lat="37.55733858586573" lon="14.00996609981493"><ele>464.4</ele><time>2026-04-26T09:02:45.999Z</time></trkpt><trkpt lat="37.557438706841246" lon="14.00995543468893"><ele>467.59999999999997</ele><time>2026-04-26T09:02:46.999Z</time></trkpt><trkpt lat="37.55753752128051" lon="14.009943504219718"><ele>470.79999999999995</ele><time>2026-04-26T09:02:47.999Z</time></trkpt><trkpt lat="37.55763585104368" lon="14.009931527989938"><ele>474.0</ele><time>2026-04-26T09:02:48.999Z</time></trkpt><trkpt lat="37.55772912941861" lon="14.009923377813262"><ele>474.0</ele><time>2026-04-26T09:02:49.999Z</time></trkpt><trkpt lat="37.557815927792895" lon="14.009915810387929"><ele>474.0</ele><time>2026-04-26T09:02:50.999Z</time></trkpt><trkpt lat="37.55788574390129" lon="14.009910150280637"><ele>474.0</ele><time>2026-04-26T09:02:51.999Z</time></trkpt><trkpt lat="37.55795497348885" lon="14.009906825713717"><ele>474.0</ele><time>2026-04-26T09:02:56.999Z</time></trkpt><trkpt lat="37.557857590373736" lon="14.009671003574477"><ele>474.0</ele><time>2026-04-26T09:03:00.999Z</time></trkpt><trkpt lat="37.55779594261751" lon="14.009564899649291"><ele>474.0</ele><time>2026-04-26T09:03:01.999Z</time></trkpt><trkpt lat="37.557717005470735" lon="14.009448823658797"><ele>474.0</ele><time>2026-04-26T09:03:02.999Z</time></trkpt><trkpt lat="37.55762536370592" lon="14.009320299834151"><ele>474.0</ele><time>2026-04-26T09:03:03.999Z</time></trkpt><trkpt lat="37.557547840104604" lon="14.009215057312856"><ele>474.0</ele><time>2026-04-26T09:03:04.999Z</time></trkpt><trkpt lat="37.55747584878346" lon="14.00913009334787"><ele>475.0</ele><time>2026-04-26T09:03:05.999Z</time></trkpt><trkpt lat="37.55740624588932" lon="14.009049418698847"><ele>476.0</ele><time>2026-04-26T09:03:06.999Z</time></trkpt><trkpt lat="37.55733719153252" lon="14.008963673068473"><ele>477.0</ele><time>2026-04-26T09:03:07.999Z</time></trkpt><trkpt lat="37.55727461314399" lon="14.008877484725398"><ele>478.0</ele><time>2026-04-26T09:03:08.999Z</time></trkpt><trkpt lat="37.5572371683444" lon="14.008783146915647"><ele>479.0</ele><time>2026-04-26T09:03:09.999Z</time></trkpt><trkpt lat="37.55721833809186" lon="14.008678114658645"><ele>478.99999999999994</ele><time>2026-04-26T09:03:10.999Z</time></trkpt><trkpt lat="37.55720697362315" lon="14.008571764540655"><ele>479.0</ele><time>2026-04-26T09:03:11.999Z</time></trkpt><trkpt lat="37.55721988021976" lon="14.008489347146973"><ele>479.0</ele><time>2026-04-26T09:03:12.999Z</time></trkpt><trkpt lat="37.55731000010368" lon="14.008383383033406"><ele>479.0</ele><time>2026-04-26T09:03:14.999Z</time></trkpt><trkpt lat="37.557343541118115" lon="14.008302869847794"><ele>478.99999999999994</ele><time>2026-04-26T09:03:15.999Z</time></trkpt><trkpt lat="37.55737606660402" lon="14.008226624264685"><ele>479.0</ele><time>2026-04-26T09:03:16.999Z</time></trkpt><trkpt lat="37.55740186083788" lon="14.008138584220665"><ele>480.2</ele><time>2026-04-26T09:03:17.999Z</time></trkpt><trkpt lat="37.55737430634303" lon="14.008024299186726"><ele>481.4</ele><time>2026-04-26T09:03:18.999Z</time></trkpt><trkpt lat="37.557322814366216" lon="14.00791098619084"><ele>482.6</ele><time>2026-04-26T09:03:19.999Z</time></trkpt><trkpt lat="37.55727717817269" lon="14.00779896289109"><ele>483.8</ele><time>2026-04-26T09:03:20.999Z</time></trkpt><trkpt lat="37.55723737593268" lon="14.007697983924466"><ele>485.0</ele><time>2026-04-26T09:03:21.999Z</time></trkpt><trkpt lat="37.55719719731628" lon="14.007596050768758"><ele>484.99999999999994</ele><time>2026-04-26T09:03:22.999Z</time></trkpt><trkpt lat="37.557160973118215" lon="14.007500409407696"><ele>485.0</ele><time>2026-04-26T09:03:23.999Z</time></trkpt><trkpt lat="37.557129958325945" lon="14.00740894333198"><ele>485.0</ele><time>2026-04-26T09:03:24.999Z</time></trkpt><trkpt lat="37.557120960725555" lon="14.007310910983275"><ele>485.0</ele><time>2026-04-26T09:03:25.999Z</time></trkpt><trkpt lat="37.557135392289545" lon="14.007201236656813"><ele>484.99999999999994</ele><time>2026-04-26T09:03:26.999Z</time></trkpt><trkpt lat="37.557156036371076" lon="14.007078340438992"><ele>485.0</ele><time>2026-04-26T09:03:27.999Z</time></trkpt><trkpt lat="37.557186509599276" lon="14.006949491736115"><ele>485.4</ele><time>2026-04-26T09:03:28.999Z</time></trkpt><trkpt lat="37.55722248092491" lon="14.006815925837824"><ele>485.8</ele><time>2026-04-26T09:03:29.999Z</time></trkpt><trkpt lat="37.557265293804726" lon="14.006686616760247"><ele>486.20000000000005</ele><time>2026-04-26T09:03:30.999Z</time></trkpt><trkpt lat="37.55729075587147" lon="14.006566961722871"><ele>486.6</ele><time>2026-04-26T09:03:31.999Z</time></trkpt><trkpt lat="37.55733430994583" lon="14.006455526403215"><ele>487.0</ele><time>2026-04-26T09:03:32.999Z</time></trkpt><trkpt lat="37.55737375599666" lon="14.006342164171967"><ele>485.50000000000006</ele><time>2026-04-26T09:03:33.999Z</time></trkpt><trkpt lat="37.55742919352814" lon="14.006241989638118"><ele>484.0</ele><time>2026-04-26T09:03:34.999Z</time></trkpt><trkpt lat="37.55745720503732" lon="14.006139925466417"><ele>482.5</ele><time>2026-04-26T09:03:35.999Z</time></trkpt><trkpt lat="37.55750306357034" lon="14.006056332372559"><ele>481.0</ele><time>2026-04-26T09:03:36.999Z</time></trkpt><trkpt lat="37.557566161690936" lon="14.005970276994352"><ele>479.50000000000006</ele><time>2026-04-26T09:03:37.999Z</time></trkpt><trkpt lat="37.55763498073657" lon="14.005896779219386"><ele>478.0</ele><time>2026-04-26T09:03:38.999Z</time></trkpt><trkpt lat="37.557697629490214" lon="14.00583186661596"><ele>479.83333333333337</ele><time>2026-04-26T09:03:39.999Z</time></trkpt><trkpt lat="37.557751603492044" lon="14.005769331585956"><ele>481.6666666666667</ele><time>2026-04-26T09:03:40.998Z</time></trkpt><trkpt lat="37.55779793096901" lon="14.005705480696882"><ele>483.5</ele><time>2026-04-26T09:03:41.998Z</time></trkpt><trkpt lat="37.55782589586944" lon="14.005552714487688"><ele>485.33333333333337</ele><time>2026-04-26T09:03:43.998Z</time></trkpt><trkpt lat="37.55780677591393" lon="14.005453806815426"><ele>487.1666666666667</ele><time>2026-04-26T09:03:44.998Z</time></trkpt><trkpt lat="37.55775283596491" lon="14.005360410238927"><ele>489.0</ele><time>2026-04-26T09:03:45.998Z</time></trkpt><trkpt lat="37.557670239338144" lon="14.005271538234812"><ele>489.0</ele><time>2026-04-26T09:03:46.998Z</time></trkpt><trkpt lat="37.55757525412474" lon="14.005194988432457"><ele>489.0</ele><time>2026-04-26T09:03:47.998Z</time></trkpt><trkpt lat="37.557463029153546" lon="14.005136969520802"><ele>489.0</ele><time>2026-04-26T09:03:48.998Z</time></trkpt><trkpt lat="37.55737825445923" lon="14.005088841815072"><ele>489.0</ele><time>2026-04-26T09:03:49.998Z</time></trkpt><trkpt lat="37.55730214327443" lon="14.005035486775189"><ele>489.0</ele><time>2026-04-26T09:03:50.998Z</time></trkpt><trkpt lat="37.55723930694137" lon="14.004960252109191"><ele>490.8333333333333</ele><time>2026-04-26T09:03:51.998Z</time></trkpt><trkpt lat="37.557203097050404" lon="14.004848426897741"><ele>492.66666666666663</ele><time>2026-04-26T09:03:53Z</time></trkpt><trkpt lat="37.55715913106662" lon="14.004760070735879"><ele>494.5</ele><time>2026-04-26T09:03:54Z</time></trkpt><trkpt lat="37.557135680509155" lon="14.004677130430974"><ele>496.3333333333333</ele><time>2026-04-26T09:03:55Z</time></trkpt><trkpt lat="37.557127144368025" lon="14.004589152942255"><ele>498.16666666666663</ele><time>2026-04-26T09:03:56Z</time></trkpt><trkpt lat="37.55713116717192" lon="14.004496322689949"><ele>500.0</ele><time>2026-04-26T09:03:57Z</time></trkpt><trkpt lat="37.55714596331113" lon="14.004391611709966"><ele>499.99999999999994</ele><time>2026-04-26T09:03:58Z</time></trkpt><trkpt lat="37.557132221966555" lon="14.004280781328385"><ele>500.0</ele><time>2026-04-26T09:03:59Z</time></trkpt><trkpt lat="37.55714235278265" lon="14.004173688397351"><ele>500.0</ele><time>2026-04-26T09:04:00Z</time></trkpt><trkpt lat="37.55712853292302" lon="14.00407269337891"><ele>500.0</ele><time>2026-04-26T09:04:01Z</time></trkpt><trkpt lat="37.557118845947656" lon="14.003971975660706"><ele>499.99999999999994</ele><time>2026-04-26T09:04:02Z</time></trkpt><trkpt lat="37.55712266982874" lon="14.003862312971082"><ele>500.0</ele><time>2026-04-26T09:04:03Z</time></trkpt><trkpt lat="37.55715305279438" lon="14.003748024671209"><ele>499.6</ele><time>2026-04-26T09:04:04Z</time></trkpt><trkpt lat="37.55718955480324" lon="14.003616528843684"><ele>499.2</ele><time>2026-04-26T09:04:05Z</time></trkpt><trkpt lat="37.55722355257584" lon="14.00348896250033"><ele>498.79999999999995</ele><time>2026-04-26T09:04:06Z</time></trkpt><trkpt lat="37.55725318452005" lon="14.003383326057918"><ele>498.4</ele><time>2026-04-26T09:04:07Z</time></trkpt><trkpt lat="37.55728162973632" lon="14.003281412939575"><ele>498.0</ele><time>2026-04-26T09:04:08Z</time></trkpt><trkpt lat="37.557346479786894" lon="14.003209115740066"><ele>498.0</ele><time>2026-04-26T09:04:09Z</time></trkpt><trkpt lat="37.5574296284007" lon="14.00315328578564"><ele>498.0</ele><time>2026-04-26T09:04:10Z</time></trkpt><trkpt lat="37.5575039994793" lon="14.003114945836119"><ele>498.0</ele><time>2026-04-26T09:04:11Z</time></trkpt><trkpt lat="37.55756020001102" lon="14.003066954791683"><ele>498.0</ele><time>2026-04-26T09:04:12Z</time></trkpt><trkpt lat="37.55760054496589" lon="14.002995791377986"><ele>498.0</ele><time>2026-04-26T09:04:13Z</time></trkpt><trkpt lat="37.557615567551494" lon="14.002898160787122"><ele>498.0</ele><time>2026-04-26T09:04:14Z</time></trkpt><trkpt lat="37.55759727125634" lon="14.002789203169993"><ele>498.0</ele><time>2026-04-26T09:04:15Z</time></trkpt><trkpt lat="37.55757887844988" lon="14.002670821139821"><ele>497.99999999999994</ele><time>2026-04-26T09:04:16Z</time></trkpt><trkpt lat="37.55755679435514" lon="14.002561575402948"><ele>497.99999999999994</ele><time>2026-04-26T09:04:17Z</time></trkpt><trkpt lat="37.55753293596871" lon="14.002443552557239"><ele>498.0</ele><time>2026-04-26T09:04:18Z</time></trkpt><trkpt lat="37.55759068408955" lon="14.002537005129698"><ele>498.0</ele><time>2026-04-26T09:08:54.999Z</time></trkpt><trkpt lat="37.557636913171834" lon="14.002618532956001"><ele>498.0</ele><time>2026-04-26T09:08:56.999Z</time></trkpt><trkpt lat="37.55772718858731" lon="14.002656293047453"><ele>497.99999999999994</ele><time>2026-04-26T09:08:58.999Z</time></trkpt><trkpt lat="37.557818193744524" lon="14.002673048545576"><ele>497.99999999999994</ele><time>2026-04-26T09:09:00.999Z</time></trkpt><trkpt lat="37.557909218834844" lon="14.002632962889887"><ele>498.0</ele><time>2026-04-26T09:09:02.999Z</time></trkpt><trkpt lat="37.55801659353985" lon="14.00259211175592"><ele>498.0</ele><time>2026-04-26T09:09:04.999Z</time></trkpt><trkpt lat="37.55805046427636" lon="14.002466030413654"><ele>502.25</ele><time>2026-04-26T09:09:05.999Z</time></trkpt><trkpt lat="37.55819352461653" lon="14.002650502095918"><ele>506.5</ele><time>2026-04-26T09:09:07.999Z</time></trkpt><trkpt lat="37.55830997557199" lon="14.002678536964916"><ele>510.75</ele><time>2026-04-26T09:09:09.999Z</time></trkpt><trkpt lat="37.558377428480966" lon="14.002679160575884"><ele>515.0</ele><time>2026-04-26T09:09:10.999Z</time></trkpt><trkpt lat="37.55844207411498" lon="14.00268436577758"><ele>515.0</ele><time>2026-04-26T09:09:11.999Z</time></trkpt><trkpt lat="37.55855600967951" lon="14.002735936836544"><ele>515.0</ele><time>2026-04-26T09:09:13.999Z</time></trkpt><trkpt lat="37.55861238691616" lon="14.002778200305526"><ele>515.0</ele><time>2026-04-26T09:09:14.999Z</time></trkpt><trkpt lat="37.55870848586517" lon="14.002835748701035"><ele>515.0</ele><time>2026-04-26T09:09:16.999Z</time></trkpt><trkpt lat="37.558774575611565" lon="14.002858350363818"><ele>515.0</ele><time>2026-04-26T09:09:19.999Z</time></trkpt><trkpt lat="37.55885990026333" lon="14.002832108875207"><ele>515.0</ele><time>2026-04-26T09:09:22.999Z</time></trkpt><trkpt lat="37.55894264152762" lon="14.002818833116491"><ele>519.75</ele><time>2026-04-26T09:09:48.999Z</time></trkpt><trkpt lat="37.55905834169988" lon="14.002796627203832"><ele>524.5</ele><time>2026-04-26T09:09:50.999Z</time></trkpt><trkpt lat="37.55916839072491" lon="14.002768102441404"><ele>529.25</ele><time>2026-04-26T09:09:52.999Z</time></trkpt><trkpt lat="37.55929131984138" lon="14.002719416548974"><ele>534.0</ele><time>2026-04-26T09:09:54.999Z</time></trkpt><trkpt lat="37.5593948214484" lon="14.002662186365267"><ele>534.0</ele><time>2026-04-26T09:09:56.999Z</time></trkpt><trkpt lat="37.55947464852283" lon="14.002603792237446"><ele>534.0</ele><time>2026-04-26T09:09:58.999Z</time></trkpt><trkpt lat="37.55956031914215" lon="14.002569153649612"><ele>534.0</ele><time>2026-04-26T09:10:00.999Z</time></trkpt><trkpt lat="37.55966121705313" lon="14.002518418894919"><ele>534.0</ele><time>2026-04-26T09:10:02.998Z</time></trkpt><trkpt lat="37.55976591903227" lon="14.002470077265363"><ele>534.0</ele><time>2026-04-26T09:10:04.998Z</time></trkpt><trkpt lat="37.55986489831774" lon="14.002420540335947"><ele>537.4</ele><time>2026-04-26T09:10:06.998Z</time></trkpt><trkpt lat="37.55995783888489" lon="14.002372748664808"><ele>540.8</ele><time>2026-04-26T09:10:08.998Z</time></trkpt><trkpt lat="37.560040969965286" lon="14.002354797536679"><ele>544.2</ele><time>2026-04-26T09:10:11Z</time></trkpt><trkpt lat="37.56011646816431" lon="14.002345896639312"><ele>547.6</ele><time>2026-04-26T09:10:13Z</time></trkpt><trkpt lat="37.560165433980266" lon="14.002425376138378"><ele>551.0</ele><time>2026-04-26T09:10:15Z</time></trkpt><trkpt lat="37.56023166811879" lon="14.002551314190795"><ele>552.2</ele><time>2026-04-26T09:10:17Z</time></trkpt><trkpt lat="37.56027481816253" lon="14.002617412885646"><ele>553.4000000000001</ele><time>2026-04-26T09:10:18Z</time></trkpt><trkpt lat="37.56031347373228" lon="14.002685377550616"><ele>554.6</ele><time>2026-04-26T09:10:19Z</time></trkpt><trkpt lat="37.56037739667696" lon="14.002813834716596"><ele>555.8000000000001</ele><time>2026-04-26T09:10:21Z</time></trkpt><trkpt lat="37.560467981153" lon="14.002909603678287"><ele>557.0</ele><time>2026-04-26T09:10:23Z</time></trkpt><trkpt lat="37.56057423448185" lon="14.002997403759446"><ele>557.0</ele><time>2026-04-26T09:10:25Z</time></trkpt><trkpt lat="37.56063559072636" lon="14.003056029397351"><ele>557.0</ele><time>2026-04-26T09:10:26Z</time></trkpt><trkpt lat="37.56069956540942" lon="14.003124174582577"><ele>557.0</ele><time>2026-04-26T09:10:27Z</time></trkpt><trkpt lat="37.56076744709327" lon="14.003194677162956"><ele>557.0</ele><time>2026-04-26T09:10:28Z</time></trkpt><trkpt lat="37.56084875185813" lon="14.00327047485616"><ele>557.0</ele><time>2026-04-26T09:10:29Z</time></trkpt><trkpt lat="37.560919581268685" lon="14.003345205323159"><ele>557.0</ele><time>2026-04-26T09:10:30Z</time></trkpt><trkpt lat="37.56097661569361" lon="14.003413637987846"><ele>558.7142857142858</ele><time>2026-04-26T09:10:31Z</time></trkpt><trkpt lat="37.561019692900665" lon="14.003489184844797"><ele>560.4285714285714</ele><time>2026-04-26T09:10:32Z</time></trkpt><trkpt lat="37.56106952231305" lon="14.003585014217387"><ele>562.1428571428571</ele><time>2026-04-26T09:10:34Z</time></trkpt><trkpt lat="37.561139916486624" lon="14.003589799435172"><ele>563.8571428571429</ele><time>2026-04-26T09:10:37Z</time></trkpt><trkpt lat="37.56119391811687" lon="14.00365258433375"><ele>565.5714285714286</ele><time>2026-04-26T09:11:05.999Z</time></trkpt><trkpt lat="37.561242314063314" lon="14.003721400128574"><ele>567.2857142857143</ele><time>2026-04-26T09:11:08.999Z</time></trkpt><trkpt lat="37.561291687675194" lon="14.003777670185281"><ele>569.0</ele><time>2026-04-26T09:11:10.999Z</time></trkpt><trkpt lat="37.561362188907545" lon="14.003827640125902"><ele>569.0</ele><time>2026-04-26T09:11:12.999Z</time></trkpt><trkpt lat="37.56144942552911" lon="14.003827407247098"><ele>569.0</ele><time>2026-04-26T09:11:14.999Z</time></trkpt><trkpt lat="37.56153315238892" lon="14.003795760871137"><ele>569.0</ele><time>2026-04-26T09:11:16.999Z</time></trkpt><trkpt lat="37.561592241839534" lon="14.00374973902544"><ele>569.0</ele><time>2026-04-26T09:11:18.999Z</time></trkpt><trkpt lat="37.561659026760545" lon="14.003686348993167"><ele>569.0</ele><time>2026-04-26T09:11:21.999Z</time></trkpt><trkpt lat="37.56172189511268" lon="14.003658619254026"><ele>569.0</ele><time>2026-04-26T09:11:23.999Z</time></trkpt><trkpt lat="37.561794783075854" lon="14.003632072032088"><ele>569.0</ele><time>2026-04-26T09:11:25.999Z</time></trkpt><trkpt lat="37.56187045125381" lon="14.003623219508057"><ele>569.0</ele><time>2026-04-26T09:11:27.999Z</time></trkpt><trkpt lat="37.56194543372188" lon="14.003649591087"><ele>569.0</ele><time>2026-04-26T09:11:29.999Z</time></trkpt><trkpt lat="37.56200055119787" lon="14.003696527373497"><ele>569.0</ele><time>2026-04-26T09:11:31.999Z</time></trkpt><trkpt lat="37.56206599264268" lon="14.003766606735429"><ele>569.0</ele><time>2026-04-26T09:11:33.999Z</time></trkpt><trkpt lat="37.56212367825844" lon="14.003849750572275"><ele>569.0</ele><time>2026-04-26T09:11:35.999Z</time></trkpt><trkpt lat="37.562154919200445" lon="14.003944723759902"><ele>569.6</ele><time>2026-04-26T09:11:37.999Z</time></trkpt><trkpt lat="37.56219313160936" lon="14.004035722948082"><ele>570.2</ele><time>2026-04-26T09:11:39.999Z</time></trkpt><trkpt lat="37.56223407301201" lon="14.004125832481149"><ele>570.8000000000001</ele><time>2026-04-26T09:11:41.999Z</time></trkpt><trkpt lat="37.56230745710123" lon="14.004174547920872"><ele>571.4</ele><time>2026-04-26T09:11:43.999Z</time></trkpt><trkpt lat="37.5623924835407" lon="14.004171383691128"><ele>572.0</ele><time>2026-04-26T09:11:45.999Z</time></trkpt><trkpt lat="37.56250917416268" lon="14.004140105578866"><ele>567.0</ele><time>2026-04-26T09:11:47.999Z</time></trkpt><trkpt lat="37.56260324452702" lon="14.004124587103602"><ele>562.0</ele><time>2026-04-26T09:11:49.999Z</time></trkpt><trkpt lat="37.562710430726355" lon="14.00414147274489"><ele>557.0</ele><time>2026-04-26T09:11:51.999Z</time></trkpt><trkpt lat="37.56282665506583" lon="14.004145483468662"><ele>552.0</ele><time>2026-04-26T09:11:53.999Z</time></trkpt><trkpt lat="37.56292447467457" lon="14.00413470809437"><ele>547.0</ele><time>2026-04-26T09:11:55.999Z</time></trkpt><trkpt lat="37.56302925133325" lon="14.004142769321877"><ele>548.6</ele><time>2026-04-26T09:11:57.999Z</time></trkpt><trkpt lat="37.56314249630988" lon="14.004156720859854"><ele>550.2</ele><time>2026-04-26T09:11:59.999Z</time></trkpt><trkpt lat="37.5632644418351" lon="14.00417634704017"><ele>551.8</ele><time>2026-04-26T09:12:01.999Z</time></trkpt><trkpt lat="37.56332902805755" lon="14.004187850362797"><ele>553.4</ele><time>2026-04-26T09:12:02.999Z</time></trkpt><trkpt lat="37.563393132310765" lon="14.004198366167806"><ele>555.0</ele><time>2026-04-26T09:12:03.999Z</time></trkpt><trkpt lat="37.56351715653478" lon="14.004205916807415"><ele>555.0</ele><time>2026-04-26T09:12:05.998Z</time></trkpt><trkpt lat="37.56363750161678" lon="14.004210405242844"><ele>555.0</ele><time>2026-04-26T09:12:07.998Z</time></trkpt><trkpt lat="37.563698706492254" lon="14.004234052243486"><ele>555.0</ele><time>2026-04-26T09:12:08.998Z</time></trkpt><trkpt lat="37.56375975490512" lon="14.004273550651133"><ele>555.0</ele><time>2026-04-26T09:12:09.998Z</time></trkpt><trkpt lat="37.563824942514906" lon="14.004302416550921"><ele>555.0</ele><time>2026-04-26T09:12:10.998Z</time></trkpt><trkpt lat="37.56389048996483" lon="14.004315353265183"><ele>555.0</ele><time>2026-04-26T09:12:11.998Z</time></trkpt><trkpt lat="37.56395876546953" lon="14.004321584997212"><ele>553.0</ele><time>2026-04-26T09:12:12.998Z</time></trkpt><trkpt lat="37.56402756867539" lon="14.004320009195053"><ele>551.0</ele><time>2026-04-26T09:12:13.998Z</time></trkpt><trkpt lat="37.56413833429875" lon="14.004323781869578"><ele>549.0</ele><time>2026-04-26T09:12:15.998Z</time></trkpt><trkpt lat="37.56423987942595" lon="14.004332632509163"><ele>547.0</ele><time>2026-04-26T09:12:18Z</time></trkpt><trkpt lat="37.564347926493824" lon="14.004338265428352"><ele>545.0</ele><time>2026-04-26T09:12:20Z</time></trkpt><trkpt lat="37.564462692991825" lon="14.004342062995534"><ele>545.75</ele><time>2026-04-26T09:12:22Z</time></trkpt><trkpt lat="37.56456068915028" lon="14.004354348170825"><ele>546.5</ele><time>2026-04-26T09:12:24Z</time></trkpt><trkpt lat="37.564709916135655" lon="14.004364291180146"><ele>547.25</ele><time>2026-04-26T09:12:26Z</time></trkpt><trkpt lat="37.56480543561669" lon="14.0043603312241"><ele>548.0</ele><time>2026-04-26T09:12:28Z</time></trkpt><trkpt lat="37.56492363770621" lon="14.00430691359874"><ele>548.0</ele><time>2026-04-26T09:12:30Z</time></trkpt><trkpt lat="37.5650287317787" lon="14.00426497138086"><ele>548.0</ele><time>2026-04-26T09:12:32Z</time></trkpt><trkpt lat="37.565129096604196" lon="14.004257824702599"><ele>548.0</ele><time>2026-04-26T09:12:34Z</time></trkpt><trkpt lat="37.56522807937423" lon="14.00426210205997"><ele>548.0</ele><time>2026-04-26T09:12:36Z</time></trkpt><trkpt lat="37.5653238448509" lon="14.004250655808207"><ele>548.0</ele><time>2026-04-26T09:12:38Z</time></trkpt><trkpt lat="37.56538979613881" lon="14.004272268813034"><ele>549.0</ele><time>2026-04-26T09:12:39Z</time></trkpt><trkpt lat="37.56547593753671" lon="14.004256450501334"><ele>550.0</ele><time>2026-04-26T09:12:40Z</time></trkpt><trkpt lat="37.56554761161103" lon="14.004231855596895"><ele>551.0</ele><time>2026-04-26T09:12:41Z</time></trkpt><trkpt lat="37.56564605819207" lon="14.00417070758854"><ele>552.0</ele><time>2026-04-26T09:12:43Z</time></trkpt><trkpt lat="37.5657146781765" lon="14.004164821955616"><ele>553.0</ele><time>2026-04-26T09:12:44Z</time></trkpt><trkpt lat="37.56584271337379" lon="14.00411208691564"><ele>553.0</ele><time>2026-04-26T09:12:46Z</time></trkpt><trkpt lat="37.56591520498417" lon="14.004081632156046"><ele>553.0</ele><time>2026-04-26T09:12:47Z</time></trkpt><trkpt lat="37.56598577196281" lon="14.004074969475464"><ele>553.0</ele><time>2026-04-26T09:12:48Z</time></trkpt><trkpt lat="37.566050059661755" lon="14.004060563757927"><ele>553.0</ele><time>2026-04-26T09:12:49Z</time></trkpt><trkpt lat="37.566112942546255" lon="14.004049588342399"><ele>553.0</ele><time>2026-04-26T09:12:50Z</time></trkpt><trkpt lat="37.5661819598069" lon="14.004038940066751"><ele>553.0</ele><time>2026-04-26T09:12:51Z</time></trkpt><trkpt lat="37.56629635763917" lon="14.004021408341837"><ele>554.1666666666667</ele><time>2026-04-26T09:12:53Z</time></trkpt><trkpt lat="37.566340815981675" lon="14.00408093135296"><ele>555.3333333333334</ele><time>2026-04-26T09:14:09.999Z</time></trkpt><trkpt lat="37.566409221017935" lon="14.004122337210013"><ele>556.5</ele><time>2026-04-26T09:14:16.999Z</time></trkpt><trkpt lat="37.56647768078194" lon="14.004181248270967"><ele>557.6666666666666</ele><time>2026-04-26T09:14:18.998Z</time></trkpt><trkpt lat="37.56654763536746" lon="14.004254851663745"><ele>558.8333333333333</ele><time>2026-04-26T09:14:20.998Z</time></trkpt><trkpt lat="37.56662566260433" lon="14.004351526796357"><ele>560.0</ele><time>2026-04-26T09:14:23Z</time></trkpt><trkpt lat="37.56670069981753" lon="14.004452466975621"><ele>563.8</ele><time>2026-04-26T09:14:25Z</time></trkpt><trkpt lat="37.56678002841793" lon="14.004525622434635"><ele>567.6</ele><time>2026-04-26T09:14:27Z</time></trkpt><trkpt lat="37.56686823298207" lon="14.004554864426948"><ele>571.4</ele><time>2026-04-26T09:14:29Z</time></trkpt><trkpt lat="37.56696510508791" lon="14.004557446269876"><ele>575.2</ele><time>2026-04-26T09:14:31Z</time></trkpt><trkpt lat="37.56706928438267" lon="14.004572043577522"><ele>579.0</ele><time>2026-04-26T09:14:33Z</time></trkpt><trkpt lat="37.56719238823198" lon="14.004557614557381"><ele>580.0</ele><time>2026-04-26T09:14:35Z</time></trkpt><trkpt lat="37.56725370414589" lon="14.004533174631916"><ele>581.0</ele><time>2026-04-26T09:14:36Z</time></trkpt><trkpt lat="37.567374839787334" lon="14.004495513368115"><ele>582.0</ele><time>2026-04-26T09:14:38Z</time></trkpt><trkpt lat="37.56743721263973" lon="14.004481935086066"><ele>583.0</ele><time>2026-04-26T09:14:39Z</time></trkpt><trkpt lat="37.567540786916695" lon="14.004483098506546"><ele>584.0</ele><time>2026-04-26T09:14:41Z</time></trkpt><trkpt lat="37.56760280016579" lon="14.004506325410906"><ele>585.0</ele><time>2026-04-26T09:14:43Z</time></trkpt><trkpt lat="37.56766107280428" lon="14.004536964059723"><ele>585.0</ele><time>2026-04-26T09:14:47Z</time></trkpt><trkpt lat="37.5677237756246" lon="14.004561633622261"><ele>585.0</ele><time>2026-04-26T09:14:50Z</time></trkpt><trkpt lat="37.567801679058405" lon="14.004591319696262"><ele>585.0</ele><time>2026-04-26T09:14:53Z</time></trkpt><trkpt lat="37.56787850907665" lon="14.004606324238406"><ele>585.0</ele><time>2026-04-26T09:14:56Z</time></trkpt><trkpt lat="37.56794410241461" lon="14.004613449793716"><ele>585.0</ele><time>2026-04-26T09:14:58Z</time></trkpt><trkpt lat="37.56800771451894" lon="14.004608136216543"><ele>585.0</ele><time>2026-04-26T09:15:05Z</time></trkpt><trkpt lat="37.56807082708518" lon="14.004620871222066"><ele>585.0</ele><time>2026-04-26T09:15:09Z</time></trkpt><trkpt lat="37.568133550540736" lon="14.004649963847102"><ele>583.6</ele><time>2026-04-26T09:15:12Z</time></trkpt><trkpt lat="37.568207964549764" lon="14.004685411894082"><ele>582.2</ele><time>2026-04-26T09:15:14.999Z</time></trkpt><trkpt lat="37.568310504613834" lon="14.004709862816666"><ele>580.8</ele><time>2026-04-26T09:15:16.999Z</time></trkpt><trkpt lat="37.56837964502329" lon="14.00471203990609"><ele>579.4</ele><time>2026-04-26T09:15:18.999Z</time></trkpt><trkpt lat="37.56847592128918" lon="14.00471493490862"><ele>578.0</ele><time>2026-04-26T09:15:20.999Z</time></trkpt><trkpt lat="37.568599083587266" lon="14.00470464008174"><ele>578.0</ele><time>2026-04-26T09:15:22.999Z</time></trkpt><trkpt lat="37.568669461447435" lon="14.00469512037157"><ele>578.0</ele><time>2026-04-26T09:15:23.999Z</time></trkpt><trkpt lat="37.56873333601175" lon="14.004679183217615"><ele>578.0</ele><time>2026-04-26T09:15:24.999Z</time></trkpt><trkpt lat="37.568801228814785" lon="14.004687621407475"><ele>578.0</ele><time>2026-04-26T09:15:25.999Z</time></trkpt><trkpt lat="37.56886751431145" lon="14.004678189821506"><ele>578.0</ele><time>2026-04-26T09:15:26.999Z</time></trkpt><trkpt lat="37.56897883959608" lon="14.00467858170484"><ele>578.0</ele><time>2026-04-26T09:15:28.999Z</time></trkpt><trkpt lat="37.56908688048521" lon="14.004669441750366"><ele>577.5</ele><time>2026-04-26T09:15:30.999Z</time></trkpt><trkpt lat="37.569188106303685" lon="14.004690131436968"><ele>577.0</ele><time>2026-04-26T09:15:32.999Z</time></trkpt><trkpt lat="37.56926474089154" lon="14.004694769043184"><ele>576.5</ele><time>2026-04-26T09:15:34.999Z</time></trkpt><trkpt lat="37.56934847805976" lon="14.00471252970428"><ele>576.0</ele><time>2026-04-26T09:15:36.999Z</time></trkpt><trkpt lat="37.56942523206492" lon="14.004772603781674"><ele>575.5</ele><time>2026-04-26T09:15:38.999Z</time></trkpt><trkpt lat="37.569488083024886" lon="14.004849397351151"><ele>575.0</ele><time>2026-04-26T09:15:40.999Z</time></trkpt><trkpt lat="37.569553016772055" lon="14.004934717728057"><ele>578.0</ele><time>2026-04-26T09:15:42.999Z</time></trkpt><trkpt lat="37.56961365368853" lon="14.005026409123866"><ele>581.0</ele><time>2026-04-26T09:15:44.999Z</time></trkpt><trkpt lat="37.56968887256012" lon="14.005138922972344"><ele>584.0</ele><time>2026-04-26T09:15:46.999Z</time></trkpt><trkpt lat="37.56973984686488" lon="14.005238421057879"><ele>587.0</ele><time>2026-04-26T09:15:48.999Z</time></trkpt><trkpt lat="37.56977476959173" lon="14.005308276012892"><ele>590.0</ele><time>2026-04-26T09:15:50.999Z</time></trkpt><trkpt lat="37.56974242774225" lon="14.005416429987086"><ele>590.0</ele><time>2026-04-26T09:15:53.999Z</time></trkpt><trkpt lat="37.569716997067545" lon="14.005516181117741"><ele>590.0</ele><time>2026-04-26T09:15:55.999Z</time></trkpt><trkpt lat="37.569752876235206" lon="14.0056266799561"><ele>590.0</ele><time>2026-04-26T09:15:57.999Z</time></trkpt><trkpt lat="37.5698176610479" lon="14.005742492162616"><ele>590.0</ele><time>2026-04-26T09:15:59.999Z</time></trkpt><trkpt lat="37.56982765158757" lon="14.005885366638863"><ele>590.0</ele><time>2026-04-26T09:16:01.999Z</time></trkpt><trkpt lat="37.56983597106535" lon="14.005983470323017"><ele>593.2</ele><time>2026-04-26T09:16:03.999Z</time></trkpt><trkpt lat="37.56985296674787" lon="14.006076119309975"><ele>596.4</ele><time>2026-04-26T09:16:06.999Z</time></trkpt><trkpt lat="37.56990822416235" lon="14.006145790848652"><ele>599.6</ele><time>2026-04-26T09:16:07.999Z</time></trkpt><trkpt lat="37.570013558056075" lon="14.00619922848171"><ele>602.8</ele><time>2026-04-26T09:16:09.999Z</time></trkpt><trkpt lat="37.570118828830665" lon="14.00624294365185"><ele>606.0</ele><time>2026-04-26T09:16:11.999Z</time></trkpt><trkpt lat="37.57023290558422" lon="14.00627474849466"><ele>606.0</ele><time>2026-04-26T09:16:13.999Z</time></trkpt><trkpt lat="37.57031256309467" lon="14.006314219816494"><ele>606.0</ele><time>2026-04-26T09:16:15.999Z</time></trkpt><trkpt lat="37.570416327927" lon="14.00634876368019"><ele>606.0</ele><time>2026-04-26T09:16:17.999Z</time></trkpt><trkpt lat="37.57051437561657" lon="14.006367781608908"><ele>606.0</ele><time>2026-04-26T09:16:19.999Z</time></trkpt><trkpt lat="37.570622981666105" lon="14.006344689686538"><ele>606.0</ele><time>2026-04-26T09:16:21.999Z</time></trkpt><trkpt lat="37.57073434383481" lon="14.006372800399571"><ele>604.6666666666666</ele><time>2026-04-26T09:16:23.999Z</time></trkpt><trkpt lat="37.57084197379604" lon="14.006428473210965"><ele>603.3333333333334</ele><time>2026-04-26T09:16:25.999Z</time></trkpt><trkpt lat="37.5709483597596" lon="14.006515020769763"><ele>602.0</ele><time>2026-04-26T09:16:27.998Z</time></trkpt><trkpt lat="37.57100085218977" lon="14.006560297022633"><ele>600.6666666666667</ele><time>2026-04-26T09:16:29Z</time></trkpt><trkpt lat="37.57105910586174" lon="14.006601242820931"><ele>599.3333333333334</ele><time>2026-04-26T09:16:30Z</time></trkpt><trkpt lat="37.57112147730027" lon="14.00664272988079"><ele>598.0</ele><time>2026-04-26T09:16:31Z</time></trkpt><trkpt lat="37.57122791519374" lon="14.006710763983333"><ele>602.0</ele><time>2026-04-26T09:16:33Z</time></trkpt><trkpt lat="37.57132501892701" lon="14.00675817085354"><ele>606.0</ele><time>2026-04-26T09:16:35Z</time></trkpt><trkpt lat="37.57139960337937" lon="14.006839291823933"><ele>610.0</ele><time>2026-04-26T09:16:37Z</time></trkpt><trkpt lat="37.57147594942932" lon="14.00696033189982"><ele>614.0</ele><time>2026-04-26T09:16:39Z</time></trkpt><trkpt lat="37.57149318937853" lon="14.007042862210481"><ele>618.0</ele><time>2026-04-26T09:16:40Z</time></trkpt><trkpt lat="37.5715245996147" lon="14.007116556044506"><ele>618.0</ele><time>2026-04-26T09:16:41Z</time></trkpt><trkpt lat="37.571572733248864" lon="14.00725250167786"><ele>618.0</ele><time>2026-04-26T09:16:43Z</time></trkpt><trkpt lat="37.571623633807455" lon="14.00736145810655"><ele>618.0</ele><time>2026-04-26T09:16:45Z</time></trkpt><trkpt lat="37.57165986346655" lon="14.007460401740746"><ele>618.0</ele><time>2026-04-26T09:16:47Z</time></trkpt><trkpt lat="37.571696347785355" lon="14.0075491823727"><ele>618.0</ele><time>2026-04-26T09:16:50Z</time></trkpt><trkpt lat="37.57174091510921" lon="14.00767188324002"><ele>620.4</ele><time>2026-04-26T09:16:51Z</time></trkpt><trkpt lat="37.57180120958045" lon="14.007758268855353"><ele>622.8</ele><time>2026-04-26T09:16:53Z</time></trkpt><trkpt lat="37.57187935053946" lon="14.007837072042676"><ele>625.2</ele><time>2026-04-26T09:16:55Z</time></trkpt><trkpt lat="37.571981740239636" lon="14.007911870092421"><ele>627.6</ele><time>2026-04-26T09:16:57Z</time></trkpt><trkpt lat="37.57207785153594" lon="14.007991011104512"><ele>630.0</ele><time>2026-04-26T09:16:59Z</time></trkpt><trkpt lat="37.572169549020416" lon="14.008069880663113"><ele>630.0</ele><time>2026-04-26T09:17:01Z</time></trkpt><trkpt lat="37.572268614956016" lon="14.00811868554814"><ele>630.0</ele><time>2026-04-26T09:17:03Z</time></trkpt><trkpt lat="37.57234978569516" lon="14.008182524097165"><ele>630.0</ele><time>2026-04-26T09:17:05Z</time></trkpt><trkpt lat="37.57239181098572" lon="14.00826847397172"><ele>630.0</ele><time>2026-04-26T09:17:07Z</time></trkpt><trkpt lat="37.572403549992806" lon="14.008395980633681"><ele>630.0</ele><time>2026-04-26T09:17:10Z</time></trkpt><trkpt lat="37.572430972620104" lon="14.008483440685906"><ele>633.0</ele><time>2026-04-26T09:17:12Z</time></trkpt><trkpt lat="37.57248771253657" lon="14.008534601179635"><ele>636.0</ele><time>2026-04-26T09:17:14Z</time></trkpt><trkpt lat="37.572546926762364" lon="14.008687178701889"><ele>639.0</ele><time>2026-04-26T09:17:16Z</time></trkpt><trkpt lat="37.57257037378404" lon="14.00880332524089"><ele>642.0</ele><time>2026-04-26T09:17:18Z</time></trkpt><trkpt lat="37.572588843956574" lon="14.008935239286151"><ele>645.0</ele><time>2026-04-26T09:17:20Z</time></trkpt><trkpt lat="37.57260248800058" lon="14.009063844776788"><ele>649.0</ele><time>2026-04-26T09:17:21.999Z</time></trkpt><trkpt lat="37.57261332968343" lon="14.009207071852826"><ele>653.0</ele><time>2026-04-26T09:17:23.999Z</time></trkpt><trkpt lat="37.57262520436652" lon="14.009336074316804"><ele>657.0</ele><time>2026-04-26T09:17:25.999Z</time></trkpt><trkpt lat="37.57264819198255" lon="14.009473059859229"><ele>661.0</ele><time>2026-04-26T09:17:27.999Z</time></trkpt><trkpt lat="37.572687171904214" lon="14.009622803975413"><ele>661.0</ele><time>2026-04-26T09:17:29.999Z</time></trkpt><trkpt lat="37.57273408280237" lon="14.009764156505739"><ele>661.0</ele><time>2026-04-26T09:17:31.999Z</time></trkpt><trkpt lat="37.57277477230953" lon="14.00990217071315"><ele>661.0</ele><time>2026-04-26T09:17:33.999Z</time></trkpt><trkpt lat="37.572821031351694" lon="14.010030367887998"><ele>661.0</ele><time>2026-04-26T09:17:35.999Z</time></trkpt><trkpt lat="37.572839232344855" lon="14.010117329987342"><ele>661.0</ele><time>2026-04-26T09:17:36.999Z</time></trkpt><trkpt lat="37.57285535911287" lon="14.010203561759946"><ele>663.0</ele><time>2026-04-26T09:17:37.999Z</time></trkpt><trkpt lat="37.57288767227554" lon="14.010355792876556"><ele>665.0</ele><time>2026-04-26T09:17:39.999Z</time></trkpt><trkpt lat="37.57292292540185" lon="14.010493307250547"><ele>667.0</ele><time>2026-04-26T09:17:41.999Z</time></trkpt><trkpt lat="37.57294351040897" lon="14.010624903602974"><ele>669.0</ele><time>2026-04-26T09:17:43.999Z</time></trkpt><trkpt lat="37.572947673545" lon="14.010759204249078"><ele>670.6</ele><time>2026-04-26T09:17:45.999Z</time></trkpt><trkpt lat="37.572934040879474" lon="14.010867273629259"><ele>672.2</ele><time>2026-04-26T09:17:47.999Z</time></trkpt><trkpt lat="37.572897822104515" lon="14.010993806127845"><ele>673.8000000000001</ele><time>2026-04-26T09:17:49.999Z</time></trkpt><trkpt lat="37.572871482833186" lon="14.011082273073615"><ele>675.4000000000001</ele><time>2026-04-26T09:17:55.999Z</time></trkpt><trkpt lat="37.57283212004315" lon="14.011178476822755"><ele>677.0</ele><time>2026-04-26T09:17:57.999Z</time></trkpt><trkpt lat="37.572797763297984" lon="14.011308003589216"><ele>677.75</ele><time>2026-04-26T09:17:59.999Z</time></trkpt><trkpt lat="37.572765496048" lon="14.011442857858656"><ele>678.5</ele><time>2026-04-26T09:18:01.999Z</time></trkpt><trkpt lat="37.57274013681832" lon="14.011588574817015"><ele>679.25</ele><time>2026-04-26T09:18:03.999Z</time></trkpt><trkpt lat="37.57274930214818" lon="14.011725988809872"><ele>680.0</ele><time>2026-04-26T09:18:05.999Z</time></trkpt><trkpt lat="37.57278205511101" lon="14.011871627745187"><ele>678.4</ele><time>2026-04-26T09:18:07.999Z</time></trkpt><trkpt lat="37.572797938648485" lon="14.012031568468164"><ele>676.8</ele><time>2026-04-26T09:18:09.999Z</time></trkpt><trkpt lat="37.57280481277456" lon="14.012120893390447"><ele>675.2</ele><time>2026-04-26T09:18:10.999Z</time></trkpt><trkpt lat="37.5728052327614" lon="14.012205398580225"><ele>673.6</ele><time>2026-04-26T09:18:11.999Z</time></trkpt><trkpt lat="37.5728021394209" lon="14.012357125088704"><ele>672.0</ele><time>2026-04-26T09:18:13.999Z</time></trkpt><trkpt lat="37.572807129804325" lon="14.012504643402748"><ele>671.1666666666666</ele><time>2026-04-26T09:18:15.999Z</time></trkpt><trkpt lat="37.572818834578996" lon="14.01264578438099"><ele>670.3333333333334</ele><time>2026-04-26T09:18:17.999Z</time></trkpt><trkpt lat="37.57284540554411" lon="14.012789542791545"><ele>669.5</ele><time>2026-04-26T09:18:19.999Z</time></trkpt><trkpt lat="37.57287375657391" lon="14.01287401196277"><ele>668.6666666666667</ele><time>2026-04-26T09:18:20.999Z</time></trkpt><trkpt lat="37.57290321146173" lon="14.012955063460703"><ele>667.8333333333334</ele><time>2026-04-26T09:18:21.999Z</time></trkpt><trkpt lat="37.57293221377171" lon="14.013036997024829"><ele>667.0</ele><time>2026-04-26T09:18:22.999Z</time></trkpt><trkpt lat="37.57295835098778" lon="14.013125607655423"><ele>668.0</ele><time>2026-04-26T09:18:23.999Z</time></trkpt><trkpt lat="37.57298145807564" lon="14.013215689373848"><ele>669.0</ele><time>2026-04-26T09:18:24.999Z</time></trkpt><trkpt lat="37.57300233674058" lon="14.013300944386346"><ele>670.0</ele><time>2026-04-26T09:18:25.999Z</time></trkpt><trkpt lat="37.57302518612177" lon="14.013396541281153"><ele>671.0</ele><time>2026-04-26T09:18:26.999Z</time></trkpt><trkpt lat="37.57304783341189" lon="14.013503292724472"><ele>672.0</ele><time>2026-04-26T09:18:27.999Z</time></trkpt><trkpt lat="37.573065785683255" lon="14.013601715248102"><ele>673.0</ele><time>2026-04-26T09:18:28.999Z</time></trkpt><trkpt lat="37.5730576581637" lon="14.013699275778787"><ele>673.0</ele><time>2026-04-26T09:18:29.999Z</time></trkpt><trkpt lat="37.57308087546923" lon="14.013794477023445"><ele>673.0</ele><time>2026-04-26T09:18:30.999Z</time></trkpt><trkpt lat="37.57308296269532" lon="14.013889956380368"><ele>673.0</ele><time>2026-04-26T09:18:31.999Z</time></trkpt><trkpt lat="37.573089927320744" lon="14.013992075647433"><ele>673.0</ele><time>2026-04-26T09:18:32.999Z</time></trkpt><trkpt lat="37.573072443016535" lon="14.014097168199513"><ele>673.0</ele><time>2026-04-26T09:18:33.999Z</time></trkpt><trkpt lat="37.573061494264074" lon="14.014207860617708"><ele>673.0</ele><time>2026-04-26T09:18:35Z</time></trkpt><trkpt lat="37.573052120492996" lon="14.01432484445903"><ele>672.5</ele><time>2026-04-26T09:18:36Z</time></trkpt><trkpt lat="37.57306462002808" lon="14.01442546679723"><ele>672.0</ele><time>2026-04-26T09:18:37Z</time></trkpt><trkpt lat="37.57306459720177" lon="14.014511576848397"><ele>671.5</ele><time>2026-04-26T09:18:38Z</time></trkpt><trkpt lat="37.57306394418067" lon="14.014613242207737"><ele>671.0</ele><time>2026-04-26T09:18:39Z</time></trkpt><trkpt lat="37.57306259016097" lon="14.014711137182513"><ele>670.5</ele><time>2026-04-26T09:18:40Z</time></trkpt><trkpt lat="37.57306342414069" lon="14.014808858114527"><ele>670.0</ele><time>2026-04-26T09:18:41Z</time></trkpt><trkpt lat="37.573073177380024" lon="14.01491539759772"><ele>669.3333333333334</ele><time>2026-04-26T09:18:42Z</time></trkpt><trkpt lat="37.573101901048915" lon="14.015025052514122"><ele>668.6666666666667</ele><time>2026-04-26T09:18:43Z</time></trkpt><trkpt lat="37.57313181604557" lon="14.015127591078594"><ele>668.0</ele><time>2026-04-26T09:18:44Z</time></trkpt><trkpt lat="37.57315827351301" lon="14.015226323479558"><ele>667.3333333333334</ele><time>2026-04-26T09:18:45Z</time></trkpt><trkpt lat="37.57317853864226" lon="14.0153178721887"><ele>666.6666666666666</ele><time>2026-04-26T09:18:46Z</time></trkpt><trkpt lat="37.573207921432235" lon="14.015403742369436"><ele>666.0</ele><time>2026-04-26T09:18:47Z</time></trkpt><trkpt lat="37.57324183477445" lon="14.015484775977981"><ele>666.0</ele><time>2026-04-26T09:18:48Z</time></trkpt><trkpt lat="37.5732821851832" lon="14.015618625089196"><ele>666.0</ele><time>2026-04-26T09:18:50Z</time></trkpt><trkpt lat="37.573316805643" lon="14.015686403158377"><ele>666.0</ele><time>2026-04-26T09:18:51Z</time></trkpt><trkpt lat="37.57331951940194" lon="14.015776799519859"><ele>666.0</ele><time>2026-04-26T09:18:52Z</time></trkpt><trkpt lat="37.57330934436261" lon="14.015859341809197"><ele>666.0</ele><time>2026-04-26T09:18:53Z</time></trkpt><trkpt lat="37.57329449566724" lon="14.016019892619823"><ele>666.0</ele><time>2026-04-26T09:18:55Z</time></trkpt><trkpt lat="37.5732922444715" lon="14.016100739435986"><ele>665.0</ele><time>2026-04-26T09:18:56Z</time></trkpt><trkpt lat="37.57330241579823" lon="14.01619851789961"><ele>664.0</ele><time>2026-04-26T09:18:57Z</time></trkpt><trkpt lat="37.57332396916728" lon="14.016301873866032"><ele>663.0</ele><time>2026-04-26T09:18:58Z</time></trkpt><trkpt lat="37.57334152118903" lon="14.016388859591341"><ele>662.0</ele><time>2026-04-26T09:18:59Z</time></trkpt><trkpt lat="37.5733595165009" lon="14.0164829808409"><ele>661.0</ele><time>2026-04-26T09:19:00Z</time></trkpt><trkpt lat="37.57338358014809" lon="14.016577899300847"><ele>660.0</ele><time>2026-04-26T09:19:01Z</time></trkpt><trkpt lat="37.573414289424626" lon="14.016662457421898"><ele>658.6666666666666</ele><time>2026-04-26T09:19:02Z</time></trkpt><trkpt lat="37.5734510567072" lon="14.016747977514045"><ele>657.3333333333334</ele><time>2026-04-26T09:19:03Z</time></trkpt><trkpt lat="37.57349710757779" lon="14.016834240601172"><ele>656.0</ele><time>2026-04-26T09:19:04Z</time></trkpt><trkpt lat="37.5735506634918" lon="14.016920710874086"><ele>654.6666666666667</ele><time>2026-04-26T09:19:05Z</time></trkpt><trkpt lat="37.57359919499171" lon="14.016998158733168"><ele>653.3333333333334</ele><time>2026-04-26T09:19:06Z</time></trkpt><trkpt lat="37.57366178442176" lon="14.017069769225376"><ele>652.0</ele><time>2026-04-26T09:19:07Z</time></trkpt><trkpt lat="37.573708392427896" lon="14.017135413483976"><ele>653.3333333333334</ele><time>2026-04-26T09:19:08Z</time></trkpt><trkpt lat="37.57374834928987" lon="14.017202339827827"><ele>654.6666666666667</ele><time>2026-04-26T09:19:09Z</time></trkpt><trkpt lat="37.5737377034975" lon="14.017299519333925"><ele>656.0</ele><time>2026-04-26T09:19:10Z</time></trkpt><trkpt lat="37.573747403419866" lon="14.017410968301029"><ele>657.3333333333334</ele><time>2026-04-26T09:19:11Z</time></trkpt><trkpt lat="37.573764207531205" lon="14.017534077825584"><ele>658.6666666666666</ele><time>2026-04-26T09:19:12Z</time></trkpt><trkpt lat="37.573765630785495" lon="14.017663788849498"><ele>660.0</ele><time>2026-04-26T09:19:13Z</time></trkpt><trkpt lat="37.57377999502719" lon="14.017787361575753"><ele>660.0</ele><time>2026-04-26T09:19:14Z</time></trkpt><trkpt lat="37.5737877241864" lon="14.017905994835491"><ele>660.0</ele><time>2026-04-26T09:19:15Z</time></trkpt><trkpt lat="37.573797568485496" lon="14.01801485048722"><ele>660.0</ele><time>2026-04-26T09:19:16Z</time></trkpt><trkpt lat="37.57380066552848" lon="14.018119242763113"><ele>660.0</ele><time>2026-04-26T09:19:17Z</time></trkpt><trkpt lat="37.573807025939644" lon="14.018232505693787"><ele>660.0</ele><time>2026-04-26T09:19:18Z</time></trkpt><trkpt lat="37.57380861642741" lon="14.018335417310015"><ele>660.0</ele><time>2026-04-26T09:19:19Z</time></trkpt><trkpt lat="37.573803819583254" lon="14.018439643688877"><ele>659.1666666666666</ele><time>2026-04-26T09:19:20Z</time></trkpt><trkpt lat="37.573808979414494" lon="14.018546771471382"><ele>658.3333333333334</ele><time>2026-04-26T09:19:21Z</time></trkpt><trkpt lat="37.573821628745286" lon="14.018648165924793"><ele>657.5</ele><time>2026-04-26T09:19:22Z</time></trkpt><trkpt lat="37.573838368440434" lon="14.01874699221063"><ele>656.6666666666667</ele><time>2026-04-26T09:19:23Z</time></trkpt><trkpt lat="37.573857013261104" lon="14.018840016952158"><ele>655.8333333333334</ele><time>2026-04-26T09:19:24Z</time></trkpt><trkpt lat="37.57388074589765" lon="14.01892996350622"><ele>655.0</ele><time>2026-04-26T09:19:25Z</time></trkpt><trkpt lat="37.573903768779765" lon="14.01903130992006"><ele>655.0</ele><time>2026-04-26T09:19:26Z</time></trkpt><trkpt lat="37.57393302581559" lon="14.019133946566075"><ele>655.0</ele><time>2026-04-26T09:19:26.999Z</time></trkpt><trkpt lat="37.573966189918806" lon="14.01923371740788"><ele>655.0</ele><time>2026-04-26T09:19:27.999Z</time></trkpt><trkpt lat="37.573991643596884" lon="14.019327984658775"><ele>655.0</ele><time>2026-04-26T09:19:28.999Z</time></trkpt><trkpt lat="37.57401451827762" lon="14.019423980153961"><ele>655.0</ele><time>2026-04-26T09:19:29.999Z</time></trkpt><trkpt lat="37.57404173413951" lon="14.01953902987247"><ele>655.0</ele><time>2026-04-26T09:19:30.999Z</time></trkpt><trkpt lat="37.574057260561894" lon="14.019680098942075"><ele>653.2</ele><time>2026-04-26T09:19:31.999Z</time></trkpt><trkpt lat="37.57408094111575" lon="14.01981263890748"><ele>651.4</ele><time>2026-04-26T09:19:32.999Z</time></trkpt><trkpt lat="37.574102868574336" lon="14.01993389421349"><ele>649.5999999999999</ele><time>2026-04-26T09:19:33.999Z</time></trkpt><trkpt lat="37.57412404417782" lon="14.020045116759633"><ele>647.8</ele><time>2026-04-26T09:19:34.999Z</time></trkpt><trkpt lat="37.574166099535" lon="14.020142425820842"><ele>646.0</ele><time>2026-04-26T09:19:35.999Z</time></trkpt><trkpt lat="37.574166884195186" lon="14.020235575916839"><ele>644.8571428571429</ele><time>2026-04-26T09:19:36.999Z</time></trkpt><trkpt lat="37.57415369912207" lon="14.020320268324248"><ele>643.7142857142858</ele><time>2026-04-26T09:19:37.999Z</time></trkpt><trkpt lat="37.57413232770395" lon="14.020398683057826"><ele>642.5714285714287</ele><time>2026-04-26T09:19:38.999Z</time></trkpt><trkpt lat="37.57412052248044" lon="14.020480404596302"><ele>641.4285714285714</ele><time>2026-04-26T09:19:39.999Z</time></trkpt><trkpt lat="37.5741170182393" lon="14.020573726752575"><ele>640.2857142857142</ele><time>2026-04-26T09:19:40.999Z</time></trkpt><trkpt lat="37.574110567498415" lon="14.020668380436492"><ele>639.1428571428572</ele><time>2026-04-26T09:19:41.999Z</time></trkpt><trkpt lat="37.57412604195513" lon="14.020757429703623"><ele>638.0</ele><time>2026-04-26T09:19:42.999Z</time></trkpt><trkpt lat="37.574155399724816" lon="14.020843035395632"><ele>636.4</ele><time>2026-04-26T09:19:43.999Z</time></trkpt><trkpt lat="37.57418338069543" lon="14.02092028381136"><ele>634.8</ele><time>2026-04-26T09:19:44.999Z</time></trkpt><trkpt lat="37.57423005740322" lon="14.021053294264924"><ele>633.2</ele><time>2026-04-26T09:19:46.999Z</time></trkpt><trkpt lat="37.57426475913114" lon="14.021177327561682"><ele>631.6</ele><time>2026-04-26T09:19:48.999Z</time></trkpt><trkpt lat="37.5743053085154" lon="14.021310189319586"><ele>630.0</ele><time>2026-04-26T09:19:50.999Z</time></trkpt><trkpt lat="37.5743370166716" lon="14.021462287624928"><ele>630.0</ele><time>2026-04-26T09:19:52.999Z</time></trkpt><trkpt lat="37.57439047238745" lon="14.02157258645048"><ele>630.0</ele><time>2026-04-26T09:19:54.999Z</time></trkpt><trkpt lat="37.57444959652802" lon="14.021637997325506"><ele>630.0</ele><time>2026-04-26T09:19:56.999Z</time></trkpt><trkpt lat="37.57450017951087" lon="14.021690885198227"><ele>630.0</ele><time>2026-04-26T09:19:58.999Z</time></trkpt><trkpt lat="37.574553920634884" lon="14.021805685106514"><ele>630.0</ele><time>2026-04-26T09:20:00.999Z</time></trkpt><trkpt lat="37.57456544626961" lon="14.021891231385673"><ele>630.0</ele><time>2026-04-26T09:20:01.999Z</time></trkpt><trkpt lat="37.57456908373594" lon="14.021988524439093"><ele>631.3333333333334</ele><time>2026-04-26T09:20:02.999Z</time></trkpt><trkpt lat="37.57456821910558" lon="14.022089027392072"><ele>632.6666666666666</ele><time>2026-04-26T09:20:03.999Z</time></trkpt><trkpt lat="37.574559908199824" lon="14.02218179819961"><ele>634.0</ele><time>2026-04-26T09:20:04.999Z</time></trkpt><trkpt lat="37.574547645891634" lon="14.022272790399569"><ele>635.3333333333333</ele><time>2026-04-26T09:20:05.999Z</time></trkpt><trkpt lat="37.57453152428121" lon="14.022368210350212"><ele>636.6666666666666</ele><time>2026-04-26T09:20:06.999Z</time></trkpt><trkpt lat="37.57453010708067" lon="14.022465954477626"><ele>638.0</ele><time>2026-04-26T09:20:07.999Z</time></trkpt><trkpt lat="37.57454595378451" lon="14.022564361493728"><ele>638.0</ele><time>2026-04-26T09:20:08.999Z</time></trkpt><trkpt lat="37.57457718382167" lon="14.022669616677394"><ele>638.0</ele><time>2026-04-26T09:20:09.999Z</time></trkpt><trkpt lat="37.574612428639696" lon="14.022780837617328"><ele>638.0</ele><time>2026-04-26T09:20:10.999Z</time></trkpt><trkpt lat="37.57465284538742" lon="14.02288601772883"><ele>638.0</ele><time>2026-04-26T09:20:11.999Z</time></trkpt><trkpt lat="37.5747028425943" lon="14.022981321735289"><ele>638.0</ele><time>2026-04-26T09:20:12.999Z</time></trkpt><trkpt lat="37.57473033774183" lon="14.02308897655486"><ele>638.0</ele><time>2026-04-26T09:20:13.999Z</time></trkpt><trkpt lat="37.574761171816526" lon="14.023191170532451"><ele>638.0</ele><time>2026-04-26T09:20:14.999Z</time></trkpt><trkpt lat="37.574782785021945" lon="14.023303435661125"><ele>638.0</ele><time>2026-04-26T09:20:15.999Z</time></trkpt><trkpt lat="37.57479288695609" lon="14.023419925299338"><ele>638.0</ele><time>2026-04-26T09:20:16.999Z</time></trkpt><trkpt lat="37.574818270652734" lon="14.023540981503844"><ele>638.0</ele><time>2026-04-26T09:20:17.999Z</time></trkpt><trkpt lat="37.574826512008705" lon="14.02366124720532"><ele>636.3333333333333</ele><time>2026-04-26T09:20:18.999Z</time></trkpt><trkpt lat="37.57484287617661" lon="14.023773893263336"><ele>634.6666666666666</ele><time>2026-04-26T09:20:19.999Z</time></trkpt><trkpt lat="37.57486602894108" lon="14.023881157095929"><ele>633.0</ele><time>2026-04-26T09:20:20.999Z</time></trkpt><trkpt lat="37.574893624343744" lon="14.023980774529125"><ele>631.3333333333334</ele><time>2026-04-26T09:20:21.999Z</time></trkpt><trkpt lat="37.57492876289043" lon="14.024079224437433"><ele>629.6666666666667</ele><time>2026-04-26T09:20:22.999Z</time></trkpt><trkpt lat="37.57497029381181" lon="14.024174154140926"><ele>628.0</ele><time>2026-04-26T09:20:23.999Z</time></trkpt><trkpt lat="37.57502047785562" lon="14.024264632446458"><ele>626.8333333333334</ele><time>2026-04-26T09:20:24.999Z</time></trkpt><trkpt lat="37.575076184080274" lon="14.024354814026866"><ele>625.6666666666667</ele><time>2026-04-26T09:20:25.999Z</time></trkpt><trkpt lat="37.57513693665859" lon="14.024438229040499"><ele>624.5</ele><time>2026-04-26T09:20:26.999Z</time></trkpt><trkpt lat="37.575198643208026" lon="14.024519074388955"><ele>623.3333333333334</ele><time>2026-04-26T09:20:27.999Z</time></trkpt><trkpt lat="37.575224090654345" lon="14.024619123833583"><ele>622.1666666666666</ele><time>2026-04-26T09:20:28.999Z</time></trkpt><trkpt lat="37.575233825599014" lon="14.02473338184064"><ele>621.0</ele><time>2026-04-26T09:20:29.999Z</time></trkpt><trkpt lat="37.57521907964255" lon="14.02484568530025"><ele>621.0</ele><time>2026-04-26T09:20:30.999Z</time></trkpt><trkpt lat="37.57523045226411" lon="14.024955852063794"><ele>621.0</ele><time>2026-04-26T09:20:31.999Z</time></trkpt><trkpt lat="37.57524388539725" lon="14.025062617042597"><ele>621.0</ele><time>2026-04-26T09:20:32.999Z</time></trkpt><trkpt lat="37.57529814774576" lon="14.025172698074575"><ele>621.0</ele><time>2026-04-26T09:20:33.999Z</time></trkpt><trkpt lat="37.5753730104231" lon="14.025262811735796"><ele>621.0</ele><time>2026-04-26T09:20:34.999Z</time></trkpt><trkpt lat="37.57541569899072" lon="14.025359310064228"><ele>624.6</ele><time>2026-04-26T09:20:35.999Z</time></trkpt><trkpt lat="37.57544074664835" lon="14.025460450453508"><ele>628.2</ele><time>2026-04-26T09:20:36.999Z</time></trkpt><trkpt lat="37.57543614870034" lon="14.025579059339075"><ele>631.8</ele><time>2026-04-26T09:20:37.999Z</time></trkpt><trkpt lat="37.57542678775002" lon="14.025721159336207"><ele>635.4</ele><time>2026-04-26T09:20:38.999Z</time></trkpt><trkpt lat="37.57542959522345" lon="14.025860206303738"><ele>639.0</ele><time>2026-04-26T09:20:39.999Z</time></trkpt><trkpt lat="37.575409006243916" lon="14.025994005308752"><ele>639.0</ele><time>2026-04-26T09:20:41Z</time></trkpt><trkpt lat="37.57539721564859" lon="14.026140200627163"><ele>639.0</ele><time>2026-04-26T09:20:42Z</time></trkpt><trkpt lat="37.57537787278375" lon="14.02631000859324"><ele>639.0</ele><time>2026-04-26T09:20:43Z</time></trkpt><trkpt lat="37.57535255233454" lon="14.0264993663191"><ele>639.0</ele><time>2026-04-26T09:20:44Z</time></trkpt><trkpt lat="37.57530937706365" lon="14.026679350658096"><ele>627.5</ele><time>2026-04-26T09:20:45Z</time></trkpt><trkpt lat="37.57529126647754" lon="14.026860456669281"><ele>616.0</ele><time>2026-04-26T09:20:46Z</time></trkpt><trkpt lat="37.57525726283121" lon="14.02701829027851"><ele>604.5</ele><time>2026-04-26T09:20:47Z</time></trkpt><trkpt lat="37.57524139011747" lon="14.027153474645564"><ele>593.0</ele><time>2026-04-26T09:20:48Z</time></trkpt><trkpt lat="37.575241526147444" lon="14.027279815197486"><ele>593.0</ele><time>2026-04-26T09:20:49Z</time></trkpt><trkpt lat="37.575252393222485" lon="14.027404582661124"><ele>593.0</ele><time>2026-04-26T09:20:50Z</time></trkpt><trkpt lat="37.57525979135336" lon="14.02751184513611"><ele>593.0</ele><time>2026-04-26T09:20:51Z</time></trkpt><trkpt lat="37.575251233162696" lon="14.027606435515544"><ele>593.0</ele><time>2026-04-26T09:20:52Z</time></trkpt><trkpt lat="37.575218866976286" lon="14.027729982514453"><ele>593.0</ele><time>2026-04-26T09:20:54Z</time></trkpt><trkpt lat="37.575242731044355" lon="14.027920064559328"><ele>593.75</ele><time>2026-04-26T09:20:56Z</time></trkpt><trkpt lat="37.57526965258107" lon="14.028048626875604"><ele>594.5</ele><time>2026-04-26T09:20:57Z</time></trkpt><trkpt lat="37.57531387102665" lon="14.028197634124302"><ele>595.25</ele><time>2026-04-26T09:20:58Z</time></trkpt><trkpt lat="37.57536161889692" lon="14.028379691104949"><ele>596.0</ele><time>2026-04-26T09:20:59Z</time></trkpt><trkpt lat="37.575387124816864" lon="14.028612240780351"><ele>601.3333333333333</ele><time>2026-04-26T09:21:00Z</time></trkpt><trkpt lat="37.5754355088426" lon="14.028831625420327"><ele>606.6666666666666</ele><time>2026-04-26T09:21:01Z</time></trkpt><trkpt lat="37.57545329209715" lon="14.029018567626263"><ele>612.0</ele><time>2026-04-26T09:21:02Z</time></trkpt><trkpt lat="37.575477247630715" lon="14.029189408916402"><ele>612.0</ele><time>2026-04-26T09:21:03Z</time></trkpt><trkpt lat="37.57550092827103" lon="14.029328517464991"><ele>612.0</ele><time>2026-04-26T09:21:04Z</time></trkpt><trkpt lat="37.57554209743994" lon="14.029451377977079"><ele>612.0</ele><time>2026-04-26T09:21:05Z</time></trkpt><trkpt lat="37.57561125321322" lon="14.0295586127228"><ele>612.0</ele><time>2026-04-26T09:21:06Z</time></trkpt><trkpt lat="37.57568785807379" lon="14.029643143613388"><ele>612.0</ele><time>2026-04-26T09:21:07Z</time></trkpt><trkpt lat="37.575769107583376" lon="14.029724822714858"><ele>612.0</ele><time>2026-04-26T09:21:08Z</time></trkpt><trkpt lat="37.575846104538186" lon="14.029800012508577"><ele>612.0</ele><time>2026-04-26T09:21:09Z</time></trkpt><trkpt lat="37.575920479627165" lon="14.029860461833241"><ele>612.0</ele><time>2026-04-26T09:21:10Z</time></trkpt><trkpt lat="37.57600440319896" lon="14.029887127941839"><ele>612.0</ele><time>2026-04-26T09:21:11Z</time></trkpt><trkpt lat="37.576090816523966" lon="14.029883205879555"><ele>612.0</ele><time>2026-04-26T09:21:12Z</time></trkpt><trkpt lat="37.57617431364331" lon="14.029867759375728"><ele>612.0</ele><time>2026-04-26T09:21:13Z</time></trkpt><trkpt lat="37.57625544882808" lon="14.029856022359361"><ele>612.1666666666666</ele><time>2026-04-26T09:21:14Z</time></trkpt><trkpt lat="37.57633517056092" lon="14.029849845472986"><ele>612.3333333333334</ele><time>2026-04-26T09:21:15Z</time></trkpt><trkpt lat="37.5764183486058" lon="14.029842748043121"><ele>612.5</ele><time>2026-04-26T09:21:16Z</time></trkpt><trkpt lat="37.5764927224468" lon="14.029839887208633"><ele>612.6666666666667</ele><time>2026-04-26T09:21:17Z</time></trkpt><trkpt lat="37.57657032827014" lon="14.029835469081528"><ele>612.8333333333334</ele><time>2026-04-26T09:21:18Z</time></trkpt><trkpt lat="37.57664799189083" lon="14.02984218360353"><ele>613.0</ele><time>2026-04-26T09:21:19Z</time></trkpt><trkpt lat="37.57672515002443" lon="14.029879480365974"><ele>613.0</ele><time>2026-04-26T09:21:20Z</time></trkpt><trkpt lat="37.576797038562745" lon="14.029939336698702"><ele>613.0</ele><time>2026-04-26T09:21:21Z</time></trkpt><trkpt lat="37.57686546611496" lon="14.030020718806798"><ele>613.0</ele><time>2026-04-26T09:21:22Z</time></trkpt><trkpt lat="37.576920918566216" lon="14.03011452150069"><ele>613.0</ele><time>2026-04-26T09:21:23Z</time></trkpt><trkpt lat="37.57696516106841" lon="14.030214320267554"><ele>613.0</ele><time>2026-04-26T09:21:24Z</time></trkpt><trkpt lat="37.577017432301034" lon="14.030307906099619"><ele>611.4</ele><time>2026-04-26T09:21:25Z</time></trkpt><trkpt lat="37.57707050959177" lon="14.030397258063338"><ele>609.8</ele><time>2026-04-26T09:21:26Z</time></trkpt><trkpt lat="37.57712227340583" lon="14.030489483817956"><ele>608.2</ele><time>2026-04-26T09:21:27Z</time></trkpt><trkpt lat="37.5771811757049" lon="14.030573722208814"><ele>606.6</ele><time>2026-04-26T09:21:28Z</time></trkpt><trkpt lat="37.57725339777475" lon="14.030644483265705"><ele>605.0</ele><time>2026-04-26T09:21:29Z</time></trkpt><trkpt lat="37.57733188843383" lon="14.030706916510864"><ele>605.0</ele><time>2026-04-26T09:21:30Z</time></trkpt><trkpt lat="37.57741509391274" lon="14.030768999632569"><ele>605.0</ele><time>2026-04-26T09:21:31Z</time></trkpt><trkpt lat="37.57749917372524" lon="14.030826954079702"><ele>605.0</ele><time>2026-04-26T09:21:32Z</time></trkpt><trkpt lat="37.57757990084587" lon="14.030880272617052"><ele>605.0</ele><time>2026-04-26T09:21:32.999Z</time></trkpt><trkpt lat="37.5776511302211" lon="14.030927824221136"><ele>605.0</ele><time>2026-04-26T09:21:33.999Z</time></trkpt><trkpt lat="37.57772345041558" lon="14.030967299129353"><ele>605.0</ele><time>2026-04-26T09:21:34.999Z</time></trkpt><trkpt lat="37.577803424969986" lon="14.030983510428154"><ele>604.8</ele><time>2026-04-26T09:21:35.999Z</time></trkpt><trkpt lat="37.57788573397432" lon="14.030975249270973"><ele>604.6</ele><time>2026-04-26T09:21:36.999Z</time></trkpt><trkpt lat="37.577967204166335" lon="14.03093300123853"><ele>604.4</ele><time>2026-04-26T09:21:37.999Z</time></trkpt><trkpt lat="37.57804321991054" lon="14.030866501076957"><ele>604.2</ele><time>2026-04-26T09:21:38.999Z</time></trkpt><trkpt lat="37.578107088436425" lon="14.030780638226327"><ele>604.0</ele><time>2026-04-26T09:21:39.999Z</time></trkpt><trkpt lat="37.57819253481747" lon="14.03070454152594"><ele>604.0</ele><time>2026-04-26T09:21:40.999Z</time></trkpt><trkpt lat="37.578263570172965" lon="14.03061317050562"><ele>604.0</ele><time>2026-04-26T09:21:41.999Z</time></trkpt><trkpt lat="37.578339426684956" lon="14.030546578331458"><ele>604.0</ele><time>2026-04-26T09:21:42.999Z</time></trkpt><trkpt lat="37.578419475877766" lon="14.030469458480686"><ele>604.0</ele><time>2026-04-26T09:21:43.999Z</time></trkpt><trkpt lat="37.57849849164088" lon="14.03038818162128"><ele>604.0</ele><time>2026-04-26T09:21:44.999Z</time></trkpt><trkpt lat="37.57857912125436" lon="14.030308320668547"><ele>604.0</ele><time>2026-04-26T09:21:45.999Z</time></trkpt><trkpt lat="37.57865730484149" lon="14.030241343197536"><ele>604.0</ele><time>2026-04-26T09:21:46.999Z</time></trkpt><trkpt lat="37.578737976782726" lon="14.030183387782332"><ele>604.0</ele><time>2026-04-26T09:21:47.999Z</time></trkpt><trkpt lat="37.57883710501344" lon="14.030151259183894"><ele>604.0</ele><time>2026-04-26T09:21:48.999Z</time></trkpt><trkpt lat="37.57893659851549" lon="14.030112780280543"><ele>604.0</ele><time>2026-04-26T09:21:49.999Z</time></trkpt><trkpt lat="37.57903541868294" lon="14.03007982268354"><ele>602.8</ele><time>2026-04-26T09:21:50.999Z</time></trkpt><trkpt lat="37.579132150478635" lon="14.030049646059123"><ele>601.5999999999999</ele><time>2026-04-26T09:21:51.999Z</time></trkpt><trkpt lat="37.57922678157548" lon="14.03001792597632"><ele>600.4</ele><time>2026-04-26T09:21:52.999Z</time></trkpt><trkpt lat="37.57930931959072" lon="14.029970186064109"><ele>599.1999999999999</ele><time>2026-04-26T09:21:53.999Z</time></trkpt><trkpt lat="37.57939443747558" lon="14.029961728164208"><ele>598.0</ele><time>2026-04-26T09:21:54.999Z</time></trkpt><trkpt lat="37.57948247636585" lon="14.029931425565252"><ele>597.0</ele><time>2026-04-26T09:21:55.999Z</time></trkpt><trkpt lat="37.57956824785611" lon="14.029882645862648"><ele>596.0</ele><time>2026-04-26T09:21:56.999Z</time></trkpt><trkpt lat="37.5796550975689" lon="14.02985397277297"><ele>595.0</ele><time>2026-04-26T09:21:57.999Z</time></trkpt><trkpt lat="37.57973854349415" lon="14.029829345611333"><ele>594.0</ele><time>2026-04-26T09:21:58.999Z</time></trkpt><trkpt lat="37.579819842036855" lon="14.029830337095703"><ele>593.0</ele><time>2026-04-26T09:21:59.999Z</time></trkpt><trkpt lat="37.579895443793106" lon="14.029804759740074"><ele>592.0</ele><time>2026-04-26T09:22:00.999Z</time></trkpt><trkpt lat="37.57997564376541" lon="14.02982589924783"><ele>592.0</ele><time>2026-04-26T09:22:01.999Z</time></trkpt><trkpt lat="37.58005117480206" lon="14.029877971880364"><ele>592.0</ele><time>2026-04-26T09:22:02.999Z</time></trkpt><trkpt lat="37.580126704082474" lon="14.02995527698683"><ele>592.0</ele><time>2026-04-26T09:22:03.999Z</time></trkpt><trkpt lat="37.580187262762834" lon="14.030067632868027"><ele>592.0</ele><time>2026-04-26T09:22:04.999Z</time></trkpt><trkpt lat="37.58026098514618" lon="14.030157060623957"><ele>592.0</ele><time>2026-04-26T09:22:05.999Z</time></trkpt><trkpt lat="37.58032744075999" lon="14.030256614422626"><ele>589.8000000000001</ele><time>2026-04-26T09:22:06.999Z</time></trkpt><trkpt lat="37.58039755702577" lon="14.030351998178137"><ele>587.6</ele><time>2026-04-26T09:22:07.999Z</time></trkpt><trkpt lat="37.58045497678534" lon="14.030458714347287"><ele>585.4000000000001</ele><time>2026-04-26T09:22:08.999Z</time></trkpt><trkpt lat="37.58051625567138" lon="14.03054934625783"><ele>583.2</ele><time>2026-04-26T09:22:09.999Z</time></trkpt><trkpt lat="37.58058181256399" lon="14.030638444488124"><ele>581.0</ele><time>2026-04-26T09:22:10.999Z</time></trkpt><trkpt lat="37.58066228752933" lon="14.030706079676548"><ele>581.0</ele><time>2026-04-26T09:22:11.999Z</time></trkpt><trkpt lat="37.58074225929983" lon="14.030761023963693"><ele>581.0</ele><time>2026-04-26T09:22:12.999Z</time></trkpt><trkpt lat="37.58083976726402" lon="14.03075612940039"><ele>581.0</ele><time>2026-04-26T09:22:13.999Z</time></trkpt><trkpt lat="37.580928787958676" lon="14.030706152428937"><ele>581.0</ele><time>2026-04-26T09:22:14.999Z</time></trkpt><trkpt lat="37.58100657772568" lon="14.030636101136034"><ele>581.0</ele><time>2026-04-26T09:22:15.999Z</time></trkpt><trkpt lat="37.58108485739143" lon="14.030567952509479"><ele>581.0</ele><time>2026-04-26T09:22:16.999Z</time></trkpt><trkpt lat="37.581171361918734" lon="14.030548586053813"><ele>581.0</ele><time>2026-04-26T09:22:17.999Z</time></trkpt><trkpt lat="37.581257809735405" lon="14.030537282246394"><ele>581.0</ele><time>2026-04-26T09:22:18.999Z</time></trkpt><trkpt lat="37.58133863806672" lon="14.030555380911814"><ele>581.0</ele><time>2026-04-26T09:22:19.999Z</time></trkpt><trkpt lat="37.581415856163034" lon="14.03059615137894"><ele>581.0</ele><time>2026-04-26T09:22:20.999Z</time></trkpt><trkpt lat="37.58147825290665" lon="14.030648190426971"><ele>581.0</ele><time>2026-04-26T09:22:21.999Z</time></trkpt><trkpt lat="37.58153088056703" lon="14.030691820597267"><ele>580.8333333333333</ele><time>2026-04-26T09:22:22.999Z</time></trkpt><trkpt lat="37.58160354848549" lon="14.030735567611572"><ele>580.6666666666666</ele><time>2026-04-26T09:22:24.999Z</time></trkpt><trkpt lat="37.58166541131452" lon="14.03079251757989"><ele>580.5</ele><time>2026-04-26T09:22:28.999Z</time></trkpt><trkpt lat="37.58175669417225" lon="14.030882503384694"><ele>580.3333333333334</ele><time>2026-04-26T09:22:35.999Z</time></trkpt><trkpt lat="37.58181568869451" lon="14.030935514163538"><ele>580.1666666666667</ele><time>2026-04-26T09:22:36.999Z</time></trkpt><trkpt lat="37.581881314913495" lon="14.030998872339309"><ele>580.0</ele><time>2026-04-26T09:22:37.999Z</time></trkpt><trkpt lat="37.58194261639226" lon="14.031049488560837"><ele>580.0</ele><time>2026-04-26T09:22:38.999Z</time></trkpt><trkpt lat="37.582035124137946" lon="14.031127622643266"><ele>580.0</ele><time>2026-04-26T09:22:39.999Z</time></trkpt><trkpt lat="37.582127598010004" lon="14.031207372302509"><ele>580.0</ele><time>2026-04-26T09:22:40.999Z</time></trkpt><trkpt lat="37.58221695475798" lon="14.031287317066575"><ele>580.0</ele><time>2026-04-26T09:22:41.999Z</time></trkpt><trkpt lat="37.582334052194916" lon="14.031389192327227"><ele>580.0</ele><time>2026-04-26T09:22:42.999Z</time></trkpt><trkpt lat="37.58243208032397" lon="14.031458698297708"><ele>580.0</ele><time>2026-04-26T09:22:43.999Z</time></trkpt><trkpt lat="37.58252036267384" lon="14.031520536132318"><ele>580.0</ele><time>2026-04-26T09:22:44.999Z</time></trkpt><trkpt lat="37.58260974023763" lon="14.031585512814871"><ele>580.0</ele><time>2026-04-26T09:22:45.999Z</time></trkpt><trkpt lat="37.582709547997815" lon="14.031657287263018"><ele>580.0</ele><time>2026-04-26T09:22:47Z</time></trkpt><trkpt lat="37.582812949895995" lon="14.031722555084631"><ele>580.6</ele><time>2026-04-26T09:22:48Z</time></trkpt><trkpt lat="37.58291204192497" lon="14.031773304961435"><ele>581.2</ele><time>2026-04-26T09:22:49Z</time></trkpt><trkpt lat="37.58300753616755" lon="14.031828918384388"><ele>581.8</ele><time>2026-04-26T09:22:50Z</time></trkpt><trkpt lat="37.5830987198194" lon="14.031895653161099"><ele>582.4</ele><time>2026-04-26T09:22:51Z</time></trkpt><trkpt lat="37.583202140130965" lon="14.031967420477233"><ele>583.0</ele><time>2026-04-26T09:22:52Z</time></trkpt><trkpt lat="37.5833155530982" lon="14.032038229541426"><ele>583.0</ele><time>2026-04-26T09:22:53Z</time></trkpt><trkpt lat="37.58341170348975" lon="14.032138461214036"><ele>583.0</ele><time>2026-04-26T09:22:54Z</time></trkpt><trkpt lat="37.58350208449772" lon="14.03222728579162"><ele>583.0</ele><time>2026-04-26T09:22:55Z</time></trkpt><trkpt lat="37.583543385012014" lon="14.032358433780471"><ele>583.0</ele><time>2026-04-26T09:22:56Z</time></trkpt><trkpt lat="37.58358177756802" lon="14.032497364964911"><ele>582.8</ele><time>2026-04-26T09:22:57Z</time></trkpt><trkpt lat="37.58362302179047" lon="14.032633394647627"><ele>582.5999999999999</ele><time>2026-04-26T09:22:58Z</time></trkpt><trkpt lat="37.583648860193506" lon="14.032768664363557"><ele>582.4000000000001</ele><time>2026-04-26T09:22:59Z</time></trkpt><trkpt lat="37.583684619124554" lon="14.032883281891824"><ele>582.2</ele><time>2026-04-26T09:23:00Z</time></trkpt><trkpt lat="37.58373556773085" lon="14.032975019397417"><ele>582.0</ele><time>2026-04-26T09:23:01Z</time></trkpt><trkpt lat="37.58380900113799" lon="14.03305468432752"><ele>584.2</ele><time>2026-04-26T09:23:02Z</time></trkpt><trkpt lat="37.58391276517258" lon="14.033109650302137"><ele>586.4000000000001</ele><time>2026-04-26T09:23:03Z</time></trkpt><trkpt lat="37.584026449293546" lon="14.033129419685045"><ele>588.5999999999999</ele><time>2026-04-26T09:23:04Z</time></trkpt><trkpt lat="37.58413417653963" lon="14.033119725985385"><ele>590.8</ele><time>2026-04-26T09:23:05Z</time></trkpt><trkpt lat="37.58422699293789" lon="14.03310565872612"><ele>593.0</ele><time>2026-04-26T09:23:06Z</time></trkpt><trkpt lat="37.58431172395544" lon="14.033099418032904"><ele>593.0</ele><time>2026-04-26T09:23:07Z</time></trkpt><trkpt lat="37.58440133057241" lon="14.033092936976638"><ele>593.0</ele><time>2026-04-26T09:23:08Z</time></trkpt><trkpt lat="37.58449018403852" lon="14.033079325977392"><ele>593.0</ele><time>2026-04-26T09:23:09Z</time></trkpt><trkpt lat="37.58457786542265" lon="14.033064367738183"><ele>593.0</ele><time>2026-04-26T09:23:10Z</time></trkpt><trkpt lat="37.58466713983102" lon="14.0330362429129"><ele>593.0</ele><time>2026-04-26T09:23:11Z</time></trkpt><trkpt lat="37.58476188318991" lon="14.03300331336562"><ele>592.8</ele><time>2026-04-26T09:23:12Z</time></trkpt><trkpt lat="37.584855723738144" lon="14.032968187494149"><ele>592.5999999999999</ele><time>2026-04-26T09:23:13Z</time></trkpt><trkpt lat="37.584945767853426" lon="14.032938071020792"><ele>592.4000000000001</ele><time>2026-04-26T09:23:14Z</time></trkpt><trkpt lat="37.58503656848146" lon="14.032904817112362"><ele>592.2</ele><time>2026-04-26T09:23:15Z</time></trkpt><trkpt lat="37.585123939851144" lon="14.03285757531688"><ele>592.0</ele><time>2026-04-26T09:23:16Z</time></trkpt><trkpt lat="37.58520917992154" lon="14.032805830436256"><ele>592.0</ele><time>2026-04-26T09:23:17Z</time></trkpt><trkpt lat="37.58529261792922" lon="14.032747671734745"><ele>592.0</ele><time>2026-04-26T09:23:18Z</time></trkpt><trkpt lat="37.58537381499123" lon="14.032677528696977"><ele>592.0</ele><time>2026-04-26T09:23:19Z</time></trkpt><trkpt lat="37.58545233213676" lon="14.0325941365744"><ele>592.0</ele><time>2026-04-26T09:23:20Z</time></trkpt><trkpt lat="37.58552997968129" lon="14.032511103224941"><ele>592.0</ele><time>2026-04-26T09:23:21Z</time></trkpt><trkpt lat="37.585604004963045" lon="14.03242079696653"><ele>591.0</ele><time>2026-04-26T09:23:22Z</time></trkpt><trkpt lat="37.58568271587696" lon="14.03233282339615"><ele>590.0</ele><time>2026-04-26T09:23:23Z</time></trkpt><trkpt lat="37.58577749397274" lon="14.032254789929723"><ele>589.0</ele><time>2026-04-26T09:23:24Z</time></trkpt><trkpt lat="37.58585152955833" lon="14.03214701326129"><ele>588.0</ele><time>2026-04-26T09:23:25Z</time></trkpt><trkpt lat="37.585927571551764" lon="14.032061586987789"><ele>587.0</ele><time>2026-04-26T09:23:26Z</time></trkpt><trkpt lat="37.58599955352989" lon="14.031981245698066"><ele>587.0</ele><time>2026-04-26T09:23:27Z</time></trkpt><trkpt lat="37.58607142493539" lon="14.031914078888095"><ele>587.0</ele><time>2026-04-26T09:23:27.999Z</time></trkpt><trkpt lat="37.58615843786604" lon="14.031870127644769"><ele>587.0</ele><time>2026-04-26T09:23:28.999Z</time></trkpt><trkpt lat="37.58624516772682" lon="14.031826139831132"><ele>587.0</ele><time>2026-04-26T09:23:29.999Z</time></trkpt><trkpt lat="37.586351595575614" lon="14.031820394755153"><ele>587.0</ele><time>2026-04-26T09:23:30.999Z</time></trkpt><trkpt lat="37.58645908278804" lon="14.031817191861414"><ele>586.2</ele><time>2026-04-26T09:23:31.999Z</time></trkpt><trkpt lat="37.586570070750795" lon="14.03180755246008"><ele>585.4000000000001</ele><time>2026-04-26T09:23:32.999Z</time></trkpt><trkpt lat="37.58667946184779" lon="14.031803612935413"><ele>584.5999999999999</ele><time>2026-04-26T09:23:33.999Z</time></trkpt><trkpt lat="37.586781683745606" lon="14.031808460574155"><ele>583.8</ele><time>2026-04-26T09:23:34.999Z</time></trkpt><trkpt lat="37.586877042307016" lon="14.031844273457855"><ele>583.0</ele><time>2026-04-26T09:23:35.999Z</time></trkpt><trkpt lat="37.586953125682626" lon="14.031909643465989"><ele>584.0</ele><time>2026-04-26T09:23:36.999Z</time></trkpt><trkpt lat="37.58702556633823" lon="14.031961974613804"><ele>585.0</ele><time>2026-04-26T09:23:37.999Z</time></trkpt><trkpt lat="37.58708556436823" lon="14.032029361772384"><ele>586.0</ele><time>2026-04-26T09:23:38.999Z</time></trkpt><trkpt lat="37.587150282635164" lon="14.032077271500674"><ele>587.0</ele><time>2026-04-26T09:23:39.999Z</time></trkpt><trkpt lat="37.58722096413636" lon="14.032114308759459"><ele>588.0</ele><time>2026-04-26T09:23:40.999Z</time></trkpt><trkpt lat="37.58729492753483" lon="14.03217251606224"><ele>589.0</ele><time>2026-04-26T09:23:41.999Z</time></trkpt><trkpt lat="37.58736792029967" lon="14.032222218189165"><ele>589.0</ele><time>2026-04-26T09:23:42.999Z</time></trkpt><trkpt lat="37.58743340387903" lon="14.032258309657319"><ele>589.0</ele><time>2026-04-26T09:23:43.999Z</time></trkpt><trkpt lat="37.587494038350535" lon="14.03228026015688"><ele>589.0</ele><time>2026-04-26T09:23:44.999Z</time></trkpt><trkpt lat="37.587606755395186" lon="14.03229534231789"><ele>589.0</ele><time>2026-04-26T09:23:46.999Z</time></trkpt><trkpt lat="37.587695511673" lon="14.03232292729557"><ele>589.0</ele><time>2026-04-26T09:23:48.999Z</time></trkpt><trkpt lat="37.58776278079098" lon="14.032339525090586"><ele>589.0</ele><time>2026-04-26T09:23:50.999Z</time></trkpt><trkpt lat="37.58786915643259" lon="14.032061015979673"><ele>589.0</ele><time>2026-04-26T09:23:56.999Z</time></trkpt><trkpt lat="37.587787901306015" lon="14.032037171626648"><ele>589.0</ele><time>2026-04-26T09:23:57.999Z</time></trkpt><trkpt lat="37.58774394215129" lon="14.031963250372966"><ele>589.0</ele><time>2026-04-26T09:23:59.999Z</time></trkpt><trkpt lat="37.58767186384892" lon="14.03192259099016"><ele>589.0</ele><time>2026-04-26T09:24:01.999Z</time></trkpt><trkpt lat="37.58727187788629" lon="14.03211976306804"><ele>589.0</ele><time>2026-04-26T09:24:07.999Z</time></trkpt><trkpt lat="37.58727628347368" lon="14.032004689114318"><ele>589.0</ele><time>2026-04-26T09:24:10.999Z</time></trkpt><trkpt lat="37.587344469292375" lon="14.031911021115787"><ele>589.0</ele><time>2026-04-26T09:24:12.999Z</time></trkpt><trkpt lat="37.58742153860527" lon="14.031797058823216"><ele>589.0</ele><time>2026-04-26T09:24:14.999Z</time></trkpt><trkpt lat="37.5874578113242" lon="14.031726333519908"><ele>589.0</ele><time>2026-04-26T09:24:15.999Z</time></trkpt><trkpt lat="37.58750956456493" lon="14.031646058742883"><ele>589.6</ele><time>2026-04-26T09:24:16.999Z</time></trkpt><trkpt lat="37.58760159949731" lon="14.031555499447121"><ele>590.2</ele><time>2026-04-26T09:24:18.999Z</time></trkpt><trkpt lat="37.587679155501505" lon="14.031584037285539"><ele>590.8000000000001</ele><time>2026-04-26T09:24:19.999Z</time></trkpt><trkpt lat="37.587742467818266" lon="14.031497910667818"><ele>591.4</ele><time>2026-04-26T09:24:21.999Z</time></trkpt><trkpt lat="37.58784475672142" lon="14.031430844035624"><ele>592.0</ele><time>2026-04-26T09:24:23.999Z</time></trkpt><trkpt lat="37.58792599210734" lon="14.031347851349388"><ele>593.1666666666667</ele><time>2026-04-26T09:24:25.999Z</time></trkpt><trkpt lat="37.587993474261545" lon="14.031279923044524"><ele>594.3333333333334</ele><time>2026-04-26T09:24:27.999Z</time></trkpt><trkpt lat="37.5880563761852" lon="14.03125243343056"><ele>595.5</ele><time>2026-04-26T09:24:31.999Z</time></trkpt><trkpt lat="37.58812659712698" lon="14.031315541238703"><ele>596.6666666666666</ele><time>2026-04-26T09:24:32.999Z</time></trkpt><trkpt lat="37.588192772228005" lon="14.031387903330856"><ele>597.8333333333333</ele><time>2026-04-26T09:24:35.999Z</time></trkpt><trkpt lat="37.5881758255208" lon="14.031465290537279"><ele>599.0</ele><time>2026-04-26T09:24:39.999Z</time></trkpt><trkpt lat="37.58812084177401" lon="14.031537832604792"><ele>598.6</ele><time>2026-04-26T09:24:41.998Z</time></trkpt><trkpt lat="37.58814334723353" lon="14.031650492415768"><ele>598.2</ele><time>2026-04-26T09:24:46.998Z</time></trkpt><trkpt lat="37.588164269733845" lon="14.031741067775178"><ele>597.8000000000001</ele><time>2026-04-26T09:24:50.998Z</time></trkpt><trkpt lat="37.58818860801261" lon="14.031825121474059"><ele>597.4</ele><time>2026-04-26T09:24:56Z</time></trkpt><trkpt lat="37.58821109661577" lon="14.031931933054757"><ele>597.0</ele><time>2026-04-26T09:25:05Z</time></trkpt><trkpt lat="37.588273552927355" lon="14.032089602961358"><ele>597.0</ele><time>2026-04-26T09:25:07Z</time></trkpt><trkpt lat="37.58835463164519" lon="14.032199534587189"><ele>597.0</ele><time>2026-04-26T09:25:09Z</time></trkpt><trkpt lat="37.58838418027033" lon="14.032327551053106"><ele>597.0</ele><time>2026-04-26T09:25:11Z</time></trkpt><trkpt lat="37.58839495018136" lon="14.032414135206388"><ele>597.0</ele><time>2026-04-26T09:25:15Z</time></trkpt><trkpt lat="37.58839759936894" lon="14.032535247744516"><ele>597.0</ele><time>2026-04-26T09:25:17Z</time></trkpt><trkpt lat="37.58844499669035" lon="14.032595033900488"><ele>597.3333333333334</ele><time>2026-04-26T09:25:19Z</time></trkpt><trkpt lat="37.588537637021915" lon="14.032581524471427"><ele>597.6666666666666</ele><time>2026-04-26T09:25:21Z</time></trkpt><trkpt lat="37.58860177511085" lon="14.032580931951564"><ele>598.0</ele><time>2026-04-26T09:25:22Z</time></trkpt><trkpt lat="37.58865880836545" lon="14.03253859270583"><ele>598.3333333333333</ele><time>2026-04-26T09:25:23Z</time></trkpt><trkpt lat="37.58871255258489" lon="14.03249673787315"><ele>598.6666666666666</ele><time>2026-04-26T09:25:24Z</time></trkpt><trkpt lat="37.588771268615154" lon="14.032452749971405"><ele>599.0</ele><time>2026-04-26T09:25:25Z</time></trkpt><trkpt lat="37.588872536797325" lon="14.032378310807902"><ele>599.0</ele><time>2026-04-26T09:25:27Z</time></trkpt><trkpt lat="37.58897025772732" lon="14.03231675868293"><ele>599.0</ele><time>2026-04-26T09:25:29Z</time></trkpt><trkpt lat="37.589032160708406" lon="14.032300093764526"><ele>599.0</ele><time>2026-04-26T09:25:31Z</time></trkpt><trkpt lat="37.58919168895261" lon="14.032404814508482"><ele>599.0</ele><time>2026-04-26T09:25:40Z</time></trkpt><trkpt lat="37.58924167900328" lon="14.032507748565115"><ele>599.0</ele><time>2026-04-26T09:25:42Z</time></trkpt><trkpt lat="37.58929310993189" lon="14.032587622160182"><ele>599.0</ele><time>2026-04-26T09:25:44Z</time></trkpt><trkpt lat="37.589295961835326" lon="14.032682284780087"><ele>599.0</ele><time>2026-04-26T09:25:47.999Z</time></trkpt><trkpt lat="37.589357977066356" lon="14.032738251725844"><ele>599.0</ele><time>2026-04-26T09:25:59.999Z</time></trkpt><trkpt lat="37.589428911907774" lon="14.032694189827712"><ele>599.0</ele><time>2026-04-26T09:26:01.999Z</time></trkpt><trkpt lat="37.589496326771204" lon="14.032614236228886"><ele>599.0</ele><time>2026-04-26T09:26:03.999Z</time></trkpt><trkpt lat="37.58956086763157" lon="14.032550117806656"><ele>599.0</ele><time>2026-04-26T09:26:05.999Z</time></trkpt><trkpt lat="37.58960316650445" lon="14.032490801812711"><ele>599.8</ele><time>2026-04-26T09:26:10.999Z</time></trkpt><trkpt lat="37.58966500600923" lon="14.03254564290421"><ele>600.5999999999999</ele><time>2026-04-26T09:26:12.999Z</time></trkpt><trkpt lat="37.58972562458681" lon="14.032639686216193"><ele>601.4</ele><time>2026-04-26T09:26:14.999Z</time></trkpt><trkpt lat="37.58977176052387" lon="14.032801123923498"><ele>602.1999999999999</ele><time>2026-04-26T09:26:16.999Z</time></trkpt><trkpt lat="37.58981100771631" lon="14.032884527759135"><ele>603.0</ele><time>2026-04-26T09:26:17.999Z</time></trkpt><trkpt lat="37.58980531988985" lon="14.033004099387332"><ele>603.0</ele><time>2026-04-26T09:26:18.999Z</time></trkpt><trkpt lat="37.58982697425072" lon="14.033107872387854"><ele>603.0</ele><time>2026-04-26T09:26:19.999Z</time></trkpt><trkpt lat="37.589847695612626" lon="14.033210424538575"><ele>603.0</ele><time>2026-04-26T09:26:20.999Z</time></trkpt><trkpt lat="37.589864144022876" lon="14.033291829603842"><ele>603.0</ele><time>2026-04-26T09:26:21.999Z</time></trkpt><trkpt lat="37.589886808839495" lon="14.033404000297663"><ele>603.0</ele><time>2026-04-26T09:26:23.999Z</time></trkpt><trkpt lat="37.590065497356676" lon="14.03341215717855"><ele>603.6666666666666</ele><time>2026-04-26T09:26:25.999Z</time></trkpt><trkpt lat="37.590183620237866" lon="14.03337778661235"><ele>604.3333333333334</ele><time>2026-04-26T09:26:27.999Z</time></trkpt><trkpt lat="37.590284038847905" lon="14.03334287284579"><ele>605.0</ele><time>2026-04-26T09:26:29.999Z</time></trkpt><trkpt lat="37.59034947630544" lon="14.03333032973231"><ele>605.6666666666667</ele><time>2026-04-26T09:26:30.999Z</time></trkpt><trkpt lat="37.59041721805216" lon="14.033312225674985"><ele>606.3333333333334</ele><time>2026-04-26T09:26:31.999Z</time></trkpt><trkpt lat="37.590480952567205" lon="14.033297893910422"><ele>607.0</ele><time>2026-04-26T09:26:32.999Z</time></trkpt><trkpt lat="37.59054343502035" lon="14.033287292206555"><ele>607.0</ele><time>2026-04-26T09:26:33.999Z</time></trkpt><trkpt lat="37.59066016532018" lon="14.03325819078145"><ele>607.0</ele><time>2026-04-26T09:26:35.999Z</time></trkpt><trkpt lat="37.59076191665751" lon="14.033246871736802"><ele>607.0</ele><time>2026-04-26T09:26:37.999Z</time></trkpt><trkpt lat="37.59083375088523" lon="14.033235224984704"><ele>607.0</ele><time>2026-04-26T09:26:42.999Z</time></trkpt><trkpt lat="37.590918073343815" lon="14.033235356421333"><ele>607.0</ele><time>2026-04-26T09:26:45.999Z</time></trkpt><trkpt lat="37.591008435055635" lon="14.033215732232566"><ele>607.0</ele><time>2026-04-26T09:26:47.999Z</time></trkpt><trkpt lat="37.5911334657317" lon="14.033204874838919"><ele>607.0</ele><time>2026-04-26T09:26:49.999Z</time></trkpt><trkpt lat="37.59125716485639" lon="14.033189082368818"><ele>607.0</ele><time>2026-04-26T09:26:51.999Z</time></trkpt><trkpt lat="37.591332394422416" lon="14.03317784058663"><ele>607.0</ele><time>2026-04-26T09:26:52.999Z</time></trkpt><trkpt lat="37.59148007667434" lon="14.033155596166768"><ele>607.5</ele><time>2026-04-26T09:26:54.999Z</time></trkpt><trkpt lat="37.591572020799624" lon="14.033160171496197"><ele>608.0</ele><time>2026-04-26T09:26:55.999Z</time></trkpt><trkpt lat="37.59166585484882" lon="14.03315551949764"><ele>608.5</ele><time>2026-04-26T09:26:56.999Z</time></trkpt><trkpt lat="37.59175663799506" lon="14.033147398862793"><ele>609.0</ele><time>2026-04-26T09:26:57.999Z</time></trkpt><trkpt lat="37.59184514511844" lon="14.033154819556575"><ele>609.5</ele><time>2026-04-26T09:26:59Z</time></trkpt><trkpt lat="37.59192122594865" lon="14.033171173528805"><ele>610.0</ele><time>2026-04-26T09:27:00Z</time></trkpt><trkpt lat="37.59198903611432" lon="14.033191876174017"><ele>610.2</ele><time>2026-04-26T09:27:01Z</time></trkpt><trkpt lat="37.59210253868523" lon="14.033204567078991"><ele>610.4</ele><time>2026-04-26T09:27:03Z</time></trkpt><trkpt lat="37.592175788643765" lon="14.033238757699474"><ele>610.6</ele><time>2026-04-26T09:27:06Z</time></trkpt><trkpt lat="37.592186393364145" lon="14.033332926302876"><ele>610.8</ele><time>2026-04-26T09:27:08Z</time></trkpt><trkpt lat="37.59221534843172" lon="14.033491002713843"><ele>611.0</ele><time>2026-04-26T09:27:10Z</time></trkpt><trkpt lat="37.59224106417958" lon="14.03364128708967"><ele>611.0</ele><time>2026-04-26T09:27:12Z</time></trkpt><trkpt lat="37.5922668623628" lon="14.033800101904053"><ele>611.0</ele><time>2026-04-26T09:27:14Z</time></trkpt><trkpt lat="37.5922829411108" lon="14.033900612050576"><ele>611.0</ele><time>2026-04-26T09:27:15Z</time></trkpt><trkpt lat="37.59230125003264" lon="14.03401699125438"><ele>611.0</ele><time>2026-04-26T09:27:16Z</time></trkpt><trkpt lat="37.59231709199671" lon="14.034121081803315"><ele>611.0</ele><time>2026-04-26T09:27:17Z</time></trkpt><trkpt lat="37.5923251471688" lon="14.034205272498289"><ele>611.0</ele><time>2026-04-26T09:27:18Z</time></trkpt><trkpt lat="37.59233140974985" lon="14.034287267999602"><ele>611.0</ele><time>2026-04-26T09:27:19Z</time></trkpt><trkpt lat="37.59233421299834" lon="14.03439045621256"><ele>611.0</ele><time>2026-04-26T09:27:20Z</time></trkpt><trkpt lat="37.59233600969375" lon="14.034505190112025"><ele>611.0</ele><time>2026-04-26T09:27:21Z</time></trkpt><trkpt lat="37.59232902631357" lon="14.034624908997849"><ele>611.0</ele><time>2026-04-26T09:27:22Z</time></trkpt><trkpt lat="37.592322713934486" lon="14.034752420584281"><ele>611.0</ele><time>2026-04-26T09:27:23Z</time></trkpt><trkpt lat="37.59231423982507" lon="14.034880497165522"><ele>610.4</ele><time>2026-04-26T09:27:24Z</time></trkpt><trkpt lat="37.59232046064998" lon="14.035008111374317"><ele>609.8</ele><time>2026-04-26T09:27:25Z</time></trkpt><trkpt lat="37.59230539693239" lon="14.035137585553723"><ele>609.1999999999999</ele><time>2026-04-26T09:27:26Z</time></trkpt><trkpt lat="37.59230358060908" lon="14.035260692966224"><ele>608.6</ele><time>2026-04-26T09:27:27Z</time></trkpt><trkpt lat="37.59228911437376" lon="14.035372882247037"><ele>608.0</ele><time>2026-04-26T09:27:28Z</time></trkpt><trkpt lat="37.5922740395226" lon="14.035485028671744"><ele>608.0</ele><time>2026-04-26T09:27:29Z</time></trkpt><trkpt lat="37.59225118203438" lon="14.035592682027604"><ele>608.0</ele><time>2026-04-26T09:27:30Z</time></trkpt><trkpt lat="37.592213682680764" lon="14.035704283971821"><ele>608.0</ele><time>2026-04-26T09:27:31Z</time></trkpt><trkpt lat="37.592178710936885" lon="14.035814040844091"><ele>608.0</ele><time>2026-04-26T09:27:32Z</time></trkpt><trkpt lat="37.592145696453954" lon="14.035928250475813"><ele>608.0</ele><time>2026-04-26T09:27:33Z</time></trkpt><trkpt lat="37.59211304226373" lon="14.036057093560798"><ele>607.0</ele><time>2026-04-26T09:27:34Z</time></trkpt><trkpt lat="37.59208343736198" lon="14.036198209791094"><ele>606.0</ele><time>2026-04-26T09:27:35Z</time></trkpt><trkpt lat="37.59204270926506" lon="14.036348510254438"><ele>605.0</ele><time>2026-04-26T09:27:36Z</time></trkpt><trkpt lat="37.59199913047231" lon="14.03651471923816"><ele>604.0</ele><time>2026-04-26T09:27:37Z</time></trkpt><trkpt lat="37.59195966943401" lon="14.03666959371849"><ele>601.25</ele><time>2026-04-26T09:27:38Z</time></trkpt><trkpt lat="37.591924044630176" lon="14.036818238602374"><ele>598.5</ele><time>2026-04-26T09:27:39Z</time></trkpt><trkpt lat="37.59188883678736" lon="14.036966184281978"><ele>595.75</ele><time>2026-04-26T09:27:40Z</time></trkpt><trkpt lat="37.59185027194998" lon="14.037112370479093"><ele>593.0</ele><time>2026-04-26T09:27:41Z</time></trkpt><trkpt lat="37.59180461211143" lon="14.037255244472593"><ele>593.0</ele><time>2026-04-26T09:27:42Z</time></trkpt><trkpt lat="37.591751182660786" lon="14.037393843142873"><ele>593.0</ele><time>2026-04-26T09:27:43Z</time></trkpt><trkpt lat="37.59167952881148" lon="14.037519627293774"><ele>593.0</ele><time>2026-04-26T09:27:44Z</time></trkpt><trkpt lat="37.59158853728367" lon="14.037651290622811"><ele>593.0</ele><time>2026-04-26T09:27:45Z</time></trkpt><trkpt lat="37.59149867848378" lon="14.037767625097047"><ele>593.5</ele><time>2026-04-26T09:27:46Z</time></trkpt><trkpt lat="37.59139548929157" lon="14.037877094438958"><ele>594.0</ele><time>2026-04-26T09:27:47Z</time></trkpt><trkpt lat="37.591285571598824" lon="14.037983546627842"><ele>594.5</ele><time>2026-04-26T09:27:48Z</time></trkpt><trkpt lat="37.591171529359855" lon="14.03807077842873"><ele>595.0</ele><time>2026-04-26T09:27:49Z</time></trkpt><trkpt lat="37.591065023702384" lon="14.038158070357934"><ele>595.25</ele><time>2026-04-26T09:27:50Z</time></trkpt><trkpt lat="37.59095919854123" lon="14.03824119062649"><ele>595.5</ele><time>2026-04-26T09:27:51Z</time></trkpt><trkpt lat="37.59085250331866" lon="14.038320433608325"><ele>595.75</ele><time>2026-04-26T09:27:52Z</time></trkpt><trkpt lat="37.5907532134363" lon="14.038402268836332"><ele>596.0</ele><time>2026-04-26T09:27:53Z</time></trkpt><trkpt lat="37.59064706039769" lon="14.038488128457459"><ele>597.5</ele><time>2026-04-26T09:27:54Z</time></trkpt><trkpt lat="37.59053392156337" lon="14.038579441090722"><ele>599.0</ele><time>2026-04-26T09:27:54.999Z</time></trkpt><trkpt lat="37.59042128019945" lon="14.038678257088147"><ele>600.5</ele><time>2026-04-26T09:27:55.999Z</time></trkpt><trkpt lat="37.59030591576238" lon="14.038772188520133"><ele>602.0</ele><time>2026-04-26T09:27:56.999Z</time></trkpt><trkpt lat="37.59018223394287" lon="14.038856353311601"><ele>603.5</ele><time>2026-04-26T09:27:57.999Z</time></trkpt><trkpt lat="37.59006929241725" lon="14.038957173605212"><ele>605.0</ele><time>2026-04-26T09:27:58.999Z</time></trkpt><trkpt lat="37.58998158423033" lon="14.039073909042498"><ele>606.5</ele><time>2026-04-26T09:27:59.999Z</time></trkpt><trkpt lat="37.589900228174045" lon="14.039212807541638"><ele>608.0</ele><time>2026-04-26T09:28:00.999Z</time></trkpt><trkpt lat="37.589851201426015" lon="14.039375574777342"><ele>609.0</ele><time>2026-04-26T09:28:01.999Z</time></trkpt><trkpt lat="37.58982909673093" lon="14.039549101790643"><ele>610.0</ele><time>2026-04-26T09:28:02.999Z</time></trkpt><trkpt lat="37.5898357978899" lon="14.039731803198249"><ele>611.0</ele><time>2026-04-26T09:28:03.999Z</time></trkpt><trkpt lat="37.58987855582106" lon="14.039915177460562"><ele>612.0</ele><time>2026-04-26T09:28:04.999Z</time></trkpt><trkpt lat="37.589929150906094" lon="14.040080044989226"><ele>612.8000000000001</ele><time>2026-04-26T09:28:05.999Z</time></trkpt><trkpt lat="37.589974105242455" lon="14.04022833346759"><ele>613.6</ele><time>2026-04-26T09:28:06.999Z</time></trkpt><trkpt lat="37.59000608687011" lon="14.04035287945735"><ele>614.4000000000001</ele><time>2026-04-26T09:28:07.999Z</time></trkpt><trkpt lat="37.59003310815565" lon="14.040468675954264"><ele>615.2</ele><time>2026-04-26T09:28:08.999Z</time></trkpt><trkpt lat="37.590065154015576" lon="14.040563732937464"><ele>616.0</ele><time>2026-04-26T09:28:09.999Z</time></trkpt><trkpt lat="37.59008193246683" lon="14.04064898781419"><ele>616.0</ele><time>2026-04-26T09:28:10.999Z</time></trkpt><trkpt lat="37.59007676094191" lon="14.040728494332095"><ele>616.0</ele><time>2026-04-26T09:28:11.999Z</time></trkpt><trkpt lat="37.59005253662722" lon="14.04086057747009"><ele>616.0</ele><time>2026-04-26T09:28:13.999Z</time></trkpt><trkpt lat="37.59010268284306" lon="14.040914553568438"><ele>616.0</ele><time>2026-04-26T09:28:15.999Z</time></trkpt><trkpt lat="37.5900788106341" lon="14.040992351059273"><ele>616.0</ele><time>2026-04-26T09:29:01.999Z</time></trkpt><trkpt lat="37.590081924866546" lon="14.041126878436515"><ele>616.0</ele><time>2026-04-26T09:38:24Z</time></trkpt><trkpt lat="37.59008918381268" lon="14.041045429087683"><ele>616.0</ele><time>2026-04-26T09:38:32.999Z</time></trkpt><trkpt lat="37.590159014050904" lon="14.041103332876517"><ele>616.0</ele><time>2026-04-26T09:50:35Z</time></trkpt><trkpt lat="37.59021486650003" lon="14.041044710553582"><ele>616.0</ele><time>2026-04-26T09:50:39Z</time></trkpt><trkpt lat="37.590206843407245" lon="14.040963570853176"><ele>616.0</ele><time>2026-04-26T09:50:40Z</time></trkpt><trkpt lat="37.59015779247202" lon="14.040791254239988"><ele>616.0</ele><time>2026-04-26T09:50:42Z</time></trkpt><trkpt lat="37.59012488080528" lon="14.040683440549337"><ele>616.0</ele><time>2026-04-26T09:50:43Z</time></trkpt><trkpt lat="37.59009098607985" lon="14.040568117489679"><ele>616.0</ele><time>2026-04-26T09:50:44Z</time></trkpt><trkpt lat="37.590060416129404" lon="14.040462849193105"><ele>616.0</ele><time>2026-04-26T09:50:45Z</time></trkpt><trkpt lat="37.59003220076348" lon="14.040354327978978"><ele>616.0</ele><time>2026-04-26T09:50:46Z</time></trkpt><trkpt lat="37.59000247417171" lon="14.040254346803003"><ele>616.0</ele><time>2026-04-26T09:50:47Z</time></trkpt><trkpt lat="37.58997014942983" lon="14.040155638493312"><ele>616.0</ele><time>2026-04-26T09:50:48Z</time></trkpt><trkpt lat="37.58993527752517" lon="14.040053052097745"><ele>615.3333333333334</ele><time>2026-04-26T09:50:49Z</time></trkpt><trkpt lat="37.58990696227095" lon="14.039947387720717"><ele>614.6666666666667</ele><time>2026-04-26T09:50:50Z</time></trkpt><trkpt lat="37.58987999754166" lon="14.039832939434264"><ele>614.0</ele><time>2026-04-26T09:50:51Z</time></trkpt><trkpt lat="37.58985599177455" lon="14.039722649540712"><ele>613.3333333333334</ele><time>2026-04-26T09:50:52Z</time></trkpt><trkpt lat="37.58984276602452" lon="14.039618928591224"><ele>612.6666666666666</ele><time>2026-04-26T09:50:53Z</time></trkpt><trkpt lat="37.589845698274914" lon="14.039512208961103"><ele>612.0</ele><time>2026-04-26T09:50:54Z</time></trkpt><trkpt lat="37.58988776700831" lon="14.03941988378398"><ele>612.0</ele><time>2026-04-26T09:50:55Z</time></trkpt><trkpt lat="37.58990416070704" lon="14.039309453880593"><ele>612.0</ele><time>2026-04-26T09:50:56Z</time></trkpt><trkpt lat="37.58994811031475" lon="14.039200628350995"><ele>612.0</ele><time>2026-04-26T09:50:57Z</time></trkpt><trkpt lat="37.58999903962007" lon="14.039105538065234"><ele>612.0</ele><time>2026-04-26T09:50:57.999Z</time></trkpt><trkpt lat="37.590061350231856" lon="14.03902123080112"><ele>612.0</ele><time>2026-04-26T09:50:58.999Z</time></trkpt><trkpt lat="37.59014169158992" lon="14.03891396766873"><ele>611.0</ele><time>2026-04-26T09:50:59.999Z</time></trkpt><trkpt lat="37.59025302578575" lon="14.038818406815853"><ele>610.0</ele><time>2026-04-26T09:51:00.999Z</time></trkpt><trkpt lat="37.59039476584267" lon="14.038741605095865"><ele>609.0</ele><time>2026-04-26T09:51:01.999Z</time></trkpt><trkpt lat="37.590521282048186" lon="14.038637028189875"><ele>608.0</ele><time>2026-04-26T09:51:02.999Z</time></trkpt><trkpt lat="37.59064193373994" lon="14.038515136897372"><ele>606.0</ele><time>2026-04-26T09:51:03.999Z</time></trkpt><trkpt lat="37.59077703245951" lon="14.038422004419218"><ele>604.0</ele><time>2026-04-26T09:51:04.999Z</time></trkpt><trkpt lat="37.59091708629381" lon="14.03831994652277"><ele>602.0</ele><time>2026-04-26T09:51:05.999Z</time></trkpt><trkpt lat="37.59105302846376" lon="14.038208772552446"><ele>599.6666666666666</ele><time>2026-04-26T09:51:06.999Z</time></trkpt><trkpt lat="37.5911844171654" lon="14.038101487702848"><ele>597.3333333333334</ele><time>2026-04-26T09:51:07.999Z</time></trkpt><trkpt lat="37.59131431926464" lon="14.037997602491359"><ele>595.0</ele><time>2026-04-26T09:51:08.999Z</time></trkpt><trkpt lat="37.591434805068694" lon="14.037885119652755"><ele>595.0</ele><time>2026-04-26T09:51:09.999Z</time></trkpt><trkpt lat="37.591548190912654" lon="14.037762360047065"><ele>595.0</ele><time>2026-04-26T09:51:10.999Z</time></trkpt><trkpt lat="37.591655685059166" lon="14.037602714850422"><ele>595.0</ele><time>2026-04-26T09:51:11.999Z</time></trkpt><trkpt lat="37.59175247791157" lon="14.037432903592919"><ele>594.3333333333334</ele><time>2026-04-26T09:51:12.999Z</time></trkpt><trkpt lat="37.59183348143389" lon="14.037245018656705"><ele>593.6666666666666</ele><time>2026-04-26T09:51:13.999Z</time></trkpt><trkpt lat="37.59189967344618" lon="14.037047889242215"><ele>593.0</ele><time>2026-04-26T09:51:14.999Z</time></trkpt><trkpt lat="37.591949317160385" lon="14.036845945727766"><ele>593.0</ele><time>2026-04-26T09:51:15.999Z</time></trkpt><trkpt lat="37.59200080334356" lon="14.036648845099766"><ele>593.0</ele><time>2026-04-26T09:51:16.999Z</time></trkpt><trkpt lat="37.592044503544074" lon="14.03646727648316"><ele>593.0</ele><time>2026-04-26T09:51:17.999Z</time></trkpt><trkpt lat="37.59208733252494" lon="14.03629364207035"><ele>594.0</ele><time>2026-04-26T09:51:18.999Z</time></trkpt><trkpt lat="37.59213370952465" lon="14.036124342204037"><ele>595.0</ele><time>2026-04-26T09:51:19.999Z</time></trkpt><trkpt lat="37.59218032744529" lon="14.035960017615366"><ele>596.0</ele><time>2026-04-26T09:51:20.999Z</time></trkpt><trkpt lat="37.59222118260849" lon="14.035795632838466"><ele>597.0</ele><time>2026-04-26T09:51:21.999Z</time></trkpt><trkpt lat="37.59225914192481" lon="14.035620039463316"><ele>599.75</ele><time>2026-04-26T09:51:22.999Z</time></trkpt><trkpt lat="37.59229447702373" lon="14.035446853271042"><ele>602.5</ele><time>2026-04-26T09:51:23.999Z</time></trkpt><trkpt lat="37.592320720245425" lon="14.035278545495185"><ele>605.25</ele><time>2026-04-26T09:51:24.999Z</time></trkpt><trkpt lat="37.59233388930147" lon="14.035120764088406"><ele>608.0</ele><time>2026-04-26T09:51:25.999Z</time></trkpt><trkpt lat="37.59234098709616" lon="14.034970927648976"><ele>608.6</ele><time>2026-04-26T09:51:26.999Z</time></trkpt><trkpt lat="37.592346498243295" lon="14.034823009830369"><ele>609.1999999999999</ele><time>2026-04-26T09:51:27.999Z</time></trkpt><trkpt lat="37.59235262952473" lon="14.034683192045044"><ele>609.8</ele><time>2026-04-26T09:51:28.999Z</time></trkpt><trkpt lat="37.59236317301703" lon="14.034547190726904"><ele>610.4</ele><time>2026-04-26T09:51:29.999Z</time></trkpt><trkpt lat="37.592364038616395" lon="14.034422083865257"><ele>611.0</ele><time>2026-04-26T09:51:30.999Z</time></trkpt><trkpt lat="37.592361543105326" lon="14.034317845222256"><ele>611.0</ele><time>2026-04-26T09:51:31.999Z</time></trkpt><trkpt lat="37.59235229964686" lon="14.034212200871874"><ele>611.0</ele><time>2026-04-26T09:51:32.999Z</time></trkpt><trkpt lat="37.59233887487758" lon="14.034094707639019"><ele>611.0</ele><time>2026-04-26T09:51:33.999Z</time></trkpt><trkpt lat="37.5923206993173" lon="14.033982831248949"><ele>611.0</ele><time>2026-04-26T09:51:34.999Z</time></trkpt><trkpt lat="37.592297595077866" lon="14.033869849254387"><ele>611.0</ele><time>2026-04-26T09:51:35.999Z</time></trkpt><trkpt lat="37.59229249332807" lon="14.033747882347617"><ele>611.0</ele><time>2026-04-26T09:51:36.999Z</time></trkpt><trkpt lat="37.59227375147038" lon="14.033630986546402"><ele>611.0</ele><time>2026-04-26T09:51:37.999Z</time></trkpt><trkpt lat="37.59225326803877" lon="14.033513351015293"><ele>611.0</ele><time>2026-04-26T09:51:38.999Z</time></trkpt><trkpt lat="37.59223330464664" lon="14.033399660357624"><ele>611.0</ele><time>2026-04-26T09:51:39.999Z</time></trkpt><trkpt lat="37.592197162286226" lon="14.033292328285727"><ele>611.0</ele><time>2026-04-26T09:51:40.999Z</time></trkpt><trkpt lat="37.59217623675275" lon="14.033182247788853"><ele>611.0</ele><time>2026-04-26T09:51:41.999Z</time></trkpt><trkpt lat="37.59216775640647" lon="14.033068422446146"><ele>611.0</ele><time>2026-04-26T09:51:42.999Z</time></trkpt><trkpt lat="37.59214336380052" lon="14.032962566247349"><ele>611.0</ele><time>2026-04-26T09:51:43.999Z</time></trkpt><trkpt lat="37.59212018402358" lon="14.03286275666098"><ele>611.0</ele><time>2026-04-26T09:51:44.999Z</time></trkpt><trkpt lat="37.59208840623367" lon="14.032786308219844"><ele>611.0</ele><time>2026-04-26T09:51:45.999Z</time></trkpt><trkpt lat="37.59207790747542" lon="14.032668008029459"><ele>611.0</ele><time>2026-04-26T09:51:47.999Z</time></trkpt><trkpt lat="37.592076967328246" lon="14.03256903857021"><ele>611.0</ele><time>2026-04-26T09:51:50.999Z</time></trkpt><trkpt lat="37.59221135376431" lon="14.032565112643402"><ele>611.0</ele><time>2026-04-26T09:51:52.999Z</time></trkpt><trkpt lat="37.59233621899035" lon="14.032528527686644"><ele>611.0</ele><time>2026-04-26T09:51:54.999Z</time></trkpt><trkpt lat="37.59239848444054" lon="14.032500268193424"><ele>611.0</ele><time>2026-04-26T09:51:55.999Z</time></trkpt><trkpt lat="37.59252441844665" lon="14.032484040964926"><ele>611.2</ele><time>2026-04-26T09:51:57.999Z</time></trkpt><trkpt lat="37.59263843283996" lon="14.032447429258829"><ele>611.4000000000001</ele><time>2026-04-26T09:51:59.999Z</time></trkpt><trkpt lat="37.592741170612655" lon="14.032405449235863"><ele>611.6</ele><time>2026-04-26T09:52:01.999Z</time></trkpt><trkpt lat="37.59282399465675" lon="14.032355005127593"><ele>611.8000000000001</ele><time>2026-04-26T09:52:03.999Z</time></trkpt><trkpt lat="37.59290797125846" lon="14.03232811845366"><ele>612.0</ele><time>2026-04-26T09:52:05.999Z</time></trkpt><trkpt lat="37.5930048762383" lon="14.032316309876457"><ele>611.4</ele><time>2026-04-26T09:52:07.998Z</time></trkpt><trkpt lat="37.593113202355234" lon="14.032316523717478"><ele>610.8000000000001</ele><time>2026-04-26T09:52:10Z</time></trkpt><trkpt lat="37.59324073168334" lon="14.032313212464388"><ele>610.2</ele><time>2026-04-26T09:52:12Z</time></trkpt><trkpt lat="37.59332123343099" lon="14.032310458519246"><ele>609.6</ele><time>2026-04-26T09:52:13Z</time></trkpt><trkpt lat="37.593409005416255" lon="14.032301236368406"><ele>609.0</ele><time>2026-04-26T09:52:14Z</time></trkpt><trkpt lat="37.593486938927306" lon="14.032301071288273"><ele>609.0</ele><time>2026-04-26T09:52:15Z</time></trkpt><trkpt lat="37.59356449679815" lon="14.032298243453178"><ele>609.0</ele><time>2026-04-26T09:52:16Z</time></trkpt><trkpt lat="37.59363837276919" lon="14.03229005216065"><ele>609.0</ele><time>2026-04-26T09:52:17Z</time></trkpt><trkpt lat="37.59370853615909" lon="14.03228646348107"><ele>609.0</ele><time>2026-04-26T09:52:18Z</time></trkpt><trkpt lat="37.593779101764135" lon="14.032284591737948"><ele>609.0</ele><time>2026-04-26T09:52:19Z</time></trkpt><trkpt lat="37.59384871225489" lon="14.032285862160574"><ele>609.0</ele><time>2026-04-26T09:52:20Z</time></trkpt><trkpt lat="37.5939168950172" lon="14.032284815738993"><ele>609.0</ele><time>2026-04-26T09:52:21Z</time></trkpt><trkpt lat="37.59398400584781" lon="14.03228619141735"><ele>606.7142857142857</ele><time>2026-04-26T09:52:22Z</time></trkpt><trkpt lat="37.59404840235934" lon="14.03228807964278"><ele>604.4285714285714</ele><time>2026-04-26T09:52:23Z</time></trkpt><trkpt lat="37.5941116661916" lon="14.032287333467135"><ele>602.1428571428571</ele><time>2026-04-26T09:52:24Z</time></trkpt><trkpt lat="37.59418225119252" lon="14.032299187019937"><ele>599.8571428571429</ele><time>2026-04-26T09:52:25Z</time></trkpt><trkpt lat="37.59425619228443" lon="14.032319668302168"><ele>597.5714285714286</ele><time>2026-04-26T09:52:26Z</time></trkpt><trkpt lat="37.5943330936162" lon="14.032343379349113"><ele>595.2857142857142</ele><time>2026-04-26T09:52:27Z</time></trkpt><trkpt lat="37.594413223971564" lon="14.03237498505085"><ele>593.0</ele><time>2026-04-26T09:52:28Z</time></trkpt><trkpt lat="37.5944958759376" lon="14.03240898300662"><ele>590.1999999999999</ele><time>2026-04-26T09:52:29Z</time></trkpt><trkpt lat="37.594580659753824" lon="14.032450549926807"><ele>587.4</ele><time>2026-04-26T09:52:30Z</time></trkpt><trkpt lat="37.5946696084912" lon="14.032499891196391"><ele>584.5999999999999</ele><time>2026-04-26T09:52:31Z</time></trkpt><trkpt lat="37.59475827023692" lon="14.032556687641083"><ele>581.8</ele><time>2026-04-26T09:52:32Z</time></trkpt><trkpt lat="37.59484536831919" lon="14.032613159368477"><ele>579.0</ele><time>2026-04-26T09:52:33Z</time></trkpt><trkpt lat="37.59492938735735" lon="14.032668440116538"><ele>578.1666666666666</ele><time>2026-04-26T09:52:34Z</time></trkpt><trkpt lat="37.59501099381226" lon="14.03272121064812"><ele>577.3333333333334</ele><time>2026-04-26T09:52:35Z</time></trkpt><trkpt lat="37.59509162752505" lon="14.032768598562907"><ele>576.5</ele><time>2026-04-26T09:52:36Z</time></trkpt><trkpt lat="37.59517940191742" lon="14.032794078141452"><ele>575.6666666666667</ele><time>2026-04-26T09:52:37Z</time></trkpt><trkpt lat="37.59525966251157" lon="14.032836530287929"><ele>574.8333333333334</ele><time>2026-04-26T09:52:38Z</time></trkpt><trkpt lat="37.59534012020245" lon="14.03287834780432"><ele>574.0</ele><time>2026-04-26T09:52:39Z</time></trkpt><trkpt lat="37.59542157085686" lon="14.032909428739767"><ele>572.7142857142857</ele><time>2026-04-26T09:52:40Z</time></trkpt><trkpt lat="37.59549625384745" lon="14.032928863062414"><ele>571.4285714285714</ele><time>2026-04-26T09:52:41Z</time></trkpt><trkpt lat="37.595572451194926" lon="14.032940476305887"><ele>570.1428571428571</ele><time>2026-04-26T09:52:42Z</time></trkpt><trkpt lat="37.59564196038848" lon="14.03294743262321"><ele>568.8571428571429</ele><time>2026-04-26T09:52:43Z</time></trkpt><trkpt lat="37.59570563151859" lon="14.03295596172257"><ele>567.5714285714286</ele><time>2026-04-26T09:52:44Z</time></trkpt><trkpt lat="37.5957695479359" lon="14.032965429893698"><ele>566.2857142857142</ele><time>2026-04-26T09:52:45Z</time></trkpt><trkpt lat="37.595837509900186" lon="14.032974339075901"><ele>565.0</ele><time>2026-04-26T09:52:46Z</time></trkpt><trkpt lat="37.595905054204756" lon="14.03298245675837"><ele>564.9999999999999</ele><time>2026-04-26T09:52:47Z</time></trkpt><trkpt lat="37.59597249769196" lon="14.032997678104163"><ele>565.0</ele><time>2026-04-26T09:52:48Z</time></trkpt><trkpt lat="37.596044085027735" lon="14.033011994814007"><ele>565.0</ele><time>2026-04-26T09:52:49Z</time></trkpt><trkpt lat="37.59611094357242" lon="14.033028521009463"><ele>565.0</ele><time>2026-04-26T09:52:50Z</time></trkpt><trkpt lat="37.59617569881997" lon="14.033057705746685"><ele>565.0</ele><time>2026-04-26T09:52:51Z</time></trkpt><trkpt lat="37.59623745493204" lon="14.033082196344312"><ele>564.9999999999999</ele><time>2026-04-26T09:52:52Z</time></trkpt><trkpt lat="37.59630251640306" lon="14.033094390536297"><ele>565.0</ele><time>2026-04-26T09:52:53Z</time></trkpt><trkpt lat="37.59642882189419" lon="14.033122611028485"><ele>563.1428571428571</ele><time>2026-04-26T09:52:55Z</time></trkpt><trkpt lat="37.596492293604" lon="14.033155488142354"><ele>561.2857142857142</ele><time>2026-04-26T09:52:56Z</time></trkpt><trkpt lat="37.59655801615869" lon="14.03317064379626"><ele>559.4285714285714</ele><time>2026-04-26T09:52:57Z</time></trkpt><trkpt lat="37.59662450265931" lon="14.03318597560376"><ele>557.5714285714286</ele><time>2026-04-26T09:52:58Z</time></trkpt><trkpt lat="37.59669755513381" lon="14.033202821523656"><ele>555.7142857142858</ele><time>2026-04-26T09:52:59Z</time></trkpt><trkpt lat="37.59676858012437" lon="14.03322260064363"><ele>553.8571428571429</ele><time>2026-04-26T09:53:00Z</time></trkpt><trkpt lat="37.596836688206494" lon="14.033247276504534"><ele>552.0</ele><time>2026-04-26T09:53:01Z</time></trkpt><trkpt lat="37.59690521536532" lon="14.033276700311864"><ele>551.6666666666666</ele><time>2026-04-26T09:53:01.999Z</time></trkpt><trkpt lat="37.596975918882315" lon="14.033310031087957"><ele>551.3333333333334</ele><time>2026-04-26T09:53:02.999Z</time></trkpt><trkpt lat="37.597036006618595" lon="14.033343909796962"><ele>551.0</ele><time>2026-04-26T09:53:03.999Z</time></trkpt><trkpt lat="37.59709133405991" lon="14.033381914579058"><ele>550.6666666666667</ele><time>2026-04-26T09:53:04.999Z</time></trkpt><trkpt lat="37.59717909866642" lon="14.033469208085098"><ele>550.3333333333334</ele><time>2026-04-26T09:53:06.999Z</time></trkpt><trkpt lat="37.597246705665775" lon="14.033569312900985"><ele>550.0</ele><time>2026-04-26T09:53:08.999Z</time></trkpt><trkpt lat="37.59732801116091" lon="14.033639114256268"><ele>547.2</ele><time>2026-04-26T09:53:10.999Z</time></trkpt><trkpt lat="37.59739676120907" lon="14.033692140589542"><ele>544.4</ele><time>2026-04-26T09:53:12.999Z</time></trkpt><trkpt lat="37.597477414999496" lon="14.033683974696283"><ele>541.6</ele><time>2026-04-26T09:53:14.999Z</time></trkpt><trkpt lat="37.59759021684674" lon="14.033693181586408"><ele>538.8</ele><time>2026-04-26T09:53:16.999Z</time></trkpt><trkpt lat="37.59771052414315" lon="14.033676460290478"><ele>536.0</ele><time>2026-04-26T09:53:18.999Z</time></trkpt><trkpt lat="37.59778193498401" lon="14.033656644381267"><ele>532.8333333333333</ele><time>2026-04-26T09:53:19.999Z</time></trkpt><trkpt lat="37.59785042904582" lon="14.033630509312644"><ele>529.6666666666666</ele><time>2026-04-26T09:53:20.999Z</time></trkpt><trkpt lat="37.59791512180071" lon="14.033611775383976"><ele>526.5</ele><time>2026-04-26T09:53:21.999Z</time></trkpt><trkpt lat="37.59797763560788" lon="14.033596218555772"><ele>523.3333333333334</ele><time>2026-04-26T09:53:22.999Z</time></trkpt><trkpt lat="37.59808740580074" lon="14.03359226815591"><ele>520.1666666666667</ele><time>2026-04-26T09:53:24.999Z</time></trkpt><trkpt lat="37.59819062248439" lon="14.033566311465446"><ele>517.0</ele><time>2026-04-26T09:53:26.999Z</time></trkpt><trkpt lat="37.59828239197164" lon="14.03351548150919"><ele>517.0</ele><time>2026-04-26T09:53:28.999Z</time></trkpt><trkpt lat="37.598385583376206" lon="14.033458896452036"><ele>517.0</ele><time>2026-04-26T09:53:30.999Z</time></trkpt><trkpt lat="37.59850013823351" lon="14.03339953403703"><ele>517.0</ele><time>2026-04-26T09:53:32.999Z</time></trkpt><trkpt lat="37.5986026249155" lon="14.033369387494213"><ele>517.0</ele><time>2026-04-26T09:53:34.999Z</time></trkpt><trkpt lat="37.59867890791516" lon="14.033393283203267"><ele>517.0</ele><time>2026-04-26T09:53:36.999Z</time></trkpt><trkpt lat="37.5987853949162" lon="14.033439182237782"><ele>513.0</ele><time>2026-04-26T09:53:37.999Z</time></trkpt><trkpt lat="37.59886129982706" lon="14.033452983119801"><ele>509.00000000000006</ele><time>2026-04-26T09:53:38.999Z</time></trkpt><trkpt lat="37.59897651236437" lon="14.033460411075884"><ele>505.00000000000006</ele><time>2026-04-26T09:53:40.999Z</time></trkpt><trkpt lat="37.59908784847282" lon="14.033459294119178"><ele>501.0</ele><time>2026-04-26T09:53:42.999Z</time></trkpt><trkpt lat="37.59918615978174" lon="14.033449560433446"><ele>497.0</ele><time>2026-04-26T09:53:44.999Z</time></trkpt><trkpt lat="37.59927840114383" lon="14.033402006824339"><ele>496.99999999999994</ele><time>2026-04-26T09:53:46.999Z</time></trkpt><trkpt lat="37.59934063167027" lon="14.033322546945717"><ele>497.0</ele><time>2026-04-26T09:53:48.999Z</time></trkpt><trkpt lat="37.5993375204644" lon="14.033191675655093"><ele>497.0</ele><time>2026-04-26T09:53:50.999Z</time></trkpt><trkpt lat="37.59931303540369" lon="14.03308888263322"><ele>497.0</ele><time>2026-04-26T09:53:52.999Z</time></trkpt><trkpt lat="37.59931265608698" lon="14.033004832756005"><ele>496.99999999999994</ele><time>2026-04-26T09:53:54.999Z</time></trkpt><trkpt lat="37.59936342337524" lon="14.03293634593525"><ele>497.0</ele><time>2026-04-26T09:53:56.999Z</time></trkpt><trkpt lat="37.599436590600845" lon="14.032899231410351"><ele>496.1428571428571</ele><time>2026-04-26T09:53:58.999Z</time></trkpt><trkpt lat="37.59951045951695" lon="14.032846248796218"><ele>495.2857142857143</ele><time>2026-04-26T09:54:00.999Z</time></trkpt><trkpt lat="37.599573611493064" lon="14.032825717766713"><ele>494.42857142857144</ele><time>2026-04-26T09:54:08.999Z</time></trkpt><trkpt lat="37.59965177079598" lon="14.032870971100067"><ele>493.57142857142856</ele><time>2026-04-26T09:54:11.998Z</time></trkpt><trkpt lat="37.599711201104846" lon="14.0329070975621"><ele>492.71428571428567</ele><time>2026-04-26T09:54:13.998Z</time></trkpt><trkpt lat="37.59977756902838" lon="14.032939877029227"><ele>491.85714285714283</ele><time>2026-04-26T09:54:16Z</time></trkpt><trkpt lat="37.59972607064824" lon="14.032893485206682"><ele>491.0</ele><time>2026-04-26T09:55:37.999Z</time></trkpt><trkpt lat="37.59979015871207" lon="14.032945787134299"><ele>490.99999999999994</ele><time>2026-04-26T09:55:44.999Z</time></trkpt><trkpt lat="37.59985577468933" lon="14.032972579454881"><ele>491.0</ele><time>2026-04-26T09:55:53.999Z</time></trkpt><trkpt lat="37.59995350117115" lon="14.032977975047286"><ele>491.0</ele><time>2026-04-26T09:55:55.999Z</time></trkpt><trkpt lat="37.60006027719954" lon="14.032947624577742"><ele>491.0</ele><time>2026-04-26T09:55:57.999Z</time></trkpt><trkpt lat="37.60012424632537" lon="14.03293218951499"><ele>490.99999999999994</ele><time>2026-04-26T09:55:58.999Z</time></trkpt><trkpt lat="37.60019096268512" lon="14.032931105284892"><ele>491.0</ele><time>2026-04-26T09:55:59.999Z</time></trkpt><trkpt lat="37.60025616360823" lon="14.032938228830186"><ele>491.0</ele><time>2026-04-26T09:56:00.999Z</time></trkpt><trkpt lat="37.60032869657219" lon="14.032927699973987"><ele>490.99999999999994</ele><time>2026-04-26T09:56:01.999Z</time></trkpt><trkpt lat="37.60040116634576" lon="14.03291931461666"><ele>491.0</ele><time>2026-04-26T09:56:02.999Z</time></trkpt><trkpt lat="37.60046895860469" lon="14.032917050425938"><ele>491.0</ele><time>2026-04-26T09:56:03.999Z</time></trkpt><trkpt lat="37.6005352421495" lon="14.032922502378572"><ele>490.99999999999994</ele><time>2026-04-26T09:56:04.999Z</time></trkpt><trkpt lat="37.600605840358085" lon="14.032932076143243"><ele>491.0</ele><time>2026-04-26T09:56:05.999Z</time></trkpt><trkpt lat="37.600679927849065" lon="14.032937717359086"><ele>491.0</ele><time>2026-04-26T09:56:06.999Z</time></trkpt><trkpt lat="37.6007474292771" lon="14.032935584590835"><ele>492.85714285714283</ele><time>2026-04-26T09:56:07.999Z</time></trkpt><trkpt lat="37.60081451736776" lon="14.032934080161654"><ele>494.71428571428567</ele><time>2026-04-26T09:56:08.999Z</time></trkpt><trkpt lat="37.60088502674807" lon="14.032944455343827"><ele>496.57142857142856</ele><time>2026-04-26T09:56:09.999Z</time></trkpt><trkpt lat="37.6009509358134" lon="14.032955849066537"><ele>498.42857142857144</ele><time>2026-04-26T09:56:10.999Z</time></trkpt><trkpt lat="37.601016983662426" lon="14.032963256565376"><ele>500.2857142857143</ele><time>2026-04-26T09:56:11.999Z</time></trkpt><trkpt lat="37.60108933250207" lon="14.032964700700346"><ele>502.1428571428571</ele><time>2026-04-26T09:56:12.999Z</time></trkpt><trkpt lat="37.60115873126677" lon="14.032980748238876"><ele>504.0</ele><time>2026-04-26T09:56:13.999Z</time></trkpt><trkpt lat="37.60122728899007" lon="14.032987688114272"><ele>506.57142857142856</ele><time>2026-04-26T09:56:14.998Z</time></trkpt><trkpt lat="37.60129369694723" lon="14.032960610850566"><ele>509.1428571428571</ele><time>2026-04-26T09:56:15.998Z</time></trkpt><trkpt lat="37.60136044277791" lon="14.032967631401833"><ele>511.7142857142857</ele><time>2026-04-26T09:56:16.998Z</time></trkpt><trkpt lat="37.601433496514225" lon="14.032975061109706"><ele>514.2857142857142</ele><time>2026-04-26T09:56:17.998Z</time></trkpt><trkpt lat="37.60151199970594" lon="14.032987148992273"><ele>516.8571428571429</ele><time>2026-04-26T09:56:18.998Z</time></trkpt><trkpt lat="37.601589013196765" lon="14.033001459428881"><ele>519.4285714285714</ele><time>2026-04-26T09:56:19.998Z</time></trkpt><trkpt lat="37.60166316716033" lon="14.033012658937988"><ele>522.0</ele><time>2026-04-26T09:56:21Z</time></trkpt><trkpt lat="37.601736500396605" lon="14.033020348694425"><ele>522.0</ele><time>2026-04-26T09:56:22Z</time></trkpt><trkpt lat="37.60181938590651" lon="14.033001802580698"><ele>522.0</ele><time>2026-04-26T09:56:23Z</time></trkpt><trkpt lat="37.6019002192289" lon="14.032954991677366"><ele>522.0</ele><time>2026-04-26T09:56:24Z</time></trkpt><trkpt lat="37.60198352727051" lon="14.032913709074089"><ele>522.0</ele><time>2026-04-26T09:56:25Z</time></trkpt><trkpt lat="37.60205848960559" lon="14.032873823049151"><ele>522.0</ele><time>2026-04-26T09:56:26Z</time></trkpt><trkpt lat="37.602131314438644" lon="14.032829893439583"><ele>522.0</ele><time>2026-04-26T09:56:27Z</time></trkpt><trkpt lat="37.602198862036595" lon="14.032786558834411"><ele>525.0</ele><time>2026-04-26T09:56:28Z</time></trkpt><trkpt lat="37.60226358097725" lon="14.03274606930367"><ele>528.0</ele><time>2026-04-26T09:56:29Z</time></trkpt><trkpt lat="37.60232947962526" lon="14.032702353280342"><ele>531.0</ele><time>2026-04-26T09:56:30Z</time></trkpt><trkpt lat="37.60239229453134" lon="14.032654133069663"><ele>534.0</ele><time>2026-04-26T09:56:31Z</time></trkpt><trkpt lat="37.60245582480091" lon="14.032601547435648"><ele>537.0</ele><time>2026-04-26T09:56:32Z</time></trkpt><trkpt lat="37.60255541161905" lon="14.03254619520415"><ele>540.0</ele><time>2026-04-26T09:56:34Z</time></trkpt><trkpt lat="37.602663083658996" lon="14.032524161819392"><ele>540.0</ele><time>2026-04-26T09:56:36Z</time></trkpt><trkpt lat="37.60278258316911" lon="14.032514490783392"><ele>540.0</ele><time>2026-04-26T09:56:38Z</time></trkpt><trkpt lat="37.60285574663243" lon="14.032507199867014"><ele>540.0</ele><time>2026-04-26T09:56:39Z</time></trkpt><trkpt lat="37.60293560503298" lon="14.032482829984946"><ele>540.0</ele><time>2026-04-26T09:56:40Z</time></trkpt><trkpt lat="37.60301613950739" lon="14.032448533607116"><ele>540.0</ele><time>2026-04-26T09:56:41Z</time></trkpt><trkpt lat="37.6030974017408" lon="14.032419061119684"><ele>540.0</ele><time>2026-04-26T09:56:42Z</time></trkpt><trkpt lat="37.603180879127386" lon="14.032385870596624"><ele>542.3333333333334</ele><time>2026-04-26T09:56:43Z</time></trkpt><trkpt lat="37.60326027622874" lon="14.032350810109845"><ele>544.6666666666666</ele><time>2026-04-26T09:56:44Z</time></trkpt><trkpt lat="37.60333639542541" lon="14.032317692518898"><ele>547.0</ele><time>2026-04-26T09:56:45Z</time></trkpt><trkpt lat="37.60340837909941" lon="14.032274544399133"><ele>549.3333333333333</ele><time>2026-04-26T09:56:46Z</time></trkpt><trkpt lat="37.60348573446616" lon="14.032229906529631"><ele>551.6666666666666</ele><time>2026-04-26T09:56:47Z</time></trkpt><trkpt lat="37.60356964410564" lon="14.032196127842628"><ele>554.0</ele><time>2026-04-26T09:56:48Z</time></trkpt><trkpt lat="37.6036494146642" lon="14.032160654492746"><ele>556.5</ele><time>2026-04-26T09:56:49Z</time></trkpt><trkpt lat="37.60372567490493" lon="14.032130700536117"><ele>559.0</ele><time>2026-04-26T09:56:50Z</time></trkpt><trkpt lat="37.60379705562432" lon="14.03211667301082"><ele>561.5</ele><time>2026-04-26T09:56:51Z</time></trkpt><trkpt lat="37.603877771328634" lon="14.032113090412993"><ele>564.0</ele><time>2026-04-26T09:56:52Z</time></trkpt><trkpt lat="37.603960790420096" lon="14.032121024823653"><ele>566.5</ele><time>2026-04-26T09:56:53Z</time></trkpt><trkpt lat="37.60403711741727" lon="14.032133090813298"><ele>569.0</ele><time>2026-04-26T09:56:54Z</time></trkpt><trkpt lat="37.60411917498543" lon="14.032149200814448"><ele>569.0</ele><time>2026-04-26T09:56:55Z</time></trkpt><trkpt lat="37.60419923538529" lon="14.03215894042949"><ele>569.0</ele><time>2026-04-26T09:56:56Z</time></trkpt><trkpt lat="37.60428402926311" lon="14.032165414683611"><ele>569.0</ele><time>2026-04-26T09:56:57Z</time></trkpt><trkpt lat="37.60437049323268" lon="14.032154563646257"><ele>569.0</ele><time>2026-04-26T09:56:58Z</time></trkpt><trkpt lat="37.604456454480896" lon="14.032137615166068"><ele>569.0</ele><time>2026-04-26T09:56:59Z</time></trkpt><trkpt lat="37.604531609373836" lon="14.032124441922232"><ele>569.0</ele><time>2026-04-26T09:57:00Z</time></trkpt><trkpt lat="37.60461211352882" lon="14.032131647530965"><ele>571.3333333333333</ele><time>2026-04-26T09:57:01Z</time></trkpt><trkpt lat="37.60469527752106" lon="14.032152096804221"><ele>573.6666666666666</ele><time>2026-04-26T09:57:02Z</time></trkpt><trkpt lat="37.604776615689644" lon="14.03216733586351"><ele>576.0</ele><time>2026-04-26T09:57:03Z</time></trkpt><trkpt lat="37.60486354779028" lon="14.032184060475506"><ele>578.3333333333334</ele><time>2026-04-26T09:57:04Z</time></trkpt><trkpt lat="37.60494402119958" lon="14.032190414732554"><ele>580.6666666666667</ele><time>2026-04-26T09:57:05Z</time></trkpt><trkpt lat="37.60501795991025" lon="14.032189679198392"><ele>583.0</ele><time>2026-04-26T09:57:06Z</time></trkpt><trkpt lat="37.605087377796885" lon="14.032190114628564"><ele>583.0000000000001</ele><time>2026-04-26T09:57:07Z</time></trkpt><trkpt lat="37.605150385265986" lon="14.032183752751878"><ele>583.0</ele><time>2026-04-26T09:57:08Z</time></trkpt><trkpt lat="37.605228379530246" lon="14.032164735992959"><ele>583.0</ele><time>2026-04-26T09:57:09Z</time></trkpt><trkpt lat="37.605302792943824" lon="14.032149194936103"><ele>583.0</ele><time>2026-04-26T09:57:10Z</time></trkpt><trkpt lat="37.60538120614676" lon="14.032161590637484"><ele>583.0</ele><time>2026-04-26T09:57:10.999Z</time></trkpt><trkpt lat="37.605453049014635" lon="14.032178596345434"><ele>583.0000000000001</ele><time>2026-04-26T09:57:11.999Z</time></trkpt><trkpt lat="37.6055317495445" lon="14.032188325318403"><ele>583.0</ele><time>2026-04-26T09:57:12.999Z</time></trkpt><trkpt lat="37.605624652020765" lon="14.032194002696667"><ele>585.6</ele><time>2026-04-26T09:57:14.999Z</time></trkpt><trkpt lat="37.605714771325104" lon="14.032240501523289"><ele>588.1999999999999</ele><time>2026-04-26T09:57:16.999Z</time></trkpt><trkpt lat="37.60581375373102" lon="14.032318089425772"><ele>590.8</ele><time>2026-04-26T09:57:18.999Z</time></trkpt><trkpt lat="37.60593887948388" lon="14.032354077857715"><ele>593.4</ele><time>2026-04-26T09:57:20.999Z</time></trkpt><trkpt lat="37.606004320723" lon="14.032375508845218"><ele>596.0</ele><time>2026-04-26T09:57:21.999Z</time></trkpt><trkpt lat="37.60608331742029" lon="14.032400724877913"><ele>598.3333333333333</ele><time>2026-04-26T09:57:22.999Z</time></trkpt><trkpt lat="37.606174512301706" lon="14.03242859097861"><ele>600.6666666666666</ele><time>2026-04-26T09:57:23.999Z</time></trkpt><trkpt lat="37.60626498632884" lon="14.032456908163976"><ele>603.0</ele><time>2026-04-26T09:57:24.999Z</time></trkpt><trkpt lat="37.60634326467906" lon="14.03248564323266"><ele>605.3333333333334</ele><time>2026-04-26T09:57:25.999Z</time></trkpt><trkpt lat="37.60641768146309" lon="14.032510144425535"><ele>607.6666666666667</ele><time>2026-04-26T09:57:26.999Z</time></trkpt><trkpt lat="37.606499811929055" lon="14.03254591851508"><ele>610.0</ele><time>2026-04-26T09:57:27.999Z</time></trkpt><trkpt lat="37.60657683363959" lon="14.032591571554557"><ele>611.6666666666667</ele><time>2026-04-26T09:57:28.999Z</time></trkpt><trkpt lat="37.60665025943897" lon="14.032647854593339"><ele>613.3333333333334</ele><time>2026-04-26T09:57:29.999Z</time></trkpt><trkpt lat="37.606723679322464" lon="14.032701608766049"><ele>615.0</ele><time>2026-04-26T09:57:30.999Z</time></trkpt><trkpt lat="37.60680526283865" lon="14.032758574053576"><ele>616.6666666666666</ele><time>2026-04-26T09:57:31.999Z</time></trkpt><trkpt lat="37.60688495128259" lon="14.032806278253954"><ele>618.3333333333333</ele><time>2026-04-26T09:57:32.999Z</time></trkpt><trkpt lat="37.606961677612425" lon="14.032852918705467"><ele>620.0</ele><time>2026-04-26T09:57:33.999Z</time></trkpt><trkpt lat="37.60704295817177" lon="14.032904830034454"><ele>622.0</ele><time>2026-04-26T09:57:34.999Z</time></trkpt><trkpt lat="37.60712639051546" lon="14.032949713970005"><ele>624.0</ele><time>2026-04-26T09:57:35.999Z</time></trkpt><trkpt lat="37.60721577423632" lon="14.03298848291716"><ele>626.0</ele><time>2026-04-26T09:57:36.999Z</time></trkpt><trkpt lat="37.60730389551016" lon="14.033026269199356"><ele>628.0</ele><time>2026-04-26T09:57:37.999Z</time></trkpt><trkpt lat="37.60739168688079" lon="14.033064516833493"><ele>630.0</ele><time>2026-04-26T09:57:38.999Z</time></trkpt><trkpt lat="37.60748045132403" lon="14.033097095463921"><ele>630.0</ele><time>2026-04-26T09:57:39.999Z</time></trkpt><trkpt lat="37.60756469349995" lon="14.03311972878027"><ele>630.0</ele><time>2026-04-26T09:57:40.999Z</time></trkpt><trkpt lat="37.60764411988663" lon="14.033142378701458"><ele>630.0</ele><time>2026-04-26T09:57:41.999Z</time></trkpt><trkpt lat="37.607712229774656" lon="14.033162947781952"><ele>630.0</ele><time>2026-04-26T09:57:42.999Z</time></trkpt><trkpt lat="37.607829602807556" lon="14.03321788139003"><ele>630.0</ele><time>2026-04-26T09:57:44.999Z</time></trkpt><trkpt lat="37.607883604199564" lon="14.033264925494448"><ele>630.0</ele><time>2026-04-26T09:57:45.999Z</time></trkpt><trkpt lat="37.60794592567958" lon="14.033337814623238"><ele>631.8</ele><time>2026-04-26T09:57:47.999Z</time></trkpt><trkpt lat="37.60805356279688" lon="14.03336112796827"><ele>633.6</ele><time>2026-04-26T09:58:04.999Z</time></trkpt><trkpt lat="37.608167892768854" lon="14.033417122067615"><ele>635.4</ele><time>2026-04-26T09:58:06.999Z</time></trkpt><trkpt lat="37.608281637038026" lon="14.033479793987633"><ele>637.2</ele><time>2026-04-26T09:58:08.999Z</time></trkpt><trkpt lat="37.60834713656807" lon="14.03351079210315"><ele>639.0</ele><time>2026-04-26T09:58:09.999Z</time></trkpt><trkpt lat="37.6084170425549" lon="14.033542775569659"><ele>639.0</ele><time>2026-04-26T09:58:10.999Z</time></trkpt><trkpt lat="37.60849292783912" lon="14.033566942965564"><ele>639.0</ele><time>2026-04-26T09:58:11.999Z</time></trkpt><trkpt lat="37.608574532853105" lon="14.03358600827734"><ele>639.0</ele><time>2026-04-26T09:58:12.999Z</time></trkpt><trkpt lat="37.60866299101117" lon="14.033604947492773"><ele>639.0</ele><time>2026-04-26T09:58:13.999Z</time></trkpt><trkpt lat="37.608750042960246" lon="14.033627451021044"><ele>639.0</ele><time>2026-04-26T09:58:14.999Z</time></trkpt><trkpt lat="37.608841981705694" lon="14.033660750374542"><ele>639.0</ele><time>2026-04-26T09:58:15.999Z</time></trkpt><trkpt lat="37.60894439375282" lon="14.033692061396035"><ele>638.8</ele><time>2026-04-26T09:58:16.999Z</time></trkpt><trkpt lat="37.60904793466472" lon="14.033718573921949"><ele>638.5999999999999</ele><time>2026-04-26T09:58:17.999Z</time></trkpt><trkpt lat="37.6091499782063" lon="14.033744237772094"><ele>638.4</ele><time>2026-04-26T09:58:18.999Z</time></trkpt><trkpt lat="37.60924766121865" lon="14.033773480696633"><ele>638.1999999999999</ele><time>2026-04-26T09:58:19.999Z</time></trkpt><trkpt lat="37.60933708087212" lon="14.033806855590434"><ele>638.0</ele><time>2026-04-26T09:58:20.998Z</time></trkpt><trkpt lat="37.60941782279572" lon="14.033845141253941"><ele>639.8</ele><time>2026-04-26T09:58:21.998Z</time></trkpt><trkpt lat="37.609504453589786" lon="14.033885107741071"><ele>641.5999999999999</ele><time>2026-04-26T09:58:22.998Z</time></trkpt><trkpt lat="37.609592993937575" lon="14.03392636026745"><ele>643.4000000000001</ele><time>2026-04-26T09:58:23.998Z</time></trkpt><trkpt lat="37.60968437651649" lon="14.03396512438222"><ele>645.2</ele><time>2026-04-26T09:58:24.998Z</time></trkpt><trkpt lat="37.60978070102135" lon="14.034004353441473"><ele>647.0</ele><time>2026-04-26T09:58:25.998Z</time></trkpt><trkpt lat="37.60987097689549" lon="14.034039745193052"><ele>647.0</ele><time>2026-04-26T09:58:27Z</time></trkpt><trkpt lat="37.609966795650415" lon="14.034063348604178"><ele>647.0</ele><time>2026-04-26T09:58:28Z</time></trkpt><trkpt lat="37.6100653134925" lon="14.03408164534096"><ele>647.0</ele><time>2026-04-26T09:58:29Z</time></trkpt><trkpt lat="37.61015985980601" lon="14.034092949838232"><ele>647.0</ele><time>2026-04-26T09:58:30Z</time></trkpt><trkpt lat="37.61024375563572" lon="14.034090434667368"><ele>647.0</ele><time>2026-04-26T09:58:31Z</time></trkpt><trkpt lat="37.610326917847225" lon="14.034067664734078"><ele>649.0</ele><time>2026-04-26T09:58:32Z</time></trkpt><trkpt lat="37.61040967197007" lon="14.034020307177514"><ele>651.0</ele><time>2026-04-26T09:58:33Z</time></trkpt><trkpt lat="37.61048416635066" lon="14.033944914421246"><ele>653.0</ele><time>2026-04-26T09:58:34Z</time></trkpt><trkpt lat="37.61055159089365" lon="14.033879000653837"><ele>655.0</ele><time>2026-04-26T09:58:35Z</time></trkpt><trkpt lat="37.61061566463394" lon="14.033833482314137"><ele>657.0</ele><time>2026-04-26T09:58:36Z</time></trkpt><trkpt lat="37.61068286865911" lon="14.033794660207104"><ele>659.0</ele><time>2026-04-26T09:58:37Z</time></trkpt><trkpt lat="37.610759158812925" lon="14.033755545678742"><ele>659.0</ele><time>2026-04-26T09:58:38Z</time></trkpt><trkpt lat="37.610831954777176" lon="14.033721334251243"><ele>659.0</ele><time>2026-04-26T09:58:39Z</time></trkpt><trkpt lat="37.61091852644476" lon="14.033683955614281"><ele>659.0</ele><time>2026-04-26T09:58:40Z</time></trkpt><trkpt lat="37.61099933368748" lon="14.033641380142946"><ele>659.0</ele><time>2026-04-26T09:58:41Z</time></trkpt><trkpt lat="37.611082736841425" lon="14.033590819378094"><ele>659.0</ele><time>2026-04-26T09:58:42Z</time></trkpt><trkpt lat="37.61115527565203" lon="14.033552693948499"><ele>659.0</ele><time>2026-04-26T09:58:43Z</time></trkpt><trkpt lat="37.6112240264071" lon="14.033524422096127"><ele>660.2</ele><time>2026-04-26T09:58:44Z</time></trkpt><trkpt lat="37.611308870093396" lon="14.03350422733561"><ele>661.4000000000001</ele><time>2026-04-26T09:58:45Z</time></trkpt><trkpt lat="37.611406304595285" lon="14.033490580340816"><ele>662.6</ele><time>2026-04-26T09:58:46Z</time></trkpt><trkpt lat="37.611506263230666" lon="14.033491637324826"><ele>663.8</ele><time>2026-04-26T09:58:47Z</time></trkpt><trkpt lat="37.611600464632616" lon="14.033500809673413"><ele>665.0</ele><time>2026-04-26T09:58:48Z</time></trkpt><trkpt lat="37.6116929416369" lon="14.033508696687766"><ele>665.0</ele><time>2026-04-26T09:58:49Z</time></trkpt><trkpt lat="37.61177886548093" lon="14.033518823932125"><ele>665.0</ele><time>2026-04-26T09:58:50Z</time></trkpt><trkpt lat="37.61185975237746" lon="14.033541941420873"><ele>665.0</ele><time>2026-04-26T09:58:51Z</time></trkpt><trkpt lat="37.611943897738534" lon="14.033558511322385"><ele>665.0</ele><time>2026-04-26T09:58:52Z</time></trkpt><trkpt lat="37.61203531370363" lon="14.033556242591757"><ele>665.0</ele><time>2026-04-26T09:58:53Z</time></trkpt><trkpt lat="37.612128808836985" lon="14.033545061520437"><ele>665.0</ele><time>2026-04-26T09:58:54Z</time></trkpt><trkpt lat="37.61221887102098" lon="14.033542823193093"><ele>666.4</ele><time>2026-04-26T09:58:55Z</time></trkpt><trkpt lat="37.61231304986235" lon="14.033542568706014"><ele>667.8</ele><time>2026-04-26T09:58:56Z</time></trkpt><trkpt lat="37.612411317781884" lon="14.033546694196616"><ele>669.2</ele><time>2026-04-26T09:58:57Z</time></trkpt><trkpt lat="37.61250892713265" lon="14.033555704621866"><ele>670.6</ele><time>2026-04-26T09:58:58Z</time></trkpt><trkpt lat="37.61260160284835" lon="14.033564691785315"><ele>672.0</ele><time>2026-04-26T09:58:59Z</time></trkpt><trkpt lat="37.61269430649332" lon="14.033566280962372"><ele>672.0</ele><time>2026-04-26T09:59:00Z</time></trkpt><trkpt lat="37.61278895395272" lon="14.03356039369608"><ele>672.0</ele><time>2026-04-26T09:59:01Z</time></trkpt><trkpt lat="37.612886332396464" lon="14.03356258136378"><ele>672.0</ele><time>2026-04-26T09:59:02Z</time></trkpt><trkpt lat="37.61298017904296" lon="14.033558520211729"><ele>672.0</ele><time>2026-04-26T09:59:03Z</time></trkpt><trkpt lat="37.613077952802534" lon="14.033563591927871"><ele>672.0</ele><time>2026-04-26T09:59:04Z</time></trkpt><trkpt lat="37.61317989038368" lon="14.03358602954761"><ele>674.0</ele><time>2026-04-26T09:59:05Z</time></trkpt><trkpt lat="37.613286477897965" lon="14.033616126675522"><ele>676.0</ele><time>2026-04-26T09:59:06Z</time></trkpt><trkpt lat="37.61340124099863" lon="14.033645657003218"><ele>678.0</ele><time>2026-04-26T09:59:07Z</time></trkpt><trkpt lat="37.61351706760073" lon="14.033675002788948"><ele>680.0</ele><time>2026-04-26T09:59:08Z</time></trkpt><trkpt lat="37.61361765945737" lon="14.03370736043047"><ele>682.0</ele><time>2026-04-26T09:59:09Z</time></trkpt><trkpt lat="37.61370698261832" lon="14.03373621126321"><ele>682.8333333333334</ele><time>2026-04-26T09:59:10Z</time></trkpt><trkpt lat="37.61379320846278" lon="14.03375018931198"><ele>683.6666666666667</ele><time>2026-04-26T09:59:11Z</time></trkpt><trkpt lat="37.61386900550217" lon="14.03374259261596"><ele>684.5</ele><time>2026-04-26T09:59:12Z</time></trkpt><trkpt lat="37.61394111154285" lon="14.033743291384871"><ele>685.3333333333334</ele><time>2026-04-26T09:59:13Z</time></trkpt><trkpt lat="37.614007636156074" lon="14.033759347053744"><ele>686.1666666666666</ele><time>2026-04-26T09:59:14Z</time></trkpt><trkpt lat="37.61408502491071" lon="14.033777300692263"><ele>687.0</ele><time>2026-04-26T09:59:15Z</time></trkpt><trkpt lat="37.61417241760854" lon="14.03380160605766"><ele>687.0</ele><time>2026-04-26T09:59:15.999Z</time></trkpt><trkpt lat="37.61426044269065" lon="14.03383179689305"><ele>687.0</ele><time>2026-04-26T09:59:16.999Z</time></trkpt><trkpt lat="37.61434491357104" lon="14.033866470142133"><ele>687.0</ele><time>2026-04-26T09:59:17.999Z</time></trkpt><trkpt lat="37.614422214221605" lon="14.033916313451456"><ele>687.0</ele><time>2026-04-26T09:59:18.999Z</time></trkpt><trkpt lat="37.61450180425055" lon="14.033971739097527"><ele>687.0</ele><time>2026-04-26T09:59:19.999Z</time></trkpt><trkpt lat="37.61458530107452" lon="14.034020481862951"><ele>690.0</ele><time>2026-04-26T09:59:20.999Z</time></trkpt><trkpt lat="37.614670863569884" lon="14.03404880650506"><ele>693.0</ele><time>2026-04-26T09:59:21.999Z</time></trkpt><trkpt lat="37.614747538515985" lon="14.034072082144098"><ele>696.0</ele><time>2026-04-26T09:59:22.999Z</time></trkpt><trkpt lat="37.61486230745833" lon="14.034106981718"><ele>699.0</ele><time>2026-04-26T09:59:24.999Z</time></trkpt><trkpt lat="37.61496916844733" lon="14.03410121198606"><ele>702.0</ele><time>2026-04-26T09:59:26.999Z</time></trkpt><trkpt lat="37.61503265210897" lon="14.034042913799547"><ele>702.0</ele><time>2026-04-26T09:59:28.999Z</time></trkpt><trkpt lat="37.61513453336207" lon="14.034004678174716"><ele>702.0</ele><time>2026-04-26T09:59:30.999Z</time></trkpt><trkpt lat="37.61524775087576" lon="14.034009080802324"><ele>702.0</ele><time>2026-04-26T09:59:32.999Z</time></trkpt><trkpt lat="37.615359553000935" lon="14.033990091866915"><ele>702.0</ele><time>2026-04-26T09:59:34.999Z</time></trkpt><trkpt lat="37.615479036421185" lon="14.033931134504453"><ele>704.6666666666666</ele><time>2026-04-26T09:59:36.999Z</time></trkpt><trkpt lat="37.61553885301591" lon="14.0339021696197"><ele>707.3333333333334</ele><time>2026-04-26T09:59:37.999Z</time></trkpt><trkpt lat="37.61559679909809" lon="14.033864744527307"><ele>710.0</ele><time>2026-04-26T09:59:38.999Z</time></trkpt><trkpt lat="37.615710652108376" lon="14.033801947944816"><ele>712.6666666666667</ele><time>2026-04-26T09:59:40.999Z</time></trkpt><trkpt lat="37.615829230614416" lon="14.033748480224151"><ele>715.3333333333334</ele><time>2026-04-26T09:59:42.999Z</time></trkpt><trkpt lat="37.615890493989625" lon="14.033723254239248"><ele>718.0</ele><time>2026-04-26T09:59:43.999Z</time></trkpt><trkpt lat="37.61594900968129" lon="14.033690085093372"><ele>718.0</ele><time>2026-04-26T09:59:44.999Z</time></trkpt><trkpt lat="37.616015684729646" lon="14.033663110474789"><ele>718.0</ele><time>2026-04-26T09:59:45.999Z</time></trkpt><trkpt lat="37.61607964631394" lon="14.033623230451646"><ele>718.0</ele><time>2026-04-26T09:59:46.999Z</time></trkpt><trkpt lat="37.61616257161631" lon="14.033525513233355"><ele>718.0</ele><time>2026-04-26T09:59:48.999Z</time></trkpt><trkpt lat="37.61625767268626" lon="14.03349438374248"><ele>718.0</ele><time>2026-04-26T09:59:50.999Z</time></trkpt><trkpt lat="37.61636301431679" lon="14.033520921389954"><ele>719.1666666666667</ele><time>2026-04-26T09:59:52.999Z</time></trkpt><trkpt lat="37.61646306508672" lon="14.03355317999941"><ele>720.3333333333334</ele><time>2026-04-26T09:59:54.999Z</time></trkpt><trkpt lat="37.6165314878461" lon="14.033561359283752"><ele>721.5</ele><time>2026-04-26T09:59:55.999Z</time></trkpt><trkpt lat="37.616609530702526" lon="14.033566912646346"><ele>722.6666666666666</ele><time>2026-04-26T09:59:56.999Z</time></trkpt><trkpt lat="37.616695552363204" lon="14.033572753745831"><ele>723.8333333333333</ele><time>2026-04-26T09:59:57.999Z</time></trkpt><trkpt lat="37.6167917733234" lon="14.033564224429321"><ele>725.0</ele><time>2026-04-26T09:59:58.999Z</time></trkpt><trkpt lat="37.61688804700221" lon="14.03354776796327"><ele>725.0</ele><time>2026-04-26T09:59:59.999Z</time></trkpt><trkpt lat="37.61696893600635" lon="14.033531157689746"><ele>725.0</ele><time>2026-04-26T10:00:00.999Z</time></trkpt><trkpt lat="37.61704860948685" lon="14.033519513340524"><ele>725.0</ele><time>2026-04-26T10:00:01.999Z</time></trkpt><trkpt lat="37.61712964824382" lon="14.033518826433466"><ele>725.0</ele><time>2026-04-26T10:00:02.999Z</time></trkpt><trkpt lat="37.617212705852474" lon="14.0335313509374"><ele>725.0</ele><time>2026-04-26T10:00:03.999Z</time></trkpt><trkpt lat="37.617296568058904" lon="14.033560299964574"><ele>725.0</ele><time>2026-04-26T10:00:04.999Z</time></trkpt><trkpt lat="37.61737112727914" lon="14.033607324655865"><ele>726.5</ele><time>2026-04-26T10:00:05.999Z</time></trkpt><trkpt lat="37.617448443631325" lon="14.033657406969057"><ele>728.0</ele><time>2026-04-26T10:00:06.999Z</time></trkpt><trkpt lat="37.61753088168944" lon="14.033720227050337"><ele>729.5</ele><time>2026-04-26T10:00:07.999Z</time></trkpt><trkpt lat="37.61761073385224" lon="14.033786632675946"><ele>731.0</ele><time>2026-04-26T10:00:08.999Z</time></trkpt><trkpt lat="37.61767877912051" lon="14.033840727011315"><ele>732.5</ele><time>2026-04-26T10:00:09.999Z</time></trkpt><trkpt lat="37.617751171805644" lon="14.033890231047248"><ele>734.0</ele><time>2026-04-26T10:00:10.999Z</time></trkpt><trkpt lat="37.61782403742433" lon="14.03393078353994"><ele>735.5</ele><time>2026-04-26T10:00:11.999Z</time></trkpt><trkpt lat="37.61788158602098" lon="14.033966547497554"><ele>737.0</ele><time>2026-04-26T10:00:12.999Z</time></trkpt><trkpt lat="37.61797078862493" lon="14.034041874291159"><ele>738.5</ele><time>2026-04-26T10:00:14.999Z</time></trkpt><trkpt lat="37.6180195228088" lon="14.034127098268312"><ele>740.0</ele><time>2026-04-26T10:00:16.999Z</time></trkpt><trkpt lat="37.61807701381712" lon="14.034223828508457"><ele>741.5</ele><time>2026-04-26T10:00:18.999Z</time></trkpt><trkpt lat="37.61811085776783" lon="14.034292233553689"><ele>743.0</ele><time>2026-04-26T10:00:19.999Z</time></trkpt><trkpt lat="37.61817147635741" lon="14.034376183921308"><ele>743.8</ele><time>2026-04-26T10:00:20.999Z</time></trkpt><trkpt lat="37.61823949080772" lon="14.03452221988672"><ele>744.5999999999999</ele><time>2026-04-26T10:00:21.999Z</time></trkpt><trkpt lat="37.61832652749336" lon="14.034661288763022"><ele>745.4000000000001</ele><time>2026-04-26T10:00:22.999Z</time></trkpt><trkpt lat="37.61837103023541" lon="14.034745648476678"><ele>746.2</ele><time>2026-04-26T10:00:23.999Z</time></trkpt><trkpt lat="37.61834332096539" lon="14.034828576947266"><ele>747.0</ele><time>2026-04-26T10:05:49.999Z</time></trkpt><trkpt lat="37.61841675009754" lon="14.034766442660047"><ele>747.0</ele><time>2026-04-26T10:06:11.999Z</time></trkpt><trkpt lat="37.618504371002125" lon="14.034692135767973"><ele>747.0</ele><time>2026-04-26T10:06:13.999Z</time></trkpt><trkpt lat="37.61860132707881" lon="14.034639023619242"><ele>747.0</ele><time>2026-04-26T10:06:15.999Z</time></trkpt><trkpt lat="37.61866424591936" lon="14.034605002863106"><ele>747.0</ele><time>2026-04-26T10:06:16.999Z</time></trkpt><trkpt lat="37.618738826887714" lon="14.034563685945452"><ele>747.0</ele><time>2026-04-26T10:06:17.999Z</time></trkpt><trkpt lat="37.618817992637474" lon="14.034520531051133"><ele>747.0</ele><time>2026-04-26T10:06:18.999Z</time></trkpt><trkpt lat="37.618905334718875" lon="14.034471319481202"><ele>747.5</ele><time>2026-04-26T10:06:19.999Z</time></trkpt><trkpt lat="37.61899971225241" lon="14.034415626116424"><ele>748.0</ele><time>2026-04-26T10:06:20.999Z</time></trkpt><trkpt lat="37.619114548664825" lon="14.034352303910968"><ele>748.5</ele><time>2026-04-26T10:06:21.999Z</time></trkpt><trkpt lat="37.619225337647435" lon="14.034301779298964"><ele>749.0</ele><time>2026-04-26T10:06:22.999Z</time></trkpt><trkpt lat="37.61934085019467" lon="14.03425543269527"><ele>749.0</ele><time>2026-04-26T10:06:23.999Z</time></trkpt><trkpt lat="37.61944558958542" lon="14.03421676315403"><ele>749.0</ele><time>2026-04-26T10:06:24.999Z</time></trkpt><trkpt lat="37.619544052255875" lon="14.034199323065831"><ele>749.0</ele><time>2026-04-26T10:06:25.999Z</time></trkpt><trkpt lat="37.61965045905028" lon="14.034203613671119"><ele>749.0</ele><time>2026-04-26T10:06:26.999Z</time></trkpt><trkpt lat="37.61976416521438" lon="14.03423360033689"><ele>749.0</ele><time>2026-04-26T10:06:27.999Z</time></trkpt><trkpt lat="37.61987218057997" lon="14.034276309579022"><ele>750.0</ele><time>2026-04-26T10:06:28.999Z</time></trkpt><trkpt lat="37.61998020447415" lon="14.03431750538941"><ele>751.0</ele><time>2026-04-26T10:06:29.999Z</time></trkpt><trkpt lat="37.620086845265405" lon="14.034351328946114"><ele>752.0</ele><time>2026-04-26T10:06:30.999Z</time></trkpt><trkpt lat="37.6201934361212" lon="14.034379437663182"><ele>753.0</ele><time>2026-04-26T10:06:31.999Z</time></trkpt><trkpt lat="37.62029505901362" lon="14.034408218256626"><ele>754.0</ele><time>2026-04-26T10:06:32.999Z</time></trkpt><trkpt lat="37.62039261707399" lon="14.034432794505607"><ele>754.6</ele><time>2026-04-26T10:06:33.999Z</time></trkpt><trkpt lat="37.620482339293204" lon="14.03446389216782"><ele>755.2</ele><time>2026-04-26T10:06:34.999Z</time></trkpt><trkpt lat="37.62057371873539" lon="14.034499053599612"><ele>755.8000000000001</ele><time>2026-04-26T10:06:35.999Z</time></trkpt><trkpt lat="37.62065893081555" lon="14.034537615777275"><ele>756.4000000000001</ele><time>2026-04-26T10:06:36.999Z</time></trkpt><trkpt lat="37.62074519928909" lon="14.034580935763627"><ele>757.0</ele><time>2026-04-26T10:06:37.999Z</time></trkpt><trkpt lat="37.62082562288688" lon="14.03463037700397"><ele>757.0</ele><time>2026-04-26T10:06:38.999Z</time></trkpt><trkpt lat="37.62089158001333" lon="14.034674922584655"><ele>757.0</ele><time>2026-04-26T10:06:39.999Z</time></trkpt><trkpt lat="37.62096126832734" lon="14.034717131289607"><ele>757.0</ele><time>2026-04-26T10:06:40.999Z</time></trkpt><trkpt lat="37.621036088335295" lon="14.034750219103575"><ele>757.0</ele><time>2026-04-26T10:06:41.999Z</time></trkpt><trkpt lat="37.62111317917847" lon="14.034792364763243"><ele>757.0</ele><time>2026-04-26T10:06:42.999Z</time></trkpt><trkpt lat="37.62119536302221" lon="14.03484316864428"><ele>757.0</ele><time>2026-04-26T10:06:43.999Z</time></trkpt><trkpt lat="37.6212786747315" lon="14.034898909968252"><ele>757.4000000000001</ele><time>2026-04-26T10:06:44.999Z</time></trkpt><trkpt lat="37.621356452744514" lon="14.034960025390822"><ele>757.8000000000001</ele><time>2026-04-26T10:06:45.999Z</time></trkpt><trkpt lat="37.62143213896146" lon="14.035015241421068"><ele>758.2</ele><time>2026-04-26T10:06:46.998Z</time></trkpt><trkpt lat="37.62150647212281" lon="14.035082289524837"><ele>758.6</ele><time>2026-04-26T10:06:47.998Z</time></trkpt><trkpt lat="37.62157967775834" lon="14.035158148458356"><ele>759.0</ele><time>2026-04-26T10:06:48.998Z</time></trkpt><trkpt lat="37.62165229419006" lon="14.035242116286602"><ele>759.8000000000001</ele><time>2026-04-26T10:06:49.998Z</time></trkpt><trkpt lat="37.62172460102994" lon="14.035336521288043"><ele>760.6</ele><time>2026-04-26T10:06:51Z</time></trkpt><trkpt lat="37.62180060603087" lon="14.035442634024191"><ele>761.4</ele><time>2026-04-26T10:06:52Z</time></trkpt><trkpt lat="37.62187405174022" lon="14.035545650368213"><ele>762.2</ele><time>2026-04-26T10:06:53Z</time></trkpt><trkpt lat="37.62195310124569" lon="14.03564045223161"><ele>763.0</ele><time>2026-04-26T10:06:54Z</time></trkpt><trkpt lat="37.6220434355017" lon="14.03572173195226"><ele>762.4</ele><time>2026-04-26T10:06:55Z</time></trkpt><trkpt lat="37.62213878442111" lon="14.035789107630185"><ele>761.8</ele><time>2026-04-26T10:06:56Z</time></trkpt><trkpt lat="37.62223304299662" lon="14.03584801594344"><ele>761.2</ele><time>2026-04-26T10:06:57Z</time></trkpt><trkpt lat="37.62232592993934" lon="14.035902378045103"><ele>760.6</ele><time>2026-04-26T10:06:58Z</time></trkpt><trkpt lat="37.62242088948519" lon="14.035960042689592"><ele>760.0</ele><time>2026-04-26T10:06:59Z</time></trkpt><trkpt lat="37.62251986665581" lon="14.03602489762817"><ele>760.0</ele><time>2026-04-26T10:07:00Z</time></trkpt><trkpt lat="37.62262118345768" lon="14.036099467277038"><ele>760.0</ele><time>2026-04-26T10:07:01Z</time></trkpt><trkpt lat="37.6227252026964" lon="14.036172625677425"><ele>760.0</ele><time>2026-04-26T10:07:02Z</time></trkpt><trkpt lat="37.62282976297005" lon="14.036227216222636"><ele>760.0</ele><time>2026-04-26T10:07:03Z</time></trkpt><trkpt lat="37.62293482158105" lon="14.036263744444765"><ele>759.4</ele><time>2026-04-26T10:07:04Z</time></trkpt><trkpt lat="37.623040535692816" lon="14.036290973475976"><ele>758.8</ele><time>2026-04-26T10:07:05Z</time></trkpt><trkpt lat="37.623146627699825" lon="14.036304661312519"><ele>758.2</ele><time>2026-04-26T10:07:06Z</time></trkpt><trkpt lat="37.62324214920541" lon="14.036313900036019"><ele>757.6</ele><time>2026-04-26T10:07:07Z</time></trkpt><trkpt lat="37.62333469313767" lon="14.036324820461013"><ele>757.0</ele><time>2026-04-26T10:07:08Z</time></trkpt><trkpt lat="37.623435693896035" lon="14.036354224935813"><ele>757.0</ele><time>2026-04-26T10:07:09Z</time></trkpt><trkpt lat="37.623535469885354" lon="14.036395999904942"><ele>757.0</ele><time>2026-04-26T10:07:10Z</time></trkpt><trkpt lat="37.62362334189048" lon="14.03645285376251"><ele>757.0</ele><time>2026-04-26T10:07:11Z</time></trkpt><trkpt lat="37.62369732665235" lon="14.036511784251863"><ele>757.0</ele><time>2026-04-26T10:07:12Z</time></trkpt><trkpt lat="37.62375510143655" lon="14.036586653723743"><ele>757.0</ele><time>2026-04-26T10:07:13Z</time></trkpt><trkpt lat="37.62380084162712" lon="14.03668005161338"><ele>756.0</ele><time>2026-04-26T10:07:14Z</time></trkpt><trkpt lat="37.62382813505837" lon="14.036780344331927"><ele>755.0</ele><time>2026-04-26T10:07:15Z</time></trkpt><trkpt lat="37.623846270361426" lon="14.036880174099423"><ele>754.0</ele><time>2026-04-26T10:07:16Z</time></trkpt><trkpt lat="37.62385523824255" lon="14.036995883754564"><ele>753.0</ele><time>2026-04-26T10:07:17Z</time></trkpt><trkpt lat="37.623856711653865" lon="14.037121205922826"><ele>752.0</ele><time>2026-04-26T10:07:18Z</time></trkpt><trkpt lat="37.62386161245591" lon="14.037250596660266"><ele>752.0</ele><time>2026-04-26T10:07:19Z</time></trkpt><trkpt lat="37.62387720295856" lon="14.037375057516511"><ele>752.0</ele><time>2026-04-26T10:07:20Z</time></trkpt><trkpt lat="37.62390481626537" lon="14.037495345219366"><ele>752.0</ele><time>2026-04-26T10:07:21Z</time></trkpt><trkpt lat="37.62394232904082" lon="14.037615199362207"><ele>752.0</ele><time>2026-04-26T10:07:22Z</time></trkpt><trkpt lat="37.62398808691799" lon="14.03772861346702"><ele>752.0</ele><time>2026-04-26T10:07:23Z</time></trkpt><trkpt lat="37.62404480851443" lon="14.037841632341785"><ele>752.8</ele><time>2026-04-26T10:07:24Z</time></trkpt><trkpt lat="37.62410959338479" lon="14.0379517775607"><ele>753.6</ele><time>2026-04-26T10:07:25Z</time></trkpt><trkpt lat="37.62417596772423" lon="14.038057062303666"><ele>754.4</ele><time>2026-04-26T10:07:26Z</time></trkpt><trkpt lat="37.624238808027606" lon="14.038157308244669"><ele>755.1999999999999</ele><time>2026-04-26T10:07:27Z</time></trkpt><trkpt lat="37.62429477069491" lon="14.038259232672889"><ele>756.0</ele><time>2026-04-26T10:07:28Z</time></trkpt><trkpt lat="37.62434640652612" lon="14.038366602549386"><ele>754.1666666666666</ele><time>2026-04-26T10:07:29Z</time></trkpt><trkpt lat="37.62439413278779" lon="14.038465880950781"><ele>752.3333333333334</ele><time>2026-04-26T10:07:30Z</time></trkpt><trkpt lat="37.624442053805005" lon="14.038559593395867"><ele>750.5</ele><time>2026-04-26T10:07:31Z</time></trkpt><trkpt lat="37.62449474297731" lon="14.038646369861612"><ele>748.6666666666667</ele><time>2026-04-26T10:07:32Z</time></trkpt><trkpt lat="37.62455677721315" lon="14.038722682257191"><ele>746.8333333333334</ele><time>2026-04-26T10:07:33Z</time></trkpt><trkpt lat="37.624625828090075" lon="14.038797323929039"><ele>745.0</ele><time>2026-04-26T10:07:34Z</time></trkpt><trkpt lat="37.62467968538668" lon="14.038881778450296"><ele>745.0</ele><time>2026-04-26T10:07:35Z</time></trkpt><trkpt lat="37.624715914267995" lon="14.038975904838455"><ele>745.0</ele><time>2026-04-26T10:07:36Z</time></trkpt><trkpt lat="37.62474075491289" lon="14.039083722717415"><ele>745.0</ele><time>2026-04-26T10:07:37Z</time></trkpt><trkpt lat="37.62476427750103" lon="14.039209846308184"><ele>745.0</ele><time>2026-04-26T10:07:38Z</time></trkpt><trkpt lat="37.62478886327049" lon="14.039341400173692"><ele>745.0</ele><time>2026-04-26T10:07:39Z</time></trkpt><trkpt lat="37.624816403498016" lon="14.039469681985267"><ele>746.2</ele><time>2026-04-26T10:07:40Z</time></trkpt><trkpt lat="37.624846158988184" lon="14.039596644614045"><ele>747.4</ele><time>2026-04-26T10:07:41Z</time></trkpt><trkpt lat="37.6248744799413" lon="14.039714500506875"><ele>748.5999999999999</ele><time>2026-04-26T10:07:41.999Z</time></trkpt><trkpt lat="37.62490644443064" lon="14.039825049087531"><ele>749.8</ele><time>2026-04-26T10:07:42.999Z</time></trkpt><trkpt lat="37.62494777599015" lon="14.039925216829271"><ele>751.0</ele><time>2026-04-26T10:07:43.999Z</time></trkpt><trkpt lat="37.624998090156886" lon="14.040020000122095"><ele>752.0</ele><time>2026-04-26T10:07:44.999Z</time></trkpt><trkpt lat="37.625048257766586" lon="14.04010268054256"><ele>753.0</ele><time>2026-04-26T10:07:45.999Z</time></trkpt><trkpt lat="37.625098638315364" lon="14.04018818448473"><ele>754.0</ele><time>2026-04-26T10:07:46.999Z</time></trkpt><trkpt lat="37.62514575904026" lon="14.040273078646086"><ele>755.0</ele><time>2026-04-26T10:07:47.999Z</time></trkpt><trkpt lat="37.625189818846756" lon="14.04035434804092"><ele>756.0</ele><time>2026-04-26T10:07:48.999Z</time></trkpt><trkpt lat="37.62523292173167" lon="14.040439583086382"><ele>757.0</ele><time>2026-04-26T10:07:49.999Z</time></trkpt><trkpt lat="37.62527387264439" lon="14.04051878549528"><ele>754.0</ele><time>2026-04-26T10:07:50.999Z</time></trkpt><trkpt lat="37.62531620492339" lon="14.04060086478391"><ele>751.0</ele><time>2026-04-26T10:07:51.999Z</time></trkpt><trkpt lat="37.62536166815247" lon="14.040675512903574"><ele>748.0</ele><time>2026-04-26T10:07:52.999Z</time></trkpt><trkpt lat="37.6254180554425" lon="14.040746710817036"><ele>745.0</ele><time>2026-04-26T10:07:53.999Z</time></trkpt><trkpt lat="37.62548921857159" lon="14.040825368971614"><ele>742.0</ele><time>2026-04-26T10:07:54.999Z</time></trkpt><trkpt lat="37.62557759675576" lon="14.040916131955106"><ele>739.0</ele><time>2026-04-26T10:07:55.999Z</time></trkpt><trkpt lat="37.62566397493698" lon="14.041006500326143"><ele>739.0</ele><time>2026-04-26T10:07:56.999Z</time></trkpt><trkpt lat="37.625759078931694" lon="14.041106649910729"><ele>739.0</ele><time>2026-04-26T10:07:57.999Z</time></trkpt><trkpt lat="37.62585181106425" lon="14.041204945799919"><ele>739.0</ele><time>2026-04-26T10:07:58.999Z</time></trkpt><trkpt lat="37.62594000448089" lon="14.04129221223403"><ele>739.0</ele><time>2026-04-26T10:07:59.999Z</time></trkpt><trkpt lat="37.62602697427545" lon="14.04137799302963"><ele>739.0</ele><time>2026-04-26T10:08:00.999Z</time></trkpt><trkpt lat="37.62611938504692" lon="14.041460208873891"><ele>739.0</ele><time>2026-04-26T10:08:01.999Z</time></trkpt><trkpt lat="37.62621933032017" lon="14.04153737862275"><ele>739.0</ele><time>2026-04-26T10:08:02.999Z</time></trkpt><trkpt lat="37.626319394229576" lon="14.041618176864063"><ele>739.0</ele><time>2026-04-26T10:08:03.999Z</time></trkpt><trkpt lat="37.62641984667184" lon="14.041696635866481"><ele>736.0</ele><time>2026-04-26T10:08:04.999Z</time></trkpt><trkpt lat="37.62651598253139" lon="14.041773012220787"><ele>733.0</ele><time>2026-04-26T10:08:05.999Z</time></trkpt><trkpt lat="37.62660907216259" lon="14.041845019457492"><ele>730.0</ele><time>2026-04-26T10:08:06.999Z</time></trkpt><trkpt lat="37.62669734804121" lon="14.041913681650785"><ele>727.0</ele><time>2026-04-26T10:08:07.999Z</time></trkpt><trkpt lat="37.62678648785576" lon="14.041971158584834"><ele>724.0</ele><time>2026-04-26T10:08:08.999Z</time></trkpt><trkpt lat="37.62687511447703" lon="14.042009451770733"><ele>724.0</ele><time>2026-04-26T10:08:09.999Z</time></trkpt><trkpt lat="37.626961953717256" lon="14.042025954756047"><ele>724.0</ele><time>2026-04-26T10:08:10.999Z</time></trkpt><trkpt lat="37.627048768178014" lon="14.042021926406125"><ele>724.0</ele><time>2026-04-26T10:08:11.999Z</time></trkpt><trkpt lat="37.62713926268636" lon="14.042000992082595"><ele>724.0</ele><time>2026-04-26T10:08:12.999Z</time></trkpt><trkpt lat="37.62723605602608" lon="14.041969387016179"><ele>724.0</ele><time>2026-04-26T10:08:13.999Z</time></trkpt><trkpt lat="37.627346682107884" lon="14.041929031661416"><ele>721.75</ele><time>2026-04-26T10:08:14.999Z</time></trkpt><trkpt lat="37.627465765920356" lon="14.041884929036671"><ele>719.5</ele><time>2026-04-26T10:08:15.999Z</time></trkpt><trkpt lat="37.62759491649785" lon="14.04183465744718"><ele>717.25</ele><time>2026-04-26T10:08:16.999Z</time></trkpt><trkpt lat="37.627723882286304" lon="14.04178337363491"><ele>715.0</ele><time>2026-04-26T10:08:17.999Z</time></trkpt><trkpt lat="37.62785095352662" lon="14.041723529900583"><ele>712.5</ele><time>2026-04-26T10:08:18.999Z</time></trkpt><trkpt lat="37.62798153778276" lon="14.041645003213828"><ele>710.0</ele><time>2026-04-26T10:08:19.999Z</time></trkpt><trkpt lat="37.62811682384961" lon="14.041550317342091"><ele>707.5</ele><time>2026-04-26T10:08:20.999Z</time></trkpt><trkpt lat="37.62824608565146" lon="14.041455501544156"><ele>705.0</ele><time>2026-04-26T10:08:21.999Z</time></trkpt><trkpt lat="37.62836796326087" lon="14.041359843821146"><ele>704.75</ele><time>2026-04-26T10:08:22.999Z</time></trkpt><trkpt lat="37.62848439562954" lon="14.041262977739958"><ele>704.5</ele><time>2026-04-26T10:08:23.999Z</time></trkpt><trkpt lat="37.62859875140096" lon="14.041167541899593"><ele>704.25</ele><time>2026-04-26T10:08:24.999Z</time></trkpt><trkpt lat="37.62871059721829" lon="14.041075457133006"><ele>704.0</ele><time>2026-04-26T10:08:25.999Z</time></trkpt><trkpt lat="37.628824792796635" lon="14.040986218734524"><ele>703.75</ele><time>2026-04-26T10:08:26.999Z</time></trkpt><trkpt lat="37.62894119926211" lon="14.040902841853715"><ele>703.5</ele><time>2026-04-26T10:08:27.999Z</time></trkpt><trkpt lat="37.62906828857395" lon="14.040836546992578"><ele>703.25</ele><time>2026-04-26T10:08:28.999Z</time></trkpt><trkpt lat="37.62921003712747" lon="14.040799262621029"><ele>703.0</ele><time>2026-04-26T10:08:29.999Z</time></trkpt><trkpt lat="37.6293622288531" lon="14.040773728269496"><ele>701.3333333333334</ele><time>2026-04-26T10:08:30.999Z</time></trkpt><trkpt lat="37.62951788216364" lon="14.040748458044014"><ele>699.6666666666666</ele><time>2026-04-26T10:08:31.999Z</time></trkpt><trkpt lat="37.62967026295888" lon="14.04072140686098"><ele>698.0</ele><time>2026-04-26T10:08:32.999Z</time></trkpt><trkpt lat="37.629831180647045" lon="14.040692952683052"><ele>698.0</ele><time>2026-04-26T10:08:33.999Z</time></trkpt><trkpt lat="37.629991714193814" lon="14.0406695908945"><ele>698.0</ele><time>2026-04-26T10:08:34.999Z</time></trkpt><trkpt lat="37.63015176199127" lon="14.040652262140322"><ele>698.0</ele><time>2026-04-26T10:08:35.999Z</time></trkpt><trkpt lat="37.6303096009504" lon="14.040631764272083"><ele>698.0</ele><time>2026-04-26T10:08:36.999Z</time></trkpt><trkpt lat="37.63046540560509" lon="14.040608423756112"><ele>698.0</ele><time>2026-04-26T10:08:37.999Z</time></trkpt><trkpt lat="37.630618597756964" lon="14.040578235364196"><ele>698.0</ele><time>2026-04-26T10:08:38.999Z</time></trkpt><trkpt lat="37.63077216671562" lon="14.040542683181732"><ele>698.0</ele><time>2026-04-26T10:08:39.999Z</time></trkpt><trkpt lat="37.63093010502018" lon="14.040508067613885"><ele>698.0</ele><time>2026-04-26T10:08:40.999Z</time></trkpt><trkpt lat="37.631089897744516" lon="14.040467299718355"><ele>698.0</ele><time>2026-04-26T10:08:41.999Z</time></trkpt><trkpt lat="37.631250931674856" lon="14.040417639159669"><ele>700.6666666666666</ele><time>2026-04-26T10:08:42.999Z</time></trkpt><trkpt lat="37.631410025544625" lon="14.040370004404584"><ele>703.3333333333334</ele><time>2026-04-26T10:08:43.999Z</time></trkpt><trkpt lat="37.631558643558385" lon="14.040323475226518"><ele>706.0</ele><time>2026-04-26T10:08:44.999Z</time></trkpt><trkpt lat="37.63170559488412" lon="14.040278290120334"><ele>706.0</ele><time>2026-04-26T10:08:45.999Z</time></trkpt><trkpt lat="37.63184364091397" lon="14.040244767749673"><ele>706.0</ele><time>2026-04-26T10:08:46.999Z</time></trkpt><trkpt lat="37.63197558319884" lon="14.040211690072914"><ele>706.0</ele><time>2026-04-26T10:08:47.999Z</time></trkpt><trkpt lat="37.63210123700099" lon="14.040182559063421"><ele>706.0</ele><time>2026-04-26T10:08:48.999Z</time></trkpt><trkpt lat="37.63222056970293" lon="14.040173187466246"><ele>706.8</ele><time>2026-04-26T10:08:49.999Z</time></trkpt><trkpt lat="37.63233382768677" lon="14.040180990777678"><ele>707.5999999999999</ele><time>2026-04-26T10:08:50.999Z</time></trkpt><trkpt lat="37.63243652798101" lon="14.040210001515149"><ele>708.4</ele><time>2026-04-26T10:08:51.999Z</time></trkpt><trkpt lat="37.63253870048786" lon="14.040233304403069"><ele>709.2</ele><time>2026-04-26T10:08:52.999Z</time></trkpt><trkpt lat="37.63264889099524" lon="14.040259878358716"><ele>710.0</ele><time>2026-04-26T10:08:53.999Z</time></trkpt><trkpt lat="37.632755607317044" lon="14.040292937922013"><ele>710.6</ele><time>2026-04-26T10:08:54.998Z</time></trkpt><trkpt lat="37.63285495922894" lon="14.040336261224725"><ele>711.2</ele><time>2026-04-26T10:08:55.998Z</time></trkpt><trkpt lat="37.6329414242212" lon="14.040386396809636"><ele>711.8</ele><time>2026-04-26T10:08:57Z</time></trkpt><trkpt lat="37.633019132322566" lon="14.040447514911833"><ele>712.4</ele><time>2026-04-26T10:08:58Z</time></trkpt><trkpt lat="37.63309474807474" lon="14.040518782382831"><ele>713.0</ele><time>2026-04-26T10:08:59Z</time></trkpt><trkpt lat="37.63316356364978" lon="14.040599702772733"><ele>713.0</ele><time>2026-04-26T10:09:00Z</time></trkpt><trkpt lat="37.63324189298574" lon="14.040678585737677"><ele>713.0</ele><time>2026-04-26T10:09:01Z</time></trkpt><trkpt lat="37.63332787548731" lon="14.040748980176124"><ele>713.0</ele><time>2026-04-26T10:09:02Z</time></trkpt><trkpt lat="37.6334167503999" lon="14.04081095413308"><ele>713.0</ele><time>2026-04-26T10:09:03Z</time></trkpt><trkpt lat="37.63350481849487" lon="14.040865699900356"><ele>713.0</ele><time>2026-04-26T10:09:04Z</time></trkpt><trkpt lat="37.63359180670401" lon="14.04093990808092"><ele>712.0</ele><time>2026-04-26T10:09:05Z</time></trkpt><trkpt lat="37.633668911995386" lon="14.041042657289008"><ele>711.0</ele><time>2026-04-26T10:09:06Z</time></trkpt><trkpt lat="37.633743754340436" lon="14.04115763328466"><ele>710.0</ele><time>2026-04-26T10:09:07Z</time></trkpt><trkpt lat="37.633825016427494" lon="14.041280211814685"><ele>709.0</ele><time>2026-04-26T10:09:08Z</time></trkpt><trkpt lat="37.63390650069863" lon="14.041395885843738"><ele>709.0</ele><time>2026-04-26T10:09:09Z</time></trkpt><trkpt lat="37.633995228513704" lon="14.041515081338625"><ele>709.0</ele><time>2026-04-26T10:09:10Z</time></trkpt><trkpt lat="37.63409182287856" lon="14.041629291376546"><ele>709.0</ele><time>2026-04-26T10:09:11Z</time></trkpt><trkpt lat="37.63418861176596" lon="14.041730961060658"><ele>709.0</ele><time>2026-04-26T10:09:12Z</time></trkpt><trkpt lat="37.63428773521783" lon="14.041831126964265"><ele>707.5</ele><time>2026-04-26T10:09:13Z</time></trkpt><trkpt lat="37.634388047047565" lon="14.041932218766846"><ele>706.0</ele><time>2026-04-26T10:09:14Z</time></trkpt><trkpt lat="37.634487607833236" lon="14.042039507499267"><ele>704.5</ele><time>2026-04-26T10:09:15Z</time></trkpt><trkpt lat="37.63458147683216" lon="14.042158067412652"><ele>703.0</ele><time>2026-04-26T10:09:16Z</time></trkpt><trkpt lat="37.63466853118202" lon="14.042282658327967"><ele>703.0</ele><time>2026-04-26T10:09:17Z</time></trkpt><trkpt lat="37.63474846527319" lon="14.042396346135119"><ele>703.0</ele><time>2026-04-26T10:09:18Z</time></trkpt><trkpt lat="37.6348274609278" lon="14.042506678615252"><ele>703.0</ele><time>2026-04-26T10:09:19Z</time></trkpt><trkpt lat="37.63491129543927" lon="14.04262107052583"><ele>703.0</ele><time>2026-04-26T10:09:20Z</time></trkpt><trkpt lat="37.63499521796089" lon="14.042738849276015"><ele>702.5999999999999</ele><time>2026-04-26T10:09:21Z</time></trkpt><trkpt lat="37.63507535284577" lon="14.042848558535276"><ele>702.1999999999999</ele><time>2026-04-26T10:09:22Z</time></trkpt><trkpt lat="37.635158965072485" lon="14.042941327505087"><ele>701.8</ele><time>2026-04-26T10:09:23Z</time></trkpt><trkpt lat="37.63524105750905" lon="14.043025092943978"><ele>701.4</ele><time>2026-04-26T10:09:24Z</time></trkpt><trkpt lat="37.63531207100167" lon="14.043091095706004"><ele>701.0</ele><time>2026-04-26T10:09:25Z</time></trkpt><trkpt lat="37.63537654028086" lon="14.043149750580904"><ele>701.5</ele><time>2026-04-26T10:09:26Z</time></trkpt><trkpt lat="37.63543518985027" lon="14.043208635359095"><ele>702.0</ele><time>2026-04-26T10:09:27Z</time></trkpt><trkpt lat="37.63548887030624" lon="14.043268633386477"><ele>702.5</ele><time>2026-04-26T10:09:28Z</time></trkpt><trkpt lat="37.63554008311237" lon="14.0433443576637"><ele>703.0</ele><time>2026-04-26T10:09:29Z</time></trkpt><trkpt lat="37.63559082003989" lon="14.043432708503133"><ele>703.5</ele><time>2026-04-26T10:09:30Z</time></trkpt><trkpt lat="37.63563918886773" lon="14.04353015940554"><ele>704.0</ele><time>2026-04-26T10:09:31Z</time></trkpt><trkpt lat="37.6356827662565" lon="14.043627105375233"><ele>704.0</ele><time>2026-04-26T10:09:32Z</time></trkpt><trkpt lat="37.63572340558643" lon="14.04371920617055"><ele>704.0</ele><time>2026-04-26T10:09:33Z</time></trkpt><trkpt lat="37.635758464339396" lon="14.043804474554253"><ele>704.0</ele><time>2026-04-26T10:09:34Z</time></trkpt><trkpt lat="37.635791600548295" lon="14.043889114955537"><ele>704.0</ele><time>2026-04-26T10:09:35Z</time></trkpt><trkpt lat="37.6358275955603" lon="14.043986648775142"><ele>704.0</ele><time>2026-04-26T10:09:36Z</time></trkpt><trkpt lat="37.635859937323296" lon="14.04409907229777"><ele>704.0</ele><time>2026-04-26T10:09:37Z</time></trkpt><trkpt lat="37.63589523285646" lon="14.044218214907009"><ele>701.0</ele><time>2026-04-26T10:09:38Z</time></trkpt><trkpt lat="37.635932688388266" lon="14.044337392513555"><ele>698.0</ele><time>2026-04-26T10:09:39Z</time></trkpt><trkpt lat="37.6359754410797" lon="14.044458628562449"><ele>695.0</ele><time>2026-04-26T10:09:40Z</time></trkpt><trkpt lat="37.63601211234507" lon="14.044589538282741"><ele>692.0</ele><time>2026-04-26T10:09:41Z</time></trkpt><trkpt lat="37.636032782306835" lon="14.04471646243333"><ele>689.0</ele><time>2026-04-26T10:09:42Z</time></trkpt><trkpt lat="37.63606100342115" lon="14.044847002298043"><ele>687.0</ele><time>2026-04-26T10:09:43Z</time></trkpt><trkpt lat="37.63609454625886" lon="14.04496702319378"><ele>685.0</ele><time>2026-04-26T10:09:44Z</time></trkpt><trkpt lat="37.636135881854386" lon="14.045079439577306"><ele>683.0</ele><time>2026-04-26T10:09:45Z</time></trkpt><trkpt lat="37.636185232403086" lon="14.045196367359129"><ele>681.0</ele><time>2026-04-26T10:09:46Z</time></trkpt><trkpt lat="37.63623393029172" lon="14.045308667593781"><ele>679.0</ele><time>2026-04-26T10:09:47Z</time></trkpt><trkpt lat="37.6362781948526" lon="14.045424087872037"><ele>681.2</ele><time>2026-04-26T10:09:47.999Z</time></trkpt><trkpt lat="37.63631394784458" lon="14.045537405561092"><ele>683.4000000000001</ele><time>2026-04-26T10:09:48.999Z</time></trkpt><trkpt lat="37.63635054406737" lon="14.04564526129901"><ele>685.6</ele><time>2026-04-26T10:09:49.999Z</time></trkpt><trkpt lat="37.636381870146174" lon="14.045752347307975"><ele>687.8</ele><time>2026-04-26T10:09:50.999Z</time></trkpt><trkpt lat="37.636404671535146" lon="14.045870469699295"><ele>690.0</ele><time>2026-04-26T10:09:51.999Z</time></trkpt><trkpt lat="37.63641836414768" lon="14.045985464075525"><ele>690.0</ele><time>2026-04-26T10:09:52.999Z</time></trkpt><trkpt lat="37.636423332624666" lon="14.046098485903853"><ele>690.0</ele><time>2026-04-26T10:09:53.999Z</time></trkpt><trkpt lat="37.63640855910047" lon="14.046201329236533"><ele>690.0</ele><time>2026-04-26T10:09:54.999Z</time></trkpt><trkpt lat="37.63638690043808" lon="14.046287001601534"><ele>690.0</ele><time>2026-04-26T10:09:55.999Z</time></trkpt><trkpt lat="37.636375042756775" lon="14.046374294403611"><ele>690.0</ele><time>2026-04-26T10:09:56.999Z</time></trkpt><trkpt lat="37.6363689239455" lon="14.046488020209807"><ele>690.0</ele><time>2026-04-26T10:09:57.999Z</time></trkpt><trkpt lat="37.63636647248817" lon="14.04661201170103"><ele>689.8333333333334</ele><time>2026-04-26T10:09:58.999Z</time></trkpt><trkpt lat="37.6363432840015" lon="14.046723430525391"><ele>689.6666666666666</ele><time>2026-04-26T10:09:59.999Z</time></trkpt><trkpt lat="37.63629999518666" lon="14.046822761991898"><ele>689.5</ele><time>2026-04-26T10:10:00.999Z</time></trkpt><trkpt lat="37.63625746918524" lon="14.046893507822539"><ele>689.3333333333333</ele><time>2026-04-26T10:10:01.999Z</time></trkpt><trkpt lat="37.63621987004173" lon="14.047032490876763"><ele>689.1666666666666</ele><time>2026-04-26T10:10:03.999Z</time></trkpt><trkpt lat="37.636204347991765" lon="14.04711668106681"><ele>689.0</ele><time>2026-04-26T10:10:04.999Z</time></trkpt><trkpt lat="37.63620494614158" lon="14.047217367032921"><ele>689.0</ele><time>2026-04-26T10:10:06.999Z</time></trkpt><trkpt lat="37.63620648011218" lon="14.047308885991562"><ele>689.0</ele><time>2026-04-26T10:10:15.999Z</time></trkpt><trkpt lat="37.63621031516161" lon="14.047401077525432"><ele>689.0</ele><time>2026-04-26T10:10:17.999Z</time></trkpt><trkpt lat="37.63623039392686" lon="14.04748626511158"><ele>689.0</ele><time>2026-04-26T10:10:19.999Z</time></trkpt><trkpt lat="37.63623245412272" lon="14.047574426229035"><ele>689.0</ele><time>2026-04-26T10:11:28Z</time></trkpt><trkpt lat="37.63624620326335" lon="14.04765652055225"><ele>689.0</ele><time>2026-04-26T10:11:30Z</time></trkpt><trkpt lat="37.6362406690301" lon="14.047737088856364"><ele>689.0</ele><time>2026-04-26T10:11:34Z</time></trkpt><trkpt lat="37.636269259567015" lon="14.04782800164205"><ele>688.4000000000001</ele><time>2026-04-26T10:11:37Z</time></trkpt><trkpt lat="37.63626217546728" lon="14.047908545646179"><ele>687.8</ele><time>2026-04-26T10:11:39Z</time></trkpt><trkpt lat="37.636267297686636" lon="14.04800457619647"><ele>687.2</ele><time>2026-04-26T10:11:42Z</time></trkpt><trkpt lat="37.63628570290559" lon="14.048140411179247"><ele>686.5999999999999</ele><time>2026-04-26T10:11:44Z</time></trkpt><trkpt lat="37.63628696533531" lon="14.048301829776964"><ele>686.0</ele><time>2026-04-26T10:11:46Z</time></trkpt><trkpt lat="37.63629380879346" lon="14.048394727393068"><ele>686.0</ele><time>2026-04-26T10:11:47Z</time></trkpt><trkpt lat="37.63629888698756" lon="14.048476895766521"><ele>686.0</ele><time>2026-04-26T10:11:48Z</time></trkpt><trkpt lat="37.6363267200222" lon="14.048583609327654"><ele>686.0</ele><time>2026-04-26T10:11:50Z</time></trkpt><trkpt lat="37.636348432168674" lon="14.048741715691248"><ele>686.0</ele><time>2026-04-26T10:11:52Z</time></trkpt><trkpt lat="37.636351753483446" lon="14.048824604506327"><ele>686.0</ele><time>2026-04-26T10:11:53Z</time></trkpt><trkpt lat="37.63635441209499" lon="14.048914501196757"><ele>686.0</ele><time>2026-04-26T10:11:53.999Z</time></trkpt><trkpt lat="37.63635616567894" lon="14.049012548275012"><ele>686.0</ele><time>2026-04-26T10:11:54.999Z</time></trkpt><trkpt lat="37.63636152704367" lon="14.049111527742738"><ele>686.0</ele><time>2026-04-26T10:11:55.999Z</time></trkpt><trkpt lat="37.63637025523883" lon="14.049215278169086"><ele>686.0</ele><time>2026-04-26T10:11:56.999Z</time></trkpt><trkpt lat="37.63638638504915" lon="14.049322844981749"><ele>686.0</ele><time>2026-04-26T10:11:57.999Z</time></trkpt><trkpt lat="37.63641431847762" lon="14.049432112938243"><ele>686.0</ele><time>2026-04-26T10:11:58.999Z</time></trkpt><trkpt lat="37.636459444320494" lon="14.04953536620391"><ele>686.0</ele><time>2026-04-26T10:11:59.999Z</time></trkpt><trkpt lat="37.63652004879303" lon="14.049644587181092"><ele>684.5999999999999</ele><time>2026-04-26T10:12:00.999Z</time></trkpt><trkpt lat="37.636571099323405" lon="14.049749651538512"><ele>683.2</ele><time>2026-04-26T10:12:01.999Z</time></trkpt><trkpt lat="37.636614890495025" lon="14.049866098247405"><ele>681.8</ele><time>2026-04-26T10:12:02.999Z</time></trkpt><trkpt lat="37.63665074089251" lon="14.04999251924382"><ele>680.4000000000001</ele><time>2026-04-26T10:12:03.999Z</time></trkpt><trkpt lat="37.63667227495688" lon="14.050114544573098"><ele>679.0</ele><time>2026-04-26T10:12:04.999Z</time></trkpt><trkpt lat="37.63669442332179" lon="14.050233515656387"><ele>675.8000000000001</ele><time>2026-04-26T10:12:05.999Z</time></trkpt><trkpt lat="37.63672773664193" lon="14.050349277318992"><ele>672.6</ele><time>2026-04-26T10:12:06.999Z</time></trkpt><trkpt lat="37.63676407566769" lon="14.050470301758175"><ele>669.4</ele><time>2026-04-26T10:12:07.999Z</time></trkpt><trkpt lat="37.6367955705239" lon="14.050605644752162"><ele>666.2</ele><time>2026-04-26T10:12:08.999Z</time></trkpt><trkpt lat="37.63681512251494" lon="14.050747820780817"><ele>663.0</ele><time>2026-04-26T10:12:09.999Z</time></trkpt><trkpt lat="37.63683988253253" lon="14.050875383090071"><ele>661.8</ele><time>2026-04-26T10:12:10.999Z</time></trkpt><trkpt lat="37.63685209575835" lon="14.05099632187817"><ele>660.5999999999999</ele><time>2026-04-26T10:12:11.999Z</time></trkpt><trkpt lat="37.63686072824962" lon="14.05112250515551"><ele>659.4000000000001</ele><time>2026-04-26T10:12:12.999Z</time></trkpt><trkpt lat="37.63687568431466" lon="14.051251959943924"><ele>658.2</ele><time>2026-04-26T10:12:13.999Z</time></trkpt><trkpt lat="37.6369140009757" lon="14.051383628510434"><ele>657.0</ele><time>2026-04-26T10:12:14.999Z</time></trkpt><trkpt lat="37.63696547659382" lon="14.051489553323002"><ele>659.4000000000001</ele><time>2026-04-26T10:12:15.999Z</time></trkpt><trkpt lat="37.637004936395805" lon="14.051591338378536"><ele>661.8000000000001</ele><time>2026-04-26T10:12:16.999Z</time></trkpt><trkpt lat="37.637036796193705" lon="14.05170986784574"><ele>664.2</ele><time>2026-04-26T10:12:17.999Z</time></trkpt><trkpt lat="37.63706086696823" lon="14.051854903670165"><ele>666.6</ele><time>2026-04-26T10:12:18.999Z</time></trkpt><trkpt lat="37.63707131393349" lon="14.051999590483776"><ele>669.0</ele><time>2026-04-26T10:12:19.999Z</time></trkpt><trkpt lat="37.637073145163825" lon="14.052134575843693"><ele>669.0</ele><time>2026-04-26T10:12:20.999Z</time></trkpt><trkpt lat="37.637092436109384" lon="14.052255683233035"><ele>669.0</ele><time>2026-04-26T10:12:21.999Z</time></trkpt><trkpt lat="37.63714162445508" lon="14.052367487539147"><ele>669.0</ele><time>2026-04-26T10:12:22.999Z</time></trkpt><trkpt lat="37.63719762320563" lon="14.052476568472713"><ele>669.0</ele><time>2026-04-26T10:12:23.999Z</time></trkpt><trkpt lat="37.637235008642115" lon="14.05258279018698"><ele>669.0</ele><time>2026-04-26T10:12:24.999Z</time></trkpt><trkpt lat="37.63724888407002" lon="14.052684108530391"><ele>669.0</ele><time>2026-04-26T10:12:25.999Z</time></trkpt><trkpt lat="37.63725478088807" lon="14.052806077441527"><ele>669.0</ele><time>2026-04-26T10:12:26.999Z</time></trkpt><trkpt lat="37.637248508036734" lon="14.052941966214936"><ele>669.0</ele><time>2026-04-26T10:12:27.999Z</time></trkpt><trkpt lat="37.63724887646235" lon="14.053081983464539"><ele>669.0</ele><time>2026-04-26T10:12:28.999Z</time></trkpt><trkpt lat="37.63725286527738" lon="14.053226046518557"><ele>669.0</ele><time>2026-04-26T10:12:29.999Z</time></trkpt><trkpt lat="37.63723187366122" lon="14.053365194970814"><ele>669.0</ele><time>2026-04-26T10:12:30.999Z</time></trkpt><trkpt lat="37.637227207385926" lon="14.05349925778168"><ele>669.0</ele><time>2026-04-26T10:12:31.999Z</time></trkpt><trkpt lat="37.63723444825266" lon="14.053632426444912"><ele>669.0</ele><time>2026-04-26T10:12:32.999Z</time></trkpt><trkpt lat="37.637257434612664" lon="14.053758815780503"><ele>669.0</ele><time>2026-04-26T10:12:33.999Z</time></trkpt><trkpt lat="37.637260269465074" lon="14.053890969234738"><ele>669.0</ele><time>2026-04-26T10:12:34.999Z</time></trkpt><trkpt lat="37.63729089001608" lon="14.054016538826334"><ele>669.0</ele><time>2026-04-26T10:12:35.999Z</time></trkpt><trkpt lat="37.637332411004664" lon="14.054139205371802"><ele>669.0</ele><time>2026-04-26T10:12:36.999Z</time></trkpt><trkpt lat="37.63735092108256" lon="14.05425295083082"><ele>669.0</ele><time>2026-04-26T10:12:37.999Z</time></trkpt><trkpt lat="37.63738213657741" lon="14.054378415302427"><ele>669.0</ele><time>2026-04-26T10:12:38.999Z</time></trkpt><trkpt lat="37.63743668479343" lon="14.054500579305085"><ele>669.0</ele><time>2026-04-26T10:12:39.999Z</time></trkpt><trkpt lat="37.63748454176819" lon="14.05461442648178"><ele>669.0</ele><time>2026-04-26T10:12:40.999Z</time></trkpt><trkpt lat="37.637521284625876" lon="14.054728449184319"><ele>669.0</ele><time>2026-04-26T10:12:41.999Z</time></trkpt><trkpt lat="37.6375289648158" lon="14.054848218689292"><ele>669.0</ele><time>2026-04-26T10:12:42.999Z</time></trkpt><trkpt lat="37.6375462070516" lon="14.054974050333902"><ele>669.0</ele><time>2026-04-26T10:12:43.999Z</time></trkpt><trkpt lat="37.63757766436435" lon="14.055107705164607"><ele>669.0</ele><time>2026-04-26T10:12:44.999Z</time></trkpt><trkpt lat="37.6375898567533" lon="14.055240936855327"><ele>667.6</ele><time>2026-04-26T10:12:45.999Z</time></trkpt><trkpt lat="37.63757555380358" lon="14.055376248566198"><ele>666.2</ele><time>2026-04-26T10:12:46.999Z</time></trkpt><trkpt lat="37.63756392356915" lon="14.055506192446357"><ele>664.8000000000001</ele><time>2026-04-26T10:12:47.999Z</time></trkpt><trkpt lat="37.63754514046913" lon="14.055626481278145"><ele>663.4000000000001</ele><time>2026-04-26T10:12:48.999Z</time></trkpt><trkpt lat="37.63753574755759" lon="14.055756297246154"><ele>662.0</ele><time>2026-04-26T10:12:49.999Z</time></trkpt><trkpt lat="37.63750899744121" lon="14.055884928173052"><ele>662.0</ele><time>2026-04-26T10:12:50.999Z</time></trkpt><trkpt lat="37.63746498349857" lon="14.05601051751074"><ele>662.0</ele><time>2026-04-26T10:12:51.999Z</time></trkpt><trkpt lat="37.63743808695906" lon="14.056134951860058"><ele>662.0</ele><time>2026-04-26T10:12:52.999Z</time></trkpt><trkpt lat="37.6374246537722" lon="14.056252379755652"><ele>662.0</ele><time>2026-04-26T10:12:53.999Z</time></trkpt><trkpt lat="37.63742719922002" lon="14.05635387178079"><ele>662.0</ele><time>2026-04-26T10:12:54.999Z</time></trkpt><trkpt lat="37.63746358463662" lon="14.05644874220355"><ele>662.0</ele><time>2026-04-26T10:12:55.999Z</time></trkpt><trkpt lat="37.637498321701415" lon="14.056537937310534"><ele>662.0</ele><time>2026-04-26T10:12:56.999Z</time></trkpt><trkpt lat="37.63754018382791" lon="14.056616408389429"><ele>662.0</ele><time>2026-04-26T10:12:57.999Z</time></trkpt><trkpt lat="37.6375753212758" lon="14.056688835983886"><ele>662.0</ele><time>2026-04-26T10:12:58.999Z</time></trkpt><trkpt lat="37.63755824540596" lon="14.056769989098823"><ele>662.0</ele><time>2026-04-26T10:12:59.999Z</time></trkpt><trkpt lat="37.63765420391588" lon="14.056865169911028"><ele>662.0</ele><time>2026-04-26T10:13:01.999Z</time></trkpt><trkpt lat="37.63773660596249" lon="14.056915925372156"><ele>662.1666666666666</ele><time>2026-04-26T10:13:19Z</time></trkpt><trkpt lat="37.637808206466254" lon="14.057024756607243"><ele>662.3333333333333</ele><time>2026-04-26T10:13:21Z</time></trkpt><trkpt lat="37.637851494853045" lon="14.05708489312162"><ele>662.5</ele><time>2026-04-26T10:13:22Z</time></trkpt><trkpt lat="37.63789760960936" lon="14.057170791993805"><ele>662.6666666666666</ele><time>2026-04-26T10:13:23Z</time></trkpt><trkpt lat="37.63794015368797" lon="14.057271477906967"><ele>662.8333333333334</ele><time>2026-04-26T10:13:24Z</time></trkpt><trkpt lat="37.63797844515955" lon="14.057387835405779"><ele>663.0</ele><time>2026-04-26T10:13:25Z</time></trkpt><trkpt lat="37.638021339205345" lon="14.057521590676954"><ele>663.0</ele><time>2026-04-26T10:13:26Z</time></trkpt><trkpt lat="37.63806942504427" lon="14.057665585452252"><ele>663.0</ele><time>2026-04-26T10:13:27Z</time></trkpt><trkpt lat="37.63811898305004" lon="14.057805808924575"><ele>663.0</ele><time>2026-04-26T10:13:28Z</time></trkpt><trkpt lat="37.63817291790621" lon="14.057910956345559"><ele>663.0</ele><time>2026-04-26T10:13:29Z</time></trkpt><trkpt lat="37.638258645654105" lon="14.05799607966593"><ele>663.0</ele><time>2026-04-26T10:13:30Z</time></trkpt><trkpt lat="37.638343357090974" lon="14.058050357821344"><ele>663.0</ele><time>2026-04-26T10:13:31Z</time></trkpt><trkpt lat="37.63844127262252" lon="14.058051142457439"><ele>663.0</ele><time>2026-04-26T10:13:32Z</time></trkpt><trkpt lat="37.638533397774545" lon="14.058020211668852"><ele>663.0</ele><time>2026-04-26T10:13:33Z</time></trkpt><trkpt lat="37.63860761568464" lon="14.057974398769494"><ele>663.0</ele><time>2026-04-26T10:13:34Z</time></trkpt><trkpt lat="37.63867401373419" lon="14.057918447555496"><ele>663.8333333333334</ele><time>2026-04-26T10:13:35Z</time></trkpt><trkpt lat="37.6387310658687" lon="14.057836613177258"><ele>664.6666666666666</ele><time>2026-04-26T10:13:36Z</time></trkpt><trkpt lat="37.63877768369095" lon="14.057740360209397"><ele>665.5</ele><time>2026-04-26T10:13:37Z</time></trkpt><trkpt lat="37.63881372329869" lon="14.057655014573303"><ele>666.3333333333333</ele><time>2026-04-26T10:13:38Z</time></trkpt><trkpt lat="37.63885473960061" lon="14.057578964961642"><ele>667.1666666666666</ele><time>2026-04-26T10:13:39Z</time></trkpt><trkpt lat="37.638900771096296" lon="14.057519323372949"><ele>668.0</ele><time>2026-04-26T10:13:40Z</time></trkpt><trkpt lat="37.638958190842075" lon="14.057470689941042"><ele>668.0</ele><time>2026-04-26T10:13:41Z</time></trkpt><trkpt lat="37.6390224827863" lon="14.057456902781947"><ele>668.0</ele><time>2026-04-26T10:13:42Z</time></trkpt><trkpt lat="37.639083975884844" lon="14.057484726399762"><ele>668.0</ele><time>2026-04-26T10:13:43Z</time></trkpt><trkpt lat="37.63913513183924" lon="14.057544757167722"><ele>668.0</ele><time>2026-04-26T10:13:44Z</time></trkpt><trkpt lat="37.639181080819284" lon="14.057615149890344"><ele>668.0</ele><time>2026-04-26T10:13:45Z</time></trkpt><trkpt lat="37.6392496457704" lon="14.057700172370938"><ele>668.0</ele><time>2026-04-26T10:13:46Z</time></trkpt><trkpt lat="37.63931565625265" lon="14.057771698903904"><ele>668.0</ele><time>2026-04-26T10:13:47Z</time></trkpt><trkpt lat="37.639392121516146" lon="14.057819635561367"><ele>668.0</ele><time>2026-04-26T10:13:48Z</time></trkpt><trkpt lat="37.639475254215206" lon="14.057842246502641"><ele>668.0</ele><time>2026-04-26T10:13:49Z</time></trkpt><trkpt lat="37.639572502887894" lon="14.057830912780242"><ele>668.0</ele><time>2026-04-26T10:13:50Z</time></trkpt><trkpt lat="37.639668120740936" lon="14.057784762522505"><ele>668.0</ele><time>2026-04-26T10:13:51Z</time></trkpt><trkpt lat="37.63975815209201" lon="14.057719892658232"><ele>668.3333333333333</ele><time>2026-04-26T10:13:52Z</time></trkpt><trkpt lat="37.63984776244194" lon="14.057692192455468"><ele>668.6666666666666</ele><time>2026-04-26T10:13:53Z</time></trkpt><trkpt lat="37.639920442960985" lon="14.0576441878486"><ele>669.0</ele><time>2026-04-26T10:13:54Z</time></trkpt><trkpt lat="37.639989343941274" lon="14.057633206092156"><ele>669.3333333333334</ele><time>2026-04-26T10:13:55Z</time></trkpt><trkpt lat="37.64006086910425" lon="14.057653362803817"><ele>669.6666666666667</ele><time>2026-04-26T10:13:56Z</time></trkpt><trkpt lat="37.64013610059204" lon="14.057693347833435"><ele>670.0</ele><time>2026-04-26T10:13:56.999Z</time></trkpt><trkpt lat="37.64021182923858" lon="14.057754122750044"><ele>670.0</ele><time>2026-04-26T10:13:57.999Z</time></trkpt><trkpt lat="37.64027649043981" lon="14.057839126366058"><ele>670.0</ele><time>2026-04-26T10:13:58.999Z</time></trkpt><trkpt lat="37.64034018118877" lon="14.05793345934677"><ele>670.0</ele><time>2026-04-26T10:13:59.999Z</time></trkpt><trkpt lat="37.64040692907789" lon="14.05802033040488"><ele>670.0</ele><time>2026-04-26T10:14:00.999Z</time></trkpt><trkpt lat="37.64047375991488" lon="14.058090469833807"><ele>670.0</ele><time>2026-04-26T10:14:01.999Z</time></trkpt><trkpt lat="37.64055252715149" lon="14.05814461140394"><ele>669.8333333333334</ele><time>2026-04-26T10:14:02.999Z</time></trkpt><trkpt lat="37.64063913671185" lon="14.058184188394767"><ele>669.6666666666667</ele><time>2026-04-26T10:14:03.999Z</time></trkpt><trkpt lat="37.64073031626516" lon="14.058217994698134"><ele>669.5</ele><time>2026-04-26T10:14:04.999Z</time></trkpt><trkpt lat="37.64081653529348" lon="14.058242325217252"><ele>669.3333333333334</ele><time>2026-04-26T10:14:05.999Z</time></trkpt><trkpt lat="37.64089241850037" lon="14.058263343684162"><ele>669.1666666666666</ele><time>2026-04-26T10:14:06.999Z</time></trkpt><trkpt lat="37.640972652564855" lon="14.058283327874493"><ele>669.0</ele><time>2026-04-26T10:14:07.999Z</time></trkpt><trkpt lat="37.64105802292953" lon="14.05828517127746"><ele>671.2857142857143</ele><time>2026-04-26T10:14:08.999Z</time></trkpt><trkpt lat="37.64114049802497" lon="14.058283572007676"><ele>673.5714285714286</ele><time>2026-04-26T10:14:09.999Z</time></trkpt><trkpt lat="37.64121203058799" lon="14.058280440458528"><ele>675.8571428571429</ele><time>2026-04-26T10:14:10.999Z</time></trkpt><trkpt lat="37.64128545401603" lon="14.0582770227221"><ele>678.1428571428571</ele><time>2026-04-26T10:14:11.999Z</time></trkpt><trkpt lat="37.641359111440345" lon="14.05826542053237"><ele>680.4285714285714</ele><time>2026-04-26T10:14:12.999Z</time></trkpt><trkpt lat="37.64142503628275" lon="14.058253844198504"><ele>682.7142857142857</ele><time>2026-04-26T10:14:13.999Z</time></trkpt><trkpt lat="37.64148715195076" lon="14.058232854920337"><ele>685.0</ele><time>2026-04-26T10:14:14.999Z</time></trkpt><trkpt lat="37.64158697987543" lon="14.058161547893507"><ele>685.0</ele><time>2026-04-26T10:14:16.999Z</time></trkpt><trkpt lat="37.64163371721816" lon="14.058105670471779"><ele>685.0</ele><time>2026-04-26T10:14:17.999Z</time></trkpt><trkpt lat="37.6416856865633" lon="14.058047052336594"><ele>685.0</ele><time>2026-04-26T10:14:18.999Z</time></trkpt><trkpt lat="37.64174071363912" lon="14.05798928668962"><ele>685.0</ele><time>2026-04-26T10:14:19.999Z</time></trkpt><trkpt lat="37.64179352801861" lon="14.057936527326463"><ele>685.0</ele><time>2026-04-26T10:14:20.999Z</time></trkpt><trkpt lat="37.64186160328419" lon="14.057865005729758"><ele>685.0</ele><time>2026-04-26T10:14:22.999Z</time></trkpt><trkpt lat="37.64192445441906" lon="14.057841612612778"><ele>685.0</ele><time>2026-04-26T10:14:27.999Z</time></trkpt><trkpt lat="37.64202027864893" lon="14.05776095514937"><ele>685.0</ele><time>2026-04-26T10:14:31.999Z</time></trkpt><trkpt lat="37.642131880469464" lon="14.057676992304563"><ele>685.0</ele><time>2026-04-26T10:14:33.999Z</time></trkpt><trkpt lat="37.64219821082204" lon="14.057629659806194"><ele>685.0</ele><time>2026-04-26T10:14:34.999Z</time></trkpt><trkpt lat="37.64227320557227" lon="14.057589378769716"><ele>685.0</ele><time>2026-04-26T10:14:35.999Z</time></trkpt><trkpt lat="37.64233852015662" lon="14.057564434383258"><ele>685.0</ele><time>2026-04-26T10:14:36.999Z</time></trkpt><trkpt lat="37.64240712684264" lon="14.057540830752119"><ele>685.0</ele><time>2026-04-26T10:14:37.999Z</time></trkpt><trkpt lat="37.64251655123425" lon="14.057520963561688"><ele>685.0</ele><time>2026-04-26T10:14:39.999Z</time></trkpt><trkpt lat="37.64274757328046" lon="14.058020568009646"><ele>682.6666666666667</ele><time>2026-04-26T10:14:40.999Z</time></trkpt><trkpt lat="37.642819973849996" lon="14.058028727562977"><ele>680.3333333333334</ele><time>2026-04-26T10:14:41.999Z</time></trkpt><trkpt lat="37.64290015540446" lon="14.05801263024479"><ele>678.0</ele><time>2026-04-26T10:14:42.999Z</time></trkpt><trkpt lat="37.64298011974679" lon="14.05799491018748"><ele>675.6666666666666</ele><time>2026-04-26T10:14:43.999Z</time></trkpt><trkpt lat="37.64306099160472" lon="14.057975418496591"><ele>673.3333333333333</ele><time>2026-04-26T10:14:44.999Z</time></trkpt><trkpt lat="37.643146622022044" lon="14.05796705029207"><ele>671.0</ele><time>2026-04-26T10:14:45.999Z</time></trkpt><trkpt lat="37.64322273592706" lon="14.05798536968233"><ele>671.0</ele><time>2026-04-26T10:14:46.999Z</time></trkpt><trkpt lat="37.643294943914" lon="14.058018339659004"><ele>671.0</ele><time>2026-04-26T10:14:47.999Z</time></trkpt><trkpt lat="37.643362042917616" lon="14.058051489846548"><ele>671.0</ele><time>2026-04-26T10:14:48.999Z</time></trkpt><trkpt lat="37.643436727006254" lon="14.058080814682835"><ele>671.0</ele><time>2026-04-26T10:14:49.999Z</time></trkpt><trkpt lat="37.64351190775427" lon="14.058100578455328"><ele>671.0</ele><time>2026-04-26T10:14:50.999Z</time></trkpt><trkpt lat="37.643598318425234" lon="14.058178635701418"><ele>671.0</ele><time>2026-04-26T10:14:52.999Z</time></trkpt><trkpt lat="37.6435956545825" lon="14.058358341641858"><ele>669.5</ele><time>2026-04-26T10:14:54.999Z</time></trkpt><trkpt lat="37.64354755927559" lon="14.05845454419186"><ele>668.0</ele><time>2026-04-26T10:14:55.999Z</time></trkpt><trkpt lat="37.64350620695594" lon="14.05855143241753"><ele>666.5</ele><time>2026-04-26T10:14:56.999Z</time></trkpt><trkpt lat="37.64349777313113" lon="14.058652388417867"><ele>665.0</ele><time>2026-04-26T10:14:57.999Z</time></trkpt><trkpt lat="37.6435125520027" lon="14.058759165286672"><ele>663.5</ele><time>2026-04-26T10:14:58.999Z</time></trkpt><trkpt lat="37.643554385050265" lon="14.05887810183394"><ele>662.0</ele><time>2026-04-26T10:14:59.999Z</time></trkpt><trkpt lat="37.64360438710798" lon="14.059009755854156"><ele>664.0</ele><time>2026-04-26T10:15:00.999Z</time></trkpt><trkpt lat="37.64365329526236" lon="14.059148477819978"><ele>666.0</ele><time>2026-04-26T10:15:01.999Z</time></trkpt><trkpt lat="37.64370375175872" lon="14.059300805350365"><ele>668.0</ele><time>2026-04-26T10:15:02.999Z</time></trkpt><trkpt lat="37.64374165124037" lon="14.059460363834688"><ele>670.0</ele><time>2026-04-26T10:15:03.999Z</time></trkpt><trkpt lat="37.6437684389208" lon="14.059633663117928"><ele>670.0</ele><time>2026-04-26T10:15:04.999Z</time></trkpt><trkpt lat="37.64378437913411" lon="14.05981135288247"><ele>670.0</ele><time>2026-04-26T10:15:05.999Z</time></trkpt><trkpt lat="37.64379879867434" lon="14.059989111222668"><ele>670.0</ele><time>2026-04-26T10:15:06.999Z</time></trkpt><trkpt lat="37.64380565764071" lon="14.060172568950975"><ele>670.0</ele><time>2026-04-26T10:15:07.999Z</time></trkpt><trkpt lat="37.64380536801066" lon="14.060354235756739"><ele>670.75</ele><time>2026-04-26T10:15:08.999Z</time></trkpt><trkpt lat="37.64381636376552" lon="14.060527546025906"><ele>671.5</ele><time>2026-04-26T10:15:09.999Z</time></trkpt><trkpt lat="37.643821716282474" lon="14.060678743379984"><ele>672.25</ele><time>2026-04-26T10:15:10.999Z</time></trkpt><trkpt lat="37.64381826005144" lon="14.060822351446985"><ele>673.0</ele><time>2026-04-26T10:15:11.999Z</time></trkpt><trkpt lat="37.64382453202709" lon="14.060952155467891"><ele>673.5999999999999</ele><time>2026-04-26T10:15:12.999Z</time></trkpt><trkpt lat="37.64384804248991" lon="14.061078303976181"><ele>674.1999999999999</ele><time>2026-04-26T10:15:13.998Z</time></trkpt><trkpt lat="37.64388576756881" lon="14.06119937664424"><ele>674.8</ele><time>2026-04-26T10:15:15Z</time></trkpt><trkpt lat="37.64394424285446" lon="14.061310220196"><ele>675.4</ele><time>2026-04-26T10:15:16Z</time></trkpt><trkpt lat="37.64401916949805" lon="14.061409864360828"><ele>676.0</ele><time>2026-04-26T10:15:17Z</time></trkpt><trkpt lat="37.64409574565726" lon="14.061512271890356"><ele>674.4</ele><time>2026-04-26T10:15:18Z</time></trkpt><trkpt lat="37.644176490738616" lon="14.061626421747146"><ele>672.8</ele><time>2026-04-26T10:15:19Z</time></trkpt><trkpt lat="37.64424908793253" lon="14.06173054058542"><ele>671.1999999999999</ele><time>2026-04-26T10:15:20Z</time></trkpt><trkpt lat="37.64432087780359" lon="14.06182843562967"><ele>669.5999999999999</ele><time>2026-04-26T10:15:21Z</time></trkpt><trkpt lat="37.64440418741897" lon="14.061921295128611"><ele>668.0</ele><time>2026-04-26T10:15:22Z</time></trkpt><trkpt lat="37.64450281473867" lon="14.06200865710277"><ele>669.0</ele><time>2026-04-26T10:15:23Z</time></trkpt><trkpt lat="37.64460172453314" lon="14.06210834754993"><ele>670.0</ele><time>2026-04-26T10:15:24Z</time></trkpt><trkpt lat="37.644695620100414" lon="14.062222884307083"><ele>671.0</ele><time>2026-04-26T10:15:25Z</time></trkpt><trkpt lat="37.64478739108002" lon="14.062342201564709"><ele>672.0</ele><time>2026-04-26T10:15:26Z</time></trkpt><trkpt lat="37.64488220385424" lon="14.062455056199505"><ele>672.0</ele><time>2026-04-26T10:15:27Z</time></trkpt><trkpt lat="37.644982849444716" lon="14.062560889563256"><ele>672.0</ele><time>2026-04-26T10:15:28Z</time></trkpt><trkpt lat="37.64508448385445" lon="14.062663088678855"><ele>672.0</ele><time>2026-04-26T10:15:29Z</time></trkpt><trkpt lat="37.64518488264231" lon="14.062765796887293"><ele>672.0</ele><time>2026-04-26T10:15:30Z</time></trkpt><trkpt lat="37.64527951658146" lon="14.062868233246057"><ele>675.0</ele><time>2026-04-26T10:15:31Z</time></trkpt><trkpt lat="37.645366765478684" lon="14.062986491707283"><ele>678.0</ele><time>2026-04-26T10:15:32Z</time></trkpt><trkpt lat="37.64543519034341" lon="14.063122828828304"><ele>681.0</ele><time>2026-04-26T10:15:33Z</time></trkpt><trkpt lat="37.64550007141131" lon="14.063257138588654"><ele>684.0</ele><time>2026-04-26T10:15:34Z</time></trkpt><trkpt lat="37.64559203591249" lon="14.06336561228001"><ele>684.0</ele><time>2026-04-26T10:15:35Z</time></trkpt><trkpt lat="37.64567376511141" lon="14.063479954947836"><ele>684.0</ele><time>2026-04-26T10:15:36Z</time></trkpt><trkpt lat="37.64575977904512" lon="14.063587709022402"><ele>684.0</ele><time>2026-04-26T10:15:37Z</time></trkpt><trkpt lat="37.64586502313625" lon="14.063674963765196"><ele>684.0</ele><time>2026-04-26T10:15:38Z</time></trkpt><trkpt lat="37.645961811905224" lon="14.063748448682208"><ele>684.0</ele><time>2026-04-26T10:15:39Z</time></trkpt><trkpt lat="37.64605419575837" lon="14.06382501113765"><ele>684.0</ele><time>2026-04-26T10:15:40Z</time></trkpt><trkpt lat="37.646137895343536" lon="14.063917329403248"><ele>684.0</ele><time>2026-04-26T10:15:41Z</time></trkpt><trkpt lat="37.64621585832324" lon="14.064012688570841"><ele>684.0</ele><time>2026-04-26T10:15:42Z</time></trkpt><trkpt lat="37.646290336290924" lon="14.064108311054923"><ele>684.0</ele><time>2026-04-26T10:15:43Z</time></trkpt><trkpt lat="37.64634926216135" lon="14.064226071930406"><ele>687.75</ele><time>2026-04-26T10:15:44Z</time></trkpt><trkpt lat="37.64639209844993" lon="14.064364376719077"><ele>691.5</ele><time>2026-04-26T10:15:45Z</time></trkpt><trkpt lat="37.64643876143854" lon="14.064498328606467"><ele>695.25</ele><time>2026-04-26T10:15:46Z</time></trkpt><trkpt lat="37.646487409431714" lon="14.064625586267178"><ele>699.0</ele><time>2026-04-26T10:15:47Z</time></trkpt><trkpt lat="37.64653731025723" lon="14.064758670375285"><ele>699.0</ele><time>2026-04-26T10:15:48Z</time></trkpt><trkpt lat="37.646581590758174" lon="14.064890584304687"><ele>699.0</ele><time>2026-04-26T10:15:49Z</time></trkpt><trkpt lat="37.64661885734511" lon="14.065021919735662"><ele>699.0</ele><time>2026-04-26T10:15:50Z</time></trkpt><trkpt lat="37.64664649853485" lon="14.065134663757053"><ele>699.0</ele><time>2026-04-26T10:15:51Z</time></trkpt><trkpt lat="37.646658550726876" lon="14.065216628640341"><ele>699.0</ele><time>2026-04-26T10:15:52Z</time></trkpt><trkpt lat="37.64678309752253" lon="14.065384816482943"><ele>699.5</ele><time>2026-04-26T10:15:54Z</time></trkpt><trkpt lat="37.64678122938488" lon="14.065479844726799"><ele>700.0</ele><time>2026-04-26T10:16:01Z</time></trkpt><trkpt lat="37.646818979198315" lon="14.065572716547805"><ele>700.5</ele><time>2026-04-26T10:16:02Z</time></trkpt><trkpt lat="37.646870708290216" lon="14.065658737373347"><ele>701.0</ele><time>2026-04-26T10:16:03Z</time></trkpt><trkpt lat="37.646949439850445" lon="14.065789660678368"><ele>701.5</ele><time>2026-04-26T10:16:04Z</time></trkpt><trkpt lat="37.6469981503531" lon="14.065855907834012"><ele>702.0</ele><time>2026-04-26T10:16:05Z</time></trkpt><trkpt lat="37.64704190439137" lon="14.065924072999476"><ele>702.3333333333334</ele><time>2026-04-26T10:16:06Z</time></trkpt><trkpt lat="37.647081997170126" lon="14.065997470074612"><ele>702.6666666666666</ele><time>2026-04-26T10:16:06.999Z</time></trkpt><trkpt lat="37.647125756381946" lon="14.06606944842113"><ele>703.0</ele><time>2026-04-26T10:16:07.999Z</time></trkpt><trkpt lat="37.64716855380141" lon="14.066150399776589"><ele>703.3333333333333</ele><time>2026-04-26T10:16:08.999Z</time></trkpt><trkpt lat="37.647214025780386" lon="14.066234584894403"><ele>703.6666666666666</ele><time>2026-04-26T10:16:09.999Z</time></trkpt><trkpt lat="37.64726080053033" lon="14.066321201229622"><ele>704.0</ele><time>2026-04-26T10:16:10.999Z</time></trkpt><trkpt lat="37.64730275086027" lon="14.066405314990476"><ele>704.0</ele><time>2026-04-26T10:16:11.999Z</time></trkpt><trkpt lat="37.64735038428556" lon="14.066485031872507"><ele>704.0</ele><time>2026-04-26T10:16:12.999Z</time></trkpt><trkpt lat="37.64740025061663" lon="14.066574066611217"><ele>704.0</ele><time>2026-04-26T10:16:14.999Z</time></trkpt><trkpt lat="37.647367950815735" lon="14.06669133741883"><ele>704.0</ele><time>2026-04-26T10:16:26.999Z</time></trkpt><trkpt lat="37.64733373672341" lon="14.066791876051917"><ele>704.0</ele><time>2026-04-26T10:16:28.999Z</time></trkpt><trkpt lat="37.647310970106055" lon="14.066907126662322"><ele>704.0</ele><time>2026-04-26T10:16:30.999Z</time></trkpt><trkpt lat="37.647305236743826" lon="14.067045644652952"><ele>702.4000000000001</ele><time>2026-04-26T10:16:32.999Z</time></trkpt><trkpt lat="37.647377851013225" lon="14.067085958166336"><ele>700.8</ele><time>2026-04-26T10:16:33.999Z</time></trkpt><trkpt lat="37.64739520648503" lon="14.067180796835618"><ele>699.2</ele><time>2026-04-26T10:16:35.999Z</time></trkpt><trkpt lat="37.647419958153925" lon="14.067293747960353"><ele>697.5999999999999</ele><time>2026-04-26T10:16:37.999Z</time></trkpt><trkpt lat="37.64745553495931" lon="14.067437307078954"><ele>696.0</ele><time>2026-04-26T10:16:39.999Z</time></trkpt><trkpt lat="37.6474831771005" lon="14.067542748298434"><ele>695.0</ele><time>2026-04-26T10:16:41.999Z</time></trkpt><trkpt lat="37.64751683885074" lon="14.067667973284902"><ele>694.0</ele><time>2026-04-26T10:16:43.999Z</time></trkpt><trkpt lat="37.647555520727785" lon="14.06776421132681"><ele>693.0</ele><time>2026-04-26T10:16:45.999Z</time></trkpt><trkpt lat="37.64759814186083" lon="14.067876013474494"><ele>692.0</ele><time>2026-04-26T10:16:48.999Z</time></trkpt><trkpt lat="37.647638644808836" lon="14.068069355382937"><ele>691.0</ele><time>2026-04-26T10:16:49.999Z</time></trkpt><trkpt lat="37.64757945360509" lon="14.068181672683732"><ele>691.0</ele><time>2026-04-26T10:16:51.999Z</time></trkpt><trkpt lat="37.647529973349144" lon="14.068271066156129"><ele>691.0</ele><time>2026-04-26T10:16:53.999Z</time></trkpt><trkpt lat="37.64749895115465" lon="14.068388584584856"><ele>691.0</ele><time>2026-04-26T10:16:55.999Z</time></trkpt><trkpt lat="37.647497407559136" lon="14.068478472229545"><ele>691.0</ele><time>2026-04-26T10:16:57.999Z</time></trkpt><trkpt lat="37.64755493349464" lon="14.068515834125337"><ele>691.0</ele><time>2026-04-26T10:17:00.999Z</time></trkpt><trkpt lat="37.647500682133526" lon="14.068630190955288"><ele>691.0</ele><time>2026-04-26T10:17:01.999Z</time></trkpt><trkpt lat="37.6475773857837" lon="14.068745493938488"><ele>689.75</ele><time>2026-04-26T10:17:04.999Z</time></trkpt><trkpt lat="37.647710169509345" lon="14.068928834248888"><ele>688.5</ele><time>2026-04-26T10:17:07.999Z</time></trkpt><trkpt lat="37.64782417504097" lon="14.068999342652122"><ele>687.25</ele><time>2026-04-26T10:17:09.999Z</time></trkpt><trkpt lat="37.647894765162576" lon="14.06911142717122"><ele>686.0</ele><time>2026-04-26T10:17:11.999Z</time></trkpt><trkpt lat="37.647979995987384" lon="14.0691988429212"><ele>680.3333333333333</ele><time>2026-04-26T10:17:13.999Z</time></trkpt><trkpt lat="37.64803056140914" lon="14.069246266441155"><ele>674.6666666666666</ele><time>2026-04-26T10:17:14.999Z</time></trkpt><trkpt lat="37.64812818548627" lon="14.069335527607256"><ele>669.0</ele><time>2026-04-26T10:17:16.999Z</time></trkpt><trkpt lat="37.648177511431676" lon="14.069394184090363"><ele>663.3333333333334</ele><time>2026-04-26T10:17:17.999Z</time></trkpt><trkpt lat="37.648227531560536" lon="14.069476825153647"><ele>657.6666666666667</ele><time>2026-04-26T10:17:18.999Z</time></trkpt><trkpt lat="37.64827600191503" lon="14.069551904597406"><ele>652.0</ele><time>2026-04-26T10:17:19.999Z</time></trkpt><trkpt lat="37.64832447729705" lon="14.069625403199291"><ele>652.0</ele><time>2026-04-26T10:17:21Z</time></trkpt><trkpt lat="37.64836900976526" lon="14.069692923459193"><ele>652.0</ele><time>2026-04-26T10:17:22Z</time></trkpt><trkpt lat="37.64843653474404" lon="14.069795305074653"><ele>652.0</ele><time>2026-04-26T10:17:24Z</time></trkpt><trkpt lat="37.64848868103781" lon="14.069874369524898"><ele>652.0</ele><time>2026-04-26T10:17:26Z</time></trkpt><trkpt lat="37.64853597002986" lon="14.069945134700005"><ele>652.0</ele><time>2026-04-26T10:17:28Z</time></trkpt><trkpt lat="37.64845025392565" lon="14.070005296645627"><ele>652.0</ele><time>2026-04-26T10:18:47.999Z</time></trkpt><trkpt lat="37.64849614751513" lon="14.07006811866904"><ele>652.2</ele><time>2026-04-26T10:19:48Z</time></trkpt><trkpt lat="37.64855236756171" lon="14.070137399652785"><ele>652.4000000000001</ele><time>2026-04-26T10:21:16.999Z</time></trkpt><trkpt lat="37.64861906292099" lon="14.070226297723883"><ele>652.5999999999999</ele><time>2026-04-26T10:21:19.999Z</time></trkpt><trkpt lat="37.64867875118624" lon="14.070304594752622"><ele>652.8</ele><time>2026-04-26T10:21:21.999Z</time></trkpt><trkpt lat="37.64874878607111" lon="14.0703885918906"><ele>653.0</ele><time>2026-04-26T10:21:23.999Z</time></trkpt><trkpt lat="37.64881058187049" lon="14.070478051620201"><ele>648.0</ele><time>2026-04-26T10:21:25.999Z</time></trkpt><trkpt lat="37.648871246289694" lon="14.070582042593319"><ele>643.0</ele><time>2026-04-26T10:21:27.999Z</time></trkpt><trkpt lat="37.648977383714" lon="14.070673364171556"><ele>638.0</ele><time>2026-04-26T10:21:29.999Z</time></trkpt><trkpt lat="37.64899775950337" lon="14.07075127709023"><ele>633.0</ele><time>2026-04-26T10:21:30.999Z</time></trkpt><trkpt lat="37.64901724699255" lon="14.070827308416423"><ele>628.0</ele><time>2026-04-26T10:21:31.999Z</time></trkpt><trkpt lat="37.64903912777668" lon="14.070911551772799"><ele>623.0</ele><time>2026-04-26T10:21:33Z</time></trkpt><trkpt lat="37.649061093458165" lon="14.070990546099463"><ele>623.0</ele><time>2026-04-26T10:21:34Z</time></trkpt><trkpt lat="37.649085611362366" lon="14.071067004198202"><ele>623.0</ele><time>2026-04-26T10:21:35Z</time></trkpt><trkpt lat="37.64913641803747" lon="14.071183413147079"><ele>623.0</ele><time>2026-04-26T10:21:37Z</time></trkpt><trkpt lat="37.649196612294936" lon="14.071241976789146"><ele>623.0</ele><time>2026-04-26T10:21:39Z</time></trkpt><trkpt lat="37.64927990835183" lon="14.071331043494132"><ele>623.0</ele><time>2026-04-26T10:21:41Z</time></trkpt><trkpt lat="37.64937361627193" lon="14.071416055523251"><ele>623.0</ele><time>2026-04-26T10:21:43Z</time></trkpt><trkpt lat="37.649450299570105" lon="14.071483225415962"><ele>623.0</ele><time>2026-04-26T10:21:45Z</time></trkpt><trkpt lat="37.649506006649865" lon="14.071533406461056"><ele>623.0</ele><time>2026-04-26T10:21:47Z</time></trkpt><trkpt lat="37.64955960874248" lon="14.0715816911485"><ele>623.0</ele><time>2026-04-26T10:21:50Z</time></trkpt><trkpt lat="37.64962815111013" lon="14.071641988798634"><ele>623.0</ele><time>2026-04-26T10:21:51Z</time></trkpt><trkpt lat="37.6497110614034" lon="14.07171151669519"><ele>623.0</ele><time>2026-04-26T10:21:53Z</time></trkpt><trkpt lat="37.649794109848706" lon="14.071776459314291"><ele>619.8</ele><time>2026-04-26T10:21:55Z</time></trkpt><trkpt lat="37.64988637496155" lon="14.071840817773897"><ele>616.5999999999999</ele><time>2026-04-26T10:21:57Z</time></trkpt><trkpt lat="37.649983295966365" lon="14.071904640408691"><ele>613.4000000000001</ele><time>2026-04-26T10:21:59Z</time></trkpt><trkpt lat="37.65006605631382" lon="14.071947105158635"><ele>610.2</ele><time>2026-04-26T10:22:01Z</time></trkpt><trkpt lat="37.65013354322361" lon="14.071972557598382"><ele>607.0</ele><time>2026-04-26T10:22:04Z</time></trkpt><trkpt lat="37.65021322775966" lon="14.071979406019933"><ele>604.0</ele><time>2026-04-26T10:22:06Z</time></trkpt><trkpt lat="37.65030385808122" lon="14.07198282328377"><ele>601.0</ele><time>2026-04-26T10:22:08Z</time></trkpt><trkpt lat="37.650420739485554" lon="14.072029675757538"><ele>598.0</ele><time>2026-04-26T10:26:38Z</time></trkpt><trkpt lat="37.6505067470934" lon="14.072057140904889"><ele>595.0</ele><time>2026-04-26T10:26:41Z</time></trkpt><trkpt lat="37.650574713535555" lon="14.072073690619074"><ele>592.0</ele><time>2026-04-26T10:26:42Z</time></trkpt><trkpt lat="37.650644703176226" lon="14.07209140528796"><ele>589.0</ele><time>2026-04-26T10:26:43Z</time></trkpt><trkpt lat="37.650763616374554" lon="14.072127309096272"><ele>589.0</ele><time>2026-04-26T10:26:45Z</time></trkpt><trkpt lat="37.65089037666952" lon="14.072146797521611"><ele>589.0</ele><time>2026-04-26T10:26:47Z</time></trkpt><trkpt lat="37.65095969251293" lon="14.072146645632174"><ele>589.0</ele><time>2026-04-26T10:26:48Z</time></trkpt><trkpt lat="37.65103542694858" lon="14.07214742929716"><ele>589.0</ele><time>2026-04-26T10:26:48.999Z</time></trkpt><trkpt lat="37.65111200001693" lon="14.072148619185745"><ele>589.0</ele><time>2026-04-26T10:26:49.999Z</time></trkpt><trkpt lat="37.651192334164364" lon="14.072147296262425"><ele>589.0</ele><time>2026-04-26T10:26:50.999Z</time></trkpt><trkpt lat="37.65127151047916" lon="14.072142937339434"><ele>586.1666666666667</ele><time>2026-04-26T10:26:51.999Z</time></trkpt><trkpt lat="37.65135214692451" lon="14.072140713899628"><ele>583.3333333333334</ele><time>2026-04-26T10:26:52.999Z</time></trkpt><trkpt lat="37.65143307869686" lon="14.072138785374735"><ele>580.5</ele><time>2026-04-26T10:26:53.999Z</time></trkpt><trkpt lat="37.651510541098354" lon="14.072135432064508"><ele>577.6666666666666</ele><time>2026-04-26T10:26:54.999Z</time></trkpt><trkpt lat="37.65158472652612" lon="14.072131201797387"><ele>574.8333333333333</ele><time>2026-04-26T10:26:55.999Z</time></trkpt><trkpt lat="37.651662896733846" lon="14.07212910832392"><ele>572.0</ele><time>2026-04-26T10:26:56.999Z</time></trkpt><trkpt lat="37.65173472923579" lon="14.072128984984836"><ele>572.0</ele><time>2026-04-26T10:26:57.999Z</time></trkpt><trkpt lat="37.65180222153744" lon="14.072126874479666"><ele>572.0</ele><time>2026-04-26T10:26:58.999Z</time></trkpt><trkpt lat="37.65186519336638" lon="14.072124228481119"><ele>572.0</ele><time>2026-04-26T10:26:59.999Z</time></trkpt><trkpt lat="37.65198615962272" lon="14.072122962895842"><ele>572.0</ele><time>2026-04-26T10:27:01.999Z</time></trkpt><trkpt lat="37.65208793742057" lon="14.072145775799887"><ele>572.0</ele><time>2026-04-26T10:27:03.999Z</time></trkpt><trkpt lat="37.65217931662108" lon="14.072141044039359"><ele>572.0</ele><time>2026-04-26T10:27:05.999Z</time></trkpt><trkpt lat="37.652289477139696" lon="14.072132036034565"><ele>569.6666666666666</ele><time>2026-04-26T10:27:07.999Z</time></trkpt><trkpt lat="37.65240192428654" lon="14.072084260910223"><ele>567.3333333333333</ele><time>2026-04-26T10:27:09.999Z</time></trkpt><trkpt lat="37.65246804906984" lon="14.072080376989748"><ele>565.0</ele><time>2026-04-26T10:27:10.999Z</time></trkpt><trkpt lat="37.652535767928086" lon="14.072064565898728"><ele>562.6666666666666</ele><time>2026-04-26T10:27:11.999Z</time></trkpt><trkpt lat="37.65260834367212" lon="14.072047620774308"><ele>560.3333333333334</ele><time>2026-04-26T10:27:12.999Z</time></trkpt><trkpt lat="37.652675932505055" lon="14.072031839994935"><ele>558.0</ele><time>2026-04-26T10:27:13.999Z</time></trkpt><trkpt lat="37.65275375753999" lon="14.072012270663011"><ele>557.4285714285713</ele><time>2026-04-26T10:27:14.999Z</time></trkpt><trkpt lat="37.652825530805856" lon="14.071993401033064"><ele>556.8571428571429</ele><time>2026-04-26T10:27:15.999Z</time></trkpt><trkpt lat="37.65288640576064" lon="14.07195776344136"><ele>556.2857142857142</ele><time>2026-04-26T10:27:16.999Z</time></trkpt><trkpt lat="37.652959256984296" lon="14.07195190098531"><ele>555.7142857142857</ele><time>2026-04-26T10:27:17.999Z</time></trkpt><trkpt lat="37.653029805156734" lon="14.071945508956485"><ele>555.1428571428571</ele><time>2026-04-26T10:27:18.999Z</time></trkpt><trkpt lat="37.65309581398276" lon="14.071914675636442"><ele>554.5714285714286</ele><time>2026-04-26T10:27:19.999Z</time></trkpt><trkpt lat="37.653170010049706" lon="14.071919297530608"><ele>554.0</ele><time>2026-04-26T10:27:20.999Z</time></trkpt><trkpt lat="37.65324034898373" lon="14.071904847056027"><ele>554.0</ele><time>2026-04-26T10:27:21.999Z</time></trkpt><trkpt lat="37.65330390565651" lon="14.071892774919606"><ele>554.0</ele><time>2026-04-26T10:27:22.999Z</time></trkpt><trkpt lat="37.65338650180033" lon="14.071864137064635"><ele>554.0</ele><time>2026-04-26T10:27:24.999Z</time></trkpt><trkpt lat="37.65344275239234" lon="14.07182746427887"><ele>554.0</ele><time>2026-04-26T10:27:36.999Z</time></trkpt><trkpt lat="37.65348511221779" lon="14.071754538597853"><ele>554.0</ele><time>2026-04-26T10:27:38.999Z</time></trkpt><trkpt lat="37.65355900886531" lon="14.071651771445161"><ele>554.0</ele><time>2026-04-26T10:27:40.999Z</time></trkpt><trkpt lat="37.653649148959154" lon="14.071542876203585"><ele>553.3333333333333</ele><time>2026-04-26T10:27:42.999Z</time></trkpt><trkpt lat="37.65373119584802" lon="14.071435283273445"><ele>552.6666666666666</ele><time>2026-04-26T10:27:44.999Z</time></trkpt><trkpt lat="37.65377857437411" lon="14.071375266116108"><ele>552.0</ele><time>2026-04-26T10:27:45.999Z</time></trkpt><trkpt lat="37.65382360788093" lon="14.071316255174317"><ele>551.3333333333334</ele><time>2026-04-26T10:27:46.999Z</time></trkpt><trkpt lat="37.65387050459776" lon="14.071247331672543"><ele>550.6666666666667</ele><time>2026-04-26T10:27:47.999Z</time></trkpt><trkpt lat="37.65394307686114" lon="14.07112070492738"><ele>550.0</ele><time>2026-04-26T10:27:49.999Z</time></trkpt><trkpt lat="37.65397330462059" lon="14.071011776009803"><ele>550.0</ele><time>2026-04-26T10:27:53Z</time></trkpt><trkpt lat="37.6539999171749" lon="14.070918508346121"><ele>550.0</ele><time>2026-04-26T10:27:55Z</time></trkpt><trkpt lat="37.65402837248215" lon="14.07084506915811"><ele>550.0</ele><time>2026-04-26T10:27:57Z</time></trkpt><trkpt lat="37.65406240588379" lon="14.070770385047814"><ele>550.0</ele><time>2026-04-26T10:27:59Z</time></trkpt><trkpt lat="37.654112457074646" lon="14.07067964732093"><ele>550.0</ele><time>2026-04-26T10:28:01Z</time></trkpt><trkpt lat="37.65418835454001" lon="14.070567693421244"><ele>550.0</ele><time>2026-04-26T10:28:03Z</time></trkpt><trkpt lat="37.65428224566214" lon="14.070463483220506"><ele>550.0</ele><time>2026-04-26T10:28:05Z</time></trkpt><trkpt lat="37.654373056547215" lon="14.070349600424317"><ele>550.0</ele><time>2026-04-26T10:28:07Z</time></trkpt><trkpt lat="37.65442184465067" lon="14.070287619833127"><ele>550.0</ele><time>2026-04-26T10:28:08Z</time></trkpt><trkpt lat="37.65446665195382" lon="14.070221453854714"><ele>550.0</ele><time>2026-04-26T10:28:09Z</time></trkpt><trkpt lat="37.654543816445795" lon="14.070108037387097"><ele>550.0</ele><time>2026-04-26T10:28:11Z</time></trkpt><trkpt lat="37.65464228273934" lon="14.070008532289515"><ele>550.0</ele><time>2026-04-26T10:28:13Z</time></trkpt><trkpt lat="37.65469825247365" lon="14.0699533568739"><ele>550.0</ele><time>2026-04-26T10:28:14Z</time></trkpt><trkpt lat="37.654741101481264" lon="14.069887847838917"><ele>550.0</ele><time>2026-04-26T10:28:15Z</time></trkpt><trkpt lat="37.6547734603584" lon="14.069815358034184"><ele>550.0</ele><time>2026-04-26T10:28:16Z</time></trkpt><trkpt lat="37.6547933899898" lon="14.069735512823092"><ele>550.0</ele><time>2026-04-26T10:28:17Z</time></trkpt><trkpt lat="37.65480985339025" lon="14.06965381956812"><ele>550.0</ele><time>2026-04-26T10:28:18Z</time></trkpt><trkpt lat="37.65485739233714" lon="14.069514896200667"><ele>548.1428571428571</ele><time>2026-04-26T10:28:20Z</time></trkpt><trkpt lat="37.654897503104344" lon="14.069424788160058"><ele>546.2857142857142</ele><time>2026-04-26T10:28:21Z</time></trkpt><trkpt lat="37.65492294163267" lon="14.069341898821849"><ele>544.4285714285713</ele><time>2026-04-26T10:28:22Z</time></trkpt><trkpt lat="37.65494411473492" lon="14.069262473453255"><ele>542.5714285714286</ele><time>2026-04-26T10:28:23Z</time></trkpt><trkpt lat="37.65496781199231" lon="14.069180203925054"><ele>540.7142857142857</ele><time>2026-04-26T10:28:24Z</time></trkpt><trkpt lat="37.654988426618054" lon="14.069102527660966"><ele>538.8571428571428</ele><time>2026-04-26T10:28:25Z</time></trkpt><trkpt lat="37.65502635940657" lon="14.069031825051445"><ele>537.0</ele><time>2026-04-26T10:28:26Z</time></trkpt><trkpt lat="37.655077064484914" lon="14.068889629644948"><ele>537.0</ele><time>2026-04-26T10:28:28Z</time></trkpt><trkpt lat="37.655110239624555" lon="14.068810295914687"><ele>537.0</ele><time>2026-04-26T10:28:29Z</time></trkpt><trkpt lat="37.65514919375789" lon="14.06873359883807"><ele>537.0</ele><time>2026-04-26T10:28:30Z</time></trkpt><trkpt lat="37.65518256872137" lon="14.06864665430043"><ele>537.0</ele><time>2026-04-26T10:28:31Z</time></trkpt><trkpt lat="37.65521457076453" lon="14.0685689939322"><ele>537.0</ele><time>2026-04-26T10:28:32Z</time></trkpt><trkpt lat="37.65529666528449" lon="14.068453188826505"><ele>537.0</ele><time>2026-04-26T10:28:34Z</time></trkpt><trkpt lat="37.6553602800649" lon="14.068329071106346"><ele>534.4</ele><time>2026-04-26T10:28:36Z</time></trkpt><trkpt lat="37.655416740757" lon="14.068181558584072"><ele>531.8000000000001</ele><time>2026-04-26T10:28:38Z</time></trkpt><trkpt lat="37.655482596617894" lon="14.068066251568572"><ele>529.2</ele><time>2026-04-26T10:28:40Z</time></trkpt><trkpt lat="37.65552226303058" lon="14.067964885465404"><ele>526.6</ele><time>2026-04-26T10:28:42Z</time></trkpt><trkpt lat="37.65555488640863" lon="14.067863771967897"><ele>524.0</ele><time>2026-04-26T10:28:44Z</time></trkpt><trkpt lat="37.6555864704857" lon="14.067736622031607"><ele>524.0</ele><time>2026-04-26T10:28:45.999Z</time></trkpt><trkpt lat="37.65560154277102" lon="14.067651421196915"><ele>524.0</ele><time>2026-04-26T10:28:46.999Z</time></trkpt><trkpt lat="37.655614380447666" lon="14.0675727386696"><ele>524.0</ele><time>2026-04-26T10:28:47.999Z</time></trkpt><trkpt lat="37.655637175538516" lon="14.067442488089686"><ele>524.0</ele><time>2026-04-26T10:28:49.999Z</time></trkpt><trkpt lat="37.655659653169884" lon="14.067327555867843"><ele>524.0</ele><time>2026-04-26T10:28:51.999Z</time></trkpt><trkpt lat="37.6556877754816" lon="14.06721568740901"><ele>524.0</ele><time>2026-04-26T10:28:53.999Z</time></trkpt><trkpt lat="37.65572068014723" lon="14.067086241811111"><ele>524.3333333333333</ele><time>2026-04-26T10:28:55.999Z</time></trkpt><trkpt lat="37.655741174788034" lon="14.067006564644947"><ele>524.6666666666666</ele><time>2026-04-26T10:28:56.999Z</time></trkpt><trkpt lat="37.65576062561506" lon="14.0669013700627"><ele>525.0</ele><time>2026-04-26T10:28:58.999Z</time></trkpt><trkpt lat="37.6557897181733" lon="14.066806036606627"><ele>525.3333333333334</ele><time>2026-04-26T10:29:02.999Z</time></trkpt><trkpt lat="37.65583151779907" lon="14.066708839541953"><ele>525.6666666666667</ele><time>2026-04-26T10:29:04.999Z</time></trkpt><trkpt lat="37.655851737501806" lon="14.066583567939693"><ele>526.0</ele><time>2026-04-26T10:29:06.999Z</time></trkpt><trkpt lat="37.65585753973427" lon="14.066500160581823"><ele>527.5</ele><time>2026-04-26T10:29:07.999Z</time></trkpt><trkpt lat="37.65586609818381" lon="14.066420382784152"><ele>529.0</ele><time>2026-04-26T10:29:08.999Z</time></trkpt><trkpt lat="37.655895875236205" lon="14.0662673780811"><ele>530.5</ele><time>2026-04-26T10:29:10.999Z</time></trkpt><trkpt lat="37.655921207250046" lon="14.066189262353934"><ele>532.0</ele><time>2026-04-26T10:29:11.999Z</time></trkpt><trkpt lat="37.65595557287773" lon="14.066114213904696"><ele>533.5</ele><time>2026-04-26T10:29:12.999Z</time></trkpt><trkpt lat="37.65601026494895" lon="14.06598620904958"><ele>535.0</ele><time>2026-04-26T10:29:14.999Z</time></trkpt><trkpt lat="37.65603125311987" lon="14.065900298960619"><ele>535.0</ele><time>2026-04-26T10:36:21Z</time></trkpt><trkpt lat="37.65605635626173" lon="14.065806925858208"><ele>535.0</ele><time>2026-04-26T10:36:24Z</time></trkpt><trkpt lat="37.65607843375934" lon="14.065727024250444"><ele>535.0</ele><time>2026-04-26T10:36:26Z</time></trkpt><trkpt lat="37.656103510708256" lon="14.065638516492793"><ele>535.0</ele><time>2026-04-26T10:36:28Z</time></trkpt><trkpt lat="37.65613197145444" lon="14.065544249805964"><ele>535.0</ele><time>2026-04-26T10:36:30Z</time></trkpt><trkpt lat="37.65616431040971" lon="14.065470000708915"><ele>535.0</ele><time>2026-04-26T10:36:32Z</time></trkpt><trkpt lat="37.656200813431894" lon="14.065367377974805"><ele>533.6666666666667</ele><time>2026-04-26T10:36:35Z</time></trkpt><trkpt lat="37.65622698780129" lon="14.065285452730999"><ele>532.3333333333334</ele><time>2026-04-26T10:36:38Z</time></trkpt><trkpt lat="37.65626271211052" lon="14.06521059835009"><ele>531.0</ele><time>2026-04-26T10:36:46Z</time></trkpt><trkpt lat="37.656283198186784" lon="14.065129603177576"><ele>529.6666666666666</ele><time>2026-04-26T10:36:50Z</time></trkpt><trkpt lat="37.6563117911722" lon="14.064997990051669"><ele>528.3333333333333</ele><time>2026-04-26T10:36:53Z</time></trkpt><trkpt lat="37.656341659258565" lon="14.064899674910407"><ele>527.0</ele><time>2026-04-26T10:36:55Z</time></trkpt><trkpt lat="37.65637289512746" lon="14.064793481172124"><ele>527.0</ele><time>2026-04-26T10:36:57Z</time></trkpt><trkpt lat="37.65640947951469" lon="14.06467992757196"><ele>527.0</ele><time>2026-04-26T10:36:59Z</time></trkpt><trkpt lat="37.65644392840007" lon="14.064574876451125"><ele>527.0</ele><time>2026-04-26T10:37:01Z</time></trkpt><trkpt lat="37.656461234874584" lon="14.064493395549531"><ele>527.0</ele><time>2026-04-26T10:37:11Z</time></trkpt><trkpt lat="37.6564824916192" lon="14.064406437195894"><ele>527.0</ele><time>2026-04-26T10:37:12.999Z</time></trkpt><trkpt lat="37.656492538943176" lon="14.064318134281041"><ele>527.0</ele><time>2026-04-26T10:37:14.999Z</time></trkpt><trkpt lat="37.65650139998847" lon="14.064228038966538"><ele>527.0</ele><time>2026-04-26T10:37:16.999Z</time></trkpt><trkpt lat="37.656512033364855" lon="14.064140179473142"><ele>527.0</ele><time>2026-04-26T10:37:18.999Z</time></trkpt><trkpt lat="37.656524753986346" lon="14.064038689180721"><ele>527.0</ele><time>2026-04-26T10:37:20.999Z</time></trkpt><trkpt lat="37.65653843688178" lon="14.063944463788305"><ele>527.0</ele><time>2026-04-26T10:37:22.999Z</time></trkpt><trkpt lat="37.65653468762747" lon="14.063847571002457"><ele>527.0</ele><time>2026-04-26T10:37:24.999Z</time></trkpt><trkpt lat="37.656529127203484" lon="14.06376825125648"><ele>527.0</ele><time>2026-04-26T10:37:27.999Z</time></trkpt><trkpt lat="37.65654017445993" lon="14.063662174949025"><ele>527.7142857142858</ele><time>2026-04-26T10:37:33.999Z</time></trkpt><trkpt lat="37.65654162812284" lon="14.063575990836878"><ele>528.4285714285714</ele><time>2026-04-26T10:37:35.999Z</time></trkpt><trkpt lat="37.656549487473846" lon="14.063663722259042"><ele>529.1428571428571</ele><time>2026-04-26T10:38:12.999Z</time></trkpt><trkpt lat="37.656563987858085" lon="14.06374219704692"><ele>529.8571428571429</ele><time>2026-04-26T10:39:06Z</time></trkpt><trkpt lat="37.65655474318876" lon="14.063658863157446"><ele>530.5714285714286</ele><time>2026-04-26T10:48:12.999Z</time></trkpt><trkpt lat="37.65653623762534" lon="14.063581266249907"><ele>531.2857142857143</ele><time>2026-04-26T10:48:18.999Z</time></trkpt><trkpt lat="37.656526935016416" lon="14.063496548426135"><ele>532.0</ele><time>2026-04-26T10:48:27.999Z</time></trkpt><trkpt lat="37.65650858808743" lon="14.063416511988699"><ele>532.0</ele><time>2026-04-26T10:48:29.999Z</time></trkpt><trkpt lat="37.65648243641244" lon="14.063300973700514"><ele>532.0</ele><time>2026-04-26T10:48:33.999Z</time></trkpt><trkpt lat="37.656489012649736" lon="14.063215159048532"><ele>532.0</ele><time>2026-04-26T10:48:35.999Z</time></trkpt><trkpt lat="37.65648824603196" lon="14.06313544189666"><ele>532.0</ele><time>2026-04-26T10:48:37.999Z</time></trkpt><trkpt lat="37.65648195491486" lon="14.063040730445401"><ele>532.0</ele><time>2026-04-26T10:50:21.999Z</time></trkpt><trkpt lat="37.656482914634935" lon="14.062935381220925"><ele>532.0</ele><time>2026-04-26T10:50:23.999Z</time></trkpt><trkpt lat="37.656486894866426" lon="14.062822504508897"><ele>533.8333333333334</ele><time>2026-04-26T10:50:25.999Z</time></trkpt><trkpt lat="37.656496393780074" lon="14.062723849977589"><ele>535.6666666666667</ele><time>2026-04-26T10:50:27.999Z</time></trkpt><trkpt lat="37.65650910239997" lon="14.062616607761669"><ele>537.5</ele><time>2026-04-26T10:50:29.999Z</time></trkpt><trkpt lat="37.656521465487735" lon="14.062506658046336"><ele>539.3333333333334</ele><time>2026-04-26T10:50:31.999Z</time></trkpt><trkpt lat="37.6565235304812" lon="14.062397821994223"><ele>541.1666666666666</ele><time>2026-04-26T10:50:33.999Z</time></trkpt><trkpt lat="37.6565135887297" lon="14.062301888898416"><ele>543.0</ele><time>2026-04-26T10:50:35.999Z</time></trkpt><trkpt lat="37.65649227250775" lon="14.062210141762215"><ele>544.8333333333334</ele><time>2026-04-26T10:50:37.999Z</time></trkpt><trkpt lat="37.65650928597108" lon="14.062123306457421"><ele>546.6666666666666</ele><time>2026-04-26T10:50:40.999Z</time></trkpt><trkpt lat="37.65657325866247" lon="14.062038829833373"><ele>548.5</ele><time>2026-04-26T10:50:43.999Z</time></trkpt><trkpt lat="37.656628122081834" lon="14.061984647554207"><ele>550.3333333333333</ele><time>2026-04-26T10:50:45.999Z</time></trkpt><trkpt lat="37.656667246519305" lon="14.061892504094335"><ele>552.1666666666666</ele><time>2026-04-26T10:50:47.999Z</time></trkpt><trkpt lat="37.65669407950382" lon="14.061801694156324"><ele>554.0</ele><time>2026-04-26T10:50:50.999Z</time></trkpt><trkpt lat="37.6567285423984" lon="14.061734954213797"><ele>554.0</ele><time>2026-04-26T10:51:12Z</time></trkpt><trkpt lat="37.656754190785634" lon="14.061637652056154"><ele>554.0</ele><time>2026-04-26T10:55:49Z</time></trkpt><trkpt lat="37.65678638926424" lon="14.061555775395597"><ele>554.0</ele><time>2026-04-26T10:55:51Z</time></trkpt><trkpt lat="37.65683294171525" lon="14.061453944217254"><ele>554.0</ele><time>2026-04-26T10:55:54Z</time></trkpt><trkpt lat="37.65685675495589" lon="14.061374048624991"><ele>554.0</ele><time>2026-04-26T10:55:56Z</time></trkpt><trkpt lat="37.656887904755045" lon="14.061302171406643"><ele>554.0</ele><time>2026-04-26T10:55:58Z</time></trkpt><trkpt lat="37.65693255957797" lon="14.06122173600282"><ele>557.0</ele><time>2026-04-26T10:56:01Z</time></trkpt><trkpt lat="37.65697463749177" lon="14.061151963727559"><ele>560.0</ele><time>2026-04-26T10:56:04Z</time></trkpt><trkpt lat="37.65704527107595" lon="14.061059170498927"><ele>563.0</ele><time>2026-04-26T10:56:06Z</time></trkpt><trkpt lat="37.657100051565706" lon="14.060986185730853"><ele>566.0</ele><time>2026-04-26T10:56:08Z</time></trkpt><trkpt lat="37.65722828328504" lon="14.060867300858812"><ele>569.0</ele><time>2026-04-26T10:56:10Z</time></trkpt><trkpt lat="37.65730651494228" lon="14.060810467886219"><ele>571.4</ele><time>2026-04-26T10:56:12Z</time></trkpt><trkpt lat="37.657390813303316" lon="14.06077274917715"><ele>573.8</ele><time>2026-04-26T10:56:14Z</time></trkpt><trkpt lat="37.65750782266813" lon="14.060723130590928"><ele>576.2</ele><time>2026-04-26T10:56:16Z</time></trkpt><trkpt lat="37.657614463566794" lon="14.060678569601587"><ele>578.6</ele><time>2026-04-26T10:56:18Z</time></trkpt><trkpt lat="37.65771512077496" lon="14.060649287335142"><ele>581.0</ele><time>2026-04-26T10:56:20Z</time></trkpt><trkpt lat="37.65781949276526" lon="14.060630765698177"><ele>581.6</ele><time>2026-04-26T10:56:22Z</time></trkpt><trkpt lat="37.65792672890947" lon="14.060600494020083"><ele>582.2</ele><time>2026-04-26T10:56:24Z</time></trkpt><trkpt lat="37.65803413572039" lon="14.060559266381457"><ele>582.8</ele><time>2026-04-26T10:56:26Z</time></trkpt><trkpt lat="37.65812391675533" lon="14.060508046057649"><ele>583.4</ele><time>2026-04-26T10:56:28Z</time></trkpt><trkpt lat="37.6581765441796" lon="14.06040430937331"><ele>584.0</ele><time>2026-04-26T10:56:30Z</time></trkpt><trkpt lat="37.658248677983856" lon="14.060277059411568"><ele>584.0</ele><time>2026-04-26T10:56:32Z</time></trkpt><trkpt lat="37.65833176774893" lon="14.060163879650958"><ele>584.0</ele><time>2026-04-26T10:56:34Z</time></trkpt><trkpt lat="37.65840315889557" lon="14.060102080683142"><ele>584.0</ele><time>2026-04-26T10:56:36Z</time></trkpt><trkpt lat="37.658467470615655" lon="14.06005058722526"><ele>584.0</ele><time>2026-04-26T10:56:38Z</time></trkpt><trkpt lat="37.65848330045087" lon="14.059915821064388"><ele>584.0</ele><time>2026-04-26T10:56:43.999Z</time></trkpt><trkpt lat="37.65850005210346" lon="14.059776152247014"><ele>584.6666666666666</ele><time>2026-04-26T10:56:45.999Z</time></trkpt><trkpt lat="37.658521507880856" lon="14.059687507706414"><ele>585.3333333333333</ele><time>2026-04-26T10:56:47.999Z</time></trkpt><trkpt lat="37.65855533395692" lon="14.059612247406333"><ele>586.0</ele><time>2026-04-26T10:56:49.999Z</time></trkpt><trkpt lat="37.658598372768864" lon="14.059523880416121"><ele>586.6666666666666</ele><time>2026-04-26T10:56:51.999Z</time></trkpt><trkpt lat="37.658642549937014" lon="14.059445757615515"><ele>587.3333333333334</ele><time>2026-04-26T10:56:53.999Z</time></trkpt><trkpt lat="37.65868924631234" lon="14.059349130938187"><ele>588.0</ele><time>2026-04-26T10:56:55.999Z</time></trkpt><trkpt lat="37.658731412372575" lon="14.059245482744213"><ele>588.0</ele><time>2026-04-26T10:56:57.999Z</time></trkpt><trkpt lat="37.658778297885384" lon="14.059165633832787"><ele>588.0</ele><time>2026-04-26T10:56:59.999Z</time></trkpt><trkpt lat="37.65882544295121" lon="14.059041092474672"><ele>588.0</ele><time>2026-04-26T10:57:01.999Z</time></trkpt><trkpt lat="37.65888402853527" lon="14.058939683944802"><ele>588.0</ele><time>2026-04-26T10:57:03.999Z</time></trkpt><trkpt lat="37.658976939345955" lon="14.058873711424374"><ele>588.0</ele><time>2026-04-26T10:57:05.999Z</time></trkpt><trkpt lat="37.659103340238886" lon="14.058842198715057"><ele>587.6666666666666</ele><time>2026-04-26T10:57:07.999Z</time></trkpt><trkpt lat="37.659175970739504" lon="14.058834754788723"><ele>587.3333333333334</ele><time>2026-04-26T10:57:08.999Z</time></trkpt><trkpt lat="37.65924928522477" lon="14.058821648910762"><ele>587.0</ele><time>2026-04-26T10:57:09.999Z</time></trkpt><trkpt lat="37.65931489485876" lon="14.058812513936953"><ele>586.6666666666667</ele><time>2026-04-26T10:57:10.999Z</time></trkpt><trkpt lat="37.65941292185235" lon="14.058803259091764"><ele>586.3333333333334</ele><time>2026-04-26T10:57:12.999Z</time></trkpt><trkpt lat="37.6594938928474" lon="14.05877618665967"><ele>586.0</ele><time>2026-04-26T10:57:17Z</time></trkpt><trkpt lat="37.659558365311156" lon="14.05873809937426"><ele>586.0</ele><time>2026-04-26T10:57:32Z</time></trkpt><trkpt lat="37.659512662312046" lon="14.058792932692887"><ele>586.0</ele><time>2026-04-26T10:58:09Z</time></trkpt><trkpt lat="37.65957148694659" lon="14.05876146494013"><ele>586.0</ele><time>2026-04-26T11:01:19.999Z</time></trkpt><trkpt lat="37.65961420568493" lon="14.058699944289902"><ele>586.0</ele><time>2026-04-26T11:01:34Z</time></trkpt><trkpt lat="37.65967431184741" lon="14.058622046282203"><ele>586.0</ele><time>2026-04-26T11:01:37Z</time></trkpt><trkpt lat="37.659750579734784" lon="14.058560968411154"><ele>586.0</ele><time>2026-04-26T11:01:39Z</time></trkpt><trkpt lat="37.659823521934335" lon="14.058509287978731"><ele>586.0</ele><time>2026-04-26T11:01:41Z</time></trkpt><trkpt lat="37.65989366252754" lon="14.058452682344283"><ele>586.0</ele><time>2026-04-26T11:01:43Z</time></trkpt><trkpt lat="37.65995297830403" lon="14.058418821397998"><ele>586.0</ele><time>2026-04-26T11:01:44Z</time></trkpt><trkpt lat="37.66001194610894" lon="14.058379764045968"><ele>586.0</ele><time>2026-04-26T11:01:45Z</time></trkpt><trkpt lat="37.66010640306296" lon="14.058278291511614"><ele>586.0</ele><time>2026-04-26T11:01:47Z</time></trkpt><trkpt lat="37.660193765819464" lon="14.058165725340398"><ele>586.0</ele><time>2026-04-26T11:01:49Z</time></trkpt><trkpt lat="37.660278531973184" lon="14.05805310943692"><ele>586.0</ele><time>2026-04-26T11:01:51Z</time></trkpt><trkpt lat="37.66032737812397" lon="14.058002154907388"><ele>586.0</ele><time>2026-04-26T11:01:52Z</time></trkpt><trkpt lat="37.66038724566061" lon="14.057965266090534"><ele>586.0</ele><time>2026-04-26T11:01:53Z</time></trkpt><trkpt lat="37.660452167113284" lon="14.057934442669442"><ele>586.0</ele><time>2026-04-26T11:01:54Z</time></trkpt><trkpt lat="37.66051622920031" lon="14.057909363235751"><ele>586.0</ele><time>2026-04-26T11:01:55Z</time></trkpt><trkpt lat="37.66058035998657" lon="14.057890380256689"><ele>583.5</ele><time>2026-04-26T11:01:56Z</time></trkpt><trkpt lat="37.66068259531336" lon="14.057861414670448"><ele>581.0</ele><time>2026-04-26T11:01:58Z</time></trkpt><trkpt lat="37.66074210765084" lon="14.057820638247529"><ele>578.5</ele><time>2026-04-26T11:02:01Z</time></trkpt><trkpt lat="37.66078056468593" lon="14.057741539940308"><ele>576.0</ele><time>2026-04-26T11:02:26Z</time></trkpt><trkpt lat="37.66080129592591" lon="14.05763111031813"><ele>573.5</ele><time>2026-04-26T11:02:28Z</time></trkpt><trkpt lat="37.66077227106158" lon="14.057502599262817"><ele>571.0</ele><time>2026-04-26T11:02:30Z</time></trkpt><trkpt lat="37.66070370323519" lon="14.057366653993737"><ele>569.2857142857143</ele><time>2026-04-26T11:02:32Z</time></trkpt><trkpt lat="37.6606585234596" lon="14.057302651741649"><ele>567.5714285714286</ele><time>2026-04-26T11:02:33Z</time></trkpt><trkpt lat="37.66061178172427" lon="14.05723812123103"><ele>565.8571428571429</ele><time>2026-04-26T11:02:34Z</time></trkpt><trkpt lat="37.6605644359012" lon="14.057173879074636"><ele>564.1428571428571</ele><time>2026-04-26T11:02:35Z</time></trkpt><trkpt lat="37.660516196605315" lon="14.057108424712254"><ele>562.4285714285714</ele><time>2026-04-26T11:02:36Z</time></trkpt><trkpt lat="37.66046926941736" lon="14.057045309965323"><ele>560.7142857142858</ele><time>2026-04-26T11:02:37Z</time></trkpt><trkpt lat="37.6604195115321" lon="14.056980047841945"><ele>559.0</ele><time>2026-04-26T11:02:38Z</time></trkpt><trkpt lat="37.66036813303454" lon="14.056916389176257"><ele>559.0</ele><time>2026-04-26T11:02:39Z</time></trkpt><trkpt lat="37.660317085189234" lon="14.056857757936678"><ele>559.0</ele><time>2026-04-26T11:02:40Z</time></trkpt><trkpt lat="37.66025450429017" lon="14.056801139747186"><ele>559.0</ele><time>2026-04-26T11:02:41Z</time></trkpt><trkpt lat="37.660180794867" lon="14.056763669504612"><ele>559.0</ele><time>2026-04-26T11:02:42Z</time></trkpt><trkpt lat="37.66012216158922" lon="14.05669390231864"><ele>559.0</ele><time>2026-04-26T11:02:43Z</time></trkpt><trkpt lat="37.660051776722135" lon="14.056638523341963"><ele>559.0</ele><time>2026-04-26T11:02:44Z</time></trkpt><trkpt lat="37.65998311745474" lon="14.056585437836468"><ele>558.1666666666667</ele><time>2026-04-26T11:02:45Z</time></trkpt><trkpt lat="37.659909763095214" lon="14.056531081745623"><ele>557.3333333333334</ele><time>2026-04-26T11:02:46Z</time></trkpt><trkpt lat="37.65983669555895" lon="14.0564769381606"><ele>556.5</ele><time>2026-04-26T11:02:47Z</time></trkpt><trkpt lat="37.65976746678551" lon="14.056425639163098"><ele>555.6666666666666</ele><time>2026-04-26T11:02:48Z</time></trkpt><trkpt lat="37.65969780446262" lon="14.056374018122277"><ele>554.8333333333333</ele><time>2026-04-26T11:02:49Z</time></trkpt><trkpt lat="37.65962587026951" lon="14.056316269451997"><ele>554.0</ele><time>2026-04-26T11:02:50Z</time></trkpt><trkpt lat="37.65955514386445" lon="14.05625690272532"><ele>554.0</ele><time>2026-04-26T11:02:50.999Z</time></trkpt><trkpt lat="37.65949194594129" lon="14.056194790948407"><ele>554.0</ele><time>2026-04-26T11:02:51.999Z</time></trkpt><trkpt lat="37.6594308951964" lon="14.056126914538684"><ele>554.0</ele><time>2026-04-26T11:02:52.999Z</time></trkpt><trkpt lat="37.65937296992761" lon="14.056048748430428"><ele>554.0</ele><time>2026-04-26T11:02:53.999Z</time></trkpt><trkpt lat="37.659316416155484" lon="14.055969975664876"><ele>554.0</ele><time>2026-04-26T11:02:54.999Z</time></trkpt><trkpt lat="37.659261111802266" lon="14.055888403590414"><ele>554.0</ele><time>2026-04-26T11:02:55.999Z</time></trkpt><trkpt lat="37.65920456191784" lon="14.055804994354816"><ele>555.6666666666666</ele><time>2026-04-26T11:02:56.999Z</time></trkpt><trkpt lat="37.65914013984656" lon="14.055712696246665"><ele>557.3333333333333</ele><time>2026-04-26T11:02:57.999Z</time></trkpt><trkpt lat="37.659093114182056" lon="14.055648014942905"><ele>559.0</ele><time>2026-04-26T11:02:58.999Z</time></trkpt><trkpt lat="37.65904458512081" lon="14.055576606949538"><ele>560.6666666666666</ele><time>2026-04-26T11:02:59.999Z</time></trkpt><trkpt lat="37.65900829041339" lon="14.055504456625423"><ele>562.3333333333334</ele><time>2026-04-26T11:03:00.999Z</time></trkpt><trkpt lat="37.65897655749987" lon="14.055425771124595"><ele>564.0</ele><time>2026-04-26T11:03:01.999Z</time></trkpt><trkpt lat="37.658950261881465" lon="14.055342331040466"><ele>564.0</ele><time>2026-04-26T11:03:02.999Z</time></trkpt><trkpt lat="37.65893675663098" lon="14.055249466033068"><ele>564.0</ele><time>2026-04-26T11:03:03.999Z</time></trkpt><trkpt lat="37.658938826580226" lon="14.055151944886763"><ele>564.0</ele><time>2026-04-26T11:03:04.999Z</time></trkpt><trkpt lat="37.65893823442442" lon="14.055044705425335"><ele>564.0</ele><time>2026-04-26T11:03:05.999Z</time></trkpt><trkpt lat="37.65893645103178" lon="14.054942951086895"><ele>564.0</ele><time>2026-04-26T11:03:06.999Z</time></trkpt><trkpt lat="37.65893427653027" lon="14.054847190966434"><ele>564.0</ele><time>2026-04-26T11:03:07.999Z</time></trkpt><trkpt lat="37.658931449081294" lon="14.054746778800284"><ele>562.6666666666666</ele><time>2026-04-26T11:03:08.999Z</time></trkpt><trkpt lat="37.65892728203611" lon="14.05464660778004"><ele>561.3333333333334</ele><time>2026-04-26T11:03:09.999Z</time></trkpt><trkpt lat="37.658907984027074" lon="14.054548212632088"><ele>560.0</ele><time>2026-04-26T11:03:10.999Z</time></trkpt><trkpt lat="37.65890271585964" lon="14.05445123760468"><ele>558.6666666666667</ele><time>2026-04-26T11:03:11.999Z</time></trkpt><trkpt lat="37.65888108570377" lon="14.054359861271294"><ele>557.3333333333334</ele><time>2026-04-26T11:03:12.999Z</time></trkpt><trkpt lat="37.658834157512956" lon="14.05427555570019"><ele>556.0</ele><time>2026-04-26T11:03:13.999Z</time></trkpt><trkpt lat="37.65876963487195" lon="14.054199852562418"><ele>555.6666666666667</ele><time>2026-04-26T11:03:14.999Z</time></trkpt><trkpt lat="37.658724598920415" lon="14.0540985236346"><ele>555.3333333333334</ele><time>2026-04-26T11:03:15.999Z</time></trkpt><trkpt lat="37.65867516695111" lon="14.054013693031115"><ele>555.0</ele><time>2026-04-26T11:03:16.999Z</time></trkpt><trkpt lat="37.65862726564574" lon="14.053928034442881"><ele>554.6666666666666</ele><time>2026-04-26T11:03:17.999Z</time></trkpt><trkpt lat="37.65859051793472" lon="14.053844729322408"><ele>554.3333333333333</ele><time>2026-04-26T11:03:18.999Z</time></trkpt><trkpt lat="37.65856529451048" lon="14.05375092779104"><ele>554.0</ele><time>2026-04-26T11:03:19.999Z</time></trkpt><trkpt lat="37.65854021270951" lon="14.053651778391082"><ele>556.1428571428571</ele><time>2026-04-26T11:03:20.999Z</time></trkpt><trkpt lat="37.65851990661839" lon="14.053549989693341"><ele>558.2857142857142</ele><time>2026-04-26T11:03:21.999Z</time></trkpt><trkpt lat="37.65849933701019" lon="14.05344804399209"><ele>560.4285714285714</ele><time>2026-04-26T11:03:22.999Z</time></trkpt><trkpt lat="37.6584809266977" lon="14.053353064032695"><ele>562.5714285714286</ele><time>2026-04-26T11:03:23.999Z</time></trkpt><trkpt lat="37.65847476958696" lon="14.053265919700598"><ele>564.7142857142858</ele><time>2026-04-26T11:03:24.999Z</time></trkpt><trkpt lat="37.65849199070659" lon="14.053184827962951"><ele>566.8571428571429</ele><time>2026-04-26T11:03:25.999Z</time></trkpt><trkpt lat="37.6585237760519" lon="14.053113452379502"><ele>569.0</ele><time>2026-04-26T11:03:26.999Z</time></trkpt><trkpt lat="37.65859629626733" lon="14.053079003490298"><ele>567.1666666666666</ele><time>2026-04-26T11:03:27.999Z</time></trkpt><trkpt lat="37.65866785184454" lon="14.053058882046386"><ele>565.3333333333333</ele><time>2026-04-26T11:03:28.999Z</time></trkpt><trkpt lat="37.658738238907105" lon="14.053033446979319"><ele>563.5</ele><time>2026-04-26T11:03:29.999Z</time></trkpt><trkpt lat="37.65880134283424" lon="14.052999421575342"><ele>561.6666666666666</ele><time>2026-04-26T11:03:30.999Z</time></trkpt><trkpt lat="37.658865685356915" lon="14.052964607747521"><ele>559.8333333333334</ele><time>2026-04-26T11:03:31.999Z</time></trkpt><trkpt lat="37.65892627276567" lon="14.052941288891144"><ele>558.0</ele><time>2026-04-26T11:03:33Z</time></trkpt><trkpt lat="37.65900302544522" lon="14.052817519535251"><ele>558.0</ele><time>2026-04-26T11:03:35Z</time></trkpt><trkpt lat="37.659047868218515" lon="14.052755941224811"><ele>558.0</ele><time>2026-04-26T11:03:36Z</time></trkpt><trkpt lat="37.65909412106414" lon="14.052621187657213"><ele>558.0</ele><time>2026-04-26T11:03:38Z</time></trkpt><trkpt lat="37.65913732971848" lon="14.052554320666943"><ele>558.0</ele><time>2026-04-26T11:03:56Z</time></trkpt><trkpt lat="37.65915901088546" lon="14.052460075737176"><ele>558.0</ele><time>2026-04-26T11:04:04Z</time></trkpt><trkpt lat="37.65920125764319" lon="14.052353041595802"><ele>558.0</ele><time>2026-04-26T11:04:06Z</time></trkpt><trkpt lat="37.65926135894595" lon="14.052222060777385"><ele>557.5714285714286</ele><time>2026-04-26T11:04:08Z</time></trkpt><trkpt lat="37.65929153629828" lon="14.0521519711386"><ele>557.1428571428571</ele><time>2026-04-26T11:04:09Z</time></trkpt><trkpt lat="37.65932501584822" lon="14.052078938134185"><ele>556.7142857142858</ele><time>2026-04-26T11:04:10Z</time></trkpt><trkpt lat="37.65937407793072" lon="14.052021371611845"><ele>556.2857142857142</ele><time>2026-04-26T11:04:11Z</time></trkpt><trkpt lat="37.65938728002437" lon="14.051939652715662"><ele>555.8571428571429</ele><time>2026-04-26T11:04:12Z</time></trkpt><trkpt lat="37.65942158303009" lon="14.051865468315501"><ele>555.4285714285714</ele><time>2026-04-26T11:04:13Z</time></trkpt><trkpt lat="37.65945609417186" lon="14.051790034747702"><ele>555.0</ele><time>2026-04-26T11:04:14Z</time></trkpt><trkpt lat="37.65949305468976" lon="14.05172277133272"><ele>555.0</ele><time>2026-04-26T11:04:15Z</time></trkpt><trkpt lat="37.65953445638748" lon="14.051660433683733"><ele>555.0</ele><time>2026-04-26T11:04:16Z</time></trkpt><trkpt lat="37.65958936326005" lon="14.051600381556607"><ele>555.0</ele><time>2026-04-26T11:04:17Z</time></trkpt><trkpt lat="37.659664566003315" lon="14.051563171448235"><ele>555.0</ele><time>2026-04-26T11:04:18Z</time></trkpt><trkpt lat="37.659745304401966" lon="14.051526466326626"><ele>555.0</ele><time>2026-04-26T11:04:19Z</time></trkpt><trkpt lat="37.65982639104894" lon="14.05149094996176"><ele>555.0</ele><time>2026-04-26T11:04:20Z</time></trkpt><trkpt lat="37.659901485173556" lon="14.051455611246617"><ele>554.3333333333334</ele><time>2026-04-26T11:04:21Z</time></trkpt><trkpt lat="37.65997605842194" lon="14.051421785640532"><ele>553.6666666666666</ele><time>2026-04-26T11:04:22Z</time></trkpt><trkpt lat="37.660049665768454" lon="14.051385428120746"><ele>553.0</ele><time>2026-04-26T11:04:23Z</time></trkpt><trkpt lat="37.66012231810411" lon="14.051347037901147"><ele>552.3333333333333</ele><time>2026-04-26T11:04:24Z</time></trkpt><trkpt lat="37.66019330413099" lon="14.051312533152105"><ele>551.6666666666666</ele><time>2026-04-26T11:04:25Z</time></trkpt><trkpt lat="37.660261143482074" lon="14.051277260580276"><ele>551.0</ele><time>2026-04-26T11:04:26Z</time></trkpt><trkpt lat="37.660330208703705" lon="14.051243122834913"><ele>551.0</ele><time>2026-04-26T11:04:27Z</time></trkpt><trkpt lat="37.66039656303618" lon="14.051212462791492"><ele>551.0</ele><time>2026-04-26T11:04:28Z</time></trkpt><trkpt lat="37.660462990562664" lon="14.051180550188793"><ele>551.0</ele><time>2026-04-26T11:04:29Z</time></trkpt><trkpt lat="37.660526522560176" lon="14.051153228686374"><ele>551.0</ele><time>2026-04-26T11:04:30Z</time></trkpt><trkpt lat="37.660592736162" lon="14.051150148220387"><ele>551.0</ele><time>2026-04-26T11:04:31Z</time></trkpt><trkpt lat="37.66070672036679" lon="14.05117352611568"><ele>551.0</ele><time>2026-04-26T11:04:33Z</time></trkpt><trkpt lat="37.66075062020796" lon="14.051242118249617"><ele>551.0</ele><time>2026-04-26T11:04:34Z</time></trkpt><trkpt lat="37.66076106079189" lon="14.051336010743974"><ele>551.0</ele><time>2026-04-26T11:04:35Z</time></trkpt><trkpt lat="37.66079539898971" lon="14.051423772281371"><ele>551.0</ele><time>2026-04-26T11:04:36Z</time></trkpt><trkpt lat="37.66081246701475" lon="14.051529666163558"><ele>551.0</ele><time>2026-04-26T11:04:37Z</time></trkpt><trkpt lat="37.66082852830661" lon="14.051640064239129"><ele>551.0</ele><time>2026-04-26T11:04:38Z</time></trkpt><trkpt lat="37.66084649233014" lon="14.051742153880678"><ele>551.0</ele><time>2026-04-26T11:04:39Z</time></trkpt><trkpt lat="37.66086677220719" lon="14.051845918302547"><ele>550.0</ele><time>2026-04-26T11:04:40Z</time></trkpt><trkpt lat="37.660889853300205" lon="14.051952344952733"><ele>549.0</ele><time>2026-04-26T11:04:41Z</time></trkpt><trkpt lat="37.66091212884364" lon="14.052059863974973"><ele>548.0</ele><time>2026-04-26T11:04:42Z</time></trkpt><trkpt lat="37.66093595599758" lon="14.052167830555572"><ele>547.0</ele><time>2026-04-26T11:04:43Z</time></trkpt><trkpt lat="37.660959996492075" lon="14.052276756248439"><ele>546.0</ele><time>2026-04-26T11:04:44Z</time></trkpt><trkpt lat="37.66098079268543" lon="14.052386311352548"><ele>545.0</ele><time>2026-04-26T11:04:45Z</time></trkpt><trkpt lat="37.66099912098771" lon="14.052493166610638"><ele>544.5714285714286</ele><time>2026-04-26T11:04:46Z</time></trkpt><trkpt lat="37.661018655998376" lon="14.052595177249069"><ele>544.1428571428572</ele><time>2026-04-26T11:04:47Z</time></trkpt><trkpt lat="37.66103546135408" lon="14.052693846267413"><ele>543.7142857142858</ele><time>2026-04-26T11:04:48Z</time></trkpt><trkpt lat="37.661048661273426" lon="14.052786152120976"><ele>543.2857142857143</ele><time>2026-04-26T11:04:49Z</time></trkpt><trkpt lat="37.661067569812055" lon="14.052871003799993"><ele>542.8571428571429</ele><time>2026-04-26T11:04:50Z</time></trkpt><trkpt lat="37.66110891961363" lon="14.052937034358678"><ele>542.4285714285714</ele><time>2026-04-26T11:04:51Z</time></trkpt><trkpt lat="37.66114645332831" lon="14.053001902023977"><ele>542.0</ele><time>2026-04-26T11:04:51.999Z</time></trkpt><trkpt lat="37.66126464418128" lon="14.053057542116676"><ele>540.5</ele><time>2026-04-26T11:04:53.999Z</time></trkpt><trkpt lat="37.66133929861951" lon="14.05304648212075"><ele>539.0</ele><time>2026-04-26T11:04:54.999Z</time></trkpt><trkpt lat="37.66141621734622" lon="14.053017375620621"><ele>537.5</ele><time>2026-04-26T11:04:55.999Z</time></trkpt><trkpt lat="37.661496090102645" lon="14.052968606462546"><ele>536.0</ele><time>2026-04-26T11:04:56.999Z</time></trkpt><trkpt lat="37.66157745358668" lon="14.052912051384526"><ele>534.5</ele><time>2026-04-26T11:04:57.999Z</time></trkpt><trkpt lat="37.66165143927139" lon="14.05286623393713"><ele>533.0</ele><time>2026-04-26T11:04:58.999Z</time></trkpt><trkpt lat="37.66173336589728" lon="14.052828178281374"><ele>533.0</ele><time>2026-04-26T11:04:59.999Z</time></trkpt><trkpt lat="37.66181223710737" lon="14.052787904565113"><ele>533.0</ele><time>2026-04-26T11:05:00.999Z</time></trkpt><trkpt lat="37.66189334613473" lon="14.05274142383749"><ele>533.0</ele><time>2026-04-26T11:05:01.999Z</time></trkpt><trkpt lat="37.661971791623415" lon="14.05271291913986"><ele>533.0</ele><time>2026-04-26T11:05:02.999Z</time></trkpt><trkpt lat="37.66204936312543" lon="14.052709685954394"><ele>533.0</ele><time>2026-04-26T11:05:03.999Z</time></trkpt><trkpt lat="37.6621277122591" lon="14.052726993868317"><ele>533.0</ele><time>2026-04-26T11:05:04.999Z</time></trkpt><trkpt lat="37.66220000261476" lon="14.052759837010813"><ele>531.0</ele><time>2026-04-26T11:05:05.999Z</time></trkpt><trkpt lat="37.662256719473774" lon="14.052812849947781"><ele>529.0</ele><time>2026-04-26T11:05:06.999Z</time></trkpt><trkpt lat="37.66229457889094" lon="14.052891114016026"><ele>527.0</ele><time>2026-04-26T11:05:07.999Z</time></trkpt><trkpt lat="37.66229650878446" lon="14.05299056320232"><ele>525.0</ele><time>2026-04-26T11:05:08.999Z</time></trkpt><trkpt lat="37.662279862197146" lon="14.05309604269702"><ele>523.0</ele><time>2026-04-26T11:05:09.999Z</time></trkpt><trkpt lat="37.66226000367964" lon="14.053193238012003"><ele>521.0</ele><time>2026-04-26T11:05:10.999Z</time></trkpt><trkpt lat="37.662253061733516" lon="14.053283695131086"><ele>521.0</ele><time>2026-04-26T11:05:11.999Z</time></trkpt><trkpt lat="37.66230477785532" lon="14.053407067435918"><ele>521.0</ele><time>2026-04-26T11:05:13.999Z</time></trkpt><trkpt lat="37.662368875213154" lon="14.05343659853584"><ele>521.0</ele><time>2026-04-26T11:05:14.999Z</time></trkpt><trkpt lat="37.66244169727234" lon="14.053437017240421"><ele>521.0</ele><time>2026-04-26T11:05:15.999Z</time></trkpt><trkpt lat="37.66250183554454" lon="14.053406021175038"><ele>521.0</ele><time>2026-04-26T11:05:16.999Z</time></trkpt><trkpt lat="37.66257614212249" lon="14.053365285789779"><ele>521.0</ele><time>2026-04-26T11:05:17.999Z</time></trkpt><trkpt lat="37.6626410492395" lon="14.053358839217621"><ele>521.0</ele><time>2026-04-26T11:05:18.999Z</time></trkpt><trkpt lat="37.66269991942924" lon="14.0533212832251"><ele>521.0</ele><time>2026-04-26T11:05:19.999Z</time></trkpt><trkpt lat="37.6628157359987" lon="14.053285979352335"><ele>521.0</ele><time>2026-04-26T11:05:21.999Z</time></trkpt><trkpt lat="37.66292684289966" lon="14.053313548400576"><ele>521.0</ele><time>2026-04-26T11:05:23.999Z</time></trkpt><trkpt lat="37.66300518326451" lon="14.053446529735107"><ele>521.0</ele><time>2026-04-26T11:05:25.999Z</time></trkpt><trkpt lat="37.66301184342141" lon="14.053542582697263"><ele>519.0</ele><time>2026-04-26T11:05:26.999Z</time></trkpt><trkpt lat="37.663000768821156" lon="14.053641124040201"><ele>517.0</ele><time>2026-04-26T11:05:27.999Z</time></trkpt><trkpt lat="37.66298526884536" lon="14.05373171179746"><ele>515.0</ele><time>2026-04-26T11:05:28.999Z</time></trkpt><trkpt lat="37.662995049970256" lon="14.053869162172166"><ele>513.0</ele><time>2026-04-26T11:05:30.999Z</time></trkpt><trkpt lat="37.663070646081714" lon="14.053960832860104"><ele>510.99999999999994</ele><time>2026-04-26T11:05:32.999Z</time></trkpt><trkpt lat="37.66313624525247" lon="14.053960605933604"><ele>509.0</ele><time>2026-04-26T11:05:33.999Z</time></trkpt><trkpt lat="37.6632024787537" lon="14.053924349682765"><ele>508.99999999999994</ele><time>2026-04-26T11:05:34.999Z</time></trkpt><trkpt lat="37.66327253598974" lon="14.053874882599114"><ele>509.0</ele><time>2026-04-26T11:05:35.999Z</time></trkpt><trkpt lat="37.66334674298894" lon="14.053832224971528"><ele>509.0</ele><time>2026-04-26T11:05:36.999Z</time></trkpt><trkpt lat="37.66342832588542" lon="14.053787388548724"><ele>509.0</ele><time>2026-04-26T11:05:37.999Z</time></trkpt><trkpt lat="37.663507642678375" lon="14.053740689826705"><ele>508.99999999999994</ele><time>2026-04-26T11:05:39Z</time></trkpt><trkpt lat="37.6635799176539" lon="14.053700421790618"><ele>509.0</ele><time>2026-04-26T11:05:40Z</time></trkpt><trkpt lat="37.66364948750813" lon="14.053669994463265"><ele>506.3333333333333</ele><time>2026-04-26T11:05:41Z</time></trkpt><trkpt lat="37.66371051267567" lon="14.053642279411372"><ele>503.66666666666663</ele><time>2026-04-26T11:05:42Z</time></trkpt><trkpt lat="37.66381166267751" lon="14.053580622798911"><ele>501.0</ele><time>2026-04-26T11:05:44Z</time></trkpt><trkpt lat="37.66384785122982" lon="14.053502295791048"><ele>498.33333333333337</ele><time>2026-04-26T11:05:45Z</time></trkpt><trkpt lat="37.663845376768165" lon="14.05339808443793"><ele>495.6666666666667</ele><time>2026-04-26T11:05:46Z</time></trkpt><trkpt lat="37.66385111486662" lon="14.053306516091537"><ele>493.0</ele><time>2026-04-26T11:05:47Z</time></trkpt><trkpt lat="37.663858471326286" lon="14.053215745611787"><ele>492.50000000000006</ele><time>2026-04-26T11:05:48Z</time></trkpt><trkpt lat="37.66387350339152" lon="14.053131821644843"><ele>492.0</ele><time>2026-04-26T11:05:49Z</time></trkpt><trkpt lat="37.66394680248635" lon="14.053039089343276"><ele>491.5</ele><time>2026-04-26T11:05:51Z</time></trkpt><trkpt lat="37.66406284048925" lon="14.053053248561348"><ele>491.0</ele><time>2026-04-26T11:05:53Z</time></trkpt><trkpt lat="37.66412624591121" lon="14.053098025983262"><ele>490.50000000000006</ele><time>2026-04-26T11:05:54Z</time></trkpt><trkpt lat="37.664195165485324" lon="14.05315980819578"><ele>490.0</ele><time>2026-04-26T11:05:55Z</time></trkpt><trkpt lat="37.664267373832665" lon="14.053219422863927"><ele>490.00000000000006</ele><time>2026-04-26T11:05:56Z</time></trkpt><trkpt lat="37.66434854682912" lon="14.053276928463777"><ele>490.0</ele><time>2026-04-26T11:05:57Z</time></trkpt><trkpt lat="37.66443165913554" lon="14.053334826892181"><ele>490.0</ele><time>2026-04-26T11:05:58Z</time></trkpt><trkpt lat="37.664504730296926" lon="14.053395899699604"><ele>490.0</ele><time>2026-04-26T11:05:59Z</time></trkpt><trkpt lat="37.664564256702185" lon="14.053460837410134"><ele>490.00000000000006</ele><time>2026-04-26T11:06:00Z</time></trkpt><trkpt lat="37.66462038678825" lon="14.05353254156606"><ele>490.0</ele><time>2026-04-26T11:06:01Z</time></trkpt><trkpt lat="37.66467617700596" lon="14.053599083219115"><ele>487.0</ele><time>2026-04-26T11:06:02Z</time></trkpt><trkpt lat="37.66477599485327" lon="14.053688068634502"><ele>484.0</ele><time>2026-04-26T11:06:04Z</time></trkpt><trkpt lat="37.66484550513936" lon="14.053797673532793"><ele>481.0</ele><time>2026-04-26T11:06:06Z</time></trkpt><trkpt lat="37.66486380658669" lon="14.053875336143557"><ele>478.0</ele><time>2026-04-26T11:06:07Z</time></trkpt><trkpt lat="37.66487625492169" lon="14.053965986263075"><ele>475.0</ele><time>2026-04-26T11:06:08Z</time></trkpt><trkpt lat="37.664890282170816" lon="14.054069572897289"><ele>475.83333333333337</ele><time>2026-04-26T11:06:09Z</time></trkpt><trkpt lat="37.66489343067438" lon="14.054171546708835"><ele>476.6666666666667</ele><time>2026-04-26T11:06:10Z</time></trkpt><trkpt lat="37.66489405492358" lon="14.054272735146006"><ele>477.5</ele><time>2026-04-26T11:06:11Z</time></trkpt><trkpt lat="37.66489124892195" lon="14.054372794590579"><ele>478.33333333333337</ele><time>2026-04-26T11:06:12Z</time></trkpt><trkpt lat="37.66489076973084" lon="14.054468167264899"><ele>479.1666666666667</ele><time>2026-04-26T11:06:13Z</time></trkpt><trkpt lat="37.6649015115572" lon="14.054549490678514"><ele>480.0</ele><time>2026-04-26T11:06:14Z</time></trkpt><trkpt lat="37.66498471328651" lon="14.054645297602264"><ele>480.0</ele><time>2026-04-26T11:06:16Z</time></trkpt><trkpt lat="37.665050975203364" lon="14.054657573209566"><ele>480.0</ele><time>2026-04-26T11:06:17Z</time></trkpt><trkpt lat="37.66511553627627" lon="14.054633419251557"><ele>480.0</ele><time>2026-04-26T11:06:18Z</time></trkpt><trkpt lat="37.66517549603965" lon="14.054568076083324"><ele>480.0</ele><time>2026-04-26T11:06:19Z</time></trkpt><trkpt lat="37.66521789670096" lon="14.054497600934633"><ele>480.0</ele><time>2026-04-26T11:06:20Z</time></trkpt><trkpt lat="37.665244768646986" lon="14.054417563215573"><ele>480.0</ele><time>2026-04-26T11:06:21Z</time></trkpt><trkpt lat="37.665247912988065" lon="14.054329726108916"><ele>480.0</ele><time>2026-04-26T11:06:22Z</time></trkpt><trkpt lat="37.66524709929597" lon="14.054231890513979"><ele>480.0</ele><time>2026-04-26T11:06:23Z</time></trkpt><trkpt lat="37.66521485284799" lon="14.054132651251072"><ele>480.0</ele><time>2026-04-26T11:06:24Z</time></trkpt><trkpt lat="37.66518555552855" lon="14.054039464040734"><ele>480.0</ele><time>2026-04-26T11:06:25Z</time></trkpt><trkpt lat="37.66516042130892" lon="14.05395054004103"><ele>480.0</ele><time>2026-04-26T11:06:26Z</time></trkpt><trkpt lat="37.66513999527472" lon="14.053857944619777"><ele>480.0</ele><time>2026-04-26T11:06:27Z</time></trkpt><trkpt lat="37.66512299063544" lon="14.053765811170575"><ele>480.0</ele><time>2026-04-26T11:06:28Z</time></trkpt><trkpt lat="37.66510493955433" lon="14.053659379550927"><ele>479.1666666666667</ele><time>2026-04-26T11:06:29Z</time></trkpt><trkpt lat="37.66508616338172" lon="14.053544362862546"><ele>478.33333333333337</ele><time>2026-04-26T11:06:30Z</time></trkpt><trkpt lat="37.66507066169259" lon="14.053434390309558"><ele>477.5</ele><time>2026-04-26T11:06:31Z</time></trkpt><trkpt lat="37.66506103020969" lon="14.053332329221208"><ele>476.6666666666667</ele><time>2026-04-26T11:06:32Z</time></trkpt><trkpt lat="37.66505511112754" lon="14.053231079710878"><ele>475.83333333333337</ele><time>2026-04-26T11:06:33Z</time></trkpt><trkpt lat="37.66505496692175" lon="14.05313287537143"><ele>475.0</ele><time>2026-04-26T11:06:34Z</time></trkpt><trkpt lat="37.66507222794672" lon="14.053050170167674"><ele>474.33333333333337</ele><time>2026-04-26T11:06:35Z</time></trkpt><trkpt lat="37.66516155940274" lon="14.052940091112381"><ele>473.6666666666667</ele><time>2026-04-26T11:06:37Z</time></trkpt><trkpt lat="37.66522840383208" lon="14.05293841610181"><ele>473.0</ele><time>2026-04-26T11:06:38Z</time></trkpt><trkpt lat="37.66529334309987" lon="14.052967337305295"><ele>472.33333333333337</ele><time>2026-04-26T11:06:39Z</time></trkpt><trkpt lat="37.665353862110265" lon="14.053017215275778"><ele>471.6666666666667</ele><time>2026-04-26T11:06:40Z</time></trkpt><trkpt lat="37.66540851113357" lon="14.053093198737084"><ele>471.0</ele><time>2026-04-26T11:06:41Z</time></trkpt><trkpt lat="37.66544914219607" lon="14.053190142072832"><ele>469.0</ele><time>2026-04-26T11:06:42Z</time></trkpt><trkpt lat="37.665480921380656" lon="14.053300231049777"><ele>467.0</ele><time>2026-04-26T11:06:43Z</time></trkpt><trkpt lat="37.66551026105618" lon="14.053407874421621"><ele>465.0</ele><time>2026-04-26T11:06:44Z</time></trkpt><trkpt lat="37.66553740878672" lon="14.05351416150703"><ele>463.0</ele><time>2026-04-26T11:06:45Z</time></trkpt><trkpt lat="37.665565005971665" lon="14.053624061797176"><ele>461.0</ele><time>2026-04-26T11:06:46Z</time></trkpt><trkpt lat="37.66559176986727" lon="14.05373487897663"><ele>460.99999999999994</ele><time>2026-04-26T11:06:47Z</time></trkpt><trkpt lat="37.665609028453005" lon="14.05384889555703"><ele>461.0</ele><time>2026-04-26T11:06:48Z</time></trkpt><trkpt lat="37.665615917549076" lon="14.053957009397026"><ele>461.0</ele><time>2026-04-26T11:06:49Z</time></trkpt><trkpt lat="37.66562541222182" lon="14.054063150174763"><ele>461.0</ele><time>2026-04-26T11:06:50Z</time></trkpt><trkpt lat="37.66564543304705" lon="14.05416892698643"><ele>460.99999999999994</ele><time>2026-04-26T11:06:50.999Z</time></trkpt><trkpt lat="37.665659732163824" lon="14.05428197970211"><ele>461.0</ele><time>2026-04-26T11:06:51.999Z</time></trkpt><trkpt lat="37.665666054126916" lon="14.054399139060358"><ele>460.8</ele><time>2026-04-26T11:06:52.999Z</time></trkpt><trkpt lat="37.66566657818463" lon="14.054511172512125"><ele>460.6</ele><time>2026-04-26T11:06:53.999Z</time></trkpt><trkpt lat="37.66565458835212" lon="14.054627065264471"><ele>460.4</ele><time>2026-04-26T11:06:54.999Z</time></trkpt><trkpt lat="37.66563371732179" lon="14.054749283126489"><ele>460.2</ele><time>2026-04-26T11:06:55.999Z</time></trkpt><trkpt lat="37.66560667517104" lon="14.054872297130668"><ele>460.0</ele><time>2026-04-26T11:06:56.999Z</time></trkpt><trkpt lat="37.66557820132822" lon="14.054985926580274"><ele>459.83333333333337</ele><time>2026-04-26T11:06:57.999Z</time></trkpt><trkpt lat="37.66555589118543" lon="14.05509465999939"><ele>459.6666666666667</ele><time>2026-04-26T11:06:58.999Z</time></trkpt><trkpt lat="37.66553839566869" lon="14.055202367728697"><ele>459.5</ele><time>2026-04-26T11:06:59.999Z</time></trkpt><trkpt lat="37.665527626034624" lon="14.0553115826883"><ele>459.33333333333337</ele><time>2026-04-26T11:07:00.999Z</time></trkpt><trkpt lat="37.665533509971965" lon="14.05541801982207"><ele>459.1666666666667</ele><time>2026-04-26T11:07:01.999Z</time></trkpt><trkpt lat="37.66555282107394" lon="14.055518978039002"><ele>459.0</ele><time>2026-04-26T11:07:02.999Z</time></trkpt><trkpt lat="37.665573511013676" lon="14.055614354987844"><ele>459.0</ele><time>2026-04-26T11:07:03.999Z</time></trkpt><trkpt lat="37.66559756339015" lon="14.055701423650799"><ele>459.0</ele><time>2026-04-26T11:07:04.999Z</time></trkpt><trkpt lat="37.665623622101975" lon="14.055782792892805"><ele>459.0</ele><time>2026-04-26T11:07:05.999Z</time></trkpt><trkpt lat="37.66567095394021" lon="14.055849072974244"><ele>459.0</ele><time>2026-04-26T11:07:06.999Z</time></trkpt><trkpt lat="37.665745117437936" lon="14.055891952732004"><ele>459.0</ele><time>2026-04-26T11:07:07.999Z</time></trkpt><trkpt lat="37.66583729857994" lon="14.055903534782278"><ele>459.0</ele><time>2026-04-26T11:07:08.999Z</time></trkpt><trkpt lat="37.66592372132253" lon="14.055870281119626"><ele>459.0</ele><time>2026-04-26T11:07:09.999Z</time></trkpt><trkpt lat="37.66601307407882" lon="14.055814031560319"><ele>459.0</ele><time>2026-04-26T11:07:10.999Z</time></trkpt><trkpt lat="37.666091683432974" lon="14.05575261125349"><ele>459.0</ele><time>2026-04-26T11:07:11.999Z</time></trkpt><trkpt lat="37.6661680231266" lon="14.055692345947731"><ele>459.0</ele><time>2026-04-26T11:07:12.999Z</time></trkpt><trkpt lat="37.66625412457738" lon="14.055662603899593"><ele>459.0</ele><time>2026-04-26T11:07:13.999Z</time></trkpt><trkpt lat="37.6663276304144" lon="14.055613484505466"><ele>457.6666666666667</ele><time>2026-04-26T11:07:14.999Z</time></trkpt><trkpt lat="37.66640288866721" lon="14.055611695742448"><ele>456.33333333333337</ele><time>2026-04-26T11:07:15.999Z</time></trkpt><trkpt lat="37.666478055229355" lon="14.055633960205517"><ele>455.0</ele><time>2026-04-26T11:07:16.999Z</time></trkpt><trkpt lat="37.666558672720804" lon="14.055683876848702"><ele>453.6666666666667</ele><time>2026-04-26T11:07:17.999Z</time></trkpt><trkpt lat="37.666640821011406" lon="14.055750418823674"><ele>452.33333333333337</ele><time>2026-04-26T11:07:18.999Z</time></trkpt><trkpt lat="37.66672467582179" lon="14.055813525708864"><ele>451.0</ele><time>2026-04-26T11:07:19.999Z</time></trkpt><trkpt lat="37.66681420779938" lon="14.055866821718334"><ele>451.0</ele><time>2026-04-26T11:07:20.999Z</time></trkpt><trkpt lat="37.66690748564605" lon="14.0559155672272"><ele>451.0</ele><time>2026-04-26T11:07:21.999Z</time></trkpt><trkpt lat="37.66700022728588" lon="14.055950971070473"><ele>451.0</ele><time>2026-04-26T11:07:22.999Z</time></trkpt><trkpt lat="37.66709798148571" lon="14.05599482294293"><ele>451.0</ele><time>2026-04-26T11:07:23.999Z</time></trkpt><trkpt lat="37.66719185758164" lon="14.056027561157046"><ele>451.0</ele><time>2026-04-26T11:07:24.999Z</time></trkpt><trkpt lat="37.66727701732766" lon="14.056057146988685"><ele>449.50000000000006</ele><time>2026-04-26T11:07:25.999Z</time></trkpt><trkpt lat="37.6673521036462" lon="14.056082163955681"><ele>448.0</ele><time>2026-04-26T11:07:26.999Z</time></trkpt><trkpt lat="37.66742065568186" lon="14.056097595443193"><ele>446.5</ele><time>2026-04-26T11:07:27.999Z</time></trkpt><trkpt lat="37.66748489459026" lon="14.056099519780599"><ele>445.0</ele><time>2026-04-26T11:07:28.999Z</time></trkpt><trkpt lat="37.667553633524726" lon="14.05607791412204"><ele>443.50000000000006</ele><time>2026-04-26T11:07:29.999Z</time></trkpt><trkpt lat="37.66763347468896" lon="14.056031022260353"><ele>442.0</ele><time>2026-04-26T11:07:30.999Z</time></trkpt><trkpt lat="37.66771985801011" lon="14.05597950475931"><ele>442.0</ele><time>2026-04-26T11:07:31.999Z</time></trkpt><trkpt lat="37.66781464323422" lon="14.055925217684598"><ele>442.00000000000006</ele><time>2026-04-26T11:07:32.999Z</time></trkpt><trkpt lat="37.66791293740068" lon="14.055870030341726"><ele>442.00000000000006</ele><time>2026-04-26T11:07:33.999Z</time></trkpt><trkpt lat="37.66801520805295" lon="14.055818285388193"><ele>442.0</ele><time>2026-04-26T11:07:34.999Z</time></trkpt><trkpt lat="37.668111740093906" lon="14.055764788919593"><ele>442.0</ele><time>2026-04-26T11:07:35.999Z</time></trkpt><trkpt lat="37.66821435622349" lon="14.055707451507162"><ele>444.0</ele><time>2026-04-26T11:07:36.999Z</time></trkpt><trkpt lat="37.668311739496495" lon="14.055655891248279"><ele>446.00000000000006</ele><time>2026-04-26T11:07:37.999Z</time></trkpt><trkpt lat="37.668401622470746" lon="14.055606928520376"><ele>448.00000000000006</ele><time>2026-04-26T11:07:38.999Z</time></trkpt><trkpt lat="37.66849179396482" lon="14.0555560175126"><ele>450.0</ele><time>2026-04-26T11:07:39.999Z</time></trkpt><trkpt lat="37.66858343623525" lon="14.055509704478467"><ele>452.0</ele><time>2026-04-26T11:07:40.999Z</time></trkpt><trkpt lat="37.668675430000285" lon="14.055464882743415"><ele>452.20000000000005</ele><time>2026-04-26T11:07:41.999Z</time></trkpt><trkpt lat="37.66876964039036" lon="14.055422081724586"><ele>452.40000000000003</ele><time>2026-04-26T11:07:42.999Z</time></trkpt><trkpt lat="37.66886532451444" lon="14.055375251162955"><ele>452.59999999999997</ele><time>2026-04-26T11:07:43.999Z</time></trkpt><trkpt lat="37.668958215123084" lon="14.055317257631401"><ele>452.79999999999995</ele><time>2026-04-26T11:07:45Z</time></trkpt><trkpt lat="37.669066684285795" lon="14.055259006616412"><ele>453.0</ele><time>2026-04-26T11:07:46Z</time></trkpt><trkpt lat="37.66917868040663" lon="14.055199685140511"><ele>453.0</ele><time>2026-04-26T11:07:47Z</time></trkpt><trkpt lat="37.669293526256894" lon="14.055139654138761"><ele>453.0</ele><time>2026-04-26T11:07:48Z</time></trkpt><trkpt lat="37.669406900126006" lon="14.055078627527893"><ele>453.0</ele><time>2026-04-26T11:07:49Z</time></trkpt><trkpt lat="37.66951756855739" lon="14.055023394218818"><ele>453.0</ele><time>2026-04-26T11:07:50Z</time></trkpt><trkpt lat="37.66963252251835" lon="14.054984311559092"><ele>454.59999999999997</ele><time>2026-04-26T11:07:51Z</time></trkpt><trkpt lat="37.66973055862738" lon="14.054914183677184"><ele>456.19999999999993</ele><time>2026-04-26T11:07:52Z</time></trkpt><trkpt lat="37.66982576711121" lon="14.054866062202883"><ele>457.8</ele><time>2026-04-26T11:07:53Z</time></trkpt><trkpt lat="37.669913289654986" lon="14.054819204916871"><ele>459.4</ele><time>2026-04-26T11:07:54Z</time></trkpt><trkpt lat="37.669998518978716" lon="14.054771387890275"><ele>461.0</ele><time>2026-04-26T11:07:55Z</time></trkpt><trkpt lat="37.67008025036626" lon="14.054722713772838"><ele>460.99999999999994</ele><time>2026-04-26T11:07:56Z</time></trkpt><trkpt lat="37.67016050660774" lon="14.05468984560808"><ele>461.0</ele><time>2026-04-26T11:07:57Z</time></trkpt><trkpt lat="37.6702319663002" lon="14.054652089913086"><ele>461.0</ele><time>2026-04-26T11:07:58Z</time></trkpt><trkpt lat="37.6703104479701" lon="14.054615776181633"><ele>461.0</ele><time>2026-04-26T11:07:59Z</time></trkpt><trkpt lat="37.67038408789846" lon="14.054568657837208"><ele>460.99999999999994</ele><time>2026-04-26T11:08:00Z</time></trkpt><trkpt lat="37.67044268081507" lon="14.05453677604704"><ele>461.0</ele><time>2026-04-26T11:08:01Z</time></trkpt><trkpt lat="37.67050480988513" lon="14.054498813440238"><ele>459.49999999999994</ele><time>2026-04-26T11:08:02Z</time></trkpt><trkpt lat="37.67057245021833" lon="14.054479226169128"><ele>458.0</ele><time>2026-04-26T11:08:03Z</time></trkpt><trkpt lat="37.67063172623326" lon="14.054437807850158"><ele>456.5</ele><time>2026-04-26T11:08:04Z</time></trkpt><trkpt lat="37.670694670881836" lon="14.054392656554382"><ele>455.0</ele><time>2026-04-26T11:08:05Z</time></trkpt><trkpt lat="37.67076114974275" lon="14.054346142278026"><ele>453.49999999999994</ele><time>2026-04-26T11:08:06Z</time></trkpt><trkpt lat="37.67083629157557" lon="14.054292459883278"><ele>452.0</ele><time>2026-04-26T11:08:07Z</time></trkpt><trkpt lat="37.67091322359999" lon="14.054231553100546"><ele>452.0</ele><time>2026-04-26T11:08:08Z</time></trkpt><trkpt lat="37.670993234442626" lon="14.054160016359146"><ele>452.00000000000006</ele><time>2026-04-26T11:08:09Z</time></trkpt><trkpt lat="37.67106986399708" lon="14.054083466398744"><ele>452.00000000000006</ele><time>2026-04-26T11:08:10Z</time></trkpt><trkpt lat="37.671143246521844" lon="14.05400857102645"><ele>452.0</ele><time>2026-04-26T11:08:11Z</time></trkpt><trkpt lat="37.671217502339196" lon="14.053930707540209"><ele>452.0</ele><time>2026-04-26T11:08:12Z</time></trkpt><trkpt lat="37.67129462798285" lon="14.053849834718346"><ele>451.0</ele><time>2026-04-26T11:08:13Z</time></trkpt><trkpt lat="37.671371438188416" lon="14.053768506597002"><ele>450.00000000000006</ele><time>2026-04-26T11:08:14Z</time></trkpt><trkpt lat="37.67144410552035" lon="14.053689807556108"><ele>449.00000000000006</ele><time>2026-04-26T11:08:15Z</time></trkpt><trkpt lat="37.67151427138913" lon="14.053612659410073"><ele>448.0</ele><time>2026-04-26T11:08:16Z</time></trkpt><trkpt lat="37.67158447293651" lon="14.053535472101407"><ele>447.0</ele><time>2026-04-26T11:08:17Z</time></trkpt><trkpt lat="37.671646324798864" lon="14.05344078756245"><ele>447.0</ele><time>2026-04-26T11:08:18Z</time></trkpt><trkpt lat="37.67172205456245" lon="14.053363360744338"><ele>447.00000000000006</ele><time>2026-04-26T11:08:19Z</time></trkpt><trkpt lat="37.671798280896176" lon="14.053302985339947"><ele>447.00000000000006</ele><time>2026-04-26T11:08:20Z</time></trkpt><trkpt lat="37.67186819986207" lon="14.053229221381073"><ele>447.0</ele><time>2026-04-26T11:08:21Z</time></trkpt><trkpt lat="37.67193574124668" lon="14.053159134617319"><ele>447.0</ele><time>2026-04-26T11:08:22Z</time></trkpt><trkpt lat="37.671994397610895" lon="14.053079172581716"><ele>446.1666666666667</ele><time>2026-04-26T11:08:23Z</time></trkpt><trkpt lat="37.67205563717188" lon="14.053011452143881"><ele>445.33333333333337</ele><time>2026-04-26T11:08:24Z</time></trkpt><trkpt lat="37.672126474697116" lon="14.05293909751337"><ele>444.5</ele><time>2026-04-26T11:08:25Z</time></trkpt><trkpt lat="37.67220336039308" lon="14.052864623527263"><ele>443.6666666666667</ele><time>2026-04-26T11:08:26Z</time></trkpt><trkpt lat="37.672287315180505" lon="14.052776809006998"><ele>442.83333333333337</ele><time>2026-04-26T11:08:27Z</time></trkpt><trkpt lat="37.67234667529573" lon="14.052735267237628"><ele>442.0</ele><time>2026-04-26T11:08:28Z</time></trkpt><trkpt lat="37.67240965472613" lon="14.05267113695051"><ele>442.00000000000006</ele><time>2026-04-26T11:08:29Z</time></trkpt><trkpt lat="37.67246033964569" lon="14.052593068549735"><ele>442.0</ele><time>2026-04-26T11:08:30Z</time></trkpt><trkpt lat="37.67252121147266" lon="14.052535970291098"><ele>442.0</ele><time>2026-04-26T11:08:31Z</time></trkpt><trkpt lat="37.67258841027607" lon="14.052468598945577"><ele>442.0</ele><time>2026-04-26T11:08:32Z</time></trkpt><trkpt lat="37.67266093101295" lon="14.052402966266248"><ele>442.00000000000006</ele><time>2026-04-26T11:08:33Z</time></trkpt><trkpt lat="37.67275259488723" lon="14.052365870408398"><ele>442.0</ele><time>2026-04-26T11:08:34Z</time></trkpt><trkpt lat="37.6728386315279" lon="14.05230332296848"><ele>442.6</ele><time>2026-04-26T11:08:35Z</time></trkpt><trkpt lat="37.67293560540583" lon="14.052270015682607"><ele>443.20000000000005</ele><time>2026-04-26T11:08:36Z</time></trkpt><trkpt lat="37.67303353041639" lon="14.052241803552606"><ele>443.8</ele><time>2026-04-26T11:08:37Z</time></trkpt><trkpt lat="37.67312840382188" lon="14.052218287711007"><ele>444.4</ele><time>2026-04-26T11:08:38Z</time></trkpt><trkpt lat="37.67322376760484" lon="14.052196597952452"><ele>445.0</ele><time>2026-04-26T11:08:39Z</time></trkpt><trkpt lat="37.67331567749072" lon="14.052174366136393"><ele>445.0</ele><time>2026-04-26T11:08:40Z</time></trkpt><trkpt lat="37.673410989168985" lon="14.052147685633752"><ele>445.0</ele><time>2026-04-26T11:08:41Z</time></trkpt><trkpt lat="37.67350950356487" lon="14.052118977842449"><ele>445.0</ele><time>2026-04-26T11:08:42Z</time></trkpt><trkpt lat="37.673617811162444" lon="14.052088376105596"><ele>445.0</ele><time>2026-04-26T11:08:43Z</time></trkpt><trkpt lat="37.67372014718585" lon="14.052059939455978"><ele>445.0</ele><time>2026-04-26T11:08:44Z</time></trkpt><trkpt lat="37.67382173341615" lon="14.05203801897981"><ele>444.2</ele><time>2026-04-26T11:08:45Z</time></trkpt><trkpt lat="37.67392262739874" lon="14.052017546140169"><ele>443.4</ele><time>2026-04-26T11:08:46Z</time></trkpt><trkpt lat="37.67402775293218" lon="14.051991700832529"><ele>442.6</ele><time>2026-04-26T11:08:47Z</time></trkpt><trkpt lat="37.67413434669396" lon="14.05196058817514"><ele>441.8</ele><time>2026-04-26T11:08:48Z</time></trkpt><trkpt lat="37.674240976172804" lon="14.05193126571567"><ele>441.0</ele><time>2026-04-26T11:08:49Z</time></trkpt><trkpt lat="37.67435051360517" lon="14.051904087458276"><ele>440.8</ele><time>2026-04-26T11:08:50Z</time></trkpt><trkpt lat="37.67446024368402" lon="14.051876038854436"><ele>440.6</ele><time>2026-04-26T11:08:51Z</time></trkpt><trkpt lat="37.67457237282262" lon="14.051843140181942"><ele>440.4</ele><time>2026-04-26T11:08:52Z</time></trkpt><trkpt lat="37.674674198967296" lon="14.051812712178322"><ele>440.2</ele><time>2026-04-26T11:08:53Z</time></trkpt><trkpt lat="37.6747840379416" lon="14.051789909415458"><ele>440.0</ele><time>2026-04-26T11:08:54Z</time></trkpt><trkpt lat="37.67489942697166" lon="14.05175379600698"><ele>440.0</ele><time>2026-04-26T11:08:55Z</time></trkpt><trkpt lat="37.67501518054381" lon="14.051726030490718"><ele>440.0</ele><time>2026-04-26T11:08:56Z</time></trkpt><trkpt lat="37.67513516514188" lon="14.051697098578531"><ele>440.0</ele><time>2026-04-26T11:08:56.999Z</time></trkpt><trkpt lat="37.67525032821661" lon="14.051662276621094"><ele>440.0</ele><time>2026-04-26T11:08:57.999Z</time></trkpt><trkpt lat="37.6753701188703" lon="14.051631091553185"><ele>442.75</ele><time>2026-04-26T11:08:58.999Z</time></trkpt><trkpt lat="37.67548454538207" lon="14.051600744923592"><ele>445.5</ele><time>2026-04-26T11:08:59.999Z</time></trkpt><trkpt lat="37.67561311865423" lon="14.051590015777169"><ele>448.25</ele><time>2026-04-26T11:09:00.999Z</time></trkpt><trkpt lat="37.675733739268615" lon="14.051558743764133"><ele>451.0</ele><time>2026-04-26T11:09:01.999Z</time></trkpt><trkpt lat="37.67585137999034" lon="14.051528502874246"><ele>451.0</ele><time>2026-04-26T11:09:02.999Z</time></trkpt><trkpt lat="37.67596439446628" lon="14.051500422438052"><ele>451.0</ele><time>2026-04-26T11:09:03.999Z</time></trkpt><trkpt lat="37.676066507294365" lon="14.051474848121027"><ele>451.0</ele><time>2026-04-26T11:09:04.999Z</time></trkpt><trkpt lat="37.676159165439884" lon="14.05145164174642"><ele>451.0</ele><time>2026-04-26T11:09:05.999Z</time></trkpt><trkpt lat="37.67623802335771" lon="14.051411070030971"><ele>451.0</ele><time>2026-04-26T11:09:06.999Z</time></trkpt><trkpt lat="37.67631417931104" lon="14.05140379487942"><ele>451.6666666666667</ele><time>2026-04-26T11:09:07.999Z</time></trkpt><trkpt lat="37.67637955179705" lon="14.051387397342769"><ele>452.33333333333337</ele><time>2026-04-26T11:09:08.999Z</time></trkpt><trkpt lat="37.6764637734524" lon="14.051342359561325"><ele>453.0</ele><time>2026-04-26T11:09:10.999Z</time></trkpt><trkpt lat="37.67650867541685" lon="14.05121825011023"><ele>453.66666666666663</ele><time>2026-04-26T11:09:12.999Z</time></trkpt><trkpt lat="37.67652745342067" lon="14.051118828527711"><ele>454.3333333333333</ele><time>2026-04-26T11:09:14.999Z</time></trkpt><trkpt lat="37.67652452404853" lon="14.051033544801978"><ele>455.0</ele><time>2026-04-26T11:09:20.999Z</time></trkpt><trkpt lat="37.67644593591471" lon="14.050936639970065"><ele>454.99999999999994</ele><time>2026-04-26T11:09:22.999Z</time></trkpt><trkpt lat="37.676393742619766" lon="14.050887846519869"><ele>455.0</ele><time>2026-04-26T11:09:23.999Z</time></trkpt><trkpt lat="37.676332236908664" lon="14.05083953951619"><ele>455.0</ele><time>2026-04-26T11:09:24.999Z</time></trkpt><trkpt lat="37.67626958418084" lon="14.050788203754514"><ele>455.0</ele><time>2026-04-26T11:09:25.999Z</time></trkpt><trkpt lat="37.67620286764655" lon="14.05072132648944"><ele>454.99999999999994</ele><time>2026-04-26T11:09:26.999Z</time></trkpt><trkpt lat="37.676131548058" lon="14.05065209271641"><ele>455.0</ele><time>2026-04-26T11:09:27.999Z</time></trkpt><trkpt lat="37.67605775462457" lon="14.050584529940881"><ele>456.6</ele><time>2026-04-26T11:09:28.999Z</time></trkpt><trkpt lat="37.67598245678864" lon="14.050514312955942"><ele>458.2</ele><time>2026-04-26T11:09:29.999Z</time></trkpt><trkpt lat="37.675921629767856" lon="14.050423240480704"><ele>459.79999999999995</ele><time>2026-04-26T11:09:30.999Z</time></trkpt><trkpt lat="37.6758492086728" lon="14.050352861239235"><ele>461.4</ele><time>2026-04-26T11:09:31.999Z</time></trkpt><trkpt lat="37.675773160960006" lon="14.050278957606919"><ele>463.0</ele><time>2026-04-26T11:09:32.999Z</time></trkpt><trkpt lat="37.67570440129898" lon="14.050199724707596"><ele>463.0</ele><time>2026-04-26T11:09:33.999Z</time></trkpt><trkpt lat="37.67564549688537" lon="14.05011191570247"><ele>462.99999999999994</ele><time>2026-04-26T11:09:34.999Z</time></trkpt><trkpt lat="37.67559811900258" lon="14.050013834447054"><ele>462.99999999999994</ele><time>2026-04-26T11:09:35.999Z</time></trkpt><trkpt lat="37.6755538840747" lon="14.049907810207225"><ele>463.0</ele><time>2026-04-26T11:09:36.999Z</time></trkpt><trkpt lat="37.67551670224687" lon="14.049798784654149"><ele>463.0</ele><time>2026-04-26T11:09:37.999Z</time></trkpt><trkpt lat="37.67548222643161" lon="14.049681536664757"><ele>464.79999999999995</ele><time>2026-04-26T11:09:38.999Z</time></trkpt><trkpt lat="37.675447965985136" lon="14.0495583992498"><ele>466.59999999999997</ele><time>2026-04-26T11:09:39.999Z</time></trkpt><trkpt lat="37.67542177656633" lon="14.049436763478615"><ele>468.40000000000003</ele><time>2026-04-26T11:09:40.999Z</time></trkpt><trkpt lat="37.67540895485456" lon="14.049322421552558"><ele>470.20000000000005</ele><time>2026-04-26T11:09:41.999Z</time></trkpt><trkpt lat="37.675405266905415" lon="14.049202877532798"><ele>472.0</ele><time>2026-04-26T11:09:42.999Z</time></trkpt><trkpt lat="37.67542882153711" lon="14.049087659965407"><ele>473.40000000000003</ele><time>2026-04-26T11:09:43.999Z</time></trkpt><trkpt lat="37.67546187790958" lon="14.04896273460436"><ele>474.80000000000007</ele><time>2026-04-26T11:09:44.999Z</time></trkpt><trkpt lat="37.67547378444892" lon="14.048837769312946"><ele>476.2</ele><time>2026-04-26T11:09:45.999Z</time></trkpt><trkpt lat="37.675498817559514" lon="14.048715668511583"><ele>477.6</ele><time>2026-04-26T11:09:46.999Z</time></trkpt><trkpt lat="37.675511010241124" lon="14.04859495373723"><ele>479.0</ele><time>2026-04-26T11:09:47.999Z</time></trkpt><trkpt lat="37.67550726603702" lon="14.048485041923955"><ele>478.99999999999994</ele><time>2026-04-26T11:09:48.999Z</time></trkpt><trkpt lat="37.67551081196066" lon="14.048383438737897"><ele>479.0</ele><time>2026-04-26T11:09:49.999Z</time></trkpt><trkpt lat="37.67545429434048" lon="14.048296963992685"><ele>479.0</ele><time>2026-04-26T11:09:51Z</time></trkpt><trkpt lat="37.67538945133712" lon="14.04822649711865"><ele>479.0</ele><time>2026-04-26T11:09:52Z</time></trkpt><trkpt lat="37.67530186313896" lon="14.048188838536989"><ele>478.99999999999994</ele><time>2026-04-26T11:09:53Z</time></trkpt><trkpt lat="37.675211193272354" lon="14.04816643581801"><ele>479.0</ele><time>2026-04-26T11:09:54Z</time></trkpt><trkpt lat="37.67511996798452" lon="14.04816383293957"><ele>478.2</ele><time>2026-04-26T11:09:55Z</time></trkpt><trkpt lat="37.6750263259224" lon="14.048181569829227"><ele>477.4</ele><time>2026-04-26T11:09:56Z</time></trkpt><trkpt lat="37.67493299245716" lon="14.048216075114826"><ele>476.6</ele><time>2026-04-26T11:09:57Z</time></trkpt><trkpt lat="37.674843083123946" lon="14.048241489374213"><ele>475.8</ele><time>2026-04-26T11:09:58Z</time></trkpt><trkpt lat="37.674752550611686" lon="14.048276394377575"><ele>475.0</ele><time>2026-04-26T11:09:59Z</time></trkpt><trkpt lat="37.67467223504802" lon="14.048336115728642"><ele>475.0</ele><time>2026-04-26T11:10:00Z</time></trkpt><trkpt lat="37.67459727145063" lon="14.048419648339934"><ele>475.0</ele><time>2026-04-26T11:10:01Z</time></trkpt><trkpt lat="37.67451329935813" lon="14.048495528704239"><ele>475.0</ele><time>2026-04-26T11:10:02Z</time></trkpt><trkpt lat="37.67442130686901" lon="14.048561156923306"><ele>475.0</ele><time>2026-04-26T11:10:03Z</time></trkpt><trkpt lat="37.674327897300856" lon="14.048625132792289"><ele>475.0</ele><time>2026-04-26T11:10:04Z</time></trkpt><trkpt lat="37.67422654290853" lon="14.048683561462818"><ele>477.4</ele><time>2026-04-26T11:10:05Z</time></trkpt><trkpt lat="37.674116145751285" lon="14.048710747188922"><ele>479.8</ele><time>2026-04-26T11:10:06Z</time></trkpt><trkpt lat="37.674008942392355" lon="14.04876128997349"><ele>482.20000000000005</ele><time>2026-04-26T11:10:07Z</time></trkpt><trkpt lat="37.67391924313697" lon="14.048816207145226"><ele>484.6</ele><time>2026-04-26T11:10:08Z</time></trkpt><trkpt lat="37.67384169117052" lon="14.0488824862499"><ele>487.0</ele><time>2026-04-26T11:10:09Z</time></trkpt><trkpt lat="37.673765554858065" lon="14.048926917742873"><ele>487.0</ele><time>2026-04-26T11:10:10Z</time></trkpt><trkpt lat="37.673700464350276" lon="14.048967865177154"><ele>487.00000000000006</ele><time>2026-04-26T11:10:11Z</time></trkpt><trkpt lat="37.673578475423" lon="14.048978588867145"><ele>487.00000000000006</ele><time>2026-04-26T11:10:13Z</time></trkpt><trkpt lat="37.673494198708035" lon="14.048851290826681"><ele>487.0</ele><time>2026-04-26T11:10:15Z</time></trkpt><trkpt lat="37.67348764647601" lon="14.048758967242613"><ele>487.0</ele><time>2026-04-26T11:10:16Z</time></trkpt><trkpt lat="37.673512716347446" lon="14.048669208316777"><ele>487.00000000000006</ele><time>2026-04-26T11:10:17Z</time></trkpt><trkpt lat="37.67356808175219" lon="14.048604480630068"><ele>487.0</ele><time>2026-04-26T11:10:18Z</time></trkpt><trkpt lat="37.673642345054915" lon="14.048555074464716"><ele>487.0</ele><time>2026-04-26T11:10:19Z</time></trkpt><trkpt lat="37.6737193617157" lon="14.048492054652167"><ele>487.0</ele><time>2026-04-26T11:10:20Z</time></trkpt><trkpt lat="37.673781549229986" lon="14.048405389398566"><ele>487.00000000000006</ele><time>2026-04-26T11:10:21Z</time></trkpt><trkpt lat="37.673822690560044" lon="14.048295723505246"><ele>487.0</ele><time>2026-04-26T11:10:22Z</time></trkpt><trkpt lat="37.67384288976297" lon="14.048164319166514"><ele>488.8</ele><time>2026-04-26T11:10:23Z</time></trkpt><trkpt lat="37.67384959237431" lon="14.048028352539133"><ele>490.6</ele><time>2026-04-26T11:10:24Z</time></trkpt><trkpt lat="37.67384183771381" lon="14.047886749870273"><ele>492.40000000000003</ele><time>2026-04-26T11:10:25Z</time></trkpt><trkpt lat="37.67386281287006" lon="14.04774819739477"><ele>494.20000000000005</ele><time>2026-04-26T11:10:26Z</time></trkpt><trkpt lat="37.67388135362553" lon="14.047615284017022"><ele>496.0</ele><time>2026-04-26T11:10:27Z</time></trkpt><trkpt lat="37.67391448872312" lon="14.047479323219672"><ele>497.0</ele><time>2026-04-26T11:10:28Z</time></trkpt><trkpt lat="37.67393415018166" lon="14.04733890093331"><ele>498.0</ele><time>2026-04-26T11:10:29Z</time></trkpt><trkpt lat="37.67397826076966" lon="14.047213078828955"><ele>499.0</ele><time>2026-04-26T11:10:30Z</time></trkpt><trkpt lat="37.67399078318411" lon="14.047077055187595"><ele>500.0</ele><time>2026-04-26T11:10:31Z</time></trkpt><trkpt lat="37.674009890971675" lon="14.046943945624156"><ele>501.0</ele><time>2026-04-26T11:10:32Z</time></trkpt><trkpt lat="37.673998300237955" lon="14.046817209766235"><ele>501.0</ele><time>2026-04-26T11:10:33Z</time></trkpt><trkpt lat="37.67399421073089" lon="14.046707574835342"><ele>501.0</ele><time>2026-04-26T11:10:34Z</time></trkpt><trkpt lat="37.674008207078025" lon="14.046606976767945"><ele>501.0</ele><time>2026-04-26T11:10:35Z</time></trkpt><trkpt lat="37.67405266143757" lon="14.046523192902502"><ele>501.0</ele><time>2026-04-26T11:10:36Z</time></trkpt><trkpt lat="37.67410689653618" lon="14.046447534734568"><ele>501.0</ele><time>2026-04-26T11:10:37Z</time></trkpt><trkpt lat="37.67420539439756" lon="14.046431165832772"><ele>501.0</ele><time>2026-04-26T11:10:38Z</time></trkpt><trkpt lat="37.67428981438002" lon="14.046378308193308"><ele>500.8</ele><time>2026-04-26T11:10:39Z</time></trkpt><trkpt lat="37.674375110851024" lon="14.046332956840455"><ele>500.6</ele><time>2026-04-26T11:10:40Z</time></trkpt><trkpt lat="37.67446367125349" lon="14.046280167040306"><ele>500.4</ele><time>2026-04-26T11:10:41Z</time></trkpt><trkpt lat="37.67454506611989" lon="14.046222738701"><ele>500.2</ele><time>2026-04-26T11:10:42Z</time></trkpt><trkpt lat="37.67460774885219" lon="14.046147071269178"><ele>500.0</ele><time>2026-04-26T11:10:43Z</time></trkpt><trkpt lat="37.67466285659292" lon="14.04606186335227"><ele>502.8</ele><time>2026-04-26T11:10:44Z</time></trkpt><trkpt lat="37.674678090000036" lon="14.045933905872715"><ele>505.6</ele><time>2026-04-26T11:10:45Z</time></trkpt><trkpt lat="37.67469006169472" lon="14.0458224617065"><ele>508.4</ele><time>2026-04-26T11:10:46Z</time></trkpt><trkpt lat="37.674721128658504" lon="14.045722223166749"><ele>511.2</ele><time>2026-04-26T11:10:47Z</time></trkpt><trkpt lat="37.67473551942788" lon="14.045614074811114"><ele>514.0</ele><time>2026-04-26T11:10:48Z</time></trkpt><trkpt lat="37.674748072441574" lon="14.045501330074401"><ele>514.6</ele><time>2026-04-26T11:10:49Z</time></trkpt><trkpt lat="37.67475692232466" lon="14.045385342888292"><ele>515.2</ele><time>2026-04-26T11:10:50Z</time></trkpt><trkpt lat="37.67475954675539" lon="14.045265287885329"><ele>515.8000000000001</ele><time>2026-04-26T11:10:51Z</time></trkpt><trkpt lat="37.674763406328616" lon="14.045141879034041"><ele>516.4</ele><time>2026-04-26T11:10:52Z</time></trkpt><trkpt lat="37.6747717157858" lon="14.045003706690315"><ele>517.0</ele><time>2026-04-26T11:10:53Z</time></trkpt><trkpt lat="37.67478668294665" lon="14.044868907557918"><ele>515.8000000000001</ele><time>2026-04-26T11:10:54Z</time></trkpt><trkpt lat="37.67481159019295" lon="14.044731593629423"><ele>514.6</ele><time>2026-04-26T11:10:55Z</time></trkpt><trkpt lat="37.67482904948287" lon="14.044589788142464"><ele>513.4000000000001</ele><time>2026-04-26T11:10:56Z</time></trkpt><trkpt lat="37.674880110515254" lon="14.044472149099576"><ele>512.2</ele><time>2026-04-26T11:10:57Z</time></trkpt><trkpt lat="37.67491882805695" lon="14.044358315478183"><ele>511.0</ele><time>2026-04-26T11:10:58Z</time></trkpt><trkpt lat="37.67496555008071" lon="14.044249615242945"><ele>511.0</ele><time>2026-04-26T11:10:59Z</time></trkpt><trkpt lat="37.67502939251759" lon="14.044148620451512"><ele>511.0</ele><time>2026-04-26T11:11:00Z</time></trkpt><trkpt lat="37.67509986738618" lon="14.044034727390944"><ele>511.0</ele><time>2026-04-26T11:11:01Z</time></trkpt><trkpt lat="37.675180960557995" lon="14.043916011820894"><ele>511.0</ele><time>2026-04-26T11:11:02Z</time></trkpt><trkpt lat="37.67525719187919" lon="14.043790169571734"><ele>513.0</ele><time>2026-04-26T11:11:03Z</time></trkpt><trkpt lat="37.675330616399215" lon="14.043654545143664"><ele>515.0</ele><time>2026-04-26T11:11:04Z</time></trkpt><trkpt lat="37.67540412178972" lon="14.043515514699102"><ele>517.0</ele><time>2026-04-26T11:11:05Z</time></trkpt><trkpt lat="37.675480730793026" lon="14.043374348462489"><ele>519.0</ele><time>2026-04-26T11:11:06Z</time></trkpt><trkpt lat="37.67555084757487" lon="14.043253057232187"><ele>519.0</ele><time>2026-04-26T11:11:06.999Z</time></trkpt><trkpt lat="37.67561492852573" lon="14.043130788915601"><ele>519.0</ele><time>2026-04-26T11:11:07.999Z</time></trkpt><trkpt lat="37.67566932885933" lon="14.043004360522835"><ele>519.0</ele><time>2026-04-26T11:11:08.999Z</time></trkpt><trkpt lat="37.675703546757916" lon="14.04287296719957"><ele>519.0</ele><time>2026-04-26T11:11:09.999Z</time></trkpt><trkpt lat="37.6757435978791" lon="14.042763386672098"><ele>519.0</ele><time>2026-04-26T11:11:10.999Z</time></trkpt><trkpt lat="37.675775812027474" lon="14.042646114079341"><ele>519.0</ele><time>2026-04-26T11:11:11.999Z</time></trkpt><trkpt lat="37.67579425815698" lon="14.04251655985027"><ele>519.0</ele><time>2026-04-26T11:11:12.999Z</time></trkpt><trkpt lat="37.6758203593721" lon="14.042387993296948"><ele>519.0</ele><time>2026-04-26T11:11:13.999Z</time></trkpt><trkpt lat="37.67585242124613" lon="14.042256183463138"><ele>519.0</ele><time>2026-04-26T11:11:14.999Z</time></trkpt><trkpt lat="37.67588036641906" lon="14.042119412301911"><ele>519.0</ele><time>2026-04-26T11:11:15.999Z</time></trkpt><trkpt lat="37.67591110914252" lon="14.04198106513507"><ele>520.0</ele><time>2026-04-26T11:11:16.999Z</time></trkpt><trkpt lat="37.67595058948764" lon="14.04184316989739"><ele>521.0</ele><time>2026-04-26T11:11:17.999Z</time></trkpt><trkpt lat="37.67599766784414" lon="14.041710069748722"><ele>522.0</ele><time>2026-04-26T11:11:18.999Z</time></trkpt><trkpt lat="37.676046368458415" lon="14.041576899617587"><ele>523.0</ele><time>2026-04-26T11:11:19.999Z</time></trkpt><trkpt lat="37.6761074673688" lon="14.041453316801034"><ele>525.25</ele><time>2026-04-26T11:11:20.999Z</time></trkpt><trkpt lat="37.67617432083047" lon="14.041336757151832"><ele>527.5</ele><time>2026-04-26T11:11:21.999Z</time></trkpt><trkpt lat="37.67624056201628" lon="14.041215874566804"><ele>529.75</ele><time>2026-04-26T11:11:22.999Z</time></trkpt><trkpt lat="37.67630370196281" lon="14.041097189896833"><ele>532.0</ele><time>2026-04-26T11:11:23.999Z</time></trkpt><trkpt lat="37.676369004719675" lon="14.04098072295761"><ele>532.0</ele><time>2026-04-26T11:11:24.999Z</time></trkpt><trkpt lat="37.67643627476795" lon="14.04086883631941"><ele>532.0</ele><time>2026-04-26T11:11:25.999Z</time></trkpt><trkpt lat="37.6764932942224" lon="14.04076575537443"><ele>532.0</ele><time>2026-04-26T11:11:26.999Z</time></trkpt><trkpt lat="37.67655035145772" lon="14.040661123838145"><ele>532.0</ele><time>2026-04-26T11:11:27.999Z</time></trkpt><trkpt lat="37.676601556162346" lon="14.040570463067008"><ele>532.0</ele><time>2026-04-26T11:11:28.999Z</time></trkpt><trkpt lat="37.6766374391195" lon="14.040480083400181"><ele>533.0</ele><time>2026-04-26T11:11:29.999Z</time></trkpt><trkpt lat="37.676662755684156" lon="14.040375709909192"><ele>534.0</ele><time>2026-04-26T11:11:30.999Z</time></trkpt><trkpt lat="37.676661894581315" lon="14.04025566605975"><ele>535.0</ele><time>2026-04-26T11:11:31.999Z</time></trkpt><trkpt lat="37.67665522137842" lon="14.040135860603689"><ele>536.0</ele><time>2026-04-26T11:11:32.999Z</time></trkpt><trkpt lat="37.6766393646305" lon="14.04001852959711"><ele>537.0</ele><time>2026-04-26T11:11:33.999Z</time></trkpt><trkpt lat="37.676614905459" lon="14.039902092796705"><ele>538.6</ele><time>2026-04-26T11:11:34.999Z</time></trkpt><trkpt lat="37.67658279544575" lon="14.039786658757553"><ele>540.2</ele><time>2026-04-26T11:11:35.999Z</time></trkpt><trkpt lat="37.67652093435667" lon="14.03969414683943"><ele>541.8</ele><time>2026-04-26T11:11:36.999Z</time></trkpt><trkpt lat="37.676431413503295" lon="14.039630751853592"><ele>543.4</ele><time>2026-04-26T11:11:37.999Z</time></trkpt><trkpt lat="37.67635037429819" lon="14.039564630813677"><ele>545.0</ele><time>2026-04-26T11:11:38.999Z</time></trkpt><trkpt lat="37.67626016971102" lon="14.039505347242825"><ele>545.0</ele><time>2026-04-26T11:11:39.999Z</time></trkpt><trkpt lat="37.676168250471356" lon="14.03942547278779"><ele>545.0</ele><time>2026-04-26T11:11:40.999Z</time></trkpt><trkpt lat="37.67606980401839" lon="14.039365928852105"><ele>545.0</ele><time>2026-04-26T11:11:41.999Z</time></trkpt><trkpt lat="37.67597249157832" lon="14.039307070807098"><ele>545.0</ele><time>2026-04-26T11:11:42.999Z</time></trkpt><trkpt lat="37.675886428119554" lon="14.039253009100053"><ele>545.0</ele><time>2026-04-26T11:11:43.999Z</time></trkpt><trkpt lat="37.675814167851726" lon="14.0391988289383"><ele>544.0</ele><time>2026-04-26T11:11:44.999Z</time></trkpt><trkpt lat="37.675753889414324" lon="14.039138264891168"><ele>543.0</ele><time>2026-04-26T11:11:45.999Z</time></trkpt><trkpt lat="37.67574094256925" lon="14.039057787116187"><ele>542.0</ele><time>2026-04-26T11:11:46.999Z</time></trkpt><trkpt lat="37.675822492785926" lon="14.038945813472916"><ele>541.0</ele><time>2026-04-26T11:11:48.999Z</time></trkpt><trkpt lat="37.675901112825265" lon="14.038913935075765"><ele>540.0</ele><time>2026-04-26T11:11:49.999Z</time></trkpt><trkpt lat="37.67599163990601" lon="14.038903033773762"><ele>539.0</ele><time>2026-04-26T11:11:50.999Z</time></trkpt><trkpt lat="37.67608273258102" lon="14.038923124831113"><ele>540.2</ele><time>2026-04-26T11:11:51.999Z</time></trkpt><trkpt lat="37.67616820615062" lon="14.038975015011147"><ele>541.4</ele><time>2026-04-26T11:11:52.999Z</time></trkpt><trkpt lat="37.67625305821092" lon="14.039050598197283"><ele>542.6</ele><time>2026-04-26T11:11:53.999Z</time></trkpt><trkpt lat="37.67633424874874" lon="14.03913065799277"><ele>543.8</ele><time>2026-04-26T11:11:54.999Z</time></trkpt><trkpt lat="37.676409461540224" lon="14.03919612897384"><ele>545.0</ele><time>2026-04-26T11:11:55.999Z</time></trkpt><trkpt lat="37.67648188411001" lon="14.03924777595368"><ele>545.0</ele><time>2026-04-26T11:11:57Z</time></trkpt><trkpt lat="37.676558301384155" lon="14.039278374241952"><ele>545.0</ele><time>2026-04-26T11:11:58Z</time></trkpt><trkpt lat="37.67664692352122" lon="14.039268750122682"><ele>545.0</ele><time>2026-04-26T11:11:59Z</time></trkpt><trkpt lat="37.67673415585829" lon="14.039214105058393"><ele>545.0</ele><time>2026-04-26T11:12:00Z</time></trkpt><trkpt lat="37.676810039282316" lon="14.03912846158249"><ele>545.0</ele><time>2026-04-26T11:12:01Z</time></trkpt><trkpt lat="37.67688360391492" lon="14.039050376002796"><ele>547.5</ele><time>2026-04-26T11:12:02Z</time></trkpt><trkpt lat="37.6769586632535" lon="14.039003986759335"><ele>550.0</ele><time>2026-04-26T11:12:03Z</time></trkpt><trkpt lat="37.67703998314564" lon="14.038997425728132"><ele>552.5</ele><time>2026-04-26T11:12:04Z</time></trkpt><trkpt lat="37.677122487453694" lon="14.039027432008087"><ele>555.0</ele><time>2026-04-26T11:12:05Z</time></trkpt><trkpt lat="37.677204985538665" lon="14.039064837690537"><ele>557.5</ele><time>2026-04-26T11:12:06Z</time></trkpt><trkpt lat="37.67728762845301" lon="14.039068294097802"><ele>560.0</ele><time>2026-04-26T11:12:07Z</time></trkpt><trkpt lat="37.6773729643309" lon="14.039051125021338"><ele>560.0</ele><time>2026-04-26T11:12:08Z</time></trkpt><trkpt lat="37.67744885124022" lon="14.039000697309671"><ele>560.0</ele><time>2026-04-26T11:12:09Z</time></trkpt><trkpt lat="37.67751961017318" lon="14.038928912248478"><ele>560.0</ele><time>2026-04-26T11:12:10Z</time></trkpt><trkpt lat="37.677585094256145" lon="14.038842391310885"><ele>560.0</ele><time>2026-04-26T11:12:11Z</time></trkpt><trkpt lat="37.67764876750023" lon="14.038752976486998"><ele>560.0</ele><time>2026-04-26T11:12:12Z</time></trkpt><trkpt lat="37.67771227927638" lon="14.038658217555362"><ele>561.2</ele><time>2026-04-26T11:12:13Z</time></trkpt><trkpt lat="37.677771247626886" lon="14.038557788462652"><ele>562.4</ele><time>2026-04-26T11:12:14Z</time></trkpt><trkpt lat="37.67782588563191" lon="14.038448328160042"><ele>563.6</ele><time>2026-04-26T11:12:15Z</time></trkpt><trkpt lat="37.67788103759733" lon="14.038339125953287"><ele>564.8</ele><time>2026-04-26T11:12:16Z</time></trkpt><trkpt lat="37.677936478760444" lon="14.038225224370361"><ele>566.0</ele><time>2026-04-26T11:12:17Z</time></trkpt><trkpt lat="37.67799268686528" lon="14.038110335331115"><ele>566.6</ele><time>2026-04-26T11:12:18Z</time></trkpt><trkpt lat="37.67806533005309" lon="14.038018659436485"><ele>567.2</ele><time>2026-04-26T11:12:19Z</time></trkpt><trkpt lat="37.678118822833056" lon="14.037906844889589"><ele>567.8</ele><time>2026-04-26T11:12:20Z</time></trkpt><trkpt lat="37.67819185314384" lon="14.037812026835875"><ele>568.4</ele><time>2026-04-26T11:12:21Z</time></trkpt><trkpt lat="37.678270170014414" lon="14.037716198536783"><ele>569.0</ele><time>2026-04-26T11:12:22Z</time></trkpt><trkpt lat="37.67835235582281" lon="14.037627237917635"><ele>569.0</ele><time>2026-04-26T11:12:23Z</time></trkpt><trkpt lat="37.67841323491686" lon="14.037524952619542"><ele>569.0</ele><time>2026-04-26T11:12:24Z</time></trkpt><trkpt lat="37.678486367395095" lon="14.037461100309644"><ele>569.0</ele><time>2026-04-26T11:12:25Z</time></trkpt><trkpt lat="37.678544530498186" lon="14.03738567083981"><ele>569.0</ele><time>2026-04-26T11:12:26Z</time></trkpt><trkpt lat="37.67860061451362" lon="14.037312937534073"><ele>569.0</ele><time>2026-04-26T11:12:27Z</time></trkpt><trkpt lat="37.67865434867406" lon="14.037239273591524"><ele>569.0</ele><time>2026-04-26T11:12:28Z</time></trkpt><trkpt lat="37.67870542461921" lon="14.037163464506198"><ele>567.4</ele><time>2026-04-26T11:12:29Z</time></trkpt><trkpt lat="37.678748725290745" lon="14.037090694466622"><ele>565.8</ele><time>2026-04-26T11:12:30Z</time></trkpt><trkpt lat="37.67880686795386" lon="14.03697571357262"><ele>564.2</ele><time>2026-04-26T11:12:32Z</time></trkpt><trkpt lat="37.678863647270134" lon="14.0369142792897"><ele>562.6</ele><time>2026-04-26T11:12:48Z</time></trkpt><trkpt lat="37.6789180156145" lon="14.036833936787351"><ele>561.0</ele><time>2026-04-26T11:12:50Z</time></trkpt><trkpt lat="37.678974861638444" lon="14.036709934961673"><ele>560.0</ele><time>2026-04-26T11:12:52Z</time></trkpt><trkpt lat="37.67899639849845" lon="14.036633978685094"><ele>559.0</ele><time>2026-04-26T11:12:53Z</time></trkpt><trkpt lat="37.67901215535499" lon="14.036547297825678"><ele>558.0</ele><time>2026-04-26T11:12:54Z</time></trkpt><trkpt lat="37.67903353400629" lon="14.03643937452264"><ele>557.0</ele><time>2026-04-26T11:12:55Z</time></trkpt><trkpt lat="37.67903725686436" lon="14.036320970895295"><ele>556.0</ele><time>2026-04-26T11:12:56Z</time></trkpt><trkpt lat="37.6790316703732" lon="14.036211479510253"><ele>555.0</ele><time>2026-04-26T11:12:57Z</time></trkpt><trkpt lat="37.67902023027617" lon="14.036104748584263"><ele>555.0</ele><time>2026-04-26T11:12:58Z</time></trkpt><trkpt lat="37.67901359510259" lon="14.035997878348072"><ele>555.0</ele><time>2026-04-26T11:12:59Z</time></trkpt><trkpt lat="37.6789919332943" lon="14.03588361051838"><ele>555.0</ele><time>2026-04-26T11:13:00Z</time></trkpt><trkpt lat="37.67896670922568" lon="14.03577929325442"><ele>555.0</ele><time>2026-04-26T11:13:01Z</time></trkpt><trkpt lat="37.67893299617029" lon="14.035669523173913"><ele>555.0</ele><time>2026-04-26T11:13:02Z</time></trkpt><trkpt lat="37.678897516874436" lon="14.035567481635306"><ele>555.0</ele><time>2026-04-26T11:13:03Z</time></trkpt><trkpt lat="37.678855597226594" lon="14.035477231259916"><ele>554.0</ele><time>2026-04-26T11:13:04Z</time></trkpt><trkpt lat="37.678822603468376" lon="14.035384664047355"><ele>553.0</ele><time>2026-04-26T11:13:05Z</time></trkpt><trkpt lat="37.67879859552938" lon="14.035292608717166"><ele>552.0</ele><time>2026-04-26T11:13:06Z</time></trkpt><trkpt lat="37.67877122880314" lon="14.035181250067316"><ele>551.0</ele><time>2026-04-26T11:13:07Z</time></trkpt><trkpt lat="37.678744224146044" lon="14.035066201530963"><ele>550.0</ele><time>2026-04-26T11:13:08Z</time></trkpt><trkpt lat="37.67872074383996" lon="14.034954179458095"><ele>549.0</ele><time>2026-04-26T11:13:09Z</time></trkpt><trkpt lat="37.67869418021695" lon="14.03484319170614"><ele>548.0</ele><time>2026-04-26T11:13:10Z</time></trkpt><trkpt lat="37.67865256954143" lon="14.034725085379016"><ele>547.0</ele><time>2026-04-26T11:13:10.999Z</time></trkpt><trkpt lat="37.678610692994326" lon="14.034617577025267"><ele>546.0</ele><time>2026-04-26T11:13:11.999Z</time></trkpt><trkpt lat="37.678555692638625" lon="14.034519467239988"><ele>545.0</ele><time>2026-04-26T11:13:12.999Z</time></trkpt><trkpt lat="37.678533298866974" lon="14.034404612119873"><ele>544.0</ele><time>2026-04-26T11:13:13.999Z</time></trkpt><trkpt lat="37.67850139887024" lon="14.034294487161796"><ele>547.6</ele><time>2026-04-26T11:13:14.999Z</time></trkpt><trkpt lat="37.678471541260016" lon="14.03417292193349"><ele>551.2</ele><time>2026-04-26T11:13:15.999Z</time></trkpt><trkpt lat="37.6784471084306" lon="14.0340521829982"><ele>554.8000000000001</ele><time>2026-04-26T11:13:16.999Z</time></trkpt><trkpt lat="37.678426578597126" lon="14.033940107114889"><ele>558.4</ele><time>2026-04-26T11:13:17.999Z</time></trkpt><trkpt lat="37.67840781389757" lon="14.03381931478153"><ele>562.0</ele><time>2026-04-26T11:13:18.999Z</time></trkpt><trkpt lat="37.67839266680839" lon="14.033694914785473"><ele>562.0</ele><time>2026-04-26T11:13:19.999Z</time></trkpt><trkpt lat="37.6784066047581" lon="14.033583635617257"><ele>562.0</ele><time>2026-04-26T11:13:20.999Z</time></trkpt><trkpt lat="37.67839378744311" lon="14.03343464304711"><ele>562.0</ele><time>2026-04-26T11:13:21.999Z</time></trkpt><trkpt lat="37.67839776309115" lon="14.033318633872053"><ele>562.0</ele><time>2026-04-26T11:13:22.999Z</time></trkpt><trkpt lat="37.67840738793436" lon="14.033204138343386"><ele>562.0</ele><time>2026-04-26T11:13:23.999Z</time></trkpt><trkpt lat="37.67843526709143" lon="14.033080584555032"><ele>562.2</ele><time>2026-04-26T11:13:24.999Z</time></trkpt><trkpt lat="37.67844166650766" lon="14.032947316909686"><ele>562.4000000000001</ele><time>2026-04-26T11:13:25.999Z</time></trkpt><trkpt lat="37.67842651224572" lon="14.032844114573322"><ele>562.5999999999999</ele><time>2026-04-26T11:13:26.999Z</time></trkpt><trkpt lat="37.67841130507515" lon="14.032723540186842"><ele>562.8</ele><time>2026-04-26T11:13:27.999Z</time></trkpt><trkpt lat="37.678390361696145" lon="14.032613996088042"><ele>563.0</ele><time>2026-04-26T11:13:28.999Z</time></trkpt><trkpt lat="37.67839445003211" lon="14.03250603421234"><ele>563.3333333333333</ele><time>2026-04-26T11:13:29.999Z</time></trkpt><trkpt lat="37.67839478415211" lon="14.032405313679718"><ele>563.6666666666666</ele><time>2026-04-26T11:13:30.999Z</time></trkpt><trkpt lat="37.678405570681086" lon="14.032310872919133"><ele>564.0</ele><time>2026-04-26T11:13:31.999Z</time></trkpt><trkpt lat="37.67847718046019" lon="14.032179229910925"><ele>564.3333333333334</ele><time>2026-04-26T11:13:33.999Z</time></trkpt><trkpt lat="37.678535539515806" lon="14.032121460397558"><ele>564.6666666666667</ele><time>2026-04-26T11:13:34.999Z</time></trkpt><trkpt lat="37.67859929024552" lon="14.032101887400168"><ele>565.0</ele><time>2026-04-26T11:13:35.999Z</time></trkpt><trkpt lat="37.67866633112204" lon="14.032104775683308"><ele>566.1428571428571</ele><time>2026-04-26T11:13:36.999Z</time></trkpt><trkpt lat="37.67873142179101" lon="14.032138251188988"><ele>567.2857142857142</ele><time>2026-04-26T11:13:37.999Z</time></trkpt><trkpt lat="37.67880084020407" lon="14.032183566916103"><ele>568.4285714285714</ele><time>2026-04-26T11:13:38.999Z</time></trkpt><trkpt lat="37.6788555659899" lon="14.032237935300824"><ele>569.5714285714286</ele><time>2026-04-26T11:13:39.999Z</time></trkpt><trkpt lat="37.67889753571012" lon="14.032316222163736"><ele>570.7142857142858</ele><time>2026-04-26T11:13:40.999Z</time></trkpt><trkpt lat="37.6789611127557" lon="14.03235035004086"><ele>571.8571428571429</ele><time>2026-04-26T11:13:41.999Z</time></trkpt><trkpt lat="37.67902091172173" lon="14.032402265388779"><ele>573.0</ele><time>2026-04-26T11:13:42.999Z</time></trkpt><trkpt lat="37.67909197307472" lon="14.03244713166262"><ele>573.0</ele><time>2026-04-26T11:13:43.999Z</time></trkpt><trkpt lat="37.679165554257025" lon="14.032489811098806"><ele>573.0</ele><time>2026-04-26T11:13:44.999Z</time></trkpt><trkpt lat="37.679237113478166" lon="14.032539090207607"><ele>573.0</ele><time>2026-04-26T11:13:45.999Z</time></trkpt><trkpt lat="37.679310923147575" lon="14.032590434945721"><ele>573.0</ele><time>2026-04-26T11:13:46.999Z</time></trkpt><trkpt lat="37.67938535855108" lon="14.03265354559934"><ele>573.0</ele><time>2026-04-26T11:13:47.999Z</time></trkpt><trkpt lat="37.6794522603556" lon="14.032727068512386"><ele>573.0</ele><time>2026-04-26T11:13:48.999Z</time></trkpt><trkpt lat="37.67952316872258" lon="14.032804572230816"><ele>573.0</ele><time>2026-04-26T11:13:49.999Z</time></trkpt><trkpt lat="37.679594738596975" lon="14.03288616152896"><ele>573.0</ele><time>2026-04-26T11:13:50.999Z</time></trkpt><trkpt lat="37.67966484116008" lon="14.03296266907681"><ele>573.0</ele><time>2026-04-26T11:13:51.999Z</time></trkpt><trkpt lat="37.67973819231549" lon="14.03303620258602"><ele>573.0</ele><time>2026-04-26T11:13:52.999Z</time></trkpt><trkpt lat="37.67981464131399" lon="14.03309222501397"><ele>573.0</ele><time>2026-04-26T11:13:53.999Z</time></trkpt><trkpt lat="37.67989860101045" lon="14.033110564335896"><ele>573.0</ele><time>2026-04-26T11:13:54.999Z</time></trkpt><trkpt lat="37.67999039383222" lon="14.033098735738053"><ele>573.0</ele><time>2026-04-26T11:13:55.999Z</time></trkpt><trkpt lat="37.68007974908049" lon="14.033057872225195"><ele>573.0</ele><time>2026-04-26T11:13:56.999Z</time></trkpt><trkpt lat="37.68015647864201" lon="14.033004339238326"><ele>573.0</ele><time>2026-04-26T11:13:57.999Z</time></trkpt><trkpt lat="37.680221976674616" lon="14.032935925311621"><ele>573.0</ele><time>2026-04-26T11:13:58.999Z</time></trkpt><trkpt lat="37.68028025315518" lon="14.032850188948572"><ele>573.0</ele><time>2026-04-26T11:13:59.999Z</time></trkpt><trkpt lat="37.68032635101745" lon="14.032748897529148"><ele>573.1666666666666</ele><time>2026-04-26T11:14:00.999Z</time></trkpt><trkpt lat="37.68037330001965" lon="14.03266906525533"><ele>573.3333333333334</ele><time>2026-04-26T11:14:01.999Z</time></trkpt><trkpt lat="37.68043368382966" lon="14.032588247854935"><ele>573.5</ele><time>2026-04-26T11:14:03Z</time></trkpt><trkpt lat="37.68050670891482" lon="14.032546726135362"><ele>573.6666666666667</ele><time>2026-04-26T11:14:04Z</time></trkpt><trkpt lat="37.68059771361438" lon="14.032550441206528"><ele>573.8333333333334</ele><time>2026-04-26T11:14:05Z</time></trkpt><trkpt lat="37.68068261333277" lon="14.032510641435854"><ele>574.0</ele><time>2026-04-26T11:14:06Z</time></trkpt><trkpt lat="37.68076908779846" lon="14.032489777373613"><ele>575.0</ele><time>2026-04-26T11:14:07Z</time></trkpt><trkpt lat="37.680840817870724" lon="14.032459105983838"><ele>576.0</ele><time>2026-04-26T11:14:08Z</time></trkpt><trkpt lat="37.68095555077076" lon="14.032407640321185"><ele>577.0</ele><time>2026-04-26T11:14:10Z</time></trkpt><trkpt lat="37.681012518303014" lon="14.032367943142622"><ele>578.0</ele><time>2026-04-26T11:14:11Z</time></trkpt><trkpt lat="37.6811112876204" lon="14.032325664386057"><ele>579.0</ele><time>2026-04-26T11:14:13Z</time></trkpt><trkpt lat="37.68119074532242" lon="14.032269004136381"><ele>579.0</ele><time>2026-04-26T11:14:15Z</time></trkpt><trkpt lat="37.68124395550042" lon="14.0322256595341"><ele>579.0</ele><time>2026-04-26T11:14:17Z</time></trkpt><trkpt lat="37.68119495152594" lon="14.032158922464562"><ele>579.0</ele><time>2026-04-26T11:14:21Z</time></trkpt><trkpt lat="37.681329325304716" lon="14.032175435565668"><ele>579.0</ele><time>2026-04-26T11:14:22Z</time></trkpt><trkpt lat="37.68143973043907" lon="14.032061452117828"><ele>579.0</ele><time>2026-04-26T11:18:57.999Z</time></trkpt><trkpt lat="37.6813158174169" lon="14.032134609229047"><ele>579.0</ele><time>2026-04-26T11:19:00.999Z</time></trkpt><trkpt lat="37.68120484085481" lon="14.03206318230772"><ele>579.0</ele><time>2026-04-26T11:19:44.999Z</time></trkpt><trkpt lat="37.68109891452931" lon="14.032014939100469"><ele>579.0</ele><time>2026-04-26T11:19:46.999Z</time></trkpt><trkpt lat="37.680992467270784" lon="14.031974068274142"><ele>579.0</ele><time>2026-04-26T11:19:48.999Z</time></trkpt><trkpt lat="37.680888025486226" lon="14.031936696899516"><ele>581.4</ele><time>2026-04-26T11:19:50.999Z</time></trkpt><trkpt lat="37.680823971000144" lon="14.031920922195726"><ele>583.8</ele><time>2026-04-26T11:19:51.999Z</time></trkpt><trkpt lat="37.68071028270291" lon="14.031885033004302"><ele>586.2</ele><time>2026-04-26T11:19:53.999Z</time></trkpt><trkpt lat="37.680600057778605" lon="14.031841331375514"><ele>588.6</ele><time>2026-04-26T11:19:55.999Z</time></trkpt><trkpt lat="37.68049762999401" lon="14.031806637259859"><ele>591.0</ele><time>2026-04-26T11:19:57.999Z</time></trkpt><trkpt lat="37.6804090252543" lon="14.03174616823927"><ele>591.0</ele><time>2026-04-26T11:19:59.999Z</time></trkpt><trkpt lat="37.680325490104835" lon="14.031693468746408"><ele>591.0</ele><time>2026-04-26T11:20:01.999Z</time></trkpt><trkpt lat="37.680231373583624" lon="14.031635319126753"><ele>591.0</ele><time>2026-04-26T11:20:03.999Z</time></trkpt><trkpt lat="37.68014839817361" lon="14.031604513117284"><ele>591.0</ele><time>2026-04-26T11:20:05.999Z</time></trkpt><trkpt lat="37.6800635311383" lon="14.03156717165022"><ele>591.0</ele><time>2026-04-26T11:20:07.999Z</time></trkpt><trkpt lat="37.67998242533696" lon="14.03152277349149"><ele>593.6</ele><time>2026-04-26T11:20:09.999Z</time></trkpt><trkpt lat="37.67988852050845" lon="14.031474309163055"><ele>596.2</ele><time>2026-04-26T11:20:11.999Z</time></trkpt><trkpt lat="37.679796696172076" lon="14.031414499293893"><ele>598.8</ele><time>2026-04-26T11:20:13.999Z</time></trkpt><trkpt lat="37.67972402300315" lon="14.031327668397898"><ele>601.4</ele><time>2026-04-26T11:20:15.999Z</time></trkpt><trkpt lat="37.67963109991541" lon="14.031276028663486"><ele>604.0</ele><time>2026-04-26T11:20:17.999Z</time></trkpt><trkpt lat="37.6795543089345" lon="14.031200256721204"><ele>604.0</ele><time>2026-04-26T11:20:19.999Z</time></trkpt><trkpt lat="37.67947406571197" lon="14.031119078534694"><ele>604.0</ele><time>2026-04-26T11:20:21.999Z</time></trkpt><trkpt lat="37.67938377718165" lon="14.031079094872217"><ele>604.0</ele><time>2026-04-26T11:20:23.999Z</time></trkpt><trkpt lat="37.679293394378014" lon="14.031028610528667"><ele>604.0</ele><time>2026-04-26T11:20:25.999Z</time></trkpt><trkpt lat="37.67921011495146" lon="14.031011447381463"><ele>604.0</ele><time>2026-04-26T11:20:27.999Z</time></trkpt><trkpt lat="37.679119734826145" lon="14.030962160974498"><ele>603.6666666666667</ele><time>2026-04-26T11:20:29.999Z</time></trkpt><trkpt lat="37.67904601510116" lon="14.030919695105776"><ele>603.3333333333334</ele><time>2026-04-26T11:20:31.999Z</time></trkpt><trkpt lat="37.678947738976184" lon="14.030889534134053"><ele>603.0</ele><time>2026-04-26T11:20:35.999Z</time></trkpt><trkpt lat="37.67886674760585" lon="14.030827883969733"><ele>602.6666666666666</ele><time>2026-04-26T11:20:37.999Z</time></trkpt><trkpt lat="37.67880530261199" lon="14.03077238128095"><ele>602.3333333333333</ele><time>2026-04-26T11:20:39.999Z</time></trkpt><trkpt lat="37.67874720598899" lon="14.030712391927795"><ele>602.0</ele><time>2026-04-26T11:20:45.999Z</time></trkpt><trkpt lat="37.67868929663914" lon="14.030641320122964"><ele>598.2</ele><time>2026-04-26T11:20:47.999Z</time></trkpt><trkpt lat="37.67858969846368" lon="14.030566946837729"><ele>594.4000000000001</ele><time>2026-04-26T11:20:49.999Z</time></trkpt><trkpt lat="37.678508534634005" lon="14.03050759961406"><ele>590.5999999999999</ele><time>2026-04-26T11:20:51.999Z</time></trkpt><trkpt lat="37.67846042107142" lon="14.030431248746766"><ele>586.8</ele><time>2026-04-26T11:20:53.999Z</time></trkpt><trkpt lat="37.678485326075936" lon="14.03031994322187"><ele>583.0</ele><time>2026-04-26T11:20:55.999Z</time></trkpt><trkpt lat="37.67848389218764" lon="14.030169739550043"><ele>583.0</ele><time>2026-04-26T11:20:57.999Z</time></trkpt><trkpt lat="37.67851275489371" lon="14.030032799805491"><ele>583.0</ele><time>2026-04-26T11:20:59.999Z</time></trkpt><trkpt lat="37.67855671639153" lon="14.029972392836456"><ele>583.0</ele><time>2026-04-26T11:21:01.999Z</time></trkpt><trkpt lat="37.67847956723113" lon="14.029901148902562"><ele>583.0</ele><time>2026-04-26T11:21:03.999Z</time></trkpt><trkpt lat="37.67843819900199" lon="14.029792980095225"><ele>583.0</ele><time>2026-04-26T11:21:05.999Z</time></trkpt><trkpt lat="37.67840480133847" lon="14.029703758403478"><ele>583.0</ele><time>2026-04-26T11:21:07.999Z</time></trkpt><trkpt lat="37.67836834949073" lon="14.029637991491354"><ele>583.4</ele><time>2026-04-26T11:21:08.999Z</time></trkpt><trkpt lat="37.67831901648314" lon="14.02955211245163"><ele>583.8</ele><time>2026-04-26T11:21:10.999Z</time></trkpt><trkpt lat="37.6783376992709" lon="14.029436113870075"><ele>584.2</ele><time>2026-04-26T11:21:12.999Z</time></trkpt><trkpt lat="37.67836578067163" lon="14.029305209929335"><ele>584.6</ele><time>2026-04-26T11:21:14.999Z</time></trkpt><trkpt lat="37.67839844145799" lon="14.029163152936524"><ele>585.0</ele><time>2026-04-26T11:21:16.999Z</time></trkpt><trkpt lat="37.67840089791906" lon="14.029007427484345"><ele>585.8571428571429</ele><time>2026-04-26T11:21:18.999Z</time></trkpt><trkpt lat="37.67838695014963" lon="14.028921037707072"><ele>586.7142857142857</ele><time>2026-04-26T11:21:19.999Z</time></trkpt><trkpt lat="37.67837183688087" lon="14.028838393767288"><ele>587.5714285714286</ele><time>2026-04-26T11:21:20.999Z</time></trkpt><trkpt lat="37.67836026553178" lon="14.028756973250681"><ele>588.4285714285714</ele><time>2026-04-26T11:21:21.999Z</time></trkpt><trkpt lat="37.67835658242479" lon="14.028671666465124"><ele>589.2857142857143</ele><time>2026-04-26T11:21:22.999Z</time></trkpt><trkpt lat="37.67834178141147" lon="14.028581957688317"><ele>590.1428571428571</ele><time>2026-04-26T11:21:23.999Z</time></trkpt><trkpt lat="37.67831178417531" lon="14.028492710336133"><ele>591.0</ele><time>2026-04-26T11:21:24.999Z</time></trkpt><trkpt lat="37.67828622302387" lon="14.028406798230018"><ele>591.0</ele><time>2026-04-26T11:21:25.999Z</time></trkpt><trkpt lat="37.67824498473078" lon="14.028259914071377"><ele>591.0</ele><time>2026-04-26T11:21:27.999Z</time></trkpt><trkpt lat="37.678238679293976" lon="14.028108739899249"><ele>591.0</ele><time>2026-04-26T11:21:29.999Z</time></trkpt><trkpt lat="37.67825083812626" lon="14.02803014918378"><ele>591.0</ele><time>2026-04-26T11:21:30.999Z</time></trkpt><trkpt lat="37.67826304304883" lon="14.027918115252232"><ele>591.0</ele><time>2026-04-26T11:21:32.999Z</time></trkpt><trkpt lat="37.67830460020802" lon="14.027831626825954"><ele>591.0</ele><time>2026-04-26T11:21:34.999Z</time></trkpt><trkpt lat="37.678329840686224" lon="14.027742754614806"><ele>591.0</ele><time>2026-04-26T11:21:36.999Z</time></trkpt><trkpt lat="37.67839008735203" lon="14.02764544622889"><ele>591.0</ele><time>2026-04-26T11:21:38.999Z</time></trkpt><trkpt lat="37.67845093535137" lon="14.027517953803512"><ele>591.0</ele><time>2026-04-26T11:21:40.999Z</time></trkpt><trkpt lat="37.67851797544604" lon="14.027396454707361"><ele>591.0</ele><time>2026-04-26T11:21:42.999Z</time></trkpt><trkpt lat="37.67858213326434" lon="14.027283474064983"><ele>592.2</ele><time>2026-04-26T11:21:44.999Z</time></trkpt><trkpt lat="37.67864914684286" lon="14.027180704504623"><ele>593.4000000000001</ele><time>2026-04-26T11:21:46.999Z</time></trkpt><trkpt lat="37.67875806413386" lon="14.027144710111308"><ele>594.6</ele><time>2026-04-26T11:21:48.999Z</time></trkpt><trkpt lat="37.67886545604949" lon="14.027110966647081"><ele>595.8000000000001</ele><time>2026-04-26T11:21:50.999Z</time></trkpt><trkpt lat="37.6789226002228" lon="14.027073779238341"><ele>597.0</ele><time>2026-04-26T11:21:51.999Z</time></trkpt><trkpt lat="37.67897712966795" lon="14.027025693132545"><ele>597.0</ele><time>2026-04-26T11:21:52.999Z</time></trkpt><trkpt lat="37.67904681299678" lon="14.026888993918787"><ele>597.0</ele><time>2026-04-26T11:21:54.999Z</time></trkpt><trkpt lat="37.679073812474364" lon="14.02679543601812"><ele>597.0</ele><time>2026-04-26T11:21:55.999Z</time></trkpt><trkpt lat="37.67910931094922" lon="14.026721747260485"><ele>597.0</ele><time>2026-04-26T11:21:56.999Z</time></trkpt><trkpt lat="37.67914284707157" lon="14.026641465632999"><ele>597.0</ele><time>2026-04-26T11:21:57.999Z</time></trkpt><trkpt lat="37.67917662809743" lon="14.026559103929"><ele>597.0</ele><time>2026-04-26T11:21:58.999Z</time></trkpt><trkpt lat="37.67921285821065" lon="14.026473002861412"><ele>596.8333333333334</ele><time>2026-04-26T11:21:59.999Z</time></trkpt><trkpt lat="37.67925862712993" lon="14.02639061586318"><ele>596.6666666666666</ele><time>2026-04-26T11:22:00.999Z</time></trkpt><trkpt lat="37.67931706688058" lon="14.026312471584957"><ele>596.5</ele><time>2026-04-26T11:22:01.999Z</time></trkpt><trkpt lat="37.67937734024534" lon="14.026235887259789"><ele>596.3333333333333</ele><time>2026-04-26T11:22:02.999Z</time></trkpt><trkpt lat="37.67943660401129" lon="14.026164522147363"><ele>596.1666666666666</ele><time>2026-04-26T11:22:03.999Z</time></trkpt><trkpt lat="37.679491579509154" lon="14.026080932042921"><ele>596.0</ele><time>2026-04-26T11:22:04.999Z</time></trkpt><trkpt lat="37.67955028922722" lon="14.026008170463818"><ele>598.6666666666666</ele><time>2026-04-26T11:22:05.999Z</time></trkpt><trkpt lat="37.6795998047565" lon="14.025930826384087"><ele>601.3333333333333</ele><time>2026-04-26T11:22:06.999Z</time></trkpt><trkpt lat="37.679633611567134" lon="14.025840704399977"><ele>604.0</ele><time>2026-04-26T11:22:07.999Z</time></trkpt><trkpt lat="37.67965746961403" lon="14.025746994591431"><ele>606.6666666666666</ele><time>2026-04-26T11:22:08.999Z</time></trkpt><trkpt lat="37.67964809978285" lon="14.025599848423305"><ele>609.3333333333334</ele><time>2026-04-26T11:22:10.999Z</time></trkpt><trkpt lat="37.679657202294024" lon="14.025491905789917"><ele>612.0</ele><time>2026-04-26T11:22:12.999Z</time></trkpt><trkpt lat="37.679627051286225" lon="14.025633998846216"><ele>612.0</ele><time>2026-04-26T11:22:24.999Z</time></trkpt><trkpt lat="37.67962378261907" lon="14.025794490390759"><ele>612.0</ele><time>2026-04-26T11:22:27Z</time></trkpt><trkpt lat="37.679603447882606" lon="14.025872353875032"><ele>612.0</ele><time>2026-04-26T11:22:28Z</time></trkpt><trkpt lat="37.67957162050098" lon="14.025947729964386"><ele>612.0</ele><time>2026-04-26T11:22:29Z</time></trkpt><trkpt lat="37.679524752991064" lon="14.026025004717038"><ele>612.0</ele><time>2026-04-26T11:22:30Z</time></trkpt><trkpt lat="37.679470674344074" lon="14.026092865831593"><ele>612.0</ele><time>2026-04-26T11:22:31Z</time></trkpt><trkpt lat="37.67940804575799" lon="14.0261617069775"><ele>609.3333333333334</ele><time>2026-04-26T11:22:32Z</time></trkpt><trkpt lat="37.679349489482405" lon="14.02623161737678"><ele>606.6666666666666</ele><time>2026-04-26T11:22:33Z</time></trkpt><trkpt lat="37.679295718366866" lon="14.026292956145193"><ele>604.0</ele><time>2026-04-26T11:22:34Z</time></trkpt><trkpt lat="37.67924643969375" lon="14.026362890212175"><ele>601.3333333333333</ele><time>2026-04-26T11:22:35Z</time></trkpt><trkpt lat="37.679194653923346" lon="14.026445112311162"><ele>598.6666666666666</ele><time>2026-04-26T11:22:36Z</time></trkpt><trkpt lat="37.67914792470933" lon="14.026533682488154"><ele>596.0</ele><time>2026-04-26T11:22:37Z</time></trkpt><trkpt lat="37.679115652417664" lon="14.026625264661323"><ele>596.1666666666666</ele><time>2026-04-26T11:22:38Z</time></trkpt><trkpt lat="37.6790776240408" lon="14.026719000608221"><ele>596.3333333333333</ele><time>2026-04-26T11:22:39Z</time></trkpt><trkpt lat="37.67903712265253" lon="14.026804296844908"><ele>596.5</ele><time>2026-04-26T11:22:40Z</time></trkpt><trkpt lat="37.67898996973381" lon="14.026879334733392"><ele>596.6666666666666</ele><time>2026-04-26T11:22:41Z</time></trkpt><trkpt lat="37.67894770118381" lon="14.026951196825673"><ele>596.8333333333334</ele><time>2026-04-26T11:22:42Z</time></trkpt><trkpt lat="37.6788969830906" lon="14.026998984375945"><ele>597.0</ele><time>2026-04-26T11:22:43Z</time></trkpt><trkpt lat="37.678806319174384" lon="14.02708427776539"><ele>597.0</ele><time>2026-04-26T11:22:45Z</time></trkpt><trkpt lat="37.67869380447166" lon="14.027100308636188"><ele>597.0</ele><time>2026-04-26T11:22:47Z</time></trkpt><trkpt lat="37.67859537690089" lon="14.027161787235322"><ele>597.0</ele><time>2026-04-26T11:22:49Z</time></trkpt><trkpt lat="37.678511347021164" lon="14.027286034729872"><ele>597.0</ele><time>2026-04-26T11:22:51Z</time></trkpt><trkpt lat="37.67847304226803" lon="14.027356447077434"><ele>597.0</ele><time>2026-04-26T11:22:52Z</time></trkpt><trkpt lat="37.67844232406568" lon="14.02743058926937"><ele>595.8000000000001</ele><time>2026-04-26T11:22:53Z</time></trkpt><trkpt lat="37.678407067273305" lon="14.02749753097817"><ele>594.6</ele><time>2026-04-26T11:22:54Z</time></trkpt><trkpt lat="37.67834781971998" lon="14.027633158760198"><ele>593.4000000000001</ele><time>2026-04-26T11:22:56Z</time></trkpt><trkpt lat="37.678291033228284" lon="14.027760912188086"><ele>592.2</ele><time>2026-04-26T11:22:58Z</time></trkpt><trkpt lat="37.67823504281616" lon="14.027861984024016"><ele>591.0</ele><time>2026-04-26T11:23:00Z</time></trkpt><trkpt lat="37.678205752996654" lon="14.027933322673677"><ele>591.0</ele><time>2026-04-26T11:23:04Z</time></trkpt><trkpt lat="37.67814180732732" lon="14.027914853369198"><ele>591.0</ele><time>2026-04-26T11:23:06Z</time></trkpt><trkpt lat="37.6780707893838" lon="14.02787068839826"><ele>591.0</ele><time>2026-04-26T11:23:09Z</time></trkpt><trkpt lat="37.67797453106738" lon="14.027875025510411"><ele>591.0</ele><time>2026-04-26T11:23:13Z</time></trkpt><trkpt lat="37.67787509449501" lon="14.027940964423777"><ele>591.0</ele><time>2026-04-26T11:23:15Z</time></trkpt><trkpt lat="37.67781844736742" lon="14.02798084549901"><ele>591.0</ele><time>2026-04-26T11:23:16Z</time></trkpt><trkpt lat="37.67776058313967" lon="14.028023455452045"><ele>590.0</ele><time>2026-04-26T11:23:17Z</time></trkpt><trkpt lat="37.6777030432031" lon="14.028068670239678"><ele>589.0</ele><time>2026-04-26T11:23:18Z</time></trkpt><trkpt lat="37.67764726171463" lon="14.028116548963895"><ele>588.0</ele><time>2026-04-26T11:23:19Z</time></trkpt><trkpt lat="37.67759438756868" lon="14.02816720605012"><ele>587.0</ele><time>2026-04-26T11:23:20Z</time></trkpt><trkpt lat="37.67749579537943" lon="14.028263335453463"><ele>586.0</ele><time>2026-04-26T11:23:22Z</time></trkpt><trkpt lat="37.67741112290026" lon="14.028305639078715"><ele>585.0</ele><time>2026-04-26T11:23:24Z</time></trkpt><trkpt lat="37.677398369447744" lon="14.028459243734536"><ele>585.0</ele><time>2026-04-26T11:23:26Z</time></trkpt><trkpt lat="37.67740792914925" lon="14.028607359042367"><ele>585.0</ele><time>2026-04-26T11:23:28Z</time></trkpt><trkpt lat="37.67741432696847" lon="14.028731369754727"><ele>585.0</ele><time>2026-04-26T11:23:30Z</time></trkpt><trkpt lat="37.67741806462376" lon="14.028817028665593"><ele>585.0</ele><time>2026-04-26T11:23:32Z</time></trkpt><trkpt lat="37.6773640765757" lon="14.028861770340567"><ele>585.0</ele><time>2026-04-26T11:26:21Z</time></trkpt><trkpt lat="37.677359553652266" lon="14.02896610842735"><ele>585.0</ele><time>2026-04-26T11:26:25Z</time></trkpt><trkpt lat="37.677276728841505" lon="14.028961133229283"><ele>585.0</ele><time>2026-04-26T11:26:27Z</time></trkpt><trkpt lat="37.677179022499864" lon="14.028974563677707"><ele>585.0</ele><time>2026-04-26T11:26:30Z</time></trkpt><trkpt lat="37.67711460516335" lon="14.029008306050114"><ele>585.0</ele><time>2026-04-26T11:26:33Z</time></trkpt><trkpt lat="37.6771982491784" lon="14.029000307122326"><ele>585.0</ele><time>2026-04-26T11:27:39Z</time></trkpt><trkpt lat="37.67724239672032" lon="14.028925519661906"><ele>585.0</ele><time>2026-04-26T11:27:47Z</time></trkpt><trkpt lat="37.67721982827644" lon="14.029049704571701"><ele>585.0</ele><time>2026-04-26T11:27:56Z</time></trkpt><trkpt lat="37.67724457981482" lon="14.02912607614066"><ele>585.0</ele><time>2026-04-26T11:28:38Z</time></trkpt><trkpt lat="37.67728079136215" lon="14.028945155891238"><ele>585.0</ele><time>2026-04-26T11:30:25Z</time></trkpt><trkpt lat="37.67724465005738" lon="14.02901294812202"><ele>585.0</ele><time>2026-04-26T11:30:29Z</time></trkpt><trkpt lat="37.67718141425428" lon="14.028961334812436"><ele>585.0</ele><time>2026-04-26T11:30:37Z</time></trkpt><trkpt lat="37.67724323144337" lon="14.029010462176064"><ele>585.0</ele><time>2026-04-26T11:32:26Z</time></trkpt><trkpt lat="37.677420179359665" lon="14.02887672946235"><ele>585.0</ele><time>2026-04-26T11:32:32Z</time></trkpt><trkpt lat="37.67743048343422" lon="14.02878927537935"><ele>585.0</ele><time>2026-04-26T11:32:33Z</time></trkpt><trkpt lat="37.677420569950314" lon="14.028696009745605"><ele>585.0</ele><time>2026-04-26T11:32:34Z</time></trkpt><trkpt lat="37.67741655128156" lon="14.028599834631084"><ele>585.0</ele><time>2026-04-26T11:32:35Z</time></trkpt><trkpt lat="37.67743607806829" lon="14.028516795671038"><ele>585.0</ele><time>2026-04-26T11:32:36Z</time></trkpt><trkpt lat="37.677435381178846" lon="14.02838738825756"><ele>585.0</ele><time>2026-04-26T11:32:38Z</time></trkpt><trkpt lat="37.67755146303428" lon="14.028261066324333"><ele>585.0</ele><time>2026-04-26T11:32:40Z</time></trkpt><trkpt lat="37.677616524670086" lon="14.028211559263971"><ele>585.0</ele><time>2026-04-26T11:32:41Z</time></trkpt><trkpt lat="37.67767692984825" lon="14.028148523496313"><ele>585.0</ele><time>2026-04-26T11:32:42Z</time></trkpt><trkpt lat="37.67773563957358" lon="14.028103752497529"><ele>585.0</ele><time>2026-04-26T11:32:43Z</time></trkpt><trkpt lat="37.67779113096091" lon="14.0280652421357"><ele>585.0</ele><time>2026-04-26T11:32:44Z</time></trkpt><trkpt lat="37.67784589428392" lon="14.028023931199558"><ele>585.0</ele><time>2026-04-26T11:32:45Z</time></trkpt><trkpt lat="37.67790455842444" lon="14.027988897481833"><ele>585.0</ele><time>2026-04-26T11:32:46Z</time></trkpt><trkpt lat="37.67796781745873" lon="14.027962808068402"><ele>586.0</ele><time>2026-04-26T11:32:47Z</time></trkpt><trkpt lat="37.67803714683439" lon="14.027953750803425"><ele>587.0</ele><time>2026-04-26T11:32:48Z</time></trkpt><trkpt lat="37.67810560823242" lon="14.027959023149327"><ele>588.0</ele><time>2026-04-26T11:32:49Z</time></trkpt><trkpt lat="37.67818724495293" lon="14.027993813454856"><ele>589.0</ele><time>2026-04-26T11:32:51Z</time></trkpt><trkpt lat="37.67825284632256" lon="14.028000388379024"><ele>590.0</ele><time>2026-04-26T11:32:55Z</time></trkpt><trkpt lat="37.67827189685655" lon="14.027908213294452"><ele>591.0</ele><time>2026-04-26T11:32:56Z</time></trkpt><trkpt lat="37.678304508096396" lon="14.027799763257518"><ele>591.0</ele><time>2026-04-26T11:33:11.001Z</time></trkpt><trkpt lat="37.67833470927115" lon="14.027721500110982"><ele>591.0</ele><time>2026-04-26T11:33:15Z</time></trkpt><trkpt lat="37.67832222148908" lon="14.02781225553673"><ele>591.0</ele><time>2026-04-26T11:33:45Z</time></trkpt><trkpt lat="37.67832825191439" lon="14.027731115403137"><ele>591.0</ele><time>2026-04-26T11:35:17Z</time></trkpt></trkseg><trkseg><trkpt lat="37.67829704802604" lon="14.027805187617622"><ele>591.0</ele><time>2026-04-26T13:55:30.992Z</time></trkpt><trkpt lat="37.678297644496894" lon="14.027693421113273"><ele>591.0</ele><time>2026-04-26T13:55:41Z</time></trkpt><trkpt lat="37.678390685944244" lon="14.027708588701655"><ele>591.0</ele><time>2026-04-26T13:56:06Z</time></trkpt><trkpt lat="37.678286901305654" lon="14.027684998227803"><ele>591.0</ele><time>2026-04-26T14:00:47Z</time></trkpt><trkpt lat="37.678255124526935" lon="14.02775822629718"><ele>591.0</ele><time>2026-04-26T14:00:58Z</time></trkpt><trkpt lat="37.678316131965865" lon="14.02772650342549"><ele>591.0</ele><time>2026-04-26T14:03:47.999Z</time></trkpt><trkpt lat="37.67830917744918" lon="14.027817155974493"><ele>591.0</ele><time>2026-04-26T14:03:51.999Z</time></trkpt><trkpt lat="37.678296502551305" lon="14.027905986055424"><ele>591.0</ele><time>2026-04-26T14:03:54.999Z</time></trkpt><trkpt lat="37.67825062143951" lon="14.027974900559132"><ele>591.0</ele><time>2026-04-26T14:03:59Z</time></trkpt><trkpt lat="37.67818377404263" lon="14.02794395601595"><ele>591.0</ele><time>2026-04-26T14:04:01Z</time></trkpt><trkpt lat="37.678095911041204" lon="14.027917418369308"><ele>591.0</ele><time>2026-04-26T14:04:03Z</time></trkpt><trkpt lat="37.67797611974294" lon="14.027932681864561"><ele>591.0</ele><time>2026-04-26T14:04:05Z</time></trkpt><trkpt lat="37.677872693666075" lon="14.0279996963653"><ele>591.0</ele><time>2026-04-26T14:04:07Z</time></trkpt><trkpt lat="37.67781299684763" lon="14.028043515916025"><ele>591.0</ele><time>2026-04-26T14:04:08Z</time></trkpt><trkpt lat="37.67775333236647" lon="14.02808759341496"><ele>591.0</ele><time>2026-04-26T14:04:09Z</time></trkpt><trkpt lat="37.67768381134919" lon="14.02810603380178"><ele>591.0</ele><time>2026-04-26T14:04:10Z</time></trkpt><trkpt lat="37.67758843699396" lon="14.028179536508885"><ele>591.0</ele><time>2026-04-26T14:04:12Z</time></trkpt><trkpt lat="37.67753020424106" lon="14.028221773321075"><ele>591.0</ele><time>2026-04-26T14:04:14Z</time></trkpt><trkpt lat="37.67745879502227" lon="14.028290082700199"><ele>590.0</ele><time>2026-04-26T14:04:17Z</time></trkpt><trkpt lat="37.67738866006302" lon="14.028313933104654"><ele>589.0</ele><time>2026-04-26T14:04:19Z</time></trkpt><trkpt lat="37.67731522209255" lon="14.028303235600422"><ele>588.0</ele><time>2026-04-26T14:04:21Z</time></trkpt><trkpt lat="37.677251529498" lon="14.028322407892503"><ele>587.0</ele><time>2026-04-26T14:04:23Z</time></trkpt><trkpt lat="37.6771838903234" lon="14.028329330824693"><ele>586.0</ele><time>2026-04-26T14:04:25Z</time></trkpt><trkpt lat="37.67709184882021" lon="14.028330403734055"><ele>585.0</ele><time>2026-04-26T14:04:29Z</time></trkpt><trkpt lat="37.67705343342699" lon="14.028475616621794"><ele>585.0</ele><time>2026-04-26T14:04:30Z</time></trkpt><trkpt lat="37.67706874338743" lon="14.028628140523727"><ele>585.0</ele><time>2026-04-26T14:04:32Z</time></trkpt><trkpt lat="37.677019449248455" lon="14.028691695678276"><ele>585.0</ele><time>2026-04-26T14:04:33Z</time></trkpt><trkpt lat="37.677030058596536" lon="14.0287751925817"><ele>585.0</ele><time>2026-04-26T14:04:34Z</time></trkpt><trkpt lat="37.67696911267354" lon="14.028916161949414"><ele>585.0</ele><time>2026-04-26T14:04:36Z</time></trkpt><trkpt lat="37.676934754718324" lon="14.028994636308903"><ele>585.6666666666666</ele><time>2026-04-26T14:04:37Z</time></trkpt><trkpt lat="37.676857574800756" lon="14.029045387899128"><ele>586.3333333333334</ele><time>2026-04-26T14:04:38Z</time></trkpt><trkpt lat="37.676810145727444" lon="14.029111238440317"><ele>587.0</ele><time>2026-04-26T14:04:39Z</time></trkpt><trkpt lat="37.67676061884449" lon="14.029178607318142"><ele>587.6666666666667</ele><time>2026-04-26T14:04:40Z</time></trkpt><trkpt lat="37.67670818010012" lon="14.029250052534307"><ele>588.3333333333334</ele><time>2026-04-26T14:04:41Z</time></trkpt><trkpt lat="37.67665865098621" lon="14.029319050733289"><ele>589.0</ele><time>2026-04-26T14:04:42Z</time></trkpt><trkpt lat="37.67663068730772" lon="14.029403519380404"><ele>589.0</ele><time>2026-04-26T14:04:43Z</time></trkpt><trkpt lat="37.67656759237015" lon="14.029529983632347"><ele>589.0</ele><time>2026-04-26T14:04:45Z</time></trkpt><trkpt lat="37.676515883865925" lon="14.029663953823038"><ele>589.0</ele><time>2026-04-26T14:04:47Z</time></trkpt><trkpt lat="37.67648966423188" lon="14.029825320269554"><ele>589.0</ele><time>2026-04-26T14:04:49Z</time></trkpt><trkpt lat="37.67648605225259" lon="14.02990622092625"><ele>589.0</ele><time>2026-04-26T14:04:50Z</time></trkpt><trkpt lat="37.676494482388" lon="14.029990897716308"><ele>587.8571428571429</ele><time>2026-04-26T14:04:51Z</time></trkpt><trkpt lat="37.6765024843017" lon="14.030072359128756"><ele>586.7142857142857</ele><time>2026-04-26T14:04:52Z</time></trkpt><trkpt lat="37.67651282643066" lon="14.030156780226687"><ele>585.5714285714286</ele><time>2026-04-26T14:04:53Z</time></trkpt><trkpt lat="37.67652353291291" lon="14.030236134344728"><ele>584.4285714285714</ele><time>2026-04-26T14:04:54Z</time></trkpt><trkpt lat="37.67654773565994" lon="14.030321719542224"><ele>583.2857142857142</ele><time>2026-04-26T14:04:55Z</time></trkpt><trkpt lat="37.67656620376283" lon="14.030418435795557"><ele>582.1428571428571</ele><time>2026-04-26T14:04:56Z</time></trkpt><trkpt lat="37.67658022098156" lon="14.030501879472812"><ele>581.0</ele><time>2026-04-26T14:04:57Z</time></trkpt><trkpt lat="37.67658483137932" lon="14.03058516349749"><ele>581.0</ele><time>2026-04-26T14:04:58Z</time></trkpt><trkpt lat="37.676582213824965" lon="14.030668795960729"><ele>581.0</ele><time>2026-04-26T14:04:59Z</time></trkpt><trkpt lat="37.676583602432686" lon="14.03081350334332"><ele>581.0</ele><time>2026-04-26T14:05:01Z</time></trkpt><trkpt lat="37.676535808210716" lon="14.030869552436503"><ele>581.0</ele><time>2026-04-26T14:05:02Z</time></trkpt><trkpt lat="37.67647129070128" lon="14.030901083171015"><ele>581.0</ele><time>2026-04-26T14:05:03Z</time></trkpt><trkpt lat="37.676401066274835" lon="14.03092006956115"><ele>581.0</ele><time>2026-04-26T14:05:04Z</time></trkpt><trkpt lat="37.67628601274016" lon="14.030936803087574"><ele>580.7142857142857</ele><time>2026-04-26T14:05:06Z</time></trkpt><trkpt lat="37.67622802366364" lon="14.030972384418897"><ele>580.4285714285714</ele><time>2026-04-26T14:05:07Z</time></trkpt><trkpt lat="37.676163817163804" lon="14.030997246922691"><ele>580.1428571428571</ele><time>2026-04-26T14:05:08Z</time></trkpt><trkpt lat="37.67609274741157" lon="14.031024225408864"><ele>579.8571428571429</ele><time>2026-04-26T14:05:09Z</time></trkpt><trkpt lat="37.6760226924531" lon="14.031053179015975"><ele>579.5714285714286</ele><time>2026-04-26T14:05:10Z</time></trkpt><trkpt lat="37.67595880789538" lon="14.031087114564812"><ele>579.2857142857142</ele><time>2026-04-26T14:05:11Z</time></trkpt><trkpt lat="37.675893195218364" lon="14.031123061099386"><ele>579.0</ele><time>2026-04-26T14:05:12Z</time></trkpt><trkpt lat="37.67582868772702" lon="14.031161344385112"><ele>578.6666666666666</ele><time>2026-04-26T14:05:13Z</time></trkpt><trkpt lat="37.67576512077249" lon="14.031204102598117"><ele>578.3333333333334</ele><time>2026-04-26T14:05:14Z</time></trkpt><trkpt lat="37.67569851536596" lon="14.031245022885273"><ele>578.0</ele><time>2026-04-26T14:05:15Z</time></trkpt><trkpt lat="37.67563276486066" lon="14.03128767937136"><ele>577.6666666666667</ele><time>2026-04-26T14:05:16Z</time></trkpt><trkpt lat="37.67556473014917" lon="14.031327806932934"><ele>577.3333333333334</ele><time>2026-04-26T14:05:17Z</time></trkpt><trkpt lat="37.67549497348715" lon="14.031371587634107"><ele>577.0</ele><time>2026-04-26T14:05:18Z</time></trkpt><trkpt lat="37.675424415768994" lon="14.031416442765543"><ele>577.0</ele><time>2026-04-26T14:05:19Z</time></trkpt><trkpt lat="37.675351016704475" lon="14.031456198537327"><ele>577.0</ele><time>2026-04-26T14:05:19.999Z</time></trkpt><trkpt lat="37.675285304912535" lon="14.031495791338504"><ele>577.0</ele><time>2026-04-26T14:05:20.999Z</time></trkpt><trkpt lat="37.675217485758374" lon="14.031532609192107"><ele>577.0</ele><time>2026-04-26T14:05:21.999Z</time></trkpt><trkpt lat="37.67515046008094" lon="14.03156210623777"><ele>577.0</ele><time>2026-04-26T14:05:22.999Z</time></trkpt><trkpt lat="37.6750864416894" lon="14.031588574332726"><ele>577.0</ele><time>2026-04-26T14:05:23.999Z</time></trkpt><trkpt lat="37.67502025522316" lon="14.03161373013767"><ele>577.0</ele><time>2026-04-26T14:05:24.999Z</time></trkpt><trkpt lat="37.67495465084891" lon="14.031636202449024"><ele>576.0</ele><time>2026-04-26T14:05:25.999Z</time></trkpt><trkpt lat="37.67489061970434" lon="14.031656717023727"><ele>575.0</ele><time>2026-04-26T14:05:26.999Z</time></trkpt><trkpt lat="37.67482569366578" lon="14.031675913583843"><ele>574.0</ele><time>2026-04-26T14:05:27.999Z</time></trkpt><trkpt lat="37.67475967928091" lon="14.031685699936546"><ele>573.0</ele><time>2026-04-26T14:05:28.999Z</time></trkpt><trkpt lat="37.67469164093532" lon="14.031691813368315"><ele>572.0</ele><time>2026-04-26T14:05:29.999Z</time></trkpt><trkpt lat="37.67462514985767" lon="14.031691518525273"><ele>571.0</ele><time>2026-04-26T14:05:30.999Z</time></trkpt><trkpt lat="37.67455669457047" lon="14.031672574427004"><ele>570.0</ele><time>2026-04-26T14:05:31.999Z</time></trkpt><trkpt lat="37.67449078770847" lon="14.031643737104272"><ele>569.2857142857142</ele><time>2026-04-26T14:05:32.999Z</time></trkpt><trkpt lat="37.67442052691598" lon="14.031624976295737"><ele>568.5714285714286</ele><time>2026-04-26T14:05:33.999Z</time></trkpt><trkpt lat="37.67435094076616" lon="14.03159820308607"><ele>567.8571428571429</ele><time>2026-04-26T14:05:34.999Z</time></trkpt><trkpt lat="37.67428288513464" lon="14.031560695873617"><ele>567.1428571428571</ele><time>2026-04-26T14:05:35.999Z</time></trkpt><trkpt lat="37.674221739547015" lon="14.031517071189171"><ele>566.4285714285714</ele><time>2026-04-26T14:05:36.999Z</time></trkpt><trkpt lat="37.67416583231414" lon="14.031469053250374"><ele>565.7142857142857</ele><time>2026-04-26T14:05:37.999Z</time></trkpt><trkpt lat="37.67411006698729" lon="14.031413263064126"><ele>565.0</ele><time>2026-04-26T14:05:38.999Z</time></trkpt><trkpt lat="37.674052227804765" lon="14.031347636267464"><ele>565.0</ele><time>2026-04-26T14:05:39.999Z</time></trkpt><trkpt lat="37.67399678997404" lon="14.031276716876866"><ele>565.0</ele><time>2026-04-26T14:05:40.999Z</time></trkpt><trkpt lat="37.67394428994551" lon="14.031203642156683"><ele>565.0</ele><time>2026-04-26T14:05:41.999Z</time></trkpt><trkpt lat="37.67389853173909" lon="14.031121900337926"><ele>565.0</ele><time>2026-04-26T14:05:42.999Z</time></trkpt><trkpt lat="37.67385586643939" lon="14.031031978602782"><ele>565.0</ele><time>2026-04-26T14:05:43.999Z</time></trkpt><trkpt lat="37.67381096338562" lon="14.030947129548714"><ele>565.0</ele><time>2026-04-26T14:05:44.999Z</time></trkpt><trkpt lat="37.67376074047738" lon="14.030880299742703"><ele>565.0</ele><time>2026-04-26T14:05:45.999Z</time></trkpt><trkpt lat="37.67370423738533" lon="14.030827822942632"><ele>565.0</ele><time>2026-04-26T14:05:46.999Z</time></trkpt><trkpt lat="37.67364539785767" lon="14.030793374605947"><ele>565.0</ele><time>2026-04-26T14:05:47.999Z</time></trkpt><trkpt lat="37.6735821882828" lon="14.030763298362727"><ele>565.0</ele><time>2026-04-26T14:05:48.999Z</time></trkpt><trkpt lat="37.673531357082275" lon="14.030707097465134"><ele>565.0</ele><time>2026-04-26T14:05:49.999Z</time></trkpt><trkpt lat="37.67347344415861" lon="14.030673680102414"><ele>565.0</ele><time>2026-04-26T14:05:50.999Z</time></trkpt><trkpt lat="37.6733627659237" lon="14.030618977663934"><ele>561.5</ele><time>2026-04-26T14:05:52.999Z</time></trkpt><trkpt lat="37.673283251872625" lon="14.030527909076358"><ele>558.0</ele><time>2026-04-26T14:05:54.999Z</time></trkpt><trkpt lat="37.673243738341775" lon="14.030458404719576"><ele>554.5</ele><time>2026-04-26T14:05:56.999Z</time></trkpt><trkpt lat="37.673191957240235" lon="14.030364966393213"><ele>551.0</ele><time>2026-04-26T14:05:59.999Z</time></trkpt><trkpt lat="37.673143993639485" lon="14.030308036841099"><ele>547.5</ele><time>2026-04-26T14:06:01.999Z</time></trkpt><trkpt lat="37.67311031267302" lon="14.030222578606793"><ele>544.0</ele><time>2026-04-26T14:06:04Z</time></trkpt><trkpt lat="37.673052643452394" lon="14.030114005596769"><ele>544.0</ele><time>2026-04-26T14:06:06Z</time></trkpt><trkpt lat="37.6729707679831" lon="14.03005465772036"><ele>544.0</ele><time>2026-04-26T14:06:08Z</time></trkpt><trkpt lat="37.672912012580596" lon="14.029955464727482"><ele>544.0</ele><time>2026-04-26T14:06:10Z</time></trkpt><trkpt lat="37.67285433787838" lon="14.02984648275538"><ele>544.0</ele><time>2026-04-26T14:06:12Z</time></trkpt><trkpt lat="37.672843742745115" lon="14.029732280557887"><ele>544.0</ele><time>2026-04-26T14:06:14Z</time></trkpt><trkpt lat="37.672769984529175" lon="14.029698423440111"><ele>542.5</ele><time>2026-04-26T14:07:27.999Z</time></trkpt><trkpt lat="37.672695613817716" lon="14.029715800437454"><ele>541.0</ele><time>2026-04-26T14:07:32.999Z</time></trkpt><trkpt lat="37.67263727061227" lon="14.029767165043438"><ele>539.5</ele><time>2026-04-26T14:07:35.999Z</time></trkpt><trkpt lat="37.67257979656844" lon="14.029802897909986"><ele>538.0</ele><time>2026-04-26T14:07:38.999Z</time></trkpt><trkpt lat="37.672507579116846" lon="14.029835986120451"><ele>536.5</ele><time>2026-04-26T14:07:40.999Z</time></trkpt><trkpt lat="37.67242561055182" lon="14.029856026548208"><ele>535.0</ele><time>2026-04-26T14:07:42.999Z</time></trkpt><trkpt lat="37.6723282507874" lon="14.029892357049397"><ele>535.0</ele><time>2026-04-26T14:07:44.999Z</time></trkpt><trkpt lat="37.67223348435153" lon="14.029908876300217"><ele>535.0</ele><time>2026-04-26T14:07:46.999Z</time></trkpt><trkpt lat="37.6721522027299" lon="14.029928875082348"><ele>535.0</ele><time>2026-04-26T14:07:48.999Z</time></trkpt><trkpt lat="37.67207406340569" lon="14.029956515244736"><ele>535.0</ele><time>2026-04-26T14:07:50.999Z</time></trkpt><trkpt lat="37.67199550766201" lon="14.029978028065916"><ele>535.0</ele><time>2026-04-26T14:07:52.999Z</time></trkpt><trkpt lat="37.67192734166843" lon="14.029987575501066"><ele>535.0</ele><time>2026-04-26T14:07:54.999Z</time></trkpt><trkpt lat="37.671858025357565" lon="14.030007739967996"><ele>537.0</ele><time>2026-04-26T14:07:56.999Z</time></trkpt><trkpt lat="37.671793869451406" lon="14.030013924849413"><ele>539.0</ele><time>2026-04-26T14:07:58.999Z</time></trkpt><trkpt lat="37.67171061753751" lon="14.030011594501591"><ele>541.0</ele><time>2026-04-26T14:08:00.999Z</time></trkpt><trkpt lat="37.67164526465777" lon="14.030004608264493"><ele>543.0</ele><time>2026-04-26T14:08:02.999Z</time></trkpt><trkpt lat="37.67156861811338" lon="14.030030161699909"><ele>545.0</ele><time>2026-04-26T14:08:04.999Z</time></trkpt><trkpt lat="37.67149286791682" lon="14.030012938732266"><ele>547.0</ele><time>2026-04-26T14:08:06.999Z</time></trkpt><trkpt lat="37.67141727031073" lon="14.029993443396744"><ele>549.0</ele><time>2026-04-26T14:08:09Z</time></trkpt><trkpt lat="37.67134192892919" lon="14.030004155036531"><ele>549.0</ele><time>2026-04-26T14:08:11Z</time></trkpt><trkpt lat="37.671270707967984" lon="14.029973160846971"><ele>549.0</ele><time>2026-04-26T14:08:13Z</time></trkpt><trkpt lat="37.67119199445763" lon="14.029943713175411"><ele>549.0</ele><time>2026-04-26T14:08:15Z</time></trkpt><trkpt lat="37.67113318637593" lon="14.029905190861975"><ele>549.0</ele><time>2026-04-26T14:08:17Z</time></trkpt><trkpt lat="37.671067174073336" lon="14.029868750335325"><ele>549.0</ele><time>2026-04-26T14:08:19Z</time></trkpt><trkpt lat="37.67100054246541" lon="14.029829102202749"><ele>549.0</ele><time>2026-04-26T14:08:21Z</time></trkpt><trkpt lat="37.67092675966027" lon="14.029787620896203"><ele>551.8571428571429</ele><time>2026-04-26T14:08:24Z</time></trkpt><trkpt lat="37.67086626683585" lon="14.029757123580167"><ele>554.7142857142858</ele><time>2026-04-26T14:08:26Z</time></trkpt><trkpt lat="37.670800671819556" lon="14.029717530740141"><ele>557.5714285714287</ele><time>2026-04-26T14:08:28Z</time></trkpt><trkpt lat="37.6707339902214" lon="14.029664696753992"><ele>560.4285714285714</ele><time>2026-04-26T14:08:30Z</time></trkpt><trkpt lat="37.670671893561945" lon="14.029616839929348"><ele>563.2857142857143</ele><time>2026-04-26T14:08:32Z</time></trkpt><trkpt lat="37.67061057551637" lon="14.029570703295583"><ele>566.1428571428572</ele><time>2026-04-26T14:08:34Z</time></trkpt><trkpt lat="37.670544259940364" lon="14.02953328095628"><ele>569.0</ele><time>2026-04-26T14:08:36Z</time></trkpt><trkpt lat="37.67048199010336" lon="14.029495769863454"><ele>569.0000000000001</ele><time>2026-04-26T14:08:38Z</time></trkpt><trkpt lat="37.67042406640816" lon="14.029463934693963"><ele>569.0</ele><time>2026-04-26T14:08:40Z</time></trkpt><trkpt lat="37.67035694832803" lon="14.029445670188588"><ele>569.0</ele><time>2026-04-26T14:08:42Z</time></trkpt><trkpt lat="37.670277748152856" lon="14.029429430047653"><ele>569.0</ele><time>2026-04-26T14:08:45Z</time></trkpt><trkpt lat="37.67021061543473" lon="14.02944688795741"><ele>569.0</ele><time>2026-04-26T14:08:47Z</time></trkpt><trkpt lat="37.67013497181723" lon="14.029467665568633"><ele>569.0000000000001</ele><time>2026-04-26T14:08:49Z</time></trkpt><trkpt lat="37.67006517785421" lon="14.029474537804266"><ele>569.0</ele><time>2026-04-26T14:08:51Z</time></trkpt><trkpt lat="37.66997645433757" lon="14.029481049952567"><ele>572.0</ele><time>2026-04-26T14:08:53Z</time></trkpt><trkpt lat="37.66988502670118" lon="14.029489402170421"><ele>575.0</ele><time>2026-04-26T14:08:55Z</time></trkpt><trkpt lat="37.6697993742423" lon="14.029479889285367"><ele>578.0</ele><time>2026-04-26T14:08:57Z</time></trkpt><trkpt lat="37.6697213487463" lon="14.029474754848497"><ele>581.0</ele><time>2026-04-26T14:08:59Z</time></trkpt><trkpt lat="37.669637815160506" lon="14.029458173190053"><ele>584.0</ele><time>2026-04-26T14:09:01Z</time></trkpt><trkpt lat="37.66955081261101" lon="14.029455686070976"><ele>587.0</ele><time>2026-04-26T14:09:03Z</time></trkpt><trkpt lat="37.669466731479" lon="14.029468680882589"><ele>590.4</ele><time>2026-04-26T14:09:05Z</time></trkpt><trkpt lat="37.66937496627027" lon="14.029473952475398"><ele>593.8000000000001</ele><time>2026-04-26T14:09:07Z</time></trkpt><trkpt lat="37.66926467151808" lon="14.02947595919835"><ele>597.2</ele><time>2026-04-26T14:09:09Z</time></trkpt><trkpt lat="37.669162304597165" lon="14.029480207560205"><ele>600.6</ele><time>2026-04-26T14:09:11Z</time></trkpt><trkpt lat="37.669079912051494" lon="14.029474998389281"><ele>604.0</ele><time>2026-04-26T14:09:13Z</time></trkpt><trkpt lat="37.668979557893685" lon="14.02948366428898"><ele>604.0</ele><time>2026-04-26T14:09:15Z</time></trkpt><trkpt lat="37.668894803895995" lon="14.029494923504144"><ele>604.0</ele><time>2026-04-26T14:09:17Z</time></trkpt><trkpt lat="37.668795280046034" lon="14.029505485517069"><ele>604.0</ele><time>2026-04-26T14:09:19Z</time></trkpt><trkpt lat="37.668713921943066" lon="14.02950087472993"><ele>604.0</ele><time>2026-04-26T14:09:21Z</time></trkpt><trkpt lat="37.66864054339654" lon="14.029486906647064"><ele>604.0</ele><time>2026-04-26T14:09:23.999Z</time></trkpt><trkpt lat="37.66852619406824" lon="14.029488138156296"><ele>607.2</ele><time>2026-04-26T14:09:24.999Z</time></trkpt><trkpt lat="37.668431146325204" lon="14.029447925916791"><ele>610.4</ele><time>2026-04-26T14:09:26.999Z</time></trkpt><trkpt lat="37.66836769762444" lon="14.029479993336466"><ele>613.6</ele><time>2026-04-26T14:09:28.999Z</time></trkpt><trkpt lat="37.66828412705372" lon="14.029516211933784"><ele>616.8</ele><time>2026-04-26T14:09:30.999Z</time></trkpt><trkpt lat="37.66818119668103" lon="14.02956409978414"><ele>620.0</ele><time>2026-04-26T14:09:32.999Z</time></trkpt><trkpt lat="37.66809487823529" lon="14.029613070583345"><ele>620.0</ele><time>2026-04-26T14:09:34.999Z</time></trkpt><trkpt lat="37.66798848161282" lon="14.02967322933787"><ele>620.0</ele><time>2026-04-26T14:09:36.999Z</time></trkpt><trkpt lat="37.667902302980515" lon="14.029728840586401"><ele>620.0</ele><time>2026-04-26T14:09:38.999Z</time></trkpt><trkpt lat="37.66781176842558" lon="14.029759927525213"><ele>620.0</ele><time>2026-04-26T14:09:40.999Z</time></trkpt><trkpt lat="37.667720083782896" lon="14.02977487393925"><ele>620.0</ele><time>2026-04-26T14:09:42.999Z</time></trkpt><trkpt lat="37.66761575249999" lon="14.029759079802659"><ele>623.5</ele><time>2026-04-26T14:09:44.999Z</time></trkpt><trkpt lat="37.66753694786382" lon="14.029767221247754"><ele>627.0</ele><time>2026-04-26T14:09:46.999Z</time></trkpt><trkpt lat="37.66745863570391" lon="14.029807953634242"><ele>630.5</ele><time>2026-04-26T14:09:48.999Z</time></trkpt><trkpt lat="37.667370347402105" lon="14.029839914551184"><ele>634.0</ele><time>2026-04-26T14:09:50.999Z</time></trkpt><trkpt lat="37.66727638089181" lon="14.029871907705957"><ele>637.5</ele><time>2026-04-26T14:09:52.999Z</time></trkpt><trkpt lat="37.66719665292062" lon="14.029913999346848"><ele>641.0</ele><time>2026-04-26T14:09:54.999Z</time></trkpt><trkpt lat="37.667122470064" lon="14.029931442384445"><ele>641.0</ele><time>2026-04-26T14:09:56.999Z</time></trkpt><trkpt lat="37.667048218320275" lon="14.029975047378576"><ele>641.0</ele><time>2026-04-26T14:09:58.999Z</time></trkpt><trkpt lat="37.66697979990604" lon="14.029997838150235"><ele>641.0</ele><time>2026-04-26T14:10:00.999Z</time></trkpt><trkpt lat="37.66692340744291" lon="14.030048068267675"><ele>641.0</ele><time>2026-04-26T14:10:02.999Z</time></trkpt><trkpt lat="37.666840459256186" lon="14.030096543790286"><ele>641.0</ele><time>2026-04-26T14:10:04.999Z</time></trkpt><trkpt lat="37.666757813042594" lon="14.030110656343243"><ele>641.0</ele><time>2026-04-26T14:10:06.999Z</time></trkpt><trkpt lat="37.666670837287164" lon="14.030104805191572"><ele>644.4</ele><time>2026-04-26T14:10:08.999Z</time></trkpt><trkpt lat="37.666559274425815" lon="14.030082197782798"><ele>647.8</ele><time>2026-04-26T14:10:10.999Z</time></trkpt><trkpt lat="37.66646165747145" lon="14.030014020482483"><ele>651.1999999999999</ele><time>2026-04-26T14:10:12.999Z</time></trkpt><trkpt lat="37.66636337262853" lon="14.029953701993476"><ele>654.5999999999999</ele><time>2026-04-26T14:10:15Z</time></trkpt><trkpt lat="37.66627037792797" lon="14.029891094846093"><ele>658.0</ele><time>2026-04-26T14:10:17Z</time></trkpt><trkpt lat="37.66618750068441" lon="14.02982094801796"><ele>660.3333333333334</ele><time>2026-04-26T14:10:19Z</time></trkpt><trkpt lat="37.66608435522458" lon="14.029752103382402"><ele>662.6666666666667</ele><time>2026-04-26T14:10:21Z</time></trkpt><trkpt lat="37.66601205441823" lon="14.029721498066337"><ele>665.0</ele><time>2026-04-26T14:10:23Z</time></trkpt><trkpt lat="37.665930753954555" lon="14.02976699935477"><ele>667.3333333333334</ele><time>2026-04-26T14:10:26Z</time></trkpt><trkpt lat="37.66592443147025" lon="14.029861589539681"><ele>669.6666666666666</ele><time>2026-04-26T14:10:28Z</time></trkpt><trkpt lat="37.665902991735344" lon="14.029958363036382"><ele>672.0</ele><time>2026-04-26T14:10:30Z</time></trkpt><trkpt lat="37.66580718795406" lon="14.029999555046519"><ele>674.6</ele><time>2026-04-26T14:10:32Z</time></trkpt><trkpt lat="37.66571361150932" lon="14.030023696852357"><ele>677.2</ele><time>2026-04-26T14:10:34Z</time></trkpt><trkpt lat="37.66562416888136" lon="14.030057656153017"><ele>679.8</ele><time>2026-04-26T14:10:36Z</time></trkpt><trkpt lat="37.66554315065805" lon="14.030114248897473"><ele>682.4</ele><time>2026-04-26T14:10:38Z</time></trkpt><trkpt lat="37.66547801381887" lon="14.030196818203532"><ele>685.0</ele><time>2026-04-26T14:10:40Z</time></trkpt><trkpt lat="37.66540118497747" lon="14.030283943491606"><ele>685.0</ele><time>2026-04-26T14:10:42Z</time></trkpt><trkpt lat="37.66532643964822" lon="14.030360917624117"><ele>685.0</ele><time>2026-04-26T14:10:44Z</time></trkpt><trkpt lat="37.66525386389919" lon="14.030437190573796"><ele>685.0</ele><time>2026-04-26T14:10:46Z</time></trkpt><trkpt lat="37.66516356721939" lon="14.030513780566832"><ele>685.0</ele><time>2026-04-26T14:10:48Z</time></trkpt><trkpt lat="37.665060897541785" lon="14.030567336834023"><ele>685.0</ele><time>2026-04-26T14:10:50Z</time></trkpt><trkpt lat="37.66499202625537" lon="14.030645244560407"><ele>687.0</ele><time>2026-04-26T14:10:52Z</time></trkpt><trkpt lat="37.66494650850849" lon="14.030746413178083"><ele>689.0</ele><time>2026-04-26T14:10:54Z</time></trkpt><trkpt lat="37.664886016529806" lon="14.03078766145115"><ele>691.0</ele><time>2026-04-26T14:12:14.999Z</time></trkpt><trkpt lat="37.66483556447851" lon="14.030730241289904"><ele>693.0</ele><time>2026-04-26T14:12:59Z</time></trkpt><trkpt lat="37.664760859348675" lon="14.030688541931717"><ele>695.0</ele><time>2026-04-26T14:13:02Z</time></trkpt><trkpt lat="37.664656491514236" lon="14.03063483232177"><ele>697.0</ele><time>2026-04-26T14:13:04Z</time></trkpt><trkpt lat="37.66455269249981" lon="14.030580923505424"><ele>697.0</ele><time>2026-04-26T14:13:06Z</time></trkpt><trkpt lat="37.66445193225911" lon="14.03051163337651"><ele>697.0</ele><time>2026-04-26T14:13:08Z</time></trkpt><trkpt lat="37.66439019968602" lon="14.030425866878426"><ele>697.0</ele><time>2026-04-26T14:13:10Z</time></trkpt><trkpt lat="37.66435526440977" lon="14.030358377982505"><ele>697.0</ele><time>2026-04-26T14:13:12Z</time></trkpt><trkpt lat="37.66430400626961" lon="14.030275707355656"><ele>697.0</ele><time>2026-04-26T14:13:15Z</time></trkpt><trkpt lat="37.66425455315428" lon="14.030163330237826"><ele>698.2</ele><time>2026-04-26T14:13:17Z</time></trkpt><trkpt lat="37.66421421922215" lon="14.030021600920387"><ele>699.4000000000001</ele><time>2026-04-26T14:13:19Z</time></trkpt><trkpt lat="37.66417118366934" lon="14.029881458754557"><ele>700.5999999999999</ele><time>2026-04-26T14:13:21Z</time></trkpt><trkpt lat="37.66414376782479" lon="14.02975969030963"><ele>701.8</ele><time>2026-04-26T14:13:23Z</time></trkpt><trkpt lat="37.664108516794165" lon="14.029629286054554"><ele>703.0</ele><time>2026-04-26T14:13:25Z</time></trkpt><trkpt lat="37.664065660516435" lon="14.029570345885208"><ele>703.0</ele><time>2026-04-26T14:13:26Z</time></trkpt><trkpt lat="37.66396337449638" lon="14.029472640651962"><ele>703.0</ele><time>2026-04-26T14:13:28Z</time></trkpt><trkpt lat="37.66386232021441" lon="14.029402144445463"><ele>703.0</ele><time>2026-04-26T14:13:29.999Z</time></trkpt><trkpt lat="37.66376048906453" lon="14.029360494133046"><ele>703.0</ele><time>2026-04-26T14:13:31.999Z</time></trkpt><trkpt lat="37.663669204370784" lon="14.029311594861422"><ele>703.0</ele><time>2026-04-26T14:13:33.999Z</time></trkpt><trkpt lat="37.663598267137566" lon="14.02927875610454"><ele>703.0</ele><time>2026-04-26T14:13:38.999Z</time></trkpt><trkpt lat="37.66353677221978" lon="14.029238544015735"><ele>703.0</ele><time>2026-04-26T14:13:41.999Z</time></trkpt><trkpt lat="37.663466065960314" lon="14.02919575610097"><ele>703.0</ele><time>2026-04-26T14:13:43.999Z</time></trkpt><trkpt lat="37.663398486509244" lon="14.029142705231571"><ele>703.0</ele><time>2026-04-26T14:13:46.999Z</time></trkpt><trkpt lat="37.663342009555095" lon="14.02909581152473"><ele>703.0</ele><time>2026-04-26T14:13:48.999Z</time></trkpt><trkpt lat="37.66326843002708" lon="14.029035265282932"><ele>702.0</ele><time>2026-04-26T14:13:50.999Z</time></trkpt><trkpt lat="37.66320935150057" lon="14.028989108987297"><ele>701.0</ele><time>2026-04-26T14:13:51.999Z</time></trkpt><trkpt lat="37.663140363732964" lon="14.028924304269632"><ele>700.0</ele><time>2026-04-26T14:13:53.999Z</time></trkpt><trkpt lat="37.663048411596606" lon="14.028840618761066"><ele>699.0</ele><time>2026-04-26T14:13:55.999Z</time></trkpt><trkpt lat="37.66297222078652" lon="14.028782633548131"><ele>698.0</ele><time>2026-04-26T14:13:57.999Z</time></trkpt><trkpt lat="37.662908917264794" lon="14.028740843010201"><ele>697.0</ele><time>2026-04-26T14:13:59.999Z</time></trkpt><trkpt lat="37.66283500377894" lon="14.028698847051322"><ele>698.2857142857143</ele><time>2026-04-26T14:14:01.999Z</time></trkpt><trkpt lat="37.66276760829602" lon="14.028672385911646"><ele>699.5714285714286</ele><time>2026-04-26T14:14:03.999Z</time></trkpt><trkpt lat="37.66269641384835" lon="14.028655279900256"><ele>700.8571428571429</ele><time>2026-04-26T14:14:05.999Z</time></trkpt><trkpt lat="37.662618616429214" lon="14.02862744903859"><ele>702.1428571428571</ele><time>2026-04-26T14:14:08.999Z</time></trkpt><trkpt lat="37.66255858298563" lon="14.028602098902462"><ele>703.4285714285714</ele><time>2026-04-26T14:14:10.999Z</time></trkpt><trkpt lat="37.662495862178304" lon="14.028551395821998"><ele>704.7142857142857</ele><time>2026-04-26T14:14:12.999Z</time></trkpt><trkpt lat="37.662446996932715" lon="14.028481428681197"><ele>706.0</ele><time>2026-04-26T14:14:14.999Z</time></trkpt><trkpt lat="37.662401907980325" lon="14.028412990138534"><ele>706.0</ele><time>2026-04-26T14:14:16.999Z</time></trkpt><trkpt lat="37.662351927359744" lon="14.028355150291791"><ele>706.0</ele><time>2026-04-26T14:14:18.999Z</time></trkpt><trkpt lat="37.662292998401405" lon="14.02830305961466"><ele>706.0</ele><time>2026-04-26T14:14:21.999Z</time></trkpt><trkpt lat="37.66222348652687" lon="14.028237330458962"><ele>706.0</ele><time>2026-04-26T14:14:23.999Z</time></trkpt><trkpt lat="37.6621685324154" lon="14.028195714639843"><ele>706.0</ele><time>2026-04-26T14:14:25.999Z</time></trkpt><trkpt lat="37.66209553377106" lon="14.02814603830469"><ele>706.0</ele><time>2026-04-26T14:14:35Z</time></trkpt><trkpt lat="37.66206874039972" lon="14.028072055504772"><ele>706.0</ele><time>2026-04-26T14:14:39Z</time></trkpt><trkpt lat="37.662061803531536" lon="14.02796470537915"><ele>703.8333333333334</ele><time>2026-04-26T14:15:06Z</time></trkpt><trkpt lat="37.662057009716506" lon="14.027872121237236"><ele>701.6666666666667</ele><time>2026-04-26T14:15:09Z</time></trkpt><trkpt lat="37.66204840188108" lon="14.027780769966332"><ele>699.5</ele><time>2026-04-26T14:15:12Z</time></trkpt><trkpt lat="37.662042367100916" lon="14.027684591371628"><ele>697.3333333333334</ele><time>2026-04-26T14:15:14Z</time></trkpt><trkpt lat="37.66203870125649" lon="14.027582521093004"><ele>695.1666666666666</ele><time>2026-04-26T14:15:16Z</time></trkpt><trkpt lat="37.6620334987179" lon="14.02747238841768"><ele>693.0</ele><time>2026-04-26T14:15:19Z</time></trkpt><trkpt lat="37.66201085392209" lon="14.027368458725304"><ele>692.3333333333334</ele><time>2026-04-26T14:15:22Z</time></trkpt><trkpt lat="37.661963524622685" lon="14.027295617169445"><ele>691.6666666666666</ele><time>2026-04-26T14:31:58Z</time></trkpt><trkpt lat="37.66191037714268" lon="14.027248674337704"><ele>691.0</ele><time>2026-04-26T14:32:03Z</time></trkpt><trkpt lat="37.66184909520632" lon="14.027193952219157"><ele>690.3333333333333</ele><time>2026-04-26T14:32:09Z</time></trkpt><trkpt lat="37.66179283210771" lon="14.027149620113834"><ele>689.6666666666666</ele><time>2026-04-26T14:32:23.999Z</time></trkpt><trkpt lat="37.66174508802963" lon="14.027095134602305"><ele>689.0</ele><time>2026-04-26T14:32:37.999Z</time></trkpt><trkpt lat="37.66165789413611" lon="14.027001149514689"><ele>694.0</ele><time>2026-04-26T14:33:32Z</time></trkpt><trkpt lat="37.661605126749734" lon="14.026955418469843"><ele>699.0</ele><time>2026-04-26T14:34:13Z</time></trkpt><trkpt lat="37.66154309797773" lon="14.026866332600514"><ele>704.0</ele><time>2026-04-26T14:36:24Z</time></trkpt><trkpt lat="37.6614705343302" lon="14.026788674391737"><ele>709.0</ele><time>2026-04-26T14:39:45Z</time></trkpt><trkpt lat="37.66142424870353" lon="14.0267243595243"><ele>714.0</ele><time>2026-04-26T14:42:23Z</time></trkpt><trkpt lat="37.66135736335142" lon="14.02665228349194"><ele>719.0</ele><time>2026-04-26T14:43:00.999Z</time></trkpt><trkpt lat="37.66131474962172" lon="14.02658196070138"><ele>720.2857142857142</ele><time>2026-04-26T14:43:45.999Z</time></trkpt><trkpt lat="37.66128153600063" lon="14.026505439339216"><ele>721.5714285714286</ele><time>2026-04-26T14:49:00Z</time></trkpt><trkpt lat="37.66122702159393" lon="14.026451824001978"><ele>722.8571428571429</ele><time>2026-04-26T14:49:01.999Z</time></trkpt><trkpt lat="37.66116739313035" lon="14.02640318901735"><ele>724.1428571428571</ele><time>2026-04-26T14:49:03.999Z</time></trkpt><trkpt lat="37.661094598157106" lon="14.026378223259815"><ele>725.4285714285714</ele><time>2026-04-26T14:49:05.999Z</time></trkpt><trkpt lat="37.66102002862988" lon="14.026362398012576"><ele>726.7142857142857</ele><time>2026-04-26T14:49:07.999Z</time></trkpt><trkpt lat="37.66093804817049" lon="14.026344783077594"><ele>728.0</ele><time>2026-04-26T14:49:10.999Z</time></trkpt><trkpt lat="37.66087829457823" lon="14.026288160236723"><ele>730.2857142857143</ele><time>2026-04-26T14:49:12.999Z</time></trkpt><trkpt lat="37.660815936144814" lon="14.026232689812526"><ele>732.5714285714286</ele><time>2026-04-26T14:49:14.999Z</time></trkpt><trkpt lat="37.66075775369839" lon="14.026180244667199"><ele>734.8571428571429</ele><time>2026-04-26T14:49:16.999Z</time></trkpt><trkpt lat="37.66069106658841" lon="14.026110858183095"><ele>737.1428571428571</ele><time>2026-04-26T14:49:19.999Z</time></trkpt><trkpt lat="37.660646714698906" lon="14.026048643385161"><ele>739.4285714285714</ele><time>2026-04-26T14:49:21.999Z</time></trkpt><trkpt lat="37.66060155524327" lon="14.025978430465155"><ele>741.7142857142858</ele><time>2026-04-26T14:49:23.999Z</time></trkpt><trkpt lat="37.66055016615787" lon="14.025914527209256"><ele>744.0</ele><time>2026-04-26T14:49:25.999Z</time></trkpt><trkpt lat="37.66049312746869" lon="14.025846263213081"><ele>744.6666666666666</ele><time>2026-04-26T14:49:28.999Z</time></trkpt><trkpt lat="37.6604463066621" lon="14.02579144794513"><ele>745.3333333333334</ele><time>2026-04-26T14:49:30.999Z</time></trkpt><trkpt lat="37.660386606788734" lon="14.02570679695663"><ele>746.0</ele><time>2026-04-26T14:49:33.999Z</time></trkpt><trkpt lat="37.660330299452426" lon="14.02562893130197"><ele>746.6666666666667</ele><time>2026-04-26T14:49:35.999Z</time></trkpt><trkpt lat="37.66027965772249" lon="14.025557776483526"><ele>747.3333333333334</ele><time>2026-04-26T14:49:37.999Z</time></trkpt><trkpt lat="37.660227138323116" lon="14.025499647414655"><ele>748.0</ele><time>2026-04-26T14:49:40.999Z</time></trkpt><trkpt lat="37.66015971801601" lon="14.025423454870564"><ele>749.5</ele><time>2026-04-26T14:49:43.999Z</time></trkpt><trkpt lat="37.660079705821836" lon="14.025329069463613"><ele>751.0</ele><time>2026-04-26T14:49:46.999Z</time></trkpt><trkpt lat="37.660028611756985" lon="14.025264845377157"><ele>752.5</ele><time>2026-04-26T14:49:48.999Z</time></trkpt><trkpt lat="37.6599564097199" lon="14.025192317377345"><ele>754.0</ele><time>2026-04-26T14:49:50.999Z</time></trkpt><trkpt lat="37.659872536958176" lon="14.025126883413842"><ele>755.5</ele><time>2026-04-26T14:49:52.999Z</time></trkpt><trkpt lat="37.65980811183555" lon="14.025074705110304"><ele>757.0</ele><time>2026-04-26T14:49:54.999Z</time></trkpt><trkpt lat="37.65975231899665" lon="14.025029426470832"><ele>757.8333333333334</ele><time>2026-04-26T14:49:56.999Z</time></trkpt><trkpt lat="37.65968597275596" lon="14.024965156259679"><ele>758.6666666666667</ele><time>2026-04-26T14:49:59.999Z</time></trkpt><trkpt lat="37.65962470978051" lon="14.024908057909135"><ele>759.5</ele><time>2026-04-26T14:50:02.999Z</time></trkpt><trkpt lat="37.65956951531724" lon="14.024869386408392"><ele>760.3333333333334</ele><time>2026-04-26T14:50:04.999Z</time></trkpt><trkpt lat="37.65949589465747" lon="14.02478610252223"><ele>761.1666666666666</ele><time>2026-04-26T14:50:06.999Z</time></trkpt><trkpt lat="37.65943859785353" lon="14.024724670431368"><ele>762.0</ele><time>2026-04-26T14:50:09Z</time></trkpt><trkpt lat="37.6593864036266" lon="14.024616774561506"><ele>764.0</ele><time>2026-04-26T14:50:11Z</time></trkpt><trkpt lat="37.659356424329474" lon="14.024526109498959"><ele>766.0</ele><time>2026-04-26T14:50:18Z</time></trkpt><trkpt lat="37.65931262806057" lon="14.024460630497522"><ele>768.0</ele><time>2026-04-26T14:50:20Z</time></trkpt><trkpt lat="37.6592399081167" lon="14.024396222750575"><ele>770.0</ele><time>2026-04-26T14:50:23Z</time></trkpt><trkpt lat="37.65917233231563" lon="14.024350205887616"><ele>772.0</ele><time>2026-04-26T14:50:25Z</time></trkpt><trkpt lat="37.65910275968781" lon="14.02429746857528"><ele>774.0</ele><time>2026-04-26T14:50:27Z</time></trkpt><trkpt lat="37.659048008225156" lon="14.02425554621857"><ele>774.0</ele><time>2026-04-26T14:50:28Z</time></trkpt><trkpt lat="37.65899801255421" lon="14.024193576695076"><ele>774.0</ele><time>2026-04-26T14:50:31Z</time></trkpt><trkpt lat="37.65881108822066" lon="14.024118760797423"><ele>774.0</ele><time>2026-04-26T14:50:34Z</time></trkpt><trkpt lat="37.65874229118221" lon="14.024064468066475"><ele>774.0</ele><time>2026-04-26T14:50:36Z</time></trkpt><trkpt lat="37.658667036019565" lon="14.024028502402276"><ele>774.0</ele><time>2026-04-26T14:50:38Z</time></trkpt><trkpt lat="37.65860134569795" lon="14.023996350282331"><ele>774.8571428571429</ele><time>2026-04-26T14:50:40Z</time></trkpt><trkpt lat="37.6585348582367" lon="14.02397259802799"><ele>775.7142857142858</ele><time>2026-04-26T14:50:42Z</time></trkpt><trkpt lat="37.658487313801466" lon="14.02388284515218"><ele>776.5714285714286</ele><time>2026-04-26T14:50:47Z</time></trkpt><trkpt lat="37.658512393797864" lon="14.023800790346174"><ele>777.4285714285714</ele><time>2026-04-26T14:50:49Z</time></trkpt><trkpt lat="37.65856782176264" lon="14.023756845116484"><ele>778.2857142857142</ele><time>2026-04-26T14:50:58Z</time></trkpt><trkpt lat="37.658596494811334" lon="14.023684565752955"><ele>779.1428571428571</ele><time>2026-04-26T14:55:53.999Z</time></trkpt><trkpt lat="37.65862605640726" lon="14.02359118046999"><ele>780.0</ele><time>2026-04-26T14:55:57.999Z</time></trkpt><trkpt lat="37.65857193305435" lon="14.02349588556814"><ele>782.5714285714286</ele><time>2026-04-26T14:56:00.999Z</time></trkpt><trkpt lat="37.658560164067985" lon="14.023413758126903"><ele>785.1428571428571</ele><time>2026-04-26T14:56:02.999Z</time></trkpt><trkpt lat="37.658566045570545" lon="14.0233114935561"><ele>787.7142857142858</ele><time>2026-04-26T14:56:05.999Z</time></trkpt><trkpt lat="37.65857541684001" lon="14.023226772041024"><ele>790.2857142857142</ele><time>2026-04-26T14:56:15.999Z</time></trkpt><trkpt lat="37.658586426219024" lon="14.023145273637988"><ele>792.8571428571429</ele><time>2026-04-26T14:56:17.999Z</time></trkpt><trkpt lat="37.658577768892584" lon="14.023030281766586"><ele>795.4285714285714</ele><time>2026-04-26T14:56:20.999Z</time></trkpt><trkpt lat="37.65858145967353" lon="14.022943757521494"><ele>798.0</ele><time>2026-04-26T14:56:23.999Z</time></trkpt><trkpt lat="37.65861390316705" lon="14.022866649878228"><ele>795.8333333333334</ele><time>2026-04-26T14:59:39.999Z</time></trkpt><trkpt lat="37.65863793875166" lon="14.022790219981847"><ele>793.6666666666667</ele><time>2026-04-26T14:59:46.999Z</time></trkpt><trkpt lat="37.658625912740575" lon="14.022682413499506"><ele>791.5</ele><time>2026-04-26T14:59:49.999Z</time></trkpt><trkpt lat="37.6586275868864" lon="14.022602450994976"><ele>789.3333333333334</ele><time>2026-04-26T14:59:52.999Z</time></trkpt><trkpt lat="37.65865127904535" lon="14.022497259078653"><ele>787.1666666666667</ele><time>2026-04-26T15:02:24.999Z</time></trkpt><trkpt lat="37.658673484529125" lon="14.022384596879087"><ele>785.0</ele><time>2026-04-26T15:02:27.999Z</time></trkpt><trkpt lat="37.65867953141575" lon="14.02228791856869"><ele>785.0000000000001</ele><time>2026-04-26T15:02:29.999Z</time></trkpt><trkpt lat="37.65868444312794" lon="14.022184934349934"><ele>785.0</ele><time>2026-04-26T15:02:31.999Z</time></trkpt><trkpt lat="37.658708653511404" lon="14.022080160802666"><ele>785.0</ele><time>2026-04-26T15:02:34.999Z</time></trkpt><trkpt lat="37.658760674471424" lon="14.021978601532487"><ele>785.0</ele><time>2026-04-26T15:02:37.999Z</time></trkpt><trkpt lat="37.65883024200717" lon="14.021924551599094"><ele>785.0000000000001</ele><time>2026-04-26T15:02:39.999Z</time></trkpt><trkpt lat="37.65888977096851" lon="14.021880090927338"><ele>785.0</ele><time>2026-04-26T15:02:41.999Z</time></trkpt><trkpt lat="37.6589729326112" lon="14.021829730047182"><ele>785.0000000000001</ele><time>2026-04-26T15:02:45Z</time></trkpt><trkpt lat="37.65905129596605" lon="14.021785227983584"><ele>785.0</ele><time>2026-04-26T15:02:47Z</time></trkpt><trkpt lat="37.65911885775442" lon="14.02173676542491"><ele>785.0</ele><time>2026-04-26T15:02:49Z</time></trkpt><trkpt lat="37.659173567065814" lon="14.021697061511208"><ele>785.0</ele><time>2026-04-26T15:02:51Z</time></trkpt><trkpt lat="37.659242445376826" lon="14.021652042545679"><ele>785.0000000000001</ele><time>2026-04-26T15:02:54Z</time></trkpt><trkpt lat="37.659311020189264" lon="14.021620485812377"><ele>785.0</ele><time>2026-04-26T15:02:56Z</time></trkpt><trkpt lat="37.659384196647196" lon="14.021593775608062"><ele>784.0000000000001</ele><time>2026-04-26T15:02:58Z</time></trkpt><trkpt lat="37.659487978288745" lon="14.021544293876971"><ele>783.0</ele><time>2026-04-26T15:03:01Z</time></trkpt><trkpt lat="37.65955581427337" lon="14.02150635700417"><ele>782.0</ele><time>2026-04-26T15:03:03Z</time></trkpt><trkpt lat="37.659639692541184" lon="14.02145936351586"><ele>781.0</ele><time>2026-04-26T15:03:05Z</time></trkpt><trkpt lat="37.65971124964691" lon="14.021426982065979"><ele>780.0000000000001</ele><time>2026-04-26T15:03:07Z</time></trkpt><trkpt lat="37.659777783526025" lon="14.021369578414943"><ele>779.0</ele><time>2026-04-26T15:03:10Z</time></trkpt><trkpt lat="37.65977421389834" lon="14.021288529116461"><ele>779.0000000000001</ele><time>2026-04-26T15:03:46.999Z</time></trkpt><trkpt lat="37.659724417488796" lon="14.021212456066841"><ele>779.0</ele><time>2026-04-26T15:03:48.999Z</time></trkpt><trkpt lat="37.65965369882858" lon="14.02111504026499"><ele>779.0</ele><time>2026-04-26T15:03:50.999Z</time></trkpt><trkpt lat="37.65959465137335" lon="14.021029397411644"><ele>779.0</ele><time>2026-04-26T15:03:52.999Z</time></trkpt><trkpt lat="37.659542692366564" lon="14.020925692050161"><ele>779.0000000000001</ele><time>2026-04-26T15:03:54.999Z</time></trkpt><trkpt lat="37.659529445064976" lon="14.02084386814884"><ele>779.0</ele><time>2026-04-26T15:03:57.999Z</time></trkpt><trkpt lat="37.65946892826457" lon="14.020808315363926"><ele>783.0</ele><time>2026-04-26T15:04:14.999Z</time></trkpt><trkpt lat="37.65939513052757" lon="14.020730420326078"><ele>787.0</ele><time>2026-04-26T15:04:16.999Z</time></trkpt><trkpt lat="37.65933029042142" lon="14.020652857008146"><ele>791.0</ele><time>2026-04-26T15:04:18.999Z</time></trkpt><trkpt lat="37.65925366501299" lon="14.020574873546698"><ele>795.0</ele><time>2026-04-26T15:04:20.999Z</time></trkpt><trkpt lat="37.659167973603225" lon="14.02047617394837"><ele>799.0</ele><time>2026-04-26T15:04:22.999Z</time></trkpt><trkpt lat="37.65909854251182" lon="14.020346615633507"><ele>799.0</ele><time>2026-04-26T15:04:24.999Z</time></trkpt><trkpt lat="37.659041928402715" lon="14.020305929142477"><ele>799.0</ele><time>2026-04-26T15:04:25.999Z</time></trkpt><trkpt lat="37.65899293621476" lon="14.020242577360346"><ele>799.0</ele><time>2026-04-26T15:04:26.999Z</time></trkpt><trkpt lat="37.65894339349178" lon="14.020182841775151"><ele>799.0</ele><time>2026-04-26T15:04:27.999Z</time></trkpt><trkpt lat="37.65889483862845" lon="14.020125223083326"><ele>799.0</ele><time>2026-04-26T15:04:28.999Z</time></trkpt><trkpt lat="37.65884809790557" lon="14.020064580260478"><ele>799.0</ele><time>2026-04-26T15:04:29.999Z</time></trkpt><trkpt lat="37.65879584195617" lon="14.020000952407212"><ele>799.0</ele><time>2026-04-26T15:04:30.999Z</time></trkpt><trkpt lat="37.658741782942215" lon="14.019936478920496"><ele>801.4000000000001</ele><time>2026-04-26T15:04:31.999Z</time></trkpt><trkpt lat="37.65868461408603" lon="14.019865421757482"><ele>803.8</ele><time>2026-04-26T15:04:32.999Z</time></trkpt><trkpt lat="37.658623716232626" lon="14.019788881803727"><ele>806.2</ele><time>2026-04-26T15:04:33.999Z</time></trkpt><trkpt lat="37.65855577865093" lon="14.019705230504217"><ele>808.5999999999999</ele><time>2026-04-26T15:04:34.999Z</time></trkpt><trkpt lat="37.65849889790678" lon="14.019602860355723"><ele>811.0</ele><time>2026-04-26T15:04:35.999Z</time></trkpt><trkpt lat="37.65841784791635" lon="14.019522690363441"><ele>812.1999999999999</ele><time>2026-04-26T15:04:36.999Z</time></trkpt><trkpt lat="37.658344668341776" lon="14.019424528277385"><ele>813.4</ele><time>2026-04-26T15:04:37.999Z</time></trkpt><trkpt lat="37.65827464527195" lon="14.019332556100471"><ele>814.6</ele><time>2026-04-26T15:04:38.999Z</time></trkpt><trkpt lat="37.65820725164863" lon="14.019243955523951"><ele>815.8</ele><time>2026-04-26T15:04:39.999Z</time></trkpt><trkpt lat="37.65814078585569" lon="14.019155372233177"><ele>817.0</ele><time>2026-04-26T15:04:40.999Z</time></trkpt><trkpt lat="37.658073727047416" lon="14.01906942510264"><ele>820.2</ele><time>2026-04-26T15:04:41.999Z</time></trkpt><trkpt lat="37.65800771822972" lon="14.018983333932718"><ele>823.4000000000001</ele><time>2026-04-26T15:04:42.999Z</time></trkpt><trkpt lat="37.65793968829938" lon="14.018896510439658"><ele>826.5999999999999</ele><time>2026-04-26T15:04:43.999Z</time></trkpt><trkpt lat="37.657873604585845" lon="14.018813353442793"><ele>829.8</ele><time>2026-04-26T15:04:44.999Z</time></trkpt><trkpt lat="37.657805691108855" lon="14.01873325639537"><ele>833.0</ele><time>2026-04-26T15:04:45.999Z</time></trkpt><trkpt lat="37.657741683124996" lon="14.018654939259877"><ele>833.8333333333334</ele><time>2026-04-26T15:04:46.999Z</time></trkpt><trkpt lat="37.65767331687216" lon="14.018568232695843"><ele>834.6666666666667</ele><time>2026-04-26T15:04:47.999Z</time></trkpt><trkpt lat="37.65762672231384" lon="14.018480624500755"><ele>835.5</ele><time>2026-04-26T15:04:48.999Z</time></trkpt><trkpt lat="37.657577155233575" lon="14.018415313176714"><ele>836.3333333333333</ele><time>2026-04-26T15:04:49.999Z</time></trkpt><trkpt lat="37.65750708152409" lon="14.01831353715784"><ele>837.1666666666666</ele><time>2026-04-26T15:04:52Z</time></trkpt><trkpt lat="37.65743268006965" lon="14.018254808854508"><ele>838.0</ele><time>2026-04-26T15:05:18Z</time></trkpt><trkpt lat="37.65735255610768" lon="14.018239499220613"><ele>839.5999999999999</ele><time>2026-04-26T15:05:20Z</time></trkpt><trkpt lat="37.6572423695822" lon="14.018251438691177"><ele>841.1999999999999</ele><time>2026-04-26T15:05:22Z</time></trkpt><trkpt lat="37.65711477178193" lon="14.018240382248587"><ele>842.8</ele><time>2026-04-26T15:05:24Z</time></trkpt><trkpt lat="37.65704805597004" lon="14.01824710989418"><ele>844.4</ele><time>2026-04-26T15:05:25Z</time></trkpt><trkpt lat="37.65697800102007" lon="14.018254174259704"><ele>846.0</ele><time>2026-04-26T15:05:26Z</time></trkpt><trkpt lat="37.65690265114525" lon="14.018263388568391"><ele>844.8333333333334</ele><time>2026-04-26T15:05:27Z</time></trkpt><trkpt lat="37.65682496107676" lon="14.018274673833748"><ele>843.6666666666667</ele><time>2026-04-26T15:05:28Z</time></trkpt><trkpt lat="37.65674706283672" lon="14.018289465554464"><ele>842.5</ele><time>2026-04-26T15:05:29Z</time></trkpt><trkpt lat="37.65666859846902" lon="14.018309614463883"><ele>841.3333333333334</ele><time>2026-04-26T15:05:30Z</time></trkpt><trkpt lat="37.656592471341426" lon="14.018335582295453"><ele>840.1666666666667</ele><time>2026-04-26T15:05:31Z</time></trkpt><trkpt lat="37.656524285125606" lon="14.018366471771488"><ele>839.0</ele><time>2026-04-26T15:05:32Z</time></trkpt><trkpt lat="37.65646241216779" lon="14.018407565469339"><ele>839.0000000000001</ele><time>2026-04-26T15:05:33Z</time></trkpt><trkpt lat="37.65636523775423" lon="14.018486873894293"><ele>839.0</ele><time>2026-04-26T15:05:35Z</time></trkpt><trkpt lat="37.656307305962926" lon="14.018548720577586"><ele>839.0</ele><time>2026-04-26T15:05:36Z</time></trkpt><trkpt lat="37.656260368991155" lon="14.018620701114683"><ele>839.0</ele><time>2026-04-26T15:05:37Z</time></trkpt><trkpt lat="37.65621182469171" lon="14.01870587647813"><ele>839.0000000000001</ele><time>2026-04-26T15:05:38Z</time></trkpt><trkpt lat="37.6561663584687" lon="14.018789024711811"><ele>839.0</ele><time>2026-04-26T15:05:39Z</time></trkpt><trkpt lat="37.656132912266415" lon="14.018884727282787"><ele>838.5000000000001</ele><time>2026-04-26T15:05:40Z</time></trkpt><trkpt lat="37.6560696342407" lon="14.018943162077596"><ele>838.0</ele><time>2026-04-26T15:05:41Z</time></trkpt><trkpt lat="37.65601665672095" lon="14.018999316073579"><ele>837.5</ele><time>2026-04-26T15:05:42Z</time></trkpt><trkpt lat="37.65595036267649" lon="14.019051894289753"><ele>837.0</ele><time>2026-04-26T15:05:42.999Z</time></trkpt><trkpt lat="37.65587826954006" lon="14.019117547318167"><ele>836.5000000000001</ele><time>2026-04-26T15:05:43.999Z</time></trkpt><trkpt lat="37.655787786123064" lon="14.019155994430543"><ele>836.0</ele><time>2026-04-26T15:05:44.999Z</time></trkpt><trkpt lat="37.655695461664514" lon="14.01919827376474"><ele>838.8</ele><time>2026-04-26T15:05:45.999Z</time></trkpt><trkpt lat="37.65560726642069" lon="14.01924720438114"><ele>841.5999999999999</ele><time>2026-04-26T15:05:46.999Z</time></trkpt><trkpt lat="37.65552345358866" lon="14.019283637550165"><ele>844.4</ele><time>2026-04-26T15:05:47.999Z</time></trkpt><trkpt lat="37.65542883539141" lon="14.019291992266455"><ele>847.2</ele><time>2026-04-26T15:05:48.999Z</time></trkpt><trkpt lat="37.65532524691895" lon="14.01926784665453"><ele>850.0</ele><time>2026-04-26T15:05:49.999Z</time></trkpt><trkpt lat="37.65521999884021" lon="14.019226328840826"><ele>850.4</ele><time>2026-04-26T15:05:50.999Z</time></trkpt><trkpt lat="37.65511812693908" lon="14.01918089228831"><ele>850.8</ele><time>2026-04-26T15:05:51.999Z</time></trkpt><trkpt lat="37.65501404516793" lon="14.019141346484435"><ele>851.2</ele><time>2026-04-26T15:05:52.999Z</time></trkpt><trkpt lat="37.654907517314975" lon="14.019105507852078"><ele>851.6</ele><time>2026-04-26T15:05:53.999Z</time></trkpt><trkpt lat="37.65480570006409" lon="14.019072036451462"><ele>852.0</ele><time>2026-04-26T15:05:54.999Z</time></trkpt><trkpt lat="37.654702445652525" lon="14.019036640792764"><ele>851.0</ele><time>2026-04-26T15:05:55.999Z</time></trkpt><trkpt lat="37.6545965261664" lon="14.018997986675817"><ele>850.0</ele><time>2026-04-26T15:05:56.999Z</time></trkpt><trkpt lat="37.65450395403238" lon="14.01896346426165"><ele>849.0</ele><time>2026-04-26T15:05:57.999Z</time></trkpt><trkpt lat="37.6544193673622" lon="14.018932422720694"><ele>848.0</ele><time>2026-04-26T15:05:58.999Z</time></trkpt><trkpt lat="37.65433842822603" lon="14.018912942989695"><ele>847.0</ele><time>2026-04-26T15:05:59.999Z</time></trkpt><trkpt lat="37.65425694712702" lon="14.01889715881369"><ele>846.9999999999999</ele><time>2026-04-26T15:06:00.999Z</time></trkpt><trkpt lat="37.654185148127475" lon="14.018954120360265"><ele>847.0</ele><time>2026-04-26T15:06:01.999Z</time></trkpt><trkpt lat="37.65413574200778" lon="14.019016488008885"><ele>847.0</ele><time>2026-04-26T15:06:02.999Z</time></trkpt><trkpt lat="37.6540840925447" lon="14.019080987007777"><ele>847.0</ele><time>2026-04-26T15:06:03.999Z</time></trkpt><trkpt lat="37.65406817689175" lon="14.019179982707316"><ele>846.9999999999999</ele><time>2026-04-26T15:06:04.999Z</time></trkpt><trkpt lat="37.65408806088837" lon="14.019277118701176"><ele>847.0</ele><time>2026-04-26T15:06:05.999Z</time></trkpt><trkpt lat="37.654110732365616" lon="14.019367502777365"><ele>848.4999999999999</ele><time>2026-04-26T15:06:06.999Z</time></trkpt><trkpt lat="37.65415310192271" lon="14.019449853245854"><ele>850.0</ele><time>2026-04-26T15:06:07.999Z</time></trkpt><trkpt lat="37.65420873360985" lon="14.019529966551156"><ele>851.5</ele><time>2026-04-26T15:06:08.999Z</time></trkpt><trkpt lat="37.654253075697824" lon="14.019625273383333"><ele>853.0</ele><time>2026-04-26T15:06:09.999Z</time></trkpt><trkpt lat="37.65430571107816" lon="14.01971875529492"><ele>854.4999999999999</ele><time>2026-04-26T15:06:10.999Z</time></trkpt><trkpt lat="37.654354220532085" lon="14.019813674492571"><ele>856.0</ele><time>2026-04-26T15:06:11.999Z</time></trkpt><trkpt lat="37.65439336346782" lon="14.019911187833355"><ele>856.4</ele><time>2026-04-26T15:06:12.999Z</time></trkpt><trkpt lat="37.65442836217451" lon="14.020027659751639"><ele>856.8</ele><time>2026-04-26T15:06:13.999Z</time></trkpt><trkpt lat="37.654464816032345" lon="14.020146551347397"><ele>857.1999999999999</ele><time>2026-04-26T15:06:14.999Z</time></trkpt><trkpt lat="37.654497216119736" lon="14.020252221939812"><ele>857.5999999999999</ele><time>2026-04-26T15:06:15.999Z</time></trkpt><trkpt lat="37.65452587149261" lon="14.02034896274127"><ele>858.0</ele><time>2026-04-26T15:06:16.999Z</time></trkpt><trkpt lat="37.654555543010396" lon="14.02044923210921"><ele>858.0</ele><time>2026-04-26T15:06:17.999Z</time></trkpt><trkpt lat="37.65458433933259" lon="14.020548658951203"><ele>858.0</ele><time>2026-04-26T15:06:18.999Z</time></trkpt><trkpt lat="37.65461301184495" lon="14.020651061039317"><ele>858.0</ele><time>2026-04-26T15:06:19.999Z</time></trkpt><trkpt lat="37.65464025769809" lon="14.020750632055442"><ele>858.0</ele><time>2026-04-26T15:06:20.999Z</time></trkpt><trkpt lat="37.654660572518026" lon="14.020844567591112"><ele>858.0</ele><time>2026-04-26T15:06:21.999Z</time></trkpt><trkpt lat="37.65467251626061" lon="14.020937301679211"><ele>858.0</ele><time>2026-04-26T15:06:22.999Z</time></trkpt><trkpt lat="37.654672510733995" lon="14.021034712601237"><ele>858.7142857142858</ele><time>2026-04-26T15:06:23.999Z</time></trkpt><trkpt lat="37.65464898481461" lon="14.021122355972508"><ele>859.4285714285714</ele><time>2026-04-26T15:06:24.999Z</time></trkpt><trkpt lat="37.65461957966119" lon="14.021204282265009"><ele>860.1428571428571</ele><time>2026-04-26T15:06:25.999Z</time></trkpt><trkpt lat="37.65458592680901" lon="14.02128118751223"><ele>860.8571428571429</ele><time>2026-04-26T15:06:26.999Z</time></trkpt><trkpt lat="37.65454737372628" lon="14.021356781307505"><ele>861.5714285714286</ele><time>2026-04-26T15:06:27.999Z</time></trkpt><trkpt lat="37.65451023878148" lon="14.021442794511255"><ele>862.2857142857143</ele><time>2026-04-26T15:06:28.999Z</time></trkpt><trkpt lat="37.65449166361428" lon="14.02154615156973"><ele>863.0</ele><time>2026-04-26T15:06:29.999Z</time></trkpt><trkpt lat="37.6545033779292" lon="14.02164850194004"><ele>864.1666666666667</ele><time>2026-04-26T15:06:30.999Z</time></trkpt><trkpt lat="37.65453997454007" lon="14.021735924057257"><ele>865.3333333333334</ele><time>2026-04-26T15:06:31.999Z</time></trkpt><trkpt lat="37.65461279591745" lon="14.021805645191364"><ele>866.5</ele><time>2026-04-26T15:06:32.999Z</time></trkpt><trkpt lat="37.654687727179386" lon="14.02184339600113"><ele>867.6666666666667</ele><time>2026-04-26T15:06:33.999Z</time></trkpt><trkpt lat="37.65477582499963" lon="14.021845883738736"><ele>868.8333333333334</ele><time>2026-04-26T15:06:34.999Z</time></trkpt><trkpt lat="37.654858665302235" lon="14.021863459972096"><ele>870.0</ele><time>2026-04-26T15:06:35.999Z</time></trkpt><trkpt lat="37.65494587455229" lon="14.021876353029324"><ele>870.0</ele><time>2026-04-26T15:06:36.999Z</time></trkpt><trkpt lat="37.6550385822916" lon="14.021880132722679"><ele>870.0</ele><time>2026-04-26T15:06:37.999Z</time></trkpt><trkpt lat="37.65513203028159" lon="14.021881355029429"><ele>870.0</ele><time>2026-04-26T15:06:38.999Z</time></trkpt><trkpt lat="37.655227909629815" lon="14.021882709056774"><ele>870.0</ele><time>2026-04-26T15:06:39.999Z</time></trkpt><trkpt lat="37.65532095332924" lon="14.021889590273684"><ele>870.0</ele><time>2026-04-26T15:06:40.999Z</time></trkpt><trkpt lat="37.65540555208376" lon="14.021904776814113"><ele>870.8333333333334</ele><time>2026-04-26T15:06:41.999Z</time></trkpt><trkpt lat="37.65548486894813" lon="14.021951218112404"><ele>871.6666666666667</ele><time>2026-04-26T15:06:42.999Z</time></trkpt><trkpt lat="37.655557742365666" lon="14.021995826799092"><ele>872.5</ele><time>2026-04-26T15:06:43.999Z</time></trkpt><trkpt lat="37.65562986325486" lon="14.022050851343588"><ele>873.3333333333334</ele><time>2026-04-26T15:06:44.999Z</time></trkpt><trkpt lat="37.65569341579933" lon="14.02210716510676"><ele>874.1666666666667</ele><time>2026-04-26T15:06:45.999Z</time></trkpt><trkpt lat="37.65574691941353" lon="14.02217856337675"><ele>875.0</ele><time>2026-04-26T15:06:46.999Z</time></trkpt><trkpt lat="37.655796291591486" lon="14.022256374426465"><ele>875.0</ele><time>2026-04-26T15:06:47.999Z</time></trkpt><trkpt lat="37.6558224061768" lon="14.02233459326715"><ele>875.0</ele><time>2026-04-26T15:06:48.999Z</time></trkpt><trkpt lat="37.655839172779864" lon="14.022419905898682"><ele>875.0</ele><time>2026-04-26T15:06:49.999Z</time></trkpt><trkpt lat="37.65584737152231" lon="14.022518486973988"><ele>875.0</ele><time>2026-04-26T15:06:50.999Z</time></trkpt><trkpt lat="37.655831966075596" lon="14.022613968657048"><ele>875.0</ele><time>2026-04-26T15:06:51.999Z</time></trkpt><trkpt lat="37.65580404139216" lon="14.022696740542226"><ele>875.0</ele><time>2026-04-26T15:06:52.999Z</time></trkpt><trkpt lat="37.65576752828825" lon="14.022770561358225"><ele>875.0</ele><time>2026-04-26T15:06:53.999Z</time></trkpt><trkpt lat="37.65571625879942" lon="14.02283939142515"><ele>875.5000000000001</ele><time>2026-04-26T15:06:54.999Z</time></trkpt><trkpt lat="37.65565557846155" lon="14.022913973034425"><ele>876.0</ele><time>2026-04-26T15:06:55.999Z</time></trkpt><trkpt lat="37.655593072134295" lon="14.0229936693682"><ele>876.5</ele><time>2026-04-26T15:06:57Z</time></trkpt><trkpt lat="37.65553454284861" lon="14.023068295328839"><ele>877.0</ele><time>2026-04-26T15:06:58Z</time></trkpt><trkpt lat="37.655474379970485" lon="14.023145004330846"><ele>877.5000000000001</ele><time>2026-04-26T15:06:59Z</time></trkpt><trkpt lat="37.65541119449062" lon="14.023225566563084"><ele>878.0</ele><time>2026-04-26T15:07:00Z</time></trkpt><trkpt lat="37.655348753205004" lon="14.023305180240182"><ele>877.8</ele><time>2026-04-26T15:07:01Z</time></trkpt><trkpt lat="37.65528324152606" lon="14.02338918869392"><ele>877.5999999999999</ele><time>2026-04-26T15:07:02Z</time></trkpt><trkpt lat="37.655220309511314" lon="14.023473037046479"><ele>877.4000000000001</ele><time>2026-04-26T15:07:03Z</time></trkpt><trkpt lat="37.65515922139384" lon="14.023554429086404"><ele>877.2</ele><time>2026-04-26T15:07:04Z</time></trkpt><trkpt lat="37.6550973248661" lon="14.023636898155306"><ele>877.0</ele><time>2026-04-26T15:07:05Z</time></trkpt><trkpt lat="37.6550381227489" lon="14.023715776971732"><ele>876.9999999999999</ele><time>2026-04-26T15:07:06Z</time></trkpt><trkpt lat="37.65497773627754" lon="14.023796190568564"><ele>877.0</ele><time>2026-04-26T15:07:07Z</time></trkpt><trkpt lat="37.65491708179375" lon="14.023876014401925"><ele>877.0</ele><time>2026-04-26T15:07:08Z</time></trkpt><trkpt lat="37.65486044455519" lon="14.02395055120504"><ele>877.0</ele><time>2026-04-26T15:07:09Z</time></trkpt><trkpt lat="37.6548015065748" lon="14.024028116239625"><ele>876.9999999999999</ele><time>2026-04-26T15:07:10Z</time></trkpt><trkpt lat="37.65474379350639" lon="14.024104069082354"><ele>877.0</ele><time>2026-04-26T15:07:11Z</time></trkpt><trkpt lat="37.654687643255" lon="14.024177965037973"><ele>876.8333333333333</ele><time>2026-04-26T15:07:12Z</time></trkpt><trkpt lat="37.65463269373056" lon="14.024250280731582"><ele>876.6666666666666</ele><time>2026-04-26T15:07:13Z</time></trkpt><trkpt lat="37.654578555820734" lon="14.024320506438048"><ele>876.5</ele><time>2026-04-26T15:07:14Z</time></trkpt><trkpt lat="37.654524299639036" lon="14.02439591485817"><ele>876.3333333333333</ele><time>2026-04-26T15:07:15Z</time></trkpt><trkpt lat="37.654482941344156" lon="14.024462017196853"><ele>876.1666666666666</ele><time>2026-04-26T15:07:16Z</time></trkpt><trkpt lat="37.65445595642721" lon="14.024536105067602"><ele>876.0</ele><time>2026-04-26T15:07:17Z</time></trkpt><trkpt lat="37.65442896882704" lon="14.024680975966238"><ele>876.0</ele><time>2026-04-26T15:07:19Z</time></trkpt><trkpt lat="37.654435453467116" lon="14.024767631613894"><ele>876.0</ele><time>2026-04-26T15:07:20Z</time></trkpt><trkpt lat="37.65444787238177" lon="14.024858876833429"><ele>876.0</ele><time>2026-04-26T15:07:21Z</time></trkpt><trkpt lat="37.65446005769356" lon="14.024951212554619"><ele>876.0</ele><time>2026-04-26T15:07:22Z</time></trkpt><trkpt lat="37.65447154678306" lon="14.025038272051466"><ele>876.0</ele><time>2026-04-26T15:07:23Z</time></trkpt><trkpt lat="37.65448472885067" lon="14.025132428484902"><ele>876.0</ele><time>2026-04-26T15:07:24Z</time></trkpt><trkpt lat="37.65450057220841" lon="14.025232415992082"><ele>876.0</ele><time>2026-04-26T15:07:25Z</time></trkpt><trkpt lat="37.65451710291201" lon="14.025336741061285"><ele>873.1666666666666</ele><time>2026-04-26T15:07:26Z</time></trkpt><trkpt lat="37.654532580537435" lon="14.025434420643084"><ele>870.3333333333333</ele><time>2026-04-26T15:07:27Z</time></trkpt><trkpt lat="37.65454798793386" lon="14.025532870083468"><ele>867.5</ele><time>2026-04-26T15:07:28Z</time></trkpt><trkpt lat="37.654562732767914" lon="14.025629471943073"><ele>864.6666666666666</ele><time>2026-04-26T15:07:29Z</time></trkpt><trkpt lat="37.654575026740744" lon="14.02572459057597"><ele>861.8333333333333</ele><time>2026-04-26T15:07:30Z</time></trkpt><trkpt lat="37.654583549247235" lon="14.025813617723916"><ele>859.0</ele><time>2026-04-26T15:07:31Z</time></trkpt><trkpt lat="37.65458925581929" lon="14.025965863679913"><ele>859.8000000000001</ele><time>2026-04-26T15:07:33Z</time></trkpt><trkpt lat="37.65458391105668" lon="14.026110187562049"><ele>860.6000000000001</ele><time>2026-04-26T15:07:35Z</time></trkpt><trkpt lat="37.6545585071235" lon="14.026244119840118"><ele>861.4</ele><time>2026-04-26T15:07:37Z</time></trkpt><trkpt lat="37.65450312040569" lon="14.026378731652722"><ele>862.2</ele><time>2026-04-26T15:07:39Z</time></trkpt><trkpt lat="37.654464467472344" lon="14.026456588401805"><ele>863.0</ele><time>2026-04-26T15:07:40Z</time></trkpt><trkpt lat="37.65441343464481" lon="14.026538757733142"><ele>863.0</ele><time>2026-04-26T15:07:41Z</time></trkpt><trkpt lat="37.65434970578253" lon="14.026627123661571"><ele>863.0</ele><time>2026-04-26T15:07:42Z</time></trkpt><trkpt lat="37.65428309348625" lon="14.026714381240952"><ele>863.0</ele><time>2026-04-26T15:07:43Z</time></trkpt><trkpt lat="37.65421746726542" lon="14.02679706082074"><ele>863.0</ele><time>2026-04-26T15:07:44Z</time></trkpt><trkpt lat="37.65415168292337" lon="14.026879408890652"><ele>863.0</ele><time>2026-04-26T15:07:45Z</time></trkpt><trkpt lat="37.65408646622574" lon="14.026961046022453"><ele>862.1666666666667</ele><time>2026-04-26T15:07:46Z</time></trkpt><trkpt lat="37.65402342831542" lon="14.027041120802414"><ele>861.3333333333334</ele><time>2026-04-26T15:07:47Z</time></trkpt><trkpt lat="37.65396049275886" lon="14.02712284613536"><ele>860.5</ele><time>2026-04-26T15:07:48Z</time></trkpt><trkpt lat="37.65389840637607" lon="14.027203468846519"><ele>859.6666666666667</ele><time>2026-04-26T15:07:49Z</time></trkpt><trkpt lat="37.65383864631132" lon="14.027278286417387"><ele>858.8333333333334</ele><time>2026-04-26T15:07:50Z</time></trkpt><trkpt lat="37.653782832559436" lon="14.027343997700815"><ele>858.0</ele><time>2026-04-26T15:07:51Z</time></trkpt><trkpt lat="37.65372702396095" lon="14.027413851174893"><ele>858.0</ele><time>2026-04-26T15:07:52Z</time></trkpt><trkpt lat="37.653675721274794" lon="14.027484468189979"><ele>858.0</ele><time>2026-04-26T15:07:53Z</time></trkpt><trkpt lat="37.653631922364106" lon="14.027556574833776"><ele>858.0</ele><time>2026-04-26T15:07:54Z</time></trkpt><trkpt lat="37.653601479272" lon="14.027641645843733"><ele>858.0</ele><time>2026-04-26T15:07:54.999Z</time></trkpt><trkpt lat="37.65357547774724" lon="14.027725468082522"><ele>858.0</ele><time>2026-04-26T15:07:55.999Z</time></trkpt><trkpt lat="37.653552513081934" lon="14.027812249581668"><ele>858.0</ele><time>2026-04-26T15:07:56.999Z</time></trkpt><trkpt lat="37.65352571906796" lon="14.027910443373791"><ele>858.0</ele><time>2026-04-26T15:07:57.999Z</time></trkpt><trkpt lat="37.65349273415301" lon="14.028010521204607"><ele>858.0</ele><time>2026-04-26T15:07:58.999Z</time></trkpt><trkpt lat="37.65345648539208" lon="14.028107124612186"><ele>858.0</ele><time>2026-04-26T15:07:59.999Z</time></trkpt><trkpt lat="37.653417037041315" lon="14.028196114733056"><ele>858.0</ele><time>2026-04-26T15:08:00.999Z</time></trkpt><trkpt lat="37.65336877598427" lon="14.02826740247667"><ele>858.0</ele><time>2026-04-26T15:08:01.999Z</time></trkpt><trkpt lat="37.65331822247288" lon="14.028321853221748"><ele>858.0</ele><time>2026-04-26T15:08:02.999Z</time></trkpt><trkpt lat="37.65326488401336" lon="14.028379002963561"><ele>858.0</ele><time>2026-04-26T15:08:03.999Z</time></trkpt><trkpt lat="37.65317505413745" lon="14.028491353557458"><ele>856.5</ele><time>2026-04-26T15:08:05.999Z</time></trkpt><trkpt lat="37.65315931520857" lon="14.028593018095721"><ele>855.0</ele><time>2026-04-26T15:08:06.999Z</time></trkpt><trkpt lat="37.65315231276194" lon="14.028698957378614"><ele>853.5</ele><time>2026-04-26T15:08:07.999Z</time></trkpt><trkpt lat="37.65315063352975" lon="14.028803599441195"><ele>852.0</ele><time>2026-04-26T15:08:08.999Z</time></trkpt><trkpt lat="37.6531479574269" lon="14.028912964159053"><ele>850.5</ele><time>2026-04-26T15:08:09.999Z</time></trkpt><trkpt lat="37.65314513718554" lon="14.029028219390868"><ele>849.0</ele><time>2026-04-26T15:08:10.999Z</time></trkpt><trkpt lat="37.653142301630176" lon="14.029144100520185"><ele>847.5</ele><time>2026-04-26T15:08:11.999Z</time></trkpt><trkpt lat="37.65314021455329" lon="14.029253881484742"><ele>846.0</ele><time>2026-04-26T15:08:12.999Z</time></trkpt><trkpt lat="37.65315485576993" lon="14.02936076241383"><ele>844.5</ele><time>2026-04-26T15:08:13.999Z</time></trkpt><trkpt lat="37.65313755474914" lon="14.029467045556553"><ele>843.0</ele><time>2026-04-26T15:08:14.999Z</time></trkpt><trkpt lat="37.65313625455591" lon="14.029575513154052"><ele>841.5</ele><time>2026-04-26T15:08:15.999Z</time></trkpt><trkpt lat="37.653150770504865" lon="14.029684162618265"><ele>840.0</ele><time>2026-04-26T15:08:16.999Z</time></trkpt><trkpt lat="37.65313093778447" lon="14.029790365104535"><ele>840.0</ele><time>2026-04-26T15:08:17.999Z</time></trkpt><trkpt lat="37.653119013057385" lon="14.029893850789165"><ele>840.0</ele><time>2026-04-26T15:08:18.999Z</time></trkpt><trkpt lat="37.65309695614514" lon="14.029990638113485"><ele>840.0</ele><time>2026-04-26T15:08:19.999Z</time></trkpt><trkpt lat="37.65305624152001" lon="14.030070835895039"><ele>840.0</ele><time>2026-04-26T15:08:20.999Z</time></trkpt><trkpt lat="37.652998623567846" lon="14.03012661162492"><ele>840.0</ele><time>2026-04-26T15:08:21.999Z</time></trkpt><trkpt lat="37.652932767977575" lon="14.030188537954142"><ele>840.0</ele><time>2026-04-26T15:08:22.999Z</time></trkpt><trkpt lat="37.65286807626756" lon="14.030250573350221"><ele>839.3333333333334</ele><time>2026-04-26T15:08:23.999Z</time></trkpt><trkpt lat="37.65280562845797" lon="14.030309547965588"><ele>838.6666666666667</ele><time>2026-04-26T15:08:24.999Z</time></trkpt><trkpt lat="37.65275479757467" lon="14.030370595357834"><ele>838.0</ele><time>2026-04-26T15:08:25.999Z</time></trkpt><trkpt lat="37.65271937589986" lon="14.03045064358976"><ele>837.3333333333334</ele><time>2026-04-26T15:08:26.999Z</time></trkpt><trkpt lat="37.65271203901712" lon="14.030543231762604"><ele>836.6666666666667</ele><time>2026-04-26T15:08:27.999Z</time></trkpt><trkpt lat="37.652659646847205" lon="14.03067455667658"><ele>836.0</ele><time>2026-04-26T15:08:29.999Z</time></trkpt><trkpt lat="37.65261633290542" lon="14.030809831998804"><ele>836.0000000000001</ele><time>2026-04-26T15:08:31.999Z</time></trkpt><trkpt lat="37.65258694666771" lon="14.030881345892507"><ele>836.0</ele><time>2026-04-26T15:08:32.999Z</time></trkpt><trkpt lat="37.65254452771528" lon="14.030954506252137"><ele>836.0</ele><time>2026-04-26T15:08:33.999Z</time></trkpt><trkpt lat="37.65249526963524" lon="14.031036660717138"><ele>836.0</ele><time>2026-04-26T15:08:34.999Z</time></trkpt><trkpt lat="37.652438394204786" lon="14.031126712176464"><ele>836.0000000000001</ele><time>2026-04-26T15:08:35.999Z</time></trkpt><trkpt lat="37.652377462295874" lon="14.031220063769931"><ele>836.0</ele><time>2026-04-26T15:08:36.999Z</time></trkpt><trkpt lat="37.65231660838978" lon="14.031313295892241"><ele>836.0</ele><time>2026-04-26T15:08:37.999Z</time></trkpt><trkpt lat="37.652258312096215" lon="14.03140352359471"><ele>836.0</ele><time>2026-04-26T15:08:38.999Z</time></trkpt><trkpt lat="37.65220297626917" lon="14.031496540721811"><ele>836.0</ele><time>2026-04-26T15:08:39.999Z</time></trkpt><trkpt lat="37.65215442284511" lon="14.031595815881492"><ele>836.0</ele><time>2026-04-26T15:08:40.999Z</time></trkpt><trkpt lat="37.652111705379525" lon="14.031693126329488"><ele>836.0</ele><time>2026-04-26T15:08:41.999Z</time></trkpt><trkpt lat="37.65210141180655" lon="14.03181512969099"><ele>837.5999999999999</ele><time>2026-04-26T15:08:42.999Z</time></trkpt><trkpt lat="37.65208809622159" lon="14.031898665455852"><ele>839.2</ele><time>2026-04-26T15:08:43.999Z</time></trkpt><trkpt lat="37.65206732736706" lon="14.03201157897402"><ele>840.8</ele><time>2026-04-26T15:08:45.999Z</time></trkpt><trkpt lat="37.652036017037815" lon="14.032093145245584"><ele>842.4000000000001</ele><time>2026-04-26T15:08:47.999Z</time></trkpt><trkpt lat="37.65197042383974" lon="14.032194828767516"><ele>844.0</ele><time>2026-04-26T15:08:49.999Z</time></trkpt><trkpt lat="37.651881010098656" lon="14.03230975162253"><ele>844.0</ele><time>2026-04-26T15:08:51.999Z</time></trkpt><trkpt lat="37.651821583280054" lon="14.032385226431867"><ele>844.0</ele><time>2026-04-26T15:08:52.999Z</time></trkpt><trkpt lat="37.651761468265825" lon="14.032461575335978"><ele>844.0</ele><time>2026-04-26T15:08:53.999Z</time></trkpt><trkpt lat="37.651696200766395" lon="14.032548081346379"><ele>844.0</ele><time>2026-04-26T15:08:54.999Z</time></trkpt><trkpt lat="37.6516345793767" lon="14.032639559638374"><ele>844.0</ele><time>2026-04-26T15:08:55.999Z</time></trkpt><trkpt lat="37.65158068997435" lon="14.032733124590596"><ele>841.6</ele><time>2026-04-26T15:08:56.999Z</time></trkpt><trkpt lat="37.65153380550546" lon="14.032836702708154"><ele>839.2</ele><time>2026-04-26T15:08:57.999Z</time></trkpt><trkpt lat="37.65150239180913" lon="14.032953814953546"><ele>836.8000000000001</ele><time>2026-04-26T15:08:58.999Z</time></trkpt><trkpt lat="37.65147805886784" lon="14.033066263334263"><ele>834.4000000000001</ele><time>2026-04-26T15:08:59.999Z</time></trkpt><trkpt lat="37.65146798214014" lon="14.033182289038914"><ele>832.0</ele><time>2026-04-26T15:09:00.999Z</time></trkpt><trkpt lat="37.651458603371154" lon="14.033293211396577"><ele>830.4999999999999</ele><time>2026-04-26T15:09:01.999Z</time></trkpt><trkpt lat="37.651450512528804" lon="14.033404632772552"><ele>829.0</ele><time>2026-04-26T15:09:03Z</time></trkpt><trkpt lat="37.65144246524768" lon="14.03351545428153"><ele>827.5</ele><time>2026-04-26T15:09:04Z</time></trkpt><trkpt lat="37.65143863396404" lon="14.033627983582225"><ele>826.0</ele><time>2026-04-26T15:09:05Z</time></trkpt><trkpt lat="37.651445126040265" lon="14.033739951997104"><ele>824.4999999999999</ele><time>2026-04-26T15:09:06Z</time></trkpt><trkpt lat="37.651475843462805" lon="14.033849010768147"><ele>823.0</ele><time>2026-04-26T15:09:07Z</time></trkpt><trkpt lat="37.65148040677861" lon="14.033961511706636"><ele>822.9999999999999</ele><time>2026-04-26T15:09:08Z</time></trkpt><trkpt lat="37.651499078980976" lon="14.03406540375946"><ele>823.0</ele><time>2026-04-26T15:09:09Z</time></trkpt><trkpt lat="37.65151448926087" lon="14.034164759988839"><ele>823.0</ele><time>2026-04-26T15:09:10Z</time></trkpt><trkpt lat="37.651527827171726" lon="14.034270649723092"><ele>823.0</ele><time>2026-04-26T15:09:11Z</time></trkpt><trkpt lat="37.651538468585876" lon="14.03437978926884"><ele>822.9999999999999</ele><time>2026-04-26T15:09:12Z</time></trkpt><trkpt lat="37.65154303325593" lon="14.034482928514427"><ele>823.0</ele><time>2026-04-26T15:09:13Z</time></trkpt><trkpt lat="37.651545510976014" lon="14.034589173238235"><ele>822.3333333333333</ele><time>2026-04-26T15:09:14Z</time></trkpt><trkpt lat="37.65154816131623" lon="14.03470109481892"><ele>821.6666666666666</ele><time>2026-04-26T15:09:15Z</time></trkpt><trkpt lat="37.651551627159435" lon="14.034818012847976"><ele>821.0</ele><time>2026-04-26T15:09:16Z</time></trkpt><trkpt lat="37.65155807989165" lon="14.034933949584937"><ele>820.3333333333333</ele><time>2026-04-26T15:09:17Z</time></trkpt><trkpt lat="37.65156851709145" lon="14.035038816297895"><ele>819.6666666666666</ele><time>2026-04-26T15:09:18Z</time></trkpt><trkpt lat="37.65159948304684" lon="14.035136752217918"><ele>819.0</ele><time>2026-04-26T15:09:19Z</time></trkpt><trkpt lat="37.65164423079139" lon="14.03522199907841"><ele>818.8333333333334</ele><time>2026-04-26T15:09:20Z</time></trkpt><trkpt lat="37.65167843483606" lon="14.035301052159369"><ele>818.6666666666667</ele><time>2026-04-26T15:09:21Z</time></trkpt><trkpt lat="37.65171009307306" lon="14.035376101203848"><ele>818.5</ele><time>2026-04-26T15:09:22Z</time></trkpt><trkpt lat="37.6517291370675" lon="14.035513590392947"><ele>818.3333333333334</ele><time>2026-04-26T15:09:24Z</time></trkpt><trkpt lat="37.65169292444605" lon="14.035643471421487"><ele>818.1666666666667</ele><time>2026-04-26T15:09:26Z</time></trkpt><trkpt lat="37.651636205633245" lon="14.035692661079212"><ele>818.0</ele><time>2026-04-26T15:09:27Z</time></trkpt><trkpt lat="37.65157064485502" lon="14.035739283515507"><ele>818.0000000000001</ele><time>2026-04-26T15:09:28Z</time></trkpt><trkpt lat="37.65149393835859" lon="14.035771486826786"><ele>818.0</ele><time>2026-04-26T15:09:29Z</time></trkpt><trkpt lat="37.65142127384377" lon="14.03582928223251"><ele>818.0</ele><time>2026-04-26T15:09:30Z</time></trkpt><trkpt lat="37.65133623052506" lon="14.035847928269108"><ele>818.0</ele><time>2026-04-26T15:09:31Z</time></trkpt><trkpt lat="37.651256324594044" lon="14.035867306831932"><ele>818.0000000000001</ele><time>2026-04-26T15:09:32Z</time></trkpt><trkpt lat="37.65117278089537" lon="14.035863699160883"><ele>818.0</ele><time>2026-04-26T15:09:33Z</time></trkpt><trkpt lat="37.65108512954664" lon="14.035882865578255"><ele>819.1666666666667</ele><time>2026-04-26T15:09:34Z</time></trkpt><trkpt lat="37.65099485616229" lon="14.035924160331662"><ele>820.3333333333334</ele><time>2026-04-26T15:09:35Z</time></trkpt><trkpt lat="37.65091296753911" lon="14.035978115826385"><ele>821.5</ele><time>2026-04-26T15:09:36Z</time></trkpt><trkpt lat="37.65083684881102" lon="14.036041856821535"><ele>822.6666666666667</ele><time>2026-04-26T15:09:37Z</time></trkpt><trkpt lat="37.650771356359776" lon="14.036094703737641"><ele>823.8333333333334</ele><time>2026-04-26T15:09:38Z</time></trkpt><trkpt lat="37.650707717462154" lon="14.036142712402981"><ele>825.0</ele><time>2026-04-26T15:09:39Z</time></trkpt><trkpt lat="37.65060313708277" lon="14.03622702309961"><ele>825.0</ele><time>2026-04-26T15:09:41Z</time></trkpt><trkpt lat="37.65055183965339" lon="14.036280052711422"><ele>825.0</ele><time>2026-04-26T15:09:42Z</time></trkpt><trkpt lat="37.65050712113279" lon="14.036344685965272"><ele>825.0</ele><time>2026-04-26T15:09:43Z</time></trkpt><trkpt lat="37.65047661277952" lon="14.036430997831499"><ele>825.0</ele><time>2026-04-26T15:09:44Z</time></trkpt><trkpt lat="37.65044410276508" lon="14.036506232954258"><ele>825.0</ele><time>2026-04-26T15:09:45Z</time></trkpt><trkpt lat="37.65041111013467" lon="14.036581742698125"><ele>825.0</ele><time>2026-04-26T15:09:46Z</time></trkpt><trkpt lat="37.65037746667764" lon="14.036658741989473"><ele>825.0</ele><time>2026-04-26T15:09:47Z</time></trkpt><trkpt lat="37.650345703062705" lon="14.036731438899647"><ele>825.2857142857142</ele><time>2026-04-26T15:09:48Z</time></trkpt><trkpt lat="37.65031475461865" lon="14.036801992250949"><ele>825.5714285714287</ele><time>2026-04-26T15:09:49Z</time></trkpt><trkpt lat="37.65028064525644" lon="14.036873684283245"><ele>825.8571428571429</ele><time>2026-04-26T15:09:50Z</time></trkpt><trkpt lat="37.650244283186474" lon="14.036945797385453"><ele>826.1428571428571</ele><time>2026-04-26T15:09:51Z</time></trkpt><trkpt lat="37.65020641094287" lon="14.037019784705716"><ele>826.4285714285713</ele><time>2026-04-26T15:09:52Z</time></trkpt><trkpt lat="37.65017504833726" lon="14.0370942851978"><ele>826.7142857142858</ele><time>2026-04-26T15:09:53Z</time></trkpt><trkpt lat="37.65014449612618" lon="14.037185089528553"><ele>827.0</ele><time>2026-04-26T15:09:54Z</time></trkpt><trkpt lat="37.65011684210813" lon="14.03729189984905"><ele>827.0000000000001</ele><time>2026-04-26T15:09:55Z</time></trkpt><trkpt lat="37.650097214317576" lon="14.037394337626832"><ele>827.0</ele><time>2026-04-26T15:09:55.999Z</time></trkpt><trkpt lat="37.65007930042541" lon="14.037492758591991"><ele>827.0</ele><time>2026-04-26T15:09:56.999Z</time></trkpt><trkpt lat="37.65006461797812" lon="14.03759006582139"><ele>827.0</ele><time>2026-04-26T15:09:57.999Z</time></trkpt><trkpt lat="37.65004947336132" lon="14.03767508537578"><ele>827.0000000000001</ele><time>2026-04-26T15:09:58.999Z</time></trkpt><trkpt lat="37.65002413139413" lon="14.037758803586513"><ele>827.0</ele><time>2026-04-26T15:09:59.999Z</time></trkpt><trkpt lat="37.64998516870022" lon="14.037841702492214"><ele>825.8</ele><time>2026-04-26T15:10:00.999Z</time></trkpt><trkpt lat="37.6499356052096" lon="14.037907997790592"><ele>824.6</ele><time>2026-04-26T15:10:01.999Z</time></trkpt><trkpt lat="37.64986680060642" lon="14.037967350815226"><ele>823.4</ele><time>2026-04-26T15:10:02.999Z</time></trkpt><trkpt lat="37.649789282892215" lon="14.03803208615723"><ele>822.1999999999999</ele><time>2026-04-26T15:10:03.999Z</time></trkpt><trkpt lat="37.64970390970141" lon="14.03810465934285"><ele>821.0</ele><time>2026-04-26T15:10:04.999Z</time></trkpt><trkpt lat="37.649612374780936" lon="14.038182470331183"><ele>821.0</ele><time>2026-04-26T15:10:05.999Z</time></trkpt><trkpt lat="37.64951581611521" lon="14.038262827179903"><ele>821.0</ele><time>2026-04-26T15:10:06.999Z</time></trkpt><trkpt lat="37.649420110055786" lon="14.03834212774346"><ele>821.0</ele><time>2026-04-26T15:10:07.999Z</time></trkpt><trkpt lat="37.649330315297924" lon="14.038416933688655"><ele>821.0</ele><time>2026-04-26T15:10:08.999Z</time></trkpt><trkpt lat="37.6492442753566" lon="14.038488815002498"><ele>821.0</ele><time>2026-04-26T15:10:09.999Z</time></trkpt><trkpt lat="37.64917344969584" lon="14.038547993623988"><ele>822.0</ele><time>2026-04-26T15:10:10.999Z</time></trkpt><trkpt lat="37.64911936348028" lon="14.038593203040815"><ele>823.0</ele><time>2026-04-26T15:10:11.999Z</time></trkpt><trkpt lat="37.64902644412668" lon="14.038646851872706"><ele>824.0</ele><time>2026-04-26T15:10:13.999Z</time></trkpt><trkpt lat="37.64891575629719" lon="14.038617738891045"><ele>825.0</ele><time>2026-04-26T15:10:15.999Z</time></trkpt><trkpt lat="37.64882453579431" lon="14.038511969435673"><ele>826.0</ele><time>2026-04-26T15:10:17.999Z</time></trkpt><trkpt lat="37.64877177390126" lon="14.038449955661038"><ele>825.9999999999999</ele><time>2026-04-26T15:10:18.999Z</time></trkpt><trkpt lat="37.64872718316467" lon="14.038377674607702"><ele>826.0</ele><time>2026-04-26T15:10:19.999Z</time></trkpt><trkpt lat="37.64868063385175" lon="14.038305248682674"><ele>826.0</ele><time>2026-04-26T15:10:20.999Z</time></trkpt><trkpt lat="37.64863412272847" lon="14.038231474958286"><ele>826.0</ele><time>2026-04-26T15:10:21.999Z</time></trkpt><trkpt lat="37.64858153180107" lon="14.038155492906567"><ele>825.9999999999999</ele><time>2026-04-26T15:10:22.999Z</time></trkpt><trkpt lat="37.648520550689966" lon="14.038079195712818"><ele>826.0</ele><time>2026-04-26T15:10:23.999Z</time></trkpt><trkpt lat="37.64845897313919" lon="14.0380066924044"><ele>824.4999999999999</ele><time>2026-04-26T15:10:24.999Z</time></trkpt><trkpt lat="37.648391048696034" lon="14.037935431791375"><ele>823.0</ele><time>2026-04-26T15:10:25.999Z</time></trkpt><trkpt lat="37.648321624832" lon="14.037870057970038"><ele>821.5</ele><time>2026-04-26T15:10:26.999Z</time></trkpt><trkpt lat="37.648256673136856" lon="14.037805413605803"><ele>820.0</ele><time>2026-04-26T15:10:27.999Z</time></trkpt><trkpt lat="37.64819631807526" lon="14.03774500816955"><ele>818.4999999999999</ele><time>2026-04-26T15:10:28.999Z</time></trkpt><trkpt lat="37.6481387916623" lon="14.037693890365077"><ele>817.0</ele><time>2026-04-26T15:10:29.999Z</time></trkpt><trkpt lat="37.648084531734845" lon="14.037648967139312"><ele>816.9999999999999</ele><time>2026-04-26T15:10:30.999Z</time></trkpt><trkpt lat="37.648043541933355" lon="14.037587165197875"><ele>817.0</ele><time>2026-04-26T15:10:31.999Z</time></trkpt><trkpt lat="37.64794672592987" lon="14.037502663108668"><ele>817.0</ele><time>2026-04-26T15:10:33.999Z</time></trkpt><trkpt lat="37.64784314493269" lon="14.037416926339908"><ele>817.0</ele><time>2026-04-26T15:10:35.999Z</time></trkpt><trkpt lat="37.6477879893929" lon="14.037372323816923"><ele>816.9999999999999</ele><time>2026-04-26T15:10:36.999Z</time></trkpt><trkpt lat="37.64773405714637" lon="14.037329938046328"><ele>817.0</ele><time>2026-04-26T15:10:37.999Z</time></trkpt><trkpt lat="37.64766839714069" lon="14.037279611805062"><ele>816.4999999999999</ele><time>2026-04-26T15:10:38.999Z</time></trkpt><trkpt lat="37.64756647293764" lon="14.037200688394195"><ele>816.0</ele><time>2026-04-26T15:10:40.999Z</time></trkpt><trkpt lat="37.64751353988093" lon="14.037156863938584"><ele>815.5</ele><time>2026-04-26T15:10:41.999Z</time></trkpt><trkpt lat="37.64741149775342" lon="14.03706983367899"><ele>815.0</ele><time>2026-04-26T15:10:43.999Z</time></trkpt><trkpt lat="37.6473568091604" lon="14.037021479089205"><ele>814.4999999999999</ele><time>2026-04-26T15:10:44.999Z</time></trkpt><trkpt lat="37.64730498519731" lon="14.036970843671396"><ele>814.0</ele><time>2026-04-26T15:10:45.999Z</time></trkpt><trkpt lat="37.647249275748834" lon="14.036915777459496"><ele>814.0</ele><time>2026-04-26T15:10:46.999Z</time></trkpt><trkpt lat="37.64718815366568" lon="14.036866025347956"><ele>814.0</ele><time>2026-04-26T15:10:47.999Z</time></trkpt><trkpt lat="37.64713004284361" lon="14.036820979589429"><ele>814.0</ele><time>2026-04-26T15:10:48.999Z</time></trkpt><trkpt lat="37.647018602526664" lon="14.036764123194821"><ele>814.0</ele><time>2026-04-26T15:10:50.999Z</time></trkpt><trkpt lat="37.6469155973068" lon="14.036677602808366"><ele>814.0</ele><time>2026-04-26T15:10:52.999Z</time></trkpt><trkpt lat="37.64685121325169" lon="14.036647795269948"><ele>812.7142857142858</ele><time>2026-04-26T15:10:53.999Z</time></trkpt><trkpt lat="37.64680830072039" lon="14.036581180836022"><ele>811.4285714285714</ele><time>2026-04-26T15:10:54.999Z</time></trkpt><trkpt lat="37.64676233126777" lon="14.036508375033446"><ele>810.1428571428571</ele><time>2026-04-26T15:10:55.999Z</time></trkpt><trkpt lat="37.646727219679015" lon="14.036427060450022"><ele>808.8571428571429</ele><time>2026-04-26T15:10:56.999Z</time></trkpt><trkpt lat="37.64672474026834" lon="14.036329611703922"><ele>807.5714285714286</ele><time>2026-04-26T15:10:57.999Z</time></trkpt><trkpt lat="37.646699767592786" lon="14.03623668623175"><ele>806.2857142857143</ele><time>2026-04-26T15:10:58.999Z</time></trkpt><trkpt lat="37.646684088661885" lon="14.036143259601392"><ele>805.0</ele><time>2026-04-26T15:10:59.999Z</time></trkpt><trkpt lat="37.646646452747675" lon="14.036050341911661"><ele>804.9999999999999</ele><time>2026-04-26T15:11:00.999Z</time></trkpt><trkpt lat="37.64661297664838" lon="14.03595390057361"><ele>805.0</ele><time>2026-04-26T15:11:01.999Z</time></trkpt><trkpt lat="37.64658278617607" lon="14.03585529876452"><ele>805.0</ele><time>2026-04-26T15:11:02.999Z</time></trkpt><trkpt lat="37.64650890406814" lon="14.03578458928017"><ele>805.0</ele><time>2026-04-26T15:11:03.999Z</time></trkpt><trkpt lat="37.64642783845016" lon="14.035735033947894"><ele>804.9999999999999</ele><time>2026-04-26T15:11:04.999Z</time></trkpt><trkpt lat="37.64633906061448" lon="14.035698454944715"><ele>805.0</ele><time>2026-04-26T15:11:05.999Z</time></trkpt><trkpt lat="37.64625916013732" lon="14.035658063750146"><ele>806.6666666666666</ele><time>2026-04-26T15:11:06.999Z</time></trkpt><trkpt lat="37.646181715791755" lon="14.035614563529123"><ele>808.3333333333333</ele><time>2026-04-26T15:11:07.999Z</time></trkpt><trkpt lat="37.64610248129725" lon="14.035565068049657"><ele>810.0</ele><time>2026-04-26T15:11:09Z</time></trkpt><trkpt lat="37.646021599678775" lon="14.035508966507544"><ele>811.6666666666667</ele><time>2026-04-26T15:11:10Z</time></trkpt><trkpt lat="37.645943769755384" lon="14.035449327966056"><ele>813.3333333333334</ele><time>2026-04-26T15:11:11Z</time></trkpt><trkpt lat="37.64586679556528" lon="14.03538593278117"><ele>815.0</ele><time>2026-04-26T15:11:12Z</time></trkpt><trkpt lat="37.645787865189945" lon="14.035317189001482"><ele>811.5000000000001</ele><time>2026-04-26T15:11:13Z</time></trkpt><trkpt lat="37.6457155869555" lon="14.035257574238164"><ele>808.0</ele><time>2026-04-26T15:11:14Z</time></trkpt><trkpt lat="37.64565549926575" lon="14.035227689266279"><ele>804.5</ele><time>2026-04-26T15:11:15Z</time></trkpt><trkpt lat="37.64555925735558" lon="14.035134871637158"><ele>801.0</ele><time>2026-04-26T15:11:17Z</time></trkpt><trkpt lat="37.64548603789717" lon="14.03514406736708"><ele>797.5000000000001</ele><time>2026-04-26T15:11:18Z</time></trkpt><trkpt lat="37.64542365451459" lon="14.0351139439925"><ele>794.0</ele><time>2026-04-26T15:11:19Z</time></trkpt><trkpt lat="37.64535496350841" lon="14.035106841651308"><ele>792.1666666666667</ele><time>2026-04-26T15:11:20Z</time></trkpt><trkpt lat="37.64528168745809" lon="14.035107630810922"><ele>790.3333333333334</ele><time>2026-04-26T15:11:21Z</time></trkpt><trkpt lat="37.64520953099251" lon="14.035113428646296"><ele>788.5</ele><time>2026-04-26T15:11:22Z</time></trkpt><trkpt lat="37.64513501373158" lon="14.035122741778942"><ele>786.6666666666667</ele><time>2026-04-26T15:11:23Z</time></trkpt><trkpt lat="37.6450621990575" lon="14.035137048360383"><ele>784.8333333333334</ele><time>2026-04-26T15:11:24Z</time></trkpt><trkpt lat="37.64499114825364" lon="14.035155661109993"><ele>783.0</ele><time>2026-04-26T15:11:25Z</time></trkpt><trkpt lat="37.644902501704166" lon="14.03518402577324"><ele>783.0</ele><time>2026-04-26T15:11:27Z</time></trkpt><trkpt lat="37.64480098835583" lon="14.035233322952106"><ele>783.0</ele><time>2026-04-26T15:11:29Z</time></trkpt><trkpt lat="37.64474549280589" lon="14.035275505610034"><ele>783.0</ele><time>2026-04-26T15:11:30Z</time></trkpt><trkpt lat="37.64466332070722" lon="14.035364086715349"><ele>783.0</ele><time>2026-04-26T15:11:32Z</time></trkpt><trkpt lat="37.6445921540852" lon="14.035463839169664"><ele>783.0</ele><time>2026-04-26T15:11:34Z</time></trkpt><trkpt lat="37.64455120128016" lon="14.035527881249575"><ele>783.0</ele><time>2026-04-26T15:11:35Z</time></trkpt><trkpt lat="37.644512563542584" lon="14.035591411177863"><ele>783.0</ele><time>2026-04-26T15:11:36Z</time></trkpt><trkpt lat="37.64444151074612" lon="14.035695670060505"><ele>783.0</ele><time>2026-04-26T15:11:38Z</time></trkpt><trkpt lat="37.64437369199028" lon="14.035770379976665"><ele>783.0</ele><time>2026-04-26T15:11:40Z</time></trkpt><trkpt lat="37.64427651594874" lon="14.03580659033014"><ele>783.0</ele><time>2026-04-26T15:11:42Z</time></trkpt><trkpt lat="37.64417248588803" lon="14.035803940459134"><ele>781.6666666666666</ele><time>2026-04-26T15:11:44Z</time></trkpt><trkpt lat="37.64408922979784" lon="14.035782980911467"><ele>780.3333333333333</ele><time>2026-04-26T15:11:46Z</time></trkpt><trkpt lat="37.64405727124527" lon="14.035699616445196"><ele>779.0</ele><time>2026-04-26T15:11:47Z</time></trkpt><trkpt lat="37.644030733319596" lon="14.035547038809874"><ele>777.6666666666666</ele><time>2026-04-26T15:11:49Z</time></trkpt><trkpt lat="37.64402704206663" lon="14.035462035821363"><ele>776.3333333333333</ele><time>2026-04-26T15:11:50Z</time></trkpt><trkpt lat="37.64402154752906" lon="14.035379779073564"><ele>775.0</ele><time>2026-04-26T15:11:51Z</time></trkpt><trkpt lat="37.64401292841105" lon="14.035292494245192"><ele>774.9999999999999</ele><time>2026-04-26T15:11:52Z</time></trkpt><trkpt lat="37.64400622705583" lon="14.035209468972559"><ele>775.0</ele><time>2026-04-26T15:11:53Z</time></trkpt><trkpt lat="37.644002861703015" lon="14.035128131394847"><ele>775.0</ele><time>2026-04-26T15:11:54Z</time></trkpt><trkpt lat="37.64399049018993" lon="14.035003686697916"><ele>775.0</ele><time>2026-04-26T15:11:56Z</time></trkpt><trkpt lat="37.643973527733834" lon="14.034874628841168"><ele>774.9999999999999</ele><time>2026-04-26T15:11:58Z</time></trkpt><trkpt lat="37.64392071715599" lon="14.034762061344912"><ele>775.0</ele><time>2026-04-26T15:12:00Z</time></trkpt><trkpt lat="37.64382925198073" lon="14.034694901102345"><ele>774.6</ele><time>2026-04-26T15:12:02Z</time></trkpt><trkpt lat="37.643724063605774" lon="14.034644776183137"><ele>774.2</ele><time>2026-04-26T15:12:04Z</time></trkpt><trkpt lat="37.643628470599054" lon="14.034581506112245"><ele>773.8</ele><time>2026-04-26T15:12:05.999Z</time></trkpt><trkpt lat="37.64353025369099" lon="14.034548795086323"><ele>773.4</ele><time>2026-04-26T15:12:07.999Z</time></trkpt><trkpt lat="37.6434380447435" lon="14.034525398314415"><ele>773.0</ele><time>2026-04-26T15:12:09.999Z</time></trkpt><trkpt lat="37.643351381763" lon="14.034503805845691"><ele>773.0000000000001</ele><time>2026-04-26T15:12:11.999Z</time></trkpt><trkpt lat="37.643256662510886" lon="14.034474130952033"><ele>773.0</ele><time>2026-04-26T15:12:13.999Z</time></trkpt><trkpt lat="37.64318465775149" lon="14.034436649137895"><ele>773.0</ele><time>2026-04-26T15:12:17.999Z</time></trkpt><trkpt lat="37.643114007212" lon="14.034385281175155"><ele>773.0</ele><time>2026-04-26T15:12:20.999Z</time></trkpt><trkpt lat="37.6430325536044" lon="14.034329179081444"><ele>773.0000000000001</ele><time>2026-04-26T15:12:22.999Z</time></trkpt><trkpt lat="37.64293611519661" lon="14.03430940991375"><ele>773.0</ele><time>2026-04-26T15:12:24.999Z</time></trkpt><trkpt lat="37.64282270595999" lon="14.034312650213563"><ele>770.2</ele><time>2026-04-26T15:12:26.999Z</time></trkpt><trkpt lat="37.642714447303334" lon="14.034251228560665"><ele>767.4</ele><time>2026-04-26T15:12:28.999Z</time></trkpt><trkpt lat="37.64264832192055" lon="14.034230539365801"><ele>764.6</ele><time>2026-04-26T15:12:29.999Z</time></trkpt><trkpt lat="37.642535831066326" lon="14.034189817986016"><ele>761.8000000000001</ele><time>2026-04-26T15:12:31.999Z</time></trkpt><trkpt lat="37.642443923666825" lon="14.034109828015222"><ele>759.0</ele><time>2026-04-26T15:12:33.999Z</time></trkpt><trkpt lat="37.64234760360046" lon="14.034017172638594"><ele>759.0</ele><time>2026-04-26T15:12:35.999Z</time></trkpt><trkpt lat="37.64230104212806" lon="14.033955685693327"><ele>759.0</ele><time>2026-04-26T15:12:36.999Z</time></trkpt><trkpt lat="37.64225468856216" lon="14.033894369950376"><ele>759.0</ele><time>2026-04-26T15:12:37.999Z</time></trkpt><trkpt lat="37.642210233402935" lon="14.033834331840056"><ele>759.0</ele><time>2026-04-26T15:12:38.999Z</time></trkpt><trkpt lat="37.642173851756105" lon="14.033766544976688"><ele>759.0</ele><time>2026-04-26T15:12:39.999Z</time></trkpt><trkpt lat="37.64213825147976" lon="14.03369568538233"><ele>759.0</ele><time>2026-04-26T15:12:40.999Z</time></trkpt><trkpt lat="37.642105430008804" lon="14.033617749206984"><ele>759.0</ele><time>2026-04-26T15:12:41.999Z</time></trkpt><trkpt lat="37.64208401827937" lon="14.033541254242733"><ele>759.0</ele><time>2026-04-26T15:12:42.999Z</time></trkpt><trkpt lat="37.64207334064784" lon="14.033385914647749"><ele>759.0</ele><time>2026-04-26T15:12:44.999Z</time></trkpt><trkpt lat="37.64206548457104" lon="14.03323227020364"><ele>759.0</ele><time>2026-04-26T15:12:46.999Z</time></trkpt><trkpt lat="37.642058783265085" lon="14.033151594864544"><ele>759.0</ele><time>2026-04-26T15:12:47.999Z</time></trkpt><trkpt lat="37.642053092069716" lon="14.033072348690654"><ele>759.0</ele><time>2026-04-26T15:12:48.999Z</time></trkpt><trkpt lat="37.642043528018334" lon="14.032992232198493"><ele>759.0</ele><time>2026-04-26T15:12:49.999Z</time></trkpt><trkpt lat="37.642021844392076" lon="14.032839964642989"><ele>759.8571428571429</ele><time>2026-04-26T15:12:51.999Z</time></trkpt><trkpt lat="37.6419769277752" lon="14.032699509384038"><ele>760.7142857142857</ele><time>2026-04-26T15:12:53.999Z</time></trkpt><trkpt lat="37.641942883916506" lon="14.032629048959949"><ele>761.5714285714287</ele><time>2026-04-26T15:12:54.999Z</time></trkpt><trkpt lat="37.641902880765656" lon="14.032566291400572"><ele>762.4285714285714</ele><time>2026-04-26T15:12:55.999Z</time></trkpt><trkpt lat="37.641860327412715" lon="14.032502264721659"><ele>763.2857142857143</ele><time>2026-04-26T15:12:56.999Z</time></trkpt><trkpt lat="37.641831974383905" lon="14.032426970833546"><ele>764.1428571428572</ele><time>2026-04-26T15:12:57.999Z</time></trkpt><trkpt lat="37.641791121403585" lon="14.032359111925947"><ele>765.0</ele><time>2026-04-26T15:12:58.999Z</time></trkpt><trkpt lat="37.64175347156699" lon="14.032295085799921"><ele>762.0</ele><time>2026-04-26T15:12:59.999Z</time></trkpt><trkpt lat="37.64171302757223" lon="14.03222506981786"><ele>759.0</ele><time>2026-04-26T15:13:00.999Z</time></trkpt><trkpt lat="37.64167502924094" lon="14.032153867524256"><ele>756.0</ele><time>2026-04-26T15:13:01.999Z</time></trkpt><trkpt lat="37.64164318923322" lon="14.032083874351741"><ele>753.0</ele><time>2026-04-26T15:13:02.999Z</time></trkpt><trkpt lat="37.64157815175632" lon="14.031955524569412"><ele>750.0</ele><time>2026-04-26T15:13:04.999Z</time></trkpt><trkpt lat="37.64150437284246" lon="14.031831480887487"><ele>747.0</ele><time>2026-04-26T15:13:06.999Z</time></trkpt><trkpt lat="37.6414658149577" lon="14.031763216350805"><ele>747.0</ele><time>2026-04-26T15:13:07.999Z</time></trkpt><trkpt lat="37.64142352878265" lon="14.031688758422113"><ele>747.0</ele><time>2026-04-26T15:13:08.999Z</time></trkpt><trkpt lat="37.64138195188215" lon="14.031620547286286"><ele>747.0</ele><time>2026-04-26T15:13:09.999Z</time></trkpt><trkpt lat="37.64134481471934" lon="14.031554575031135"><ele>747.0</ele><time>2026-04-26T15:13:10.999Z</time></trkpt><trkpt lat="37.641268292850384" lon="14.031433046595797"><ele>747.0</ele><time>2026-04-26T15:13:12.999Z</time></trkpt><trkpt lat="37.64122597448019" lon="14.031368658393355"><ele>747.0</ele><time>2026-04-26T15:13:13.999Z</time></trkpt><trkpt lat="37.64118391354921" lon="14.031299411383158"><ele>748.6666666666666</ele><time>2026-04-26T15:13:15Z</time></trkpt><trkpt lat="37.64114301700417" lon="14.031238608715825"><ele>750.3333333333334</ele><time>2026-04-26T15:13:16Z</time></trkpt><trkpt lat="37.641057331440095" lon="14.0311127446546"><ele>752.0</ele><time>2026-04-26T15:13:18Z</time></trkpt><trkpt lat="37.641012842348545" lon="14.031043209037364"><ele>753.6666666666667</ele><time>2026-04-26T15:13:19Z</time></trkpt><trkpt lat="37.64095972019924" lon="14.03097603324585"><ele>755.3333333333334</ele><time>2026-04-26T15:13:20Z</time></trkpt><trkpt lat="37.64090404445132" lon="14.030906352161448"><ele>757.0</ele><time>2026-04-26T15:13:21Z</time></trkpt><trkpt lat="37.640850032777244" lon="14.030841232835938"><ele>754.8</ele><time>2026-04-26T15:13:22Z</time></trkpt><trkpt lat="37.640798445782025" lon="14.030775356813841"><ele>752.6</ele><time>2026-04-26T15:13:23Z</time></trkpt><trkpt lat="37.64075205293368" lon="14.030715842880756"><ele>750.4</ele><time>2026-04-26T15:13:24Z</time></trkpt><trkpt lat="37.64067737310109" lon="14.030622295921216"><ele>748.1999999999999</ele><time>2026-04-26T15:13:26Z</time></trkpt><trkpt lat="37.64059556413434" lon="14.030528857238005"><ele>746.0</ele><time>2026-04-26T15:13:28Z</time></trkpt><trkpt lat="37.64051657693082" lon="14.030429217806839"><ele>746.0</ele><time>2026-04-26T15:13:30Z</time></trkpt><trkpt lat="37.64045215331309" lon="14.030334712307681"><ele>746.0</ele><time>2026-04-26T15:13:32Z</time></trkpt><trkpt lat="37.64037203915193" lon="14.030241207120678"><ele>746.0</ele><time>2026-04-26T15:13:34Z</time></trkpt><trkpt lat="37.640282862327766" lon="14.03016533036193"><ele>746.0</ele><time>2026-04-26T15:13:36Z</time></trkpt><trkpt lat="37.64022357108968" lon="14.030079029275655"><ele>746.0</ele><time>2026-04-26T15:13:39Z</time></trkpt><trkpt lat="37.64018126050779" lon="14.030018718534443"><ele>744.8333333333333</ele><time>2026-04-26T15:13:42Z</time></trkpt><trkpt lat="37.64013455974292" lon="14.029956853038772"><ele>743.6666666666666</ele><time>2026-04-26T15:13:44Z</time></trkpt><trkpt lat="37.64005307300579" lon="14.029880967286271"><ele>742.5</ele><time>2026-04-26T15:13:46Z</time></trkpt><trkpt lat="37.63999117811095" lon="14.029845890161877"><ele>741.3333333333334</ele><time>2026-04-26T15:13:47Z</time></trkpt><trkpt lat="37.639904211001316" lon="14.029737936752495"><ele>740.1666666666667</ele><time>2026-04-26T15:13:49Z</time></trkpt><trkpt lat="37.63983592276023" lon="14.029664128271525"><ele>739.0</ele><time>2026-04-26T15:13:51Z</time></trkpt><trkpt lat="37.63977179980026" lon="14.029564348038942"><ele>739.0</ele><time>2026-04-26T15:13:53Z</time></trkpt><trkpt lat="37.639697698526106" lon="14.029454308216028"><ele>739.0</ele><time>2026-04-26T15:13:55Z</time></trkpt><trkpt lat="37.63960647668043" lon="14.029345069702115"><ele>739.0</ele><time>2026-04-26T15:13:57Z</time></trkpt><trkpt lat="37.63955985931643" lon="14.029281703751268"><ele>739.0</ele><time>2026-04-26T15:13:58Z</time></trkpt><trkpt lat="37.6394611709901" lon="14.029177499540635"><ele>739.0</ele><time>2026-04-26T15:14:00Z</time></trkpt><trkpt lat="37.63941253246271" lon="14.029113559262749"><ele>737.5</ele><time>2026-04-26T15:14:01Z</time></trkpt><trkpt lat="37.63936005154467" lon="14.029046647072063"><ele>736.0</ele><time>2026-04-26T15:14:02Z</time></trkpt><trkpt lat="37.639313108594266" lon="14.02898350865704"><ele>734.5</ele><time>2026-04-26T15:14:03Z</time></trkpt><trkpt lat="37.63927378743635" lon="14.028911684863443"><ele>733.0</ele><time>2026-04-26T15:14:04Z</time></trkpt><trkpt lat="37.63924139993251" lon="14.028838017428894"><ele>731.5</ele><time>2026-04-26T15:14:05Z</time></trkpt><trkpt lat="37.63920481701937" lon="14.028704617555249"><ele>730.0</ele><time>2026-04-26T15:14:07Z</time></trkpt><trkpt lat="37.63923226133155" lon="14.02860678839349"><ele>730.0</ele><time>2026-04-26T15:14:14.999Z</time></trkpt><trkpt lat="37.63924194645278" lon="14.028498476601817"><ele>730.0</ele><time>2026-04-26T15:14:16.999Z</time></trkpt><trkpt lat="37.63925687385306" lon="14.028390344373468"><ele>730.0</ele><time>2026-04-26T15:14:18.999Z</time></trkpt><trkpt lat="37.639267207151505" lon="14.02827903876267"><ele>730.0</ele><time>2026-04-26T15:14:23.999Z</time></trkpt><trkpt lat="37.6392838355229" lon="14.028153456702773"><ele>730.0</ele><time>2026-04-26T15:14:25.999Z</time></trkpt><trkpt lat="37.63930519824187" lon="14.028011538921293"><ele>728.8</ele><time>2026-04-26T15:14:27.999Z</time></trkpt><trkpt lat="37.639319517092424" lon="14.027862384245697"><ele>727.6</ele><time>2026-04-26T15:14:29.999Z</time></trkpt><trkpt lat="37.639322933369186" lon="14.027773386973411"><ele>726.4000000000001</ele><time>2026-04-26T15:14:30.999Z</time></trkpt><trkpt lat="37.63931924233348" lon="14.027693946522403"><ele>725.2</ele><time>2026-04-26T15:14:31.999Z</time></trkpt><trkpt lat="37.639307239905555" lon="14.027539800406762"><ele>724.0</ele><time>2026-04-26T15:14:33.999Z</time></trkpt><trkpt lat="37.639285550240835" lon="14.027388692316354"><ele>723.8333333333334</ele><time>2026-04-26T15:14:35.999Z</time></trkpt><trkpt lat="37.63927412236886" lon="14.02730318508451"><ele>723.6666666666667</ele><time>2026-04-26T15:14:36.999Z</time></trkpt><trkpt lat="37.63926187843051" lon="14.027220033449606"><ele>723.5</ele><time>2026-04-26T15:14:37.999Z</time></trkpt><trkpt lat="37.63924613028356" lon="14.027141528458763"><ele>723.3333333333334</ele><time>2026-04-26T15:14:38.999Z</time></trkpt><trkpt lat="37.6392137303745" lon="14.026989135860637"><ele>723.1666666666666</ele><time>2026-04-26T15:14:40.999Z</time></trkpt><trkpt lat="37.63919121940044" lon="14.02684434818154"><ele>723.0</ele><time>2026-04-26T15:14:42.999Z</time></trkpt><trkpt lat="37.63916404688987" lon="14.026705443698742"><ele>723.25</ele><time>2026-04-26T15:14:44.999Z</time></trkpt><trkpt lat="37.63914399309935" lon="14.026557588713"><ele>723.5</ele><time>2026-04-26T15:14:46.999Z</time></trkpt><trkpt lat="37.63913282166618" lon="14.026406568257586"><ele>723.75</ele><time>2026-04-26T15:14:48.999Z</time></trkpt><trkpt lat="37.63913748945098" lon="14.02625161817001"><ele>724.0</ele><time>2026-04-26T15:14:50.999Z</time></trkpt><trkpt lat="37.63914915420566" lon="14.026103089663373"><ele>724.0</ele><time>2026-04-26T15:14:52.999Z</time></trkpt><trkpt lat="37.63916355516972" lon="14.025943975084479"><ele>724.0</ele><time>2026-04-26T15:14:54.999Z</time></trkpt><trkpt lat="37.63916687956037" lon="14.025803879263462"><ele>724.0</ele><time>2026-04-26T15:14:56.999Z</time></trkpt><trkpt lat="37.63918274197422" lon="14.025680522081982"><ele>724.0</ele><time>2026-04-26T15:14:58.999Z</time></trkpt><trkpt lat="37.639196710040814" lon="14.02559026179708"><ele>724.0</ele><time>2026-04-26T15:15:00.999Z</time></trkpt><trkpt lat="37.63921482395228" lon="14.025460392002373"><ele>723.8000000000001</ele><time>2026-04-26T15:15:02.999Z</time></trkpt><trkpt lat="37.63921553432633" lon="14.025376534656367"><ele>723.6</ele><time>2026-04-26T15:15:03.999Z</time></trkpt><trkpt lat="37.63922767326141" lon="14.025238905463844"><ele>723.4</ele><time>2026-04-26T15:15:05.999Z</time></trkpt><trkpt lat="37.63922330002057" lon="14.02509714431658"><ele>723.2</ele><time>2026-04-26T15:15:07.999Z</time></trkpt><trkpt lat="37.63923040163485" lon="14.02496431389773"><ele>723.0</ele><time>2026-04-26T15:15:09.999Z</time></trkpt><trkpt lat="37.63924381548804" lon="14.024801719360717"><ele>723.0</ele><time>2026-04-26T15:15:11.999Z</time></trkpt><trkpt lat="37.63925601222228" lon="14.024665629920124"><ele>723.0</ele><time>2026-04-26T15:15:13.999Z</time></trkpt><trkpt lat="37.639145596053474" lon="14.024737593895932"><ele>723.0</ele><time>2026-04-26T15:15:21Z</time></trkpt><trkpt lat="37.639097344700495" lon="14.024848641784661"><ele>723.0</ele><time>2026-04-26T15:15:23Z</time></trkpt><trkpt lat="37.63906566628282" lon="14.024921547737911"><ele>723.0</ele><time>2026-04-26T15:15:24Z</time></trkpt><trkpt lat="37.639030952370234" lon="14.025001372607376"><ele>723.0000000000001</ele><time>2026-04-26T15:15:25Z</time></trkpt><trkpt lat="37.63899672707265" lon="14.025082028470221"><ele>723.0</ele><time>2026-04-26T15:15:26Z</time></trkpt><trkpt lat="37.638962898109575" lon="14.02516175025982"><ele>723.0</ele><time>2026-04-26T15:15:27Z</time></trkpt><trkpt lat="37.63892702763567" lon="14.025246092195793"><ele>723.0</ele><time>2026-04-26T15:15:28Z</time></trkpt><trkpt lat="37.63889163642063" lon="14.025328669859597"><ele>723.0</ele><time>2026-04-26T15:15:29Z</time></trkpt><trkpt lat="37.63885760101851" lon="14.025408084198252"><ele>723.0000000000001</ele><time>2026-04-26T15:15:30Z</time></trkpt><trkpt lat="37.63882355158991" lon="14.025487531162728"><ele>723.0</ele><time>2026-04-26T15:15:31Z</time></trkpt><trkpt lat="37.638787716491926" lon="14.025571144615938"><ele>723.0</ele><time>2026-04-26T15:15:32Z</time></trkpt><trkpt lat="37.63874978583455" lon="14.025659647815207"><ele>723.0</ele><time>2026-04-26T15:15:33Z</time></trkpt><trkpt lat="37.63871098528903" lon="14.025750180314132"><ele>723.0</ele><time>2026-04-26T15:15:34Z</time></trkpt><trkpt lat="37.638672070620125" lon="14.02584097932929"><ele>723.0</ele><time>2026-04-26T15:15:35Z</time></trkpt><trkpt lat="37.63863259227584" lon="14.025933093449417"><ele>723.0</ele><time>2026-04-26T15:15:36Z</time></trkpt><trkpt lat="37.63859317843805" lon="14.02602505714224"><ele>723.0</ele><time>2026-04-26T15:15:37Z</time></trkpt><trkpt lat="37.63855471236183" lon="14.026114809425053"><ele>720.3333333333334</ele><time>2026-04-26T15:15:38Z</time></trkpt><trkpt lat="37.638531505383895" lon="14.02621200632932"><ele>717.6666666666666</ele><time>2026-04-26T15:15:39Z</time></trkpt><trkpt lat="37.63847822986463" lon="14.026293264839914"><ele>715.0</ele><time>2026-04-26T15:15:40Z</time></trkpt><trkpt lat="37.63843803668852" lon="14.026387046946947"><ele>712.3333333333333</ele><time>2026-04-26T15:15:41Z</time></trkpt><trkpt lat="37.63839417038475" lon="14.026489399475443"><ele>709.6666666666666</ele><time>2026-04-26T15:15:42Z</time></trkpt><trkpt lat="37.63834726893591" lon="14.026598833886013"><ele>707.0</ele><time>2026-04-26T15:15:43Z</time></trkpt><trkpt lat="37.63830147820826" lon="14.026705676671806"><ele>707.0</ele><time>2026-04-26T15:15:44Z</time></trkpt><trkpt lat="37.63825782751336" lon="14.026807485997713"><ele>707.0</ele><time>2026-04-26T15:15:45Z</time></trkpt><trkpt lat="37.63821417651443" lon="14.026907242323821"><ele>707.0</ele><time>2026-04-26T15:15:46Z</time></trkpt><trkpt lat="37.638169226365854" lon="14.027009967494319"><ele>707.0</ele><time>2026-04-26T15:15:47Z</time></trkpt><trkpt lat="37.638126009482356" lon="14.027108731615353"><ele>707.0</ele><time>2026-04-26T15:15:48Z</time></trkpt><trkpt lat="37.638083911355395" lon="14.027204938914949"><ele>707.0</ele><time>2026-04-26T15:15:49Z</time></trkpt><trkpt lat="37.63804408080008" lon="14.027296566178292"><ele>707.0</ele><time>2026-04-26T15:15:50Z</time></trkpt><trkpt lat="37.63800536099114" lon="14.027385696632068"><ele>707.0</ele><time>2026-04-26T15:15:51Z</time></trkpt><trkpt lat="37.637968808442835" lon="14.027466161375491"><ele>707.0</ele><time>2026-04-26T15:15:52Z</time></trkpt><trkpt lat="37.63792389062185" lon="14.027535566327007"><ele>707.0</ele><time>2026-04-26T15:15:53Z</time></trkpt><trkpt lat="37.63786047313237" lon="14.027592769006816"><ele>707.0</ele><time>2026-04-26T15:15:54Z</time></trkpt><trkpt lat="37.63778815957445" lon="14.0276465782882"><ele>706.4285714285714</ele><time>2026-04-26T15:15:55Z</time></trkpt><trkpt lat="37.63771196680542" lon="14.027695491431711"><ele>705.8571428571429</ele><time>2026-04-26T15:15:56Z</time></trkpt><trkpt lat="37.63763827993602" lon="14.02774267494393"><ele>705.2857142857142</ele><time>2026-04-26T15:15:57Z</time></trkpt><trkpt lat="37.63758360286993" lon="14.027802990639271"><ele>704.7142857142858</ele><time>2026-04-26T15:15:58Z</time></trkpt><trkpt lat="37.63752600599277" lon="14.0278436558657"><ele>704.1428571428571</ele><time>2026-04-26T15:15:59Z</time></trkpt><trkpt lat="37.6374707277207" lon="14.027892929608589"><ele>703.5714285714286</ele><time>2026-04-26T15:16:00Z</time></trkpt><trkpt lat="37.63740800264896" lon="14.027930106783614"><ele>703.0</ele><time>2026-04-26T15:16:01Z</time></trkpt><trkpt lat="37.63735772390435" lon="14.027991799427323"><ele>703.0</ele><time>2026-04-26T15:16:02Z</time></trkpt><trkpt lat="37.63731931769467" lon="14.028065999282257"><ele>703.0</ele><time>2026-04-26T15:16:03Z</time></trkpt><trkpt lat="37.63729746267137" lon="14.028152752198848"><ele>703.0</ele><time>2026-04-26T15:16:04Z</time></trkpt><trkpt lat="37.63732133201029" lon="14.028249341052842"><ele>703.0</ele><time>2026-04-26T15:16:05Z</time></trkpt><trkpt lat="37.63733718172136" lon="14.028346978975351"><ele>703.0</ele><time>2026-04-26T15:16:06Z</time></trkpt><trkpt lat="37.63733435507224" lon="14.028459736403043"><ele>703.0</ele><time>2026-04-26T15:16:07Z</time></trkpt><trkpt lat="37.637342580088415" lon="14.02857858313359"><ele>703.0</ele><time>2026-04-26T15:16:08Z</time></trkpt><trkpt lat="37.6373485465136" lon="14.028699203302116"><ele>703.0</ele><time>2026-04-26T15:16:09Z</time></trkpt><trkpt lat="37.637352770745565" lon="14.028822448256054"><ele>703.0</ele><time>2026-04-26T15:16:10Z</time></trkpt><trkpt lat="37.63735659614462" lon="14.02894257541913"><ele>703.0</ele><time>2026-04-26T15:16:11Z</time></trkpt><trkpt lat="37.637359930429255" lon="14.029057075932613"><ele>703.0</ele><time>2026-04-26T15:16:12Z</time></trkpt><trkpt lat="37.63736335936127" lon="14.029174826576686"><ele>703.0</ele><time>2026-04-26T15:16:13Z</time></trkpt><trkpt lat="37.637366811784624" lon="14.02929338396827"><ele>703.0</ele><time>2026-04-26T15:16:14Z</time></trkpt><trkpt lat="37.63737019073386" lon="14.029409418209383"><ele>703.0</ele><time>2026-04-26T15:16:15Z</time></trkpt><trkpt lat="37.6373735263746" lon="14.02952396526138"><ele>703.0</ele><time>2026-04-26T15:16:16Z</time></trkpt><trkpt lat="37.63737672433291" lon="14.029637048010654"><ele>703.0</ele><time>2026-04-26T15:16:17Z</time></trkpt><trkpt lat="37.63739536674655" lon="14.02974552118927"><ele>703.0</ele><time>2026-04-26T15:16:18Z</time></trkpt><trkpt lat="37.6373947381127" lon="14.029850393051833"><ele>703.0</ele><time>2026-04-26T15:16:18.999Z</time></trkpt><trkpt lat="37.63739509807452" lon="14.029953840780296"><ele>703.0</ele><time>2026-04-26T15:16:19.999Z</time></trkpt><trkpt lat="37.637399275616325" lon="14.030060559238388"><ele>703.0</ele><time>2026-04-26T15:16:20.999Z</time></trkpt><trkpt lat="37.63740427943186" lon="14.030165005234746"><ele>703.0</ele><time>2026-04-26T15:16:21.999Z</time></trkpt><trkpt lat="37.6374105575064" lon="14.030271058193678"><ele>703.0</ele><time>2026-04-26T15:16:22.999Z</time></trkpt><trkpt lat="37.637401622741024" lon="14.030376144319325"><ele>701.6666666666667</ele><time>2026-04-26T15:16:23.999Z</time></trkpt><trkpt lat="37.637407499509074" lon="14.030476948174073"><ele>700.3333333333334</ele><time>2026-04-26T15:16:24.999Z</time></trkpt><trkpt lat="37.63741464342279" lon="14.030578023483839"><ele>699.0</ele><time>2026-04-26T15:16:25.999Z</time></trkpt><trkpt lat="37.63741980501907" lon="14.030680875945448"><ele>697.6666666666666</ele><time>2026-04-26T15:16:26.999Z</time></trkpt><trkpt lat="37.63741645868837" lon="14.03078675411392"><ele>696.3333333333333</ele><time>2026-04-26T15:16:27.999Z</time></trkpt><trkpt lat="37.637404680986094" lon="14.030889623618398"><ele>695.0</ele><time>2026-04-26T15:16:28.999Z</time></trkpt><trkpt lat="37.63739050526173" lon="14.030994386550242"><ele>694.1666666666666</ele><time>2026-04-26T15:16:29.999Z</time></trkpt><trkpt lat="37.63737492725393" lon="14.031099490807703"><ele>693.3333333333333</ele><time>2026-04-26T15:16:30.999Z</time></trkpt><trkpt lat="37.637359363320485" lon="14.03120437825801"><ele>692.5</ele><time>2026-04-26T15:16:31.999Z</time></trkpt><trkpt lat="37.637345037524334" lon="14.031307880429866"><ele>691.6666666666666</ele><time>2026-04-26T15:16:32.999Z</time></trkpt><trkpt lat="37.637333568683204" lon="14.031418277236302"><ele>690.8333333333334</ele><time>2026-04-26T15:16:33.999Z</time></trkpt><trkpt lat="37.637343999747905" lon="14.031531117971126"><ele>690.0</ele><time>2026-04-26T15:16:34.999Z</time></trkpt><trkpt lat="37.63732756635893" lon="14.031641548825418"><ele>689.3333333333334</ele><time>2026-04-26T15:16:35.999Z</time></trkpt><trkpt lat="37.637329640030394" lon="14.031756666344542"><ele>688.6666666666666</ele><time>2026-04-26T15:16:36.999Z</time></trkpt><trkpt lat="37.63733283704899" lon="14.031871790350504"><ele>688.0</ele><time>2026-04-26T15:16:37.999Z</time></trkpt><trkpt lat="37.63733136924104" lon="14.031988338269239"><ele>687.3333333333333</ele><time>2026-04-26T15:16:38.999Z</time></trkpt><trkpt lat="37.63731977457523" lon="14.032100335405763"><ele>686.6666666666666</ele><time>2026-04-26T15:16:39.999Z</time></trkpt><trkpt lat="37.63728744881819" lon="14.032198536998637"><ele>686.0</ele><time>2026-04-26T15:16:40.999Z</time></trkpt><trkpt lat="37.637254810792705" lon="14.032300517793447"><ele>686.0</ele><time>2026-04-26T15:16:41.999Z</time></trkpt><trkpt lat="37.637220160057225" lon="14.03240202340744"><ele>686.0</ele><time>2026-04-26T15:16:42.999Z</time></trkpt><trkpt lat="37.637184899892496" lon="14.032505314308583"><ele>686.0</ele><time>2026-04-26T15:16:43.999Z</time></trkpt><trkpt lat="37.63715018477382" lon="14.032607008594312"><ele>686.0</ele><time>2026-04-26T15:16:44.999Z</time></trkpt><trkpt lat="37.63711547807366" lon="14.032708677965593"><ele>686.0</ele><time>2026-04-26T15:16:45.999Z</time></trkpt><trkpt lat="37.637080009311255" lon="14.032814737281628"><ele>686.0</ele><time>2026-04-26T15:16:46.999Z</time></trkpt><trkpt lat="37.63704474852832" lon="14.032924496389747"><ele>685.5999999999999</ele><time>2026-04-26T15:16:47.999Z</time></trkpt><trkpt lat="37.63701055695843" lon="14.03303391757627"><ele>685.2</ele><time>2026-04-26T15:16:48.999Z</time></trkpt><trkpt lat="37.63698042429741" lon="14.033145084384955"><ele>684.8</ele><time>2026-04-26T15:16:49.999Z</time></trkpt><trkpt lat="37.63695507524889" lon="14.033259074337069"><ele>684.4000000000001</ele><time>2026-04-26T15:16:50.999Z</time></trkpt><trkpt lat="37.63693122750232" lon="14.03337565458079"><ele>684.0</ele><time>2026-04-26T15:16:51.999Z</time></trkpt><trkpt lat="37.63690749060138" lon="14.03349169278179"><ele>681.2</ele><time>2026-04-26T15:16:52.999Z</time></trkpt><trkpt lat="37.636883377931404" lon="14.033609568078674"><ele>678.4000000000001</ele><time>2026-04-26T15:16:53.999Z</time></trkpt><trkpt lat="37.636859074517716" lon="14.033728375663713"><ele>675.6</ele><time>2026-04-26T15:16:54.999Z</time></trkpt><trkpt lat="37.636835353623276" lon="14.03384433564528"><ele>672.8</ele><time>2026-04-26T15:16:55.999Z</time></trkpt><trkpt lat="37.63681138218164" lon="14.033961798111287"><ele>670.0</ele><time>2026-04-26T15:16:56.999Z</time></trkpt><trkpt lat="37.63678875181002" lon="14.03407743309154"><ele>669.4</ele><time>2026-04-26T15:16:57.999Z</time></trkpt><trkpt lat="37.63676607702671" lon="14.034193295233067"><ele>668.8</ele><time>2026-04-26T15:16:58.999Z</time></trkpt><trkpt lat="37.63674365511865" lon="14.034307865199557"><ele>668.2</ele><time>2026-04-26T15:16:59.999Z</time></trkpt><trkpt lat="37.63672191522658" lon="14.034418950195793"><ele>667.6</ele><time>2026-04-26T15:17:00.999Z</time></trkpt><trkpt lat="37.6367015901392" lon="14.034532177690007"><ele>667.0</ele><time>2026-04-26T15:17:01.999Z</time></trkpt><trkpt lat="37.636697658327684" lon="14.03464407548837"><ele>667.0</ele><time>2026-04-26T15:17:02.999Z</time></trkpt><trkpt lat="37.63667228306569" lon="14.034750799298026"><ele>667.0</ele><time>2026-04-26T15:17:03.999Z</time></trkpt><trkpt lat="37.636657440041304" lon="14.034854717765008"><ele>667.0</ele><time>2026-04-26T15:17:04.999Z</time></trkpt><trkpt lat="37.63664812546669" lon="14.03496213175148"><ele>667.0</ele><time>2026-04-26T15:17:05.999Z</time></trkpt><trkpt lat="37.63663782341666" lon="14.03506901219786"><ele>667.0</ele><time>2026-04-26T15:17:06.999Z</time></trkpt><trkpt lat="37.63662930029692" lon="14.035178594548958"><ele>667.0</ele><time>2026-04-26T15:17:07.999Z</time></trkpt><trkpt lat="37.636601611354955" lon="14.035282207709253"><ele>667.0</ele><time>2026-04-26T15:17:08.999Z</time></trkpt><trkpt lat="37.63660641044674" lon="14.035388115088292"><ele>667.0</ele><time>2026-04-26T15:17:09.999Z</time></trkpt><trkpt lat="37.63659665771355" lon="14.035481768508147"><ele>667.0</ele><time>2026-04-26T15:17:10.999Z</time></trkpt><trkpt lat="37.63657654588609" lon="14.035617949811291"><ele>667.0</ele><time>2026-04-26T15:17:12.999Z</time></trkpt><trkpt lat="37.63655122933206" lon="14.035713463428502"><ele>667.0</ele><time>2026-04-26T15:17:14.999Z</time></trkpt><trkpt lat="37.636470092130274" lon="14.035731581355746"><ele>667.0</ele><time>2026-04-26T15:17:17.999Z</time></trkpt><trkpt lat="37.636408544378206" lon="14.035647327685853"><ele>667.0</ele><time>2026-04-26T15:17:19.999Z</time></trkpt><trkpt lat="37.63633183589831" lon="14.035549566916478"><ele>667.0</ele><time>2026-04-26T15:17:21.999Z</time></trkpt><trkpt lat="37.6362406533434" lon="14.035452686071753"><ele>667.0</ele><time>2026-04-26T15:17:23.999Z</time></trkpt><trkpt lat="37.636167226454006" lon="14.035343758949258"><ele>667.0</ele><time>2026-04-26T15:17:25.999Z</time></trkpt><trkpt lat="37.63609732690417" lon="14.03522409821962"><ele>666.2</ele><time>2026-04-26T15:17:28Z</time></trkpt><trkpt lat="37.636029440620085" lon="14.035102378363119"><ele>665.4000000000001</ele><time>2026-04-26T15:17:30Z</time></trkpt><trkpt lat="37.635965430279946" lon="14.034974936251606"><ele>664.5999999999999</ele><time>2026-04-26T15:17:32Z</time></trkpt><trkpt lat="37.635934913576875" lon="14.03490413841774"><ele>663.8</ele><time>2026-04-26T15:17:33Z</time></trkpt><trkpt lat="37.63590794123005" lon="14.034832130991763"><ele>663.0</ele><time>2026-04-26T15:17:34Z</time></trkpt><trkpt lat="37.635857496752976" lon="14.034691135909464"><ele>662.5</ele><time>2026-04-26T15:17:36Z</time></trkpt><trkpt lat="37.63583111379961" lon="14.034618889057045"><ele>662.0</ele><time>2026-04-26T15:17:37Z</time></trkpt><trkpt lat="37.63580136325193" lon="14.034544902765376"><ele>661.5</ele><time>2026-04-26T15:17:38Z</time></trkpt><trkpt lat="37.63577092627893" lon="14.034472183415614"><ele>661.0</ele><time>2026-04-26T15:17:39Z</time></trkpt><trkpt lat="37.63571186459177" lon="14.034341149259681"><ele>660.5</ele><time>2026-04-26T15:17:41Z</time></trkpt><trkpt lat="37.635644630107485" lon="14.034219910211455"><ele>660.0</ele><time>2026-04-26T15:17:43Z</time></trkpt><trkpt lat="37.6356086443463" lon="14.034152620316528"><ele>659.5</ele><time>2026-04-26T15:17:44Z</time></trkpt><trkpt lat="37.635549504376" lon="14.034024635566805"><ele>659.0</ele><time>2026-04-26T15:17:46Z</time></trkpt><trkpt lat="37.63550446847589" lon="14.033893104249357"><ele>658.5</ele><time>2026-04-26T15:17:48Z</time></trkpt><trkpt lat="37.63547435541592" lon="14.033750476053374"><ele>658.0</ele><time>2026-04-26T15:17:50Z</time></trkpt><trkpt lat="37.635450370488904" lon="14.033602604323928"><ele>658.0</ele><time>2026-04-26T15:17:52Z</time></trkpt><trkpt lat="37.63541872914421" lon="14.033445616558842"><ele>658.0</ele><time>2026-04-26T15:17:54Z</time></trkpt><trkpt lat="37.63539473234471" lon="14.03335681903651"><ele>658.0</ele><time>2026-04-26T15:17:55Z</time></trkpt><trkpt lat="37.63537350142342" lon="14.033270238207265"><ele>658.0</ele><time>2026-04-26T15:17:56Z</time></trkpt><trkpt lat="37.63535531549525" lon="14.033185752344142"><ele>658.0</ele><time>2026-04-26T15:17:57Z</time></trkpt><trkpt lat="37.635335538894545" lon="14.03310280760534"><ele>658.0</ele><time>2026-04-26T15:17:58Z</time></trkpt><trkpt lat="37.635316713081544" lon="14.033020981936929"><ele>657.6666666666667</ele><time>2026-04-26T15:17:59Z</time></trkpt><trkpt lat="37.635294416712355" lon="14.032932794407953"><ele>657.3333333333334</ele><time>2026-04-26T15:18:00Z</time></trkpt><trkpt lat="37.63527268424379" lon="14.032848023858177"><ele>657.0</ele><time>2026-04-26T15:18:01Z</time></trkpt><trkpt lat="37.635273247397734" lon="14.03276808181396"><ele>656.6666666666666</ele><time>2026-04-26T15:18:02Z</time></trkpt><trkpt lat="37.63524728860948" lon="14.03263126374295"><ele>656.3333333333333</ele><time>2026-04-26T15:18:04Z</time></trkpt><trkpt lat="37.63523252615288" lon="14.032553456905106"><ele>656.0</ele><time>2026-04-26T15:18:05Z</time></trkpt><trkpt lat="37.63520347971428" lon="14.03240036503711"><ele>655.4285714285713</ele><time>2026-04-26T15:18:07Z</time></trkpt><trkpt lat="37.63518619477254" lon="14.032312141082791"><ele>654.8571428571429</ele><time>2026-04-26T15:18:08Z</time></trkpt><trkpt lat="37.6351674815652" lon="14.03223265619005"><ele>654.2857142857142</ele><time>2026-04-26T15:18:09Z</time></trkpt><trkpt lat="37.63514373387281" lon="14.032155124134041"><ele>653.7142857142857</ele><time>2026-04-26T15:18:10Z</time></trkpt><trkpt lat="37.635125414698145" lon="14.032070240809949"><ele>653.1428571428571</ele><time>2026-04-26T15:18:11Z</time></trkpt><trkpt lat="37.635107700701724" lon="14.03197494057213"><ele>652.5714285714286</ele><time>2026-04-26T15:18:12Z</time></trkpt><trkpt lat="37.635093241236305" lon="14.031874035027364"><ele>652.0</ele><time>2026-04-26T15:18:13Z</time></trkpt><trkpt lat="37.63507081599548" lon="14.031783269740272"><ele>652.0</ele><time>2026-04-26T15:18:14Z</time></trkpt><trkpt lat="37.63504942468712" lon="14.031696690301569"><ele>652.0</ele><time>2026-04-26T15:18:15Z</time></trkpt><trkpt lat="37.63492653358539" lon="14.03168960409488"><ele>652.0</ele><time>2026-04-26T15:18:16Z</time></trkpt><trkpt lat="37.63487402788891" lon="14.031604921264341"><ele>652.0</ele><time>2026-04-26T15:18:17Z</time></trkpt><trkpt lat="37.63484000608347" lon="14.031525293507972"><ele>652.0</ele><time>2026-04-26T15:18:18Z</time></trkpt><trkpt lat="37.634801801726965" lon="14.031461064800755"><ele>652.0</ele><time>2026-04-26T15:18:19Z</time></trkpt><trkpt lat="37.634757526371544" lon="14.031392865581951"><ele>652.2857142857143</ele><time>2026-04-26T15:18:20Z</time></trkpt><trkpt lat="37.6347151718293" lon="14.031317496514353"><ele>652.5714285714286</ele><time>2026-04-26T15:18:21Z</time></trkpt><trkpt lat="37.63467570551644" lon="14.031246784157416"><ele>652.8571428571429</ele><time>2026-04-26T15:18:22Z</time></trkpt><trkpt lat="37.63463334052213" lon="14.03117659302063"><ele>653.1428571428571</ele><time>2026-04-26T15:18:23Z</time></trkpt><trkpt lat="37.63459013407181" lon="14.031105005930494"><ele>653.4285714285714</ele><time>2026-04-26T15:18:23.999Z</time></trkpt><trkpt lat="37.634542823214574" lon="14.031025250625255"><ele>653.7142857142857</ele><time>2026-04-26T15:18:24.999Z</time></trkpt><trkpt lat="37.634492275130775" lon="14.030945810601578"><ele>654.0</ele><time>2026-04-26T15:18:25.999Z</time></trkpt><trkpt lat="37.63445232314454" lon="14.030857057996316"><ele>653.3333333333334</ele><time>2026-04-26T15:18:26.999Z</time></trkpt><trkpt lat="37.63440969881332" lon="14.030777721852253"><ele>652.6666666666666</ele><time>2026-04-26T15:18:27.999Z</time></trkpt><trkpt lat="37.634373728308944" lon="14.030703042581905"><ele>652.0</ele><time>2026-04-26T15:18:28.999Z</time></trkpt><trkpt lat="37.63434200114076" lon="14.030631729633033"><ele>651.3333333333333</ele><time>2026-04-26T15:18:29.999Z</time></trkpt><trkpt lat="37.6343269679397" lon="14.030551696252646"><ele>650.6666666666666</ele><time>2026-04-26T15:18:30.999Z</time></trkpt><trkpt lat="37.63428242992664" lon="14.030419985419485"><ele>650.0</ele><time>2026-04-26T15:18:32.999Z</time></trkpt><trkpt lat="37.63422149774541" lon="14.030279453360144"><ele>650.0</ele><time>2026-04-26T15:18:34.999Z</time></trkpt><trkpt lat="37.63415844804402" lon="14.0302296655873"><ele>650.0</ele><time>2026-04-26T15:18:35.999Z</time></trkpt><trkpt lat="37.634065441016574" lon="14.03021130551436"><ele>650.0</ele><time>2026-04-26T15:18:36.999Z</time></trkpt><trkpt lat="37.63392156023716" lon="14.030298301760917"><ele>650.0</ele><time>2026-04-26T15:18:38.999Z</time></trkpt><trkpt lat="37.63386088656246" lon="14.030320655013236"><ele>650.0</ele><time>2026-04-26T15:18:39.999Z</time></trkpt><trkpt lat="37.63378594387596" lon="14.030332313127937"><ele>650.0</ele><time>2026-04-26T15:18:40.999Z</time></trkpt><trkpt lat="37.63371623964629" lon="14.030321017015517"><ele>650.0</ele><time>2026-04-26T15:18:41.999Z</time></trkpt><trkpt lat="37.63365316993833" lon="14.030311614134977"><ele>650.0</ele><time>2026-04-26T15:18:42.999Z</time></trkpt><trkpt lat="37.63355388026666" lon="14.030287417164798"><ele>650.0</ele><time>2026-04-26T15:18:44.999Z</time></trkpt><trkpt lat="37.63347210951415" lon="14.030282954826715"><ele>650.0</ele><time>2026-04-26T15:18:46.999Z</time></trkpt><trkpt lat="37.633407447464556" lon="14.030260940817564"><ele>650.0</ele><time>2026-04-26T15:18:48.999Z</time></trkpt><trkpt lat="37.63338037187203" lon="14.03018829529014"><ele>650.0</ele><time>2026-04-26T15:18:50.999Z</time></trkpt><trkpt lat="37.63334063363335" lon="14.030113781268037"><ele>649.25</ele><time>2026-04-26T15:18:52.999Z</time></trkpt><trkpt lat="37.63317645379172" lon="14.030326339225555"><ele>648.5</ele><time>2026-04-26T15:18:53.999Z</time></trkpt><trkpt lat="37.63307572231581" lon="14.030261251638498"><ele>647.75</ele><time>2026-04-26T15:18:55.999Z</time></trkpt><trkpt lat="37.63301762492188" lon="14.03022946189266"><ele>647.0</ele><time>2026-04-26T15:18:56.999Z</time></trkpt><trkpt lat="37.63290477359648" lon="14.030166443939182"><ele>643.75</ele><time>2026-04-26T15:18:58.999Z</time></trkpt><trkpt lat="37.63280131042943" lon="14.030110985835396"><ele>640.5</ele><time>2026-04-26T15:19:00.999Z</time></trkpt><trkpt lat="37.632703235763096" lon="14.030056564342722"><ele>637.25</ele><time>2026-04-26T15:19:02.999Z</time></trkpt><trkpt lat="37.63259927134351" lon="14.02999412075994"><ele>634.0</ele><time>2026-04-26T15:19:04.999Z</time></trkpt><trkpt lat="37.63249201948621" lon="14.029931529992718"><ele>632.8</ele><time>2026-04-26T15:19:06.999Z</time></trkpt><trkpt lat="37.632381574203045" lon="14.029864497292072"><ele>631.5999999999999</ele><time>2026-04-26T15:19:08.999Z</time></trkpt><trkpt lat="37.632275891615905" lon="14.029792804446581"><ele>630.4</ele><time>2026-04-26T15:19:10.999Z</time></trkpt><trkpt lat="37.63218717692035" lon="14.029675688248865"><ele>629.1999999999999</ele><time>2026-04-26T15:19:12.999Z</time></trkpt><trkpt lat="37.63214563975612" lon="14.02960951911818"><ele>628.0</ele><time>2026-04-26T15:19:13.999Z</time></trkpt><trkpt lat="37.63209839202317" lon="14.02954900522811"><ele>628.0</ele><time>2026-04-26T15:19:14.999Z</time></trkpt><trkpt lat="37.63198882280619" lon="14.029493313770619"><ele>628.0</ele><time>2026-04-26T15:19:16.999Z</time></trkpt><trkpt lat="37.63190761631089" lon="14.02942546944893"><ele>628.0</ele><time>2026-04-26T15:19:18.999Z</time></trkpt><trkpt lat="37.6318454753953" lon="14.029329096291956"><ele>628.0</ele><time>2026-04-26T15:19:20.999Z</time></trkpt><trkpt lat="37.631783983305155" lon="14.02924030809103"><ele>628.0</ele><time>2026-04-26T15:19:22.999Z</time></trkpt><trkpt lat="37.631722736208935" lon="14.029124228094831"><ele>628.8</ele><time>2026-04-26T15:19:24.999Z</time></trkpt><trkpt lat="37.63166522425668" lon="14.029029527409072"><ele>629.5999999999999</ele><time>2026-04-26T15:19:26.999Z</time></trkpt><trkpt lat="37.6316065817223" lon="14.028917796313985"><ele>630.4000000000001</ele><time>2026-04-26T15:19:28.999Z</time></trkpt><trkpt lat="37.631542638460786" lon="14.028797708246236"><ele>631.2</ele><time>2026-04-26T15:19:30.999Z</time></trkpt><trkpt lat="37.631459146676804" lon="14.028690552505358"><ele>632.0</ele><time>2026-04-26T15:19:33Z</time></trkpt><trkpt lat="37.63137173679393" lon="14.028610751197114"><ele>632.0</ele><time>2026-04-26T15:19:35Z</time></trkpt><trkpt lat="37.63127506292569" lon="14.028522241775741"><ele>632.0</ele><time>2026-04-26T15:19:37Z</time></trkpt><trkpt lat="37.63116322502095" lon="14.028491055709566"><ele>632.0</ele><time>2026-04-26T15:19:39Z</time></trkpt><trkpt lat="37.63104804532551" lon="14.02851098207515"><ele>632.0</ele><time>2026-04-26T15:19:41Z</time></trkpt><trkpt lat="37.630942373949665" lon="14.028535167085895"><ele>632.2</ele><time>2026-04-26T15:19:43Z</time></trkpt><trkpt lat="37.63083736202363" lon="14.028554074612641"><ele>632.4000000000001</ele><time>2026-04-26T15:19:45Z</time></trkpt><trkpt lat="37.630729521093016" lon="14.028582084186548"><ele>632.5999999999999</ele><time>2026-04-26T15:19:47Z</time></trkpt><trkpt lat="37.630621163890886" lon="14.028632577972385"><ele>632.8</ele><time>2026-04-26T15:19:49Z</time></trkpt><trkpt lat="37.63052487165993" lon="14.028706043243341"><ele>633.0</ele><time>2026-04-26T15:19:51Z</time></trkpt><trkpt lat="37.63042987967789" lon="14.028783671880372"><ele>633.0</ele><time>2026-04-26T15:19:53Z</time></trkpt><trkpt lat="37.63033674981915" lon="14.028862038918685"><ele>633.0</ele><time>2026-04-26T15:19:55Z</time></trkpt><trkpt lat="37.63024113019051" lon="14.028942712025398"><ele>633.0</ele><time>2026-04-26T15:19:57Z</time></trkpt><trkpt lat="37.630143181186284" lon="14.029027871821045"><ele>633.0</ele><time>2026-04-26T15:19:59Z</time></trkpt><trkpt lat="37.63005240545699" lon="14.029109560941208"><ele>635.8333333333334</ele><time>2026-04-26T15:20:01Z</time></trkpt><trkpt lat="37.629951526284366" lon="14.029178496130504"><ele>638.6666666666666</ele><time>2026-04-26T15:20:03Z</time></trkpt><trkpt lat="37.62988347364279" lon="14.02920701942094"><ele>641.5</ele><time>2026-04-26T15:20:04Z</time></trkpt><trkpt lat="37.629807784341295" lon="14.029233146168039"><ele>644.3333333333333</ele><time>2026-04-26T15:20:05Z</time></trkpt><trkpt lat="37.62973502151492" lon="14.029252709685053"><ele>647.1666666666666</ele><time>2026-04-26T15:20:06Z</time></trkpt><trkpt lat="37.629669078900896" lon="14.029269125168739"><ele>650.0</ele><time>2026-04-26T15:20:07Z</time></trkpt><trkpt lat="37.62960613481135" lon="14.029284027086602"><ele>650.0</ele><time>2026-04-26T15:20:08Z</time></trkpt><trkpt lat="37.629513223369266" lon="14.029309099122226"><ele>650.0</ele><time>2026-04-26T15:20:10Z</time></trkpt><trkpt lat="37.62943661826269" lon="14.029325466831056"><ele>650.0</ele><time>2026-04-26T15:20:13Z</time></trkpt><trkpt lat="37.62936592499488" lon="14.029383070720156"><ele>650.0</ele><time>2026-04-26T15:20:15Z</time></trkpt><trkpt lat="37.62929574722987" lon="14.02944682442822"><ele>650.0</ele><time>2026-04-26T15:20:17Z</time></trkpt><trkpt lat="37.629246218748534" lon="14.029505832657463"><ele>650.0</ele><time>2026-04-26T15:20:19Z</time></trkpt><trkpt lat="37.629234674270094" lon="14.029590155848748"><ele>650.0</ele><time>2026-04-26T15:20:23Z</time></trkpt><trkpt lat="37.62929802123322" lon="14.029597130895132"><ele>650.0</ele><time>2026-04-26T15:20:26.999Z</time></trkpt><trkpt lat="37.62926335933029" lon="14.029508094616574"><ele>650.0</ele><time>2026-04-26T15:20:39.999Z</time></trkpt><trkpt lat="37.62930831073369" lon="14.029435248260775"><ele>650.0</ele><time>2026-04-26T15:20:41.999Z</time></trkpt><trkpt lat="37.629375671717" lon="14.029394481755675"><ele>650.0</ele><time>2026-04-26T15:20:43.999Z</time></trkpt><trkpt lat="37.62945756890213" lon="14.02933198645045"><ele>650.0</ele><time>2026-04-26T15:20:46.999Z</time></trkpt><trkpt lat="37.62952127524342" lon="14.029309939834386"><ele>650.0</ele><time>2026-04-26T15:20:49.999Z</time></trkpt><trkpt lat="37.629617095548255" lon="14.029279754793906"><ele>650.0</ele><time>2026-04-26T15:20:52.999Z</time></trkpt><trkpt lat="37.62968702898081" lon="14.029259134940403"><ele>650.0</ele><time>2026-04-26T15:20:54.999Z</time></trkpt><trkpt lat="37.629762317700546" lon="14.02924270285237"><ele>650.0</ele><time>2026-04-26T15:20:56.999Z</time></trkpt><trkpt lat="37.62985046394898" lon="14.029214787627664"><ele>650.0</ele><time>2026-04-26T15:20:58.999Z</time></trkpt><trkpt lat="37.629929822115976" lon="14.02918639911225"><ele>650.0</ele><time>2026-04-26T15:21:00.999Z</time></trkpt><trkpt lat="37.62998917199833" lon="14.029155248889117"><ele>648.3333333333333</ele><time>2026-04-26T15:21:02.999Z</time></trkpt><trkpt lat="37.630061574467526" lon="14.029095714607264"><ele>646.6666666666666</ele><time>2026-04-26T15:21:05.999Z</time></trkpt><trkpt lat="37.630136480276626" lon="14.029030898018839"><ele>645.0</ele><time>2026-04-26T15:21:08.999Z</time></trkpt><trkpt lat="37.63018998289018" lon="14.02898266647987"><ele>643.3333333333334</ele><time>2026-04-26T15:21:10.999Z</time></trkpt><trkpt lat="37.6302523892728" lon="14.028928690709423"><ele>641.6666666666667</ele><time>2026-04-26T15:21:12.999Z</time></trkpt><trkpt lat="37.6303164485162" lon="14.028871178382413"><ele>640.0</ele><time>2026-04-26T15:21:14.999Z</time></trkpt><trkpt lat="37.630384303670866" lon="14.028813985682108"><ele>638.6</ele><time>2026-04-26T15:21:16.999Z</time></trkpt><trkpt lat="37.6304536521304" lon="14.028758586274702"><ele>637.2</ele><time>2026-04-26T15:21:18.999Z</time></trkpt><trkpt lat="37.63052998111533" lon="14.028696734538027"><ele>635.8</ele><time>2026-04-26T15:21:20.999Z</time></trkpt><trkpt lat="37.63061509199964" lon="14.028633873078489"><ele>634.4</ele><time>2026-04-26T15:21:22.999Z</time></trkpt><trkpt lat="37.63070577728823" lon="14.028580764953064"><ele>633.0</ele><time>2026-04-26T15:21:24.999Z</time></trkpt><trkpt lat="37.63080466202212" lon="14.028556047016703"><ele>633.0</ele><time>2026-04-26T15:21:26.999Z</time></trkpt><trkpt lat="37.630896596157186" lon="14.028543111146234"><ele>633.0</ele><time>2026-04-26T15:21:28.999Z</time></trkpt><trkpt lat="37.630980477285725" lon="14.02852951160216"><ele>633.0</ele><time>2026-04-26T15:21:30.999Z</time></trkpt><trkpt lat="37.631070852343456" lon="14.028508261313787"><ele>633.0</ele><time>2026-04-26T15:21:32.999Z</time></trkpt><trkpt lat="37.63116028574283" lon="14.028498908474003"><ele>633.0</ele><time>2026-04-26T15:21:34.999Z</time></trkpt><trkpt lat="37.631252979712244" lon="14.02851215908552"><ele>632.8333333333334</ele><time>2026-04-26T15:21:36.999Z</time></trkpt><trkpt lat="37.63133378559566" lon="14.028565218100837"><ele>632.6666666666666</ele><time>2026-04-26T15:21:39Z</time></trkpt><trkpt lat="37.631403162605494" lon="14.028633469995661"><ele>632.5</ele><time>2026-04-26T15:21:41Z</time></trkpt><trkpt lat="37.63145901593677" lon="14.028694250671121"><ele>632.3333333333333</ele><time>2026-04-26T15:21:43Z</time></trkpt><trkpt lat="37.631520354505085" lon="14.028767020660345"><ele>632.1666666666666</ele><time>2026-04-26T15:21:45Z</time></trkpt><trkpt lat="37.63158078400493" lon="14.028867497670806"><ele>632.0</ele><time>2026-04-26T15:21:47Z</time></trkpt><trkpt lat="37.63162968024023" lon="14.028968148718596"><ele>632.0</ele><time>2026-04-26T15:21:49Z</time></trkpt><trkpt lat="37.631674837774135" lon="14.029075266483275"><ele>632.0</ele><time>2026-04-26T15:21:51Z</time></trkpt><trkpt lat="37.63173645116667" lon="14.029185844896505"><ele>632.0</ele><time>2026-04-26T15:21:53Z</time></trkpt><trkpt lat="37.63179654240023" lon="14.029297131018652"><ele>632.0</ele><time>2026-04-26T15:21:55Z</time></trkpt><trkpt lat="37.631865855351826" lon="14.029388530810293"><ele>632.0</ele><time>2026-04-26T15:21:57Z</time></trkpt><trkpt lat="37.631928766609235" lon="14.029464734670015"><ele>631.2</ele><time>2026-04-26T15:21:59Z</time></trkpt><trkpt lat="37.63201067417027" lon="14.029527272599221"><ele>630.4000000000001</ele><time>2026-04-26T15:22:01Z</time></trkpt><trkpt lat="37.632095525475314" lon="14.029569904895833"><ele>629.5999999999999</ele><time>2026-04-26T15:22:03Z</time></trkpt><trkpt lat="37.632144961493914" lon="14.029620366287183"><ele>628.8</ele><time>2026-04-26T15:22:05Z</time></trkpt><trkpt lat="37.63220421331926" lon="14.029709543087039"><ele>628.0</ele><time>2026-04-26T15:22:07Z</time></trkpt><trkpt lat="37.632282305769806" lon="14.029813053907397"><ele>627.9999999999999</ele><time>2026-04-26T15:22:09Z</time></trkpt><trkpt lat="37.63233775109113" lon="14.029856339936394"><ele>628.0</ele><time>2026-04-26T15:22:10Z</time></trkpt><trkpt lat="37.632396845448675" lon="14.029892616809821"><ele>628.0</ele><time>2026-04-26T15:22:11Z</time></trkpt><trkpt lat="37.63245793467863" lon="14.029925214335806"><ele>628.0</ele><time>2026-04-26T15:22:12Z</time></trkpt><trkpt lat="37.632525597938596" lon="14.029960275208412"><ele>628.0</ele><time>2026-04-26T15:22:13Z</time></trkpt><trkpt lat="37.63258491072673" lon="14.029996094639753"><ele>627.9999999999999</ele><time>2026-04-26T15:22:14Z</time></trkpt><trkpt lat="37.63264725165311" lon="14.030030189581078"><ele>628.0</ele><time>2026-04-26T15:22:15Z</time></trkpt><trkpt lat="37.63270567840769" lon="14.030064927571143"><ele>628.8571428571428</ele><time>2026-04-26T15:22:16Z</time></trkpt><trkpt lat="37.63276493175689" lon="14.030098223695125"><ele>629.7142857142857</ele><time>2026-04-26T15:22:17Z</time></trkpt><trkpt lat="37.63282420776601" lon="14.030130503905232"><ele>630.5714285714286</ele><time>2026-04-26T15:22:18Z</time></trkpt><trkpt lat="37.63288620223729" lon="14.030164931051203"><ele>631.4285714285713</ele><time>2026-04-26T15:22:19Z</time></trkpt><trkpt lat="37.63295055726746" lon="14.030200559450936"><ele>632.2857142857142</ele><time>2026-04-26T15:22:20Z</time></trkpt><trkpt lat="37.63301787731351" lon="14.030238160471564"><ele>633.1428571428571</ele><time>2026-04-26T15:22:21Z</time></trkpt><trkpt lat="37.63309037754578" lon="14.030280906625135"><ele>634.0</ele><time>2026-04-26T15:22:22Z</time></trkpt><trkpt lat="37.63316658171714" lon="14.030326808121563"><ele>636.1666666666667</ele><time>2026-04-26T15:22:23Z</time></trkpt><trkpt lat="37.6332388307553" lon="14.030368761899407"><ele>638.3333333333334</ele><time>2026-04-26T15:22:24Z</time></trkpt><trkpt lat="37.63330687852445" lon="14.030411136497513"><ele>640.5</ele><time>2026-04-26T15:22:25Z</time></trkpt><trkpt lat="37.63336977826765" lon="14.030437515388668"><ele>642.6666666666666</ele><time>2026-04-26T15:22:26Z</time></trkpt><trkpt lat="37.63347841179444" lon="14.030313797278072"><ele>644.8333333333333</ele><time>2026-04-26T15:22:28Z</time></trkpt><trkpt lat="37.63354939601779" lon="14.030329126321618"><ele>647.0</ele><time>2026-04-26T15:22:30Z</time></trkpt><trkpt lat="37.63364186248048" lon="14.03033417229162"><ele>647.6</ele><time>2026-04-26T15:22:31.999Z</time></trkpt><trkpt lat="37.63373724377861" lon="14.030358924543597"><ele>648.2</ele><time>2026-04-26T15:22:33.999Z</time></trkpt><trkpt lat="37.63385244471389" lon="14.030349945563716"><ele>648.8</ele><time>2026-04-26T15:22:35.999Z</time></trkpt><trkpt lat="37.63397444253479" lon="14.03032643083131"><ele>649.4</ele><time>2026-04-26T15:22:37.999Z</time></trkpt><trkpt lat="37.634034974489325" lon="14.030261533758608"><ele>650.0</ele><time>2026-04-26T15:22:38.999Z</time></trkpt><trkpt lat="37.63410821941854" lon="14.030255508177719"><ele>650.0</ele><time>2026-04-26T15:22:39.999Z</time></trkpt><trkpt lat="37.63417067965568" lon="14.0302689564692"><ele>650.0</ele><time>2026-04-26T15:22:40.999Z</time></trkpt><trkpt lat="37.63422941748874" lon="14.030311871914963"><ele>650.0</ele><time>2026-04-26T15:22:41.999Z</time></trkpt><trkpt lat="37.63426992917501" lon="14.030376930581422"><ele>650.0</ele><time>2026-04-26T15:22:42.999Z</time></trkpt><trkpt lat="37.63428294550936" lon="14.030534229415364"><ele>650.0</ele><time>2026-04-26T15:22:44.999Z</time></trkpt><trkpt lat="37.634314516948514" lon="14.030614695417862"><ele>650.0</ele><time>2026-04-26T15:22:45.999Z</time></trkpt><trkpt lat="37.63434467481965" lon="14.030690378775454"><ele>649.8333333333333</ele><time>2026-04-26T15:22:46.999Z</time></trkpt><trkpt lat="37.63440384383116" lon="14.030830896026385"><ele>649.6666666666666</ele><time>2026-04-26T15:22:48.999Z</time></trkpt><trkpt lat="37.63444137911582" lon="14.030910681467214"><ele>649.5</ele><time>2026-04-26T15:22:49.999Z</time></trkpt><trkpt lat="37.634485835826126" lon="14.030994903834104"><ele>649.3333333333334</ele><time>2026-04-26T15:22:50.999Z</time></trkpt><trkpt lat="37.634526455667" lon="14.031068437434158"><ele>649.1666666666667</ele><time>2026-04-26T15:22:51.999Z</time></trkpt><trkpt lat="37.63457479043152" lon="14.031130501094632"><ele>649.0</ele><time>2026-04-26T15:22:52.999Z</time></trkpt><trkpt lat="37.63460826813996" lon="14.031205179846342"><ele>649.4285714285713</ele><time>2026-04-26T15:22:53.999Z</time></trkpt><trkpt lat="37.63465465502146" lon="14.031274945052782"><ele>649.8571428571429</ele><time>2026-04-26T15:22:54.999Z</time></trkpt><trkpt lat="37.63468787799294" lon="14.03134413015852"><ele>650.2857142857142</ele><time>2026-04-26T15:22:55.999Z</time></trkpt><trkpt lat="37.63472738867093" lon="14.031412723378464"><ele>650.7142857142857</ele><time>2026-04-26T15:22:56.999Z</time></trkpt><trkpt lat="37.63477137451847" lon="14.031480476652861"><ele>651.1428571428571</ele><time>2026-04-26T15:22:57.999Z</time></trkpt><trkpt lat="37.63481535839825" lon="14.03154822731355"><ele>651.5714285714286</ele><time>2026-04-26T15:22:58.999Z</time></trkpt><trkpt lat="37.634842724521526" lon="14.031621441553357"><ele>652.0</ele><time>2026-04-26T15:22:59.999Z</time></trkpt><trkpt lat="37.63489287640745" lon="14.031705974809931"><ele>652.0</ele><time>2026-04-26T15:23:00.999Z</time></trkpt><trkpt lat="37.63494231593741" lon="14.031771086651851"><ele>652.0</ele><time>2026-04-26T15:23:01.999Z</time></trkpt><trkpt lat="37.6350242606353" lon="14.031797229563278"><ele>652.0</ele><time>2026-04-26T15:23:02.999Z</time></trkpt><trkpt lat="37.63505614032663" lon="14.031889330562631"><ele>652.0</ele><time>2026-04-26T15:23:03.999Z</time></trkpt><trkpt lat="37.635080544103474" lon="14.03197896454145"><ele>652.0</ele><time>2026-04-26T15:23:04.999Z</time></trkpt><trkpt lat="37.635096842176715" lon="14.03206390001357"><ele>652.0</ele><time>2026-04-26T15:23:05.999Z</time></trkpt><trkpt lat="37.635115344002884" lon="14.032146998032278"><ele>652.0</ele><time>2026-04-26T15:23:06.999Z</time></trkpt><trkpt lat="37.63515018293887" lon="14.032289405689053"><ele>652.0</ele><time>2026-04-26T15:23:08.999Z</time></trkpt><trkpt lat="37.63518965422632" lon="14.032437992220357"><ele>652.0</ele><time>2026-04-26T15:23:10.999Z</time></trkpt><trkpt lat="37.63520549309304" lon="14.032518349215463"><ele>652.0</ele><time>2026-04-26T15:23:11.999Z</time></trkpt><trkpt lat="37.63521997949771" lon="14.032597877959633"><ele>652.0</ele><time>2026-04-26T15:23:12.999Z</time></trkpt><trkpt lat="37.6352416952146" lon="14.032739063641912"><ele>652.0</ele><time>2026-04-26T15:23:14.999Z</time></trkpt><trkpt lat="37.63525955520952" lon="14.03287653165021"><ele>652.5714285714286</ele><time>2026-04-26T15:23:16.999Z</time></trkpt><trkpt lat="37.63527438746408" lon="14.032954706345977"><ele>653.1428571428571</ele><time>2026-04-26T15:23:17.999Z</time></trkpt><trkpt lat="37.63529321135473" lon="14.033046596817712"><ele>653.7142857142857</ele><time>2026-04-26T15:23:18.999Z</time></trkpt><trkpt lat="37.63531475386668" lon="14.033142500135313"><ele>654.2857142857142</ele><time>2026-04-26T15:23:19.999Z</time></trkpt><trkpt lat="37.63533503894724" lon="14.033231955146908"><ele>654.8571428571429</ele><time>2026-04-26T15:23:20.999Z</time></trkpt><trkpt lat="37.63535656534373" lon="14.033323149672603"><ele>655.4285714285713</ele><time>2026-04-26T15:23:21.999Z</time></trkpt><trkpt lat="37.635377856370475" lon="14.033413347232003"><ele>656.0</ele><time>2026-04-26T15:23:22.999Z</time></trkpt><trkpt lat="37.63539622601378" lon="14.033496174049407"><ele>656.3333333333333</ele><time>2026-04-26T15:23:23.999Z</time></trkpt><trkpt lat="37.63541969247837" lon="14.033654471156094"><ele>656.6666666666666</ele><time>2026-04-26T15:23:25.999Z</time></trkpt><trkpt lat="37.6354351573484" lon="14.033743814670645"><ele>657.0</ele><time>2026-04-26T15:23:26.999Z</time></trkpt><trkpt lat="37.63545685115039" lon="14.033831302854768"><ele>657.3333333333334</ele><time>2026-04-26T15:23:27.999Z</time></trkpt><trkpt lat="37.63548038782341" lon="14.033913938358742"><ele>657.6666666666667</ele><time>2026-04-26T15:23:28.999Z</time></trkpt><trkpt lat="37.635521477979985" lon="14.03398680932492"><ele>658.0</ele><time>2026-04-26T15:23:29.999Z</time></trkpt><trkpt lat="37.63555115206348" lon="14.034062030896832"><ele>658.0</ele><time>2026-04-26T15:23:30.999Z</time></trkpt><trkpt lat="37.63558547298945" lon="14.03413514982998"><ele>658.0</ele><time>2026-04-26T15:23:31.999Z</time></trkpt><trkpt lat="37.635622202914725" lon="14.034204281204484"><ele>658.0</ele><time>2026-04-26T15:23:32.999Z</time></trkpt><trkpt lat="37.63566107527855" lon="14.03427881842982"><ele>658.0</ele><time>2026-04-26T15:23:33.999Z</time></trkpt><trkpt lat="37.635703094357176" lon="14.034349119163386"><ele>658.0</ele><time>2026-04-26T15:23:34.999Z</time></trkpt><trkpt lat="37.63575232186436" lon="14.034490562172765"><ele>658.0</ele><time>2026-04-26T15:23:36.999Z</time></trkpt><trkpt lat="37.63578195801179" lon="14.034566666448612"><ele>658.3333333333334</ele><time>2026-04-26T15:23:37.999Z</time></trkpt><trkpt lat="37.635810585362954" lon="14.034641046278564"><ele>658.6666666666667</ele><time>2026-04-26T15:23:38.999Z</time></trkpt><trkpt lat="37.63587657264696" lon="14.034765387108099"><ele>659.0</ele><time>2026-04-26T15:23:40.999Z</time></trkpt><trkpt lat="37.635924078914485" lon="14.034903404729771"><ele>659.3333333333334</ele><time>2026-04-26T15:23:42.999Z</time></trkpt><trkpt lat="37.63595515182777" lon="14.034975557081555"><ele>659.6666666666666</ele><time>2026-04-26T15:23:43.999Z</time></trkpt><trkpt lat="37.635988541114635" lon="14.035046580647526"><ele>660.0</ele><time>2026-04-26T15:23:45Z</time></trkpt><trkpt lat="37.63601123164416" lon="14.035127113563052"><ele>660.5</ele><time>2026-04-26T15:23:46Z</time></trkpt><trkpt lat="37.63605132252583" lon="14.035202174477034"><ele>661.0</ele><time>2026-04-26T15:23:47Z</time></trkpt><trkpt lat="37.63609776397189" lon="14.035277327792716"><ele>661.5</ele><time>2026-04-26T15:23:48Z</time></trkpt><trkpt lat="37.636144428372326" lon="14.035349929953755"><ele>662.0</ele><time>2026-04-26T15:23:49Z</time></trkpt><trkpt lat="37.63619251285022" lon="14.035422402366049"><ele>662.5</ele><time>2026-04-26T15:23:50Z</time></trkpt><trkpt lat="37.63625692327803" lon="14.035482523752131"><ele>663.0</ele><time>2026-04-26T15:23:51Z</time></trkpt><trkpt lat="37.63630655385183" lon="14.035555551825725"><ele>663.3333333333334</ele><time>2026-04-26T15:23:52Z</time></trkpt><trkpt lat="37.636353507150766" lon="14.035618735874884"><ele>663.6666666666666</ele><time>2026-04-26T15:23:53Z</time></trkpt><trkpt lat="37.63643453811221" lon="14.035705681493557"><ele>664.0</ele><time>2026-04-26T15:23:55Z</time></trkpt><trkpt lat="37.63649938098094" lon="14.035762933656777"><ele>664.3333333333333</ele><time>2026-04-26T15:23:57Z</time></trkpt><trkpt lat="37.63654897205981" lon="14.035843447555092"><ele>664.6666666666666</ele><time>2026-04-26T15:24:00Z</time></trkpt><trkpt lat="37.63654367464871" lon="14.035946379265917"><ele>665.0</ele><time>2026-04-26T15:24:02Z</time></trkpt><trkpt lat="37.636512036001164" lon="14.03608071957033"><ele>665.0</ele><time>2026-04-26T15:24:04Z</time></trkpt><trkpt lat="37.63650007103799" lon="14.036164458319044"><ele>665.0</ele><time>2026-04-26T15:24:05Z</time></trkpt><trkpt lat="37.636492312194065" lon="14.036261280981638"><ele>665.0</ele><time>2026-04-26T15:24:06Z</time></trkpt><trkpt lat="37.636482019360514" lon="14.036351386853271"><ele>665.0</ele><time>2026-04-26T15:24:07Z</time></trkpt><trkpt lat="37.636472592937515" lon="14.036444974391323"><ele>665.0</ele><time>2026-04-26T15:24:08Z</time></trkpt><trkpt lat="37.63645691324475" lon="14.036540864587971"><ele>665.0</ele><time>2026-04-26T15:24:09Z</time></trkpt><trkpt lat="37.63644303078236" lon="14.036638457606266"><ele>665.0</ele><time>2026-04-26T15:24:10Z</time></trkpt><trkpt lat="37.63642634760652" lon="14.036743295574892"><ele>666.0</ele><time>2026-04-26T15:24:11Z</time></trkpt><trkpt lat="37.636409130084445" lon="14.036862506027607"><ele>667.0</ele><time>2026-04-26T15:24:12Z</time></trkpt><trkpt lat="37.63639148328454" lon="14.036984605646616"><ele>668.0</ele><time>2026-04-26T15:24:13Z</time></trkpt><trkpt lat="37.63637867744187" lon="14.037097696702318"><ele>669.0</ele><time>2026-04-26T15:24:14Z</time></trkpt><trkpt lat="37.636368047070995" lon="14.03720868549873"><ele>670.0</ele><time>2026-04-26T15:24:15Z</time></trkpt><trkpt lat="37.63635497277261" lon="14.037319199237366"><ele>670.0</ele><time>2026-04-26T15:24:16Z</time></trkpt><trkpt lat="37.63634379217073" lon="14.037427840935596"><ele>670.0</ele><time>2026-04-26T15:24:17Z</time></trkpt><trkpt lat="37.63633346075893" lon="14.03753473747877"><ele>670.0</ele><time>2026-04-26T15:24:18Z</time></trkpt><trkpt lat="37.636325388973276" lon="14.037640053686609"><ele>670.0</ele><time>2026-04-26T15:24:19Z</time></trkpt><trkpt lat="37.63631369017827" lon="14.037748071901555"><ele>670.0</ele><time>2026-04-26T15:24:20Z</time></trkpt><trkpt lat="37.636304084467234" lon="14.037848856666553"><ele>670.0</ele><time>2026-04-26T15:24:21Z</time></trkpt><trkpt lat="37.63628476435298" lon="14.037948897252503"><ele>671.1666666666667</ele><time>2026-04-26T15:24:22Z</time></trkpt><trkpt lat="37.63628525405997" lon="14.038051158871548"><ele>672.3333333333334</ele><time>2026-04-26T15:24:23Z</time></trkpt><trkpt lat="37.636280746510835" lon="14.038150539628724"><ele>673.5</ele><time>2026-04-26T15:24:24Z</time></trkpt><trkpt lat="37.63627182686788" lon="14.03824799277004"><ele>674.6666666666666</ele><time>2026-04-26T15:24:25Z</time></trkpt><trkpt lat="37.6362605193661" lon="14.03834680515273"><ele>675.8333333333333</ele><time>2026-04-26T15:24:26Z</time></trkpt><trkpt lat="37.636257372881765" lon="14.038435688418314"><ele>677.0</ele><time>2026-04-26T15:24:27Z</time></trkpt><trkpt lat="37.63625668880993" lon="14.038520968741794"><ele>677.6666666666666</ele><time>2026-04-26T15:24:28Z</time></trkpt><trkpt lat="37.63625131873843" lon="14.038606109553477"><ele>678.3333333333333</ele><time>2026-04-26T15:24:29Z</time></trkpt><trkpt lat="37.63624494567585" lon="14.038704025851585"><ele>679.0</ele><time>2026-04-26T15:24:30Z</time></trkpt><trkpt lat="37.636235014407696" lon="14.038806952743396"><ele>679.6666666666666</ele><time>2026-04-26T15:24:31Z</time></trkpt><trkpt lat="37.63622606890196" lon="14.038905111931562"><ele>680.3333333333334</ele><time>2026-04-26T15:24:32Z</time></trkpt><trkpt lat="37.636213027743004" lon="14.03900372486142"><ele>681.0</ele><time>2026-04-26T15:24:33Z</time></trkpt><trkpt lat="37.636202342045294" lon="14.039106172084448"><ele>681.8333333333334</ele><time>2026-04-26T15:24:34Z</time></trkpt><trkpt lat="37.63619229169571" lon="14.03920479699618"><ele>682.6666666666666</ele><time>2026-04-26T15:24:35Z</time></trkpt><trkpt lat="37.63618161819528" lon="14.039309321416237"><ele>683.5</ele><time>2026-04-26T15:24:36Z</time></trkpt><trkpt lat="37.63616987509545" lon="14.039416394717044"><ele>684.3333333333333</ele><time>2026-04-26T15:24:37Z</time></trkpt><trkpt lat="37.63615183964358" lon="14.039524415137759"><ele>685.1666666666666</ele><time>2026-04-26T15:24:38Z</time></trkpt><trkpt lat="37.63613414882787" lon="14.039635276203319"><ele>686.0</ele><time>2026-04-26T15:24:39Z</time></trkpt><trkpt lat="37.63611758119548" lon="14.039749775109405"><ele>687.3333333333333</ele><time>2026-04-26T15:24:40Z</time></trkpt><trkpt lat="37.63610156696236" lon="14.039848775154358"><ele>688.6666666666666</ele><time>2026-04-26T15:24:40.999Z</time></trkpt><trkpt lat="37.63608053931318" lon="14.039941446622766"><ele>690.0</ele><time>2026-04-26T15:24:41.999Z</time></trkpt><trkpt lat="37.63605203741283" lon="14.040031085619207"><ele>691.3333333333334</ele><time>2026-04-26T15:24:42.999Z</time></trkpt><trkpt lat="37.63602251594777" lon="14.040128805091134"><ele>692.6666666666667</ele><time>2026-04-26T15:24:43.999Z</time></trkpt><trkpt lat="37.635995380320566" lon="14.040226335225354"><ele>694.0</ele><time>2026-04-26T15:24:44.999Z</time></trkpt><trkpt lat="37.63596825227013" lon="14.040313299974828"><ele>694.3333333333334</ele><time>2026-04-26T15:24:45.999Z</time></trkpt><trkpt lat="37.63593754559867" lon="14.040401653535165"><ele>694.6666666666667</ele><time>2026-04-26T15:24:46.999Z</time></trkpt><trkpt lat="37.635905339790654" lon="14.040493303923725"><ele>695.0</ele><time>2026-04-26T15:24:47.999Z</time></trkpt><trkpt lat="37.63587022819192" lon="14.040591618647035"><ele>695.3333333333334</ele><time>2026-04-26T15:24:48.999Z</time></trkpt><trkpt lat="37.63583603021828" lon="14.04068774657612"><ele>695.6666666666666</ele><time>2026-04-26T15:24:49.999Z</time></trkpt><trkpt lat="37.63580378336123" lon="14.040784093818065"><ele>696.0</ele><time>2026-04-26T15:24:50.999Z</time></trkpt><trkpt lat="37.635770456664964" lon="14.040882474051914"><ele>696.0</ele><time>2026-04-26T15:24:51.999Z</time></trkpt><trkpt lat="37.635738764906144" lon="14.040987713574163"><ele>696.0</ele><time>2026-04-26T15:24:52.999Z</time></trkpt><trkpt lat="37.635707925951515" lon="14.041099659584797"><ele>696.0</ele><time>2026-04-26T15:24:53.999Z</time></trkpt><trkpt lat="37.63567170599265" lon="14.041220258374548"><ele>696.0</ele><time>2026-04-26T15:24:54.999Z</time></trkpt><trkpt lat="37.635637908422986" lon="14.041339870523343"><ele>696.0</ele><time>2026-04-26T15:24:55.999Z</time></trkpt><trkpt lat="37.635607426371756" lon="14.04146281964676"><ele>696.0</ele><time>2026-04-26T15:24:56.999Z</time></trkpt><trkpt lat="37.63557660394726" lon="14.04158850840575"><ele>696.0</ele><time>2026-04-26T15:24:57.999Z</time></trkpt><trkpt lat="37.6355444027042" lon="14.041706936498722"><ele>696.0</ele><time>2026-04-26T15:24:58.999Z</time></trkpt><trkpt lat="37.635511012280936" lon="14.041824028040745"><ele>696.0</ele><time>2026-04-26T15:24:59.999Z</time></trkpt><trkpt lat="37.63547681381519" lon="14.041939464176904"><ele>696.0</ele><time>2026-04-26T15:25:00.999Z</time></trkpt><trkpt lat="37.635445628068524" lon="14.042053424395359"><ele>697.0</ele><time>2026-04-26T15:25:01.999Z</time></trkpt><trkpt lat="37.63541918427691" lon="14.042174220236014"><ele>698.0</ele><time>2026-04-26T15:25:02.999Z</time></trkpt><trkpt lat="37.63540185589967" lon="14.042292662535884"><ele>699.0</ele><time>2026-04-26T15:25:03.999Z</time></trkpt><trkpt lat="37.63539042737595" lon="14.042405657742682"><ele>700.0</ele><time>2026-04-26T15:25:04.999Z</time></trkpt><trkpt lat="37.63538240294162" lon="14.042514662517258"><ele>701.0</ele><time>2026-04-26T15:25:05.999Z</time></trkpt><trkpt lat="37.63538061662276" lon="14.042610913092728"><ele>702.0</ele><time>2026-04-26T15:25:06.999Z</time></trkpt><trkpt lat="37.63538018588342" lon="14.042699021075885"><ele>701.8333333333334</ele><time>2026-04-26T15:25:07.999Z</time></trkpt><trkpt lat="37.635382094506774" lon="14.042781544581256"><ele>701.6666666666666</ele><time>2026-04-26T15:25:08.999Z</time></trkpt><trkpt lat="37.635377113258336" lon="14.04292074775289"><ele>701.5</ele><time>2026-04-26T15:25:10.999Z</time></trkpt><trkpt lat="37.635345410327524" lon="14.043020308111949"><ele>701.3333333333333</ele><time>2026-04-26T15:25:13.999Z</time></trkpt><trkpt lat="37.63527898694934" lon="14.043047276120001"><ele>701.1666666666666</ele><time>2026-04-26T15:25:15.999Z</time></trkpt><trkpt lat="37.63520173486205" lon="14.04299906511463"><ele>701.0</ele><time>2026-04-26T15:25:17.999Z</time></trkpt><trkpt lat="37.635125951536956" lon="14.042887955512326"><ele>701.0</ele><time>2026-04-26T15:25:19.999Z</time></trkpt><trkpt lat="37.63508028663339" lon="14.042822257570364"><ele>701.0</ele><time>2026-04-26T15:25:20.999Z</time></trkpt><trkpt lat="37.6350332160861" lon="14.04275665940977"><ele>701.0</ele><time>2026-04-26T15:25:21.999Z</time></trkpt><trkpt lat="37.63498710137511" lon="14.042687357731701"><ele>701.0</ele><time>2026-04-26T15:25:22.999Z</time></trkpt><trkpt lat="37.634937927545806" lon="14.042613809694256"><ele>701.0</ele><time>2026-04-26T15:25:23.999Z</time></trkpt><trkpt lat="37.634889376626006" lon="14.042537714538817"><ele>701.0</ele><time>2026-04-26T15:25:24.999Z</time></trkpt><trkpt lat="37.63484060755638" lon="14.042476143928406"><ele>701.0</ele><time>2026-04-26T15:25:25.999Z</time></trkpt><trkpt lat="37.634788720340374" lon="14.042410036669978"><ele>701.0</ele><time>2026-04-26T15:25:26.999Z</time></trkpt><trkpt lat="37.63473424196046" lon="14.042336589769283"><ele>701.0</ele><time>2026-04-26T15:25:27.999Z</time></trkpt><trkpt lat="37.6346790506409" lon="14.042258359082611"><ele>701.0</ele><time>2026-04-26T15:25:28.999Z</time></trkpt><trkpt lat="37.63462525371401" lon="14.042183595365385"><ele>701.0</ele><time>2026-04-26T15:25:29.999Z</time></trkpt><trkpt lat="37.63456609012351" lon="14.042106626969831"><ele>701.0</ele><time>2026-04-26T15:25:30.999Z</time></trkpt><trkpt lat="37.63450321091676" lon="14.042029298623198"><ele>701.0</ele><time>2026-04-26T15:25:31.999Z</time></trkpt><trkpt lat="37.634436317535865" lon="14.041951321708614"><ele>701.0</ele><time>2026-04-26T15:25:32.999Z</time></trkpt><trkpt lat="37.63436530541197" lon="14.04187724269577"><ele>701.0</ele><time>2026-04-26T15:25:33.999Z</time></trkpt><trkpt lat="37.634288375476395" lon="14.041808096411915"><ele>701.0</ele><time>2026-04-26T15:25:34.999Z</time></trkpt><trkpt lat="37.63421561509243" lon="14.041740548963654"><ele>701.0</ele><time>2026-04-26T15:25:35.999Z</time></trkpt><trkpt lat="37.634145048768694" lon="14.04167230965545"><ele>701.0</ele><time>2026-04-26T15:25:36.999Z</time></trkpt><trkpt lat="37.634070720304514" lon="14.041596677737386"><ele>702.5999999999999</ele><time>2026-04-26T15:25:37.999Z</time></trkpt><trkpt lat="37.63399884017195" lon="14.041516451086661"><ele>704.2</ele><time>2026-04-26T15:25:38.999Z</time></trkpt><trkpt lat="37.633932706485886" lon="14.04142625027431"><ele>705.8</ele><time>2026-04-26T15:25:39.999Z</time></trkpt><trkpt lat="37.63387068523643" lon="14.041330639050228"><ele>707.4000000000001</ele><time>2026-04-26T15:25:40.999Z</time></trkpt><trkpt lat="37.63380638523888" lon="14.04123375065267"><ele>709.0</ele><time>2026-04-26T15:25:41.999Z</time></trkpt><trkpt lat="37.63374169386538" lon="14.041133996308023"><ele>709.0</ele><time>2026-04-26T15:25:42.999Z</time></trkpt><trkpt lat="37.633674565767585" lon="14.041039042864027"><ele>709.0</ele><time>2026-04-26T15:25:43.999Z</time></trkpt><trkpt lat="37.63360566179394" lon="14.040949506504605"><ele>709.0</ele><time>2026-04-26T15:25:44.999Z</time></trkpt><trkpt lat="37.633532106701516" lon="14.040871867376168"><ele>709.0</ele><time>2026-04-26T15:25:45.999Z</time></trkpt><trkpt lat="37.63345544258992" lon="14.040806102639213"><ele>709.0</ele><time>2026-04-26T15:25:46.999Z</time></trkpt><trkpt lat="37.63337671807134" lon="14.040749165756004"><ele>709.6666666666667</ele><time>2026-04-26T15:25:47.999Z</time></trkpt><trkpt lat="37.633298304602725" lon="14.040695900503858"><ele>710.3333333333334</ele><time>2026-04-26T15:25:48.999Z</time></trkpt><trkpt lat="37.63322274373959" lon="14.040637262931563"><ele>711.0</ele><time>2026-04-26T15:25:49.999Z</time></trkpt><trkpt lat="37.6331510460238" lon="14.040567300610036"><ele>711.6666666666666</ele><time>2026-04-26T15:25:51Z</time></trkpt><trkpt lat="37.633081695423954" lon="14.040488945223078"><ele>712.3333333333333</ele><time>2026-04-26T15:25:52Z</time></trkpt><trkpt lat="37.63301809201687" lon="14.040419043997218"><ele>713.0</ele><time>2026-04-26T15:25:53Z</time></trkpt><trkpt lat="37.63296151253159" lon="14.040369497663086"><ele>713.0</ele><time>2026-04-26T15:25:54Z</time></trkpt><trkpt lat="37.63285130144117" lon="14.0403055339616"><ele>713.0</ele><time>2026-04-26T15:25:56Z</time></trkpt><trkpt lat="37.63278819063707" lon="14.04028366673589"><ele>713.0</ele><time>2026-04-26T15:25:57Z</time></trkpt><trkpt lat="37.63271616219511" lon="14.040264243663552"><ele>713.0</ele><time>2026-04-26T15:25:58Z</time></trkpt><trkpt lat="37.63264331640472" lon="14.040249717547608"><ele>713.0</ele><time>2026-04-26T15:25:59Z</time></trkpt><trkpt lat="37.63256699514509" lon="14.040241783382989"><ele>713.0</ele><time>2026-04-26T15:26:00Z</time></trkpt><trkpt lat="37.632490241490984" lon="14.040232330127747"><ele>712.5</ele><time>2026-04-26T15:26:01Z</time></trkpt><trkpt lat="37.6324146578969" lon="14.04021954034785"><ele>712.0</ele><time>2026-04-26T15:26:02Z</time></trkpt><trkpt lat="37.63233672967427" lon="14.040201563840975"><ele>711.5</ele><time>2026-04-26T15:26:03Z</time></trkpt><trkpt lat="37.63225804545302" lon="14.040183798505087"><ele>711.0</ele><time>2026-04-26T15:26:04Z</time></trkpt><trkpt lat="37.63217584914991" lon="14.040172697520367"><ele>710.5</ele><time>2026-04-26T15:26:05Z</time></trkpt><trkpt lat="37.63209170144082" lon="14.040175072760611"><ele>710.0</ele><time>2026-04-26T15:26:06Z</time></trkpt><trkpt lat="37.63200450051742" lon="14.040192369107261"><ele>709.2</ele><time>2026-04-26T15:26:07Z</time></trkpt><trkpt lat="37.631914236645706" lon="14.040217672693602"><ele>708.4</ele><time>2026-04-26T15:26:08Z</time></trkpt><trkpt lat="37.631822403877784" lon="14.040240224803165"><ele>707.5999999999999</ele><time>2026-04-26T15:26:09Z</time></trkpt><trkpt lat="37.63173077355555" lon="14.040265170433143"><ele>706.8</ele><time>2026-04-26T15:26:10Z</time></trkpt><trkpt lat="37.6316406970916" lon="14.040292352509072"><ele>706.0</ele><time>2026-04-26T15:26:11Z</time></trkpt><trkpt lat="37.6315483714289" lon="14.040320715490546"><ele>706.0</ele><time>2026-04-26T15:26:12Z</time></trkpt><trkpt lat="37.63145130770257" lon="14.040344518550148"><ele>706.0</ele><time>2026-04-26T15:26:13Z</time></trkpt><trkpt lat="37.631343046105336" lon="14.040376499232229"><ele>706.0</ele><time>2026-04-26T15:26:14Z</time></trkpt><trkpt lat="37.63123378532631" lon="14.04040953508246"><ele>706.0</ele><time>2026-04-26T15:26:15Z</time></trkpt><trkpt lat="37.63112828878473" lon="14.040444658758739"><ele>706.0</ele><time>2026-04-26T15:26:16Z</time></trkpt><trkpt lat="37.63102004771912" lon="14.040479812522564"><ele>704.0</ele><time>2026-04-26T15:26:17Z</time></trkpt><trkpt lat="37.63091088169859" lon="14.04051134001742"><ele>702.0</ele><time>2026-04-26T15:26:18Z</time></trkpt><trkpt lat="37.63079988431996" lon="14.04053824071939"><ele>700.0</ele><time>2026-04-26T15:26:19Z</time></trkpt><trkpt lat="37.63068715528602" lon="14.040561726518169"><ele>698.0</ele><time>2026-04-26T15:26:20Z</time></trkpt><trkpt lat="37.63057543330789" lon="14.040582976219651"><ele>698.0</ele><time>2026-04-26T15:26:21Z</time></trkpt><trkpt lat="37.63046543699103" lon="14.040601812689312"><ele>698.0</ele><time>2026-04-26T15:26:22Z</time></trkpt><trkpt lat="37.63035747015091" lon="14.040617425896627"><ele>698.0</ele><time>2026-04-26T15:26:23Z</time></trkpt><trkpt lat="37.63025480804941" lon="14.040631237099221"><ele>698.0</ele><time>2026-04-26T15:26:24Z</time></trkpt><trkpt lat="37.630152179786165" lon="14.040640346301677"><ele>698.0</ele><time>2026-04-26T15:26:25Z</time></trkpt><trkpt lat="37.63004535431935" lon="14.040653025194107"><ele>698.0</ele><time>2026-04-26T15:26:26Z</time></trkpt><trkpt lat="37.62994116022685" lon="14.040671778356401"><ele>698.0</ele><time>2026-04-26T15:26:27Z</time></trkpt><trkpt lat="37.62983813458823" lon="14.040686205145327"><ele>698.0</ele><time>2026-04-26T15:26:28Z</time></trkpt><trkpt lat="37.62973022383987" lon="14.040702607994579"><ele>698.0</ele><time>2026-04-26T15:26:29Z</time></trkpt><trkpt lat="37.62961978681825" lon="14.040725552585833"><ele>698.0</ele><time>2026-04-26T15:26:30Z</time></trkpt><trkpt lat="37.6295069532413" lon="14.040745589673072"><ele>697.5999999999999</ele><time>2026-04-26T15:26:31Z</time></trkpt><trkpt lat="37.629392273908735" lon="14.040768594080605"><ele>697.1999999999999</ele><time>2026-04-26T15:26:32Z</time></trkpt><trkpt lat="37.62927986457013" lon="14.040796105599775"><ele>696.8</ele><time>2026-04-26T15:26:33Z</time></trkpt><trkpt lat="37.62917389730336" lon="14.04082401074071"><ele>696.4</ele><time>2026-04-26T15:26:34Z</time></trkpt><trkpt lat="37.629071012119546" lon="14.04086034870219"><ele>696.0</ele><time>2026-04-26T15:26:35Z</time></trkpt><trkpt lat="37.62897453828878" lon="14.04090795782846"><ele>697.4</ele><time>2026-04-26T15:26:36Z</time></trkpt><trkpt lat="37.628879410718426" lon="14.04097163374659"><ele>698.8</ele><time>2026-04-26T15:26:37Z</time></trkpt><trkpt lat="37.628785609768336" lon="14.041043446973367"><ele>700.1999999999999</ele><time>2026-04-26T15:26:38Z</time></trkpt><trkpt lat="37.628693731556666" lon="14.04111944525889"><ele>701.5999999999999</ele><time>2026-04-26T15:26:39Z</time></trkpt><trkpt lat="37.62860791147435" lon="14.041193345170768"><ele>703.0</ele><time>2026-04-26T15:26:40Z</time></trkpt><trkpt lat="37.62852593553442" lon="14.041262216333694"><ele>703.2</ele><time>2026-04-26T15:26:41Z</time></trkpt><trkpt lat="37.62844366363195" lon="14.041331906852175"><ele>703.4</ele><time>2026-04-26T15:26:42Z</time></trkpt><trkpt lat="37.62835805373034" lon="14.041404359288839"><ele>703.6</ele><time>2026-04-26T15:26:42.999Z</time></trkpt><trkpt lat="37.62827069852619" lon="14.04147672268696"><ele>703.8000000000001</ele><time>2026-04-26T15:26:43.999Z</time></trkpt><trkpt lat="37.6281783081855" lon="14.041545798150665"><ele>704.0</ele><time>2026-04-26T15:26:44.999Z</time></trkpt><trkpt lat="37.62808183013177" lon="14.041607756298262"><ele>704.2</ele><time>2026-04-26T15:26:45.999Z</time></trkpt><trkpt lat="37.627980356170866" lon="14.041667445297984"><ele>704.4000000000001</ele><time>2026-04-26T15:26:46.999Z</time></trkpt><trkpt lat="37.627877521245296" lon="14.04172294307545"><ele>704.6</ele><time>2026-04-26T15:26:47.999Z</time></trkpt><trkpt lat="37.627777142595775" lon="14.041773340783367"><ele>704.8</ele><time>2026-04-26T15:26:48.999Z</time></trkpt><trkpt lat="37.62767505115842" lon="14.041822606161565"><ele>705.0</ele><time>2026-04-26T15:26:49.999Z</time></trkpt><trkpt lat="37.62756760250257" lon="14.041866640297677"><ele>707.0</ele><time>2026-04-26T15:26:50.999Z</time></trkpt><trkpt lat="37.62746332739085" lon="14.041902849458891"><ele>709.0</ele><time>2026-04-26T15:26:51.999Z</time></trkpt><trkpt lat="37.627367111142924" lon="14.041932659705251"><ele>711.0</ele><time>2026-04-26T15:26:52.999Z</time></trkpt><trkpt lat="37.62727135379127" lon="14.041960884933346"><ele>713.0</ele><time>2026-04-26T15:26:53.999Z</time></trkpt><trkpt lat="37.627187265173774" lon="14.041990163462952"><ele>715.0</ele><time>2026-04-26T15:26:54.999Z</time></trkpt><trkpt lat="37.627115331936814" lon="14.042009024825603"><ele>715.0</ele><time>2026-04-26T15:26:55.999Z</time></trkpt><trkpt lat="37.62700043262533" lon="14.042020703295082"><ele>715.0</ele><time>2026-04-26T15:26:57.999Z</time></trkpt><trkpt lat="37.62688623380853" lon="14.042030321550467"><ele>715.0</ele><time>2026-04-26T15:26:59.999Z</time></trkpt><trkpt lat="37.626775209727484" lon="14.041966444505654"><ele>715.0</ele><time>2026-04-26T15:27:01.999Z</time></trkpt><trkpt lat="37.62671598723846" lon="14.041919405025851"><ele>715.0</ele><time>2026-04-26T15:27:02.999Z</time></trkpt><trkpt lat="37.626652280796215" lon="14.041872063586553"><ele>716.0</ele><time>2026-04-26T15:27:03.999Z</time></trkpt><trkpt lat="37.62658774516449" lon="14.041821960748369"><ele>717.0</ele><time>2026-04-26T15:27:04.999Z</time></trkpt><trkpt lat="37.62651868898563" lon="14.041768007055051"><ele>718.0</ele><time>2026-04-26T15:27:05.999Z</time></trkpt><trkpt lat="37.62645063986259" lon="14.041714631838609"><ele>719.0</ele><time>2026-04-26T15:27:06.999Z</time></trkpt><trkpt lat="37.62637801598058" lon="14.041659180328388"><ele>720.0</ele><time>2026-04-26T15:27:07.999Z</time></trkpt><trkpt lat="37.62630558559717" lon="14.041607083195482"><ele>721.0</ele><time>2026-04-26T15:27:08.999Z</time></trkpt><trkpt lat="37.62623610872403" lon="14.041555761371438"><ele>721.0</ele><time>2026-04-26T15:27:09.999Z</time></trkpt><trkpt lat="37.626166533442124" lon="14.041499872048513"><ele>721.0</ele><time>2026-04-26T15:27:10.999Z</time></trkpt><trkpt lat="37.62609383933376" lon="14.041438307168281"><ele>721.0</ele><time>2026-04-26T15:27:11.999Z</time></trkpt><trkpt lat="37.6260176571665" lon="14.041370965540612"><ele>721.0</ele><time>2026-04-26T15:27:12.999Z</time></trkpt><trkpt lat="37.62594285835723" lon="14.041299049780891"><ele>721.0</ele><time>2026-04-26T15:27:13.999Z</time></trkpt><trkpt lat="37.6258730077523" lon="14.041224193130462"><ele>721.0</ele><time>2026-04-26T15:27:14.999Z</time></trkpt><trkpt lat="37.625796981506205" lon="14.041146490510844"><ele>722.1999999999999</ele><time>2026-04-26T15:27:15.999Z</time></trkpt><trkpt lat="37.62572196675894" lon="14.041065138558414"><ele>723.4</ele><time>2026-04-26T15:27:16.999Z</time></trkpt><trkpt lat="37.62564381968646" lon="14.04098471944582"><ele>724.6</ele><time>2026-04-26T15:27:17.999Z</time></trkpt><trkpt lat="37.62556969917897" lon="14.040905324514728"><ele>725.8</ele><time>2026-04-26T15:27:18.999Z</time></trkpt><trkpt lat="37.62549628489214" lon="14.040826779598472"><ele>727.0</ele><time>2026-04-26T15:27:19.999Z</time></trkpt><trkpt lat="37.62542898308108" lon="14.040744829286044"><ele>727.0</ele><time>2026-04-26T15:27:20.999Z</time></trkpt><trkpt lat="37.62537480658996" lon="14.040669984672514"><ele>727.0</ele><time>2026-04-26T15:27:21.999Z</time></trkpt><trkpt lat="37.625326914685324" lon="14.040587211205699"><ele>727.0</ele><time>2026-04-26T15:27:22.999Z</time></trkpt><trkpt lat="37.62528303907309" lon="14.040507751951981"><ele>727.0</ele><time>2026-04-26T15:27:23.999Z</time></trkpt><trkpt lat="37.62523890210046" lon="14.04043392160167"><ele>727.0</ele><time>2026-04-26T15:27:24.999Z</time></trkpt><trkpt lat="37.62519287702981" lon="14.04035700185095"><ele>727.0</ele><time>2026-04-26T15:27:25.999Z</time></trkpt><trkpt lat="37.62514579208189" lon="14.040275198286938"><ele>731.0</ele><time>2026-04-26T15:27:26.999Z</time></trkpt><trkpt lat="37.625100757488255" lon="14.04018472036266"><ele>735.0</ele><time>2026-04-26T15:27:27.999Z</time></trkpt><trkpt lat="37.625055046599286" lon="14.040087155297893"><ele>739.0</ele><time>2026-04-26T15:27:28.999Z</time></trkpt><trkpt lat="37.62501232553444" lon="14.04000042840414"><ele>743.0</ele><time>2026-04-26T15:27:29.999Z</time></trkpt><trkpt lat="37.62496587872299" lon="14.039915913154035"><ele>747.0</ele><time>2026-04-26T15:27:30.999Z</time></trkpt><trkpt lat="37.62491985451617" lon="14.039823626096648"><ele>751.0</ele><time>2026-04-26T15:27:31.999Z</time></trkpt><trkpt lat="37.62488411200872" lon="14.03971477173476"><ele>751.0</ele><time>2026-04-26T15:27:32.999Z</time></trkpt><trkpt lat="37.624858305271346" lon="14.039597039308102"><ele>751.0</ele><time>2026-04-26T15:27:33.999Z</time></trkpt><trkpt lat="37.6248339760163" lon="14.039475943313974"><ele>751.0</ele><time>2026-04-26T15:27:34.999Z</time></trkpt><trkpt lat="37.624807818672394" lon="14.039347199307345"><ele>751.0</ele><time>2026-04-26T15:27:35.999Z</time></trkpt><trkpt lat="37.62478306848001" lon="14.039218859854536"><ele>751.0</ele><time>2026-04-26T15:27:36.999Z</time></trkpt><trkpt lat="37.62476196152713" lon="14.039103814451172"><ele>750.0</ele><time>2026-04-26T15:27:37.999Z</time></trkpt><trkpt lat="37.624743707855316" lon="14.039000576833589"><ele>749.0</ele><time>2026-04-26T15:27:38.999Z</time></trkpt><trkpt lat="37.62471650856843" lon="14.03890640229627"><ele>748.0</ele><time>2026-04-26T15:27:39.999Z</time></trkpt><trkpt lat="37.624675225420724" lon="14.038824917398577"><ele>747.0</ele><time>2026-04-26T15:27:40.999Z</time></trkpt><trkpt lat="37.62461468607966" lon="14.038748514450479"><ele>746.0</ele><time>2026-04-26T15:27:41.999Z</time></trkpt><trkpt lat="37.62454490613035" lon="14.038674558018593"><ele>745.0</ele><time>2026-04-26T15:27:42.999Z</time></trkpt><trkpt lat="37.62447728544469" lon="14.03861085269028"><ele>747.2</ele><time>2026-04-26T15:27:43.999Z</time></trkpt><trkpt lat="37.624417523945915" lon="14.038531539914048"><ele>749.4</ele><time>2026-04-26T15:27:44.999Z</time></trkpt><trkpt lat="37.62436942488417" lon="14.038425280107218"><ele>751.5999999999999</ele><time>2026-04-26T15:27:45.999Z</time></trkpt><trkpt lat="37.624326287075824" lon="14.038311183783351"><ele>753.8</ele><time>2026-04-26T15:27:46.999Z</time></trkpt><trkpt lat="37.62427612600181" lon="14.038193989047166"><ele>756.0</ele><time>2026-04-26T15:27:47.999Z</time></trkpt><trkpt lat="37.624218529216066" lon="14.038083039881718"><ele>756.0</ele><time>2026-04-26T15:27:48.999Z</time></trkpt><trkpt lat="37.62415682684423" lon="14.037979062903908"><ele>756.0</ele><time>2026-04-26T15:27:49.999Z</time></trkpt><trkpt lat="37.62408864902847" lon="14.037877238587972"><ele>756.0</ele><time>2026-04-26T15:27:50.999Z</time></trkpt><trkpt lat="37.6240252071148" lon="14.037775954366147"><ele>756.0</ele><time>2026-04-26T15:27:51.999Z</time></trkpt><trkpt lat="37.623974640217014" lon="14.037665816834515"><ele>756.0</ele><time>2026-04-26T15:27:52.999Z</time></trkpt><trkpt lat="37.62393596307308" lon="14.037549614231105"><ele>755.1999999999999</ele><time>2026-04-26T15:27:53.999Z</time></trkpt><trkpt lat="37.62390508854177" lon="14.037427689300848"><ele>754.4</ele><time>2026-04-26T15:27:54.999Z</time></trkpt><trkpt lat="37.623885175848805" lon="14.037301682716791"><ele>753.6</ele><time>2026-04-26T15:27:55.999Z</time></trkpt><trkpt lat="37.62387075355217" lon="14.0371728603708"><ele>752.8</ele><time>2026-04-26T15:27:57Z</time></trkpt><trkpt lat="37.62386529137405" lon="14.037045164227383"><ele>752.0</ele><time>2026-04-26T15:27:58Z</time></trkpt><trkpt lat="37.62386429250799" lon="14.036925806035278"><ele>752.0</ele><time>2026-04-26T15:27:59Z</time></trkpt><trkpt lat="37.62386052160682" lon="14.036815359569323"><ele>752.0</ele><time>2026-04-26T15:28:00Z</time></trkpt><trkpt lat="37.623841156597905" lon="14.036717136421533"><ele>752.0</ele><time>2026-04-26T15:28:01Z</time></trkpt><trkpt lat="37.62381020913578" lon="14.036628882680075"><ele>752.0</ele><time>2026-04-26T15:28:02Z</time></trkpt><trkpt lat="37.62376914840795" lon="14.036552680577383"><ele>752.0</ele><time>2026-04-26T15:28:03Z</time></trkpt><trkpt lat="37.62372078246991" lon="14.03648496799132"><ele>752.0</ele><time>2026-04-26T15:28:04Z</time></trkpt><trkpt lat="37.62364876914875" lon="14.036436390973808"><ele>753.0</ele><time>2026-04-26T15:28:05Z</time></trkpt><trkpt lat="37.623564652404035" lon="14.036388228625883"><ele>754.0</ele><time>2026-04-26T15:28:06Z</time></trkpt><trkpt lat="37.62347315789926" lon="14.036348763178202"><ele>755.0</ele><time>2026-04-26T15:28:07Z</time></trkpt><trkpt lat="37.6233806424253" lon="14.036318118818425"><ele>756.0</ele><time>2026-04-26T15:28:08Z</time></trkpt><trkpt lat="37.6232832130076" lon="14.036295150392256"><ele>757.0</ele><time>2026-04-26T15:28:09Z</time></trkpt><trkpt lat="37.62318379594908" lon="14.03628179522"><ele>757.0</ele><time>2026-04-26T15:28:10Z</time></trkpt><trkpt lat="37.6230855553236" lon="14.03627298670118"><ele>757.0</ele><time>2026-04-26T15:28:11Z</time></trkpt><trkpt lat="37.62299006260398" lon="14.036258846420838"><ele>757.0</ele><time>2026-04-26T15:28:12Z</time></trkpt><trkpt lat="37.62289498733043" lon="14.036232029121255"><ele>757.0</ele><time>2026-04-26T15:28:13Z</time></trkpt><trkpt lat="37.6228037166231" lon="14.03619376785923"><ele>757.0</ele><time>2026-04-26T15:28:14Z</time></trkpt><trkpt lat="37.62271200111094" lon="14.036142873112537"><ele>757.6</ele><time>2026-04-26T15:28:15Z</time></trkpt><trkpt lat="37.622621360701416" lon="14.03608343654672"><ele>758.2</ele><time>2026-04-26T15:28:16Z</time></trkpt><trkpt lat="37.62253726636557" lon="14.036019060971608"><ele>758.8</ele><time>2026-04-26T15:28:17Z</time></trkpt><trkpt lat="37.62245495137066" lon="14.035959901457554"><ele>759.4</ele><time>2026-04-26T15:28:18Z</time></trkpt><trkpt lat="37.62237835546687" lon="14.035912535198987"><ele>760.0</ele><time>2026-04-26T15:28:19Z</time></trkpt><trkpt lat="37.622300528048505" lon="14.035868051139815"><ele>760.0</ele><time>2026-04-26T15:28:20Z</time></trkpt><trkpt lat="37.622229434485526" lon="14.035832280424032"><ele>760.0</ele><time>2026-04-26T15:28:21Z</time></trkpt><trkpt lat="37.62216042738519" lon="14.035779958877178"><ele>760.0</ele><time>2026-04-26T15:28:22Z</time></trkpt><trkpt lat="37.62209029386631" lon="14.035725137527944"><ele>760.0</ele><time>2026-04-26T15:28:23Z</time></trkpt><trkpt lat="37.62201594482057" lon="14.035665821917178"><ele>760.0</ele><time>2026-04-26T15:28:24Z</time></trkpt><trkpt lat="37.62194640562401" lon="14.035599098696999"><ele>760.0</ele><time>2026-04-26T15:28:25Z</time></trkpt><trkpt lat="37.62187993677346" lon="14.03552576256157"><ele>760.6</ele><time>2026-04-26T15:28:26Z</time></trkpt><trkpt lat="37.621820854495546" lon="14.035446234409315"><ele>761.2</ele><time>2026-04-26T15:28:27Z</time></trkpt><trkpt lat="37.62176257129152" lon="14.035368260868053"><ele>761.8</ele><time>2026-04-26T15:28:28Z</time></trkpt><trkpt lat="37.62170308238284" lon="14.035281923281616"><ele>762.4</ele><time>2026-04-26T15:28:29Z</time></trkpt><trkpt lat="37.62164010790245" lon="14.035194628382966"><ele>763.0</ele><time>2026-04-26T15:28:30Z</time></trkpt><trkpt lat="37.62155575185686" lon="14.035099112222879"><ele>763.0</ele><time>2026-04-26T15:28:31Z</time></trkpt><trkpt lat="37.62148165660691" lon="14.03502604417469"><ele>763.0</ele><time>2026-04-26T15:28:32Z</time></trkpt><trkpt lat="37.621404146692605" lon="14.034954070318145"><ele>763.0</ele><time>2026-04-26T15:28:33Z</time></trkpt><trkpt lat="37.621322557409144" lon="14.034891703282245"><ele>763.0</ele><time>2026-04-26T15:28:34Z</time></trkpt><trkpt lat="37.62124139641043" lon="14.034836450547221"><ele>763.0</ele><time>2026-04-26T15:28:35Z</time></trkpt><trkpt lat="37.6211638935824" lon="14.034794802046695"><ele>762.0</ele><time>2026-04-26T15:28:36Z</time></trkpt><trkpt lat="37.6210884003939" lon="14.034756561609735"><ele>761.0</ele><time>2026-04-26T15:28:37Z</time></trkpt><trkpt lat="37.62101650312031" lon="14.03472059396275"><ele>760.0</ele><time>2026-04-26T15:28:38Z</time></trkpt><trkpt lat="37.62094793402671" lon="14.034684222015798"><ele>759.0</ele><time>2026-04-26T15:28:39Z</time></trkpt><trkpt lat="37.62087863084796" lon="14.034645205021114"><ele>758.0</ele><time>2026-04-26T15:28:40Z</time></trkpt><trkpt lat="37.62080708342139" lon="14.034596309857012"><ele>757.0</ele><time>2026-04-26T15:28:41Z</time></trkpt><trkpt lat="37.620733926724846" lon="14.034550736217902"><ele>757.0</ele><time>2026-04-26T15:28:42Z</time></trkpt><trkpt lat="37.620658026774336" lon="14.034503440488352"><ele>757.0</ele><time>2026-04-26T15:28:43Z</time></trkpt><trkpt lat="37.6205740451342" lon="14.034467348446054"><ele>757.0</ele><time>2026-04-26T15:28:44Z</time></trkpt><trkpt lat="37.62048297670783" lon="14.034434599768119"><ele>757.0</ele><time>2026-04-26T15:28:45Z</time></trkpt><trkpt lat="37.62038740866107" lon="14.03441226840536"><ele>757.0</ele><time>2026-04-26T15:28:46Z</time></trkpt><trkpt lat="37.620298228638816" lon="14.034387846021946"><ele>756.5</ele><time>2026-04-26T15:28:47Z</time></trkpt><trkpt lat="37.62021370844766" lon="14.034361235574162"><ele>756.0</ele><time>2026-04-26T15:28:48Z</time></trkpt><trkpt lat="37.620127927467976" lon="14.0343348867677"><ele>755.5</ele><time>2026-04-26T15:28:49Z</time></trkpt><trkpt lat="37.620045653038716" lon="14.034311187762581"><ele>755.0</ele><time>2026-04-26T15:28:50Z</time></trkpt><trkpt lat="37.61996168994982" lon="14.034290327844264"><ele>754.5</ele><time>2026-04-26T15:28:50.999Z</time></trkpt><trkpt lat="37.61987418891144" lon="14.03426572760622"><ele>754.0</ele><time>2026-04-26T15:28:51.999Z</time></trkpt><trkpt lat="37.619784078406255" lon="14.034236688391376"><ele>754.0</ele><time>2026-04-26T15:28:52.999Z</time></trkpt><trkpt lat="37.61969433463918" lon="14.034208825660915"><ele>754.0</ele><time>2026-04-26T15:28:53.999Z</time></trkpt><trkpt lat="37.61960431177503" lon="14.034188007820468"><ele>754.0</ele><time>2026-04-26T15:28:54.999Z</time></trkpt><trkpt lat="37.61950941735854" lon="14.034187067809754"><ele>754.0</ele><time>2026-04-26T15:28:55.999Z</time></trkpt><trkpt lat="37.61941543305864" lon="14.034208038672078"><ele>754.0</ele><time>2026-04-26T15:28:56.999Z</time></trkpt><trkpt lat="37.619325320701144" lon="14.034243323046761"><ele>753.0</ele><time>2026-04-26T15:28:57.999Z</time></trkpt><trkpt lat="37.6192368431557" lon="14.034288174069129"><ele>752.0</ele><time>2026-04-26T15:28:58.999Z</time></trkpt><trkpt lat="37.61915150913146" lon="14.034335627975999"><ele>751.0</ele><time>2026-04-26T15:28:59.999Z</time></trkpt><trkpt lat="37.619062455416845" lon="14.034380375736045"><ele>750.0</ele><time>2026-04-26T15:29:00.999Z</time></trkpt><trkpt lat="37.61897543435138" lon="14.034423585217843"><ele>749.0</ele><time>2026-04-26T15:29:01.999Z</time></trkpt><trkpt lat="37.61888673010235" lon="14.03447449169308"><ele>749.0</ele><time>2026-04-26T15:29:02.999Z</time></trkpt><trkpt lat="37.618799481350955" lon="14.03453026721104"><ele>749.0</ele><time>2026-04-26T15:29:03.999Z</time></trkpt><trkpt lat="37.61871005320668" lon="14.034587572337273"><ele>749.0</ele><time>2026-04-26T15:29:04.999Z</time></trkpt><trkpt lat="37.61862549743738" lon="14.034638216788824"><ele>749.0</ele><time>2026-04-26T15:29:05.999Z</time></trkpt><trkpt lat="37.61854686622176" lon="14.034687099758413"><ele>749.0</ele><time>2026-04-26T15:29:06.999Z</time></trkpt><trkpt lat="37.6184864705536" lon="14.03472856549569"><ele>749.0</ele><time>2026-04-26T15:29:07.999Z</time></trkpt><trkpt lat="37.618403019030104" lon="14.034780996571564"><ele>748.6666666666666</ele><time>2026-04-26T15:29:09.999Z</time></trkpt><trkpt lat="37.61834818114935" lon="14.03470738529139"><ele>748.3333333333333</ele><time>2026-04-26T15:29:12.999Z</time></trkpt><trkpt lat="37.61830320767293" lon="14.034605347202406"><ele>748.0</ele><time>2026-04-26T15:29:14.999Z</time></trkpt><trkpt lat="37.618235302829056" lon="14.034489874320455"><ele>747.6666666666666</ele><time>2026-04-26T15:29:16.999Z</time></trkpt><trkpt lat="37.61819355409696" lon="14.03442940319167"><ele>747.3333333333334</ele><time>2026-04-26T15:29:17.999Z</time></trkpt><trkpt lat="37.61815624230627" lon="14.034364447808848"><ele>747.0</ele><time>2026-04-26T15:29:18.999Z</time></trkpt><trkpt lat="37.61812543672138" lon="14.03429486357246"><ele>747.0</ele><time>2026-04-26T15:29:19.999Z</time></trkpt><trkpt lat="37.618061101119636" lon="14.034169607997734"><ele>747.0</ele><time>2026-04-26T15:29:21.999Z</time></trkpt><trkpt lat="37.6179884119613" lon="14.034058082035857"><ele>747.0</ele><time>2026-04-26T15:29:23.999Z</time></trkpt><trkpt lat="37.61793831140716" lon="14.033998596736566"><ele>747.0</ele><time>2026-04-26T15:29:24.999Z</time></trkpt><trkpt lat="37.617884183217" lon="14.033951510284812"><ele>747.0</ele><time>2026-04-26T15:29:25.999Z</time></trkpt><trkpt lat="37.61778819210532" lon="14.0338958434321"><ele>744.4000000000001</ele><time>2026-04-26T15:29:27.999Z</time></trkpt><trkpt lat="37.61771027228161" lon="14.033855563037996"><ele>741.8000000000001</ele><time>2026-04-26T15:29:29.999Z</time></trkpt><trkpt lat="37.61763451144895" lon="14.033799091600219"><ele>739.2</ele><time>2026-04-26T15:29:31.999Z</time></trkpt><trkpt lat="37.61756221914881" lon="14.033741160449953"><ele>736.6</ele><time>2026-04-26T15:29:33.999Z</time></trkpt><trkpt lat="37.61747762079952" lon="14.033674707183227"><ele>734.0</ele><time>2026-04-26T15:29:35.999Z</time></trkpt><trkpt lat="37.6173816347289" lon="14.033612166829167"><ele>734.0</ele><time>2026-04-26T15:29:37.999Z</time></trkpt><trkpt lat="37.61727846697439" lon="14.033564714946342"><ele>734.0</ele><time>2026-04-26T15:29:39.999Z</time></trkpt><trkpt lat="37.61718023976368" lon="14.033532060609746"><ele>734.0</ele><time>2026-04-26T15:29:41.999Z</time></trkpt><trkpt lat="37.61706675964198" lon="14.033523880818672"><ele>734.0</ele><time>2026-04-26T15:29:43.999Z</time></trkpt><trkpt lat="37.61695156213473" lon="14.033539576304138"><ele>734.0</ele><time>2026-04-26T15:29:45.999Z</time></trkpt><trkpt lat="37.61688922950682" lon="14.03355136595375"><ele>732.2</ele><time>2026-04-26T15:29:46.999Z</time></trkpt><trkpt lat="37.616821849948295" lon="14.033562193393083"><ele>730.4000000000001</ele><time>2026-04-26T15:29:47.999Z</time></trkpt><trkpt lat="37.61669760110333" lon="14.033572243823583"><ele>728.6</ele><time>2026-04-26T15:29:49.999Z</time></trkpt><trkpt lat="37.61663404170178" lon="14.033572081594036"><ele>726.8</ele><time>2026-04-26T15:29:50.999Z</time></trkpt><trkpt lat="37.61651047889386" lon="14.033558147241237"><ele>725.0</ele><time>2026-04-26T15:29:52.999Z</time></trkpt><trkpt lat="37.616386947214984" lon="14.03353623561856"><ele>725.0</ele><time>2026-04-26T15:29:54.999Z</time></trkpt><trkpt lat="37.61627730914624" lon="14.033502065420596"><ele>725.0</ele><time>2026-04-26T15:29:56.999Z</time></trkpt><trkpt lat="37.61619354791354" lon="14.0334974646686"><ele>725.0</ele><time>2026-04-26T15:29:58.999Z</time></trkpt><trkpt lat="37.61611858633248" lon="14.033553181972467"><ele>725.0</ele><time>2026-04-26T15:30:00.999Z</time></trkpt><trkpt lat="37.61605674869076" lon="14.033619820712403"><ele>725.0</ele><time>2026-04-26T15:30:03Z</time></trkpt><trkpt lat="37.61599275253454" lon="14.033641089849398"><ele>725.0</ele><time>2026-04-26T15:30:05Z</time></trkpt><trkpt lat="37.61592573715686" lon="14.03367550130439"><ele>723.6</ele><time>2026-04-26T15:30:07Z</time></trkpt><trkpt lat="37.61586267912183" lon="14.033723429021999"><ele>722.2</ele><time>2026-04-26T15:30:09Z</time></trkpt><trkpt lat="37.61578758199443" lon="14.03376699634212"><ele>720.8</ele><time>2026-04-26T15:30:11Z</time></trkpt><trkpt lat="37.615690486609886" lon="14.033810769544743"><ele>719.4</ele><time>2026-04-26T15:30:13Z</time></trkpt><trkpt lat="37.61558656480865" lon="14.033860941044079"><ele>718.0</ele><time>2026-04-26T15:30:15Z</time></trkpt><trkpt lat="37.61548588830531" lon="14.033915909755715"><ele>718.0</ele><time>2026-04-26T15:30:17Z</time></trkpt><trkpt lat="37.61538755389461" lon="14.033957346649554"><ele>718.0</ele><time>2026-04-26T15:30:19Z</time></trkpt><trkpt lat="37.6152965491205" lon="14.033990107265089"><ele>718.0</ele><time>2026-04-26T15:30:21Z</time></trkpt><trkpt lat="37.61521091600728" lon="14.034022144492745"><ele>718.0</ele><time>2026-04-26T15:30:23Z</time></trkpt><trkpt lat="37.615140731176034" lon="14.034027821714858"><ele>718.0</ele><time>2026-04-26T15:30:25Z</time></trkpt><trkpt lat="37.61504360673687" lon="14.034050938409374"><ele>715.7142857142858</ele><time>2026-04-26T15:30:28Z</time></trkpt><trkpt lat="37.6149739917471" lon="14.034073028011589"><ele>713.4285714285714</ele><time>2026-04-26T15:30:31Z</time></trkpt><trkpt lat="37.614913082236704" lon="14.034099293979502"><ele>711.1428571428571</ele><time>2026-04-26T15:30:34Z</time></trkpt><trkpt lat="37.61485152866906" lon="14.034123169950483"><ele>708.8571428571429</ele><time>2026-04-26T15:30:36Z</time></trkpt><trkpt lat="37.614766727061564" lon="14.034096160655043"><ele>706.5714285714286</ele><time>2026-04-26T15:30:38Z</time></trkpt><trkpt lat="37.61468819285676" lon="14.034055516048904"><ele>704.2857142857143</ele><time>2026-04-26T15:30:41Z</time></trkpt><trkpt lat="37.614620044356094" lon="14.034016518505473"><ele>702.0</ele><time>2026-04-26T15:30:43Z</time></trkpt><trkpt lat="37.61450542563465" lon="14.033970625775757"><ele>699.0</ele><time>2026-04-26T15:30:45Z</time></trkpt><trkpt lat="37.614442029136285" lon="14.033932466327597"><ele>696.0</ele><time>2026-04-26T15:30:46Z</time></trkpt><trkpt lat="37.614386317815836" lon="14.03388634469308"><ele>693.0</ele><time>2026-04-26T15:30:47Z</time></trkpt><trkpt lat="37.61429102189925" lon="14.033819702334226"><ele>690.0</ele><time>2026-04-26T15:30:49Z</time></trkpt><trkpt lat="37.61418287908447" lon="14.033779267024597"><ele>687.0</ele><time>2026-04-26T15:30:51Z</time></trkpt><trkpt lat="37.61407083873407" lon="14.033756098793916"><ele>687.0</ele><time>2026-04-26T15:30:53Z</time></trkpt><trkpt lat="37.61396951971905" lon="14.033735044888793"><ele>687.0</ele><time>2026-04-26T15:30:55Z</time></trkpt><trkpt lat="37.61385672793394" lon="14.03371888110408"><ele>687.0</ele><time>2026-04-26T15:30:57Z</time></trkpt><trkpt lat="37.613735875647876" lon="14.033717630505347"><ele>687.0</ele><time>2026-04-26T15:30:59Z</time></trkpt><trkpt lat="37.61362354691735" lon="14.033697976607138"><ele>686.0</ele><time>2026-04-26T15:31:00.999Z</time></trkpt><trkpt lat="37.61350975242684" lon="14.033656415409565"><ele>685.0</ele><time>2026-04-26T15:31:02.999Z</time></trkpt><trkpt lat="37.613389995644376" lon="14.033619665704949"><ele>684.0</ele><time>2026-04-26T15:31:04.999Z</time></trkpt><trkpt lat="37.6133243380849" lon="14.033604602082523"><ele>683.0</ele><time>2026-04-26T15:31:05.999Z</time></trkpt><trkpt lat="37.61326088588399" lon="14.033591861951155"><ele>682.0</ele><time>2026-04-26T15:31:06.999Z</time></trkpt><trkpt lat="37.61312997852114" lon="14.033567601295717"><ele>682.0</ele><time>2026-04-26T15:31:08.999Z</time></trkpt><trkpt lat="37.613064186220214" lon="14.033554735249027"><ele>682.0</ele><time>2026-04-26T15:31:09.999Z</time></trkpt><trkpt lat="37.61293627091861" lon="14.033537197695452"><ele>682.0</ele><time>2026-04-26T15:31:11.999Z</time></trkpt><trkpt lat="37.61286466690121" lon="14.033533099709661"><ele>682.0</ele><time>2026-04-26T15:31:12.999Z</time></trkpt><trkpt lat="37.61279628620258" lon="14.033536047776913"><ele>682.0</ele><time>2026-04-26T15:31:13.999Z</time></trkpt><trkpt lat="37.61268968609602" lon="14.033548014680301"><ele>682.0</ele><time>2026-04-26T15:31:15.999Z</time></trkpt><trkpt lat="37.61257675243152" lon="14.03358332539815"><ele>679.5</ele><time>2026-04-26T15:31:17.999Z</time></trkpt><trkpt lat="37.61246202698482" lon="14.03357079281734"><ele>677.0</ele><time>2026-04-26T15:31:19.999Z</time></trkpt><trkpt lat="37.6123533033942" lon="14.033549950194718"><ele>674.5</ele><time>2026-04-26T15:31:21.999Z</time></trkpt><trkpt lat="37.61223786611973" lon="14.033552783377745"><ele>672.0</ele><time>2026-04-26T15:31:23.999Z</time></trkpt><trkpt lat="37.61212396194203" lon="14.03356030045917"><ele>672.0</ele><time>2026-04-26T15:31:25.999Z</time></trkpt><trkpt lat="37.61200854552557" lon="14.033561781037022"><ele>672.0</ele><time>2026-04-26T15:31:27.999Z</time></trkpt><trkpt lat="37.611944990443064" lon="14.033565007367947"><ele>672.0</ele><time>2026-04-26T15:31:28.999Z</time></trkpt><trkpt lat="37.61187506543778" lon="14.03356247884816"><ele>672.0</ele><time>2026-04-26T15:31:29.999Z</time></trkpt><trkpt lat="37.611802219118225" lon="14.033549072124826"><ele>672.0</ele><time>2026-04-26T15:31:30.999Z</time></trkpt><trkpt lat="37.61173289229541" lon="14.033529219625036"><ele>672.0</ele><time>2026-04-26T15:31:31.999Z</time></trkpt><trkpt lat="37.61166403703352" lon="14.033513217702687"><ele>670.8333333333334</ele><time>2026-04-26T15:31:32.999Z</time></trkpt><trkpt lat="37.61158913525294" lon="14.03350885523902"><ele>669.6666666666666</ele><time>2026-04-26T15:31:33.999Z</time></trkpt><trkpt lat="37.61151010184444" lon="14.033509161218069"><ele>668.5</ele><time>2026-04-26T15:31:34.999Z</time></trkpt><trkpt lat="37.61143373625059" lon="14.033507597885398"><ele>667.3333333333333</ele><time>2026-04-26T15:31:35.999Z</time></trkpt><trkpt lat="37.611358961240526" lon="14.03350925329442"><ele>666.1666666666666</ele><time>2026-04-26T15:31:36.999Z</time></trkpt><trkpt lat="37.611291510157855" lon="14.033524010373027"><ele>665.0</ele><time>2026-04-26T15:31:37.999Z</time></trkpt><trkpt lat="37.61116675515195" lon="14.033569137445777"><ele>664.0</ele><time>2026-04-26T15:31:39.999Z</time></trkpt><trkpt lat="37.61105580429018" lon="14.033624777745118"><ele>663.0</ele><time>2026-04-26T15:31:41.999Z</time></trkpt><trkpt lat="37.61095638522143" lon="14.03367503869311"><ele>662.0</ele><time>2026-04-26T15:31:43.999Z</time></trkpt><trkpt lat="37.61088658295651" lon="14.033710943674114"><ele>661.0</ele><time>2026-04-26T15:31:45.999Z</time></trkpt><trkpt lat="37.61081820990775" lon="14.033734355903983"><ele>660.0</ele><time>2026-04-26T15:31:49.999Z</time></trkpt><trkpt lat="37.610752005269724" lon="14.033758712565731"><ele>659.0</ele><time>2026-04-26T15:31:51.999Z</time></trkpt><trkpt lat="37.61067865934198" lon="14.033796716562593"><ele>659.0</ele><time>2026-04-26T15:31:53.999Z</time></trkpt><trkpt lat="37.6105956929544" lon="14.033845468095153"><ele>659.0</ele><time>2026-04-26T15:31:55.999Z</time></trkpt><trkpt lat="37.610513279276965" lon="14.033911156144232"><ele>659.0</ele><time>2026-04-26T15:31:57.999Z</time></trkpt><trkpt lat="37.61043778713761" lon="14.03397699867481"><ele>659.0</ele><time>2026-04-26T15:31:59.999Z</time></trkpt><trkpt lat="37.61034950521639" lon="14.034035376496103"><ele>659.0</ele><time>2026-04-26T15:32:01.999Z</time></trkpt><trkpt lat="37.61024318998385" lon="14.034069454353258"><ele>656.6</ele><time>2026-04-26T15:32:03.999Z</time></trkpt><trkpt lat="37.61014012502779" lon="14.034071211149936"><ele>654.2</ele><time>2026-04-26T15:32:05.999Z</time></trkpt><trkpt lat="37.61004414574547" lon="14.034051861241528"><ele>651.8000000000001</ele><time>2026-04-26T15:32:07.999Z</time></trkpt><trkpt lat="37.60994790031523" lon="14.034037418943047"><ele>649.4000000000001</ele><time>2026-04-26T15:32:10Z</time></trkpt><trkpt lat="37.609858092187864" lon="14.034029539432797"><ele>647.0</ele><time>2026-04-26T15:32:12Z</time></trkpt><trkpt lat="37.60977118547894" lon="14.033996803795443"><ele>647.0</ele><time>2026-04-26T15:32:14Z</time></trkpt><trkpt lat="37.60969458016622" lon="14.033974169154684"><ele>647.0</ele><time>2026-04-26T15:32:16Z</time></trkpt><trkpt lat="37.60957882640096" lon="14.033940095390626"><ele>647.0</ele><time>2026-04-26T15:32:18Z</time></trkpt><trkpt lat="37.60951654719113" lon="14.033907756999454"><ele>647.0</ele><time>2026-04-26T15:32:19Z</time></trkpt><trkpt lat="37.60945317442387" lon="14.033876119103908"><ele>647.0</ele><time>2026-04-26T15:32:20Z</time></trkpt><trkpt lat="37.609385510473494" lon="14.033841519493135"><ele>647.0</ele><time>2026-04-26T15:32:21Z</time></trkpt><trkpt lat="37.60930624807111" lon="14.033806019732227"><ele>645.5</ele><time>2026-04-26T15:32:22Z</time></trkpt><trkpt lat="37.609227859734936" lon="14.033778305058318"><ele>644.0</ele><time>2026-04-26T15:32:23Z</time></trkpt><trkpt lat="37.609150465441836" lon="14.033754948686928"><ele>642.5</ele><time>2026-04-26T15:32:24Z</time></trkpt><trkpt lat="37.60907391102696" lon="14.033735175368722"><ele>641.0</ele><time>2026-04-26T15:32:25Z</time></trkpt><trkpt lat="37.60900045485101" lon="14.033714930590046"><ele>639.5</ele><time>2026-04-26T15:32:26Z</time></trkpt><trkpt lat="37.608927525863095" lon="14.033697768863746"><ele>638.0</ele><time>2026-04-26T15:32:27Z</time></trkpt><trkpt lat="37.6088515587813" lon="14.033676095706948"><ele>638.0</ele><time>2026-04-26T15:32:28Z</time></trkpt><trkpt lat="37.60877580643231" lon="14.033655619380916"><ele>638.0</ele><time>2026-04-26T15:32:29Z</time></trkpt><trkpt lat="37.60870564138987" lon="14.03363232970525"><ele>638.0</ele><time>2026-04-26T15:32:30Z</time></trkpt><trkpt lat="37.608638298458324" lon="14.033609162973846"><ele>638.0</ele><time>2026-04-26T15:32:31Z</time></trkpt><trkpt lat="37.60857706208925" lon="14.033583857097984"><ele>638.0</ele><time>2026-04-26T15:32:32Z</time></trkpt><trkpt lat="37.608472418411665" lon="14.033552442024286"><ele>638.0</ele><time>2026-04-26T15:32:34Z</time></trkpt><trkpt lat="37.6084062369678" lon="14.033530316621682"><ele>638.1428571428572</ele><time>2026-04-26T15:32:35Z</time></trkpt><trkpt lat="37.6083275345936" lon="14.033496538316724"><ele>638.2857142857142</ele><time>2026-04-26T15:32:36Z</time></trkpt><trkpt lat="37.60825500597357" lon="14.033456343326382"><ele>638.4285714285714</ele><time>2026-04-26T15:32:37Z</time></trkpt><trkpt lat="37.608190457233555" lon="14.03342135951214"><ele>638.5714285714287</ele><time>2026-04-26T15:32:38Z</time></trkpt><trkpt lat="37.60812622607797" lon="14.033385433477727"><ele>638.7142857142858</ele><time>2026-04-26T15:32:39Z</time></trkpt><trkpt lat="37.60806125070538" lon="14.033350797287362"><ele>638.8571428571429</ele><time>2026-04-26T15:32:40Z</time></trkpt><trkpt lat="37.607998333511134" lon="14.033320266931048"><ele>639.0</ele><time>2026-04-26T15:32:41Z</time></trkpt><trkpt lat="37.607896920667436" lon="14.033272612331801"><ele>637.5</ele><time>2026-04-26T15:32:43Z</time></trkpt><trkpt lat="37.607821423132606" lon="14.033183635105393"><ele>636.0</ele><time>2026-04-26T15:32:45Z</time></trkpt><trkpt lat="37.607745255985094" lon="14.033143620111458"><ele>634.5</ele><time>2026-04-26T15:32:47Z</time></trkpt><trkpt lat="37.60766017743408" lon="14.033112388722085"><ele>633.0</ele><time>2026-04-26T15:32:50Z</time></trkpt><trkpt lat="37.6075844160119" lon="14.03308913043984"><ele>631.5</ele><time>2026-04-26T15:32:52Z</time></trkpt><trkpt lat="37.60750541744932" lon="14.03306133078473"><ele>630.0</ele><time>2026-04-26T15:32:54Z</time></trkpt><trkpt lat="37.607422168163296" lon="14.033027948600193"><ele>630.0</ele><time>2026-04-26T15:32:56Z</time></trkpt><trkpt lat="37.60735911339222" lon="14.03300438915709"><ele>630.0</ele><time>2026-04-26T15:32:58Z</time></trkpt><trkpt lat="37.6072655258806" lon="14.032990378160713"><ele>630.0</ele><time>2026-04-26T15:33:01Z</time></trkpt><trkpt lat="37.60714844760376" lon="14.032949305772336"><ele>630.0</ele><time>2026-04-26T15:33:03Z</time></trkpt><trkpt lat="37.60708314784919" lon="14.032916797230857"><ele>630.0</ele><time>2026-04-26T15:33:04Z</time></trkpt><trkpt lat="37.607020463369466" lon="14.03288011771186"><ele>630.0</ele><time>2026-04-26T15:33:05Z</time></trkpt><trkpt lat="37.60696011911758" lon="14.032843052297514"><ele>628.3333333333334</ele><time>2026-04-26T15:33:06Z</time></trkpt><trkpt lat="37.606901773350174" lon="14.032805428644517"><ele>626.6666666666666</ele><time>2026-04-26T15:33:07Z</time></trkpt><trkpt lat="37.606798052045804" lon="14.032732275609721"><ele>625.0</ele><time>2026-04-26T15:33:09Z</time></trkpt><trkpt lat="37.60669994320628" lon="14.032650273063988"><ele>623.3333333333333</ele><time>2026-04-26T15:33:11Z</time></trkpt><trkpt lat="37.60663653273947" lon="14.032615460548522"><ele>621.6666666666666</ele><time>2026-04-26T15:33:12Z</time></trkpt><trkpt lat="37.606571628585364" lon="14.03257759396098"><ele>620.0</ele><time>2026-04-26T15:33:13Z</time></trkpt><trkpt lat="37.60650551811643" lon="14.03254032449801"><ele>620.0</ele><time>2026-04-26T15:33:14Z</time></trkpt><trkpt lat="37.60644353746067" lon="14.032506004889843"><ele>620.0</ele><time>2026-04-26T15:33:14.999Z</time></trkpt><trkpt lat="37.6063351981926" lon="14.032457857343575"><ele>620.0</ele><time>2026-04-26T15:33:16.999Z</time></trkpt><trkpt lat="37.606229548663954" lon="14.03242796135157"><ele>620.0</ele><time>2026-04-26T15:33:18.999Z</time></trkpt><trkpt lat="37.60612833701314" lon="14.032388571239181"><ele>620.0</ele><time>2026-04-26T15:33:20.999Z</time></trkpt><trkpt lat="37.606032537673165" lon="14.032368294956083"><ele>616.5714285714286</ele><time>2026-04-26T15:33:22.999Z</time></trkpt><trkpt lat="37.60596712235805" lon="14.032353327466964"><ele>613.1428571428571</ele><time>2026-04-26T15:33:24.999Z</time></trkpt><trkpt lat="37.60590593618846" lon="14.032331745747715"><ele>609.7142857142857</ele><time>2026-04-26T15:33:26.999Z</time></trkpt><trkpt lat="37.60584155830111" lon="14.032314812626913"><ele>606.2857142857142</ele><time>2026-04-26T15:33:28.999Z</time></trkpt><trkpt lat="37.60576508010824" lon="14.032281366989423"><ele>602.8571428571428</ele><time>2026-04-26T15:33:31.999Z</time></trkpt><trkpt lat="37.60569589411" lon="14.032230337605286"><ele>599.4285714285714</ele><time>2026-04-26T15:33:34.999Z</time></trkpt><trkpt lat="37.6056389552306" lon="14.03218858535354"><ele>596.0</ele><time>2026-04-26T15:33:36.999Z</time></trkpt><trkpt lat="37.605574193780946" lon="14.0321446942586"><ele>596.0</ele><time>2026-04-26T15:33:38.999Z</time></trkpt><trkpt lat="37.60547679009549" lon="14.032168738739909"><ele>596.0</ele><time>2026-04-26T15:33:41.999Z</time></trkpt><trkpt lat="37.60538965171723" lon="14.032164545590367"><ele>596.0</ele><time>2026-04-26T15:33:43.999Z</time></trkpt><trkpt lat="37.60526513428511" lon="14.032149630806693"><ele>596.0</ele><time>2026-04-26T15:33:45.999Z</time></trkpt><trkpt lat="37.60514808814949" lon="14.032174537133725"><ele>596.0</ele><time>2026-04-26T15:33:47.999Z</time></trkpt><trkpt lat="37.60506485590599" lon="14.032190783916894"><ele>593.4</ele><time>2026-04-26T15:33:49.999Z</time></trkpt><trkpt lat="37.604984538780045" lon="14.032196646942534"><ele>590.8</ele><time>2026-04-26T15:33:52.999Z</time></trkpt><trkpt lat="37.60491393921489" lon="14.03218734208469"><ele>588.1999999999999</ele><time>2026-04-26T15:33:55.999Z</time></trkpt><trkpt lat="37.60475756880458" lon="14.032165253010527"><ele>585.6</ele><time>2026-04-26T15:33:57.999Z</time></trkpt><trkpt lat="37.60466982487981" lon="14.03215374937722"><ele>583.0</ele><time>2026-04-26T15:33:59.999Z</time></trkpt><trkpt lat="37.60457945943294" lon="14.03213507499749"><ele>580.1999999999999</ele><time>2026-04-26T15:34:01.999Z</time></trkpt><trkpt lat="37.604475129340656" lon="14.032115453746858"><ele>577.4</ele><time>2026-04-26T15:34:03.999Z</time></trkpt><trkpt lat="37.60436276462283" lon="14.03211837108657"><ele>574.5999999999999</ele><time>2026-04-26T15:34:05.999Z</time></trkpt><trkpt lat="37.60425748532729" lon="14.032133198197446"><ele>571.8</ele><time>2026-04-26T15:34:07.999Z</time></trkpt><trkpt lat="37.60416509408364" lon="14.032116093711627"><ele>569.0</ele><time>2026-04-26T15:34:09.999Z</time></trkpt><trkpt lat="37.604077116479175" lon="14.032112997833373"><ele>569.0</ele><time>2026-04-26T15:34:11.999Z</time></trkpt><trkpt lat="37.603981548691245" lon="14.032123243464193"><ele>569.0</ele><time>2026-04-26T15:34:13.999Z</time></trkpt><trkpt lat="37.60387372938874" lon="14.032110304912882"><ele>569.0</ele><time>2026-04-26T15:34:16Z</time></trkpt><trkpt lat="37.603806221468496" lon="14.032105192156951"><ele>569.0</ele><time>2026-04-26T15:34:18Z</time></trkpt><trkpt lat="37.60372836038919" lon="14.03210954244026"><ele>569.0</ele><time>2026-04-26T15:34:20Z</time></trkpt><trkpt lat="37.603659287132075" lon="14.032143163911963"><ele>569.0</ele><time>2026-04-26T15:34:22Z</time></trkpt><trkpt lat="37.60357714546812" lon="14.032193967977285"><ele>566.0</ele><time>2026-04-26T15:34:24Z</time></trkpt><trkpt lat="37.6034966641293" lon="14.032250125638413"><ele>563.0</ele><time>2026-04-26T15:34:26Z</time></trkpt><trkpt lat="37.60339853444236" lon="14.032296177413677"><ele>560.0</ele><time>2026-04-26T15:34:28Z</time></trkpt><trkpt lat="37.60330139428636" lon="14.032349501114755"><ele>557.0</ele><time>2026-04-26T15:34:30Z</time></trkpt><trkpt lat="37.603174644111014" lon="14.03240418902888"><ele>554.0</ele><time>2026-04-26T15:34:33Z</time></trkpt><trkpt lat="37.60305743634314" lon="14.03246238421052"><ele>555.0</ele><time>2026-04-26T15:34:35Z</time></trkpt><trkpt lat="37.602960345411304" lon="14.032489643285386"><ele>556.0</ele><time>2026-04-26T15:34:37Z</time></trkpt><trkpt lat="37.60285798838525" lon="14.032519868271727"><ele>557.0</ele><time>2026-04-26T15:34:39Z</time></trkpt><trkpt lat="37.60276286158208" lon="14.032535645691027"><ele>558.0</ele><time>2026-04-26T15:34:41Z</time></trkpt><trkpt lat="37.60267825701198" lon="14.032539197617613"><ele>559.0</ele><time>2026-04-26T15:34:43Z</time></trkpt><trkpt lat="37.6026062471617" lon="14.032543968572753"><ele>555.2</ele><time>2026-04-26T15:34:45Z</time></trkpt><trkpt lat="37.60254019249727" lon="14.032564640731259"><ele>551.4</ele><time>2026-04-26T15:34:47Z</time></trkpt><trkpt lat="37.60245961795779" lon="14.03260994787193"><ele>547.6</ele><time>2026-04-26T15:34:49Z</time></trkpt><trkpt lat="37.60237669269257" lon="14.032675534702589"><ele>543.8</ele><time>2026-04-26T15:34:51Z</time></trkpt><trkpt lat="37.60229602139397" lon="14.03274197980813"><ele>540.0</ele><time>2026-04-26T15:34:53Z</time></trkpt><trkpt lat="37.60220731264728" lon="14.032801207565283"><ele>540.0</ele><time>2026-04-26T15:34:55Z</time></trkpt><trkpt lat="37.60211676969701" lon="14.03285506336447"><ele>540.0</ele><time>2026-04-26T15:34:57Z</time></trkpt><trkpt lat="37.602018018271544" lon="14.032907519808829"><ele>540.0</ele><time>2026-04-26T15:34:59Z</time></trkpt><trkpt lat="37.60192557420919" lon="14.032955783594396"><ele>540.0</ele><time>2026-04-26T15:35:01Z</time></trkpt><trkpt lat="37.601830008087695" lon="14.032993680435329"><ele>540.0</ele><time>2026-04-26T15:35:03Z</time></trkpt><trkpt lat="37.60172855383274" lon="14.033021250403703"><ele>536.4</ele><time>2026-04-26T15:35:05Z</time></trkpt><trkpt lat="37.60162130319787" lon="14.033020128045981"><ele>532.8</ele><time>2026-04-26T15:35:07Z</time></trkpt><trkpt lat="37.60151715529491" lon="14.03299295314686"><ele>529.2</ele><time>2026-04-26T15:35:09Z</time></trkpt><trkpt lat="37.601412620776266" lon="14.032981287053701"><ele>525.6</ele><time>2026-04-26T15:35:11Z</time></trkpt><trkpt lat="37.601316471419246" lon="14.03295554517793"><ele>522.0</ele><time>2026-04-26T15:35:13Z</time></trkpt><trkpt lat="37.60122254023431" lon="14.032932367772439"><ele>518.4</ele><time>2026-04-26T15:35:15Z</time></trkpt><trkpt lat="37.60112055095841" lon="14.032953239109943"><ele>514.8000000000001</ele><time>2026-04-26T15:35:17Z</time></trkpt><trkpt lat="37.60101306738437" lon="14.032923972259317"><ele>511.2</ele><time>2026-04-26T15:35:19Z</time></trkpt><trkpt lat="37.600908117634745" lon="14.032913348118528"><ele>507.6</ele><time>2026-04-26T15:35:21Z</time></trkpt><trkpt lat="37.600833312431135" lon="14.032905775538831"><ele>504.0</ele><time>2026-04-26T15:35:23Z</time></trkpt><trkpt lat="37.600770406194925" lon="14.03289940748411"><ele>504.0</ele><time>2026-04-26T15:35:24.999Z</time></trkpt><trkpt lat="37.600697752470765" lon="14.032893586416526"><ele>504.0</ele><time>2026-04-26T15:35:26.999Z</time></trkpt><trkpt lat="37.60061650386596" lon="14.032929617525776"><ele>504.0</ele><time>2026-04-26T15:35:28.999Z</time></trkpt><trkpt lat="37.60052690563792" lon="14.03291720749365"><ele>504.0</ele><time>2026-04-26T15:35:30.999Z</time></trkpt><trkpt lat="37.60043840669278" lon="14.032909120697253"><ele>504.0</ele><time>2026-04-26T15:35:32.999Z</time></trkpt><trkpt lat="37.600356275429995" lon="14.032913613896868"><ele>504.0</ele><time>2026-04-26T15:35:34.999Z</time></trkpt><trkpt lat="37.60026179877983" lon="14.032922597964065"><ele>501.4</ele><time>2026-04-26T15:35:36.999Z</time></trkpt><trkpt lat="37.60016540677196" lon="14.032920520413034"><ele>498.79999999999995</ele><time>2026-04-26T15:35:38.999Z</time></trkpt><trkpt lat="37.60006567984081" lon="14.032927739224434"><ele>496.20000000000005</ele><time>2026-04-26T15:35:40.999Z</time></trkpt><trkpt lat="37.59994994839671" lon="14.032938743606426"><ele>493.6</ele><time>2026-04-26T15:35:42.999Z</time></trkpt><trkpt lat="37.59986164574712" lon="14.032932606011318"><ele>491.0</ele><time>2026-04-26T15:35:44.999Z</time></trkpt><trkpt lat="37.5998000117078" lon="14.032899709231293"><ele>491.0</ele><time>2026-04-26T15:35:48.999Z</time></trkpt><trkpt lat="37.599730848738226" lon="14.032851129463763"><ele>491.0</ele><time>2026-04-26T15:35:51.999Z</time></trkpt><trkpt lat="37.59962149647352" lon="14.032788692469166"><ele>491.0</ele><time>2026-04-26T15:35:53.999Z</time></trkpt><trkpt lat="37.59954845439235" lon="14.032781304355666"><ele>491.0</ele><time>2026-04-26T15:35:55.999Z</time></trkpt><trkpt lat="37.59944411954333" lon="14.032838482524673"><ele>491.0</ele><time>2026-04-26T15:35:57.999Z</time></trkpt><trkpt lat="37.59934878472799" lon="14.032906751947074"><ele>492.20000000000005</ele><time>2026-04-26T15:35:59.999Z</time></trkpt><trkpt lat="37.59926756937557" lon="14.032992699730583"><ele>493.40000000000003</ele><time>2026-04-26T15:36:01.999Z</time></trkpt><trkpt lat="37.599274932951964" lon="14.033122920421432"><ele>494.6</ele><time>2026-04-26T15:36:03.999Z</time></trkpt><trkpt lat="37.599307695046505" lon="14.033199762533531"><ele>495.8</ele><time>2026-04-26T15:36:05.999Z</time></trkpt><trkpt lat="37.59931116819521" lon="14.033318151493656"><ele>497.0</ele><time>2026-04-26T15:36:07.999Z</time></trkpt><trkpt lat="37.59927665135262" lon="14.033411323794128"><ele>497.0</ele><time>2026-04-26T15:36:10.999Z</time></trkpt><trkpt lat="37.59920236985158" lon="14.033443167888175"><ele>497.00000000000006</ele><time>2026-04-26T15:36:12.999Z</time></trkpt><trkpt lat="37.59911084033338" lon="14.033450841364521"><ele>497.00000000000006</ele><time>2026-04-26T15:36:14.999Z</time></trkpt><trkpt lat="37.59899725422827" lon="14.03346136267284"><ele>497.0</ele><time>2026-04-26T15:36:16.999Z</time></trkpt><trkpt lat="37.59889452483338" lon="14.033416678788294"><ele>497.0</ele><time>2026-04-26T15:36:18.999Z</time></trkpt><trkpt lat="37.598776040851" lon="14.033409266384545"><ele>497.0</ele><time>2026-04-26T15:36:21Z</time></trkpt><trkpt lat="37.59870863834556" lon="14.033387755753893"><ele>497.00000000000006</ele><time>2026-04-26T15:36:22Z</time></trkpt><trkpt lat="37.598642162138866" lon="14.033372136903965"><ele>497.00000000000006</ele><time>2026-04-26T15:36:23Z</time></trkpt><trkpt lat="37.598524758282146" lon="14.033355310388679"><ele>497.0</ele><time>2026-04-26T15:36:25Z</time></trkpt><trkpt lat="37.5984199136346" lon="14.033406824853836"><ele>497.0</ele><time>2026-04-26T15:36:27Z</time></trkpt><trkpt lat="37.598321434745856" lon="14.033461777008593"><ele>501.0</ele><time>2026-04-26T15:36:29Z</time></trkpt><trkpt lat="37.59822068070902" lon="14.033511178120552"><ele>505.00000000000006</ele><time>2026-04-26T15:36:31Z</time></trkpt><trkpt lat="37.59811945230977" lon="14.033542707817077"><ele>509.00000000000006</ele><time>2026-04-26T15:36:33Z</time></trkpt><trkpt lat="37.598012574874474" lon="14.033578210687319"><ele>513.0</ele><time>2026-04-26T15:36:35Z</time></trkpt><trkpt lat="37.59790638236737" lon="14.033579502140592"><ele>517.0</ele><time>2026-04-26T15:36:37Z</time></trkpt><trkpt lat="37.597819760451124" lon="14.033596925049284"><ele>520.8000000000001</ele><time>2026-04-26T15:36:39Z</time></trkpt><trkpt lat="37.5977257013201" lon="14.033622957210847"><ele>524.6</ele><time>2026-04-26T15:36:41Z</time></trkpt><trkpt lat="37.59765044977899" lon="14.033647222584774"><ele>528.4000000000001</ele><time>2026-04-26T15:36:44Z</time></trkpt><trkpt lat="37.59752266086343" lon="14.03366195180064"><ele>532.2</ele><time>2026-04-26T15:36:45Z</time></trkpt><trkpt lat="37.59742259558235" lon="14.033656134056995"><ele>536.0</ele><time>2026-04-26T15:36:47Z</time></trkpt><trkpt lat="37.59732740417716" lon="14.033634757843537"><ele>536.0</ele><time>2026-04-26T15:36:49Z</time></trkpt><trkpt lat="37.59727891097707" lon="14.033549889319477"><ele>536.0</ele><time>2026-04-26T15:36:51Z</time></trkpt><trkpt lat="37.59721062597522" lon="14.0334730799328"><ele>536.0</ele><time>2026-04-26T15:36:53Z</time></trkpt><trkpt lat="37.59713343628787" lon="14.033382354914357"><ele>536.0</ele><time>2026-04-26T15:36:55Z</time></trkpt><trkpt lat="37.597046348177706" lon="14.033303677882543"><ele>536.0</ele><time>2026-04-26T15:36:57Z</time></trkpt><trkpt lat="37.596944522039045" lon="14.033272733682818"><ele>539.2</ele><time>2026-04-26T15:36:59Z</time></trkpt><trkpt lat="37.59683199599057" lon="14.033201335699435"><ele>542.4000000000001</ele><time>2026-04-26T15:37:01Z</time></trkpt><trkpt lat="37.596715778668724" lon="14.033163495920418"><ele>545.6</ele><time>2026-04-26T15:37:03Z</time></trkpt><trkpt lat="37.59665057223788" lon="14.033149394431144"><ele>548.8000000000001</ele><time>2026-04-26T15:37:04Z</time></trkpt><trkpt lat="37.5965232983136" lon="14.03312004494109"><ele>552.0</ele><time>2026-04-26T15:37:06Z</time></trkpt><trkpt lat="37.59641427983129" lon="14.033093120060856"><ele>552.0</ele><time>2026-04-26T15:37:08Z</time></trkpt><trkpt lat="37.596348379426395" lon="14.033075054039823"><ele>552.0</ele><time>2026-04-26T15:37:10Z</time></trkpt><trkpt lat="37.59628389837572" lon="14.033117873753723"><ele>552.0</ele><time>2026-04-26T15:37:28.999Z</time></trkpt><trkpt lat="37.59620884412583" lon="14.033086816728552"><ele>552.0</ele><time>2026-04-26T15:38:08.999Z</time></trkpt><trkpt lat="37.59610648435456" lon="14.033055242254033"><ele>552.0</ele><time>2026-04-26T15:38:10.999Z</time></trkpt><trkpt lat="37.59599406753759" lon="14.03302121443586"><ele>552.0</ele><time>2026-04-26T15:38:12.999Z</time></trkpt><trkpt lat="37.595937797060195" lon="14.03296064625992"><ele>554.6</ele><time>2026-04-26T15:38:13.999Z</time></trkpt><trkpt lat="37.59581405227141" lon="14.032940311484527"><ele>557.2</ele><time>2026-04-26T15:38:15.999Z</time></trkpt><trkpt lat="37.595729930874015" lon="14.032926538796715"><ele>559.8</ele><time>2026-04-26T15:38:16.999Z</time></trkpt><trkpt lat="37.595641570759284" lon="14.032917696185244"><ele>562.4</ele><time>2026-04-26T15:38:17.999Z</time></trkpt><trkpt lat="37.59555357994666" lon="14.032906645681303"><ele>565.0</ele><time>2026-04-26T15:38:18.999Z</time></trkpt><trkpt lat="37.59546127967051" lon="14.032890146322647"><ele>565.0</ele><time>2026-04-26T15:38:19.999Z</time></trkpt><trkpt lat="37.59537754687149" lon="14.032866614258015"><ele>565.0</ele><time>2026-04-26T15:38:20.999Z</time></trkpt><trkpt lat="37.59529365850097" lon="14.032825361594654"><ele>565.0</ele><time>2026-04-26T15:38:21.999Z</time></trkpt><trkpt lat="37.59521431542505" lon="14.032783405309415"><ele>565.0</ele><time>2026-04-26T15:38:22.999Z</time></trkpt><trkpt lat="37.59513451906237" lon="14.032741033965882"><ele>565.0</ele><time>2026-04-26T15:38:23.999Z</time></trkpt><trkpt lat="37.59506051797518" lon="14.032701739880395"><ele>565.0</ele><time>2026-04-26T15:38:24.999Z</time></trkpt><trkpt lat="37.59499092719963" lon="14.032661973609843"><ele>566.5</ele><time>2026-04-26T15:38:25.999Z</time></trkpt><trkpt lat="37.59492545812118" lon="14.032619230667652"><ele>568.0</ele><time>2026-04-26T15:38:27Z</time></trkpt><trkpt lat="37.59485663630255" lon="14.032572975671298"><ele>569.5</ele><time>2026-04-26T15:38:28Z</time></trkpt><trkpt lat="37.59478290673407" lon="14.032523422191161"><ele>571.0</ele><time>2026-04-26T15:38:29Z</time></trkpt><trkpt lat="37.59470547430977" lon="14.032471379837117"><ele>572.5</ele><time>2026-04-26T15:38:30Z</time></trkpt><trkpt lat="37.59462637308459" lon="14.032423374572966"><ele>574.0</ele><time>2026-04-26T15:38:31Z</time></trkpt><trkpt lat="37.59454371364051" lon="14.032380865744395"><ele>577.8</ele><time>2026-04-26T15:38:32Z</time></trkpt><trkpt lat="37.594462237754584" lon="14.03234574940595"><ele>581.5999999999999</ele><time>2026-04-26T15:38:33Z</time></trkpt><trkpt lat="37.59437494372038" lon="14.032317610545565"><ele>585.4</ele><time>2026-04-26T15:38:34Z</time></trkpt><trkpt lat="37.59428612812237" lon="14.032297030458679"><ele>589.1999999999999</ele><time>2026-04-26T15:38:35Z</time></trkpt><trkpt lat="37.59419449889259" lon="14.032277405543102"><ele>593.0</ele><time>2026-04-26T15:38:36Z</time></trkpt><trkpt lat="37.59409836882362" lon="14.032257648580245"><ele>593.0</ele><time>2026-04-26T15:38:37Z</time></trkpt><trkpt lat="37.594000671149935" lon="14.032258375019623"><ele>593.0</ele><time>2026-04-26T15:38:38Z</time></trkpt><trkpt lat="37.593919336397825" lon="14.032260253586317"><ele>593.0</ele><time>2026-04-26T15:38:39Z</time></trkpt><trkpt lat="37.59383252375292" lon="14.032262258673688"><ele>593.0</ele><time>2026-04-26T15:38:41Z</time></trkpt><trkpt lat="37.593764554656616" lon="14.03229869685108"><ele>593.0</ele><time>2026-04-26T15:38:43Z</time></trkpt><trkpt lat="37.593674747656" lon="14.032299060462561"><ele>593.0</ele><time>2026-04-26T15:38:45Z</time></trkpt><trkpt lat="37.59354560935752" lon="14.03229895596358"><ele>595.2857142857142</ele><time>2026-04-26T15:38:47Z</time></trkpt><trkpt lat="37.59346900371089" lon="14.032272248781778"><ele>597.5714285714286</ele><time>2026-04-26T15:38:48Z</time></trkpt><trkpt lat="37.59340022940401" lon="14.032272353371035"><ele>599.8571428571429</ele><time>2026-04-26T15:38:49Z</time></trkpt><trkpt lat="37.59333166212734" lon="14.032271430696202"><ele>602.1428571428571</ele><time>2026-04-26T15:38:50Z</time></trkpt><trkpt lat="37.59326320806366" lon="14.032269335162596"><ele>604.4285714285714</ele><time>2026-04-26T15:38:51Z</time></trkpt><trkpt lat="37.59319223872782" lon="14.032265138229793"><ele>606.7142857142857</ele><time>2026-04-26T15:38:52Z</time></trkpt><trkpt lat="37.59312905708825" lon="14.032259199033508"><ele>609.0</ele><time>2026-04-26T15:38:53Z</time></trkpt><trkpt lat="37.59302338979256" lon="14.032248159171962"><ele>609.0</ele><time>2026-04-26T15:38:55Z</time></trkpt><trkpt lat="37.59296023509549" lon="14.032248253392995"><ele>609.0</ele><time>2026-04-26T15:38:56Z</time></trkpt><trkpt lat="37.59284068746202" lon="14.032264872813585"><ele>609.0</ele><time>2026-04-26T15:38:58Z</time></trkpt><trkpt lat="37.59274995534894" lon="14.03227005629846"><ele>609.0</ele><time>2026-04-26T15:39:00Z</time></trkpt><trkpt lat="37.5926912316969" lon="14.032176179127791"><ele>609.0</ele><time>2026-04-26T15:39:02Z</time></trkpt><trkpt lat="37.59267758657785" lon="14.03204958083724"><ele>609.6</ele><time>2026-04-26T15:39:04Z</time></trkpt><trkpt lat="37.59264880944339" lon="14.031955187857303"><ele>610.2</ele><time>2026-04-26T15:39:06Z</time></trkpt><trkpt lat="37.59259510329351" lon="14.031907727629862"><ele>610.8000000000001</ele><time>2026-04-26T15:39:16Z</time></trkpt><trkpt lat="37.59248601928676" lon="14.0319272942036"><ele>611.4</ele><time>2026-04-26T15:39:20Z</time></trkpt><trkpt lat="37.59239141474999" lon="14.031954238938983"><ele>612.0</ele><time>2026-04-26T15:39:22Z</time></trkpt><trkpt lat="37.592281921939474" lon="14.031974450324913"><ele>612.0</ele><time>2026-04-26T15:39:24Z</time></trkpt><trkpt lat="37.59217818982591" lon="14.031994000266925"><ele>612.0</ele><time>2026-04-26T15:39:25.999Z</time></trkpt><trkpt lat="37.59208824940496" lon="14.032016814162434"><ele>612.0</ele><time>2026-04-26T15:39:27.999Z</time></trkpt><trkpt lat="37.59202245446417" lon="14.032032895458553"><ele>612.0</ele><time>2026-04-26T15:39:29.999Z</time></trkpt><trkpt lat="37.591960929295745" lon="14.032084786864377"><ele>612.0</ele><time>2026-04-26T15:39:39.999Z</time></trkpt><trkpt lat="37.59191591255137" lon="14.032171307831902"><ele>612.0</ele><time>2026-04-26T15:39:42.999Z</time></trkpt><trkpt lat="37.59183390104402" lon="14.032254694922264"><ele>611.8333333333334</ele><time>2026-04-26T15:39:45.999Z</time></trkpt><trkpt lat="37.59172308118235" lon="14.032261765202529"><ele>611.6666666666666</ele><time>2026-04-26T15:39:47.999Z</time></trkpt><trkpt lat="37.59159751489351" lon="14.032260920570456"><ele>611.5</ele><time>2026-04-26T15:39:49.999Z</time></trkpt><trkpt lat="37.591529567972266" lon="14.032262080934938"><ele>611.3333333333333</ele><time>2026-04-26T15:39:50.999Z</time></trkpt><trkpt lat="37.59145855378331" lon="14.032260205839009"><ele>611.1666666666666</ele><time>2026-04-26T15:39:51.999Z</time></trkpt><trkpt lat="37.59139399503009" lon="14.032256081969706"><ele>611.0</ele><time>2026-04-26T15:39:52.999Z</time></trkpt><trkpt lat="37.591330544088514" lon="14.032252961434187"><ele>611.0</ele><time>2026-04-26T15:39:53.999Z</time></trkpt><trkpt lat="37.59121072048749" lon="14.03223944415925"><ele>611.0</ele><time>2026-04-26T15:39:55.999Z</time></trkpt><trkpt lat="37.5910959785909" lon="14.03222909631997"><ele>611.0</ele><time>2026-04-26T15:39:57.999Z</time></trkpt><trkpt lat="37.591033468840635" lon="14.03221532794993"><ele>611.0</ele><time>2026-04-26T15:39:58.999Z</time></trkpt><trkpt lat="37.59091963128124" lon="14.03220750932313"><ele>611.0</ele><time>2026-04-26T15:40:00.999Z</time></trkpt><trkpt lat="37.59079251563371" lon="14.032199078194532"><ele>610.7142857142858</ele><time>2026-04-26T15:40:02.999Z</time></trkpt><trkpt lat="37.59072490730658" lon="14.032170830889013"><ele>610.4285714285714</ele><time>2026-04-26T15:40:03.999Z</time></trkpt><trkpt lat="37.590656393065885" lon="14.032182574998947"><ele>610.1428571428571</ele><time>2026-04-26T15:40:04.999Z</time></trkpt><trkpt lat="37.59058874927086" lon="14.032177816476526"><ele>609.8571428571429</ele><time>2026-04-26T15:40:05.999Z</time></trkpt><trkpt lat="37.59052068756538" lon="14.032171341629429"><ele>609.5714285714286</ele><time>2026-04-26T15:40:06.999Z</time></trkpt><trkpt lat="37.590454674318984" lon="14.03216008493967"><ele>609.2857142857143</ele><time>2026-04-26T15:40:07.999Z</time></trkpt><trkpt lat="37.590382428128386" lon="14.032149764199644"><ele>609.0</ele><time>2026-04-26T15:40:08.999Z</time></trkpt><trkpt lat="37.59031465798852" lon="14.032140914513938"><ele>608.7142857142857</ele><time>2026-04-26T15:40:09.999Z</time></trkpt><trkpt lat="37.590245812451705" lon="14.03213707922261"><ele>608.4285714285714</ele><time>2026-04-26T15:40:10.999Z</time></trkpt><trkpt lat="37.59017736864786" lon="14.032127881090926"><ele>608.1428571428571</ele><time>2026-04-26T15:40:11.999Z</time></trkpt><trkpt lat="37.59011142177052" lon="14.032111385601144"><ele>607.8571428571429</ele><time>2026-04-26T15:40:12.999Z</time></trkpt><trkpt lat="37.590040821349604" lon="14.032094968770513"><ele>607.5714285714286</ele><time>2026-04-26T15:40:13.999Z</time></trkpt><trkpt lat="37.589978210511944" lon="14.032113489144644"><ele>607.2857142857142</ele><time>2026-04-26T15:40:14.999Z</time></trkpt><trkpt lat="37.5899171614767" lon="14.0321547008134"><ele>607.0</ele><time>2026-04-26T15:40:15.999Z</time></trkpt><trkpt lat="37.58986612909977" lon="14.032202303605956"><ele>607.0</ele><time>2026-04-26T15:40:16.999Z</time></trkpt><trkpt lat="37.58978047333004" lon="14.03228501110808"><ele>607.0</ele><time>2026-04-26T15:40:18.999Z</time></trkpt><trkpt lat="37.58971201553017" lon="14.032341282536397"><ele>607.0</ele><time>2026-04-26T15:40:20.999Z</time></trkpt><trkpt lat="37.589607320039036" lon="14.032264044238499"><ele>607.0</ele><time>2026-04-26T15:40:23.999Z</time></trkpt><trkpt lat="37.58954343712361" lon="14.032196601737505"><ele>607.0</ele><time>2026-04-26T15:40:25.999Z</time></trkpt><trkpt lat="37.58947492311858" lon="14.03214113703417"><ele>605.8000000000001</ele><time>2026-04-26T15:40:27.999Z</time></trkpt><trkpt lat="37.58941208096635" lon="14.032078329895594"><ele>604.6</ele><time>2026-04-26T15:40:29.999Z</time></trkpt><trkpt lat="37.5893468056471" lon="14.032020758658302"><ele>603.4000000000001</ele><time>2026-04-26T15:40:31.999Z</time></trkpt><trkpt lat="37.58922858365087" lon="14.03210683248419"><ele>602.2</ele><time>2026-04-26T15:40:38Z</time></trkpt><trkpt lat="37.58912284567755" lon="14.032191842858445"><ele>601.0</ele><time>2026-04-26T15:40:40Z</time></trkpt><trkpt lat="37.589016632750976" lon="14.032268696923571"><ele>601.0</ele><time>2026-04-26T15:40:42Z</time></trkpt><trkpt lat="37.588942895780185" lon="14.032288731365417"><ele>601.0</ele><time>2026-04-26T15:40:43Z</time></trkpt><trkpt lat="37.588882469458596" lon="14.032326149550077"><ele>601.0</ele><time>2026-04-26T15:40:44Z</time></trkpt><trkpt lat="37.5888202079841" lon="14.032377411340162"><ele>601.0</ele><time>2026-04-26T15:40:45Z</time></trkpt><trkpt lat="37.58876419643353" lon="14.032428600200179"><ele>601.0</ele><time>2026-04-26T15:40:46Z</time></trkpt><trkpt lat="37.58870499918763" lon="14.032463108228026"><ele>601.0</ele><time>2026-04-26T15:40:47Z</time></trkpt><trkpt lat="37.58864952129085" lon="14.032506110741908"><ele>601.0</ele><time>2026-04-26T15:40:48Z</time></trkpt><trkpt lat="37.58854634573391" lon="14.032588448377592"><ele>600.2</ele><time>2026-04-26T15:40:50Z</time></trkpt><trkpt lat="37.58846127721485" lon="14.032634192369294"><ele>599.4000000000001</ele><time>2026-04-26T15:40:52Z</time></trkpt><trkpt lat="37.58838496167773" lon="14.032559663378162"><ele>598.6</ele><time>2026-04-26T15:40:54Z</time></trkpt><trkpt lat="37.58832058634119" lon="14.032461810402241"><ele>597.8000000000001</ele><time>2026-04-26T15:40:56Z</time></trkpt><trkpt lat="37.588222517976995" lon="14.032430965906713"><ele>597.0</ele><time>2026-04-26T15:40:58Z</time></trkpt><trkpt lat="37.58815255474045" lon="14.032381400123842"><ele>597.0</ele><time>2026-04-26T15:41:00Z</time></trkpt><trkpt lat="37.58805608367215" lon="14.03239081176452"><ele>597.0</ele><time>2026-04-26T15:42:39Z</time></trkpt><trkpt lat="37.58795417350816" lon="14.032470195411792"><ele>597.0</ele><time>2026-04-26T15:42:41Z</time></trkpt><trkpt lat="37.58789956135273" lon="14.032538881030476"><ele>597.0</ele><time>2026-04-26T15:42:42Z</time></trkpt><trkpt lat="37.58784537350046" lon="14.032620484796253"><ele>597.0</ele><time>2026-04-26T15:42:43Z</time></trkpt><trkpt lat="37.58780231429746" lon="14.032692077344462"><ele>597.0</ele><time>2026-04-26T15:42:44Z</time></trkpt><trkpt lat="37.587756324789595" lon="14.0327670974643"><ele>594.8333333333334</ele><time>2026-04-26T15:42:45Z</time></trkpt><trkpt lat="37.58770290043475" lon="14.03284780930531"><ele>592.6666666666666</ele><time>2026-04-26T15:42:46Z</time></trkpt><trkpt lat="37.587646634097396" lon="14.03293001839344"><ele>590.5</ele><time>2026-04-26T15:42:47Z</time></trkpt><trkpt lat="37.5875881695876" lon="14.033006140786007"><ele>588.3333333333333</ele><time>2026-04-26T15:42:48Z</time></trkpt><trkpt lat="37.58754311464468" lon="14.03309585164987"><ele>586.1666666666666</ele><time>2026-04-26T15:42:49Z</time></trkpt><trkpt lat="37.58750842066967" lon="14.033189402438927"><ele>584.0</ele><time>2026-04-26T15:42:50Z</time></trkpt><trkpt lat="37.58749011431911" lon="14.033295081854524"><ele>583.4</ele><time>2026-04-26T15:42:51Z</time></trkpt><trkpt lat="37.58749978110859" lon="14.033419859543386"><ele>582.8</ele><time>2026-04-26T15:42:52Z</time></trkpt><trkpt lat="37.58749431857721" lon="14.033558566801586"><ele>582.2</ele><time>2026-04-26T15:42:53Z</time></trkpt><trkpt lat="37.58750548427815" lon="14.033703843586618"><ele>581.6</ele><time>2026-04-26T15:42:54Z</time></trkpt><trkpt lat="37.587518892096604" lon="14.033845660585753"><ele>581.0</ele><time>2026-04-26T15:42:55Z</time></trkpt><trkpt lat="37.58753200549531" lon="14.03398099048652"><ele>581.0</ele><time>2026-04-26T15:42:56Z</time></trkpt><trkpt lat="37.587545582396196" lon="14.034107250896799"><ele>581.0</ele><time>2026-04-26T15:42:57Z</time></trkpt><trkpt lat="37.58755899985302" lon="14.034233047463397"><ele>581.0</ele><time>2026-04-26T15:42:58Z</time></trkpt><trkpt lat="37.587571710805584" lon="14.034365148226486"><ele>581.0</ele><time>2026-04-26T15:42:59Z</time></trkpt><trkpt lat="37.58758768818539" lon="14.034499145645372"><ele>581.0</ele><time>2026-04-26T15:43:00Z</time></trkpt><trkpt lat="37.587609230891296" lon="14.03461814682034"><ele>581.4</ele><time>2026-04-26T15:43:01Z</time></trkpt><trkpt lat="37.58764926344611" lon="14.034717682313074"><ele>581.8</ele><time>2026-04-26T15:43:02Z</time></trkpt><trkpt lat="37.587660731409606" lon="14.034808584712103"><ele>582.1999999999999</ele><time>2026-04-26T15:43:03Z</time></trkpt><trkpt lat="37.587710602556506" lon="14.03491838304048"><ele>582.6</ele><time>2026-04-26T15:43:05Z</time></trkpt><trkpt lat="37.58764022448117" lon="14.035096651643892"><ele>583.0</ele><time>2026-04-26T15:43:07Z</time></trkpt><trkpt lat="37.58758591612651" lon="14.035169968256971"><ele>583.0000000000001</ele><time>2026-04-26T15:43:08Z</time></trkpt><trkpt lat="37.58753174925005" lon="14.03524525176731"><ele>583.0</ele><time>2026-04-26T15:43:09Z</time></trkpt><trkpt lat="37.5874792471013" lon="14.035320542321621"><ele>583.0</ele><time>2026-04-26T15:43:10Z</time></trkpt><trkpt lat="37.58742572566757" lon="14.035386563992244"><ele>583.0</ele><time>2026-04-26T15:43:11Z</time></trkpt><trkpt lat="37.58737488266488" lon="14.035446617141005"><ele>583.0</ele><time>2026-04-26T15:43:12Z</time></trkpt><trkpt lat="37.58732832543283" lon="14.035508146972672"><ele>583.0000000000001</ele><time>2026-04-26T15:43:13Z</time></trkpt><trkpt lat="37.587277563773526" lon="14.035575995088827"><ele>583.0</ele><time>2026-04-26T15:43:14Z</time></trkpt><trkpt lat="37.58723302699424" lon="14.035644071361835"><ele>583.0</ele><time>2026-04-26T15:43:15Z</time></trkpt><trkpt lat="37.58718337845884" lon="14.035704189757077"><ele>583.0</ele><time>2026-04-26T15:43:16Z</time></trkpt><trkpt lat="37.587149309584625" lon="14.035806302229844"><ele>583.0</ele><time>2026-04-26T15:43:17Z</time></trkpt><trkpt lat="37.58711172603847" lon="14.035905592634963"><ele>583.0</ele><time>2026-04-26T15:43:18Z</time></trkpt><trkpt lat="37.58708212059322" lon="14.036023895588981"><ele>583.0</ele><time>2026-04-26T15:43:19Z</time></trkpt><trkpt lat="37.58707649554559" lon="14.036145264842038"><ele>583.0</ele><time>2026-04-26T15:43:20Z</time></trkpt><trkpt lat="37.58708656931119" lon="14.036264027593063"><ele>583.6</ele><time>2026-04-26T15:43:21Z</time></trkpt><trkpt lat="37.58710932247503" lon="14.036396848085902"><ele>584.1999999999999</ele><time>2026-04-26T15:43:22Z</time></trkpt><trkpt lat="37.58713126776841" lon="14.036541070155069"><ele>584.8</ele><time>2026-04-26T15:43:23Z</time></trkpt><trkpt lat="37.58715110170091" lon="14.036677663727614"><ele>585.4</ele><time>2026-04-26T15:43:24Z</time></trkpt><trkpt lat="37.587159027381624" lon="14.03682007402209"><ele>586.0</ele><time>2026-04-26T15:43:25Z</time></trkpt><trkpt lat="37.587159940509665" lon="14.036965289532262"><ele>586.0</ele><time>2026-04-26T15:43:26Z</time></trkpt><trkpt lat="37.58715153151463" lon="14.037112496665669"><ele>586.0</ele><time>2026-04-26T15:43:27Z</time></trkpt><trkpt lat="37.587144866090654" lon="14.037256370515582"><ele>586.0</ele><time>2026-04-26T15:43:28Z</time></trkpt><trkpt lat="37.58713664866618" lon="14.037395219939192"><ele>586.0</ele><time>2026-04-26T15:43:29Z</time></trkpt><trkpt lat="37.58712721559802" lon="14.037527511074702"><ele>586.0</ele><time>2026-04-26T15:43:30Z</time></trkpt><trkpt lat="37.58710822916827" lon="14.037647601921675"><ele>585.6</ele><time>2026-04-26T15:43:31Z</time></trkpt><trkpt lat="37.58707877919309" lon="14.03776414762122"><ele>585.2</ele><time>2026-04-26T15:43:32Z</time></trkpt><trkpt lat="37.58701413371045" lon="14.037861303522893"><ele>584.8</ele><time>2026-04-26T15:43:33Z</time></trkpt><trkpt lat="37.5869505648471" lon="14.037962878504896"><ele>584.4</ele><time>2026-04-26T15:43:34Z</time></trkpt><trkpt lat="37.586895255017694" lon="14.038076169647173"><ele>584.0</ele><time>2026-04-26T15:43:35Z</time></trkpt><trkpt lat="37.586814400177495" lon="14.038171970248698"><ele>582.4</ele><time>2026-04-26T15:43:36Z</time></trkpt><trkpt lat="37.58674393321811" lon="14.038261927600246"><ele>580.8</ele><time>2026-04-26T15:43:37Z</time></trkpt><trkpt lat="37.58667850671105" lon="14.038351245420097"><ele>579.2</ele><time>2026-04-26T15:43:38Z</time></trkpt><trkpt lat="37.58661662780453" lon="14.03844328765986"><ele>577.6</ele><time>2026-04-26T15:43:39Z</time></trkpt><trkpt lat="37.586548858661324" lon="14.038526583911034"><ele>576.0</ele><time>2026-04-26T15:43:40Z</time></trkpt><trkpt lat="37.5864902282525" lon="14.038618908426358"><ele>576.0</ele><time>2026-04-26T15:43:41Z</time></trkpt><trkpt lat="37.58644645041677" lon="14.038736090400494"><ele>576.0</ele><time>2026-04-26T15:43:41.999Z</time></trkpt><trkpt lat="37.586435504543616" lon="14.038879381734258"><ele>576.0</ele><time>2026-04-26T15:43:42.999Z</time></trkpt><trkpt lat="37.58643730250328" lon="14.03902219743644"><ele>576.0</ele><time>2026-04-26T15:43:43.999Z</time></trkpt><trkpt lat="37.58644451795497" lon="14.039168154588472"><ele>576.0</ele><time>2026-04-26T15:43:44.999Z</time></trkpt><trkpt lat="37.58645305144094" lon="14.039316203052747"><ele>577.5</ele><time>2026-04-26T15:43:45.999Z</time></trkpt><trkpt lat="37.586460459413466" lon="14.03945557271971"><ele>579.0</ele><time>2026-04-26T15:43:46.999Z</time></trkpt><trkpt lat="37.586469182629564" lon="14.039592624927483"><ele>580.5</ele><time>2026-04-26T15:43:47.999Z</time></trkpt><trkpt lat="37.58649695038852" lon="14.039730904579116"><ele>582.0</ele><time>2026-04-26T15:43:48.999Z</time></trkpt><trkpt lat="37.586548731690016" lon="14.039866452794934"><ele>580.8000000000001</ele><time>2026-04-26T15:43:49.999Z</time></trkpt><trkpt lat="37.58659928754547" lon="14.040003364404596"><ele>579.6</ele><time>2026-04-26T15:43:50.999Z</time></trkpt><trkpt lat="37.58666830674858" lon="14.040122193333294"><ele>578.4000000000001</ele><time>2026-04-26T15:43:51.999Z</time></trkpt><trkpt lat="37.58673713416705" lon="14.04023241222892"><ele>577.2</ele><time>2026-04-26T15:43:52.999Z</time></trkpt><trkpt lat="37.586809978290766" lon="14.040318965658066"><ele>576.0</ele><time>2026-04-26T15:43:53.999Z</time></trkpt><trkpt lat="37.586861125913195" lon="14.040421051781673"><ele>576.0</ele><time>2026-04-26T15:43:54.999Z</time></trkpt><trkpt lat="37.586878223221795" lon="14.040536425357871"><ele>576.0</ele><time>2026-04-26T15:43:55.999Z</time></trkpt><trkpt lat="37.58687885013776" lon="14.040657347840291"><ele>576.0</ele><time>2026-04-26T15:43:56.999Z</time></trkpt><trkpt lat="37.58685645544605" lon="14.040778910862892"><ele>576.0</ele><time>2026-04-26T15:43:57.999Z</time></trkpt><trkpt lat="37.586812612204305" lon="14.04089789132414"><ele>576.0</ele><time>2026-04-26T15:43:58.999Z</time></trkpt><trkpt lat="37.58674571324652" lon="14.04099253553903"><ele>574.2</ele><time>2026-04-26T15:43:59.999Z</time></trkpt><trkpt lat="37.5866536673763" lon="14.041032157667981"><ele>572.4000000000001</ele><time>2026-04-26T15:44:00.999Z</time></trkpt><trkpt lat="37.58655097553215" lon="14.041074727176024"><ele>570.6</ele><time>2026-04-26T15:44:01.999Z</time></trkpt><trkpt lat="37.586448222717195" lon="14.041112659844593"><ele>568.8000000000001</ele><time>2026-04-26T15:44:02.999Z</time></trkpt><trkpt lat="37.586353357444665" lon="14.041147680754944"><ele>567.0</ele><time>2026-04-26T15:44:03.999Z</time></trkpt><trkpt lat="37.58625365621037" lon="14.041184486897583"><ele>564.8000000000001</ele><time>2026-04-26T15:44:04.999Z</time></trkpt><trkpt lat="37.58615510385748" lon="14.041223509551218"><ele>562.6</ele><time>2026-04-26T15:44:05.999Z</time></trkpt><trkpt lat="37.586063354603425" lon="14.041278990222983"><ele>560.4000000000001</ele><time>2026-04-26T15:44:06.999Z</time></trkpt><trkpt lat="37.58596432815072" lon="14.04130396636563"><ele>558.2</ele><time>2026-04-26T15:44:07.999Z</time></trkpt><trkpt lat="37.585867876318346" lon="14.041315822540597"><ele>556.0</ele><time>2026-04-26T15:44:08.999Z</time></trkpt><trkpt lat="37.585767790124784" lon="14.041304115403284"><ele>556.0</ele><time>2026-04-26T15:44:09.999Z</time></trkpt><trkpt lat="37.58567484215629" lon="14.041280548738746"><ele>556.0</ele><time>2026-04-26T15:44:10.999Z</time></trkpt><trkpt lat="37.58558423842676" lon="14.041261544617914"><ele>556.0</ele><time>2026-04-26T15:44:11.999Z</time></trkpt><trkpt lat="37.58549464548051" lon="14.041236418732288"><ele>556.0</ele><time>2026-04-26T15:44:12.999Z</time></trkpt><trkpt lat="37.585411229932575" lon="14.041206786188493"><ele>556.0</ele><time>2026-04-26T15:44:13.999Z</time></trkpt><trkpt lat="37.58532701194123" lon="14.041167158007445"><ele>556.6666666666667</ele><time>2026-04-26T15:44:14.999Z</time></trkpt><trkpt lat="37.58524903474367" lon="14.041122931030035"><ele>557.3333333333334</ele><time>2026-04-26T15:44:15.999Z</time></trkpt><trkpt lat="37.585169870636975" lon="14.04106990536816"><ele>558.0</ele><time>2026-04-26T15:44:16.999Z</time></trkpt><trkpt lat="37.585095675890464" lon="14.041009972838337"><ele>558.6666666666666</ele><time>2026-04-26T15:44:17.999Z</time></trkpt><trkpt lat="37.58502687961384" lon="14.040948052510025"><ele>559.3333333333333</ele><time>2026-04-26T15:44:18.999Z</time></trkpt><trkpt lat="37.58496605321488" lon="14.040880229319816"><ele>560.0</ele><time>2026-04-26T15:44:19.999Z</time></trkpt><trkpt lat="37.58490737550979" lon="14.040808181994663"><ele>557.6666666666666</ele><time>2026-04-26T15:44:20.999Z</time></trkpt><trkpt lat="37.58485056434304" lon="14.040739487779451"><ele>555.3333333333333</ele><time>2026-04-26T15:44:21.999Z</time></trkpt><trkpt lat="37.584794295601135" lon="14.040667591800968"><ele>553.0</ele><time>2026-04-26T15:44:22.999Z</time></trkpt><trkpt lat="37.584739799971466" lon="14.04060054388655"><ele>550.6666666666666</ele><time>2026-04-26T15:44:23.999Z</time></trkpt><trkpt lat="37.58468843295062" lon="14.040539158617943"><ele>548.3333333333334</ele><time>2026-04-26T15:44:24.999Z</time></trkpt><trkpt lat="37.584643764576604" lon="14.040482120922361"><ele>546.0</ele><time>2026-04-26T15:44:25.999Z</time></trkpt><trkpt lat="37.58457931064675" lon="14.040374836996673"><ele>546.0</ele><time>2026-04-26T15:44:27.999Z</time></trkpt><trkpt lat="37.58452830302082" lon="14.040271742158176"><ele>546.0</ele><time>2026-04-26T15:44:29.999Z</time></trkpt><trkpt lat="37.58450193616478" lon="14.040198828250656"><ele>546.0</ele><time>2026-04-26T15:44:31.999Z</time></trkpt><trkpt lat="37.58446020314482" lon="14.040132055872073"><ele>546.0</ele><time>2026-04-26T15:44:35.999Z</time></trkpt><trkpt lat="37.58440355372694" lon="14.040073211470686"><ele>546.0</ele><time>2026-04-26T15:44:38.999Z</time></trkpt><trkpt lat="37.58433635697257" lon="14.04001306654767"><ele>546.0</ele><time>2026-04-26T15:44:40.999Z</time></trkpt><trkpt lat="37.58424975888341" lon="14.039917419400755"><ele>543.8</ele><time>2026-04-26T15:44:42.999Z</time></trkpt><trkpt lat="37.58414888102446" lon="14.039839495225507"><ele>541.6</ele><time>2026-04-26T15:44:45Z</time></trkpt><trkpt lat="37.584055524067125" lon="14.039748410037786"><ele>539.4</ele><time>2026-04-26T15:44:47Z</time></trkpt><trkpt lat="37.583934261733866" lon="14.039700951924688"><ele>537.2</ele><time>2026-04-26T15:44:49Z</time></trkpt><trkpt lat="37.583871462556125" lon="14.039688037141604"><ele>535.0</ele><time>2026-04-26T15:44:50Z</time></trkpt><trkpt lat="37.58375635910826" lon="14.03967104952246"><ele>533.4</ele><time>2026-04-26T15:44:52Z</time></trkpt><trkpt lat="37.58365297429615" lon="14.039678968579754"><ele>531.8</ele><time>2026-04-26T15:44:54Z</time></trkpt><trkpt lat="37.58356029318304" lon="14.039733146302629"><ele>530.2</ele><time>2026-04-26T15:44:56Z</time></trkpt><trkpt lat="37.583457690560536" lon="14.039789050895598"><ele>528.6</ele><time>2026-04-26T15:44:58Z</time></trkpt><trkpt lat="37.583397966620794" lon="14.039818047402116"><ele>527.0</ele><time>2026-04-26T15:44:59Z</time></trkpt><trkpt lat="37.58333008417686" lon="14.039848350331262"><ele>527.0000000000001</ele><time>2026-04-26T15:45:00Z</time></trkpt><trkpt lat="37.58325320673478" lon="14.039894263249453"><ele>527.0</ele><time>2026-04-26T15:45:01Z</time></trkpt><trkpt lat="37.58318462331541" lon="14.039940045460446"><ele>527.0</ele><time>2026-04-26T15:45:02Z</time></trkpt><trkpt lat="37.58312728561859" lon="14.03997537286908"><ele>527.0</ele><time>2026-04-26T15:45:03Z</time></trkpt><trkpt lat="37.58306855799665" lon="14.04000515881471"><ele>527.0</ele><time>2026-04-26T15:45:04Z</time></trkpt><trkpt lat="37.58300699225932" lon="14.040033712005002"><ele>527.0000000000001</ele><time>2026-04-26T15:45:05Z</time></trkpt><trkpt lat="37.582939800860515" lon="14.0400616253031"><ele>527.0</ele><time>2026-04-26T15:45:06Z</time></trkpt><trkpt lat="37.58286557576784" lon="14.040090010050884"><ele>526.3333333333333</ele><time>2026-04-26T15:45:07Z</time></trkpt><trkpt lat="37.58278557538255" lon="14.040118333189755"><ele>525.6666666666666</ele><time>2026-04-26T15:45:08Z</time></trkpt><trkpt lat="37.58270811259286" lon="14.040143500548222"><ele>525.0</ele><time>2026-04-26T15:45:09Z</time></trkpt><trkpt lat="37.582629401881704" lon="14.0401657126628"><ele>524.3333333333334</ele><time>2026-04-26T15:45:10Z</time></trkpt><trkpt lat="37.58254341439487" lon="14.040190470536821"><ele>523.6666666666667</ele><time>2026-04-26T15:45:11Z</time></trkpt><trkpt lat="37.58246301901592" lon="14.040214405433154"><ele>523.0</ele><time>2026-04-26T15:45:12Z</time></trkpt><trkpt lat="37.58238759421772" lon="14.040259024947535"><ele>523.0</ele><time>2026-04-26T15:45:13Z</time></trkpt><trkpt lat="37.58231447978116" lon="14.040289064383735"><ele>523.0</ele><time>2026-04-26T15:45:14Z</time></trkpt><trkpt lat="37.58223638385136" lon="14.040329352004905"><ele>523.0</ele><time>2026-04-26T15:45:15Z</time></trkpt><trkpt lat="37.582163918699976" lon="14.040377389658097"><ele>523.0</ele><time>2026-04-26T15:45:16Z</time></trkpt><trkpt lat="37.58210455356848" lon="14.04042602275106"><ele>523.0</ele><time>2026-04-26T15:45:17Z</time></trkpt><trkpt lat="37.58205146067738" lon="14.040488368112"><ele>523.0</ele><time>2026-04-26T15:45:18Z</time></trkpt><trkpt lat="37.582012761776696" lon="14.040566149768482"><ele>522.5714285714286</ele><time>2026-04-26T15:45:19Z</time></trkpt><trkpt lat="37.5819789882837" lon="14.040640578158753"><ele>522.1428571428571</ele><time>2026-04-26T15:45:20Z</time></trkpt><trkpt lat="37.58193713407065" lon="14.04070648397195"><ele>521.7142857142858</ele><time>2026-04-26T15:45:21Z</time></trkpt><trkpt lat="37.58189184906435" lon="14.040782091644838"><ele>521.2857142857142</ele><time>2026-04-26T15:45:22Z</time></trkpt><trkpt lat="37.58183910056044" lon="14.040858827685437"><ele>520.8571428571429</ele><time>2026-04-26T15:45:23Z</time></trkpt><trkpt lat="37.5817929719605" lon="14.040929924365967"><ele>520.4285714285714</ele><time>2026-04-26T15:45:24Z</time></trkpt><trkpt lat="37.58174023097494" lon="14.040990146127445"><ele>520.0</ele><time>2026-04-26T15:45:25Z</time></trkpt><trkpt lat="37.58167646520753" lon="14.041033888744831"><ele>520.0000000000001</ele><time>2026-04-26T15:45:26Z</time></trkpt><trkpt lat="37.58160253126374" lon="14.041056254104234"><ele>520.0</ele><time>2026-04-26T15:45:27Z</time></trkpt><trkpt lat="37.581534553784365" lon="14.041091925235355"><ele>520.0</ele><time>2026-04-26T15:45:28Z</time></trkpt><trkpt lat="37.58145993362873" lon="14.041060570426971"><ele>520.0</ele><time>2026-04-26T15:45:29Z</time></trkpt><trkpt lat="37.58138480888427" lon="14.041054486721823"><ele>520.0</ele><time>2026-04-26T15:45:30Z</time></trkpt><trkpt lat="37.58131316523916" lon="14.041060777625114"><ele>520.0000000000001</ele><time>2026-04-26T15:45:31Z</time></trkpt><trkpt lat="37.58124685407392" lon="14.041048859718467"><ele>520.0</ele><time>2026-04-26T15:45:32Z</time></trkpt><trkpt lat="37.58117635510515" lon="14.041054788234206"><ele>518.0</ele><time>2026-04-26T15:45:33Z</time></trkpt><trkpt lat="37.58110417372634" lon="14.041070857359376"><ele>516.0</ele><time>2026-04-26T15:45:34Z</time></trkpt><trkpt lat="37.58102747204649" lon="14.041093430408921"><ele>514.0</ele><time>2026-04-26T15:45:35Z</time></trkpt><trkpt lat="37.58095381901641" lon="14.04112029437864"><ele>512.0</ele><time>2026-04-26T15:45:36Z</time></trkpt><trkpt lat="37.58088280181602" lon="14.041154013156321"><ele>510.00000000000006</ele><time>2026-04-26T15:45:37Z</time></trkpt><trkpt lat="37.580813126182235" lon="14.041197611014931"><ele>508.0</ele><time>2026-04-26T15:45:38Z</time></trkpt><trkpt lat="37.58074615841297" lon="14.041251621778498"><ele>508.00000000000006</ele><time>2026-04-26T15:45:39Z</time></trkpt><trkpt lat="37.58068984902351" lon="14.041315234808282"><ele>508.0</ele><time>2026-04-26T15:45:40Z</time></trkpt><trkpt lat="37.58065290319423" lon="14.041385988838181"><ele>508.0</ele><time>2026-04-26T15:45:41Z</time></trkpt><trkpt lat="37.58063032749011" lon="14.041461696781552"><ele>508.0</ele><time>2026-04-26T15:45:42Z</time></trkpt><trkpt lat="37.580570047899634" lon="14.041564774893667"><ele>508.00000000000006</ele><time>2026-04-26T15:45:44Z</time></trkpt><trkpt lat="37.58045862663126" lon="14.041637278255232"><ele>508.0</ele><time>2026-04-26T15:45:46Z</time></trkpt><trkpt lat="37.58034979348266" lon="14.041671627072011"><ele>507.50000000000006</ele><time>2026-04-26T15:45:47.999Z</time></trkpt><trkpt lat="37.58025393031934" lon="14.04168461982812"><ele>507.0</ele><time>2026-04-26T15:45:49.999Z</time></trkpt><trkpt lat="37.580141613841654" lon="14.04170160014353"><ele>506.5</ele><time>2026-04-26T15:45:51.999Z</time></trkpt><trkpt lat="37.58007701594424" lon="14.041707699084354"><ele>506.0</ele><time>2026-04-26T15:45:52.999Z</time></trkpt><trkpt lat="37.58001139447293" lon="14.04172523212606"><ele>505.50000000000006</ele><time>2026-04-26T15:45:53.999Z</time></trkpt><trkpt lat="37.579942916590674" lon="14.041739703097337"><ele>505.0</ele><time>2026-04-26T15:45:54.999Z</time></trkpt><trkpt lat="37.579879091195295" lon="14.041778019511208"><ele>505.0</ele><time>2026-04-26T15:45:55.999Z</time></trkpt><trkpt lat="37.57981629017147" lon="14.041827185231883"><ele>505.0</ele><time>2026-04-26T15:45:56.999Z</time></trkpt><trkpt lat="37.57977746177129" lon="14.041892269888853"><ele>505.0</ele><time>2026-04-26T15:45:57.999Z</time></trkpt><trkpt lat="37.57968996823814" lon="14.042021434581363"><ele>505.0</ele><time>2026-04-26T15:45:59.999Z</time></trkpt><trkpt lat="37.579655807846265" lon="14.042099305327714"><ele>505.0</ele><time>2026-04-26T15:46:00.999Z</time></trkpt><trkpt lat="37.579581905880126" lon="14.042195402911293"><ele>504.00000000000006</ele><time>2026-04-26T15:46:02.999Z</time></trkpt><trkpt lat="37.579482750848186" lon="14.042236500711699"><ele>503.0</ele><time>2026-04-26T15:46:04.999Z</time></trkpt><trkpt lat="37.57941903192353" lon="14.04225777673804"><ele>502.0</ele><time>2026-04-26T15:46:05.999Z</time></trkpt><trkpt lat="37.579306373161" lon="14.042319816225103"><ele>501.0</ele><time>2026-04-26T15:46:07.999Z</time></trkpt><trkpt lat="37.57925553807433" lon="14.042375430478423"><ele>500.00000000000006</ele><time>2026-04-26T15:46:08.999Z</time></trkpt><trkpt lat="37.57920531886607" lon="14.042436994215391"><ele>499.0</ele><time>2026-04-26T15:46:09.999Z</time></trkpt><trkpt lat="37.579156755017536" lon="14.042504200786116"><ele>499.00000000000006</ele><time>2026-04-26T15:46:10.999Z</time></trkpt><trkpt lat="37.57911552889089" lon="14.042574860520233"><ele>499.0</ele><time>2026-04-26T15:46:11.999Z</time></trkpt><trkpt lat="37.57908831969147" lon="14.042660789963232"><ele>499.00000000000006</ele><time>2026-04-26T15:46:12.999Z</time></trkpt><trkpt lat="37.579051570848044" lon="14.042738391599029"><ele>499.00000000000006</ele><time>2026-04-26T15:46:13.999Z</time></trkpt><trkpt lat="37.57901208400739" lon="14.042815004691413"><ele>499.0</ele><time>2026-04-26T15:46:14.999Z</time></trkpt><trkpt lat="37.57897433350804" lon="14.042882493109856"><ele>499.00000000000006</ele><time>2026-04-26T15:46:15.999Z</time></trkpt><trkpt lat="37.578934698054326" lon="14.042952088541307"><ele>499.00000000000006</ele><time>2026-04-26T15:46:16.999Z</time></trkpt><trkpt lat="37.5788984218989" lon="14.043024026045147"><ele>499.00000000000006</ele><time>2026-04-26T15:46:17.999Z</time></trkpt><trkpt lat="37.578876650951386" lon="14.043102105339383"><ele>499.0</ele><time>2026-04-26T15:46:18.999Z</time></trkpt><trkpt lat="37.57884199717189" lon="14.04317608363846"><ele>499.0</ele><time>2026-04-26T15:46:19.999Z</time></trkpt><trkpt lat="37.578813091399304" lon="14.043263161818663"><ele>499.0</ele><time>2026-04-26T15:46:20.999Z</time></trkpt><trkpt lat="37.578756432669685" lon="14.043343975449925"><ele>499.00000000000006</ele><time>2026-04-26T15:46:21.999Z</time></trkpt><trkpt lat="37.5787142542726" lon="14.043443618033455"><ele>499.0</ele><time>2026-04-26T15:46:22.999Z</time></trkpt><trkpt lat="37.57869492343654" lon="14.043541241241064"><ele>496.00000000000006</ele><time>2026-04-26T15:46:23.999Z</time></trkpt><trkpt lat="37.578667962985975" lon="14.043624997187008"><ele>493.0</ele><time>2026-04-26T15:46:24.999Z</time></trkpt><trkpt lat="37.578625044662395" lon="14.043689344705838"><ele>490.0</ele><time>2026-04-26T15:46:25.999Z</time></trkpt><trkpt lat="37.57856667209981" lon="14.0437700273496"><ele>487.0</ele><time>2026-04-26T15:46:27.999Z</time></trkpt><trkpt lat="37.57845914523289" lon="14.043824816754311"><ele>484.00000000000006</ele><time>2026-04-26T15:46:29.999Z</time></trkpt><trkpt lat="37.57840050010928" lon="14.04385680529246"><ele>481.0</ele><time>2026-04-26T15:46:30.999Z</time></trkpt><trkpt lat="37.578329560187534" lon="14.043895500351443"><ele>481.00000000000006</ele><time>2026-04-26T15:46:31.999Z</time></trkpt><trkpt lat="37.57825640755209" lon="14.043937924578007"><ele>481.0</ele><time>2026-04-26T15:46:32.999Z</time></trkpt><trkpt lat="37.578179519114336" lon="14.043970166310771"><ele>481.0</ele><time>2026-04-26T15:46:33.999Z</time></trkpt><trkpt lat="37.57810252629869" lon="14.043966925049391"><ele>481.0</ele><time>2026-04-26T15:46:34.999Z</time></trkpt><trkpt lat="37.57801807248213" lon="14.043959000854722"><ele>481.00000000000006</ele><time>2026-04-26T15:46:35.999Z</time></trkpt><trkpt lat="37.57792774146857" lon="14.043939325999004"><ele>481.0</ele><time>2026-04-26T15:46:36.999Z</time></trkpt><trkpt lat="37.577835083852214" lon="14.043915353805275"><ele>479.8</ele><time>2026-04-26T15:46:37.999Z</time></trkpt><trkpt lat="37.57773496752605" lon="14.043889407195335"><ele>478.6</ele><time>2026-04-26T15:46:38.999Z</time></trkpt><trkpt lat="37.57763341888308" lon="14.043863089399938"><ele>477.4</ele><time>2026-04-26T15:46:39.999Z</time></trkpt><trkpt lat="37.57752561948737" lon="14.043835782223349"><ele>476.2</ele><time>2026-04-26T15:46:40.999Z</time></trkpt><trkpt lat="37.57741737112113" lon="14.043809119349609"><ele>475.0</ele><time>2026-04-26T15:46:41.999Z</time></trkpt><trkpt lat="37.57730807561679" lon="14.043782198527168"><ele>475.00000000000006</ele><time>2026-04-26T15:46:42.999Z</time></trkpt><trkpt lat="37.57720363594557" lon="14.043776039887986"><ele>475.0</ele><time>2026-04-26T15:46:43.999Z</time></trkpt><trkpt lat="37.57711339122036" lon="14.043751990937999"><ele>475.0</ele><time>2026-04-26T15:46:44.999Z</time></trkpt><trkpt lat="37.577028383539485" lon="14.043736351206254"><ele>475.0</ele><time>2026-04-26T15:46:45.999Z</time></trkpt><trkpt lat="37.57694793447411" lon="14.043735358113443"><ele>475.00000000000006</ele><time>2026-04-26T15:46:46.999Z</time></trkpt><trkpt lat="37.57686768153938" lon="14.043759396151916"><ele>475.0</ele><time>2026-04-26T15:46:47.999Z</time></trkpt><trkpt lat="37.57679197983003" lon="14.043811576765641"><ele>473.8</ele><time>2026-04-26T15:46:48.999Z</time></trkpt><trkpt lat="37.576717707307395" lon="14.043874079619844"><ele>472.6</ele><time>2026-04-26T15:46:49.999Z</time></trkpt><trkpt lat="37.57662930206257" lon="14.04390924089046"><ele>471.4</ele><time>2026-04-26T15:46:51Z</time></trkpt><trkpt lat="37.57654815060326" lon="14.043966766697158"><ele>470.2</ele><time>2026-04-26T15:46:52Z</time></trkpt><trkpt lat="37.57647738905585" lon="14.044038761985613"><ele>469.0</ele><time>2026-04-26T15:46:53Z</time></trkpt><trkpt lat="37.5763993818343" lon="14.044079656695157"><ele>469.00000000000006</ele><time>2026-04-26T15:46:54Z</time></trkpt><trkpt lat="37.57633291948112" lon="14.044125218110691"><ele>469.0</ele><time>2026-04-26T15:46:55Z</time></trkpt><trkpt lat="37.576271129680805" lon="14.04419728165963"><ele>469.0</ele><time>2026-04-26T15:46:56Z</time></trkpt><trkpt lat="37.576219877685475" lon="14.044294650711056"><ele>469.0</ele><time>2026-04-26T15:46:57Z</time></trkpt><trkpt lat="37.5761618369047" lon="14.044400223785917"><ele>469.00000000000006</ele><time>2026-04-26T15:46:58Z</time></trkpt><trkpt lat="37.576091102464844" lon="14.044473498487278"><ele>469.0</ele><time>2026-04-26T15:46:59Z</time></trkpt><trkpt lat="37.57603361345002" lon="14.044557271168209"><ele>469.50000000000006</ele><time>2026-04-26T15:47:00Z</time></trkpt><trkpt lat="37.575976466774726" lon="14.044630533809027"><ele>470.0</ele><time>2026-04-26T15:47:01Z</time></trkpt><trkpt lat="37.57591780147754" lon="14.044697828698787"><ele>470.5</ele><time>2026-04-26T15:47:02Z</time></trkpt><trkpt lat="37.57585841335314" lon="14.044755616941355"><ele>471.0</ele><time>2026-04-26T15:47:03Z</time></trkpt><trkpt lat="37.575766398395125" lon="14.044764722870276"><ele>471.50000000000006</ele><time>2026-04-26T15:47:04Z</time></trkpt><trkpt lat="37.57567643204349" lon="14.044751628683564"><ele>472.0</ele><time>2026-04-26T15:47:05Z</time></trkpt><trkpt lat="37.575580091653535" lon="14.044759271363892"><ele>472.0</ele><time>2026-04-26T15:47:06Z</time></trkpt><trkpt lat="37.575477478322384" lon="14.044767315675218"><ele>472.0</ele><time>2026-04-26T15:47:07Z</time></trkpt><trkpt lat="37.5753617574712" lon="14.04477606337523"><ele>472.0</ele><time>2026-04-26T15:47:08Z</time></trkpt><trkpt lat="37.575240361029124" lon="14.04479052173583"><ele>472.0</ele><time>2026-04-26T15:47:09Z</time></trkpt><trkpt lat="37.575124149016126" lon="14.04483895187106"><ele>472.0</ele><time>2026-04-26T15:47:10Z</time></trkpt><trkpt lat="37.575009982768684" lon="14.04487555809555"><ele>472.0</ele><time>2026-04-26T15:47:11Z</time></trkpt><trkpt lat="37.57489937280655" lon="14.04490794726585"><ele>472.0</ele><time>2026-04-26T15:47:12Z</time></trkpt><trkpt lat="37.57478590123667" lon="14.044942960071497"><ele>472.0</ele><time>2026-04-26T15:47:13Z</time></trkpt><trkpt lat="37.57467511843952" lon="14.044987307607931"><ele>475.0</ele><time>2026-04-26T15:47:14Z</time></trkpt><trkpt lat="37.57456587740581" lon="14.044989419030395"><ele>478.0</ele><time>2026-04-26T15:47:15Z</time></trkpt><trkpt lat="37.57445726617901" lon="14.045000448483847"><ele>481.0</ele><time>2026-04-26T15:47:16Z</time></trkpt><trkpt lat="37.57433856431162" lon="14.045005514006293"><ele>484.0</ele><time>2026-04-26T15:47:17Z</time></trkpt><trkpt lat="37.57421887358294" lon="14.045001287585691"><ele>485.0</ele><time>2026-04-26T15:47:18Z</time></trkpt><trkpt lat="37.57410416837939" lon="14.044995671701107"><ele>486.0</ele><time>2026-04-26T15:47:19Z</time></trkpt><trkpt lat="37.57399337730813" lon="14.044989994458051"><ele>487.0</ele><time>2026-04-26T15:47:20Z</time></trkpt><trkpt lat="37.5738849007756" lon="14.044983590390839"><ele>488.0</ele><time>2026-04-26T15:47:21Z</time></trkpt><trkpt lat="37.573776148985026" lon="14.04497651947967"><ele>489.0</ele><time>2026-04-26T15:47:22Z</time></trkpt><trkpt lat="37.57366822064829" lon="14.04497032933273"><ele>490.6</ele><time>2026-04-26T15:47:23Z</time></trkpt><trkpt lat="37.57356105036561" lon="14.04498230824134"><ele>492.2</ele><time>2026-04-26T15:47:24Z</time></trkpt><trkpt lat="37.57345138062944" lon="14.044983729232419"><ele>493.80000000000007</ele><time>2026-04-26T15:47:25Z</time></trkpt><trkpt lat="37.573347265772156" lon="14.044997593253512"><ele>495.40000000000003</ele><time>2026-04-26T15:47:26Z</time></trkpt><trkpt lat="37.57324364682888" lon="14.045014755628191"><ele>497.0</ele><time>2026-04-26T15:47:27Z</time></trkpt><trkpt lat="37.573129847750884" lon="14.045016711205227"><ele>497.0</ele><time>2026-04-26T15:47:28Z</time></trkpt><trkpt lat="37.57301574531666" lon="14.045043326986944"><ele>497.00000000000006</ele><time>2026-04-26T15:47:29Z</time></trkpt><trkpt lat="37.57290516907681" lon="14.045071394920122"><ele>497.00000000000006</ele><time>2026-04-26T15:47:30Z</time></trkpt><trkpt lat="37.57280143911501" lon="14.045100570083052"><ele>497.0</ele><time>2026-04-26T15:47:31Z</time></trkpt><trkpt lat="37.57271332214412" lon="14.045127116551198"><ele>497.0</ele><time>2026-04-26T15:47:32Z</time></trkpt><trkpt lat="37.5726333837796" lon="14.045172139786597"><ele>498.16666666666663</ele><time>2026-04-26T15:47:33Z</time></trkpt><trkpt lat="37.572551784611036" lon="14.045202917141088"><ele>499.3333333333333</ele><time>2026-04-26T15:47:34Z</time></trkpt><trkpt lat="37.57246657578963" lon="14.045215245362328"><ele>500.5</ele><time>2026-04-26T15:47:35Z</time></trkpt><trkpt lat="37.57238595365188" lon="14.04524600541886"><ele>501.66666666666663</ele><time>2026-04-26T15:47:36Z</time></trkpt><trkpt lat="37.5723004680076" lon="14.045280819747711"><ele>502.8333333333333</ele><time>2026-04-26T15:47:37Z</time></trkpt><trkpt lat="37.57220869563937" lon="14.045323295614091"><ele>504.0</ele><time>2026-04-26T15:47:38Z</time></trkpt><trkpt lat="37.572119969575006" lon="14.045370086730998"><ele>504.0</ele><time>2026-04-26T15:47:39Z</time></trkpt><trkpt lat="37.57204363365281" lon="14.045434608652418"><ele>504.0</ele><time>2026-04-26T15:47:40Z</time></trkpt><trkpt lat="37.571969957294016" lon="14.045490543355328"><ele>504.0</ele><time>2026-04-26T15:47:41Z</time></trkpt><trkpt lat="37.571903533132314" lon="14.045552933762384"><ele>504.0</ele><time>2026-04-26T15:47:42Z</time></trkpt><trkpt lat="37.57184153575416" lon="14.045619428459311"><ele>504.0</ele><time>2026-04-26T15:47:43Z</time></trkpt><trkpt lat="37.571781215099605" lon="14.04569618206712"><ele>504.0</ele><time>2026-04-26T15:47:44Z</time></trkpt><trkpt lat="37.57172822210129" lon="14.045780975833496"><ele>501.2</ele><time>2026-04-26T15:47:45Z</time></trkpt><trkpt lat="37.5716805644803" lon="14.045871357875825"><ele>498.4</ele><time>2026-04-26T15:47:46Z</time></trkpt><trkpt lat="37.571617004003194" lon="14.045951847551937"><ele>495.6</ele><time>2026-04-26T15:47:47Z</time></trkpt><trkpt lat="37.571559333990116" lon="14.046038443685424"><ele>492.8</ele><time>2026-04-26T15:47:48Z</time></trkpt><trkpt lat="37.57151011714582" lon="14.046132469936214"><ele>490.0</ele><time>2026-04-26T15:47:49Z</time></trkpt><trkpt lat="37.571432126451235" lon="14.046211330380878"><ele>490.0</ele><time>2026-04-26T15:47:49.999Z</time></trkpt><trkpt lat="37.57134440286984" lon="14.046289915064952"><ele>490.0</ele><time>2026-04-26T15:47:50.999Z</time></trkpt><trkpt lat="37.57126380832749" lon="14.046368252754295"><ele>490.0</ele><time>2026-04-26T15:47:51.999Z</time></trkpt><trkpt lat="37.57118007104717" lon="14.046450915685144"><ele>490.0</ele><time>2026-04-26T15:47:52.999Z</time></trkpt><trkpt lat="37.57108858506044" lon="14.04650784120202"><ele>490.0</ele><time>2026-04-26T15:47:53.999Z</time></trkpt><trkpt lat="37.57100757722203" lon="14.04657979399241"><ele>486.8</ele><time>2026-04-26T15:47:54.999Z</time></trkpt><trkpt lat="37.57092300712844" lon="14.046656209433666"><ele>483.6</ele><time>2026-04-26T15:47:55.999Z</time></trkpt><trkpt lat="37.570844440488735" lon="14.046733474320172"><ele>480.4</ele><time>2026-04-26T15:47:56.999Z</time></trkpt><trkpt lat="37.57076609539463" lon="14.046810521195276"><ele>477.2</ele><time>2026-04-26T15:47:57.999Z</time></trkpt><trkpt lat="37.57068707719301" lon="14.0468879876567"><ele>474.0</ele><time>2026-04-26T15:47:58.999Z</time></trkpt><trkpt lat="37.57061051168313" lon="14.046962888040623"><ele>474.0</ele><time>2026-04-26T15:47:59.999Z</time></trkpt><trkpt lat="37.57053473115185" lon="14.047037034051698"><ele>474.0</ele><time>2026-04-26T15:48:00.999Z</time></trkpt><trkpt lat="37.570454261304825" lon="14.047116392814923"><ele>474.0</ele><time>2026-04-26T15:48:01.999Z</time></trkpt><trkpt lat="37.5703775678157" lon="14.047194815774056"><ele>474.0</ele><time>2026-04-26T15:48:02.999Z</time></trkpt><trkpt lat="37.57030299319852" lon="14.047268002926785"><ele>474.0</ele><time>2026-04-26T15:48:03.999Z</time></trkpt><trkpt lat="37.57022205466094" lon="14.047335381425325"><ele>471.2</ele><time>2026-04-26T15:48:04.999Z</time></trkpt><trkpt lat="37.570140307702324" lon="14.047394080112921"><ele>468.4</ele><time>2026-04-26T15:48:05.999Z</time></trkpt><trkpt lat="37.57005887915476" lon="14.047452918951326"><ele>465.6</ele><time>2026-04-26T15:48:06.999Z</time></trkpt><trkpt lat="37.5699816357596" lon="14.047515024280306"><ele>462.8</ele><time>2026-04-26T15:48:07.999Z</time></trkpt><trkpt lat="37.56990737512249" lon="14.047577629449513"><ele>460.0</ele><time>2026-04-26T15:48:08.999Z</time></trkpt><trkpt lat="37.569834868138074" lon="14.047638756225183"><ele>460.00000000000006</ele><time>2026-04-26T15:48:09.999Z</time></trkpt><trkpt lat="37.569765808661465" lon="14.04769566312653"><ele>460.0</ele><time>2026-04-26T15:48:10.999Z</time></trkpt><trkpt lat="37.56970608974592" lon="14.047761523559538"><ele>460.0</ele><time>2026-04-26T15:48:11.999Z</time></trkpt><trkpt lat="37.569633430213216" lon="14.047789356533553"><ele>460.0</ele><time>2026-04-26T15:48:12.999Z</time></trkpt><trkpt lat="37.56956005041741" lon="14.04777031870526"><ele>460.00000000000006</ele><time>2026-04-26T15:48:13.999Z</time></trkpt><trkpt lat="37.569496955501535" lon="14.047799281602442"><ele>460.0</ele><time>2026-04-26T15:48:14.999Z</time></trkpt><trkpt lat="37.569430902441425" lon="14.047827936439996"><ele>458.00000000000006</ele><time>2026-04-26T15:48:15.999Z</time></trkpt><trkpt lat="37.569366745330456" lon="14.047881166954589"><ele>456.0</ele><time>2026-04-26T15:48:16.999Z</time></trkpt><trkpt lat="37.56931157254733" lon="14.047957368693337"><ele>454.0</ele><time>2026-04-26T15:48:17.999Z</time></trkpt><trkpt lat="37.569245540082896" lon="14.048029289023846"><ele>452.0</ele><time>2026-04-26T15:48:18.999Z</time></trkpt><trkpt lat="37.56919064568036" lon="14.048119817067237"><ele>450.00000000000006</ele><time>2026-04-26T15:48:19.999Z</time></trkpt><trkpt lat="37.56913497698068" lon="14.04821274736282"><ele>448.0</ele><time>2026-04-26T15:48:20.999Z</time></trkpt><trkpt lat="37.56908506678015" lon="14.048294438475933"><ele>448.00000000000006</ele><time>2026-04-26T15:48:21.999Z</time></trkpt><trkpt lat="37.569046229413416" lon="14.048377942152927"><ele>448.0</ele><time>2026-04-26T15:48:22.999Z</time></trkpt><trkpt lat="37.568980738944234" lon="14.048432623197392"><ele>448.0</ele><time>2026-04-26T15:48:23.999Z</time></trkpt><trkpt lat="37.56890874140073" lon="14.048469586927773"><ele>448.0</ele><time>2026-04-26T15:48:24.999Z</time></trkpt><trkpt lat="37.568827176972924" lon="14.048475507941765"><ele>448.00000000000006</ele><time>2026-04-26T15:48:25.999Z</time></trkpt><trkpt lat="37.56875365808782" lon="14.048522822218876"><ele>448.0</ele><time>2026-04-26T15:48:26.999Z</time></trkpt><trkpt lat="37.56868987632066" lon="14.048589518123835"><ele>444.85714285714283</ele><time>2026-04-26T15:48:27.999Z</time></trkpt><trkpt lat="37.568633575551594" lon="14.048660738489106"><ele>441.7142857142857</ele><time>2026-04-26T15:48:28.999Z</time></trkpt><trkpt lat="37.568578841229204" lon="14.048735051789"><ele>438.57142857142856</ele><time>2026-04-26T15:48:29.999Z</time></trkpt><trkpt lat="37.56853165437668" lon="14.04880317863062"><ele>435.42857142857144</ele><time>2026-04-26T15:48:30.999Z</time></trkpt><trkpt lat="37.56847797945301" lon="14.048858057534579"><ele>432.2857142857143</ele><time>2026-04-26T15:48:31.999Z</time></trkpt><trkpt lat="37.56841661702654" lon="14.048889871595925"><ele>429.1428571428571</ele><time>2026-04-26T15:48:32.999Z</time></trkpt><trkpt lat="37.568346684497314" lon="14.048917439213378"><ele>426.0</ele><time>2026-04-26T15:48:33.999Z</time></trkpt><trkpt lat="37.56827762591241" lon="14.04894897865109"><ele>426.0</ele><time>2026-04-26T15:48:34.999Z</time></trkpt><trkpt lat="37.568209052701334" lon="14.048987513637975"><ele>426.0</ele><time>2026-04-26T15:48:35.999Z</time></trkpt><trkpt lat="37.56814063508762" lon="14.049028023464274"><ele>426.0</ele><time>2026-04-26T15:48:36.999Z</time></trkpt><trkpt lat="37.568064014178816" lon="14.049073390466482"><ele>426.0</ele><time>2026-04-26T15:48:37.999Z</time></trkpt><trkpt lat="37.56798764989135" lon="14.04911860544965"><ele>426.0</ele><time>2026-04-26T15:48:38.999Z</time></trkpt><trkpt lat="37.56789465708153" lon="14.049173666069304"><ele>426.0</ele><time>2026-04-26T15:48:39.999Z</time></trkpt><trkpt lat="37.56779355714202" lon="14.049232977787726"><ele>423.20000000000005</ele><time>2026-04-26T15:48:40.999Z</time></trkpt><trkpt lat="37.567685251308625" lon="14.049295254943003"><ele>420.40000000000003</ele><time>2026-04-26T15:48:41.999Z</time></trkpt><trkpt lat="37.567580035306754" lon="14.049353678718727"><ele>417.6</ele><time>2026-04-26T15:48:42.999Z</time></trkpt><trkpt lat="37.567480858435346" lon="14.049407121049752"><ele>414.8</ele><time>2026-04-26T15:48:43.999Z</time></trkpt><trkpt lat="37.567386290087846" lon="14.049453300792136"><ele>412.0</ele><time>2026-04-26T15:48:44.999Z</time></trkpt><trkpt lat="37.567289119281945" lon="14.049495721413319"><ele>412.0</ele><time>2026-04-26T15:48:45.999Z</time></trkpt><trkpt lat="37.56718791012079" lon="14.049541376504562"><ele>412.0</ele><time>2026-04-26T15:48:46.999Z</time></trkpt><trkpt lat="37.56709510998458" lon="14.049588848036457"><ele>412.0</ele><time>2026-04-26T15:48:47.999Z</time></trkpt><trkpt lat="37.56701053687743" lon="14.04961572532291"><ele>412.0</ele><time>2026-04-26T15:48:48.999Z</time></trkpt><trkpt lat="37.566934501263695" lon="14.049602906349245"><ele>412.0</ele><time>2026-04-26T15:48:49.999Z</time></trkpt><trkpt lat="37.566851490139626" lon="14.049583877494662"><ele>410.6</ele><time>2026-04-26T15:48:50.999Z</time></trkpt><trkpt lat="37.56675977798332" lon="14.04957657764052"><ele>409.20000000000005</ele><time>2026-04-26T15:48:51.999Z</time></trkpt><trkpt lat="37.566668938654544" lon="14.049550294756353"><ele>407.8</ele><time>2026-04-26T15:48:52.999Z</time></trkpt><trkpt lat="37.56657683945269" lon="14.049514679523437"><ele>406.4</ele><time>2026-04-26T15:48:53.999Z</time></trkpt><trkpt lat="37.566473291410766" lon="14.049505017512928"><ele>405.0</ele><time>2026-04-26T15:48:54.999Z</time></trkpt><trkpt lat="37.566362969604015" lon="14.049504200536132"><ele>405.0</ele><time>2026-04-26T15:48:55.999Z</time></trkpt><trkpt lat="37.566253251446305" lon="14.04950775836124"><ele>405.0</ele><time>2026-04-26T15:48:57Z</time></trkpt><trkpt lat="37.56614626178687" lon="14.049531215340588"><ele>405.0</ele><time>2026-04-26T15:48:58Z</time></trkpt><trkpt lat="37.56603751140908" lon="14.049528528430391"><ele>405.0</ele><time>2026-04-26T15:48:59Z</time></trkpt><trkpt lat="37.565931322098564" lon="14.049537971721636"><ele>405.0</ele><time>2026-04-26T15:49:00Z</time></trkpt><trkpt lat="37.56582825312965" lon="14.049517819506596"><ele>404.8</ele><time>2026-04-26T15:49:01Z</time></trkpt><trkpt lat="37.565721857720234" lon="14.049517233429894"><ele>404.6</ele><time>2026-04-26T15:49:02Z</time></trkpt><trkpt lat="37.56561603454679" lon="14.049514821796192"><ele>404.4</ele><time>2026-04-26T15:49:03Z</time></trkpt><trkpt lat="37.565511139983826" lon="14.04951167611983"><ele>404.2</ele><time>2026-04-26T15:49:04Z</time></trkpt><trkpt lat="37.56541558159088" lon="14.04950847403027"><ele>404.0</ele><time>2026-04-26T15:49:05Z</time></trkpt><trkpt lat="37.56531538638722" lon="14.049518095822178"><ele>403.4</ele><time>2026-04-26T15:49:06Z</time></trkpt><trkpt lat="37.56521447757124" lon="14.04950099719165"><ele>402.79999999999995</ele><time>2026-04-26T15:49:07Z</time></trkpt><trkpt lat="37.56511000942627" lon="14.04949225899369"><ele>402.20000000000005</ele><time>2026-04-26T15:49:08Z</time></trkpt><trkpt lat="37.56500657540982" lon="14.049499234808032"><ele>401.6</ele><time>2026-04-26T15:49:09Z</time></trkpt><trkpt lat="37.56491826893319" lon="14.049520172222673"><ele>401.0</ele><time>2026-04-26T15:49:10Z</time></trkpt><trkpt lat="37.56485194061328" lon="14.049544065065234"><ele>401.0</ele><time>2026-04-26T15:49:11Z</time></trkpt><trkpt lat="37.564734636906685" lon="14.049589852773087"><ele>401.0</ele><time>2026-04-26T15:49:13Z</time></trkpt><trkpt lat="37.56467414017817" lon="14.049639520677273"><ele>401.0</ele><time>2026-04-26T15:49:14Z</time></trkpt><trkpt lat="37.564612595649365" lon="14.04970726723185"><ele>401.0</ele><time>2026-04-26T15:49:15Z</time></trkpt><trkpt lat="37.5645474393797" lon="14.049777786727201"><ele>401.0</ele><time>2026-04-26T15:49:16Z</time></trkpt><trkpt lat="37.564475690466175" lon="14.049852289899079"><ele>400.8</ele><time>2026-04-26T15:49:17Z</time></trkpt><trkpt lat="37.56440903814236" lon="14.049921888752355"><ele>400.6</ele><time>2026-04-26T15:49:18Z</time></trkpt><trkpt lat="37.56434524125" lon="14.049991394393102"><ele>400.4</ele><time>2026-04-26T15:49:19Z</time></trkpt><trkpt lat="37.56427652161946" lon="14.050068700615176"><ele>400.2</ele><time>2026-04-26T15:49:20Z</time></trkpt><trkpt lat="37.56420948905212" lon="14.050152088327774"><ele>400.0</ele><time>2026-04-26T15:49:21Z</time></trkpt><trkpt lat="37.564168447392916" lon="14.05025778129599"><ele>400.4</ele><time>2026-04-26T15:49:22Z</time></trkpt><trkpt lat="37.56410963375312" lon="14.050331918858463"><ele>400.8</ele><time>2026-04-26T15:49:23Z</time></trkpt><trkpt lat="37.56403669750747" lon="14.050387403636849"><ele>401.20000000000005</ele><time>2026-04-26T15:49:24Z</time></trkpt><trkpt lat="37.56394927262979" lon="14.050444657489665"><ele>401.6</ele><time>2026-04-26T15:49:25Z</time></trkpt><trkpt lat="37.56386068254317" lon="14.050526903558419"><ele>402.0</ele><time>2026-04-26T15:49:26Z</time></trkpt><trkpt lat="37.56375746990192" lon="14.050590535661636"><ele>402.0</ele><time>2026-04-26T15:49:27Z</time></trkpt><trkpt lat="37.56366004221899" lon="14.050668144941163"><ele>402.0</ele><time>2026-04-26T15:49:28Z</time></trkpt><trkpt lat="37.56357395692944" lon="14.050758893708958"><ele>402.0</ele><time>2026-04-26T15:49:29Z</time></trkpt><trkpt lat="37.56350493771321" lon="14.050866505837837"><ele>402.0</ele><time>2026-04-26T15:49:30Z</time></trkpt><trkpt lat="37.563443777644714" lon="14.050987107115873"><ele>402.25</ele><time>2026-04-26T15:49:31Z</time></trkpt><trkpt lat="37.56338642741475" lon="14.051116489353657"><ele>402.5</ele><time>2026-04-26T15:49:32Z</time></trkpt><trkpt lat="37.56333577698099" lon="14.051245511305995"><ele>402.75</ele><time>2026-04-26T15:49:33Z</time></trkpt><trkpt lat="37.563271361858384" lon="14.05136946368845"><ele>403.0</ele><time>2026-04-26T15:49:34Z</time></trkpt><trkpt lat="37.563214461959845" lon="14.051494657225964"><ele>403.0</ele><time>2026-04-26T15:49:35Z</time></trkpt><trkpt lat="37.56316394417539" lon="14.05161223938531"><ele>403.0</ele><time>2026-04-26T15:49:36Z</time></trkpt><trkpt lat="37.56311324727894" lon="14.051729949297515"><ele>403.0</ele><time>2026-04-26T15:49:37Z</time></trkpt><trkpt lat="37.563064956280414" lon="14.05183552052623"><ele>403.0</ele><time>2026-04-26T15:49:38Z</time></trkpt><trkpt lat="37.56301571134533" lon="14.051934887436968"><ele>403.0</ele><time>2026-04-26T15:49:39Z</time></trkpt><trkpt lat="37.56296355221036" lon="14.052028730064887"><ele>403.4</ele><time>2026-04-26T15:49:40Z</time></trkpt><trkpt lat="37.56290767518162" lon="14.052115389158619"><ele>403.79999999999995</ele><time>2026-04-26T15:49:41Z</time></trkpt><trkpt lat="37.56284547934011" lon="14.052201496145825"><ele>404.2</ele><time>2026-04-26T15:49:42Z</time></trkpt><trkpt lat="37.562779156943236" lon="14.052293107192716"><ele>404.6</ele><time>2026-04-26T15:49:43Z</time></trkpt><trkpt lat="37.56271224683785" lon="14.052385530090435"><ele>405.0</ele><time>2026-04-26T15:49:44Z</time></trkpt><trkpt lat="37.562651527069704" lon="14.052471242100081"><ele>405.5</ele><time>2026-04-26T15:49:45Z</time></trkpt><trkpt lat="37.562595107191655" lon="14.052551312237469"><ele>406.0</ele><time>2026-04-26T15:49:46Z</time></trkpt><trkpt lat="37.56254037140175" lon="14.052628992319434"><ele>406.5</ele><time>2026-04-26T15:49:47Z</time></trkpt><trkpt lat="37.56249225762854" lon="14.052718909445536"><ele>407.0</ele><time>2026-04-26T15:49:48Z</time></trkpt><trkpt lat="37.562431793594875" lon="14.052804297074928"><ele>407.5</ele><time>2026-04-26T15:49:49Z</time></trkpt><trkpt lat="37.56237034602426" lon="14.052891324992979"><ele>408.0</ele><time>2026-04-26T15:49:50Z</time></trkpt><trkpt lat="37.562315710516444" lon="14.052971474284973"><ele>408.0</ele><time>2026-04-26T15:49:51Z</time></trkpt><trkpt lat="37.56226335527133" lon="14.053050278833036"><ele>408.0</ele><time>2026-04-26T15:49:52Z</time></trkpt><trkpt lat="37.562208750792784" lon="14.053119555716227"><ele>408.0</ele><time>2026-04-26T15:49:53Z</time></trkpt><trkpt lat="37.56216014517316" lon="14.053191682266949"><ele>408.0</ele><time>2026-04-26T15:49:53.999Z</time></trkpt><trkpt lat="37.56211177815956" lon="14.053259611692692"><ele>408.0</ele><time>2026-04-26T15:49:54.999Z</time></trkpt><trkpt lat="37.562069811687" lon="14.053336204180244"><ele>408.0</ele><time>2026-04-26T15:49:55.999Z</time></trkpt><trkpt lat="37.562039453976496" lon="14.053424803933519"><ele>408.0</ele><time>2026-04-26T15:49:56.999Z</time></trkpt><trkpt lat="37.56201843138127" lon="14.053509079318111"><ele>408.0</ele><time>2026-04-26T15:49:57.999Z</time></trkpt><trkpt lat="37.56199064129265" lon="14.053592511520744"><ele>408.0</ele><time>2026-04-26T15:49:58.999Z</time></trkpt><trkpt lat="37.561946748687596" lon="14.053667528739037"><ele>408.0</ele><time>2026-04-26T15:49:59.999Z</time></trkpt><trkpt lat="37.56186990584053" lon="14.053730630128282"><ele>408.0</ele><time>2026-04-26T15:50:00.999Z</time></trkpt><trkpt lat="37.561805359886854" lon="14.05381417554919"><ele>408.0</ele><time>2026-04-26T15:50:01.999Z</time></trkpt><trkpt lat="37.56172581505524" lon="14.053881305457306"><ele>408.0</ele><time>2026-04-26T15:50:02.999Z</time></trkpt><trkpt lat="37.56164265361699" lon="14.05394989295856"><ele>408.0</ele><time>2026-04-26T15:50:03.999Z</time></trkpt><trkpt lat="37.56155785986153" lon="14.054017934785524"><ele>408.0</ele><time>2026-04-26T15:50:04.999Z</time></trkpt><trkpt lat="37.56147078178108" lon="14.054091491629475"><ele>408.0</ele><time>2026-04-26T15:50:05.999Z</time></trkpt><trkpt lat="37.56138467338572" lon="14.054177773873286"><ele>408.0</ele><time>2026-04-26T15:50:06.999Z</time></trkpt><trkpt lat="37.56130314563276" lon="14.054273283921416"><ele>409.0</ele><time>2026-04-26T15:50:07.999Z</time></trkpt><trkpt lat="37.561233501729866" lon="14.05437927319384"><ele>410.0</ele><time>2026-04-26T15:50:08.999Z</time></trkpt><trkpt lat="37.56115792901097" lon="14.054483543509665"><ele>411.0</ele><time>2026-04-26T15:50:09.999Z</time></trkpt><trkpt lat="37.56107804001556" lon="14.05458041684847"><ele>412.0</ele><time>2026-04-26T15:50:10.999Z</time></trkpt><trkpt lat="37.56099710547644" lon="14.054672764459854"><ele>413.0</ele><time>2026-04-26T15:50:11.999Z</time></trkpt><trkpt lat="37.56091112157526" lon="14.054762047776109"><ele>413.0</ele><time>2026-04-26T15:50:12.999Z</time></trkpt><trkpt lat="37.5608217594939" lon="14.054852045920859"><ele>413.0</ele><time>2026-04-26T15:50:13.999Z</time></trkpt><trkpt lat="37.560733510391785" lon="14.054945728106127"><ele>413.0</ele><time>2026-04-26T15:50:14.999Z</time></trkpt><trkpt lat="37.56064422044544" lon="14.05504033203608"><ele>413.0</ele><time>2026-04-26T15:50:15.999Z</time></trkpt><trkpt lat="37.560551561943534" lon="14.055129992564982"><ele>413.5</ele><time>2026-04-26T15:50:16.999Z</time></trkpt><trkpt lat="37.560443312777416" lon="14.055194032154397"><ele>414.0</ele><time>2026-04-26T15:50:17.999Z</time></trkpt><trkpt lat="37.560338841688555" lon="14.055265900465201"><ele>414.5</ele><time>2026-04-26T15:50:18.999Z</time></trkpt><trkpt lat="37.56022776618925" lon="14.055333307553209"><ele>415.0</ele><time>2026-04-26T15:50:19.999Z</time></trkpt><trkpt lat="37.560121398612075" lon="14.055416167029179"><ele>416.25</ele><time>2026-04-26T15:50:20.999Z</time></trkpt><trkpt lat="37.5600070775108" lon="14.055475946104892"><ele>417.5</ele><time>2026-04-26T15:50:21.999Z</time></trkpt><trkpt lat="37.559890392814225" lon="14.055536965850859"><ele>418.75</ele><time>2026-04-26T15:50:22.999Z</time></trkpt><trkpt lat="37.55977329449013" lon="14.055597612472203"><ele>420.0</ele><time>2026-04-26T15:50:23.999Z</time></trkpt><trkpt lat="37.559654513059726" lon="14.055664527752572"><ele>420.0</ele><time>2026-04-26T15:50:24.999Z</time></trkpt><trkpt lat="37.55953552949632" lon="14.055732448247094"><ele>420.0</ele><time>2026-04-26T15:50:25.999Z</time></trkpt><trkpt lat="37.559421464869665" lon="14.055803214511002"><ele>420.0</ele><time>2026-04-26T15:50:26.999Z</time></trkpt><trkpt lat="37.559312282716164" lon="14.055883945806528"><ele>420.0</ele><time>2026-04-26T15:50:27.999Z</time></trkpt><trkpt lat="37.55921387580565" lon="14.055973274631052"><ele>420.75</ele><time>2026-04-26T15:50:28.999Z</time></trkpt><trkpt lat="37.55911631913828" lon="14.056066564848352"><ele>421.5</ele><time>2026-04-26T15:50:29.999Z</time></trkpt><trkpt lat="37.55901330289037" lon="14.056152878873286"><ele>422.25</ele><time>2026-04-26T15:50:30.999Z</time></trkpt><trkpt lat="37.5589339588076" lon="14.0562540920976"><ele>423.0</ele><time>2026-04-26T15:50:31.999Z</time></trkpt><trkpt lat="37.55885875665598" lon="14.05636897543662"><ele>423.0</ele><time>2026-04-26T15:50:32.999Z</time></trkpt><trkpt lat="37.558799877694845" lon="14.056503500089402"><ele>423.0</ele><time>2026-04-26T15:50:33.999Z</time></trkpt><trkpt lat="37.55873418657368" lon="14.056619345629818"><ele>423.0</ele><time>2026-04-26T15:50:34.999Z</time></trkpt><trkpt lat="37.55866050624938" lon="14.056715268087743"><ele>423.0</ele><time>2026-04-26T15:50:35.999Z</time></trkpt><trkpt lat="37.558611201622845" lon="14.056832904746859"><ele>423.0</ele><time>2026-04-26T15:50:36.999Z</time></trkpt><trkpt lat="37.558546777107175" lon="14.056938177418637"><ele>424.4</ele><time>2026-04-26T15:50:37.999Z</time></trkpt><trkpt lat="37.55848684986879" lon="14.057038120493582"><ele>425.79999999999995</ele><time>2026-04-26T15:50:38.999Z</time></trkpt><trkpt lat="37.5584213707944" lon="14.057130344707566"><ele>427.2</ele><time>2026-04-26T15:50:39.999Z</time></trkpt><trkpt lat="37.55834362853461" lon="14.057218725678025"><ele>428.6</ele><time>2026-04-26T15:50:40.999Z</time></trkpt><trkpt lat="37.558257837328746" lon="14.057301804114415"><ele>430.0</ele><time>2026-04-26T15:50:41.999Z</time></trkpt><trkpt lat="37.55815662000385" lon="14.057363181818195"><ele>430.0</ele><time>2026-04-26T15:50:42.999Z</time></trkpt><trkpt lat="37.558060130997674" lon="14.057439083932408"><ele>430.0</ele><time>2026-04-26T15:50:43.999Z</time></trkpt><trkpt lat="37.55796694383327" lon="14.057519113835482"><ele>430.0</ele><time>2026-04-26T15:50:44.999Z</time></trkpt><trkpt lat="37.55787811835153" lon="14.057599339297566"><ele>430.0</ele><time>2026-04-26T15:50:45.999Z</time></trkpt><trkpt lat="37.557805806297246" lon="14.057687144124086"><ele>430.0</ele><time>2026-04-26T15:50:46.999Z</time></trkpt><trkpt lat="37.55772451815719" lon="14.057752769648852"><ele>432.0</ele><time>2026-04-26T15:50:47.999Z</time></trkpt><trkpt lat="37.557641400693804" lon="14.057814637298847"><ele>434.0</ele><time>2026-04-26T15:50:48.999Z</time></trkpt><trkpt lat="37.5575533590169" lon="14.057870489643863"><ele>436.0</ele><time>2026-04-26T15:50:49.999Z</time></trkpt><trkpt lat="37.55744834801737" lon="14.057903653929074"><ele>438.0</ele><time>2026-04-26T15:50:50.999Z</time></trkpt><trkpt lat="37.55735312575557" lon="14.057895070771268"><ele>440.0</ele><time>2026-04-26T15:50:51.999Z</time></trkpt><trkpt lat="37.55727334675844" lon="14.057885199585867"><ele>440.0</ele><time>2026-04-26T15:50:52.999Z</time></trkpt><trkpt lat="37.55719667976874" lon="14.057854386068717"><ele>440.0</ele><time>2026-04-26T15:50:53.999Z</time></trkpt><trkpt lat="37.55710448433544" lon="14.0578409997032"><ele>440.0</ele><time>2026-04-26T15:50:54.999Z</time></trkpt><trkpt lat="37.55701283382458" lon="14.057802324373208"><ele>440.0</ele><time>2026-04-26T15:50:55.999Z</time></trkpt><trkpt lat="37.55691585017131" lon="14.057765745559218"><ele>440.0</ele><time>2026-04-26T15:50:56.999Z</time></trkpt><trkpt lat="37.55682442150068" lon="14.057731845462214"><ele>442.6</ele><time>2026-04-26T15:50:57.999Z</time></trkpt><trkpt lat="37.55674985799534" lon="14.057700271093397"><ele>445.2</ele><time>2026-04-26T15:50:58.999Z</time></trkpt><trkpt lat="37.55663836101204" lon="14.057663864294383"><ele>447.79999999999995</ele><time>2026-04-26T15:51:00.999Z</time></trkpt><trkpt lat="37.55651455308546" lon="14.057635707553565"><ele>450.4</ele><time>2026-04-26T15:51:03Z</time></trkpt><trkpt lat="37.55643268960748" lon="14.05763438440759"><ele>453.0</ele><time>2026-04-26T15:51:04Z</time></trkpt><trkpt lat="37.5563492621347" lon="14.05762755661749"><ele>453.0</ele><time>2026-04-26T15:51:05Z</time></trkpt><trkpt lat="37.556261421449086" lon="14.05761777192325"><ele>453.0</ele><time>2026-04-26T15:51:06Z</time></trkpt><trkpt lat="37.55617469633046" lon="14.057601062930141"><ele>453.0</ele><time>2026-04-26T15:51:07Z</time></trkpt><trkpt lat="37.55609525003754" lon="14.057576969002127"><ele>453.0</ele><time>2026-04-26T15:51:08Z</time></trkpt><trkpt lat="37.55602137377909" lon="14.05755110992896"><ele>453.0</ele><time>2026-04-26T15:51:09Z</time></trkpt><trkpt lat="37.555945276232286" lon="14.057522488007871"><ele>453.0</ele><time>2026-04-26T15:51:10Z</time></trkpt><trkpt lat="37.555868335856964" lon="14.05750182339835"><ele>451.8333333333333</ele><time>2026-04-26T15:51:11Z</time></trkpt><trkpt lat="37.55578627272098" lon="14.057484078885217"><ele>450.66666666666663</ele><time>2026-04-26T15:51:12Z</time></trkpt><trkpt lat="37.55570806801589" lon="14.057475648515036"><ele>449.5</ele><time>2026-04-26T15:51:13Z</time></trkpt><trkpt lat="37.555634202740194" lon="14.057486016006699"><ele>448.3333333333333</ele><time>2026-04-26T15:51:14Z</time></trkpt><trkpt lat="37.555565433988974" lon="14.057480378001264"><ele>447.16666666666663</ele><time>2026-04-26T15:51:15Z</time></trkpt><trkpt lat="37.555430473174766" lon="14.057502490034965"><ele>446.0</ele><time>2026-04-26T15:51:17Z</time></trkpt><trkpt lat="37.55535598349033" lon="14.057498554796883"><ele>444.3333333333333</ele><time>2026-04-26T15:51:18Z</time></trkpt><trkpt lat="37.55528734797156" lon="14.057468509534404"><ele>442.66666666666663</ele><time>2026-04-26T15:51:19Z</time></trkpt><trkpt lat="37.55522726528967" lon="14.057440308552351"><ele>441.0</ele><time>2026-04-26T15:51:20Z</time></trkpt><trkpt lat="37.55516859800838" lon="14.057388764245083"><ele>439.33333333333337</ele><time>2026-04-26T15:51:21Z</time></trkpt><trkpt lat="37.55510337965161" lon="14.057327648694145"><ele>437.6666666666667</ele><time>2026-04-26T15:51:22Z</time></trkpt><trkpt lat="37.55503568354407" lon="14.057263217723701"><ele>436.0</ele><time>2026-04-26T15:51:23Z</time></trkpt><trkpt lat="37.55497019698185" lon="14.057200144289515"><ele>435.1666666666667</ele><time>2026-04-26T15:51:24Z</time></trkpt><trkpt lat="37.554903185358484" lon="14.057135202727538"><ele>434.33333333333337</ele><time>2026-04-26T15:51:25Z</time></trkpt><trkpt lat="37.55484430521036" lon="14.057078794720226"><ele>433.5</ele><time>2026-04-26T15:51:26Z</time></trkpt><trkpt lat="37.55478053496404" lon="14.057045322762797"><ele>432.66666666666663</ele><time>2026-04-26T15:51:27Z</time></trkpt><trkpt lat="37.55467715712915" lon="14.056970003693088"><ele>431.8333333333333</ele><time>2026-04-26T15:51:29Z</time></trkpt><trkpt lat="37.55458113100408" lon="14.057008056156159"><ele>431.0</ele><time>2026-04-26T15:51:31Z</time></trkpt><trkpt lat="37.55445962540218" lon="14.057050371334292"><ele>432.66666666666663</ele><time>2026-04-26T15:51:33Z</time></trkpt><trkpt lat="37.55439558565061" lon="14.057088024378627"><ele>434.3333333333333</ele><time>2026-04-26T15:51:34Z</time></trkpt><trkpt lat="37.55432861310246" lon="14.057129804247802"><ele>436.0</ele><time>2026-04-26T15:51:35Z</time></trkpt><trkpt lat="37.55425647190867" lon="14.057176658237308"><ele>437.66666666666663</ele><time>2026-04-26T15:51:36Z</time></trkpt><trkpt lat="37.554174453906995" lon="14.057231418361782"><ele>439.3333333333333</ele><time>2026-04-26T15:51:37Z</time></trkpt><trkpt lat="37.5540916031571" lon="14.057286734454232"><ele>441.0</ele><time>2026-04-26T15:51:38Z</time></trkpt><trkpt lat="37.55402198005154" lon="14.057348590462102"><ele>441.0</ele><time>2026-04-26T15:51:39Z</time></trkpt><trkpt lat="37.55395071774466" lon="14.057383835812349"><ele>441.0</ele><time>2026-04-26T15:51:40Z</time></trkpt><trkpt lat="37.55388590735318" lon="14.057405334265301"><ele>441.0</ele><time>2026-04-26T15:51:41Z</time></trkpt><trkpt lat="37.55381349044326" lon="14.057409841225319"><ele>441.0</ele><time>2026-04-26T15:51:42Z</time></trkpt><trkpt lat="37.55373815264221" lon="14.057396586085419"><ele>441.0</ele><time>2026-04-26T15:51:43Z</time></trkpt><trkpt lat="37.55365926842903" lon="14.057386713388095"><ele>441.0</ele><time>2026-04-26T15:51:44Z</time></trkpt><trkpt lat="37.553579179252274" lon="14.057380109020794"><ele>442.5</ele><time>2026-04-26T15:51:45Z</time></trkpt><trkpt lat="37.553499015157556" lon="14.057372482248558"><ele>444.0</ele><time>2026-04-26T15:51:46Z</time></trkpt><trkpt lat="37.553416910362174" lon="14.057367363423504"><ele>445.5</ele><time>2026-04-26T15:51:47Z</time></trkpt><trkpt lat="37.5533289552564" lon="14.057362223673552"><ele>447.0</ele><time>2026-04-26T15:51:48Z</time></trkpt><trkpt lat="37.55325826929322" lon="14.057355233742761"><ele>448.5</ele><time>2026-04-26T15:51:49Z</time></trkpt><trkpt lat="37.55315805742711" lon="14.05734445488431"><ele>450.0</ele><time>2026-04-26T15:51:51Z</time></trkpt><trkpt lat="37.55305900468602" lon="14.057306016403285"><ele>450.0</ele><time>2026-04-26T15:51:53Z</time></trkpt><trkpt lat="37.55294901823476" lon="14.05721152266127"><ele>450.0</ele><time>2026-04-26T15:51:55Z</time></trkpt><trkpt lat="37.55289099439123" lon="14.05715931849598"><ele>450.0</ele><time>2026-04-26T15:51:56Z</time></trkpt><trkpt lat="37.55283144229921" lon="14.057103765646186"><ele>450.0</ele><time>2026-04-26T15:51:57Z</time></trkpt><trkpt lat="37.55276954869497" lon="14.057055464997722"><ele>450.0</ele><time>2026-04-26T15:51:58Z</time></trkpt><trkpt lat="37.55270089694397" lon="14.05704447207304"><ele>450.0</ele><time>2026-04-26T15:51:59Z</time></trkpt><trkpt lat="37.55263470503471" lon="14.057036010708886"><ele>452.6666666666667</ele><time>2026-04-26T15:51:59.999Z</time></trkpt><trkpt lat="37.55257063206471" lon="14.057063892921644"><ele>455.33333333333337</ele><time>2026-04-26T15:52:00.999Z</time></trkpt><trkpt lat="37.5525021238727" lon="14.057081048053535"><ele>458.0</ele><time>2026-04-26T15:52:01.999Z</time></trkpt><trkpt lat="37.55243328742829" lon="14.057106769745443"><ele>460.6666666666667</ele><time>2026-04-26T15:52:02.999Z</time></trkpt><trkpt lat="37.552368192157886" lon="14.057151775428412"><ele>463.33333333333337</ele><time>2026-04-26T15:52:03.999Z</time></trkpt><trkpt lat="37.55224912016985" lon="14.057179277941156"><ele>466.0</ele><time>2026-04-26T15:52:05.999Z</time></trkpt><trkpt lat="37.55218518574326" lon="14.057199485395302"><ele>466.0</ele><time>2026-04-26T15:52:06.999Z</time></trkpt><trkpt lat="37.552113633502906" lon="14.057216054358316"><ele>466.0</ele><time>2026-04-26T15:52:07.999Z</time></trkpt><trkpt lat="37.55202812661821" lon="14.05722393417414"><ele>466.0</ele><time>2026-04-26T15:52:08.999Z</time></trkpt><trkpt lat="37.551929510755265" lon="14.057225462936586"><ele>466.0</ele><time>2026-04-26T15:52:09.999Z</time></trkpt><trkpt lat="37.55183160383138" lon="14.057243358250725"><ele>466.0</ele><time>2026-04-26T15:52:10.999Z</time></trkpt><trkpt lat="37.551737907826045" lon="14.05723395699754"><ele>468.6</ele><time>2026-04-26T15:52:11.999Z</time></trkpt><trkpt lat="37.55163600929349" lon="14.057233794771623"><ele>471.20000000000005</ele><time>2026-04-26T15:52:12.999Z</time></trkpt><trkpt lat="37.55152906967996" lon="14.057244120114227"><ele>473.79999999999995</ele><time>2026-04-26T15:52:13.999Z</time></trkpt><trkpt lat="37.551432516157355" lon="14.057257597026577"><ele>476.4</ele><time>2026-04-26T15:52:14.999Z</time></trkpt><trkpt lat="37.551341617598275" lon="14.057273167249518"><ele>479.0</ele><time>2026-04-26T15:52:15.999Z</time></trkpt><trkpt lat="37.5512497099417" lon="14.057278870572373"><ele>480.99999999999994</ele><time>2026-04-26T15:52:16.999Z</time></trkpt><trkpt lat="37.55115941738812" lon="14.057300146059038"><ele>483.0</ele><time>2026-04-26T15:52:17.999Z</time></trkpt><trkpt lat="37.55107126181895" lon="14.057320779250272"><ele>485.0</ele><time>2026-04-26T15:52:18.999Z</time></trkpt><trkpt lat="37.55098694538769" lon="14.057350388904757"><ele>487.0</ele><time>2026-04-26T15:52:19.999Z</time></trkpt><trkpt lat="37.55090202062598" lon="14.057388955220969"><ele>488.99999999999994</ele><time>2026-04-26T15:52:20.999Z</time></trkpt><trkpt lat="37.550830423332485" lon="14.057421446947055"><ele>491.0</ele><time>2026-04-26T15:52:21.999Z</time></trkpt><trkpt lat="37.55075673479044" lon="14.057473565146438"><ele>491.0</ele><time>2026-04-26T15:52:22.999Z</time></trkpt><trkpt lat="37.55068824797775" lon="14.057521090517724"><ele>491.0</ele><time>2026-04-26T15:52:23.999Z</time></trkpt><trkpt lat="37.55059120973545" lon="14.057580483143198"><ele>491.0</ele><time>2026-04-26T15:52:25.999Z</time></trkpt><trkpt lat="37.55047269499045" lon="14.057644330854565"><ele>491.0</ele><time>2026-04-26T15:52:27.999Z</time></trkpt><trkpt lat="37.550355523069705" lon="14.057718353445324"><ele>491.0</ele><time>2026-04-26T15:52:29.999Z</time></trkpt><trkpt lat="37.550290249980094" lon="14.057759741004173"><ele>490.99999999999994</ele><time>2026-04-26T15:52:30.999Z</time></trkpt><trkpt lat="37.55022482523093" lon="14.057799187610831"><ele>491.0</ele><time>2026-04-26T15:52:31.999Z</time></trkpt><trkpt lat="37.55015288600963" lon="14.057841477743475"><ele>491.0</ele><time>2026-04-26T15:52:32.999Z</time></trkpt><trkpt lat="37.55006821120171" lon="14.05789125465684"><ele>491.0</ele><time>2026-04-26T15:52:33.999Z</time></trkpt><trkpt lat="37.54998816113503" lon="14.057924563970618"><ele>490.99999999999994</ele><time>2026-04-26T15:52:34.999Z</time></trkpt><trkpt lat="37.54990765043702" lon="14.057949912787398"><ele>491.0</ele><time>2026-04-26T15:52:35.999Z</time></trkpt><trkpt lat="37.549824718469836" lon="14.05796684747306"><ele>490.99999999999994</ele><time>2026-04-26T15:52:36.999Z</time></trkpt><trkpt lat="37.54973596122434" lon="14.057968365932009"><ele>491.0</ele><time>2026-04-26T15:52:37.999Z</time></trkpt><trkpt lat="37.549642289494095" lon="14.057959186148759"><ele>491.0</ele><time>2026-04-26T15:52:38.999Z</time></trkpt><trkpt lat="37.54955756928488" lon="14.057923974349729"><ele>491.0</ele><time>2026-04-26T15:52:39.999Z</time></trkpt><trkpt lat="37.54947176093654" lon="14.057906395275431"><ele>490.99999999999994</ele><time>2026-04-26T15:52:40.999Z</time></trkpt><trkpt lat="37.54939998032097" lon="14.057873791452371"><ele>491.0</ele><time>2026-04-26T15:52:41.999Z</time></trkpt><trkpt lat="37.549295796963406" lon="14.05781898979676"><ele>489.8</ele><time>2026-04-26T15:52:43.999Z</time></trkpt><trkpt lat="37.54920164860531" lon="14.057781496874842"><ele>488.6</ele><time>2026-04-26T15:52:45.999Z</time></trkpt><trkpt lat="37.549100036966756" lon="14.057748097508869"><ele>487.4</ele><time>2026-04-26T15:52:47.999Z</time></trkpt><trkpt lat="37.54897332044754" lon="14.057724163086073"><ele>486.2</ele><time>2026-04-26T15:52:49.999Z</time></trkpt><trkpt lat="37.54889828050849" lon="14.057682903961773"><ele>485.0</ele><time>2026-04-26T15:52:50.999Z</time></trkpt><trkpt lat="37.548820678847335" lon="14.057661894351368"><ele>484.99999999999994</ele><time>2026-04-26T15:52:51.999Z</time></trkpt><trkpt lat="37.548741359180106" lon="14.057641791545281"><ele>485.0</ele><time>2026-04-26T15:52:52.999Z</time></trkpt><trkpt lat="37.54865812839379" lon="14.057640074628473"><ele>485.0</ele><time>2026-04-26T15:52:53.999Z</time></trkpt><trkpt lat="37.548572023005775" lon="14.057619823231096"><ele>485.0</ele><time>2026-04-26T15:52:54.999Z</time></trkpt><trkpt lat="37.54849181466708" lon="14.057599600117078"><ele>484.99999999999994</ele><time>2026-04-26T15:52:55.999Z</time></trkpt><trkpt lat="37.548415752502805" lon="14.057580903938051"><ele>485.0</ele><time>2026-04-26T15:52:56.999Z</time></trkpt><trkpt lat="37.548344693457864" lon="14.05756448889613"><ele>484.1428571428572</ele><time>2026-04-26T15:52:57.999Z</time></trkpt><trkpt lat="37.54827290173736" lon="14.05755098974567"><ele>483.28571428571433</ele><time>2026-04-26T15:52:58.999Z</time></trkpt><trkpt lat="37.5481984278964" lon="14.057538641054467"><ele>482.42857142857144</ele><time>2026-04-26T15:52:59.999Z</time></trkpt><trkpt lat="37.54812580207209" lon="14.057525118545488"><ele>481.5714285714286</ele><time>2026-04-26T15:53:00.999Z</time></trkpt><trkpt lat="37.54805236869239" lon="14.057511120508028"><ele>480.7142857142858</ele><time>2026-04-26T15:53:01.999Z</time></trkpt><trkpt lat="37.54798770408086" lon="14.05749752207062"><ele>479.85714285714283</ele><time>2026-04-26T15:53:02.999Z</time></trkpt><trkpt lat="37.54791665579986" lon="14.057467798546877"><ele>479.0</ele><time>2026-04-26T15:53:03.999Z</time></trkpt><trkpt lat="37.547843737740436" lon="14.057455995980758"><ele>478.1428571428571</ele><time>2026-04-26T15:53:04.999Z</time></trkpt><trkpt lat="37.54777339225358" lon="14.057455327268842"><ele>477.28571428571433</ele><time>2026-04-26T15:53:05.999Z</time></trkpt><trkpt lat="37.54770113251129" lon="14.057418788087423"><ele>476.42857142857144</ele><time>2026-04-26T15:53:06.999Z</time></trkpt><trkpt lat="37.54763348834124" lon="14.057378168967281"><ele>475.57142857142856</ele><time>2026-04-26T15:53:07.999Z</time></trkpt><trkpt lat="37.54757050991069" lon="14.057332359289427"><ele>474.71428571428567</ele><time>2026-04-26T15:53:09Z</time></trkpt><trkpt lat="37.54750715537324" lon="14.057289265369944"><ele>473.8571428571429</ele><time>2026-04-26T15:53:10Z</time></trkpt><trkpt lat="37.547443916974544" lon="14.057249411084758"><ele>473.0</ele><time>2026-04-26T15:53:11Z</time></trkpt><trkpt lat="37.54737662640442" lon="14.057220949642902"><ele>470.99999999999994</ele><time>2026-04-26T15:53:12Z</time></trkpt><trkpt lat="37.54730966555662" lon="14.057205755577465"><ele>469.0</ele><time>2026-04-26T15:53:13Z</time></trkpt><trkpt lat="37.547235739706494" lon="14.057211330607227"><ele>467.0</ele><time>2026-04-26T15:53:14Z</time></trkpt><trkpt lat="37.54715895616936" lon="14.05724086402919"><ele>465.0</ele><time>2026-04-26T15:53:15Z</time></trkpt><trkpt lat="37.54707480907367" lon="14.057245975914109"><ele>462.99999999999994</ele><time>2026-04-26T15:53:16Z</time></trkpt><trkpt lat="37.546992223749605" lon="14.057272035814389"><ele>461.0</ele><time>2026-04-26T15:53:17Z</time></trkpt><trkpt lat="37.546908734808106" lon="14.057298380888101"><ele>460.99999999999994</ele><time>2026-04-26T15:53:18Z</time></trkpt><trkpt lat="37.546828666703725" lon="14.057321220778991"><ele>461.0</ele><time>2026-04-26T15:53:19Z</time></trkpt><trkpt lat="37.54674934159915" lon="14.057338421273476"><ele>461.0</ele><time>2026-04-26T15:53:20Z</time></trkpt><trkpt lat="37.546672785861226" lon="14.057343598909904"><ele>461.0</ele><time>2026-04-26T15:53:21Z</time></trkpt><trkpt lat="37.54658831294945" lon="14.057344665838308"><ele>460.99999999999994</ele><time>2026-04-26T15:53:22Z</time></trkpt><trkpt lat="37.54650032177446" lon="14.057337998817667"><ele>461.0</ele><time>2026-04-26T15:53:23Z</time></trkpt><trkpt lat="37.54640774840892" lon="14.057346131163722"><ele>460.99999999999994</ele><time>2026-04-26T15:53:24Z</time></trkpt><trkpt lat="37.5463172128855" lon="14.057322391376436"><ele>461.0</ele><time>2026-04-26T15:53:25Z</time></trkpt><trkpt lat="37.546229978150464" lon="14.057292403382558"><ele>461.0</ele><time>2026-04-26T15:53:26Z</time></trkpt><trkpt lat="37.5461465112026" lon="14.057263464773373"><ele>461.0</ele><time>2026-04-26T15:53:27Z</time></trkpt><trkpt lat="37.5460656605014" lon="14.057215655334678"><ele>460.99999999999994</ele><time>2026-04-26T15:53:28Z</time></trkpt><trkpt lat="37.54598154352872" lon="14.05721055238474"><ele>461.0</ele><time>2026-04-26T15:53:29Z</time></trkpt><trkpt lat="37.54589810899573" lon="14.057186114619409"><ele>459.99999999999994</ele><time>2026-04-26T15:53:30Z</time></trkpt><trkpt lat="37.54580667087457" lon="14.057170362156468"><ele>459.0</ele><time>2026-04-26T15:53:31Z</time></trkpt><trkpt lat="37.54571493904394" lon="14.0571614871397"><ele>458.0</ele><time>2026-04-26T15:53:32Z</time></trkpt><trkpt lat="37.54562973389902" lon="14.057127695137174"><ele>457.0</ele><time>2026-04-26T15:53:33Z</time></trkpt><trkpt lat="37.545542699201285" lon="14.057112998128261"><ele>455.99999999999994</ele><time>2026-04-26T15:53:34Z</time></trkpt><trkpt lat="37.54545662346432" lon="14.057112167313443"><ele>455.0</ele><time>2026-04-26T15:53:35Z</time></trkpt><trkpt lat="37.5453792662789" lon="14.057092441467915"><ele>455.66666666666663</ele><time>2026-04-26T15:53:36Z</time></trkpt><trkpt lat="37.545294634582355" lon="14.05706908626779"><ele>456.3333333333333</ele><time>2026-04-26T15:53:37Z</time></trkpt><trkpt lat="37.54521577976002" lon="14.057050682273577"><ele>457.0</ele><time>2026-04-26T15:53:38Z</time></trkpt><trkpt lat="37.54514557568233" lon="14.05701036597983"><ele>457.66666666666663</ele><time>2026-04-26T15:53:39Z</time></trkpt><trkpt lat="37.5450694391374" lon="14.057007745331243"><ele>458.3333333333333</ele><time>2026-04-26T15:53:40Z</time></trkpt><trkpt lat="37.54499280135303" lon="14.056985735046949"><ele>459.0</ele><time>2026-04-26T15:53:41Z</time></trkpt><trkpt lat="37.54491563379109" lon="14.05695974469721"><ele>459.0</ele><time>2026-04-26T15:53:42Z</time></trkpt><trkpt lat="37.54483619232241" lon="14.056936670679773"><ele>459.0</ele><time>2026-04-26T15:53:43Z</time></trkpt><trkpt lat="37.5447500384599" lon="14.056929531684585"><ele>459.0</ele><time>2026-04-26T15:53:44Z</time></trkpt><trkpt lat="37.54465903280303" lon="14.05692731664821"><ele>459.0</ele><time>2026-04-26T15:53:45Z</time></trkpt><trkpt lat="37.544561367081315" lon="14.056924620631557"><ele>459.0</ele><time>2026-04-26T15:53:46Z</time></trkpt><trkpt lat="37.544457614633465" lon="14.056928572241716"><ele>458.79999999999995</ele><time>2026-04-26T15:53:47Z</time></trkpt><trkpt lat="37.54435106852753" lon="14.056912823821596"><ele>458.59999999999997</ele><time>2026-04-26T15:53:48Z</time></trkpt><trkpt lat="37.544247971828845" lon="14.056916929443735"><ele>458.4</ele><time>2026-04-26T15:53:49Z</time></trkpt><trkpt lat="37.54414536172229" lon="14.05692573715288"><ele>458.2</ele><time>2026-04-26T15:53:50Z</time></trkpt><trkpt lat="37.54404479541055" lon="14.056952686643744"><ele>458.0</ele><time>2026-04-26T15:53:51Z</time></trkpt><trkpt lat="37.54394364942715" lon="14.056942110684483"><ele>458.0</ele><time>2026-04-26T15:53:52Z</time></trkpt><trkpt lat="37.5438437089007" lon="14.056948415701306"><ele>457.99999999999994</ele><time>2026-04-26T15:53:53Z</time></trkpt><trkpt lat="37.543744106931655" lon="14.056954699366692"><ele>457.99999999999994</ele><time>2026-04-26T15:53:54Z</time></trkpt><trkpt lat="37.543645419500535" lon="14.056960103383286"><ele>458.0</ele><time>2026-04-26T15:53:55Z</time></trkpt><trkpt lat="37.543549811148075" lon="14.056982360599322"><ele>458.0</ele><time>2026-04-26T15:53:56Z</time></trkpt><trkpt lat="37.54346014125491" lon="14.056978583924337"><ele>457.16666666666663</ele><time>2026-04-26T15:53:57Z</time></trkpt><trkpt lat="37.54337280810383" lon="14.056966338549303"><ele>456.3333333333333</ele><time>2026-04-26T15:53:58Z</time></trkpt><trkpt lat="37.54328150845655" lon="14.056947562019186"><ele>455.5</ele><time>2026-04-26T15:53:59Z</time></trkpt><trkpt lat="37.543213142745536" lon="14.056906154832992"><ele>454.66666666666663</ele><time>2026-04-26T15:54:00Z</time></trkpt><trkpt lat="37.543105115787505" lon="14.056886599470646"><ele>453.8333333333333</ele><time>2026-04-26T15:54:02Z</time></trkpt><trkpt lat="37.54302917586048" lon="14.056853352764332"><ele>453.0</ele><time>2026-04-26T15:54:14.999Z</time></trkpt><trkpt lat="37.54294710956796" lon="14.056821348039714"><ele>453.0</ele><time>2026-04-26T15:54:16.999Z</time></trkpt><trkpt lat="37.542829098795515" lon="14.056788445267705"><ele>452.99999999999994</ele><time>2026-04-26T15:54:18.999Z</time></trkpt><trkpt lat="37.54276594469806" lon="14.05676641453242"><ele>452.99999999999994</ele><time>2026-04-26T15:54:19.999Z</time></trkpt><trkpt lat="37.5426587642754" lon="14.056728553266993"><ele>453.0</ele><time>2026-04-26T15:54:21.999Z</time></trkpt><trkpt lat="37.54254691316413" lon="14.056682438782127"><ele>453.0</ele><time>2026-04-26T15:54:23.999Z</time></trkpt><trkpt lat="37.542483870420604" lon="14.05666586507692"><ele>453.0</ele><time>2026-04-26T15:54:24.999Z</time></trkpt><trkpt lat="37.54236771535024" lon="14.05663252559661"><ele>452.99999999999994</ele><time>2026-04-26T15:54:26.999Z</time></trkpt><trkpt lat="37.54225427662116" lon="14.05659421744614"><ele>452.99999999999994</ele><time>2026-04-26T15:54:28.999Z</time></trkpt><trkpt lat="37.542183162720185" lon="14.056571004552934"><ele>453.0</ele><time>2026-04-26T15:54:29.999Z</time></trkpt><trkpt lat="37.542105578079365" lon="14.05653854982455"><ele>453.0</ele><time>2026-04-26T15:54:30.999Z</time></trkpt><trkpt lat="37.54202211094242" lon="14.05650419561658"><ele>452.59999999999997</ele><time>2026-04-26T15:54:31.999Z</time></trkpt><trkpt lat="37.54193573289811" lon="14.056475036739002"><ele>452.19999999999993</ele><time>2026-04-26T15:54:32.999Z</time></trkpt><trkpt lat="37.54184571769324" lon="14.056457504907852"><ele>451.8</ele><time>2026-04-26T15:54:33.999Z</time></trkpt><trkpt lat="37.54175774105398" lon="14.056444933579485"><ele>451.4</ele><time>2026-04-26T15:54:34.999Z</time></trkpt><trkpt lat="37.54166569863084" lon="14.056431768574493"><ele>451.0</ele><time>2026-04-26T15:54:35.999Z</time></trkpt><trkpt lat="37.541577290787025" lon="14.05641774754423"><ele>451.0</ele><time>2026-04-26T15:54:36.999Z</time></trkpt><trkpt lat="37.54148220728372" lon="14.056402624421516"><ele>451.0</ele><time>2026-04-26T15:54:37.999Z</time></trkpt><trkpt lat="37.541387690222436" lon="14.056385703285711"><ele>451.0</ele><time>2026-04-26T15:54:38.999Z</time></trkpt><trkpt lat="37.541295305196485" lon="14.05636968659251"><ele>451.0</ele><time>2026-04-26T15:54:39.999Z</time></trkpt><trkpt lat="37.54119515054808" lon="14.056357676661182"><ele>451.0</ele><time>2026-04-26T15:54:40.999Z</time></trkpt><trkpt lat="37.54109279518585" lon="14.056345897382071"><ele>450.0</ele><time>2026-04-26T15:54:41.999Z</time></trkpt><trkpt lat="37.54098987290378" lon="14.056331826405266"><ele>449.0</ele><time>2026-04-26T15:54:42.999Z</time></trkpt><trkpt lat="37.54088694720741" lon="14.056318975885496"><ele>448.0</ele><time>2026-04-26T15:54:43.999Z</time></trkpt><trkpt lat="37.54078959576471" lon="14.056301884253761"><ele>447.0</ele><time>2026-04-26T15:54:44.999Z</time></trkpt><trkpt lat="37.54068834328814" lon="14.056285454792054"><ele>446.0</ele><time>2026-04-26T15:54:45.999Z</time></trkpt><trkpt lat="37.54057978947001" lon="14.056266998271505"><ele>446.0</ele><time>2026-04-26T15:54:46.999Z</time></trkpt><trkpt lat="37.54046605453698" lon="14.056249865928669"><ele>446.0</ele><time>2026-04-26T15:54:47.999Z</time></trkpt><trkpt lat="37.54035023963625" lon="14.056232977128225"><ele>446.0</ele><time>2026-04-26T15:54:48.999Z</time></trkpt><trkpt lat="37.54023266293451" lon="14.056214426158002"><ele>446.0</ele><time>2026-04-26T15:54:49.999Z</time></trkpt><trkpt lat="37.540118560039026" lon="14.056198901418204"><ele>444.75</ele><time>2026-04-26T15:54:50.999Z</time></trkpt><trkpt lat="37.540005754777496" lon="14.056183864175557"><ele>443.5</ele><time>2026-04-26T15:54:51.999Z</time></trkpt><trkpt lat="37.53989522266556" lon="14.056167442710858"><ele>442.25</ele><time>2026-04-26T15:54:52.999Z</time></trkpt><trkpt lat="37.539785616615625" lon="14.056152779899532"><ele>441.0</ele><time>2026-04-26T15:54:53.999Z</time></trkpt><trkpt lat="37.5396700677489" lon="14.056133275467104"><ele>441.0</ele><time>2026-04-26T15:54:54.999Z</time></trkpt><trkpt lat="37.5395561465971" lon="14.056106249667693"><ele>441.0</ele><time>2026-04-26T15:54:55.999Z</time></trkpt><trkpt lat="37.53944861083032" lon="14.056073995248221"><ele>441.0</ele><time>2026-04-26T15:54:56.999Z</time></trkpt><trkpt lat="37.53934638172665" lon="14.05602288428758"><ele>441.0</ele><time>2026-04-26T15:54:57.999Z</time></trkpt><trkpt lat="37.539252743071785" lon="14.055949239175893"><ele>441.0</ele><time>2026-04-26T15:54:58.999Z</time></trkpt><trkpt lat="37.5391661337967" lon="14.055859452617872"><ele>438.75</ele><time>2026-04-26T15:54:59.999Z</time></trkpt><trkpt lat="37.53908549188201" lon="14.05575789457374"><ele>436.5</ele><time>2026-04-26T15:55:00.999Z</time></trkpt><trkpt lat="37.53900866905681" lon="14.05564904423846"><ele>434.25</ele><time>2026-04-26T15:55:01.999Z</time></trkpt><trkpt lat="37.5389311200394" lon="14.05553545820358"><ele>432.0</ele><time>2026-04-26T15:55:02.999Z</time></trkpt><trkpt lat="37.5388525483667" lon="14.055425931977858"><ele>432.0</ele><time>2026-04-26T15:55:03.999Z</time></trkpt><trkpt lat="37.53877520370164" lon="14.055320983944714"><ele>432.00000000000006</ele><time>2026-04-26T15:55:04.999Z</time></trkpt><trkpt lat="37.53869821203314" lon="14.055217197515086"><ele>432.00000000000006</ele><time>2026-04-26T15:55:05.999Z</time></trkpt><trkpt lat="37.538624008679015" lon="14.05511284357494"><ele>432.0</ele><time>2026-04-26T15:55:06.999Z</time></trkpt><trkpt lat="37.538550914624274" lon="14.055010906839863"><ele>432.0</ele><time>2026-04-26T15:55:07.999Z</time></trkpt><trkpt lat="37.538478670510266" lon="14.054910038644278"><ele>430.5</ele><time>2026-04-26T15:55:08.999Z</time></trkpt><trkpt lat="37.53840559799444" lon="14.054807423097149"><ele>429.0</ele><time>2026-04-26T15:55:09.999Z</time></trkpt><trkpt lat="37.538339873148665" lon="14.054693584106873"><ele>427.5</ele><time>2026-04-26T15:55:10.999Z</time></trkpt><trkpt lat="37.538276101198825" lon="14.054563333474562"><ele>426.0</ele><time>2026-04-26T15:55:11.999Z</time></trkpt><trkpt lat="37.53822819830792" lon="14.054426668473033"><ele>426.0</ele><time>2026-04-26T15:55:12.999Z</time></trkpt><trkpt lat="37.5382008936455" lon="14.054281464495858"><ele>426.0</ele><time>2026-04-26T15:55:13.999Z</time></trkpt><trkpt lat="37.538179100550735" lon="14.054125246382355"><ele>426.0</ele><time>2026-04-26T15:55:15Z</time></trkpt><trkpt lat="37.53815753784199" lon="14.053960263018324"><ele>426.0</ele><time>2026-04-26T15:55:16Z</time></trkpt><trkpt lat="37.53812939553697" lon="14.053791106481736"><ele>424.75</ele><time>2026-04-26T15:55:17Z</time></trkpt><trkpt lat="37.538093154021496" lon="14.053619872827555"><ele>423.5</ele><time>2026-04-26T15:55:18Z</time></trkpt><trkpt lat="37.53804715514617" lon="14.05345838879775"><ele>422.25</ele><time>2026-04-26T15:55:19Z</time></trkpt><trkpt lat="37.53800143066676" lon="14.053292833975215"><ele>421.0</ele><time>2026-04-26T15:55:20Z</time></trkpt><trkpt lat="37.53793258709381" lon="14.05312662905839"><ele>421.33333333333337</ele><time>2026-04-26T15:55:21Z</time></trkpt><trkpt lat="37.53785137929371" lon="14.052963295016312"><ele>421.66666666666663</ele><time>2026-04-26T15:55:22Z</time></trkpt><trkpt lat="37.537757545287036" lon="14.052802894567728"><ele>422.0</ele><time>2026-04-26T15:55:23Z</time></trkpt><trkpt lat="37.53767519550486" lon="14.052641711700486"><ele>422.0</ele><time>2026-04-26T15:55:24Z</time></trkpt><trkpt lat="37.53760422502392" lon="14.052495855203606"><ele>422.0</ele><time>2026-04-26T15:55:25Z</time></trkpt><trkpt lat="37.53752799569701" lon="14.052357871443789"><ele>422.0</ele><time>2026-04-26T15:55:26Z</time></trkpt><trkpt lat="37.53745199413458" lon="14.052230080327888"><ele>422.0</ele><time>2026-04-26T15:55:27Z</time></trkpt><trkpt lat="37.53736882713159" lon="14.052116825892249"><ele>422.0</ele><time>2026-04-26T15:55:28Z</time></trkpt><trkpt lat="37.5372780586574" lon="14.05202333109019"><ele>422.0</ele><time>2026-04-26T15:55:29Z</time></trkpt><trkpt lat="37.537175374330396" lon="14.051946204571538"><ele>422.0</ele><time>2026-04-26T15:55:30Z</time></trkpt><trkpt lat="37.53706534751358" lon="14.051891042537935"><ele>422.0</ele><time>2026-04-26T15:55:31Z</time></trkpt><trkpt lat="37.53694979733024" lon="14.051852970762319"><ele>422.75</ele><time>2026-04-26T15:55:32Z</time></trkpt><trkpt lat="37.53682256460822" lon="14.051834273612887"><ele>423.5</ele><time>2026-04-26T15:55:33Z</time></trkpt><trkpt lat="37.536682425539816" lon="14.05182993253588"><ele>424.25</ele><time>2026-04-26T15:55:34Z</time></trkpt><trkpt lat="37.53654213077764" lon="14.051829194470015"><ele>425.0</ele><time>2026-04-26T15:55:35Z</time></trkpt><trkpt lat="37.536403578229816" lon="14.051828116071006"><ele>425.0</ele><time>2026-04-26T15:55:36Z</time></trkpt><trkpt lat="37.536275824919635" lon="14.05182428785186"><ele>425.0</ele><time>2026-04-26T15:55:37Z</time></trkpt><trkpt lat="37.53614771748273" lon="14.0518211449654"><ele>425.0</ele><time>2026-04-26T15:55:38Z</time></trkpt><trkpt lat="37.5360208611365" lon="14.05182024116046"><ele>425.0</ele><time>2026-04-26T15:55:39Z</time></trkpt><trkpt lat="37.53588783773242" lon="14.051817538055728"><ele>425.0</ele><time>2026-04-26T15:55:40Z</time></trkpt><trkpt lat="37.535762364532445" lon="14.051814379890521"><ele>425.0</ele><time>2026-04-26T15:55:41Z</time></trkpt><trkpt lat="37.53563416017164" lon="14.051815582972504"><ele>425.0</ele><time>2026-04-26T15:55:42Z</time></trkpt><trkpt lat="37.53550713396685" lon="14.051808075841262"><ele>425.0</ele><time>2026-04-26T15:55:43Z</time></trkpt><trkpt lat="37.53537468816077" lon="14.051791126317955"><ele>424.5</ele><time>2026-04-26T15:55:44Z</time></trkpt><trkpt lat="37.53524378753445" lon="14.0517622407433"><ele>424.0</ele><time>2026-04-26T15:55:45Z</time></trkpt><trkpt lat="37.53511060535099" lon="14.051716823685503"><ele>423.5</ele><time>2026-04-26T15:55:46Z</time></trkpt><trkpt lat="37.53497554947821" lon="14.051654988361806"><ele>423.0</ele><time>2026-04-26T15:55:47Z</time></trkpt><trkpt lat="37.534841013785595" lon="14.051577532255306"><ele>424.0</ele><time>2026-04-26T15:55:48Z</time></trkpt><trkpt lat="37.534710847099916" lon="14.051489300614397"><ele>425.0</ele><time>2026-04-26T15:55:49Z</time></trkpt><trkpt lat="37.534587415544" lon="14.051389441653154"><ele>426.0</ele><time>2026-04-26T15:55:50Z</time></trkpt><trkpt lat="37.53447256991159" lon="14.051285889565097"><ele>427.0</ele><time>2026-04-26T15:55:51Z</time></trkpt><trkpt lat="37.53435377531871" lon="14.051191344209146"><ele>427.0</ele><time>2026-04-26T15:55:52Z</time></trkpt><trkpt lat="37.534224305571016" lon="14.051111387117475"><ele>427.0</ele><time>2026-04-26T15:55:53Z</time></trkpt><trkpt lat="37.53409828782522" lon="14.051048918675564"><ele>427.0</ele><time>2026-04-26T15:55:54Z</time></trkpt><trkpt lat="37.533976774453635" lon="14.051006826031196"><ele>427.0</ele><time>2026-04-26T15:55:55Z</time></trkpt><trkpt lat="37.533857809943854" lon="14.05098054641943"><ele>427.0</ele><time>2026-04-26T15:55:56Z</time></trkpt><trkpt lat="37.533732902632714" lon="14.050967370217093"><ele>427.0</ele><time>2026-04-26T15:55:57Z</time></trkpt><trkpt lat="37.53361019812477" lon="14.050977826948095"><ele>427.0</ele><time>2026-04-26T15:55:58Z</time></trkpt><trkpt lat="37.5334890163575" lon="14.051010195788649"><ele>427.0</ele><time>2026-04-26T15:55:59Z</time></trkpt><trkpt lat="37.53337860470367" lon="14.051089674931646"><ele>426.25</ele><time>2026-04-26T15:56:00Z</time></trkpt><trkpt lat="37.53327722238206" lon="14.051193177765187"><ele>425.5</ele><time>2026-04-26T15:56:01Z</time></trkpt><trkpt lat="37.53318285178966" lon="14.05131142233968"><ele>424.75</ele><time>2026-04-26T15:56:02Z</time></trkpt><trkpt lat="37.5330799473811" lon="14.051421934989476"><ele>424.0</ele><time>2026-04-26T15:56:03Z</time></trkpt><trkpt lat="37.53298998611298" lon="14.051548988119976"><ele>425.5</ele><time>2026-04-26T15:56:04Z</time></trkpt><trkpt lat="37.53290422731292" lon="14.051671783813575"><ele>427.0</ele><time>2026-04-26T15:56:05Z</time></trkpt><trkpt lat="37.532823341226994" lon="14.051796033059285"><ele>428.5</ele><time>2026-04-26T15:56:06Z</time></trkpt><trkpt lat="37.53276423062097" lon="14.051936954988975"><ele>430.0</ele><time>2026-04-26T15:56:07Z</time></trkpt><trkpt lat="37.53269832338374" lon="14.052068729470584"><ele>432.0</ele><time>2026-04-26T15:56:08Z</time></trkpt><trkpt lat="37.53265582049884" lon="14.052223921032803"><ele>434.0</ele><time>2026-04-26T15:56:09Z</time></trkpt><trkpt lat="37.53261576735158" lon="14.052373448089048"><ele>436.0</ele><time>2026-04-26T15:56:10Z</time></trkpt><trkpt lat="37.53257463941575" lon="14.05252347152602"><ele>438.0</ele><time>2026-04-26T15:56:11Z</time></trkpt><trkpt lat="37.53254390994843" lon="14.052662429022318"><ele>438.0</ele><time>2026-04-26T15:56:11.999Z</time></trkpt><trkpt lat="37.53248230837811" lon="14.052774508037741"><ele>437.99999999999994</ele><time>2026-04-26T15:56:12.999Z</time></trkpt><trkpt lat="37.53240109075174" lon="14.052871727299525"><ele>437.99999999999994</ele><time>2026-04-26T15:56:13.999Z</time></trkpt><trkpt lat="37.53231162140068" lon="14.052952775428798"><ele>438.0</ele><time>2026-04-26T15:56:14.999Z</time></trkpt><trkpt lat="37.532223795543985" lon="14.053009092274227"><ele>438.0</ele><time>2026-04-26T15:56:15.999Z</time></trkpt><trkpt lat="37.532127926646275" lon="14.053043194427033"><ele>440.5</ele><time>2026-04-26T15:56:16.999Z</time></trkpt><trkpt lat="37.53201477804563" lon="14.053047467264447"><ele>443.0</ele><time>2026-04-26T15:56:17.999Z</time></trkpt><trkpt lat="37.53188998055095" lon="14.053029953362381"><ele>445.5</ele><time>2026-04-26T15:56:18.999Z</time></trkpt><trkpt lat="37.53175104193206" lon="14.052996356537589"><ele>448.0</ele><time>2026-04-26T15:56:19.999Z</time></trkpt><trkpt lat="37.53160247100454" lon="14.05296618407599"><ele>448.0</ele><time>2026-04-26T15:56:20.999Z</time></trkpt><trkpt lat="37.53145526614959" lon="14.052939499130071"><ele>448.0</ele><time>2026-04-26T15:56:21.999Z</time></trkpt><trkpt lat="37.53130999345486" lon="14.0529098428129"><ele>448.0</ele><time>2026-04-26T15:56:22.999Z</time></trkpt><trkpt lat="37.531173387954816" lon="14.052875650610515"><ele>448.0</ele><time>2026-04-26T15:56:23.999Z</time></trkpt><trkpt lat="37.53103184139677" lon="14.052853139012678"><ele>449.75</ele><time>2026-04-26T15:56:24.999Z</time></trkpt><trkpt lat="37.53088871739293" lon="14.052835350778706"><ele>451.5</ele><time>2026-04-26T15:56:25.999Z</time></trkpt><trkpt lat="37.53074594882119" lon="14.052826230844767"><ele>453.25</ele><time>2026-04-26T15:56:26.999Z</time></trkpt><trkpt lat="37.53060110369904" lon="14.052839686348117"><ele>455.0</ele><time>2026-04-26T15:56:27.999Z</time></trkpt><trkpt lat="37.53045845253673" lon="14.052874028373385"><ele>456.0</ele><time>2026-04-26T15:56:28.999Z</time></trkpt><trkpt lat="37.53032135487032" lon="14.052917714573715"><ele>457.0</ele><time>2026-04-26T15:56:29.999Z</time></trkpt><trkpt lat="37.53019366667085" lon="14.052965073569009"><ele>458.0</ele><time>2026-04-26T15:56:30.999Z</time></trkpt><trkpt lat="37.53007248883461" lon="14.053010498127291"><ele>459.0</ele><time>2026-04-26T15:56:31.999Z</time></trkpt><trkpt lat="37.52995927659717" lon="14.053054955394758"><ele>459.0</ele><time>2026-04-26T15:56:32.999Z</time></trkpt><trkpt lat="37.52985376487161" lon="14.053093802116203"><ele>459.0</ele><time>2026-04-26T15:56:33.999Z</time></trkpt><trkpt lat="37.52975662059763" lon="14.053132180780752"><ele>459.0</ele><time>2026-04-26T15:56:34.999Z</time></trkpt><trkpt lat="37.52966787494242" lon="14.053169851742899"><ele>459.0</ele><time>2026-04-26T15:56:35.999Z</time></trkpt><trkpt lat="37.52958567959862" lon="14.053205667360814"><ele>459.0</ele><time>2026-04-26T15:56:36.999Z</time></trkpt><trkpt lat="37.52951682144828" lon="14.053230121723072"><ele>458.4</ele><time>2026-04-26T15:56:37.999Z</time></trkpt><trkpt lat="37.529412489418704" lon="14.053212326593016"><ele>457.79999999999995</ele><time>2026-04-26T15:56:39.999Z</time></trkpt><trkpt lat="37.529358408819164" lon="14.053140307200717"><ele>457.20000000000005</ele><time>2026-04-26T15:56:41.999Z</time></trkpt><trkpt lat="37.5293205196297" lon="14.053053880239041"><ele>456.6</ele><time>2026-04-26T15:56:43.999Z</time></trkpt><trkpt lat="37.52925728642128" lon="14.052978446836999"><ele>456.0</ele><time>2026-04-26T15:56:45.999Z</time></trkpt><trkpt lat="37.52918369387062" lon="14.052885242964962"><ele>456.0</ele><time>2026-04-26T15:56:47.999Z</time></trkpt><trkpt lat="37.52909865685483" lon="14.052765164040439"><ele>456.0</ele><time>2026-04-26T15:56:49.999Z</time></trkpt><trkpt lat="37.52905037915277" lon="14.052691280762563"><ele>456.0</ele><time>2026-04-26T15:56:50.999Z</time></trkpt><trkpt lat="37.52900171513731" lon="14.052611094238456"><ele>456.0</ele><time>2026-04-26T15:56:51.999Z</time></trkpt><trkpt lat="37.528954580530396" lon="14.052525831786333"><ele>456.0</ele><time>2026-04-26T15:56:52.999Z</time></trkpt><trkpt lat="37.52890839335871" lon="14.052446177914478"><ele>456.0</ele><time>2026-04-26T15:56:53.999Z</time></trkpt><trkpt lat="37.52886441044725" lon="14.052358750369997"><ele>456.20000000000005</ele><time>2026-04-26T15:56:54.999Z</time></trkpt><trkpt lat="37.52881568684237" lon="14.052262994610677"><ele>456.40000000000003</ele><time>2026-04-26T15:56:55.999Z</time></trkpt><trkpt lat="37.5287691135278" lon="14.052163436569685"><ele>456.6</ele><time>2026-04-26T15:56:56.999Z</time></trkpt><trkpt lat="37.52871838096589" lon="14.0520625272741"><ele>456.8</ele><time>2026-04-26T15:56:57.999Z</time></trkpt><trkpt lat="37.52866796867959" lon="14.051962521461395"><ele>457.0</ele><time>2026-04-26T15:56:58.999Z</time></trkpt><trkpt lat="37.528614718802885" lon="14.051855510909059"><ele>455.6</ele><time>2026-04-26T15:56:59.999Z</time></trkpt><trkpt lat="37.52856095145627" lon="14.051744106154521"><ele>454.20000000000005</ele><time>2026-04-26T15:57:00.999Z</time></trkpt><trkpt lat="37.52851345603637" lon="14.051634188970068"><ele>452.8</ele><time>2026-04-26T15:57:01.999Z</time></trkpt><trkpt lat="37.52847131688737" lon="14.05151459910704"><ele>451.4</ele><time>2026-04-26T15:57:02.999Z</time></trkpt><trkpt lat="37.52843689884207" lon="14.0513837513537"><ele>450.0</ele><time>2026-04-26T15:57:03.999Z</time></trkpt><trkpt lat="37.528409832144945" lon="14.051244968680802"><ele>449.2</ele><time>2026-04-26T15:57:04.999Z</time></trkpt><trkpt lat="37.52838821824055" lon="14.051106079403613"><ele>448.4</ele><time>2026-04-26T15:57:05.999Z</time></trkpt><trkpt lat="37.52836668562659" lon="14.050970250001594"><ele>447.6</ele><time>2026-04-26T15:57:06.999Z</time></trkpt><trkpt lat="37.52834649362876" lon="14.050829253546286"><ele>446.8</ele><time>2026-04-26T15:57:07.999Z</time></trkpt><trkpt lat="37.52834129227882" lon="14.050691784537277"><ele>446.0</ele><time>2026-04-26T15:57:08.999Z</time></trkpt><trkpt lat="37.528350549216064" lon="14.050555853243395"><ele>445.20000000000005</ele><time>2026-04-26T15:57:09.999Z</time></trkpt><trkpt lat="37.528356902180995" lon="14.050425408892256"><ele>444.40000000000003</ele><time>2026-04-26T15:57:10.999Z</time></trkpt><trkpt lat="37.52835922827769" lon="14.050301305880922"><ele>443.6</ele><time>2026-04-26T15:57:11.999Z</time></trkpt><trkpt lat="37.52836365946594" lon="14.050171511013998"><ele>442.8</ele><time>2026-04-26T15:57:12.999Z</time></trkpt><trkpt lat="37.528364000544826" lon="14.05003718349796"><ele>442.0</ele><time>2026-04-26T15:57:13.999Z</time></trkpt><trkpt lat="37.52837176075279" lon="14.049905097362483"><ele>440.8</ele><time>2026-04-26T15:57:14.999Z</time></trkpt><trkpt lat="37.52838601716038" lon="14.049771062134495"><ele>439.6</ele><time>2026-04-26T15:57:15.999Z</time></trkpt><trkpt lat="37.52839409569926" lon="14.049634973848674"><ele>438.40000000000003</ele><time>2026-04-26T15:57:16.999Z</time></trkpt><trkpt lat="37.52839991546549" lon="14.049502647486886"><ele>437.20000000000005</ele><time>2026-04-26T15:57:17.999Z</time></trkpt><trkpt lat="37.528415437772715" lon="14.049370300950766"><ele>436.0</ele><time>2026-04-26T15:57:18.999Z</time></trkpt><trkpt lat="37.52843411356398" lon="14.049238728542418"><ele>435.00000000000006</ele><time>2026-04-26T15:57:19.999Z</time></trkpt><trkpt lat="37.52845774486579" lon="14.049121414474012"><ele>434.0</ele><time>2026-04-26T15:57:21Z</time></trkpt><trkpt lat="37.528485019346626" lon="14.049022105151886"><ele>433.0</ele><time>2026-04-26T15:57:22Z</time></trkpt><trkpt lat="37.52853005397525" lon="14.048932897436256"><ele>432.0</ele><time>2026-04-26T15:57:23Z</time></trkpt><trkpt lat="37.52859078452917" lon="14.048854188087786"><ele>431.00000000000006</ele><time>2026-04-26T15:57:24Z</time></trkpt><trkpt lat="37.528670169167995" lon="14.048793395837075"><ele>430.0</ele><time>2026-04-26T15:57:25Z</time></trkpt><trkpt lat="37.528765654158896" lon="14.048747322872574"><ele>429.6</ele><time>2026-04-26T15:57:26Z</time></trkpt><trkpt lat="37.528871355521915" lon="14.048707547362245"><ele>429.2</ele><time>2026-04-26T15:57:27Z</time></trkpt><trkpt lat="37.52897862708073" lon="14.048682748398507"><ele>428.79999999999995</ele><time>2026-04-26T15:57:28Z</time></trkpt><trkpt lat="37.529086205436" lon="14.04867025896986"><ele>428.4</ele><time>2026-04-26T15:57:29Z</time></trkpt><trkpt lat="37.52919212073154" lon="14.048649282879815"><ele>428.0</ele><time>2026-04-26T15:57:30Z</time></trkpt><trkpt lat="37.52929893073268" lon="14.048596385643698"><ele>428.0</ele><time>2026-04-26T15:57:31Z</time></trkpt><trkpt lat="37.52939426786665" lon="14.048494067861267"><ele>428.0</ele><time>2026-04-26T15:57:32Z</time></trkpt><trkpt lat="37.52946613755738" lon="14.048368504882466"><ele>428.0</ele><time>2026-04-26T15:57:33Z</time></trkpt><trkpt lat="37.52952120889862" lon="14.048249874257388"><ele>428.0</ele><time>2026-04-26T15:57:34Z</time></trkpt><trkpt lat="37.52956540813894" lon="14.048140856792045"><ele>428.79999999999995</ele><time>2026-04-26T15:57:35Z</time></trkpt><trkpt lat="37.52958073705621" lon="14.048022379591815"><ele>429.59999999999997</ele><time>2026-04-26T15:57:36Z</time></trkpt><trkpt lat="37.52956073426147" lon="14.047908147877816"><ele>430.40000000000003</ele><time>2026-04-26T15:57:37Z</time></trkpt><trkpt lat="37.529506481470314" lon="14.047817919266862"><ele>431.20000000000005</ele><time>2026-04-26T15:57:38Z</time></trkpt><trkpt lat="37.52942759498413" lon="14.047745384943982"><ele>432.0</ele><time>2026-04-26T15:57:39Z</time></trkpt><trkpt lat="37.52933259383802" lon="14.047675341585725"><ele>432.0</ele><time>2026-04-26T15:57:40Z</time></trkpt><trkpt lat="37.52922296993098" lon="14.047612309908358"><ele>432.0</ele><time>2026-04-26T15:57:41Z</time></trkpt><trkpt lat="37.52911633043617" lon="14.047549027360986"><ele>432.0</ele><time>2026-04-26T15:57:42Z</time></trkpt><trkpt lat="37.529008318197135" lon="14.047472121791774"><ele>432.0</ele><time>2026-04-26T15:57:43Z</time></trkpt><trkpt lat="37.52889189115479" lon="14.04739662168672"><ele>433.5</ele><time>2026-04-26T15:57:44Z</time></trkpt><trkpt lat="37.52876800413557" lon="14.047326467850544"><ele>435.0</ele><time>2026-04-26T15:57:45Z</time></trkpt><trkpt lat="37.528640753843206" lon="14.047257034033226"><ele>436.5</ele><time>2026-04-26T15:57:46Z</time></trkpt><trkpt lat="37.528513349335114" lon="14.047186740193661"><ele>438.0</ele><time>2026-04-26T15:57:47Z</time></trkpt><trkpt lat="37.52838699071191" lon="14.04711845425618"><ele>439.4</ele><time>2026-04-26T15:57:48Z</time></trkpt><trkpt lat="37.52827831447636" lon="14.04705889490753"><ele>440.79999999999995</ele><time>2026-04-26T15:57:49Z</time></trkpt><trkpt lat="37.52818167651251" lon="14.046999039968645"><ele>442.2</ele><time>2026-04-26T15:57:50Z</time></trkpt><trkpt lat="37.52809520781536" lon="14.046920193279357"><ele>443.6</ele><time>2026-04-26T15:57:51Z</time></trkpt><trkpt lat="37.528019347703975" lon="14.04682228703166"><ele>445.0</ele><time>2026-04-26T15:57:52Z</time></trkpt><trkpt lat="37.52795788833476" lon="14.046704745365345"><ele>444.75</ele><time>2026-04-26T15:57:53Z</time></trkpt><trkpt lat="37.52790248998685" lon="14.046578477236814"><ele>444.5</ele><time>2026-04-26T15:57:54Z</time></trkpt><trkpt lat="37.52784244068514" lon="14.046450784829027"><ele>444.25</ele><time>2026-04-26T15:57:55Z</time></trkpt><trkpt lat="37.527776988985735" lon="14.046324231181563"><ele>444.0</ele><time>2026-04-26T15:57:56Z</time></trkpt><trkpt lat="37.527705901266955" lon="14.046205970979612"><ele>443.75</ele><time>2026-04-26T15:57:57Z</time></trkpt><trkpt lat="37.527628454735336" lon="14.046093840103785"><ele>443.5</ele><time>2026-04-26T15:57:58Z</time></trkpt><trkpt lat="37.527549341984596" lon="14.045977931981056"><ele>443.25</ele><time>2026-04-26T15:57:59Z</time></trkpt><trkpt lat="37.52747425977593" lon="14.045849039864317"><ele>443.0</ele><time>2026-04-26T15:58:00Z</time></trkpt><trkpt lat="37.52741418235459" lon="14.045695820125363"><ele>443.0</ele><time>2026-04-26T15:58:01Z</time></trkpt><trkpt lat="37.52737671163925" lon="14.045519502406824"><ele>443.0</ele><time>2026-04-26T15:58:02Z</time></trkpt><trkpt lat="37.5273481325394" lon="14.04533593202956"><ele>443.0</ele><time>2026-04-26T15:58:03Z</time></trkpt><trkpt lat="37.52731731584426" lon="14.045154672995393"><ele>443.0</ele><time>2026-04-26T15:58:04Z</time></trkpt><trkpt lat="37.527288207326485" lon="14.044973312193104"><ele>444.5</ele><time>2026-04-26T15:58:05Z</time></trkpt><trkpt lat="37.52725702547802" lon="14.044791716210005"><ele>446.0</ele><time>2026-04-26T15:58:06Z</time></trkpt><trkpt lat="37.52722843813106" lon="14.044615154649009"><ele>447.5</ele><time>2026-04-26T15:58:07Z</time></trkpt><trkpt lat="37.52720082422097" lon="14.044453302967362"><ele>449.0</ele><time>2026-04-26T15:58:08Z</time></trkpt><trkpt lat="37.52718116257821" lon="14.04430556768223"><ele>449.0</ele><time>2026-04-26T15:58:09Z</time></trkpt><trkpt lat="37.527173923180285" lon="14.044160707401401"><ele>449.0</ele><time>2026-04-26T15:58:10Z</time></trkpt><trkpt lat="37.527181714499584" lon="14.044017003191543"><ele>449.0</ele><time>2026-04-26T15:58:11Z</time></trkpt><trkpt lat="37.527204440219556" lon="14.043877938370654"><ele>449.0</ele><time>2026-04-26T15:58:12Z</time></trkpt><trkpt lat="37.52723647169388" lon="14.043749251125572"><ele>449.0</ele><time>2026-04-26T15:58:13Z</time></trkpt><trkpt lat="37.52728259228459" lon="14.043616398224044"><ele>449.0</ele><time>2026-04-26T15:58:14Z</time></trkpt><trkpt lat="37.52733887732795" lon="14.043484917074457"><ele>449.0</ele><time>2026-04-26T15:58:14.999Z</time></trkpt><trkpt lat="37.52739950530636" lon="14.043357502039104"><ele>449.0</ele><time>2026-04-26T15:58:15.999Z</time></trkpt><trkpt lat="37.52745395958076" lon="14.043227080481069"><ele>449.0</ele><time>2026-04-26T15:58:16.999Z</time></trkpt><trkpt lat="37.5275009303943" lon="14.043103602586807"><ele>450.0</ele><time>2026-04-26T15:58:17.999Z</time></trkpt><trkpt lat="37.52754957177199" lon="14.042981096218401"><ele>451.0</ele><time>2026-04-26T15:58:18.999Z</time></trkpt><trkpt lat="37.52760615098849" lon="14.042849250883599"><ele>452.0</ele><time>2026-04-26T15:58:19.999Z</time></trkpt><trkpt lat="37.52766100100366" lon="14.042713698397275"><ele>453.0</ele><time>2026-04-26T15:58:20.999Z</time></trkpt><trkpt lat="37.5277118439105" lon="14.042583068237358"><ele>454.25</ele><time>2026-04-26T15:58:21.999Z</time></trkpt><trkpt lat="37.527765703690406" lon="14.042454617213615"><ele>455.5</ele><time>2026-04-26T15:58:22.999Z</time></trkpt><trkpt lat="37.527830485283495" lon="14.042335333356132"><ele>456.75</ele><time>2026-04-26T15:58:23.999Z</time></trkpt><trkpt lat="37.527910460396484" lon="14.042235878881772"><ele>458.0</ele><time>2026-04-26T15:58:24.999Z</time></trkpt><trkpt lat="37.528002257503964" lon="14.04215441226652"><ele>456.0</ele><time>2026-04-26T15:58:25.999Z</time></trkpt><trkpt lat="37.5280953330046" lon="14.042080629290949"><ele>453.99999999999994</ele><time>2026-04-26T15:58:26.999Z</time></trkpt><trkpt lat="37.52817403200848" lon="14.041990275656966"><ele>451.99999999999994</ele><time>2026-04-26T15:58:27.999Z</time></trkpt><trkpt lat="37.52823639443511" lon="14.041888540193467"><ele>450.0</ele><time>2026-04-26T15:58:28.999Z</time></trkpt><trkpt lat="37.52827869333544" lon="14.041768346369366"><ele>448.0</ele><time>2026-04-26T15:58:29.999Z</time></trkpt><trkpt lat="37.528290175009516" lon="14.04162988806244"><ele>448.0</ele><time>2026-04-26T15:58:30.999Z</time></trkpt><trkpt lat="37.528300011902886" lon="14.041473149413894"><ele>448.0</ele><time>2026-04-26T15:58:31.999Z</time></trkpt><trkpt lat="37.52831362766029" lon="14.041321189679877"><ele>448.0</ele><time>2026-04-26T15:58:32.999Z</time></trkpt><trkpt lat="37.528319602579685" lon="14.041166998034512"><ele>448.0</ele><time>2026-04-26T15:58:33.999Z</time></trkpt><trkpt lat="37.52832484343376" lon="14.041008335155796"><ele>448.0</ele><time>2026-04-26T15:58:34.999Z</time></trkpt><trkpt lat="37.52832753050515" lon="14.040847196488059"><ele>448.0</ele><time>2026-04-26T15:58:35.999Z</time></trkpt><trkpt lat="37.52832099695334" lon="14.040683336143603"><ele>448.0</ele><time>2026-04-26T15:58:36.999Z</time></trkpt><trkpt lat="37.528296488135965" lon="14.04052109770283"><ele>448.0</ele><time>2026-04-26T15:58:37.999Z</time></trkpt><trkpt lat="37.528249476961065" lon="14.040361154733127"><ele>448.0</ele><time>2026-04-26T15:58:38.999Z</time></trkpt><trkpt lat="37.52820386589197" lon="14.040223146675647"><ele>447.99999999999994</ele><time>2026-04-26T15:58:39.999Z</time></trkpt><trkpt lat="37.52816592567792" lon="14.040102372027775"><ele>447.99999999999994</ele><time>2026-04-26T15:58:40.999Z</time></trkpt><trkpt lat="37.52813916095223" lon="14.040002564616476"><ele>448.0</ele><time>2026-04-26T15:58:41.999Z</time></trkpt><trkpt lat="37.528118406566286" lon="14.039922110951023"><ele>448.0</ele><time>2026-04-26T15:58:42.999Z</time></trkpt><trkpt lat="37.528089970148294" lon="14.039802138065554"><ele>448.0</ele><time>2026-04-26T15:58:44.999Z</time></trkpt><trkpt lat="37.528180144056456" lon="14.03968930605628"><ele>447.99999999999994</ele><time>2026-04-26T15:58:46.999Z</time></trkpt><trkpt lat="37.528256587480385" lon="14.039605249220983"><ele>447.99999999999994</ele><time>2026-04-26T15:58:48.999Z</time></trkpt><trkpt lat="37.52832032047783" lon="14.039556221439913"><ele>448.0</ele><time>2026-04-26T15:58:50.999Z</time></trkpt><trkpt lat="37.52839414335096" lon="14.03948952752506"><ele>448.0</ele><time>2026-04-26T15:58:52.999Z</time></trkpt><trkpt lat="37.52845774633744" lon="14.039433704394087"><ele>448.0</ele><time>2026-04-26T15:58:53.999Z</time></trkpt><trkpt lat="37.52853763333847" lon="14.039366221267478"><ele>447.99999999999994</ele><time>2026-04-26T15:58:54.999Z</time></trkpt><trkpt lat="37.52862300377584" lon="14.039310336149354"><ele>447.99999999999994</ele><time>2026-04-26T15:58:55.999Z</time></trkpt><trkpt lat="37.528726914958085" lon="14.039244963715412"><ele>448.0</ele><time>2026-04-26T15:58:56.999Z</time></trkpt><trkpt lat="37.52884718839397" lon="14.03917975974688"><ele>448.0</ele><time>2026-04-26T15:58:57.999Z</time></trkpt><trkpt lat="37.52897627262947" lon="14.039115741747665"><ele>451.0</ele><time>2026-04-26T15:58:58.999Z</time></trkpt><trkpt lat="37.52912434148831" lon="14.039040661927864"><ele>454.0</ele><time>2026-04-26T15:58:59.999Z</time></trkpt><trkpt lat="37.52928849114199" lon="14.038949302333252"><ele>457.0</ele><time>2026-04-26T15:59:00.999Z</time></trkpt><trkpt lat="37.5294903899017" lon="14.038840392254114"><ele>459.5</ele><time>2026-04-26T15:59:01.999Z</time></trkpt><trkpt lat="37.52970365181272" lon="14.03872423745425"><ele>462.0</ele><time>2026-04-26T15:59:02.999Z</time></trkpt><trkpt lat="37.529921096560905" lon="14.03860101904012"><ele>462.0</ele><time>2026-04-26T15:59:03.999Z</time></trkpt><trkpt lat="37.53010732843352" lon="14.038501672243864"><ele>462.0</ele><time>2026-04-26T15:59:04.999Z</time></trkpt><trkpt lat="37.53027283934452" lon="14.038417720138572"><ele>462.0</ele><time>2026-04-26T15:59:05.999Z</time></trkpt><trkpt lat="37.53042306128551" lon="14.038340186822246"><ele>464.25</ele><time>2026-04-26T15:59:06.999Z</time></trkpt><trkpt lat="37.53056185412214" lon="14.038265040600402"><ele>466.5</ele><time>2026-04-26T15:59:07.999Z</time></trkpt><trkpt lat="37.530693461305646" lon="14.038188012200413"><ele>468.75</ele><time>2026-04-26T15:59:08.999Z</time></trkpt><trkpt lat="37.530825852555466" lon="14.038104947360706"><ele>471.0</ele><time>2026-04-26T15:59:09.999Z</time></trkpt><trkpt lat="37.530954824257186" lon="14.038010085959534"><ele>471.0</ele><time>2026-04-26T15:59:10.999Z</time></trkpt><trkpt lat="37.531076219182" lon="14.037894955373366"><ele>471.0</ele><time>2026-04-26T15:59:11.999Z</time></trkpt><trkpt lat="37.53118319635515" lon="14.03777245671222"><ele>471.0</ele><time>2026-04-26T15:59:12.999Z</time></trkpt><trkpt lat="37.53127254199428" lon="14.037668081418992"><ele>471.0</ele><time>2026-04-26T15:59:13.999Z</time></trkpt><trkpt lat="37.5313558114852" lon="14.037583485171156"><ele>471.6</ele><time>2026-04-26T15:59:14.999Z</time></trkpt><trkpt lat="37.53144062887844" lon="14.037495880687203"><ele>472.20000000000005</ele><time>2026-04-26T15:59:15.999Z</time></trkpt><trkpt lat="37.5315245221575" lon="14.037437114483582"><ele>472.79999999999995</ele><time>2026-04-26T15:59:16.999Z</time></trkpt><trkpt lat="37.53161786372976" lon="14.037397819770783"><ele>473.4</ele><time>2026-04-26T15:59:17.999Z</time></trkpt><trkpt lat="37.53171513207209" lon="14.037381268826913"><ele>474.0</ele><time>2026-04-26T15:59:18.999Z</time></trkpt><trkpt lat="37.53181520578726" lon="14.037394752209941"><ele>474.0</ele><time>2026-04-26T15:59:19.999Z</time></trkpt><trkpt lat="37.53190775880863" lon="14.03743702201692"><ele>474.0</ele><time>2026-04-26T15:59:20.999Z</time></trkpt><trkpt lat="37.532007670936466" lon="14.037467217444595"><ele>474.0</ele><time>2026-04-26T15:59:21.999Z</time></trkpt><trkpt lat="37.53209792937464" lon="14.037505528061375"><ele>474.0</ele><time>2026-04-26T15:59:22.999Z</time></trkpt><trkpt lat="37.53216684529254" lon="14.037567307601295"><ele>474.0</ele><time>2026-04-26T15:59:23.999Z</time></trkpt><trkpt lat="37.532233443407804" lon="14.037649047936767"><ele>475.0</ele><time>2026-04-26T15:59:24.999Z</time></trkpt><trkpt lat="37.53230064045504" lon="14.037746104549692"><ele>476.0</ele><time>2026-04-26T15:59:25.999Z</time></trkpt><trkpt lat="37.53237816219061" lon="14.037851809977555"><ele>477.0</ele><time>2026-04-26T15:59:27Z</time></trkpt><trkpt lat="37.532464363165495" lon="14.037963749523625"><ele>478.0</ele><time>2026-04-26T15:59:28Z</time></trkpt><trkpt lat="37.5325568640877" lon="14.038073632442023"><ele>478.0</ele><time>2026-04-26T15:59:29Z</time></trkpt><trkpt lat="37.53266760194141" lon="14.03817479194106"><ele>478.0</ele><time>2026-04-26T15:59:30Z</time></trkpt><trkpt lat="37.53278398037564" lon="14.038268107392469"><ele>478.0</ele><time>2026-04-26T15:59:31Z</time></trkpt><trkpt lat="37.532900948172774" lon="14.038356913190889"><ele>478.0</ele><time>2026-04-26T15:59:32Z</time></trkpt><trkpt lat="37.53302614759354" lon="14.038431044127684"><ele>477.5</ele><time>2026-04-26T15:59:33Z</time></trkpt><trkpt lat="37.533151584249296" lon="14.038470261213977"><ele>477.0</ele><time>2026-04-26T15:59:34Z</time></trkpt><trkpt lat="37.5332687230566" lon="14.038490510959159"><ele>476.5</ele><time>2026-04-26T15:59:35Z</time></trkpt><trkpt lat="37.53336964312251" lon="14.038548376896223"><ele>476.0</ele><time>2026-04-26T15:59:36Z</time></trkpt><trkpt lat="37.5334677601805" lon="14.038594931532668"><ele>476.0</ele><time>2026-04-26T15:59:37Z</time></trkpt><trkpt lat="37.533558413023634" lon="14.038650145230495"><ele>476.0</ele><time>2026-04-26T15:59:38Z</time></trkpt><trkpt lat="37.533652473392365" lon="14.038709692127808"><ele>476.0</ele><time>2026-04-26T15:59:39Z</time></trkpt><trkpt lat="37.53374911419399" lon="14.038773443463942"><ele>476.0</ele><time>2026-04-26T15:59:40Z</time></trkpt><trkpt lat="37.533851482456825" lon="14.038841306964802"><ele>476.0</ele><time>2026-04-26T15:59:41Z</time></trkpt><trkpt lat="37.53395282120001" lon="14.038902863123335"><ele>473.25</ele><time>2026-04-26T15:59:42Z</time></trkpt><trkpt lat="37.534075139248465" lon="14.038914357903687"><ele>470.5</ele><time>2026-04-26T15:59:43Z</time></trkpt><trkpt lat="37.53419502110802" lon="14.038922325319788"><ele>467.75</ele><time>2026-04-26T15:59:44Z</time></trkpt><trkpt lat="37.53430953583394" lon="14.038901708767364"><ele>465.0</ele><time>2026-04-26T15:59:45Z</time></trkpt><trkpt lat="37.53441519269042" lon="14.038886396286067"><ele>465.0</ele><time>2026-04-26T15:59:46Z</time></trkpt><trkpt lat="37.53450402622867" lon="14.038900088645223"><ele>465.0</ele><time>2026-04-26T15:59:47Z</time></trkpt><trkpt lat="37.53457921199621" lon="14.03888120415947"><ele>465.0</ele><time>2026-04-26T15:59:48Z</time></trkpt><trkpt lat="37.53465050942254" lon="14.038884954555382"><ele>465.0</ele><time>2026-04-26T15:59:49Z</time></trkpt><trkpt lat="37.53472114585316" lon="14.038893677114057"><ele>465.0</ele><time>2026-04-26T15:59:50Z</time></trkpt><trkpt lat="37.534788697485496" lon="14.038918841716658"><ele>465.0</ele><time>2026-04-26T15:59:51Z</time></trkpt><trkpt lat="37.53485275660141" lon="14.0389494898056"><ele>465.0</ele><time>2026-04-26T15:59:52Z</time></trkpt><trkpt lat="37.53491463025381" lon="14.038986688086222"><ele>465.57142857142856</ele><time>2026-04-26T15:59:53Z</time></trkpt><trkpt lat="37.534975930203565" lon="14.03902551443382"><ele>466.14285714285717</ele><time>2026-04-26T15:59:54Z</time></trkpt><trkpt lat="37.535037815223234" lon="14.039065379793188"><ele>466.7142857142857</ele><time>2026-04-26T15:59:55Z</time></trkpt><trkpt lat="37.53509652230882" lon="14.039119340866147"><ele>467.2857142857143</ele><time>2026-04-26T15:59:56Z</time></trkpt><trkpt lat="37.535162453041664" lon="14.039158451425436"><ele>467.8571428571429</ele><time>2026-04-26T15:59:57Z</time></trkpt><trkpt lat="37.53523427991164" lon="14.039198134557534"><ele>468.42857142857144</ele><time>2026-04-26T15:59:58Z</time></trkpt><trkpt lat="37.53530783915999" lon="14.03921578958225"><ele>469.0</ele><time>2026-04-26T15:59:59Z</time></trkpt><trkpt lat="37.535382289195546" lon="14.03924480336311"><ele>468.0</ele><time>2026-04-26T16:00:00Z</time></trkpt><trkpt lat="37.535461343496166" lon="14.039253488519266"><ele>467.0</ele><time>2026-04-26T16:00:01Z</time></trkpt><trkpt lat="37.535539046737135" lon="14.039244378354717"><ele>466.0</ele><time>2026-04-26T16:00:02Z</time></trkpt><trkpt lat="37.5356123716327" lon="14.039222087273393"><ele>465.0</ele><time>2026-04-26T16:00:03Z</time></trkpt><trkpt lat="37.535678672698275" lon="14.03919064012029"><ele>464.0</ele><time>2026-04-26T16:00:04Z</time></trkpt><trkpt lat="37.53574507038152" lon="14.03916092350608"><ele>463.0</ele><time>2026-04-26T16:00:05Z</time></trkpt><trkpt lat="37.53580374349093" lon="14.039130460256763"><ele>462.0</ele><time>2026-04-26T16:00:06Z</time></trkpt><trkpt lat="37.535909415958955" lon="14.039092393320761"><ele>462.0</ele><time>2026-04-26T16:00:08Z</time></trkpt><trkpt lat="37.535811159079685" lon="14.039086157459055"><ele>462.0</ele><time>2026-04-26T16:00:33.999Z</time></trkpt><trkpt lat="37.53574752047943" lon="14.0391258492147"><ele>462.0</ele><time>2026-04-26T16:00:34.999Z</time></trkpt><trkpt lat="37.53567146183423" lon="14.039159886715012"><ele>462.0</ele><time>2026-04-26T16:00:35.999Z</time></trkpt><trkpt lat="37.53559215814301" lon="14.039191401699643"><ele>462.0</ele><time>2026-04-26T16:00:36.999Z</time></trkpt><trkpt lat="37.53551047177602" lon="14.039215321318752"><ele>462.0</ele><time>2026-04-26T16:00:37.999Z</time></trkpt><trkpt lat="37.535428216964455" lon="14.039219662218162"><ele>461.6</ele><time>2026-04-26T16:00:38.999Z</time></trkpt><trkpt lat="37.53533946152279" lon="14.039201489082712"><ele>461.20000000000005</ele><time>2026-04-26T16:00:39.999Z</time></trkpt><trkpt lat="37.535246846424585" lon="14.039165473191376"><ele>460.8</ele><time>2026-04-26T16:00:40.999Z</time></trkpt><trkpt lat="37.53515722277638" lon="14.039113683250584"><ele>460.4</ele><time>2026-04-26T16:00:41.999Z</time></trkpt><trkpt lat="37.53507165259633" lon="14.039051632868334"><ele>460.0</ele><time>2026-04-26T16:00:42.999Z</time></trkpt><trkpt lat="37.53498537530815" lon="14.03899611690411"><ele>460.0</ele><time>2026-04-26T16:00:43.999Z</time></trkpt><trkpt lat="37.53490736484501" lon="14.038949886178974"><ele>460.0</ele><time>2026-04-26T16:00:44.999Z</time></trkpt><trkpt lat="37.53482108982875" lon="14.038896639231716"><ele>460.0</ele><time>2026-04-26T16:00:45.999Z</time></trkpt><trkpt lat="37.53473916142389" lon="14.038861602359285"><ele>460.0</ele><time>2026-04-26T16:00:46.999Z</time></trkpt><trkpt lat="37.53464695829728" lon="14.038850789497117"><ele>460.0</ele><time>2026-04-26T16:00:47.999Z</time></trkpt><trkpt lat="37.534547375117036" lon="14.038851069685231"><ele>461.25</ele><time>2026-04-26T16:00:48.999Z</time></trkpt><trkpt lat="37.53443443312865" lon="14.0388594901833"><ele>462.5</ele><time>2026-04-26T16:00:49.999Z</time></trkpt><trkpt lat="37.53431431191256" lon="14.038870382722397"><ele>463.75</ele><time>2026-04-26T16:00:50.999Z</time></trkpt><trkpt lat="37.53419139635536" lon="14.038882848724974"><ele>465.0</ele><time>2026-04-26T16:00:51.999Z</time></trkpt><trkpt lat="37.5340852344613" lon="14.03888711105457"><ele>465.0</ele><time>2026-04-26T16:00:52.999Z</time></trkpt><trkpt lat="37.533981323578026" lon="14.038869573536113"><ele>465.0</ele><time>2026-04-26T16:00:53.999Z</time></trkpt><trkpt lat="37.53387622709268" lon="14.038814220161619"><ele>465.0</ele><time>2026-04-26T16:00:54.999Z</time></trkpt><trkpt lat="37.533776921768755" lon="14.03873951004499"><ele>465.0</ele><time>2026-04-26T16:00:55.999Z</time></trkpt><trkpt lat="37.53368153641221" lon="14.038661904054305"><ele>465.0</ele><time>2026-04-26T16:00:56.999Z</time></trkpt><trkpt lat="37.53357633134037" lon="14.038601396473377"><ele>467.2</ele><time>2026-04-26T16:00:57.999Z</time></trkpt><trkpt lat="37.53348876161027" lon="14.03855567814136"><ele>469.4</ele><time>2026-04-26T16:00:58.999Z</time></trkpt><trkpt lat="37.533397993393" lon="14.038511490787924"><ele>471.6</ele><time>2026-04-26T16:00:59.999Z</time></trkpt><trkpt lat="37.53330222932925" lon="14.038477382686349"><ele>473.8</ele><time>2026-04-26T16:01:00.999Z</time></trkpt><trkpt lat="37.5332141615731" lon="14.038446677127734"><ele>476.0</ele><time>2026-04-26T16:01:01.999Z</time></trkpt><trkpt lat="37.5331270566173" lon="14.038424271873785"><ele>475.99999999999994</ele><time>2026-04-26T16:01:02.999Z</time></trkpt><trkpt lat="37.533043298505184" lon="14.038394392072043"><ele>476.0</ele><time>2026-04-26T16:01:03.999Z</time></trkpt><trkpt lat="37.53296254177608" lon="14.03835786555337"><ele>476.0</ele><time>2026-04-26T16:01:04.999Z</time></trkpt><trkpt lat="37.532887361658524" lon="14.038315698110297"><ele>476.0</ele><time>2026-04-26T16:01:05.999Z</time></trkpt><trkpt lat="37.532820547435264" lon="14.038262583206317"><ele>475.99999999999994</ele><time>2026-04-26T16:01:06.999Z</time></trkpt><trkpt lat="37.532761844096356" lon="14.03820487527226"><ele>476.0</ele><time>2026-04-26T16:01:07.999Z</time></trkpt><trkpt lat="37.532708669692155" lon="14.038151456444455"><ele>475.99999999999994</ele><time>2026-04-26T16:01:08.999Z</time></trkpt><trkpt lat="37.53264736645728" lon="14.038086097092283"><ele>476.0</ele><time>2026-04-26T16:01:10.999Z</time></trkpt><trkpt lat="37.532710578903156" lon="14.038187212649081"><ele>476.0</ele><time>2026-04-26T16:01:21.999Z</time></trkpt><trkpt lat="37.53281903315831" lon="14.038259198205884"><ele>476.0</ele><time>2026-04-26T16:01:23.999Z</time></trkpt><trkpt lat="37.53287048030517" lon="14.038310679485035"><ele>475.99999999999994</ele><time>2026-04-26T16:01:24.999Z</time></trkpt><trkpt lat="37.53291666446979" lon="14.038388046203439"><ele>476.0</ele><time>2026-04-26T16:01:25.999Z</time></trkpt><trkpt lat="37.532991708183324" lon="14.038424684022731"><ele>475.99999999999994</ele><time>2026-04-26T16:01:26.999Z</time></trkpt><trkpt lat="37.53307199836285" lon="14.038454735110026"><ele>476.0</ele><time>2026-04-26T16:01:27.999Z</time></trkpt><trkpt lat="37.53315187489331" lon="14.038475402360659"><ele>476.0</ele><time>2026-04-26T16:01:28.999Z</time></trkpt><trkpt lat="37.53322984574961" lon="14.038497000686972"><ele>476.0</ele><time>2026-04-26T16:01:29.999Z</time></trkpt><trkpt lat="37.53330925251788" lon="14.038525184271313"><ele>475.99999999999994</ele><time>2026-04-26T16:01:30.999Z</time></trkpt><trkpt lat="37.5333933823774" lon="14.0385574958685"><ele>476.0</ele><time>2026-04-26T16:01:31.999Z</time></trkpt><trkpt lat="37.53347645067188" lon="14.038599092311678"><ele>476.0</ele><time>2026-04-26T16:01:33Z</time></trkpt><trkpt lat="37.53355360171998" lon="14.038647183425018"><ele>476.0</ele><time>2026-04-26T16:01:34Z</time></trkpt><trkpt lat="37.53363311522451" lon="14.038697355688388"><ele>476.0</ele><time>2026-04-26T16:01:35Z</time></trkpt><trkpt lat="37.533716439645914" lon="14.038751820092504"><ele>476.0</ele><time>2026-04-26T16:01:36Z</time></trkpt><trkpt lat="37.53380215198442" lon="14.03880854596116"><ele>476.0</ele><time>2026-04-26T16:01:37Z</time></trkpt><trkpt lat="37.53389232088276" lon="14.038866114857447"><ele>473.8</ele><time>2026-04-26T16:01:38Z</time></trkpt><trkpt lat="37.53398999981872" lon="14.038919100809764"><ele>471.6</ele><time>2026-04-26T16:01:39Z</time></trkpt><trkpt lat="37.534099065528565" lon="14.038917554533747"><ele>469.4</ele><time>2026-04-26T16:01:40Z</time></trkpt><trkpt lat="37.53420597189435" lon="14.038913815617136"><ele>467.2</ele><time>2026-04-26T16:01:41Z</time></trkpt><trkpt lat="37.534310078493746" lon="14.038898111129756"><ele>465.0</ele><time>2026-04-26T16:01:42Z</time></trkpt><trkpt lat="37.53441248999263" lon="14.038884535225286"><ele>465.0</ele><time>2026-04-26T16:01:43Z</time></trkpt><trkpt lat="37.53451422109121" lon="14.038899843549705"><ele>465.0</ele><time>2026-04-26T16:01:44Z</time></trkpt><trkpt lat="37.53461476903552" lon="14.03887976462511"><ele>465.0</ele><time>2026-04-26T16:01:45Z</time></trkpt><trkpt lat="37.534707322250284" lon="14.03891136682108"><ele>465.0</ele><time>2026-04-26T16:01:46Z</time></trkpt><trkpt lat="37.53480014444567" lon="14.03893764797048"><ele>465.0</ele><time>2026-04-26T16:01:47Z</time></trkpt><trkpt lat="37.534886657867375" lon="14.038988763890666"><ele>465.8</ele><time>2026-04-26T16:01:48Z</time></trkpt><trkpt lat="37.53497355402573" lon="14.03904332483756"><ele>466.6</ele><time>2026-04-26T16:01:49Z</time></trkpt><trkpt lat="37.53506509489671" lon="14.03910069915362"><ele>467.4</ele><time>2026-04-26T16:01:50Z</time></trkpt><trkpt lat="37.53515859200665" lon="14.039156162117859"><ele>468.2</ele><time>2026-04-26T16:01:51Z</time></trkpt><trkpt lat="37.53525076309588" lon="14.039206894272588"><ele>469.0</ele><time>2026-04-26T16:01:52Z</time></trkpt><trkpt lat="37.53534813020955" lon="14.039223037930526"><ele>467.83333333333337</ele><time>2026-04-26T16:01:53Z</time></trkpt><trkpt lat="37.53543377552784" lon="14.039248675340382"><ele>466.6666666666667</ele><time>2026-04-26T16:01:54Z</time></trkpt><trkpt lat="37.53551501160899" lon="14.039247836554761"><ele>465.5</ele><time>2026-04-26T16:01:55Z</time></trkpt><trkpt lat="37.53559125826798" lon="14.03922770788421"><ele>464.33333333333337</ele><time>2026-04-26T16:01:56Z</time></trkpt><trkpt lat="37.535666128256736" lon="14.039197585763102"><ele>463.1666666666667</ele><time>2026-04-26T16:01:57Z</time></trkpt><trkpt lat="37.535740095421" lon="14.039153470140773"><ele>462.0</ele><time>2026-04-26T16:01:58Z</time></trkpt><trkpt lat="37.53581085903309" lon="14.039115732914757"><ele>461.8333333333333</ele><time>2026-04-26T16:01:59Z</time></trkpt><trkpt lat="37.53588277560914" lon="14.039086864330761"><ele>461.66666666666663</ele><time>2026-04-26T16:02:00Z</time></trkpt><trkpt lat="37.53596125431384" lon="14.039060359067129"><ele>461.5</ele><time>2026-04-26T16:02:01Z</time></trkpt><trkpt lat="37.53603612633728" lon="14.039030700445485"><ele>461.3333333333333</ele><time>2026-04-26T16:02:02Z</time></trkpt><trkpt lat="37.53611881520202" lon="14.039013705949191"><ele>461.16666666666663</ele><time>2026-04-26T16:02:03Z</time></trkpt><trkpt lat="37.536202353388475" lon="14.039036053728159"><ele>461.0</ele><time>2026-04-26T16:02:04Z</time></trkpt><trkpt lat="37.53628956874235" lon="14.039045751826801"><ele>461.0</ele><time>2026-04-26T16:02:05Z</time></trkpt><trkpt lat="37.53637869333617" lon="14.03906061122806"><ele>461.0</ele><time>2026-04-26T16:02:06Z</time></trkpt><trkpt lat="37.536468122778786" lon="14.039083828272705"><ele>461.0</ele><time>2026-04-26T16:02:07Z</time></trkpt><trkpt lat="37.53655555007325" lon="14.039116949755583"><ele>461.0</ele><time>2026-04-26T16:02:08Z</time></trkpt><trkpt lat="37.53664046814923" lon="14.039151536008198"><ele>461.0</ele><time>2026-04-26T16:02:09Z</time></trkpt><trkpt lat="37.5367272285945" lon="14.039187112832604"><ele>461.3333333333333</ele><time>2026-04-26T16:02:10Z</time></trkpt><trkpt lat="37.53680471458661" lon="14.039218886571886"><ele>461.66666666666663</ele><time>2026-04-26T16:02:11Z</time></trkpt><trkpt lat="37.53687869512625" lon="14.039248324876889"><ele>462.0</ele><time>2026-04-26T16:02:12Z</time></trkpt><trkpt lat="37.53694700497269" lon="14.039275304589731"><ele>462.33333333333337</ele><time>2026-04-26T16:02:13Z</time></trkpt><trkpt lat="37.53700974139493" lon="14.039300083025461"><ele>462.6666666666667</ele><time>2026-04-26T16:02:14Z</time></trkpt><trkpt lat="37.537120575334804" lon="14.039344559404773"><ele>463.0</ele><time>2026-04-26T16:02:16Z</time></trkpt><trkpt lat="37.537206399178096" lon="14.039381514895908"><ele>463.1666666666667</ele><time>2026-04-26T16:02:18Z</time></trkpt><trkpt lat="37.53727090181098" lon="14.039409290113715"><ele>463.33333333333337</ele><time>2026-04-26T16:02:21Z</time></trkpt><trkpt lat="37.53738712115079" lon="14.039264232528618"><ele>463.5</ele><time>2026-04-26T16:02:24Z</time></trkpt><trkpt lat="37.53745575019824" lon="14.0392891312446"><ele>463.66666666666663</ele><time>2026-04-26T16:02:27Z</time></trkpt><trkpt lat="37.53751252250824" lon="14.039345277823621"><ele>463.8333333333333</ele><time>2026-04-26T16:03:46Z</time></trkpt><trkpt lat="37.537561368169904" lon="14.03939541858879"><ele>464.0</ele><time>2026-04-26T16:04:04Z</time></trkpt><trkpt lat="37.5375424814978" lon="14.039317822949346"><ele>464.00000000000006</ele><time>2026-04-26T16:04:14Z</time></trkpt><trkpt lat="37.53761357641419" lon="14.039335542984485"><ele>464.0</ele><time>2026-04-26T16:06:27Z</time></trkpt><trkpt lat="37.53767581066049" lon="14.039370433849127"><ele>464.00000000000006</ele><time>2026-04-26T16:06:35Z</time></trkpt><trkpt lat="37.5376141901061" lon="14.03933497280569"><ele>464.00000000000006</ele><time>2026-04-26T16:20:22.999Z</time></trkpt><trkpt lat="37.537551216047156" lon="14.039315465993637"><ele>464.0</ele><time>2026-04-26T16:20:36Z</time></trkpt><trkpt lat="37.53751145641197" lon="14.039253054273592"><ele>464.00000000000006</ele><time>2026-04-26T16:27:42.999Z</time></trkpt><trkpt lat="37.53744452189548" lon="14.039248658833253"><ele>464.00000000000006</ele><time>2026-04-26T16:32:33.999Z</time></trkpt><trkpt lat="37.53736923914399" lon="14.039284516640729"><ele>464.00000000000006</ele><time>2026-04-26T16:32:36.999Z</time></trkpt><trkpt lat="37.53729760524721" lon="14.039304910469166"><ele>464.0</ele><time>2026-04-26T16:32:39.999Z</time></trkpt><trkpt lat="37.537222153104004" lon="14.039298731743706"><ele>464.00000000000006</ele><time>2026-04-26T16:32:41.999Z</time></trkpt><trkpt lat="37.537153905098684" lon="14.039288840215693"><ele>464.00000000000006</ele><time>2026-04-26T16:32:43.999Z</time></trkpt><trkpt lat="37.537084779227385" lon="14.039270306863664"><ele>464.0</ele><time>2026-04-26T16:32:45.999Z</time></trkpt><trkpt lat="37.537014829943814" lon="14.039236359815412"><ele>464.00000000000006</ele><time>2026-04-26T16:32:47.999Z</time></trkpt><trkpt lat="37.53694070795652" lon="14.039205465179567"><ele>464.00000000000006</ele><time>2026-04-26T16:32:49.999Z</time></trkpt><trkpt lat="37.53685179851492" lon="14.03917578667169"><ele>463.79999999999995</ele><time>2026-04-26T16:32:51.999Z</time></trkpt><trkpt lat="37.53676080932221" lon="14.039134150878347"><ele>463.59999999999997</ele><time>2026-04-26T16:32:53.999Z</time></trkpt><trkpt lat="37.53666137480359" lon="14.039095687321693"><ele>463.4</ele><time>2026-04-26T16:32:55.999Z</time></trkpt><trkpt lat="37.536550286253934" lon="14.039056363663036"><ele>463.2</ele><time>2026-04-26T16:32:57.999Z</time></trkpt><trkpt lat="37.53642704239046" lon="14.039021816399798"><ele>463.0</ele><time>2026-04-26T16:32:59.999Z</time></trkpt><trkpt lat="37.53636187454869" lon="14.039005698574206"><ele>462.71428571428567</ele><time>2026-04-26T16:33:00.999Z</time></trkpt><trkpt lat="37.53629690027385" lon="14.03899224066293"><ele>462.4285714285714</ele><time>2026-04-26T16:33:01.999Z</time></trkpt><trkpt lat="37.53623251478994" lon="14.03898550422481"><ele>462.1428571428571</ele><time>2026-04-26T16:33:03Z</time></trkpt><trkpt lat="37.53616837141357" lon="14.03898621053949"><ele>461.8571428571429</ele><time>2026-04-26T16:33:04Z</time></trkpt><trkpt lat="37.536103917832506" lon="14.038992148008635"><ele>461.5714285714286</ele><time>2026-04-26T16:33:05Z</time></trkpt><trkpt lat="37.536038480348466" lon="14.039007202495858"><ele>461.28571428571433</ele><time>2026-04-26T16:33:06Z</time></trkpt><trkpt lat="37.53597631393786" lon="14.039028147073715"><ele>461.0</ele><time>2026-04-26T16:33:07Z</time></trkpt><trkpt lat="37.535910476102025" lon="14.039051105771053"><ele>461.14285714285717</ele><time>2026-04-26T16:33:08Z</time></trkpt><trkpt lat="37.53584069073797" lon="14.03907878617725"><ele>461.28571428571433</ele><time>2026-04-26T16:33:09Z</time></trkpt><trkpt lat="37.535770480395044" lon="14.039109804298239"><ele>461.42857142857144</ele><time>2026-04-26T16:33:10Z</time></trkpt><trkpt lat="37.535699142095574" lon="14.039141272861274"><ele>461.57142857142856</ele><time>2026-04-26T16:33:11Z</time></trkpt><trkpt lat="37.53562652135235" lon="14.039172432731888"><ele>461.7142857142857</ele><time>2026-04-26T16:33:12Z</time></trkpt><trkpt lat="37.5355581653164" lon="14.039191748965445"><ele>461.8571428571429</ele><time>2026-04-26T16:33:13Z</time></trkpt><trkpt lat="37.53548622272296" lon="14.039201020626976"><ele>462.0</ele><time>2026-04-26T16:33:14Z</time></trkpt><trkpt lat="37.53541378222555" lon="14.039198055988193"><ele>461.6666666666667</ele><time>2026-04-26T16:33:15Z</time></trkpt><trkpt lat="37.53533835211126" lon="14.039177286210343"><ele>461.33333333333337</ele><time>2026-04-26T16:33:16Z</time></trkpt><trkpt lat="37.53526845244372" lon="14.039144576012522"><ele>461.0</ele><time>2026-04-26T16:33:17Z</time></trkpt><trkpt lat="37.53518854613681" lon="14.039108637584022"><ele>460.6666666666667</ele><time>2026-04-26T16:33:18Z</time></trkpt><trkpt lat="37.535115054455574" lon="14.03906536484175"><ele>460.33333333333337</ele><time>2026-04-26T16:33:19Z</time></trkpt><trkpt lat="37.53504039459968" lon="14.039017813750542"><ele>460.0</ele><time>2026-04-26T16:33:20Z</time></trkpt><trkpt lat="37.534960466626906" lon="14.03897139066989"><ele>460.00000000000006</ele><time>2026-04-26T16:33:21Z</time></trkpt><trkpt lat="37.53487817763875" lon="14.038923687014893"><ele>460.0</ele><time>2026-04-26T16:33:22Z</time></trkpt><trkpt lat="37.53479520912546" lon="14.03888040385474"><ele>460.0</ele><time>2026-04-26T16:33:23Z</time></trkpt><trkpt lat="37.53470908078171" lon="14.038857338519364"><ele>460.0</ele><time>2026-04-26T16:33:24Z</time></trkpt><trkpt lat="37.53462389209473" lon="14.038849423648674"><ele>460.00000000000006</ele><time>2026-04-26T16:33:25Z</time></trkpt><trkpt lat="37.53454254992424" lon="14.038845357866284"><ele>460.0</ele><time>2026-04-26T16:33:26Z</time></trkpt><trkpt lat="37.5344635873775" lon="14.038852226355605"><ele>460.83333333333337</ele><time>2026-04-26T16:33:27Z</time></trkpt><trkpt lat="37.534380294140206" lon="14.038858492132304"><ele>461.6666666666667</ele><time>2026-04-26T16:33:28Z</time></trkpt><trkpt lat="37.53429312978381" lon="14.038868132299354"><ele>462.5</ele><time>2026-04-26T16:33:29Z</time></trkpt><trkpt lat="37.53420894529201" lon="14.038876270693043"><ele>463.33333333333337</ele><time>2026-04-26T16:33:30Z</time></trkpt><trkpt lat="37.534132235567306" lon="14.038880333072882"><ele>464.1666666666667</ele><time>2026-04-26T16:33:31Z</time></trkpt><trkpt lat="37.53405180117253" lon="14.038867858717065"><ele>465.0</ele><time>2026-04-26T16:33:32Z</time></trkpt><trkpt lat="37.53397080308998" lon="14.038839396298577"><ele>465.0</ele><time>2026-04-26T16:33:33Z</time></trkpt><trkpt lat="37.533893293777375" lon="14.038799375056453"><ele>465.0</ele><time>2026-04-26T16:33:34Z</time></trkpt><trkpt lat="37.5338173033036" lon="14.038746473947798"><ele>465.0</ele><time>2026-04-26T16:33:35Z</time></trkpt><trkpt lat="37.5337378172432" lon="14.038691800402994"><ele>465.0</ele><time>2026-04-26T16:33:36Z</time></trkpt><trkpt lat="37.53365524533975" lon="14.038635203722718"><ele>465.0</ele><time>2026-04-26T16:33:37Z</time></trkpt><trkpt lat="37.53357215706342" lon="14.03858481069138"><ele>465.0</ele><time>2026-04-26T16:33:38Z</time></trkpt><trkpt lat="37.53349068036689" lon="14.038541662680917"><ele>467.2</ele><time>2026-04-26T16:33:39Z</time></trkpt><trkpt lat="37.53340643122833" lon="14.038503641368644"><ele>469.4</ele><time>2026-04-26T16:33:40Z</time></trkpt><trkpt lat="37.533318655674144" lon="14.038469460913195"><ele>471.6</ele><time>2026-04-26T16:33:41Z</time></trkpt><trkpt lat="37.53322627431079" lon="14.038436655114145"><ele>473.8</ele><time>2026-04-26T16:33:42Z</time></trkpt><trkpt lat="37.533130248867025" lon="14.038410534414725"><ele>476.0</ele><time>2026-04-26T16:33:43Z</time></trkpt><trkpt lat="37.533035764616955" lon="14.038381001107512"><ele>476.0</ele><time>2026-04-26T16:33:44Z</time></trkpt><trkpt lat="37.53294085670114" lon="14.038332741272463"><ele>476.0</ele><time>2026-04-26T16:33:45Z</time></trkpt><trkpt lat="37.53285647966201" lon="14.038271222723106"><ele>476.0</ele><time>2026-04-26T16:33:46Z</time></trkpt><trkpt lat="37.53277565105051" lon="14.038201185731332"><ele>476.0</ele><time>2026-04-26T16:33:47Z</time></trkpt><trkpt lat="37.532696530937784" lon="14.038122252055345"><ele>476.0</ele><time>2026-04-26T16:33:48Z</time></trkpt><trkpt lat="37.53261153797625" lon="14.038041392754767"><ele>476.4</ele><time>2026-04-26T16:33:49Z</time></trkpt><trkpt lat="37.53253253973456" lon="14.037956404559154"><ele>476.8</ele><time>2026-04-26T16:33:50Z</time></trkpt><trkpt lat="37.532465747610644" lon="14.037869835020674"><ele>477.19999999999993</ele><time>2026-04-26T16:33:51Z</time></trkpt><trkpt lat="37.532403958742556" lon="14.037785629895547"><ele>477.59999999999997</ele><time>2026-04-26T16:33:52Z</time></trkpt><trkpt lat="37.532348336028434" lon="14.037707955745283"><ele>478.0</ele><time>2026-04-26T16:33:53Z</time></trkpt><trkpt lat="37.53229278847591" lon="14.03763116038816"><ele>478.00000000000006</ele><time>2026-04-26T16:33:54Z</time></trkpt><trkpt lat="37.53223954200584" lon="14.03756293614591"><ele>478.0</ele><time>2026-04-26T16:33:55Z</time></trkpt><trkpt lat="37.5321779731151" lon="14.03749963027407"><ele>478.0</ele><time>2026-04-26T16:33:56Z</time></trkpt><trkpt lat="37.53211300386071" lon="14.037446062464163"><ele>478.0</ele><time>2026-04-26T16:33:57Z</time></trkpt><trkpt lat="37.53203094106676" lon="14.03741285650226"><ele>478.00000000000006</ele><time>2026-04-26T16:33:58Z</time></trkpt><trkpt lat="37.53195005752843" lon="14.037387961897679"><ele>478.0</ele><time>2026-04-26T16:33:58.999Z</time></trkpt><trkpt lat="37.53186963398127" lon="14.037371025749813"><ele>478.00000000000006</ele><time>2026-04-26T16:33:59.999Z</time></trkpt><trkpt lat="37.53178987678477" lon="14.03735781365534"><ele>478.0</ele><time>2026-04-26T16:34:00.999Z</time></trkpt><trkpt lat="37.5317099722004" lon="14.037348461548595"><ele>478.0</ele><time>2026-04-26T16:34:01.999Z</time></trkpt><trkpt lat="37.531628483654735" lon="14.037362619673507"><ele>478.0</ele><time>2026-04-26T16:34:02.999Z</time></trkpt><trkpt lat="37.531550759395905" lon="14.037398821154229"><ele>478.00000000000006</ele><time>2026-04-26T16:34:03.999Z</time></trkpt><trkpt lat="37.531469256807554" lon="14.037427108714912"><ele>478.0</ele><time>2026-04-26T16:34:04.999Z</time></trkpt><trkpt lat="37.53139139385087" lon="14.037497002226491"><ele>478.0</ele><time>2026-04-26T16:34:05.999Z</time></trkpt><trkpt lat="37.53132151495465" lon="14.037569795339211"><ele>477.99999999999994</ele><time>2026-04-26T16:34:06.999Z</time></trkpt><trkpt lat="37.53124857420677" lon="14.037648177454352"><ele>477.99999999999994</ele><time>2026-04-26T16:34:07.999Z</time></trkpt><trkpt lat="37.531174229511265" lon="14.037727948015458"><ele>478.0</ele><time>2026-04-26T16:34:08.999Z</time></trkpt><trkpt lat="37.53109719077023" lon="14.03781060924152"><ele>478.0</ele><time>2026-04-26T16:34:09.999Z</time></trkpt><trkpt lat="37.53102402890209" lon="14.037908735298645"><ele>476.59999999999997</ele><time>2026-04-26T16:34:10.999Z</time></trkpt><trkpt lat="37.5309394797188" lon="14.03798702849245"><ele>475.19999999999993</ele><time>2026-04-26T16:34:11.999Z</time></trkpt><trkpt lat="37.53084740363823" lon="14.038057520534876"><ele>473.8</ele><time>2026-04-26T16:34:12.999Z</time></trkpt><trkpt lat="37.53075495130546" lon="14.038120460669655"><ele>472.4</ele><time>2026-04-26T16:34:13.999Z</time></trkpt><trkpt lat="37.53066034733726" lon="14.038177433946805"><ele>471.0</ele><time>2026-04-26T16:34:14.999Z</time></trkpt><trkpt lat="37.53056537946544" lon="14.038232539785566"><ele>471.0</ele><time>2026-04-26T16:34:15.999Z</time></trkpt><trkpt lat="37.53046887540612" lon="14.038286567293998"><ele>471.0</ele><time>2026-04-26T16:34:16.999Z</time></trkpt><trkpt lat="37.53037548604362" lon="14.038339561094404"><ele>471.0</ele><time>2026-04-26T16:34:17.999Z</time></trkpt><trkpt lat="37.53028056872793" lon="14.038391558245651"><ele>471.0</ele><time>2026-04-26T16:34:18.999Z</time></trkpt><trkpt lat="37.5301853157046" lon="14.038440799732243"><ele>471.0</ele><time>2026-04-26T16:34:19.999Z</time></trkpt><trkpt lat="37.53009082367771" lon="14.038490566573143"><ele>469.20000000000005</ele><time>2026-04-26T16:34:20.999Z</time></trkpt><trkpt lat="37.529997377743456" lon="14.038542880600724"><ele>467.40000000000003</ele><time>2026-04-26T16:34:21.999Z</time></trkpt><trkpt lat="37.52990470933596" lon="14.03859431079548"><ele>465.6</ele><time>2026-04-26T16:34:22.999Z</time></trkpt><trkpt lat="37.52981024675822" lon="14.038644870962166"><ele>463.8</ele><time>2026-04-26T16:34:23.999Z</time></trkpt><trkpt lat="37.52971609020485" lon="14.038695866919047"><ele>462.0</ele><time>2026-04-26T16:34:24.999Z</time></trkpt><trkpt lat="37.529621241336734" lon="14.03874758097931"><ele>461.0</ele><time>2026-04-26T16:34:25.999Z</time></trkpt><trkpt lat="37.529525028103656" lon="14.038798320126599"><ele>460.00000000000006</ele><time>2026-04-26T16:34:26.999Z</time></trkpt><trkpt lat="37.52942633123228" lon="14.038851549496364"><ele>459.00000000000006</ele><time>2026-04-26T16:34:27.999Z</time></trkpt><trkpt lat="37.5293308825888" lon="14.038903123536526"><ele>458.0</ele><time>2026-04-26T16:34:28.999Z</time></trkpt><trkpt lat="37.5292366427966" lon="14.03895433494087"><ele>457.0</ele><time>2026-04-26T16:34:29.999Z</time></trkpt><trkpt lat="37.52913938861245" lon="14.03900608887639"><ele>457.0</ele><time>2026-04-26T16:34:30.999Z</time></trkpt><trkpt lat="37.529041439317076" lon="14.039058577409445"><ele>457.00000000000006</ele><time>2026-04-26T16:34:31.999Z</time></trkpt><trkpt lat="37.528944347742" lon="14.03911255132216"><ele>457.00000000000006</ele><time>2026-04-26T16:34:32.999Z</time></trkpt><trkpt lat="37.52884919142394" lon="14.039161924173092"><ele>457.0</ele><time>2026-04-26T16:34:33.999Z</time></trkpt><trkpt lat="37.52875388415513" lon="14.039212266802728"><ele>457.0</ele><time>2026-04-26T16:34:34.999Z</time></trkpt><trkpt lat="37.5286610864193" lon="14.039270595818499"><ele>455.20000000000005</ele><time>2026-04-26T16:34:35.999Z</time></trkpt><trkpt lat="37.52856870999033" lon="14.039330142897432"><ele>453.40000000000003</ele><time>2026-04-26T16:34:36.999Z</time></trkpt><trkpt lat="37.52848282529325" lon="14.0393939323135"><ele>451.59999999999997</ele><time>2026-04-26T16:34:37.999Z</time></trkpt><trkpt lat="37.52840001988213" lon="14.039458188229862"><ele>449.79999999999995</ele><time>2026-04-26T16:34:38.999Z</time></trkpt><trkpt lat="37.52832532208236" lon="14.03952170069006"><ele>448.0</ele><time>2026-04-26T16:34:39.999Z</time></trkpt><trkpt lat="37.52825714664733" lon="14.039577750371116"><ele>448.00000000000006</ele><time>2026-04-26T16:34:40.999Z</time></trkpt><trkpt lat="37.52820566312862" lon="14.039623834830216"><ele>448.0</ele><time>2026-04-26T16:34:41.999Z</time></trkpt><trkpt lat="37.5281420388171" lon="14.039691371810969"><ele>448.0</ele><time>2026-04-26T16:34:43.999Z</time></trkpt><trkpt lat="37.52808046089722" lon="14.039745211518275"><ele>448.0</ele><time>2026-04-26T16:34:47.999Z</time></trkpt><trkpt lat="37.52808070899415" lon="14.039937277865661"><ele>448.00000000000006</ele><time>2026-04-26T16:34:49.999Z</time></trkpt><trkpt lat="37.528106587915126" lon="14.040015332368867"><ele>448.0</ele><time>2026-04-26T16:34:50.999Z</time></trkpt><trkpt lat="37.52813460815287" lon="14.040103969266465"><ele>448.1666666666667</ele><time>2026-04-26T16:34:51.999Z</time></trkpt><trkpt lat="37.528164157383934" lon="14.040199571447786"><ele>448.33333333333337</ele><time>2026-04-26T16:34:52.999Z</time></trkpt><trkpt lat="37.5281934427517" lon="14.04029491186223"><ele>448.5</ele><time>2026-04-26T16:34:53.999Z</time></trkpt><trkpt lat="37.528222204714645" lon="14.040388356392672"><ele>448.66666666666663</ele><time>2026-04-26T16:34:54.999Z</time></trkpt><trkpt lat="37.52825093611687" lon="14.040481703105009"><ele>448.8333333333333</ele><time>2026-04-26T16:34:55.999Z</time></trkpt><trkpt lat="37.528272046428576" lon="14.040580970044202"><ele>449.0</ele><time>2026-04-26T16:34:56.999Z</time></trkpt><trkpt lat="37.528286662613354" lon="14.040676399287081"><ele>448.99999999999994</ele><time>2026-04-26T16:34:57.999Z</time></trkpt><trkpt lat="37.52829454753143" lon="14.040772918893271"><ele>449.0</ele><time>2026-04-26T16:34:58.999Z</time></trkpt><trkpt lat="37.52829775905491" lon="14.040871326320067"><ele>449.0</ele><time>2026-04-26T16:34:59.999Z</time></trkpt><trkpt lat="37.528296363088906" lon="14.040973049812571"><ele>449.0</ele><time>2026-04-26T16:35:00.999Z</time></trkpt><trkpt lat="37.52829342493838" lon="14.04108031831184"><ele>448.99999999999994</ele><time>2026-04-26T16:35:01.999Z</time></trkpt><trkpt lat="37.52828777638146" lon="14.041186196131235"><ele>449.0</ele><time>2026-04-26T16:35:02.999Z</time></trkpt><trkpt lat="37.52828015975593" lon="14.041301163378858"><ele>448.8333333333333</ele><time>2026-04-26T16:35:03.999Z</time></trkpt><trkpt lat="37.5282725760153" lon="14.041415944668332"><ele>448.66666666666663</ele><time>2026-04-26T16:35:04.999Z</time></trkpt><trkpt lat="37.52826145423874" lon="14.041537316385318"><ele>448.5</ele><time>2026-04-26T16:35:05.999Z</time></trkpt><trkpt lat="37.52824534976529" lon="14.041646386397574"><ele>448.33333333333337</ele><time>2026-04-26T16:35:06.999Z</time></trkpt><trkpt lat="37.52822784124552" lon="14.041747737936104"><ele>448.1666666666667</ele><time>2026-04-26T16:35:07.999Z</time></trkpt><trkpt lat="37.52820455165019" lon="14.041839077750714"><ele>448.0</ele><time>2026-04-26T16:35:09Z</time></trkpt><trkpt lat="37.52817256567138" lon="14.041920635045587"><ele>448.00000000000006</ele><time>2026-04-26T16:35:10Z</time></trkpt><trkpt lat="37.52812954375968" lon="14.041981563554824"><ele>448.0</ele><time>2026-04-26T16:35:11Z</time></trkpt><trkpt lat="37.52808147965445" lon="14.042057831864152"><ele>448.0</ele><time>2026-04-26T16:35:12Z</time></trkpt><trkpt lat="37.528011387051194" lon="14.042106526928457"><ele>448.0</ele><time>2026-04-26T16:35:13Z</time></trkpt><trkpt lat="37.527943534526024" lon="14.042157266940233"><ele>448.00000000000006</ele><time>2026-04-26T16:35:14Z</time></trkpt><trkpt lat="37.52788359841804" lon="14.042212941474416"><ele>448.0</ele><time>2026-04-26T16:35:15Z</time></trkpt><trkpt lat="37.52782917519756" lon="14.042281800665823"><ele>448.83333333333337</ele><time>2026-04-26T16:35:16Z</time></trkpt><trkpt lat="37.52778172026988" lon="14.042366677084983"><ele>449.6666666666667</ele><time>2026-04-26T16:35:17Z</time></trkpt><trkpt lat="37.527731789226436" lon="14.042442146680834"><ele>450.5</ele><time>2026-04-26T16:35:18Z</time></trkpt><trkpt lat="37.527691196717214" lon="14.042527839172761"><ele>451.33333333333337</ele><time>2026-04-26T16:35:19Z</time></trkpt><trkpt lat="37.52765334385234" lon="14.042615327546805"><ele>452.1666666666667</ele><time>2026-04-26T16:35:20Z</time></trkpt><trkpt lat="37.52761673072367" lon="14.042703496793433"><ele>453.0</ele><time>2026-04-26T16:35:21Z</time></trkpt><trkpt lat="37.52758240935355" lon="14.042788350741343"><ele>452.99999999999994</ele><time>2026-04-26T16:35:22Z</time></trkpt><trkpt lat="37.52754752117325" lon="14.042876404398461"><ele>453.0</ele><time>2026-04-26T16:35:23Z</time></trkpt><trkpt lat="37.527514207903195" lon="14.042959075337068"><ele>452.99999999999994</ele><time>2026-04-26T16:35:24Z</time></trkpt><trkpt lat="37.52748057914233" lon="14.04304090832152"><ele>452.99999999999994</ele><time>2026-04-26T16:35:25Z</time></trkpt><trkpt lat="37.52744685179944" lon="14.043122981116321"><ele>453.0</ele><time>2026-04-26T16:35:26Z</time></trkpt><trkpt lat="37.52741301830901" lon="14.043202737855205"><ele>452.99999999999994</ele><time>2026-04-26T16:35:27Z</time></trkpt><trkpt lat="37.52737893392451" lon="14.043282728436914"><ele>452.99999999999994</ele><time>2026-04-26T16:35:28Z</time></trkpt><trkpt lat="37.527343768929754" lon="14.043364662818313"><ele>452.3333333333333</ele><time>2026-04-26T16:35:29Z</time></trkpt><trkpt lat="37.52730779929072" lon="14.04345397667902"><ele>451.66666666666663</ele><time>2026-04-26T16:35:30Z</time></trkpt><trkpt lat="37.52727226144777" lon="14.043542993395388"><ele>451.0</ele><time>2026-04-26T16:35:31Z</time></trkpt><trkpt lat="37.527237673156" lon="14.043633511532676"><ele>450.3333333333333</ele><time>2026-04-26T16:35:32Z</time></trkpt><trkpt lat="37.527204189117796" lon="14.0437241633721"><ele>449.66666666666663</ele><time>2026-04-26T16:35:33Z</time></trkpt><trkpt lat="37.52717279249247" lon="14.04382691183975"><ele>449.0</ele><time>2026-04-26T16:35:34Z</time></trkpt><trkpt lat="37.52715095200469" lon="14.043933225764189"><ele>449.0</ele><time>2026-04-26T16:35:35Z</time></trkpt><trkpt lat="37.527137605122604" lon="14.044047866181248"><ele>449.0</ele><time>2026-04-26T16:35:36Z</time></trkpt><trkpt lat="37.52713359581425" lon="14.044166336290145"><ele>449.0</ele><time>2026-04-26T16:35:37Z</time></trkpt><trkpt lat="37.52713875208761" lon="14.044283260323075"><ele>449.0</ele><time>2026-04-26T16:35:38Z</time></trkpt><trkpt lat="37.52715330372057" lon="14.044399830572868"><ele>449.0</ele><time>2026-04-26T16:35:39Z</time></trkpt><trkpt lat="37.52716928267893" lon="14.04451489116787"><ele>449.0</ele><time>2026-04-26T16:35:40Z</time></trkpt><trkpt lat="37.52718969916131" lon="14.044636526556973"><ele>449.0</ele><time>2026-04-26T16:35:41Z</time></trkpt><trkpt lat="37.52721166151668" lon="14.044760923538481"><ele>449.0</ele><time>2026-04-26T16:35:42Z</time></trkpt><trkpt lat="37.52723543893648" lon="14.044889925636665"><ele>449.0</ele><time>2026-04-26T16:35:43Z</time></trkpt><trkpt lat="37.52726090230994" lon="14.045019358526497"><ele>449.0</ele><time>2026-04-26T16:35:44Z</time></trkpt><trkpt lat="37.52728067205953" lon="14.045151040471984"><ele>448.6</ele><time>2026-04-26T16:35:45Z</time></trkpt><trkpt lat="37.527301411821846" lon="14.045280124480525"><ele>448.2</ele><time>2026-04-26T16:35:46Z</time></trkpt><trkpt lat="37.52732327612408" lon="14.04541228470946"><ele>447.80000000000007</ele><time>2026-04-26T16:35:47Z</time></trkpt><trkpt lat="37.52734848960346" lon="14.045547317772488"><ele>447.40000000000003</ele><time>2026-04-26T16:35:48Z</time></trkpt><trkpt lat="37.527379368634534" lon="14.04568901088602"><ele>447.0</ele><time>2026-04-26T16:35:49Z</time></trkpt><trkpt lat="37.52742656008997" lon="14.045826913862381"><ele>447.0</ele><time>2026-04-26T16:35:50Z</time></trkpt><trkpt lat="37.52749505215528" lon="14.04595037544338"><ele>447.0</ele><time>2026-04-26T16:35:51Z</time></trkpt><trkpt lat="37.52756894970722" lon="14.04606622618639"><ele>447.0</ele><time>2026-04-26T16:35:52Z</time></trkpt><trkpt lat="37.52764556862446" lon="14.046175614364559"><ele>447.0</ele><time>2026-04-26T16:35:53Z</time></trkpt><trkpt lat="37.5277139333602" lon="14.046279229444181"><ele>447.0</ele><time>2026-04-26T16:35:54Z</time></trkpt><trkpt lat="37.527775081591834" lon="14.046388780066863"><ele>447.00000000000006</ele><time>2026-04-26T16:35:55Z</time></trkpt><trkpt lat="37.52782992075475" lon="14.046499987707723"><ele>447.00000000000006</ele><time>2026-04-26T16:35:56Z</time></trkpt><trkpt lat="37.527883964348966" lon="14.046609886748106"><ele>447.0</ele><time>2026-04-26T16:35:57Z</time></trkpt><trkpt lat="37.52793741156464" lon="14.046720582913764"><ele>447.0</ele><time>2026-04-26T16:35:58Z</time></trkpt><trkpt lat="37.5279929013035" lon="14.046829909028549"><ele>446.6</ele><time>2026-04-26T16:35:59Z</time></trkpt><trkpt lat="37.52806310917377" lon="14.046928036163207"><ele>446.20000000000005</ele><time>2026-04-26T16:36:00Z</time></trkpt><trkpt lat="37.528148304956346" lon="14.047008035197226"><ele>445.8</ele><time>2026-04-26T16:36:01Z</time></trkpt><trkpt lat="37.52824725735428" lon="14.047070471439723"><ele>445.4</ele><time>2026-04-26T16:36:02Z</time></trkpt><trkpt lat="37.52834247133179" lon="14.047128603705234"><ele>445.0</ele><time>2026-04-26T16:36:03Z</time></trkpt><trkpt lat="37.52843510808402" lon="14.047181742064332"><ele>445.0</ele><time>2026-04-26T16:36:04Z</time></trkpt><trkpt lat="37.528524458116074" lon="14.047232652660867"><ele>445.0</ele><time>2026-04-26T16:36:05Z</time></trkpt><trkpt lat="37.528613996732965" lon="14.047283670253492"><ele>445.0</ele><time>2026-04-26T16:36:06Z</time></trkpt><trkpt lat="37.528709433068876" lon="14.047338048509454"><ele>445.0</ele><time>2026-04-26T16:36:06.999Z</time></trkpt><trkpt lat="37.52880363968884" lon="14.047391726022353"><ele>445.0</ele><time>2026-04-26T16:36:07.999Z</time></trkpt><trkpt lat="37.52890083923051" lon="14.047447928994828"><ele>442.4</ele><time>2026-04-26T16:36:08.999Z</time></trkpt><trkpt lat="37.52899797288615" lon="14.04750491357702"><ele>439.8</ele><time>2026-04-26T16:36:09.999Z</time></trkpt><trkpt lat="37.529095144455454" lon="14.047565406883837"><ele>437.20000000000005</ele><time>2026-04-26T16:36:10.999Z</time></trkpt><trkpt lat="37.52919157686451" lon="14.047627224473503"><ele>434.6</ele><time>2026-04-26T16:36:11.999Z</time></trkpt><trkpt lat="37.529284734034775" lon="14.047690907185853"><ele>432.0</ele><time>2026-04-26T16:36:12.999Z</time></trkpt><trkpt lat="37.529367604008485" lon="14.04775132919595"><ele>432.0</ele><time>2026-04-26T16:36:13.999Z</time></trkpt><trkpt lat="37.529439020640275" lon="14.047810263514652"><ele>432.0</ele><time>2026-04-26T16:36:14.999Z</time></trkpt><trkpt lat="37.529495432574265" lon="14.047870533557266"><ele>432.0</ele><time>2026-04-26T16:36:15.999Z</time></trkpt><trkpt lat="37.529548950753" lon="14.047932717858355"><ele>432.0</ele><time>2026-04-26T16:36:16.999Z</time></trkpt><trkpt lat="37.52954657303683" lon="14.048033376429268"><ele>432.0</ele><time>2026-04-26T16:36:17.999Z</time></trkpt><trkpt lat="37.5295376651753" lon="14.048127290473623"><ele>432.0</ele><time>2026-04-26T16:36:18.999Z</time></trkpt><trkpt lat="37.52950346296379" lon="14.048210559953256"><ele>431.3333333333333</ele><time>2026-04-26T16:36:19.999Z</time></trkpt><trkpt lat="37.529461330421476" lon="14.048296150589746"><ele>430.66666666666663</ele><time>2026-04-26T16:36:20.999Z</time></trkpt><trkpt lat="37.52941149180379" lon="14.048388278381562"><ele>430.0</ele><time>2026-04-26T16:36:21.999Z</time></trkpt><trkpt lat="37.5293554589153" lon="14.04847909336243"><ele>429.3333333333333</ele><time>2026-04-26T16:36:22.999Z</time></trkpt><trkpt lat="37.52929432385182" lon="14.048549299781557"><ele>428.66666666666663</ele><time>2026-04-26T16:36:23.999Z</time></trkpt><trkpt lat="37.52922769667905" lon="14.048615258465441"><ele>428.0</ele><time>2026-04-26T16:36:24.999Z</time></trkpt><trkpt lat="37.529142272973885" lon="14.048640634086734"><ele>427.99999999999994</ele><time>2026-04-26T16:36:25.999Z</time></trkpt><trkpt lat="37.52905593997686" lon="14.048647078037659"><ele>428.0</ele><time>2026-04-26T16:36:26.999Z</time></trkpt><trkpt lat="37.52897037498383" lon="14.048654826402311"><ele>428.0</ele><time>2026-04-26T16:36:27.999Z</time></trkpt><trkpt lat="37.5288838699919" lon="14.048672802919036"><ele>428.0</ele><time>2026-04-26T16:36:28.999Z</time></trkpt><trkpt lat="37.52879505794815" lon="14.048698566184283"><ele>427.99999999999994</ele><time>2026-04-26T16:36:29.999Z</time></trkpt><trkpt lat="37.528710358790825" lon="14.048733685649111"><ele>428.0</ele><time>2026-04-26T16:36:30.999Z</time></trkpt><trkpt lat="37.528632722843156" lon="14.048781162368787"><ele>428.3333333333333</ele><time>2026-04-26T16:36:31.999Z</time></trkpt><trkpt lat="37.528567837076565" lon="14.048837867710857"><ele>428.66666666666663</ele><time>2026-04-26T16:36:32.999Z</time></trkpt><trkpt lat="37.52851485203749" lon="14.04890945312574"><ele>429.0</ele><time>2026-04-26T16:36:33.999Z</time></trkpt><trkpt lat="37.52845740367457" lon="14.048989753756128"><ele>429.33333333333337</ele><time>2026-04-26T16:36:34.999Z</time></trkpt><trkpt lat="37.52842642675258" lon="14.049100101343088"><ele>429.6666666666667</ele><time>2026-04-26T16:36:35.999Z</time></trkpt><trkpt lat="37.52840314752678" lon="14.04921683024369"><ele>430.0</ele><time>2026-04-26T16:36:36.999Z</time></trkpt><trkpt lat="37.528384892639274" lon="14.049336770902679"><ele>431.00000000000006</ele><time>2026-04-26T16:36:37.999Z</time></trkpt><trkpt lat="37.5283714183005" lon="14.049451523826269"><ele>432.0</ele><time>2026-04-26T16:36:38.999Z</time></trkpt><trkpt lat="37.52836082380574" lon="14.04955933854875"><ele>433.0</ele><time>2026-04-26T16:36:39.999Z</time></trkpt><trkpt lat="37.52835124025313" lon="14.049665408414432"><ele>434.0</ele><time>2026-04-26T16:36:40.999Z</time></trkpt><trkpt lat="37.52834227944048" lon="14.049772548787836"><ele>435.00000000000006</ele><time>2026-04-26T16:36:41.999Z</time></trkpt><trkpt lat="37.52833487027752" lon="14.049882289289068"><ele>436.0</ele><time>2026-04-26T16:36:42.999Z</time></trkpt><trkpt lat="37.52832973685327" lon="14.049980907468397"><ele>437.00000000000006</ele><time>2026-04-26T16:36:43.999Z</time></trkpt><trkpt lat="37.528326338676074" lon="14.050071786920773"><ele>438.0</ele><time>2026-04-26T16:36:44.999Z</time></trkpt><trkpt lat="37.528323122573866" lon="14.05016909957037"><ele>439.0</ele><time>2026-04-26T16:36:45.999Z</time></trkpt><trkpt lat="37.52832137525235" lon="14.050271910170492"><ele>440.0</ele><time>2026-04-26T16:36:46.999Z</time></trkpt><trkpt lat="37.52831961226819" lon="14.050379109521044"><ele>441.00000000000006</ele><time>2026-04-26T16:36:47.999Z</time></trkpt><trkpt lat="37.52831808283468" lon="14.050492843595453"><ele>442.0</ele><time>2026-04-26T16:36:48.999Z</time></trkpt><trkpt lat="37.52833348754249" lon="14.050612156819737"><ele>442.0</ele><time>2026-04-26T16:36:49.999Z</time></trkpt><trkpt lat="37.528317632622226" lon="14.050741388497997"><ele>442.00000000000006</ele><time>2026-04-26T16:36:50.999Z</time></trkpt><trkpt lat="37.528322352057224" lon="14.050871230179565"><ele>442.00000000000006</ele><time>2026-04-26T16:36:51.999Z</time></trkpt><trkpt lat="37.52833799379739" lon="14.051007021265923"><ele>442.0</ele><time>2026-04-26T16:36:52.999Z</time></trkpt><trkpt lat="37.5283618744066" lon="14.051142747829925"><ele>442.0</ele><time>2026-04-26T16:36:53.999Z</time></trkpt><trkpt lat="37.52838615646809" lon="14.051277440036213"><ele>442.8</ele><time>2026-04-26T16:36:54.999Z</time></trkpt><trkpt lat="37.52841216532483" lon="14.051410877547086"><ele>443.6</ele><time>2026-04-26T16:36:55.999Z</time></trkpt><trkpt lat="37.528447130046054" lon="14.051543081711994"><ele>444.40000000000003</ele><time>2026-04-26T16:36:56.999Z</time></trkpt><trkpt lat="37.52849180698734" lon="14.051666076040494"><ele>445.20000000000005</ele><time>2026-04-26T16:36:57.999Z</time></trkpt><trkpt lat="37.528543112929945" lon="14.051783286189124"><ele>446.0</ele><time>2026-04-26T16:36:58.999Z</time></trkpt><trkpt lat="37.52859893081599" lon="14.051896458860458"><ele>446.8</ele><time>2026-04-26T16:36:59.999Z</time></trkpt><trkpt lat="37.52865548279133" lon="14.052009361271287"><ele>447.6</ele><time>2026-04-26T16:37:00.999Z</time></trkpt><trkpt lat="37.52871192369624" lon="14.052123351458926"><ele>448.4</ele><time>2026-04-26T16:37:01.999Z</time></trkpt><trkpt lat="37.52876799767809" lon="14.052239289052793"><ele>449.2</ele><time>2026-04-26T16:37:02.999Z</time></trkpt><trkpt lat="37.52882688764839" lon="14.052358714884962"><ele>450.0</ele><time>2026-04-26T16:37:03.999Z</time></trkpt><trkpt lat="37.52888194818111" lon="14.052469235271138"><ele>451.0</ele><time>2026-04-26T16:37:04.999Z</time></trkpt><trkpt lat="37.52894977485516" lon="14.052559733949453"><ele>452.0</ele><time>2026-04-26T16:37:05.999Z</time></trkpt><trkpt lat="37.52900014723217" lon="14.052650560783333"><ele>453.0</ele><time>2026-04-26T16:37:06.999Z</time></trkpt><trkpt lat="37.52904518050576" lon="14.052750715150607"><ele>454.0</ele><time>2026-04-26T16:37:07.999Z</time></trkpt><trkpt lat="37.529097415193576" lon="14.05282851121971"><ele>455.0</ele><time>2026-04-26T16:37:08.999Z</time></trkpt><trkpt lat="37.52916182894122" lon="14.05288491931432"><ele>456.0</ele><time>2026-04-26T16:37:09.999Z</time></trkpt><trkpt lat="37.52920605323329" lon="14.052953026352695"><ele>456.0</ele><time>2026-04-26T16:37:10.999Z</time></trkpt><trkpt lat="37.52923581178761" lon="14.0530250523991"><ele>456.0</ele><time>2026-04-26T16:37:11.999Z</time></trkpt><trkpt lat="37.52930835646046" lon="14.05313435545764"><ele>456.0</ele><time>2026-04-26T16:37:13.999Z</time></trkpt><trkpt lat="37.52936327110042" lon="14.053217532001952"><ele>456.0</ele><time>2026-04-26T16:37:16Z</time></trkpt><trkpt lat="37.52939200484791" lon="14.05329976867543"><ele>456.0</ele><time>2026-04-26T16:37:19Z</time></trkpt><trkpt lat="37.52932516274441" lon="14.053361238743053"><ele>456.0</ele><time>2026-04-26T16:37:20Z</time></trkpt><trkpt lat="37.52921702137552" lon="14.05341113799631"><ele>455.6666666666667</ele><time>2026-04-26T16:37:22Z</time></trkpt><trkpt lat="37.52915416299805" lon="14.053449409404884"><ele>455.33333333333337</ele><time>2026-04-26T16:37:23Z</time></trkpt><trkpt lat="37.52908808276194" lon="14.053491296157665"><ele>455.0</ele><time>2026-04-26T16:37:24Z</time></trkpt><trkpt lat="37.52901296725111" lon="14.053536390898863"><ele>454.6666666666667</ele><time>2026-04-26T16:37:25Z</time></trkpt><trkpt lat="37.52893905414956" lon="14.053581801775415"><ele>454.33333333333337</ele><time>2026-04-26T16:37:26Z</time></trkpt><trkpt lat="37.5288649242862" lon="14.053630050932172"><ele>454.0</ele><time>2026-04-26T16:37:27Z</time></trkpt><trkpt lat="37.52878797923487" lon="14.053677495728465"><ele>454.50000000000006</ele><time>2026-04-26T16:37:28Z</time></trkpt><trkpt lat="37.52871100459078" lon="14.053730716974902"><ele>455.0</ele><time>2026-04-26T16:37:29Z</time></trkpt><trkpt lat="37.52863713369105" lon="14.053787652214604"><ele>455.5</ele><time>2026-04-26T16:37:30Z</time></trkpt><trkpt lat="37.52856481591562" lon="14.053853684858336"><ele>456.0</ele><time>2026-04-26T16:37:31Z</time></trkpt><trkpt lat="37.52849378634372" lon="14.053917288620621"><ele>456.50000000000006</ele><time>2026-04-26T16:37:32Z</time></trkpt><trkpt lat="37.528421109312816" lon="14.053993569930975"><ele>457.0</ele><time>2026-04-26T16:37:33Z</time></trkpt><trkpt lat="37.52834971502109" lon="14.054063405912"><ele>458.0</ele><time>2026-04-26T16:37:34Z</time></trkpt><trkpt lat="37.52827144898449" lon="14.054136786259123"><ele>459.00000000000006</ele><time>2026-04-26T16:37:35Z</time></trkpt><trkpt lat="37.528191657658404" lon="14.05421396076092"><ele>460.00000000000006</ele><time>2026-04-26T16:37:36Z</time></trkpt><trkpt lat="37.5281055423404" lon="14.054300699711424"><ele>461.0</ele><time>2026-04-26T16:37:37Z</time></trkpt><trkpt lat="37.52801374451151" lon="14.054374718151529"><ele>462.0</ele><time>2026-04-26T16:37:38Z</time></trkpt><trkpt lat="37.527919421054946" lon="14.054435029686877"><ele>463.20000000000005</ele><time>2026-04-26T16:37:39Z</time></trkpt><trkpt lat="37.52781768820817" lon="14.05448229417111"><ele>464.40000000000003</ele><time>2026-04-26T16:37:40Z</time></trkpt><trkpt lat="37.527710199464074" lon="14.054500945864827"><ele>465.59999999999997</ele><time>2026-04-26T16:37:41Z</time></trkpt><trkpt lat="37.5276001764359" lon="14.054502081970695"><ele>466.79999999999995</ele><time>2026-04-26T16:37:42Z</time></trkpt><trkpt lat="37.527486643017305" lon="14.054489982886954"><ele>468.0</ele><time>2026-04-26T16:37:43Z</time></trkpt><trkpt lat="37.52737898973082" lon="14.05447692640602"><ele>468.0</ele><time>2026-04-26T16:37:44Z</time></trkpt><trkpt lat="37.527288586842694" lon="14.054457013903745"><ele>467.99999999999994</ele><time>2026-04-26T16:37:45Z</time></trkpt><trkpt lat="37.52719993717786" lon="14.054428685089958"><ele>467.99999999999994</ele><time>2026-04-26T16:37:46Z</time></trkpt><trkpt lat="37.52712526899807" lon="14.054381814268167"><ele>468.0</ele><time>2026-04-26T16:37:47Z</time></trkpt><trkpt lat="37.527055467882256" lon="14.054307754776866"><ele>468.0</ele><time>2026-04-26T16:37:48Z</time></trkpt><trkpt lat="37.52701048094848" lon="14.054196786614954"><ele>469.0</ele><time>2026-04-26T16:37:49Z</time></trkpt><trkpt lat="37.52697996459484" lon="14.054072151259197"><ele>469.99999999999994</ele><time>2026-04-26T16:37:50Z</time></trkpt><trkpt lat="37.526966973002104" lon="14.053943879035083"><ele>470.99999999999994</ele><time>2026-04-26T16:37:51Z</time></trkpt><trkpt lat="37.52694400185754" lon="14.053832314872832"><ele>472.0</ele><time>2026-04-26T16:37:52Z</time></trkpt><trkpt lat="37.52692233501527" lon="14.053733091385745"><ele>473.0</ele><time>2026-04-26T16:37:53Z</time></trkpt><trkpt lat="37.52689292566436" lon="14.053648551895412"><ele>472.99999999999994</ele><time>2026-04-26T16:37:54Z</time></trkpt><trkpt lat="37.52684491002268" lon="14.053580017324201"><ele>473.0</ele><time>2026-04-26T16:37:55Z</time></trkpt><trkpt lat="37.52677556352693" lon="14.053541436257346"><ele>473.0</ele><time>2026-04-26T16:37:56Z</time></trkpt><trkpt lat="37.526692451231504" lon="14.053556546460317"><ele>473.0</ele><time>2026-04-26T16:37:57Z</time></trkpt><trkpt lat="37.52660851395063" lon="14.053616878492456"><ele>472.99999999999994</ele><time>2026-04-26T16:37:58Z</time></trkpt><trkpt lat="37.52652863093386" lon="14.053703884502234"><ele>473.0</ele><time>2026-04-26T16:37:59Z</time></trkpt><trkpt lat="37.52644280508033" lon="14.053770659310306"><ele>473.0</ele><time>2026-04-26T16:38:00Z</time></trkpt><trkpt lat="37.52637568369003" lon="14.053862608772096"><ele>472.99999999999994</ele><time>2026-04-26T16:38:01Z</time></trkpt><trkpt lat="37.52630029602398" lon="14.0539404082991"><ele>472.99999999999994</ele><time>2026-04-26T16:38:02Z</time></trkpt><trkpt lat="37.52622660908497" lon="14.054014189198607"><ele>473.0</ele><time>2026-04-26T16:38:03Z</time></trkpt><trkpt lat="37.52614901525178" lon="14.054079932401589"><ele>473.0</ele><time>2026-04-26T16:38:04Z</time></trkpt><trkpt lat="37.52605509902346" lon="14.05412647856044"><ele>475.4</ele><time>2026-04-26T16:38:05Z</time></trkpt><trkpt lat="37.52596066410418" lon="14.054156784775751"><ele>477.79999999999995</ele><time>2026-04-26T16:38:06Z</time></trkpt><trkpt lat="37.525859391304536" lon="14.054166025153819"><ele>480.2</ele><time>2026-04-26T16:38:06.999Z</time></trkpt><trkpt lat="37.52575651324958" lon="14.054163039855784"><ele>482.6</ele><time>2026-04-26T16:38:07.999Z</time></trkpt><trkpt lat="37.52565051961803" lon="14.054157034496782"><ele>485.0</ele><time>2026-04-26T16:38:08.999Z</time></trkpt><trkpt lat="37.52554342640913" lon="14.054153063812217"><ele>485.0</ele><time>2026-04-26T16:38:09.999Z</time></trkpt><trkpt lat="37.52543066767415" lon="14.054151527627496"><ele>485.0</ele><time>2026-04-26T16:38:10.999Z</time></trkpt><trkpt lat="37.52531345118153" lon="14.054150288713249"><ele>485.0</ele><time>2026-04-26T16:38:11.999Z</time></trkpt><trkpt lat="37.525194560460164" lon="14.054158276211371"><ele>485.0</ele><time>2026-04-26T16:38:12.999Z</time></trkpt><trkpt lat="37.52508000046416" lon="14.054165154030613"><ele>486.2</ele><time>2026-04-26T16:38:13.999Z</time></trkpt><trkpt lat="37.52497533082714" lon="14.054165109233937"><ele>487.4</ele><time>2026-04-26T16:38:14.999Z</time></trkpt><trkpt lat="37.52487538244183" lon="14.054166363265633"><ele>488.6</ele><time>2026-04-26T16:38:15.999Z</time></trkpt><trkpt lat="37.52478228543823" lon="14.054175787159458"><ele>489.8</ele><time>2026-04-26T16:38:16.999Z</time></trkpt><trkpt lat="37.524695709043115" lon="14.054204705877863"><ele>491.0</ele><time>2026-04-26T16:38:17.999Z</time></trkpt><trkpt lat="37.52461704505316" lon="14.054272786292461"><ele>490.8</ele><time>2026-04-26T16:38:18.999Z</time></trkpt><trkpt lat="37.52456008385384" lon="14.054381559650972"><ele>490.6</ele><time>2026-04-26T16:38:19.999Z</time></trkpt><trkpt lat="37.52452908233145" lon="14.054517097240039"><ele>490.4</ele><time>2026-04-26T16:38:20.999Z</time></trkpt><trkpt lat="37.524493656584546" lon="14.054652554645717"><ele>490.2</ele><time>2026-04-26T16:38:21.999Z</time></trkpt><trkpt lat="37.52447847626042" lon="14.054795981037458"><ele>490.0</ele><time>2026-04-26T16:38:22.999Z</time></trkpt><trkpt lat="37.52446796956463" lon="14.054934266422393"><ele>490.0</ele><time>2026-04-26T16:38:23.999Z</time></trkpt><trkpt lat="37.52445812995982" lon="14.055063771785939"><ele>490.0</ele><time>2026-04-26T16:38:24.999Z</time></trkpt><trkpt lat="37.52444538896839" lon="14.055187692985179"><ele>490.0</ele><time>2026-04-26T16:38:25.999Z</time></trkpt><trkpt lat="37.52442517571565" lon="14.05532084775526"><ele>490.0</ele><time>2026-04-26T16:38:26.999Z</time></trkpt><trkpt lat="37.52441766967999" lon="14.055461207703237"><ele>490.0</ele><time>2026-04-26T16:38:27.999Z</time></trkpt><trkpt lat="37.524373913279575" lon="14.055593709269967"><ele>490.0</ele><time>2026-04-26T16:38:28.999Z</time></trkpt><trkpt lat="37.52432422473481" lon="14.055730878944178"><ele>490.0</ele><time>2026-04-26T16:38:29.999Z</time></trkpt><trkpt lat="37.52427235823909" lon="14.055871435066116"><ele>490.0</ele><time>2026-04-26T16:38:30.999Z</time></trkpt><trkpt lat="37.52421491608032" lon="14.056018346371811"><ele>490.0</ele><time>2026-04-26T16:38:31.999Z</time></trkpt><trkpt lat="37.52415432915604" lon="14.056171993186634"><ele>491.0</ele><time>2026-04-26T16:38:32.999Z</time></trkpt><trkpt lat="37.52409827792877" lon="14.056321066905253"><ele>492.0</ele><time>2026-04-26T16:38:33.999Z</time></trkpt><trkpt lat="37.524043792383644" lon="14.05647308480898"><ele>493.0</ele><time>2026-04-26T16:38:34.999Z</time></trkpt><trkpt lat="37.52398723946996" lon="14.056629282585247"><ele>494.0</ele><time>2026-04-26T16:38:35.999Z</time></trkpt><trkpt lat="37.5239338699896" lon="14.056784603621706"><ele>494.5</ele><time>2026-04-26T16:38:36.999Z</time></trkpt><trkpt lat="37.523881670894674" lon="14.05692217938586"><ele>495.0</ele><time>2026-04-26T16:38:37.999Z</time></trkpt><trkpt lat="37.523832903077036" lon="14.057048586250842"><ele>495.5</ele><time>2026-04-26T16:38:38.999Z</time></trkpt><trkpt lat="37.523780221015265" lon="14.057171186024693"><ele>496.0</ele><time>2026-04-26T16:38:39.999Z</time></trkpt><trkpt lat="37.523722065247426" lon="14.057283882679652"><ele>496.8</ele><time>2026-04-26T16:38:40.999Z</time></trkpt><trkpt lat="37.52365810923769" lon="14.057389831916392"><ele>497.6</ele><time>2026-04-26T16:38:41.999Z</time></trkpt><trkpt lat="37.52358529968117" lon="14.057488969030905"><ele>498.4</ele><time>2026-04-26T16:38:42.999Z</time></trkpt><trkpt lat="37.5235056862307" lon="14.057577903254092"><ele>499.2</ele><time>2026-04-26T16:38:43.999Z</time></trkpt><trkpt lat="37.52343480488569" lon="14.05765019233279"><ele>500.0</ele><time>2026-04-26T16:38:44.999Z</time></trkpt><trkpt lat="37.523362616087695" lon="14.057720566803146"><ele>500.16666666666663</ele><time>2026-04-26T16:38:45.999Z</time></trkpt><trkpt lat="37.52329253838964" lon="14.057783369747373"><ele>500.3333333333333</ele><time>2026-04-26T16:38:46.999Z</time></trkpt><trkpt lat="37.52322805080229" lon="14.057845528491802"><ele>500.5</ele><time>2026-04-26T16:38:47.999Z</time></trkpt><trkpt lat="37.5231720756368" lon="14.057903754116438"><ele>500.66666666666663</ele><time>2026-04-26T16:38:48.999Z</time></trkpt><trkpt lat="37.52308902054984" lon="14.057963738217843"><ele>500.8333333333333</ele><time>2026-04-26T16:38:50.999Z</time></trkpt><trkpt lat="37.52298302508957" lon="14.057954624622004"><ele>501.0</ele><time>2026-04-26T16:38:52.999Z</time></trkpt><trkpt lat="37.52291887155035" lon="14.057941866224423"><ele>501.8</ele><time>2026-04-26T16:38:53.999Z</time></trkpt><trkpt lat="37.52281674084114" lon="14.057985973747327"><ele>502.6</ele><time>2026-04-26T16:38:55.999Z</time></trkpt><trkpt lat="37.522728077903096" lon="14.058052705282234"><ele>503.4</ele><time>2026-04-26T16:38:57.999Z</time></trkpt><trkpt lat="37.522646767809995" lon="14.058110658230085"><ele>504.2</ele><time>2026-04-26T16:38:59.999Z</time></trkpt><trkpt lat="37.522543915345736" lon="14.058044256295565"><ele>505.0</ele><time>2026-04-26T16:39:00.999Z</time></trkpt><trkpt lat="37.52248187679305" lon="14.057996896811641"><ele>505.00000000000006</ele><time>2026-04-26T16:39:01.999Z</time></trkpt><trkpt lat="37.5224189561238" lon="14.057950340584679"><ele>505.0</ele><time>2026-04-26T16:39:02.999Z</time></trkpt><trkpt lat="37.522350527303296" lon="14.05789754691394"><ele>505.0</ele><time>2026-04-26T16:39:03.999Z</time></trkpt><trkpt lat="37.52227543624345" lon="14.057849794066433"><ele>505.0</ele><time>2026-04-26T16:39:04.999Z</time></trkpt><trkpt lat="37.522201490530676" lon="14.057807877514128"><ele>505.00000000000006</ele><time>2026-04-26T16:39:05.999Z</time></trkpt><trkpt lat="37.52213092444435" lon="14.05777979491345"><ele>505.0</ele><time>2026-04-26T16:39:06.999Z</time></trkpt><trkpt lat="37.522053407137555" lon="14.05776286976976"><ele>505.2</ele><time>2026-04-26T16:39:07.999Z</time></trkpt><trkpt lat="37.52197098546913" lon="14.057753291606266"><ele>505.4</ele><time>2026-04-26T16:39:08.999Z</time></trkpt><trkpt lat="37.521883665195375" lon="14.057737672751504"><ele>505.6</ele><time>2026-04-26T16:39:09.999Z</time></trkpt><trkpt lat="37.52178636381559" lon="14.057755325215998"><ele>505.8</ele><time>2026-04-26T16:39:10.999Z</time></trkpt><trkpt lat="37.52168827984334" lon="14.057790655029015"><ele>506.0</ele><time>2026-04-26T16:39:11.999Z</time></trkpt><trkpt lat="37.52159103118162" lon="14.057840962480789"><ele>506.0</ele><time>2026-04-26T16:39:12.999Z</time></trkpt><trkpt lat="37.521494521649984" lon="14.057906070806967"><ele>506.0</ele><time>2026-04-26T16:39:13.999Z</time></trkpt><trkpt lat="37.52139131322522" lon="14.057993376984765"><ele>506.0</ele><time>2026-04-26T16:39:14.999Z</time></trkpt><trkpt lat="37.52128581140566" lon="14.05808519201931"><ele>506.0</ele><time>2026-04-26T16:39:15.999Z</time></trkpt><trkpt lat="37.52117507660253" lon="14.0581848403403"><ele>504.3333333333333</ele><time>2026-04-26T16:39:16.999Z</time></trkpt><trkpt lat="37.52105220809685" lon="14.058295165813062"><ele>502.66666666666663</ele><time>2026-04-26T16:39:17.999Z</time></trkpt><trkpt lat="37.52093104692626" lon="14.058371316077363"><ele>501.0</ele><time>2026-04-26T16:39:18.999Z</time></trkpt><trkpt lat="37.52086487481802" lon="14.058587870306685"><ele>501.0</ele><time>2026-04-26T16:39:19.999Z</time></trkpt><trkpt lat="37.520821851292126" lon="14.05874932359169"><ele>501.0</ele><time>2026-04-26T16:39:21Z</time></trkpt><trkpt lat="37.52075698014544" lon="14.058895894906303"><ele>501.0</ele><time>2026-04-26T16:39:22Z</time></trkpt><trkpt lat="37.520678815613955" lon="14.059043092685059"><ele>501.0</ele><time>2026-04-26T16:39:23Z</time></trkpt><trkpt lat="37.52058460522103" lon="14.059182363226341"><ele>501.33333333333337</ele><time>2026-04-26T16:39:24Z</time></trkpt><trkpt lat="37.5204806569803" lon="14.05931817278506"><ele>501.6666666666667</ele><time>2026-04-26T16:39:25Z</time></trkpt><trkpt lat="37.520372915187814" lon="14.059453646859904"><ele>502.0</ele><time>2026-04-26T16:39:26Z</time></trkpt><trkpt lat="37.52026472315775" lon="14.059589753934498"><ele>504.6666666666667</ele><time>2026-04-26T16:39:27Z</time></trkpt><trkpt lat="37.52015134097227" lon="14.059718395782108"><ele>507.33333333333337</ele><time>2026-04-26T16:39:28Z</time></trkpt><trkpt lat="37.52003031643919" lon="14.059833927422813"><ele>510.0</ele><time>2026-04-26T16:39:29Z</time></trkpt><trkpt lat="37.51990356291082" lon="14.059940626274283"><ele>509.75</ele><time>2026-04-26T16:39:30Z</time></trkpt><trkpt lat="37.51978140545846" lon="14.06004678248065"><ele>509.5</ele><time>2026-04-26T16:39:31Z</time></trkpt><trkpt lat="37.51967441102102" lon="14.06015545120401"><ele>509.25</ele><time>2026-04-26T16:39:32Z</time></trkpt><trkpt lat="37.51958171354794" lon="14.060274985924018"><ele>509.0</ele><time>2026-04-26T16:39:33Z</time></trkpt><trkpt lat="37.51950768045713" lon="14.060405054586967"><ele>511.0</ele><time>2026-04-26T16:39:34Z</time></trkpt><trkpt lat="37.51945009704449" lon="14.060538081059677"><ele>513.0</ele><time>2026-04-26T16:39:35Z</time></trkpt><trkpt lat="37.51939745671404" lon="14.060675446688577"><ele>515.0</ele><time>2026-04-26T16:39:36Z</time></trkpt><trkpt lat="37.51933424170428" lon="14.060786588916647"><ele>517.0</ele><time>2026-04-26T16:39:37Z</time></trkpt><trkpt lat="37.5192549319708" lon="14.060860282603135"><ele>519.0</ele><time>2026-04-26T16:39:38Z</time></trkpt><trkpt lat="37.51915107658119" lon="14.060898238158964"><ele>519.0</ele><time>2026-04-26T16:39:39Z</time></trkpt><trkpt lat="37.51904500777151" lon="14.060895241960106"><ele>519.0</ele><time>2026-04-26T16:39:40Z</time></trkpt><trkpt lat="37.51895564396322" lon="14.060854929695275"><ele>519.0</ele><time>2026-04-26T16:39:41Z</time></trkpt><trkpt lat="37.51888416052689" lon="14.060766226267022"><ele>519.0</ele><time>2026-04-26T16:39:42Z</time></trkpt><trkpt lat="37.51883760177607" lon="14.060655906548623"><ele>519.0</ele><time>2026-04-26T16:39:43Z</time></trkpt><trkpt lat="37.518821274948465" lon="14.060533064902545"><ele>519.0</ele><time>2026-04-26T16:39:44Z</time></trkpt><trkpt lat="37.518820683280225" lon="14.060405155445807"><ele>519.0</ele><time>2026-04-26T16:39:45Z</time></trkpt><trkpt lat="37.51883058937934" lon="14.060261411985708"><ele>519.0</ele><time>2026-04-26T16:39:46Z</time></trkpt><trkpt lat="37.518841220825145" lon="14.06011143494794"><ele>519.0</ele><time>2026-04-26T16:39:47Z</time></trkpt><trkpt lat="37.51885223003941" lon="14.059956781652952"><ele>519.75</ele><time>2026-04-26T16:39:48Z</time></trkpt><trkpt lat="37.51886407802596" lon="14.059793551873513"><ele>520.5</ele><time>2026-04-26T16:39:49Z</time></trkpt><trkpt lat="37.51887585344669" lon="14.05963189922917"><ele>521.25</ele><time>2026-04-26T16:39:50Z</time></trkpt><trkpt lat="37.51888518685853" lon="14.059488930155313"><ele>522.0</ele><time>2026-04-26T16:39:51Z</time></trkpt><trkpt lat="37.51888984943377" lon="14.059359233475519"><ele>522.0</ele><time>2026-04-26T16:39:52Z</time></trkpt><trkpt lat="37.518878515171075" lon="14.059229549513551"><ele>522.0</ele><time>2026-04-26T16:39:53Z</time></trkpt><trkpt lat="37.51884851900282" lon="14.05910180562021"><ele>522.0</ele><time>2026-04-26T16:39:54Z</time></trkpt><trkpt lat="37.51880218124722" lon="14.058976040077258"><ele>522.0</ele><time>2026-04-26T16:39:55Z</time></trkpt><trkpt lat="37.51875411737072" lon="14.05884952772348"><ele>522.0</ele><time>2026-04-26T16:39:56Z</time></trkpt><trkpt lat="37.51870086096353" lon="14.058721774218942"><ele>523.2</ele><time>2026-04-26T16:39:57Z</time></trkpt><trkpt lat="37.51865049642748" lon="14.058588271191873"><ele>524.4000000000001</ele><time>2026-04-26T16:39:58Z</time></trkpt><trkpt lat="37.518593127172466" lon="14.058453656745383"><ele>525.5999999999999</ele><time>2026-04-26T16:39:59Z</time></trkpt><trkpt lat="37.51853961168543" lon="14.0583378199949"><ele>526.8</ele><time>2026-04-26T16:40:00Z</time></trkpt><trkpt lat="37.51848317089867" lon="14.058239208314415"><ele>528.0</ele><time>2026-04-26T16:40:01Z</time></trkpt><trkpt lat="37.51840537176197" lon="14.05816013463934"><ele>528.0</ele><time>2026-04-26T16:40:02Z</time></trkpt><trkpt lat="37.51830955003423" lon="14.058111706619904"><ele>528.0</ele><time>2026-04-26T16:40:03Z</time></trkpt><trkpt lat="37.51820222778894" lon="14.058094446209344"><ele>528.0</ele><time>2026-04-26T16:40:04Z</time></trkpt><trkpt lat="37.51809116423077" lon="14.058099343767674"><ele>528.0</ele><time>2026-04-26T16:40:05Z</time></trkpt><trkpt lat="37.517980153139995" lon="14.058121530623445"><ele>528.0</ele><time>2026-04-26T16:40:06Z</time></trkpt><trkpt lat="37.51786588337165" lon="14.058137008098265"><ele>531.25</ele><time>2026-04-26T16:40:07Z</time></trkpt><trkpt lat="37.51774651517261" lon="14.058146379147887"><ele>534.5</ele><time>2026-04-26T16:40:08Z</time></trkpt><trkpt lat="37.517624930280974" lon="14.058161471972888"><ele>537.75</ele><time>2026-04-26T16:40:09Z</time></trkpt><trkpt lat="37.51749427217032" lon="14.058182101331967"><ele>541.0</ele><time>2026-04-26T16:40:10Z</time></trkpt><trkpt lat="37.51735506730499" lon="14.058203124092413"><ele>541.0</ele><time>2026-04-26T16:40:11Z</time></trkpt><trkpt lat="37.51721817596278" lon="14.05822227631491"><ele>541.0</ele><time>2026-04-26T16:40:12Z</time></trkpt><trkpt lat="37.51708105879677" lon="14.05822929180722"><ele>541.0</ele><time>2026-04-26T16:40:13Z</time></trkpt><trkpt lat="37.516959040848434" lon="14.058222732689615"><ele>541.0</ele><time>2026-04-26T16:40:14Z</time></trkpt><trkpt lat="37.51684823834133" lon="14.058202060107552"><ele>542.4</ele><time>2026-04-26T16:40:15Z</time></trkpt><trkpt lat="37.51674424022074" lon="14.058165196244344"><ele>543.8</ele><time>2026-04-26T16:40:16Z</time></trkpt><trkpt lat="37.51665322623152" lon="14.05809273312898"><ele>545.1999999999999</ele><time>2026-04-26T16:40:17Z</time></trkpt><trkpt lat="37.51657330744566" lon="14.057992813603496"><ele>546.6</ele><time>2026-04-26T16:40:18Z</time></trkpt><trkpt lat="37.51651561874873" lon="14.05787453475036"><ele>548.0</ele><time>2026-04-26T16:40:19Z</time></trkpt><trkpt lat="37.516477136278326" lon="14.057738245573551"><ele>548.0</ele><time>2026-04-26T16:40:19.999Z</time></trkpt><trkpt lat="37.5164503323118" lon="14.057596650758407"><ele>548.0</ele><time>2026-04-26T16:40:20.999Z</time></trkpt><trkpt lat="37.51642758282019" lon="14.057449649397753"><ele>548.0</ele><time>2026-04-26T16:40:21.999Z</time></trkpt><trkpt lat="37.51640578534861" lon="14.057300452630932"><ele>548.0</ele><time>2026-04-26T16:40:22.999Z</time></trkpt><trkpt lat="37.5163831853025" lon="14.057152033449977"><ele>548.6</ele><time>2026-04-26T16:40:23.999Z</time></trkpt><trkpt lat="37.51635531880186" lon="14.05701586270266"><ele>549.1999999999999</ele><time>2026-04-26T16:40:24.999Z</time></trkpt><trkpt lat="37.51632229730478" lon="14.056896078426472"><ele>549.8</ele><time>2026-04-26T16:40:25.999Z</time></trkpt><trkpt lat="37.5162745409431" lon="14.056789005431511"><ele>550.4</ele><time>2026-04-26T16:40:26.999Z</time></trkpt><trkpt lat="37.51621146722137" lon="14.056703179019712"><ele>551.0</ele><time>2026-04-26T16:40:27.999Z</time></trkpt><trkpt lat="37.516134547464915" lon="14.056635604194959"><ele>550.6</ele><time>2026-04-26T16:40:28.999Z</time></trkpt><trkpt lat="37.51604445569954" lon="14.056604461783632"><ele>550.2</ele><time>2026-04-26T16:40:29.999Z</time></trkpt><trkpt lat="37.515952485079865" lon="14.05661104759537"><ele>549.8</ele><time>2026-04-26T16:40:30.999Z</time></trkpt><trkpt lat="37.51586502226105" lon="14.05665749868682"><ele>549.4</ele><time>2026-04-26T16:40:31.999Z</time></trkpt><trkpt lat="37.515780257061415" lon="14.056714230080066"><ele>549.0</ele><time>2026-04-26T16:40:32.999Z</time></trkpt><trkpt lat="37.51572125922941" lon="14.05681045472187"><ele>550.5</ele><time>2026-04-26T16:40:33.999Z</time></trkpt><trkpt lat="37.515672243352554" lon="14.056933606619413"><ele>552.0</ele><time>2026-04-26T16:40:34.999Z</time></trkpt><trkpt lat="37.51563108776102" lon="14.057059637150855"><ele>553.5</ele><time>2026-04-26T16:40:35.999Z</time></trkpt><trkpt lat="37.51558760093313" lon="14.057194437895257"><ele>555.0</ele><time>2026-04-26T16:40:36.999Z</time></trkpt><trkpt lat="37.51554180352276" lon="14.057336400960947"><ele>556.0</ele><time>2026-04-26T16:40:37.999Z</time></trkpt><trkpt lat="37.515492528067824" lon="14.057489145358389"><ele>557.0</ele><time>2026-04-26T16:40:38.999Z</time></trkpt><trkpt lat="37.515441719466374" lon="14.057642943351777"><ele>558.0</ele><time>2026-04-26T16:40:39.999Z</time></trkpt><trkpt lat="37.515386371969676" lon="14.057802547086085"><ele>559.0</ele><time>2026-04-26T16:40:40.999Z</time></trkpt><trkpt lat="37.515329828324134" lon="14.057954710607893"><ele>559.25</ele><time>2026-04-26T16:40:41.999Z</time></trkpt><trkpt lat="37.51527789011641" lon="14.058112408265403"><ele>559.5</ele><time>2026-04-26T16:40:42.999Z</time></trkpt><trkpt lat="37.51521624205697" lon="14.05826180462137"><ele>559.75</ele><time>2026-04-26T16:40:43.999Z</time></trkpt><trkpt lat="37.515136253245" lon="14.058398854787454"><ele>560.0</ele><time>2026-04-26T16:40:44.999Z</time></trkpt><trkpt lat="37.51504772486893" lon="14.05852873707038"><ele>560.0</ele><time>2026-04-26T16:40:45.999Z</time></trkpt><trkpt lat="37.5149542858293" lon="14.058655669191591"><ele>560.0</ele><time>2026-04-26T16:40:46.999Z</time></trkpt><trkpt lat="37.514860982675565" lon="14.058783869266492"><ele>560.0</ele><time>2026-04-26T16:40:47.999Z</time></trkpt><trkpt lat="37.51477104857648" lon="14.058917941562525"><ele>560.0</ele><time>2026-04-26T16:40:48.999Z</time></trkpt><trkpt lat="37.514677413232164" lon="14.059050109070657"><ele>561.5</ele><time>2026-04-26T16:40:49.999Z</time></trkpt><trkpt lat="37.51458084115799" lon="14.059176300011261"><ele>563.0</ele><time>2026-04-26T16:40:50.999Z</time></trkpt><trkpt lat="37.5144793499487" lon="14.05929830285158"><ele>564.5</ele><time>2026-04-26T16:40:51.999Z</time></trkpt><trkpt lat="37.514371118562075" lon="14.05941329708926"><ele>566.0</ele><time>2026-04-26T16:40:52.999Z</time></trkpt><trkpt lat="37.51425007663677" lon="14.059507953794666"><ele>566.0</ele><time>2026-04-26T16:40:53.999Z</time></trkpt><trkpt lat="37.51411856365524" lon="14.059579629577303"><ele>566.0</ele><time>2026-04-26T16:40:54.999Z</time></trkpt><trkpt lat="37.513982009306446" lon="14.059632660208843"><ele>566.0</ele><time>2026-04-26T16:40:55.999Z</time></trkpt><trkpt lat="37.51384791644097" lon="14.059692941713319"><ele>566.0</ele><time>2026-04-26T16:40:56.999Z</time></trkpt><trkpt lat="37.51372705262313" lon="14.059775275794474"><ele>564.5</ele><time>2026-04-26T16:40:57.999Z</time></trkpt><trkpt lat="37.513620893874716" lon="14.059888558329007"><ele>563.0</ele><time>2026-04-26T16:40:58.999Z</time></trkpt><trkpt lat="37.51352381170052" lon="14.060017322096751"><ele>561.5</ele><time>2026-04-26T16:40:59.999Z</time></trkpt><trkpt lat="37.51343162386588" lon="14.06015026210161"><ele>560.0</ele><time>2026-04-26T16:41:00.999Z</time></trkpt><trkpt lat="37.51333805912662" lon="14.060268491403379"><ele>563.75</ele><time>2026-04-26T16:41:01.999Z</time></trkpt><trkpt lat="37.51324052420109" lon="14.060374507497796"><ele>567.5</ele><time>2026-04-26T16:41:02.999Z</time></trkpt><trkpt lat="37.513140680689006" lon="14.060478189427988"><ele>571.25</ele><time>2026-04-26T16:41:03.999Z</time></trkpt><trkpt lat="37.51304345198208" lon="14.060578968045679"><ele>575.0</ele><time>2026-04-26T16:41:04.999Z</time></trkpt><trkpt lat="37.51294368200331" lon="14.060679833230964"><ele>575.0</ele><time>2026-04-26T16:41:05.999Z</time></trkpt><trkpt lat="37.51285088997184" lon="14.060765690607546"><ele>575.0</ele><time>2026-04-26T16:41:06.999Z</time></trkpt><trkpt lat="37.512764724057504" lon="14.06084181183792"><ele>575.0</ele><time>2026-04-26T16:41:07.999Z</time></trkpt><trkpt lat="37.51265899330309" lon="14.060904036119673"><ele>575.0</ele><time>2026-04-26T16:41:08.999Z</time></trkpt><trkpt lat="37.51254156881678" lon="14.060929781306035"><ele>575.0</ele><time>2026-04-26T16:41:09.999Z</time></trkpt><trkpt lat="37.512424418946935" lon="14.060920550571147"><ele>575.0</ele><time>2026-04-26T16:41:10.999Z</time></trkpt><trkpt lat="37.512311882569996" lon="14.060891782906527"><ele>575.0</ele><time>2026-04-26T16:41:11.999Z</time></trkpt><trkpt lat="37.5122035446589" lon="14.060832000150823"><ele>575.0</ele><time>2026-04-26T16:41:12.999Z</time></trkpt><trkpt lat="37.51210125045862" lon="14.060743850843012"><ele>578.5</ele><time>2026-04-26T16:41:13.999Z</time></trkpt><trkpt lat="37.51200086242948" lon="14.060645712545162"><ele>582.0</ele><time>2026-04-26T16:41:14.999Z</time></trkpt><trkpt lat="37.511903004761415" lon="14.060538514857766"><ele>585.5</ele><time>2026-04-26T16:41:15.999Z</time></trkpt><trkpt lat="37.51180532881065" lon="14.060421570208911"><ele>589.0</ele><time>2026-04-26T16:41:16.999Z</time></trkpt><trkpt lat="37.51170384582048" lon="14.060302665061005"><ele>589.0</ele><time>2026-04-26T16:41:17.999Z</time></trkpt><trkpt lat="37.511588525766456" lon="14.060202555903759"><ele>589.0</ele><time>2026-04-26T16:41:18.999Z</time></trkpt><trkpt lat="37.5114554464633" lon="14.06013651438459"><ele>589.0</ele><time>2026-04-26T16:41:19.999Z</time></trkpt><trkpt lat="37.51132170379264" lon="14.06009254516959"><ele>589.0</ele><time>2026-04-26T16:41:20.999Z</time></trkpt><trkpt lat="37.51120599668255" lon="14.060063098363154"><ele>589.4</ele><time>2026-04-26T16:41:21.999Z</time></trkpt><trkpt lat="37.511106092872815" lon="14.060024176547408"><ele>589.8</ele><time>2026-04-26T16:41:22.999Z</time></trkpt><trkpt lat="37.51100523649983" lon="14.059980114573227"><ele>590.2</ele><time>2026-04-26T16:41:23.999Z</time></trkpt><trkpt lat="37.51090105477243" lon="14.059947009752248"><ele>590.6</ele><time>2026-04-26T16:41:24.999Z</time></trkpt><trkpt lat="37.51078638713238" lon="14.059937393895067"><ele>591.0</ele><time>2026-04-26T16:41:25.999Z</time></trkpt><trkpt lat="37.51067167075305" lon="14.059961770483755"><ele>592.25</ele><time>2026-04-26T16:41:27Z</time></trkpt><trkpt lat="37.51055106859731" lon="14.060008357280923"><ele>593.5</ele><time>2026-04-26T16:41:28Z</time></trkpt><trkpt lat="37.51044995953992" lon="14.060111505047177"><ele>594.75</ele><time>2026-04-26T16:41:29Z</time></trkpt><trkpt lat="37.510339178707056" lon="14.060192845475155"><ele>596.0</ele><time>2026-04-26T16:41:30Z</time></trkpt><trkpt lat="37.5102256979157" lon="14.06027376602751"><ele>596.5</ele><time>2026-04-26T16:41:31Z</time></trkpt><trkpt lat="37.51010703494948" lon="14.060344413213464"><ele>597.0</ele><time>2026-04-26T16:41:32Z</time></trkpt><trkpt lat="37.50998396638637" lon="14.060406812189843"><ele>597.5</ele><time>2026-04-26T16:41:33Z</time></trkpt><trkpt lat="37.50985805364789" lon="14.06047210252963"><ele>598.0</ele><time>2026-04-26T16:41:34Z</time></trkpt><trkpt lat="37.509731038546846" lon="14.060543675764661"><ele>598.0</ele><time>2026-04-26T16:41:35Z</time></trkpt><trkpt lat="37.50960110486997" lon="14.06061421624836"><ele>598.0</ele><time>2026-04-26T16:41:36Z</time></trkpt><trkpt lat="37.50947623053681" lon="14.060680204151327"><ele>598.0</ele><time>2026-04-26T16:41:37Z</time></trkpt><trkpt lat="37.50936671216727" lon="14.060735488913476"><ele>598.0</ele><time>2026-04-26T16:41:38Z</time></trkpt><trkpt lat="37.509259303821985" lon="14.06079066583359"><ele>597.75</ele><time>2026-04-26T16:41:39Z</time></trkpt><trkpt lat="37.50915151670651" lon="14.060823795492032"><ele>597.5</ele><time>2026-04-26T16:41:40Z</time></trkpt><trkpt lat="37.50903477402199" lon="14.06081843519871"><ele>597.25</ele><time>2026-04-26T16:41:41Z</time></trkpt><trkpt lat="37.50891911528819" lon="14.060770548033334"><ele>597.0</ele><time>2026-04-26T16:41:42Z</time></trkpt><trkpt lat="37.508806168069" lon="14.060707533452153"><ele>598.8000000000001</ele><time>2026-04-26T16:41:43Z</time></trkpt><trkpt lat="37.5086840116041" lon="14.060678390474633"><ele>600.6</ele><time>2026-04-26T16:41:44Z</time></trkpt><trkpt lat="37.50856312485256" lon="14.060674170531048"><ele>602.4000000000001</ele><time>2026-04-26T16:41:45Z</time></trkpt><trkpt lat="37.508460108354" lon="14.060686324262795"><ele>604.2</ele><time>2026-04-26T16:41:46Z</time></trkpt><trkpt lat="37.508362384594335" lon="14.060697536345874"><ele>606.0</ele><time>2026-04-26T16:41:47Z</time></trkpt><trkpt lat="37.50826347985172" lon="14.060704307181574"><ele>606.0</ele><time>2026-04-26T16:41:48Z</time></trkpt><trkpt lat="37.50816824550386" lon="14.06068654856621"><ele>606.0</ele><time>2026-04-26T16:41:49Z</time></trkpt><trkpt lat="37.50808205198894" lon="14.060628705873157"><ele>606.0</ele><time>2026-04-26T16:41:50Z</time></trkpt><trkpt lat="37.50801010557705" lon="14.060536209306205"><ele>606.0</ele><time>2026-04-26T16:41:51Z</time></trkpt><trkpt lat="37.507936561244364" lon="14.060436654459743"><ele>606.0</ele><time>2026-04-26T16:41:52Z</time></trkpt><trkpt lat="37.50784709031839" lon="14.060374571885722"><ele>609.6</ele><time>2026-04-26T16:41:53Z</time></trkpt><trkpt lat="37.50775815083391" lon="14.060324110539419"><ele>613.2</ele><time>2026-04-26T16:41:54Z</time></trkpt><trkpt lat="37.507670523266405" lon="14.060280307977141"><ele>616.8</ele><time>2026-04-26T16:41:55Z</time></trkpt><trkpt lat="37.50758731693015" lon="14.060236369051175"><ele>620.4</ele><time>2026-04-26T16:41:56Z</time></trkpt><trkpt lat="37.50750122035856" lon="14.0601859987257"><ele>624.0</ele><time>2026-04-26T16:41:57Z</time></trkpt><trkpt lat="37.507415121789855" lon="14.060132331758501"><ele>624.0</ele><time>2026-04-26T16:41:58Z</time></trkpt><trkpt lat="37.50732792073807" lon="14.060080001904412"><ele>624.0</ele><time>2026-04-26T16:41:59Z</time></trkpt><trkpt lat="37.5072374795078" lon="14.060028496461177"><ele>624.0</ele><time>2026-04-26T16:42:00Z</time></trkpt><trkpt lat="37.507138148333524" lon="14.05998077621233"><ele>624.0</ele><time>2026-04-26T16:42:01Z</time></trkpt><trkpt lat="37.507032656941895" lon="14.05994375502098"><ele>624.0</ele><time>2026-04-26T16:42:02Z</time></trkpt><trkpt lat="37.50692673956602" lon="14.059922797518675"><ele>624.6</ele><time>2026-04-26T16:42:03Z</time></trkpt><trkpt lat="37.5068223140503" lon="14.059908796782787"><ele>625.2</ele><time>2026-04-26T16:42:04Z</time></trkpt><trkpt lat="37.506718608597104" lon="14.059887664899136"><ele>625.8000000000001</ele><time>2026-04-26T16:42:05Z</time></trkpt><trkpt lat="37.50661687245178" lon="14.05983341485178"><ele>626.4</ele><time>2026-04-26T16:42:06Z</time></trkpt><trkpt lat="37.50652689179235" lon="14.059737896783432"><ele>627.0</ele><time>2026-04-26T16:42:07Z</time></trkpt><trkpt lat="37.506432799965026" lon="14.059640927046468"><ele>627.0</ele><time>2026-04-26T16:42:08Z</time></trkpt><trkpt lat="37.50633546752172" lon="14.059551726789483"><ele>627.0</ele><time>2026-04-26T16:42:09Z</time></trkpt><trkpt lat="37.5062253725061" lon="14.059460299075933"><ele>627.0</ele><time>2026-04-26T16:42:10Z</time></trkpt><trkpt lat="37.50610902829606" lon="14.05936967892816"><ele>627.0</ele><time>2026-04-26T16:42:11Z</time></trkpt><trkpt lat="37.50599050333977" lon="14.059277763574737"><ele>628.0</ele><time>2026-04-26T16:42:12Z</time></trkpt><trkpt lat="37.50587832158132" lon="14.059195670567673"><ele>629.0</ele><time>2026-04-26T16:42:13Z</time></trkpt><trkpt lat="37.50577425888861" lon="14.059125175367504"><ele>630.0</ele><time>2026-04-26T16:42:14Z</time></trkpt><trkpt lat="37.50567402969904" lon="14.059062741675692"><ele>631.0</ele><time>2026-04-26T16:42:15Z</time></trkpt><trkpt lat="37.50557434426837" lon="14.059001720675816"><ele>631.0</ele><time>2026-04-26T16:42:16Z</time></trkpt><trkpt lat="37.50547543270374" lon="14.058933749829148"><ele>631.0</ele><time>2026-04-26T16:42:17Z</time></trkpt><trkpt lat="37.50537809986548" lon="14.058853147543434"><ele>631.0</ele><time>2026-04-26T16:42:18Z</time></trkpt><trkpt lat="37.50527599174267" lon="14.058773172848095"><ele>631.0</ele><time>2026-04-26T16:42:19Z</time></trkpt><trkpt lat="37.50518648446827" lon="14.058669336037788"><ele>631.25</ele><time>2026-04-26T16:42:20Z</time></trkpt><trkpt lat="37.505104116443825" lon="14.058553076142088"><ele>631.5</ele><time>2026-04-26T16:42:21Z</time></trkpt><trkpt lat="37.50502414114366" lon="14.058435318760317"><ele>631.75</ele><time>2026-04-26T16:42:22Z</time></trkpt><trkpt lat="37.50493716360536" lon="14.058324838512092"><ele>632.0</ele><time>2026-04-26T16:42:23Z</time></trkpt><trkpt lat="37.504844672674785" lon="14.05821349212234"><ele>632.0</ele><time>2026-04-26T16:42:24Z</time></trkpt><trkpt lat="37.50474789259523" lon="14.058100869519912"><ele>632.0</ele><time>2026-04-26T16:42:25Z</time></trkpt><trkpt lat="37.50464933168059" lon="14.057984471148785"><ele>632.0</ele><time>2026-04-26T16:42:25.999Z</time></trkpt><trkpt lat="37.504548002180094" lon="14.057866426366846"><ele>632.0</ele><time>2026-04-26T16:42:26.999Z</time></trkpt><trkpt lat="37.50444772743548" lon="14.057749138930868"><ele>633.25</ele><time>2026-04-26T16:42:27.999Z</time></trkpt><trkpt lat="37.50435184865969" lon="14.057637808862834"><ele>634.5</ele><time>2026-04-26T16:42:28.999Z</time></trkpt><trkpt lat="37.50425072258454" lon="14.057525945406454"><ele>635.75</ele><time>2026-04-26T16:42:29.999Z</time></trkpt><trkpt lat="37.50415520798681" lon="14.057422457310121"><ele>637.0</ele><time>2026-04-26T16:42:30.999Z</time></trkpt><trkpt lat="37.50406042847476" lon="14.057329620911032"><ele>637.0</ele><time>2026-04-26T16:42:31.999Z</time></trkpt><trkpt lat="37.50396322487362" lon="14.057257703028167"><ele>637.0</ele><time>2026-04-26T16:42:32.999Z</time></trkpt><trkpt lat="37.50385915380315" lon="14.05720507563671"><ele>637.0</ele><time>2026-04-26T16:42:33.999Z</time></trkpt><trkpt lat="37.50375509893723" lon="14.05716168401708"><ele>637.0</ele><time>2026-04-26T16:42:34.999Z</time></trkpt><trkpt lat="37.50365611764665" lon="14.057101690090766"><ele>637.0</ele><time>2026-04-26T16:42:35.999Z</time></trkpt><trkpt lat="37.50356194393898" lon="14.057017391775153"><ele>636.0</ele><time>2026-04-26T16:42:36.999Z</time></trkpt><trkpt lat="37.50347630459163" lon="14.056913651735682"><ele>635.0</ele><time>2026-04-26T16:42:37.999Z</time></trkpt><trkpt lat="37.5033959733973" lon="14.05679946565699"><ele>634.0</ele><time>2026-04-26T16:42:38.999Z</time></trkpt><trkpt lat="37.503316120307794" lon="14.056681199734877"><ele>633.0</ele><time>2026-04-26T16:42:39.999Z</time></trkpt><trkpt lat="37.50322937386149" lon="14.056562127825284"><ele>633.0</ele><time>2026-04-26T16:42:40.999Z</time></trkpt><trkpt lat="37.503148625287224" lon="14.056442360394772"><ele>633.0</ele><time>2026-04-26T16:42:41.999Z</time></trkpt><trkpt lat="37.50306672105832" lon="14.056320872374345"><ele>633.0</ele><time>2026-04-26T16:42:42.999Z</time></trkpt><trkpt lat="37.502984264441245" lon="14.056198175935902"><ele>633.0</ele><time>2026-04-26T16:42:43.999Z</time></trkpt><trkpt lat="37.50289947045642" lon="14.05607830725987"><ele>632.0</ele><time>2026-04-26T16:42:44.999Z</time></trkpt><trkpt lat="37.50281390617698" lon="14.055962091234324"><ele>631.0</ele><time>2026-04-26T16:42:45.999Z</time></trkpt><trkpt lat="37.50271932201402" lon="14.055852651432865"><ele>630.0</ele><time>2026-04-26T16:42:46.999Z</time></trkpt><trkpt lat="37.502619081913636" lon="14.055753277381951"><ele>629.0</ele><time>2026-04-26T16:42:47.999Z</time></trkpt><trkpt lat="37.50251823937873" lon="14.055656181184924"><ele>629.0</ele><time>2026-04-26T16:42:48.999Z</time></trkpt><trkpt lat="37.50241066732329" lon="14.05556769056873"><ele>629.0</ele><time>2026-04-26T16:42:49.999Z</time></trkpt><trkpt lat="37.50229761805075" lon="14.055496937084389"><ele>629.0</ele><time>2026-04-26T16:42:50.999Z</time></trkpt><trkpt lat="37.50217979038456" lon="14.055446058423659"><ele>629.0</ele><time>2026-04-26T16:42:51.999Z</time></trkpt><trkpt lat="37.502055041958585" lon="14.055413234268139"><ele>631.0</ele><time>2026-04-26T16:42:52.999Z</time></trkpt><trkpt lat="37.50192346240134" lon="14.05538551669434"><ele>633.0</ele><time>2026-04-26T16:42:53.999Z</time></trkpt><trkpt lat="37.50179295241622" lon="14.055362296239192"><ele>635.0</ele><time>2026-04-26T16:42:54.999Z</time></trkpt><trkpt lat="37.5016523378606" lon="14.055348230999366"><ele>637.0</ele><time>2026-04-26T16:42:55.999Z</time></trkpt><trkpt lat="37.5015134967263" lon="14.055324753938596"><ele>637.0</ele><time>2026-04-26T16:42:56.999Z</time></trkpt><trkpt lat="37.50137577537709" lon="14.055299070305384"><ele>637.0</ele><time>2026-04-26T16:42:57.999Z</time></trkpt><trkpt lat="37.50123304356416" lon="14.055272526598996"><ele>637.0</ele><time>2026-04-26T16:42:58.999Z</time></trkpt><trkpt lat="37.501093903710355" lon="14.055231711992002"><ele>637.0</ele><time>2026-04-26T16:42:59.999Z</time></trkpt><trkpt lat="37.50095665140116" lon="14.055188600662955"><ele>639.0</ele><time>2026-04-26T16:43:00.999Z</time></trkpt><trkpt lat="37.50081817044394" lon="14.055142013265288"><ele>641.0</ele><time>2026-04-26T16:43:01.999Z</time></trkpt><trkpt lat="37.500685832963825" lon="14.055084498566275"><ele>643.0</ele><time>2026-04-26T16:43:02.999Z</time></trkpt><trkpt lat="37.50055201210203" lon="14.055017833943964"><ele>645.0</ele><time>2026-04-26T16:43:03.999Z</time></trkpt><trkpt lat="37.50043127903021" lon="14.05495516592196"><ele>644.0</ele><time>2026-04-26T16:43:04.999Z</time></trkpt><trkpt lat="37.500314703975455" lon="14.054884162941056"><ele>643.0</ele><time>2026-04-26T16:43:05.999Z</time></trkpt><trkpt lat="37.500203036234524" lon="14.054824423844776"><ele>642.0</ele><time>2026-04-26T16:43:06.999Z</time></trkpt><trkpt lat="37.50012391360798" lon="14.054735842724288"><ele>641.0</ele><time>2026-04-26T16:43:07.999Z</time></trkpt><trkpt lat="37.50005346648311" lon="14.054654983142633"><ele>641.0</ele><time>2026-04-26T16:43:08.999Z</time></trkpt><trkpt lat="37.49999390759418" lon="14.0545762933822"><ele>641.0</ele><time>2026-04-26T16:43:09.999Z</time></trkpt><trkpt lat="37.49994242442926" lon="14.05449981739867"><ele>641.0</ele><time>2026-04-26T16:43:10.999Z</time></trkpt><trkpt lat="37.49989824258845" lon="14.054431050363393"><ele>641.0</ele><time>2026-04-26T16:43:11.999Z</time></trkpt><trkpt lat="37.49982713897643" lon="14.054331294457562"><ele>641.0</ele><time>2026-04-26T16:43:13.999Z</time></trkpt><trkpt lat="37.49977208821419" lon="14.054265164713735"><ele>641.0</ele><time>2026-04-26T16:43:15.999Z</time></trkpt><trkpt lat="37.49973816513904" lon="14.054133201361495"><ele>641.0</ele><time>2026-04-26T16:43:18.999Z</time></trkpt><trkpt lat="37.49977040095742" lon="14.053994977657021"><ele>641.0</ele><time>2026-04-26T16:43:20.999Z</time></trkpt><trkpt lat="37.49978197490285" lon="14.053862621449305"><ele>641.0</ele><time>2026-04-26T16:43:22.999Z</time></trkpt><trkpt lat="37.499784701944684" lon="14.053728531469112"><ele>641.0</ele><time>2026-04-26T16:43:24.999Z</time></trkpt><trkpt lat="37.49977913377024" lon="14.053645995695062"><ele>641.0</ele><time>2026-04-26T16:43:26.999Z</time></trkpt><trkpt lat="37.49977679073563" lon="14.053554155086452"><ele>641.0</ele><time>2026-04-26T16:43:28.999Z</time></trkpt><trkpt lat="37.49962229812405" lon="14.053502978005197"><ele>641.0</ele><time>2026-04-26T16:43:29.999Z</time></trkpt><trkpt lat="37.499508064237524" lon="14.053452017708695"><ele>641.0</ele><time>2026-04-26T16:43:31.999Z</time></trkpt><trkpt lat="37.49939405484813" lon="14.053401157547727"><ele>641.0</ele><time>2026-04-26T16:43:34Z</time></trkpt><trkpt lat="37.499329259041296" lon="14.053372251816999"><ele>640.8333333333333</ele><time>2026-04-26T16:43:35Z</time></trkpt><trkpt lat="37.499250765576235" lon="14.053374886889992"><ele>640.6666666666666</ele><time>2026-04-26T16:43:36Z</time></trkpt><trkpt lat="37.499183692650846" lon="14.053332241969771"><ele>640.5</ele><time>2026-04-26T16:43:37Z</time></trkpt><trkpt lat="37.49911185751724" lon="14.053300857097522"><ele>640.3333333333334</ele><time>2026-04-26T16:43:38Z</time></trkpt><trkpt lat="37.499040005481" lon="14.053262397603921"><ele>640.1666666666667</ele><time>2026-04-26T16:43:39Z</time></trkpt><trkpt lat="37.49897304007455" lon="14.05321956747012"><ele>640.0</ele><time>2026-04-26T16:43:40Z</time></trkpt><trkpt lat="37.49890029884878" lon="14.053187708263227"><ele>640.0</ele><time>2026-04-26T16:43:41Z</time></trkpt><trkpt lat="37.49881568352819" lon="14.053190470708286"><ele>640.0</ele><time>2026-04-26T16:43:42Z</time></trkpt><trkpt lat="37.49873229961652" lon="14.053220322483746"><ele>640.0</ele><time>2026-04-26T16:43:43Z</time></trkpt><trkpt lat="37.49865351251485" lon="14.053261723932234"><ele>640.0</ele><time>2026-04-26T16:43:44Z</time></trkpt><trkpt lat="37.49857433368476" lon="14.05328182423822"><ele>640.0</ele><time>2026-04-26T16:43:45Z</time></trkpt><trkpt lat="37.49851170326587" lon="14.053359904964188"><ele>640.0</ele><time>2026-04-26T16:43:46Z</time></trkpt><trkpt lat="37.498458174910645" lon="14.053438483711377"><ele>640.0</ele><time>2026-04-26T16:43:47Z</time></trkpt><trkpt lat="37.498394774775406" lon="14.053500288144436"><ele>640.0</ele><time>2026-04-26T16:43:48Z</time></trkpt><trkpt lat="37.49833547303572" lon="14.053550659884795"><ele>640.0</ele><time>2026-04-26T16:43:49Z</time></trkpt><trkpt lat="37.49822548418519" lon="14.053590388661682"><ele>640.0</ele><time>2026-04-26T16:43:51Z</time></trkpt><trkpt lat="37.498149986478595" lon="14.053546654306924"><ele>640.0</ele><time>2026-04-26T16:43:53Z</time></trkpt><trkpt lat="37.49807578169031" lon="14.05350075528792"><ele>640.0</ele><time>2026-04-26T16:43:56Z</time></trkpt><trkpt lat="37.4980169702859" lon="14.0534692441078"><ele>640.0</ele><time>2026-04-26T16:43:58Z</time></trkpt><trkpt lat="37.49797220893843" lon="14.053404772582033"><ele>640.0</ele><time>2026-04-26T16:44:00Z</time></trkpt><trkpt lat="37.49791360268021" lon="14.053372458901231"><ele>640.0</ele><time>2026-04-26T16:44:04Z</time></trkpt><trkpt lat="37.49783313721282" lon="14.05347709978703"><ele>640.0</ele><time>2026-04-26T16:44:05Z</time></trkpt><trkpt lat="37.49781351022806" lon="14.05355829945116"><ele>640.0</ele><time>2026-04-26T16:44:07Z</time></trkpt><trkpt lat="37.49778527651007" lon="14.053680013766957"><ele>640.0</ele><time>2026-04-26T16:44:10Z</time></trkpt><trkpt lat="37.49778097259552" lon="14.053781671676512"><ele>638.6</ele><time>2026-04-26T16:44:12Z</time></trkpt><trkpt lat="37.497726797712446" lon="14.05383053635009"><ele>637.2</ele><time>2026-04-26T16:44:14Z</time></trkpt><trkpt lat="37.49763716200626" lon="14.053826688942516"><ele>635.8</ele><time>2026-04-26T16:44:16Z</time></trkpt><trkpt lat="37.497544171898674" lon="14.05374284189079"><ele>634.4</ele><time>2026-04-26T16:44:18Z</time></trkpt><trkpt lat="37.49750896752484" lon="14.053618879874524"><ele>633.0</ele><time>2026-04-26T16:44:20Z</time></trkpt><trkpt lat="37.497471703783" lon="14.053493918219408"><ele>633.0</ele><time>2026-04-26T16:44:22Z</time></trkpt><trkpt lat="37.49742920103255" lon="14.053371852831063"><ele>633.0</ele><time>2026-04-26T16:44:24Z</time></trkpt><trkpt lat="37.49738979732566" lon="14.053245463174303"><ele>633.0</ele><time>2026-04-26T16:44:26Z</time></trkpt><trkpt lat="37.497343617996876" lon="14.053117378504163"><ele>633.0</ele><time>2026-04-26T16:44:28Z</time></trkpt><trkpt lat="37.49731491543881" lon="14.053034945340858"><ele>633.0</ele><time>2026-04-26T16:44:29Z</time></trkpt><trkpt lat="37.49728923194361" lon="14.05296041238856"><ele>632.6666666666666</ele><time>2026-04-26T16:44:30Z</time></trkpt><trkpt lat="37.49726264411423" lon="14.052878674343864"><ele>632.3333333333334</ele><time>2026-04-26T16:44:31Z</time></trkpt><trkpt lat="37.497227466042254" lon="14.052786457304695"><ele>632.0</ele><time>2026-04-26T16:44:32Z</time></trkpt><trkpt lat="37.49719107503695" lon="14.052687007544893"><ele>631.6666666666667</ele><time>2026-04-26T16:44:33Z</time></trkpt><trkpt lat="37.49716122885096" lon="14.052584887991834"><ele>631.3333333333334</ele><time>2026-04-26T16:44:33.999Z</time></trkpt><trkpt lat="37.49712889560845" lon="14.052489414982002"><ele>631.0</ele><time>2026-04-26T16:44:34.999Z</time></trkpt><trkpt lat="37.497087838025365" lon="14.052403934779088"><ele>629.1666666666667</ele><time>2026-04-26T16:44:35.999Z</time></trkpt><trkpt lat="37.49706142755158" lon="14.052305640099048"><ele>627.3333333333334</ele><time>2026-04-26T16:44:36.999Z</time></trkpt><trkpt lat="37.497031259028205" lon="14.052206746924012"><ele>625.5</ele><time>2026-04-26T16:44:37.999Z</time></trkpt><trkpt lat="37.497002406701576" lon="14.052114732778323"><ele>623.6666666666666</ele><time>2026-04-26T16:44:38.999Z</time></trkpt><trkpt lat="37.49697405532147" lon="14.052005635758706"><ele>621.8333333333333</ele><time>2026-04-26T16:44:39.999Z</time></trkpt><trkpt lat="37.49694462898437" lon="14.0519130724283"><ele>620.0</ele><time>2026-04-26T16:44:40.999Z</time></trkpt><trkpt lat="37.496914905223946" lon="14.051813528217023"><ele>620.0</ele><time>2026-04-26T16:44:41.999Z</time></trkpt><trkpt lat="37.4968761365511" lon="14.051716262935843"><ele>620.0</ele><time>2026-04-26T16:44:42.999Z</time></trkpt><trkpt lat="37.496841499549106" lon="14.051610444101593"><ele>620.0</ele><time>2026-04-26T16:44:43.999Z</time></trkpt><trkpt lat="37.49680932542356" lon="14.051505720292038"><ele>620.0</ele><time>2026-04-26T16:44:44.999Z</time></trkpt><trkpt lat="37.49677521805953" lon="14.051402650589317"><ele>620.0</ele><time>2026-04-26T16:44:45.999Z</time></trkpt><trkpt lat="37.496744412877995" lon="14.0513000411936"><ele>620.0</ele><time>2026-04-26T16:44:46.999Z</time></trkpt><trkpt lat="37.49671116543335" lon="14.051197797752106"><ele>620.0</ele><time>2026-04-26T16:44:47.999Z</time></trkpt><trkpt lat="37.496680149654594" lon="14.05109138249533"><ele>620.0</ele><time>2026-04-26T16:44:48.999Z</time></trkpt><trkpt lat="37.49665202904554" lon="14.050994083509206"><ele>620.0</ele><time>2026-04-26T16:44:49.999Z</time></trkpt><trkpt lat="37.49661580183575" lon="14.050894988908382"><ele>620.0</ele><time>2026-04-26T16:44:50.999Z</time></trkpt><trkpt lat="37.49658589036121" lon="14.050813189475262"><ele>620.0</ele><time>2026-04-26T16:44:51.999Z</time></trkpt><trkpt lat="37.496560874406356" lon="14.050725164324502"><ele>620.0</ele><time>2026-04-26T16:44:52.999Z</time></trkpt><trkpt lat="37.496532489551164" lon="14.050634936205938"><ele>619.8333333333333</ele><time>2026-04-26T16:44:53.999Z</time></trkpt><trkpt lat="37.49649772683306" lon="14.050550202061762"><ele>619.6666666666666</ele><time>2026-04-26T16:44:54.999Z</time></trkpt><trkpt lat="37.49646446848066" lon="14.050470861944312"><ele>619.5</ele><time>2026-04-26T16:44:55.999Z</time></trkpt><trkpt lat="37.49643877161098" lon="14.050385703077268"><ele>619.3333333333334</ele><time>2026-04-26T16:44:56.999Z</time></trkpt><trkpt lat="37.496415883784536" lon="14.050298480440093"><ele>619.1666666666667</ele><time>2026-04-26T16:44:57.999Z</time></trkpt><trkpt lat="37.49639664986982" lon="14.050210624593385"><ele>619.0</ele><time>2026-04-26T16:44:58.999Z</time></trkpt><trkpt lat="37.49637512281142" lon="14.050098664367754"><ele>619.0</ele><time>2026-04-26T16:45:00.999Z</time></trkpt><trkpt lat="37.49635585139791" lon="14.049999955602031"><ele>619.0</ele><time>2026-04-26T16:45:02.999Z</time></trkpt><trkpt lat="37.49634222006495" lon="14.049882199474268"><ele>619.0</ele><time>2026-04-26T16:45:04.999Z</time></trkpt><trkpt lat="37.496338860499854" lon="14.049749316245764"><ele>619.0</ele><time>2026-04-26T16:45:06.999Z</time></trkpt><trkpt lat="37.49634065984243" lon="14.049601454230537"><ele>619.0</ele><time>2026-04-26T16:45:08.999Z</time></trkpt><trkpt lat="37.49634414563617" lon="14.049454252888935"><ele>617.8</ele><time>2026-04-26T16:45:10.999Z</time></trkpt><trkpt lat="37.49634718197002" lon="14.049315432400757"><ele>616.5999999999999</ele><time>2026-04-26T16:45:12.999Z</time></trkpt><trkpt lat="37.496358889053134" lon="14.049188304045563"><ele>615.4</ele><time>2026-04-26T16:45:14.999Z</time></trkpt><trkpt lat="37.49635855999718" lon="14.049057107830937"><ele>614.1999999999999</ele><time>2026-04-26T16:45:16.999Z</time></trkpt><trkpt lat="37.4963592192526" lon="14.048941917513504"><ele>613.0</ele><time>2026-04-26T16:45:18.999Z</time></trkpt><trkpt lat="37.49636255115473" lon="14.048849654752926"><ele>612.3333333333334</ele><time>2026-04-26T16:45:27.999Z</time></trkpt><trkpt lat="37.4963887494406" lon="14.048753962393654"><ele>611.6666666666667</ele><time>2026-04-26T16:45:36.999Z</time></trkpt><trkpt lat="37.49638236209066" lon="14.04865794075191"><ele>611.0</ele><time>2026-04-26T16:45:39Z</time></trkpt><trkpt lat="37.49639637707694" lon="14.048551132123102"><ele>610.3333333333334</ele><time>2026-04-26T16:45:41Z</time></trkpt><trkpt lat="37.49640498623476" lon="14.048422465344451"><ele>609.6666666666666</ele><time>2026-04-26T16:45:43Z</time></trkpt><trkpt lat="37.49640570051263" lon="14.048339868520712"><ele>609.0</ele><time>2026-04-26T16:45:44Z</time></trkpt><trkpt lat="37.49640723406455" lon="14.048256724417856"><ele>609.0</ele><time>2026-04-26T16:45:45Z</time></trkpt><trkpt lat="37.49641047603077" lon="14.048172937694755"><ele>609.0</ele><time>2026-04-26T16:45:46Z</time></trkpt><trkpt lat="37.49638136261873" lon="14.048022014374807"><ele>609.0</ele><time>2026-04-26T16:45:48Z</time></trkpt><trkpt lat="37.49631041635109" lon="14.047900482785801"><ele>609.0</ele><time>2026-04-26T16:45:50Z</time></trkpt><trkpt lat="37.49626967816547" lon="14.047839638592816"><ele>609.0</ele><time>2026-04-26T16:45:51Z</time></trkpt><trkpt lat="37.4962257690344" lon="14.047779534772497"><ele>609.0</ele><time>2026-04-26T16:45:52Z</time></trkpt><trkpt lat="37.496170315379985" lon="14.04771299823123"><ele>608.8333333333334</ele><time>2026-04-26T16:45:53Z</time></trkpt><trkpt lat="37.49611249448373" lon="14.047647547000688"><ele>608.6666666666666</ele><time>2026-04-26T16:45:54Z</time></trkpt><trkpt lat="37.49605110014844" lon="14.047571287957968"><ele>608.5</ele><time>2026-04-26T16:45:55Z</time></trkpt><trkpt lat="37.49598594328508" lon="14.047495505103518"><ele>608.3333333333333</ele><time>2026-04-26T16:45:56Z</time></trkpt><trkpt lat="37.49591681772202" lon="14.047409474886093"><ele>608.1666666666666</ele><time>2026-04-26T16:45:57Z</time></trkpt><trkpt lat="37.49584853335068" lon="14.047335132264331"><ele>608.0</ele><time>2026-04-26T16:45:58Z</time></trkpt><trkpt lat="37.4957827053386" lon="14.047254274458801"><ele>608.6</ele><time>2026-04-26T16:45:59Z</time></trkpt><trkpt lat="37.495711118591394" lon="14.047173084045443"><ele>609.1999999999999</ele><time>2026-04-26T16:46:00Z</time></trkpt><trkpt lat="37.49564071792543" lon="14.047089896478216"><ele>609.8</ele><time>2026-04-26T16:46:01Z</time></trkpt><trkpt lat="37.49557249926689" lon="14.047013981051094"><ele>610.4</ele><time>2026-04-26T16:46:02Z</time></trkpt><trkpt lat="37.49550138728985" lon="14.04693708142916"><ele>611.0</ele><time>2026-04-26T16:46:03Z</time></trkpt><trkpt lat="37.49543446336182" lon="14.046856693354998"><ele>610.6</ele><time>2026-04-26T16:46:04Z</time></trkpt><trkpt lat="37.495371493546656" lon="14.046780695171792"><ele>610.2</ele><time>2026-04-26T16:46:05Z</time></trkpt><trkpt lat="37.495307453703276" lon="14.04670332059427"><ele>609.8</ele><time>2026-04-26T16:46:06Z</time></trkpt><trkpt lat="37.4952418667332" lon="14.046621383336284"><ele>609.4</ele><time>2026-04-26T16:46:07Z</time></trkpt><trkpt lat="37.49517004093662" lon="14.046556379495945"><ele>609.0</ele><time>2026-04-26T16:46:08Z</time></trkpt><trkpt lat="37.49508745559889" lon="14.046480857359768"><ele>609.0</ele><time>2026-04-26T16:46:09Z</time></trkpt><trkpt lat="37.495010053746405" lon="14.04642631027485"><ele>609.0</ele><time>2026-04-26T16:46:10Z</time></trkpt><trkpt lat="37.49493812059133" lon="14.046372995336613"><ele>609.0</ele><time>2026-04-26T16:46:11Z</time></trkpt><trkpt lat="37.494832106063235" lon="14.046335184528798"><ele>609.0</ele><time>2026-04-26T16:46:12Z</time></trkpt><trkpt lat="37.49473109071236" lon="14.046309776757074"><ele>609.0</ele><time>2026-04-26T16:46:13Z</time></trkpt><trkpt lat="37.49463233652721" lon="14.04629473820619"><ele>608.2</ele><time>2026-04-26T16:46:14Z</time></trkpt><trkpt lat="37.494532495999074" lon="14.046284377880678"><ele>607.4</ele><time>2026-04-26T16:46:15Z</time></trkpt><trkpt lat="37.49443019140387" lon="14.046272480145"><ele>606.6</ele><time>2026-04-26T16:46:16Z</time></trkpt><trkpt lat="37.49433334129433" lon="14.046259371806261"><ele>605.8</ele><time>2026-04-26T16:46:17Z</time></trkpt><trkpt lat="37.494238696641865" lon="14.046274884576306"><ele>605.0</ele><time>2026-04-26T16:46:18Z</time></trkpt><trkpt lat="37.49415005025285" lon="14.046258571332807"><ele>605.0</ele><time>2026-04-26T16:46:19Z</time></trkpt><trkpt lat="37.49408365347634" lon="14.046244362864002"><ele>605.0</ele><time>2026-04-26T16:46:20Z</time></trkpt><trkpt lat="37.49397726308005" lon="14.046207891343984"><ele>605.0</ele><time>2026-04-26T16:46:22Z</time></trkpt><trkpt lat="37.493921137645124" lon="14.046143986835293"><ele>605.0</ele><time>2026-04-26T16:46:24Z</time></trkpt><trkpt lat="37.493924173106706" lon="14.046040640662154"><ele>605.0</ele><time>2026-04-26T16:46:25Z</time></trkpt><trkpt lat="37.49393767900149" lon="14.04587307660083"><ele>604.5</ele><time>2026-04-26T16:46:27Z</time></trkpt><trkpt lat="37.4939408164013" lon="14.045772061774363"><ele>604.0</ele><time>2026-04-26T16:46:28Z</time></trkpt><trkpt lat="37.49394924724373" lon="14.045677640818914"><ele>603.5</ele><time>2026-04-26T16:46:29Z</time></trkpt><trkpt lat="37.493957979857875" lon="14.04557813123093"><ele>603.0</ele><time>2026-04-26T16:46:30Z</time></trkpt><trkpt lat="37.493971078706274" lon="14.045468133067246"><ele>602.5</ele><time>2026-04-26T16:46:31Z</time></trkpt><trkpt lat="37.49398508877305" lon="14.045355546097554"><ele>602.0</ele><time>2026-04-26T16:46:32Z</time></trkpt><trkpt lat="37.4940015285181" lon="14.045241257015041"><ele>602.0</ele><time>2026-04-26T16:46:33Z</time></trkpt><trkpt lat="37.49401929660621" lon="14.0451271181896"><ele>602.0</ele><time>2026-04-26T16:46:34Z</time></trkpt><trkpt lat="37.494035598215056" lon="14.045008959488895"><ele>602.0</ele><time>2026-04-26T16:46:35Z</time></trkpt><trkpt lat="37.49405316315635" lon="14.044895245553144"><ele>602.0</ele><time>2026-04-26T16:46:36Z</time></trkpt><trkpt lat="37.494063433867026" lon="14.044782532850462"><ele>602.0</ele><time>2026-04-26T16:46:36.999Z</time></trkpt><trkpt lat="37.494068384284525" lon="14.044672731313577"><ele>602.5</ele><time>2026-04-26T16:46:37.999Z</time></trkpt><trkpt lat="37.494059738035006" lon="14.044566747975281"><ele>603.0</ele><time>2026-04-26T16:46:38.999Z</time></trkpt><trkpt lat="37.49403337014476" lon="14.044466541941688"><ele>603.5</ele><time>2026-04-26T16:46:39.999Z</time></trkpt><trkpt lat="37.49398284484234" lon="14.044362538080327"><ele>604.0</ele><time>2026-04-26T16:46:40.999Z</time></trkpt><trkpt lat="37.493922525713074" lon="14.044269601250175"><ele>604.5</ele><time>2026-04-26T16:46:41.999Z</time></trkpt><trkpt lat="37.49387300071227" lon="14.044181089124804"><ele>605.0</ele><time>2026-04-26T16:46:42.999Z</time></trkpt><trkpt lat="37.49381340067129" lon="14.044104303222595"><ele>607.0</ele><time>2026-04-26T16:46:43.999Z</time></trkpt><trkpt lat="37.49375454924274" lon="14.044014237742202"><ele>609.0</ele><time>2026-04-26T16:46:44.999Z</time></trkpt><trkpt lat="37.493692799531345" lon="14.043916287186498"><ele>611.0</ele><time>2026-04-26T16:46:45.999Z</time></trkpt><trkpt lat="37.493635520389724" lon="14.04382353412987"><ele>613.0</ele><time>2026-04-26T16:46:46.999Z</time></trkpt><trkpt lat="37.493578131378456" lon="14.043736913022068"><ele>615.0</ele><time>2026-04-26T16:46:47.999Z</time></trkpt><trkpt lat="37.49352205515391" lon="14.043642386088264"><ele>615.0</ele><time>2026-04-26T16:46:48.999Z</time></trkpt><trkpt lat="37.493469066768284" lon="14.043549605072297"><ele>615.0</ele><time>2026-04-26T16:46:49.999Z</time></trkpt><trkpt lat="37.493419866013866" lon="14.04344648288842"><ele>615.0</ele><time>2026-04-26T16:46:50.999Z</time></trkpt><trkpt lat="37.49336732218468" lon="14.043337316408387"><ele>615.0</ele><time>2026-04-26T16:46:51.999Z</time></trkpt><trkpt lat="37.493318181733144" lon="14.043233647773635"><ele>615.0</ele><time>2026-04-26T16:46:52.999Z</time></trkpt><trkpt lat="37.49326869126873" lon="14.043123543145168"><ele>615.6</ele><time>2026-04-26T16:46:53.999Z</time></trkpt><trkpt lat="37.49321417656132" lon="14.0430153769676"><ele>616.2</ele><time>2026-04-26T16:46:54.999Z</time></trkpt><trkpt lat="37.49316305605599" lon="14.042899570559529"><ele>616.8</ele><time>2026-04-26T16:46:55.999Z</time></trkpt><trkpt lat="37.49311336131199" lon="14.04277993042769"><ele>617.4</ele><time>2026-04-26T16:46:56.999Z</time></trkpt><trkpt lat="37.49306478973647" lon="14.042662052807685"><ele>618.0</ele><time>2026-04-26T16:46:57.999Z</time></trkpt><trkpt lat="37.49301760875727" lon="14.042539925566937"><ele>618.5</ele><time>2026-04-26T16:46:58.999Z</time></trkpt><trkpt lat="37.49296979219513" lon="14.042414105041571"><ele>619.0</ele><time>2026-04-26T16:46:59.999Z</time></trkpt><trkpt lat="37.49291249386053" lon="14.042290050726482"><ele>619.5</ele><time>2026-04-26T16:47:00.999Z</time></trkpt><trkpt lat="37.492859654203606" lon="14.042164699019311"><ele>620.0</ele><time>2026-04-26T16:47:01.999Z</time></trkpt><trkpt lat="37.492806392158165" lon="14.042036135655504"><ele>620.2</ele><time>2026-04-26T16:47:02.999Z</time></trkpt><trkpt lat="37.49275244576294" lon="14.041915285403679"><ele>620.4</ele><time>2026-04-26T16:47:03.999Z</time></trkpt><trkpt lat="37.49270639548781" lon="14.041796314045827"><ele>620.6</ele><time>2026-04-26T16:47:04.999Z</time></trkpt><trkpt lat="37.492662537936354" lon="14.041685623155336"><ele>620.8</ele><time>2026-04-26T16:47:05.999Z</time></trkpt><trkpt lat="37.49262109963314" lon="14.041578242519515"><ele>621.0</ele><time>2026-04-26T16:47:06.999Z</time></trkpt><trkpt lat="37.49258327841669" lon="14.041475947571008"><ele>621.0</ele><time>2026-04-26T16:47:07.999Z</time></trkpt><trkpt lat="37.49255074310481" lon="14.04136662319477"><ele>621.0</ele><time>2026-04-26T16:47:08.999Z</time></trkpt><trkpt lat="37.49252488595168" lon="14.041251191685621"><ele>621.0</ele><time>2026-04-26T16:47:09.999Z</time></trkpt><trkpt lat="37.49250252848252" lon="14.041138514040508"><ele>621.0</ele><time>2026-04-26T16:47:10.999Z</time></trkpt><trkpt lat="37.492487019419094" lon="14.041041050223097"><ele>621.0</ele><time>2026-04-26T16:47:11.999Z</time></trkpt><trkpt lat="37.492470464490125" lon="14.040948541711476"><ele>621.0</ele><time>2026-04-26T16:47:12.999Z</time></trkpt><trkpt lat="37.49245167571731" lon="14.040866043129062"><ele>621.3333333333334</ele><time>2026-04-26T16:47:13.999Z</time></trkpt><trkpt lat="37.492431410975115" lon="14.040786282800736"><ele>621.6666666666666</ele><time>2026-04-26T16:47:14.999Z</time></trkpt><trkpt lat="37.492414434478114" lon="14.040701674595574"><ele>622.0</ele><time>2026-04-26T16:47:15.999Z</time></trkpt><trkpt lat="37.49241726150658" lon="14.040550930124965"><ele>622.3333333333333</ele><time>2026-04-26T16:47:17.999Z</time></trkpt><trkpt lat="37.49237577544375" lon="14.040426906827564"><ele>622.6666666666666</ele><time>2026-04-26T16:47:19.999Z</time></trkpt><trkpt lat="37.49236676457948" lon="14.040318444025914"><ele>623.0</ele><time>2026-04-26T16:47:21.999Z</time></trkpt><trkpt lat="37.49235875729156" lon="14.040233315345699"><ele>623.0</ele><time>2026-04-26T16:47:23.999Z</time></trkpt><trkpt lat="37.49231435342276" lon="14.040110622553168"><ele>623.0</ele><time>2026-04-26T16:47:26.999Z</time></trkpt><trkpt lat="37.49223858683726" lon="14.04007461145411"><ele>623.0</ele><time>2026-04-26T16:47:28.999Z</time></trkpt><trkpt lat="37.49215104521597" lon="14.040132844527825"><ele>623.0</ele><time>2026-04-26T16:47:30.999Z</time></trkpt><trkpt lat="37.49205879033894" lon="14.040209850208829"><ele>623.0</ele><time>2026-04-26T16:47:32.999Z</time></trkpt><trkpt lat="37.49195467390075" lon="14.040271297876505"><ele>621.6</ele><time>2026-04-26T16:47:34.999Z</time></trkpt><trkpt lat="37.491843828922896" lon="14.04032366064775"><ele>620.1999999999999</ele><time>2026-04-26T16:47:36.999Z</time></trkpt><trkpt lat="37.491727337632476" lon="14.040387264878554"><ele>618.8</ele><time>2026-04-26T16:47:38.999Z</time></trkpt><trkpt lat="37.49163391581457" lon="14.040425488225196"><ele>617.4</ele><time>2026-04-26T16:47:40.999Z</time></trkpt><trkpt lat="37.49155148921827" lon="14.040436339823419"><ele>616.0</ele><time>2026-04-26T16:47:42.999Z</time></trkpt><trkpt lat="37.491479943003" lon="14.04039902032364"><ele>616.0</ele><time>2026-04-26T16:47:45Z</time></trkpt><trkpt lat="37.491421906755626" lon="14.04032305818202"><ele>616.0</ele><time>2026-04-26T16:47:47Z</time></trkpt><trkpt lat="37.4913823373471" lon="14.04023204169066"><ele>616.0</ele><time>2026-04-26T16:47:49Z</time></trkpt><trkpt lat="37.49136267778967" lon="14.040102917813325"><ele>616.0</ele><time>2026-04-26T16:47:51Z</time></trkpt><trkpt lat="37.491374745235795" lon="14.039960007644094"><ele>616.0</ele><time>2026-04-26T16:47:53Z</time></trkpt><trkpt lat="37.49138574535978" lon="14.039833855892578"><ele>615.6</ele><time>2026-04-26T16:47:55Z</time></trkpt><trkpt lat="37.49138192066498" lon="14.039702745668286"><ele>615.2</ele><time>2026-04-26T16:47:57Z</time></trkpt><trkpt lat="37.4913799114124" lon="14.039565887604144"><ele>614.8</ele><time>2026-04-26T16:47:59Z</time></trkpt><trkpt lat="37.49134601585558" lon="14.039431124772529"><ele>614.4</ele><time>2026-04-26T16:48:01Z</time></trkpt><trkpt lat="37.491296506667304" lon="14.039380522327018"><ele>614.0</ele><time>2026-04-26T16:48:02Z</time></trkpt><trkpt lat="37.49124172306614" lon="14.039276790535157"><ele>614.0</ele><time>2026-04-26T16:48:04Z</time></trkpt><trkpt lat="37.49117418012855" lon="14.039206236739737"><ele>614.0</ele><time>2026-04-26T16:48:07Z</time></trkpt><trkpt lat="37.49116221625025" lon="14.039124833896702"><ele>614.0</ele><time>2026-04-26T16:48:09Z</time></trkpt><trkpt lat="37.49105048132354" lon="14.039213197486195"><ele>614.0</ele><time>2026-04-26T16:48:10Z</time></trkpt><trkpt lat="37.49096317792414" lon="14.039314017103006"><ele>614.0</ele><time>2026-04-26T16:48:12Z</time></trkpt><trkpt lat="37.490906728592584" lon="14.039372331492647"><ele>614.0</ele><time>2026-04-26T16:48:13Z</time></trkpt><trkpt lat="37.49084177364609" lon="14.039423632796638"><ele>614.0</ele><time>2026-04-26T16:48:14Z</time></trkpt><trkpt lat="37.490772861851454" lon="14.039467991939034"><ele>614.0</ele><time>2026-04-26T16:48:15Z</time></trkpt><trkpt lat="37.490694995538234" lon="14.039499734808727"><ele>614.0</ele><time>2026-04-26T16:48:16Z</time></trkpt><trkpt lat="37.49060907821002" lon="14.03951146475791"><ele>614.0</ele><time>2026-04-26T16:48:17Z</time></trkpt><trkpt lat="37.49051995792036" lon="14.039493726020234"><ele>614.0</ele><time>2026-04-26T16:48:18Z</time></trkpt><trkpt lat="37.49043660707713" lon="14.039451754848864"><ele>612.8</ele><time>2026-04-26T16:48:19Z</time></trkpt><trkpt lat="37.49035645079047" lon="14.03939546723813"><ele>611.5999999999999</ele><time>2026-04-26T16:48:20Z</time></trkpt><trkpt lat="37.49026707858548" lon="14.039346306268325"><ele>610.4</ele><time>2026-04-26T16:48:21Z</time></trkpt><trkpt lat="37.490175591106684" lon="14.039325809495312"><ele>609.1999999999999</ele><time>2026-04-26T16:48:22Z</time></trkpt><trkpt lat="37.49010373831299" lon="14.039166975323447"><ele>608.0</ele><time>2026-04-26T16:48:23Z</time></trkpt><trkpt lat="37.49001780891144" lon="14.039077734004588"><ele>607.8</ele><time>2026-04-26T16:48:24Z</time></trkpt><trkpt lat="37.48993515583766" lon="14.03897885232783"><ele>607.5999999999999</ele><time>2026-04-26T16:48:25Z</time></trkpt><trkpt lat="37.48985842657821" lon="14.038884493491267"><ele>607.4000000000001</ele><time>2026-04-26T16:48:26Z</time></trkpt><trkpt lat="37.4897783353351" lon="14.038787622935878"><ele>607.2</ele><time>2026-04-26T16:48:27Z</time></trkpt><trkpt lat="37.48968239910533" lon="14.038721800313365"><ele>607.0</ele><time>2026-04-26T16:48:28Z</time></trkpt><trkpt lat="37.489610461305666" lon="14.038586124746862"><ele>605.5</ele><time>2026-04-26T16:48:29Z</time></trkpt><trkpt lat="37.48953277271722" lon="14.03846244860686"><ele>604.0</ele><time>2026-04-26T16:48:30Z</time></trkpt><trkpt lat="37.48945535884437" lon="14.038321022055808"><ele>602.5</ele><time>2026-04-26T16:48:31Z</time></trkpt><trkpt lat="37.48937713869536" lon="14.038179343607979"><ele>601.0</ele><time>2026-04-26T16:48:32Z</time></trkpt><trkpt lat="37.48929493170765" lon="14.03804034953033"><ele>601.0</ele><time>2026-04-26T16:48:33Z</time></trkpt><trkpt lat="37.48921534297874" lon="14.03789504911952"><ele>601.0</ele><time>2026-04-26T16:48:34Z</time></trkpt><trkpt lat="37.48913405004759" lon="14.037746619804109"><ele>601.0</ele><time>2026-04-26T16:48:35Z</time></trkpt><trkpt lat="37.489055248752486" lon="14.03760753057044"><ele>601.0</ele><time>2026-04-26T16:48:36Z</time></trkpt><trkpt lat="37.48897835837137" lon="14.037468560051963"><ele>602.0</ele><time>2026-04-26T16:48:37Z</time></trkpt><trkpt lat="37.48890201700899" lon="14.037324122845558"><ele>603.0</ele><time>2026-04-26T16:48:38Z</time></trkpt><trkpt lat="37.48882259828598" lon="14.037182146154125"><ele>604.0</ele><time>2026-04-26T16:48:39Z</time></trkpt><trkpt lat="37.4887439195545" lon="14.037042417716789"><ele>605.0</ele><time>2026-04-26T16:48:40Z</time></trkpt><trkpt lat="37.48866054738394" lon="14.036899649059889"><ele>603.75</ele><time>2026-04-26T16:48:41Z</time></trkpt><trkpt lat="37.488571163635456" lon="14.036755998328518"><ele>602.5</ele><time>2026-04-26T16:48:42Z</time></trkpt><trkpt lat="37.48847437131758" lon="14.036612822473481"><ele>601.25</ele><time>2026-04-26T16:48:43Z</time></trkpt><trkpt lat="37.488369898503635" lon="14.03647501533013"><ele>600.0</ele><time>2026-04-26T16:48:44Z</time></trkpt><trkpt lat="37.48826041218137" lon="14.036348233167127"><ele>600.0</ele><time>2026-04-26T16:48:45Z</time></trkpt><trkpt lat="37.48814374110594" lon="14.036226912699291"><ele>600.0</ele><time>2026-04-26T16:48:46Z</time></trkpt><trkpt lat="37.48802519629766" lon="14.03610997216197"><ele>600.0</ele><time>2026-04-26T16:48:47Z</time></trkpt><trkpt lat="37.48790309794276" lon="14.035995180356249"><ele>600.3333333333334</ele><time>2026-04-26T16:48:48Z</time></trkpt><trkpt lat="37.48777671720093" lon="14.035881292723431"><ele>600.6666666666667</ele><time>2026-04-26T16:48:49Z</time></trkpt><trkpt lat="37.48764430913713" lon="14.035771739160221"><ele>601.0</ele><time>2026-04-26T16:48:50Z</time></trkpt><trkpt lat="37.487513527769345" lon="14.03566049383735"><ele>601.0</ele><time>2026-04-26T16:48:51Z</time></trkpt><trkpt lat="37.487386744076055" lon="14.035551340232775"><ele>601.0</ele><time>2026-04-26T16:48:51.999Z</time></trkpt><trkpt lat="37.48725447835534" lon="14.035442203463878"><ele>601.0</ele><time>2026-04-26T16:48:52.999Z</time></trkpt><trkpt lat="37.4871128249398" lon="14.03533637697291"><ele>596.6666666666667</ele><time>2026-04-26T16:48:53.999Z</time></trkpt><trkpt lat="37.48698024368022" lon="14.035219746964604"><ele>592.3333333333334</ele><time>2026-04-26T16:48:54.999Z</time></trkpt><trkpt lat="37.4868500333547" lon="14.035103172818678"><ele>588.0</ele><time>2026-04-26T16:48:55.999Z</time></trkpt><trkpt lat="37.48671792738404" lon="14.034995594751168"><ele>590.0</ele><time>2026-04-26T16:48:56.999Z</time></trkpt><trkpt lat="37.48658998433434" lon="14.034885122207706"><ele>592.0</ele><time>2026-04-26T16:48:57.999Z</time></trkpt><trkpt lat="37.48645605588351" lon="14.034772564958875"><ele>594.0</ele><time>2026-04-26T16:48:58.999Z</time></trkpt><trkpt lat="37.48632281156607" lon="14.034655623776"><ele>591.3333333333334</ele><time>2026-04-26T16:48:59.999Z</time></trkpt><trkpt lat="37.48618506902593" lon="14.03454115775791"><ele>588.6666666666667</ele><time>2026-04-26T16:49:00.999Z</time></trkpt><trkpt lat="37.48604788957139" lon="14.034426951751112"><ele>586.0</ele><time>2026-04-26T16:49:01.999Z</time></trkpt><trkpt lat="37.48591019516888" lon="14.034311055765766"><ele>586.0</ele><time>2026-04-26T16:49:02.999Z</time></trkpt><trkpt lat="37.48576799500644" lon="14.034201836447718"><ele>586.0</ele><time>2026-04-26T16:49:03.999Z</time></trkpt><trkpt lat="37.48562686409183" lon="14.03409495132532"><ele>586.0</ele><time>2026-04-26T16:49:04.999Z</time></trkpt><trkpt lat="37.485480494932894" lon="14.03400103993872"><ele>586.3333333333334</ele><time>2026-04-26T16:49:05.999Z</time></trkpt><trkpt lat="37.485333946479415" lon="14.033914706912306"><ele>586.6666666666666</ele><time>2026-04-26T16:49:06.999Z</time></trkpt><trkpt lat="37.48518020826727" lon="14.033829210650149"><ele>587.0</ele><time>2026-04-26T16:49:07.999Z</time></trkpt><trkpt lat="37.485031259916354" lon="14.033742860991627"><ele>587.0</ele><time>2026-04-26T16:49:08.999Z</time></trkpt><trkpt lat="37.48487879278543" lon="14.033659823573707"><ele>587.0</ele><time>2026-04-26T16:49:09.999Z</time></trkpt><trkpt lat="37.484722368062315" lon="14.033575151242871"><ele>587.0</ele><time>2026-04-26T16:49:10.999Z</time></trkpt><trkpt lat="37.48456927818289" lon="14.033493589860663"><ele>587.0</ele><time>2026-04-26T16:49:11.999Z</time></trkpt><trkpt lat="37.48441631896289" lon="14.033412774134135"><ele>587.0</ele><time>2026-04-26T16:49:12.999Z</time></trkpt><trkpt lat="37.48425961456913" lon="14.03332859900001"><ele>587.0</ele><time>2026-04-26T16:49:13.999Z</time></trkpt><trkpt lat="37.484104078629315" lon="14.0332437438967"><ele>587.0</ele><time>2026-04-26T16:49:14.999Z</time></trkpt><trkpt lat="37.48394894008462" lon="14.033159670077302"><ele>587.0</ele><time>2026-04-26T16:49:15.999Z</time></trkpt><trkpt lat="37.48379548914005" lon="14.033076526180015"><ele>587.0</ele><time>2026-04-26T16:49:16.999Z</time></trkpt><trkpt lat="37.48363502773605" lon="14.03299401745468"><ele>582.6666666666666</ele><time>2026-04-26T16:49:17.999Z</time></trkpt><trkpt lat="37.48347125824515" lon="14.032906212510234"><ele>578.3333333333334</ele><time>2026-04-26T16:49:18.999Z</time></trkpt><trkpt lat="37.48329919977064" lon="14.03281566683547"><ele>574.0</ele><time>2026-04-26T16:49:19.999Z</time></trkpt><trkpt lat="37.48312567100096" lon="14.032722531220566"><ele>574.0</ele><time>2026-04-26T16:49:20.999Z</time></trkpt><trkpt lat="37.482961105688766" lon="14.032631296788841"><ele>574.0</ele><time>2026-04-26T16:49:21.999Z</time></trkpt><trkpt lat="37.482802658607405" lon="14.032543282745532"><ele>574.0</ele><time>2026-04-26T16:49:22.999Z</time></trkpt><trkpt lat="37.482643522033904" lon="14.032459214099521"><ele>575.0</ele><time>2026-04-26T16:49:23.999Z</time></trkpt><trkpt lat="37.48248397457444" lon="14.032369863560184"><ele>576.0</ele><time>2026-04-26T16:49:24.999Z</time></trkpt><trkpt lat="37.48232042863802" lon="14.032285636693802"><ele>577.0</ele><time>2026-04-26T16:49:25.999Z</time></trkpt><trkpt lat="37.48216049056782" lon="14.032201041213638"><ele>577.3333333333334</ele><time>2026-04-26T16:49:26.999Z</time></trkpt><trkpt lat="37.48200197688825" lon="14.032114678150805"><ele>577.6666666666666</ele><time>2026-04-26T16:49:27.999Z</time></trkpt><trkpt lat="37.48184306191197" lon="14.032026631213661"><ele>578.0</ele><time>2026-04-26T16:49:28.999Z</time></trkpt><trkpt lat="37.481683602001425" lon="14.031942867600815"><ele>578.0</ele><time>2026-04-26T16:49:29.999Z</time></trkpt><trkpt lat="37.48151850422447" lon="14.031858984549078"><ele>578.0</ele><time>2026-04-26T16:49:30.999Z</time></trkpt><trkpt lat="37.481349177636204" lon="14.031773108982092"><ele>578.0</ele><time>2026-04-26T16:49:31.999Z</time></trkpt><trkpt lat="37.48118237471127" lon="14.031680976082944"><ele>577.6666666666666</ele><time>2026-04-26T16:49:32.999Z</time></trkpt><trkpt lat="37.48101967498303" lon="14.031598267045036"><ele>577.3333333333334</ele><time>2026-04-26T16:49:33.999Z</time></trkpt><trkpt lat="37.48086164324292" lon="14.031514255762882"><ele>577.0</ele><time>2026-04-26T16:49:34.999Z</time></trkpt><trkpt lat="37.480700998113974" lon="14.031435041834563"><ele>577.0</ele><time>2026-04-26T16:49:35.999Z</time></trkpt><trkpt lat="37.480545568442366" lon="14.031348907982549"><ele>577.0</ele><time>2026-04-26T16:49:36.999Z</time></trkpt><trkpt lat="37.480399654838514" lon="14.031265763238812"><ele>577.0</ele><time>2026-04-26T16:49:37.999Z</time></trkpt><trkpt lat="37.480255082412555" lon="14.03118856345343"><ele>575.0</ele><time>2026-04-26T16:49:38.999Z</time></trkpt><trkpt lat="37.48011203162614" lon="14.031106227903193"><ele>573.0</ele><time>2026-04-26T16:49:39.999Z</time></trkpt><trkpt lat="37.47996881554753" lon="14.031027376207685"><ele>571.0</ele><time>2026-04-26T16:49:40.999Z</time></trkpt><trkpt lat="37.47982244012261" lon="14.030944197512962"><ele>571.0</ele><time>2026-04-26T16:49:41.999Z</time></trkpt><trkpt lat="37.47968348181962" lon="14.030872460025767"><ele>571.0</ele><time>2026-04-26T16:49:42.999Z</time></trkpt><trkpt lat="37.47953936157822" lon="14.030797545732234"><ele>571.0</ele><time>2026-04-26T16:49:43.999Z</time></trkpt><trkpt lat="37.47939764054929" lon="14.030721611237706"><ele>571.75</ele><time>2026-04-26T16:49:44.999Z</time></trkpt><trkpt lat="37.47926335365126" lon="14.030648774221993"><ele>572.5</ele><time>2026-04-26T16:49:45.999Z</time></trkpt><trkpt lat="37.47913667333977" lon="14.030578683511402"><ele>573.25</ele><time>2026-04-26T16:49:46.999Z</time></trkpt><trkpt lat="37.47900771520486" lon="14.030513206681796"><ele>574.0</ele><time>2026-04-26T16:49:47.999Z</time></trkpt><trkpt lat="37.47887929931811" lon="14.030446072109811"><ele>572.25</ele><time>2026-04-26T16:49:48.999Z</time></trkpt><trkpt lat="37.47875937117736" lon="14.030382983397406"><ele>570.5</ele><time>2026-04-26T16:49:49.999Z</time></trkpt><trkpt lat="37.47864345637614" lon="14.030320259551234"><ele>568.75</ele><time>2026-04-26T16:49:51Z</time></trkpt><trkpt lat="37.478532239916234" lon="14.03025871139506"><ele>567.0</ele><time>2026-04-26T16:49:52Z</time></trkpt><trkpt lat="37.47842608933179" lon="14.030197797024902"><ele>567.0</ele><time>2026-04-26T16:49:53Z</time></trkpt><trkpt lat="37.47832305982465" lon="14.03013589675431"><ele>567.0</ele><time>2026-04-26T16:49:54Z</time></trkpt><trkpt lat="37.47822333115391" lon="14.03007609590183"><ele>567.0</ele><time>2026-04-26T16:49:55Z</time></trkpt><trkpt lat="37.47812569073681" lon="14.030019838013047"><ele>567.0</ele><time>2026-04-26T16:49:56Z</time></trkpt><trkpt lat="37.47803340823634" lon="14.029971619677891"><ele>567.0</ele><time>2026-04-26T16:49:57Z</time></trkpt><trkpt lat="37.47795060944433" lon="14.029927451179502"><ele>567.0</ele><time>2026-04-26T16:49:58Z</time></trkpt><trkpt lat="37.47787141391266" lon="14.029882292587859"><ele>567.0</ele><time>2026-04-26T16:49:59Z</time></trkpt><trkpt lat="37.47780265111618" lon="14.02983485427973"><ele>567.0</ele><time>2026-04-26T16:50:00Z</time></trkpt><trkpt lat="37.477746600634724" lon="14.02977603382544"><ele>567.0</ele><time>2026-04-26T16:50:01Z</time></trkpt><trkpt lat="37.47769930813353" lon="14.029718471846875"><ele>567.0</ele><time>2026-04-26T16:50:02Z</time></trkpt><trkpt lat="37.47765359285626" lon="14.029662253929965"><ele>567.0</ele><time>2026-04-26T16:50:03Z</time></trkpt><trkpt lat="37.477604382098775" lon="14.02960831732202"><ele>567.0</ele><time>2026-04-26T16:50:04Z</time></trkpt><trkpt lat="37.47749243967947" lon="14.029553395297574"><ele>567.0</ele><time>2026-04-26T16:50:06Z</time></trkpt><trkpt lat="37.47738757164834" lon="14.029508566400214"><ele>567.0</ele><time>2026-04-26T16:50:08Z</time></trkpt><trkpt lat="37.477350017627565" lon="14.029443854147106"><ele>567.0</ele><time>2026-04-26T16:50:16Z</time></trkpt><trkpt lat="37.47724317855407" lon="14.029448603109714"><ele>567.0</ele><time>2026-04-26T16:52:15Z</time></trkpt><trkpt lat="37.47731827173878" lon="14.029444913284"><ele>567.0</ele><time>2026-04-26T16:53:04.999Z</time></trkpt><trkpt lat="37.47725876831029" lon="14.029477202774126"><ele>567.0</ele><time>2026-04-26T16:54:19Z</time></trkpt><trkpt lat="37.47732479301715" lon="14.029452469623346"><ele>567.0</ele><time>2026-04-26T16:56:01.999Z</time></trkpt><trkpt lat="37.47737339897917" lon="14.02935954262333"><ele>567.0</ele><time>2026-04-26T16:56:25Z</time></trkpt><trkpt lat="37.47742128705424" lon="14.02928270299026"><ele>567.0</ele><time>2026-04-26T16:56:33Z</time></trkpt><trkpt lat="37.47746655549964" lon="14.029186110975685"><ele>567.0</ele><time>2026-04-26T16:56:35Z</time></trkpt><trkpt lat="37.477519969254786" lon="14.02909589900528"><ele>567.0</ele><time>2026-04-26T16:56:37Z</time></trkpt><trkpt lat="37.47757670530216" lon="14.02898374368276"><ele>568.0</ele><time>2026-04-26T16:56:39Z</time></trkpt><trkpt lat="37.47763924599239" lon="14.02886138318002"><ele>569.0</ele><time>2026-04-26T16:56:41Z</time></trkpt><trkpt lat="37.47769599387985" lon="14.028750531699378"><ele>570.0</ele><time>2026-04-26T16:56:43Z</time></trkpt><trkpt lat="37.477750423375646" lon="14.028633919006715"><ele>571.0</ele><time>2026-04-26T16:56:45Z</time></trkpt><trkpt lat="37.477806094305976" lon="14.02852315791755"><ele>572.0</ele><time>2026-04-26T16:56:47Z</time></trkpt><trkpt lat="37.47787988172311" lon="14.02839008184087"><ele>573.5</ele><time>2026-04-26T16:56:49Z</time></trkpt><trkpt lat="37.477922814420495" lon="14.028301646465946"><ele>575.0</ele><time>2026-04-26T16:56:50Z</time></trkpt><trkpt lat="37.47796469482217" lon="14.028225994475873"><ele>576.5</ele><time>2026-04-26T16:56:51Z</time></trkpt><trkpt lat="37.47802779352075" lon="14.02810493204191"><ele>578.0</ele><time>2026-04-26T16:56:53Z</time></trkpt><trkpt lat="37.47806695827899" lon="14.028031696165678"><ele>579.5</ele><time>2026-04-26T16:56:55Z</time></trkpt><trkpt lat="37.47811409396538" lon="14.027972238637968"><ele>581.0</ele><time>2026-04-26T16:56:58Z</time></trkpt><trkpt lat="37.478217140228345" lon="14.028065789624304"><ele>590.0</ele><time>2026-04-26T16:57:01Z</time></trkpt><trkpt lat="37.47826672358634" lon="14.028116681390655"><ele>590.0</ele><time>2026-04-26T16:57:04Z</time></trkpt><trkpt lat="37.47821050415909" lon="14.028067787287544"><ele>590.0</ele><time>2026-04-26T16:58:28Z</time></trkpt><trkpt lat="37.47815109582784" lon="14.028029680967204"><ele>590.0</ele><time>2026-04-26T16:58:35Z</time></trkpt><trkpt lat="37.4780917276465" lon="14.027983729125927"><ele>590.0</ele><time>2026-04-26T17:10:53Z</time></trkpt></trkseg></trk></gpx>